<?xml version='1.0' encoding='UTF-8'?><gpx version="1.1" creator="JPX - https://github.com/jenetics/jpx" xmlns="http://www.topografix.com/GPX/1/1"><trk><trkseg><trkpt lat="44.0745421" lon="8.2128201"><ele>3.9999999999999996</ele><time>2026-04-03T07:35:04.993Z</time></trkpt><trkpt lat="44.0746165" lon="8.2128725"><ele>4.0</ele><time>2026-04-03T07:35:06.992Z</time></trkpt><trkpt lat="44.0746904" lon="8.2129258"><ele>4.0</ele><time>2026-04-03T07:35:07.992Z</time></trkpt><trkpt lat="44.0747638" lon="8.2129639"><ele>4.0</ele><time>2026-04-03T07:35:08.993Z</time></trkpt><trkpt lat="44.0748427" lon="8.2130077"><ele>3.9999999999999996</ele><time>2026-04-03T07:35:09.993Z</time></trkpt><trkpt lat="44.0749361" lon="8.213059"><ele>4.0</ele><time>2026-04-03T07:35:10.993Z</time></trkpt><trkpt lat="44.0750204" lon="8.2131132"><ele>4.0</ele><time>2026-04-03T07:35:11.992Z</time></trkpt><trkpt lat="44.0751057" lon="8.2131777"><ele>4.0</ele><time>2026-04-03T07:35:12.993Z</time></trkpt><trkpt lat="44.0751835" lon="8.2132537"><ele>4.0</ele><time>2026-04-03T07:35:13.993Z</time></trkpt><trkpt lat="44.0752644" lon="8.2133263"><ele>4.0</ele><time>2026-04-03T07:35:14.993Z</time></trkpt><trkpt lat="44.0753457" lon="8.2133977"><ele>4.0</ele><time>2026-04-03T07:35:15.993Z</time></trkpt><trkpt lat="44.0754265" lon="8.2134663"><ele>4.0</ele><time>2026-04-03T07:35:16.993Z</time></trkpt><trkpt lat="44.0755075" lon="8.2135351"><ele>4.0</ele><time>2026-04-03T07:35:17.993Z</time></trkpt><trkpt lat="44.0755877" lon="8.2136017"><ele>4.0</ele><time>2026-04-03T07:35:18.992Z</time></trkpt><trkpt lat="44.0756727" lon="8.2136742"><ele>4.0</ele><time>2026-04-03T07:35:19.993Z</time></trkpt><trkpt lat="44.0757556" lon="8.2137494"><ele>4.0</ele><time>2026-04-03T07:35:20.992Z</time></trkpt><trkpt lat="44.0758386" lon="8.2138368"><ele>3.8000000000000003</ele><time>2026-04-03T07:35:21.992Z</time></trkpt><trkpt lat="44.0759276" lon="8.2139185"><ele>3.6000000000000005</ele><time>2026-04-03T07:35:22.992Z</time></trkpt><trkpt lat="44.0760246" lon="8.2140102"><ele>3.4</ele><time>2026-04-03T07:35:23.993Z</time></trkpt><trkpt lat="44.0761133" lon="8.2140858"><ele>3.2</ele><time>2026-04-03T07:35:24.993Z</time></trkpt><trkpt lat="44.076196" lon="8.2141403"><ele>3.0</ele><time>2026-04-03T07:35:25.993Z</time></trkpt><trkpt lat="44.0762668" lon="8.2141774"><ele>3.0</ele><time>2026-04-03T07:35:26.992Z</time></trkpt><trkpt lat="44.076351" lon="8.2142102"><ele>3.0</ele><time>2026-04-03T07:35:28.993Z</time></trkpt><trkpt lat="44.076425" lon="8.2142482"><ele>3.0</ele><time>2026-04-03T07:35:31.993Z</time></trkpt><trkpt lat="44.076491" lon="8.2142794"><ele>3.0</ele><time>2026-04-03T07:35:33.992Z</time></trkpt><trkpt lat="44.0765571" lon="8.2143133"><ele>3.0</ele><time>2026-04-03T07:35:35.993Z</time></trkpt><trkpt lat="44.0766253" lon="8.2143508"><ele>3.0</ele><time>2026-04-03T07:35:37.993Z</time></trkpt><trkpt lat="44.0766953" lon="8.2144009"><ele>3.4</ele><time>2026-04-03T07:35:40.992Z</time></trkpt><trkpt lat="44.0767682" lon="8.2144236"><ele>3.8</ele><time>2026-04-03T07:35:49.992Z</time></trkpt><trkpt lat="44.0768371" lon="8.214363"><ele>4.2</ele><time>2026-04-03T07:35:50.993Z</time></trkpt><trkpt lat="44.0769183" lon="8.2142637"><ele>4.6</ele><time>2026-04-03T07:35:51.992Z</time></trkpt><trkpt lat="44.077006" lon="8.214152"><ele>5.0</ele><time>2026-04-03T07:35:52.993Z</time></trkpt><trkpt lat="44.0770936" lon="8.2140403"><ele>5.0</ele><time>2026-04-03T07:35:53.993Z</time></trkpt><trkpt lat="44.0771775" lon="8.2139449"><ele>5.0</ele><time>2026-04-03T07:35:54.993Z</time></trkpt><trkpt lat="44.0772637" lon="8.2138556"><ele>5.0</ele><time>2026-04-03T07:35:55.993Z</time></trkpt><trkpt lat="44.0773468" lon="8.2137674"><ele>5.0</ele><time>2026-04-03T07:35:56.993Z</time></trkpt><trkpt lat="44.0774265" lon="8.2136784"><ele>5.0</ele><time>2026-04-03T07:35:57.993Z</time></trkpt><trkpt lat="44.0775076" lon="8.2136028"><ele>5.166666666666667</ele><time>2026-04-03T07:35:58.993Z</time></trkpt><trkpt lat="44.077586" lon="8.2135374"><ele>5.333333333333334</ele><time>2026-04-03T07:35:59.992Z</time></trkpt><trkpt lat="44.0776576" lon="8.2134716"><ele>5.5</ele><time>2026-04-03T07:36:00.992Z</time></trkpt><trkpt lat="44.0777183" lon="8.2134056"><ele>5.666666666666667</ele><time>2026-04-03T07:36:01.993Z</time></trkpt><trkpt lat="44.0777743" lon="8.2133581"><ele>5.833333333333333</ele><time>2026-04-03T07:36:02.993Z</time></trkpt><trkpt lat="44.0778463" lon="8.2133213"><ele>6.0</ele><time>2026-04-03T07:36:04.993Z</time></trkpt><trkpt lat="44.0778281" lon="8.2131561"><ele>6.25</ele><time>2026-04-03T07:36:09.992Z</time></trkpt><trkpt lat="44.0777731" lon="8.2130091"><ele>6.5</ele><time>2026-04-03T07:36:10.993Z</time></trkpt><trkpt lat="44.0777151" lon="8.212838"><ele>6.75</ele><time>2026-04-03T07:36:11.993Z</time></trkpt><trkpt lat="44.0776526" lon="8.2126602"><ele>7.0</ele><time>2026-04-03T07:36:12.993Z</time></trkpt><trkpt lat="44.077581" lon="8.212483"><ele>7.25</ele><time>2026-04-03T07:36:13.992Z</time></trkpt><trkpt lat="44.0775053" lon="8.2123114"><ele>7.5</ele><time>2026-04-03T07:36:14.992Z</time></trkpt><trkpt lat="44.0774293" lon="8.2121507"><ele>7.75</ele><time>2026-04-03T07:36:15.993Z</time></trkpt><trkpt lat="44.0773613" lon="8.2119959"><ele>8.0</ele><time>2026-04-03T07:36:16.992Z</time></trkpt><trkpt lat="44.0773018" lon="8.21185"><ele>7.2</ele><time>2026-04-03T07:36:17.993Z</time></trkpt><trkpt lat="44.0772518" lon="8.2117034"><ele>6.4</ele><time>2026-04-03T07:36:18.993Z</time></trkpt><trkpt lat="44.0772111" lon="8.2115583"><ele>5.6000000000000005</ele><time>2026-04-03T07:36:19.993Z</time></trkpt><trkpt lat="44.0771815" lon="8.2114139"><ele>4.800000000000001</ele><time>2026-04-03T07:36:20.993Z</time></trkpt><trkpt lat="44.0771573" lon="8.2112828"><ele>4.0</ele><time>2026-04-03T07:36:21.993Z</time></trkpt><trkpt lat="44.077142" lon="8.211161"><ele>4.0</ele><time>2026-04-03T07:36:22.993Z</time></trkpt><trkpt lat="44.0771235" lon="8.2110465"><ele>4.0</ele><time>2026-04-03T07:36:23.993Z</time></trkpt><trkpt lat="44.0771125" lon="8.2109292"><ele>4.0</ele><time>2026-04-03T07:36:24.992Z</time></trkpt><trkpt lat="44.0771069" lon="8.2107942"><ele>4.0</ele><time>2026-04-03T07:36:25.993Z</time></trkpt><trkpt lat="44.0771171" lon="8.2106368"><ele>4.0</ele><time>2026-04-03T07:36:26.993Z</time></trkpt><trkpt lat="44.0771307" lon="8.2104747"><ele>4.4</ele><time>2026-04-03T07:36:27.993Z</time></trkpt><trkpt lat="44.0771391" lon="8.2103017"><ele>4.800000000000001</ele><time>2026-04-03T07:36:28.993Z</time></trkpt><trkpt lat="44.0771444" lon="8.2101354"><ele>5.199999999999999</ele><time>2026-04-03T07:36:29.993Z</time></trkpt><trkpt lat="44.0771474" lon="8.2099838"><ele>5.6</ele><time>2026-04-03T07:36:30.993Z</time></trkpt><trkpt lat="44.0771403" lon="8.2098556"><ele>6.0</ele><time>2026-04-03T07:36:31.992Z</time></trkpt><trkpt lat="44.077108" lon="8.2097457"><ele>6.5</ele><time>2026-04-03T07:36:32.993Z</time></trkpt><trkpt lat="44.0770556" lon="8.2096416"><ele>7.0</ele><time>2026-04-03T07:36:33.993Z</time></trkpt><trkpt lat="44.0769952" lon="8.2095431"><ele>7.5</ele><time>2026-04-03T07:36:34.992Z</time></trkpt><trkpt lat="44.076936" lon="8.2094373"><ele>8.0</ele><time>2026-04-03T07:36:35.992Z</time></trkpt><trkpt lat="44.076888" lon="8.2093376"><ele>8.5</ele><time>2026-04-03T07:36:36.993Z</time></trkpt><trkpt lat="44.0768544" lon="8.2092339"><ele>9.0</ele><time>2026-04-03T07:36:37.993Z</time></trkpt><trkpt lat="44.0768428" lon="8.2091314"><ele>9.0</ele><time>2026-04-03T07:36:38.992Z</time></trkpt><trkpt lat="44.0768355" lon="8.2089968"><ele>9.0</ele><time>2026-04-03T07:36:39.993Z</time></trkpt><trkpt lat="44.0768604" lon="8.2088973"><ele>9.0</ele><time>2026-04-03T07:36:40.993Z</time></trkpt><trkpt lat="44.0768891" lon="8.2088045"><ele>9.0</ele><time>2026-04-03T07:36:41.992Z</time></trkpt><trkpt lat="44.0769185" lon="8.2086929"><ele>9.0</ele><time>2026-04-03T07:36:42.992Z</time></trkpt><trkpt lat="44.0769459" lon="8.2085552"><ele>9.0</ele><time>2026-04-03T07:36:43.993Z</time></trkpt><trkpt lat="44.0769901" lon="8.2084013"><ele>9.0</ele><time>2026-04-03T07:36:44.993Z</time></trkpt><trkpt lat="44.0770444" lon="8.2082288"><ele>9.0</ele><time>2026-04-03T07:36:45.993Z</time></trkpt><trkpt lat="44.0771204" lon="8.2080533"><ele>9.0</ele><time>2026-04-03T07:36:46.993Z</time></trkpt><trkpt lat="44.0772127" lon="8.2078926"><ele>9.0</ele><time>2026-04-03T07:36:47.992Z</time></trkpt><trkpt lat="44.0773234" lon="8.2077323"><ele>8.666666666666666</ele><time>2026-04-03T07:36:48.992Z</time></trkpt><trkpt lat="44.0774401" lon="8.2075879"><ele>8.333333333333332</ele><time>2026-04-03T07:36:49.993Z</time></trkpt><trkpt lat="44.0775596" lon="8.2074534"><ele>8.0</ele><time>2026-04-03T07:36:50.993Z</time></trkpt><trkpt lat="44.0776614" lon="8.2073166"><ele>8.0</ele><time>2026-04-03T07:36:51.993Z</time></trkpt><trkpt lat="44.0777391" lon="8.207161"><ele>8.0</ele><time>2026-04-03T07:36:52.993Z</time></trkpt><trkpt lat="44.0777827" lon="8.2069813"><ele>8.0</ele><time>2026-04-03T07:36:53.993Z</time></trkpt><trkpt lat="44.0777885" lon="8.2067975"><ele>8.0</ele><time>2026-04-03T07:36:54.993Z</time></trkpt><trkpt lat="44.0777723" lon="8.2065993"><ele>8.0</ele><time>2026-04-03T07:36:55.993Z</time></trkpt><trkpt lat="44.0777576" lon="8.2064004"><ele>8.0</ele><time>2026-04-03T07:36:56.993Z</time></trkpt><trkpt lat="44.0777478" lon="8.2062063"><ele>8.0</ele><time>2026-04-03T07:36:57.992Z</time></trkpt><trkpt lat="44.0777577" lon="8.2060067"><ele>8.0</ele><time>2026-04-03T07:36:58.992Z</time></trkpt><trkpt lat="44.0777799" lon="8.2058121"><ele>9.0</ele><time>2026-04-03T07:36:59.993Z</time></trkpt><trkpt lat="44.0778088" lon="8.205619"><ele>10.0</ele><time>2026-04-03T07:37:00.993Z</time></trkpt><trkpt lat="44.0778451" lon="8.2054201"><ele>11.0</ele><time>2026-04-03T07:37:01.993Z</time></trkpt><trkpt lat="44.0778673" lon="8.2052145"><ele>12.0</ele><time>2026-04-03T07:37:02.993Z</time></trkpt><trkpt lat="44.0778957" lon="8.2050204"><ele>12.0</ele><time>2026-04-03T07:37:03.993Z</time></trkpt><trkpt lat="44.0779214" lon="8.2048322"><ele>12.0</ele><time>2026-04-03T07:37:04.992Z</time></trkpt><trkpt lat="44.077912" lon="8.2046123"><ele>12.0</ele><time>2026-04-03T07:37:05.992Z</time></trkpt><trkpt lat="44.0778831" lon="8.2044105"><ele>12.0</ele><time>2026-04-03T07:37:06.993Z</time></trkpt><trkpt lat="44.0778255" lon="8.2042299"><ele>12.666666666666668</ele><time>2026-04-03T07:37:07.992Z</time></trkpt><trkpt lat="44.0777429" lon="8.2040772"><ele>13.333333333333334</ele><time>2026-04-03T07:37:08.992Z</time></trkpt><trkpt lat="44.0776365" lon="8.2039206"><ele>14.0</ele><time>2026-04-03T07:37:09.993Z</time></trkpt><trkpt lat="44.0775195" lon="8.203769"><ele>14.75</ele><time>2026-04-03T07:37:10.993Z</time></trkpt><trkpt lat="44.0774024" lon="8.2036318"><ele>15.5</ele><time>2026-04-03T07:37:11.993Z</time></trkpt><trkpt lat="44.0773029" lon="8.2034899"><ele>16.25</ele><time>2026-04-03T07:37:12.993Z</time></trkpt><trkpt lat="44.0772086" lon="8.2033453"><ele>17.0</ele><time>2026-04-03T07:37:13.993Z</time></trkpt><trkpt lat="44.0771303" lon="8.2032054"><ele>16.75</ele><time>2026-04-03T07:37:14.992Z</time></trkpt><trkpt lat="44.0770713" lon="8.2030502"><ele>16.5</ele><time>2026-04-03T07:37:15.993Z</time></trkpt><trkpt lat="44.0770228" lon="8.2028954"><ele>16.25</ele><time>2026-04-03T07:37:16.993Z</time></trkpt><trkpt lat="44.0770071" lon="8.2027346"><ele>16.0</ele><time>2026-04-03T07:37:17.993Z</time></trkpt><trkpt lat="44.0769799" lon="8.2025742"><ele>16.0</ele><time>2026-04-03T07:37:18.993Z</time></trkpt><trkpt lat="44.0769613" lon="8.2024119"><ele>16.0</ele><time>2026-04-03T07:37:19.992Z</time></trkpt><trkpt lat="44.0769464" lon="8.2022401"><ele>16.0</ele><time>2026-04-03T07:37:20.993Z</time></trkpt><trkpt lat="44.0769314" lon="8.2020769"><ele>16.0</ele><time>2026-04-03T07:37:21.992Z</time></trkpt><trkpt lat="44.0769147" lon="8.2019192"><ele>16.25</ele><time>2026-04-03T07:37:22.993Z</time></trkpt><trkpt lat="44.0768983" lon="8.2017656"><ele>16.5</ele><time>2026-04-03T07:37:23.993Z</time></trkpt><trkpt lat="44.0768831" lon="8.2016074"><ele>16.75</ele><time>2026-04-03T07:37:24.992Z</time></trkpt><trkpt lat="44.0768677" lon="8.2014446"><ele>17.0</ele><time>2026-04-03T07:37:25.993Z</time></trkpt><trkpt lat="44.0768558" lon="8.2012824"><ele>17.6</ele><time>2026-04-03T07:37:26.992Z</time></trkpt><trkpt lat="44.0768475" lon="8.2011311"><ele>18.2</ele><time>2026-04-03T07:37:27.993Z</time></trkpt><trkpt lat="44.0768326" lon="8.2009781"><ele>18.8</ele><time>2026-04-03T07:37:28.993Z</time></trkpt><trkpt lat="44.0768121" lon="8.2008212"><ele>19.4</ele><time>2026-04-03T07:37:29.992Z</time></trkpt><trkpt lat="44.0767946" lon="8.2006651"><ele>20.0</ele><time>2026-04-03T07:37:30.991Z</time></trkpt><trkpt lat="44.07678" lon="8.2005203"><ele>20.0</ele><time>2026-04-03T07:37:31.991Z</time></trkpt><trkpt lat="44.0767651" lon="8.2003728"><ele>20.0</ele><time>2026-04-03T07:37:32.992Z</time></trkpt><trkpt lat="44.0767487" lon="8.2002188"><ele>20.0</ele><time>2026-04-03T07:37:33.991Z</time></trkpt><trkpt lat="44.0767421" lon="8.2000586"><ele>20.0</ele><time>2026-04-03T07:37:34.992Z</time></trkpt><trkpt lat="44.0767283" lon="8.1998991"><ele>19.25</ele><time>2026-04-03T07:37:35.992Z</time></trkpt><trkpt lat="44.0767115" lon="8.1997328"><ele>18.5</ele><time>2026-04-03T07:37:36.992Z</time></trkpt><trkpt lat="44.07669" lon="8.1995364"><ele>17.75</ele><time>2026-04-03T07:37:37.991Z</time></trkpt><trkpt lat="44.0766707" lon="8.1993474"><ele>17.0</ele><time>2026-04-03T07:37:38.992Z</time></trkpt><trkpt lat="44.0766491" lon="8.1991712"><ele>16.75</ele><time>2026-04-03T07:37:39.991Z</time></trkpt><trkpt lat="44.0766259" lon="8.1989915"><ele>16.5</ele><time>2026-04-03T07:37:40.991Z</time></trkpt><trkpt lat="44.0766135" lon="8.1988385"><ele>16.25</ele><time>2026-04-03T07:37:41.992Z</time></trkpt><trkpt lat="44.0765896" lon="8.1986876"><ele>16.0</ele><time>2026-04-03T07:37:42.991Z</time></trkpt><trkpt lat="44.0765446" lon="8.1985306"><ele>15.499999999999998</ele><time>2026-04-03T07:37:43.991Z</time></trkpt><trkpt lat="44.0764833" lon="8.1983782"><ele>15.0</ele><time>2026-04-03T07:37:44.991Z</time></trkpt><trkpt lat="44.0764225" lon="8.1982552"><ele>14.5</ele><time>2026-04-03T07:37:45.992Z</time></trkpt><trkpt lat="44.076376" lon="8.1981617"><ele>14.0</ele><time>2026-04-03T07:37:46.992Z</time></trkpt><trkpt lat="44.0763342" lon="8.1980897"><ele>13.499999999999998</ele><time>2026-04-03T07:37:47.991Z</time></trkpt><trkpt lat="44.0762942" lon="8.1980198"><ele>13.0</ele><time>2026-04-03T07:37:48.992Z</time></trkpt><trkpt lat="44.076253" lon="8.1979464"><ele>12.999999999999998</ele><time>2026-04-03T07:37:49.992Z</time></trkpt><trkpt lat="44.0762101" lon="8.1978656"><ele>13.0</ele><time>2026-04-03T07:37:50.991Z</time></trkpt><trkpt lat="44.0761611" lon="8.1977747"><ele>13.0</ele><time>2026-04-03T07:37:51.992Z</time></trkpt><trkpt lat="44.0761064" lon="8.1976614"><ele>13.0</ele><time>2026-04-03T07:37:52.992Z</time></trkpt><trkpt lat="44.076053" lon="8.1975419"><ele>12.999999999999998</ele><time>2026-04-03T07:37:53.991Z</time></trkpt><trkpt lat="44.0760034" lon="8.1974332"><ele>13.0</ele><time>2026-04-03T07:37:54.992Z</time></trkpt><trkpt lat="44.0759611" lon="8.1973388"><ele>13.833333333333332</ele><time>2026-04-03T07:37:55.992Z</time></trkpt><trkpt lat="44.0759171" lon="8.1972568"><ele>14.666666666666666</ele><time>2026-04-03T07:37:56.992Z</time></trkpt><trkpt lat="44.0758782" lon="8.1971756"><ele>15.5</ele><time>2026-04-03T07:37:57.992Z</time></trkpt><trkpt lat="44.0758267" lon="8.1970436"><ele>16.333333333333332</ele><time>2026-04-03T07:37:59.991Z</time></trkpt><trkpt lat="44.0758014" lon="8.1969505"><ele>17.166666666666668</ele><time>2026-04-03T07:38:01.992Z</time></trkpt><trkpt lat="44.0757541" lon="8.1968468"><ele>18.0</ele><time>2026-04-03T07:38:04.992Z</time></trkpt><trkpt lat="44.0757373" lon="8.1967389"><ele>18.4</ele><time>2026-04-03T07:38:07.992Z</time></trkpt><trkpt lat="44.075747" lon="8.1965956"><ele>18.8</ele><time>2026-04-03T07:38:30.992Z</time></trkpt><trkpt lat="44.0757415" lon="8.1964765"><ele>19.2</ele><time>2026-04-03T07:38:31.991Z</time></trkpt><trkpt lat="44.0757225" lon="8.1963287"><ele>19.6</ele><time>2026-04-03T07:38:32.992Z</time></trkpt><trkpt lat="44.0757053" lon="8.1961572"><ele>20.0</ele><time>2026-04-03T07:38:33.992Z</time></trkpt><trkpt lat="44.0756883" lon="8.1959603"><ele>20.333333333333336</ele><time>2026-04-03T07:38:34.992Z</time></trkpt><trkpt lat="44.075665" lon="8.1957576"><ele>20.666666666666668</ele><time>2026-04-03T07:38:35.992Z</time></trkpt><trkpt lat="44.0756226" lon="8.1955437"><ele>21.0</ele><time>2026-04-03T07:38:36.992Z</time></trkpt><trkpt lat="44.075549" lon="8.1953262"><ele>21.666666666666668</ele><time>2026-04-03T07:38:37.991Z</time></trkpt><trkpt lat="44.0754457" lon="8.1951005"><ele>22.333333333333336</ele><time>2026-04-03T07:38:38.992Z</time></trkpt><trkpt lat="44.0753373" lon="8.1948768"><ele>23.0</ele><time>2026-04-03T07:38:39.991Z</time></trkpt><trkpt lat="44.0752415" lon="8.194649"><ele>23.666666666666668</ele><time>2026-04-03T07:38:40.992Z</time></trkpt><trkpt lat="44.0751499" lon="8.194417"><ele>24.333333333333336</ele><time>2026-04-03T07:38:41.992Z</time></trkpt><trkpt lat="44.0750669" lon="8.1941843"><ele>25.0</ele><time>2026-04-03T07:38:42.992Z</time></trkpt><trkpt lat="44.0749761" lon="8.1939497"><ele>25.0</ele><time>2026-04-03T07:38:43.992Z</time></trkpt><trkpt lat="44.0748877" lon="8.1937227"><ele>25.0</ele><time>2026-04-03T07:38:44.992Z</time></trkpt><trkpt lat="44.0748045" lon="8.1934878"><ele>25.0</ele><time>2026-04-03T07:38:45.992Z</time></trkpt><trkpt lat="44.0747192" lon="8.1932505"><ele>25.333333333333336</ele><time>2026-04-03T07:38:46.992Z</time></trkpt><trkpt lat="44.074642" lon="8.1930085"><ele>25.666666666666664</ele><time>2026-04-03T07:38:47.992Z</time></trkpt><trkpt lat="44.0745842" lon="8.1927647"><ele>26.0</ele><time>2026-04-03T07:38:48.991Z</time></trkpt><trkpt lat="44.0745351" lon="8.1925226"><ele>26.666666666666664</ele><time>2026-04-03T07:38:49.991Z</time></trkpt><trkpt lat="44.0745023" lon="8.1922751"><ele>27.333333333333336</ele><time>2026-04-03T07:38:50.991Z</time></trkpt><trkpt lat="44.0744808" lon="8.1920195"><ele>28.0</ele><time>2026-04-03T07:38:51.991Z</time></trkpt><trkpt lat="44.0744677" lon="8.1917693"><ele>28.0</ele><time>2026-04-03T07:38:52.992Z</time></trkpt><trkpt lat="44.0744656" lon="8.1915157"><ele>28.0</ele><time>2026-04-03T07:38:53.992Z</time></trkpt><trkpt lat="44.0744603" lon="8.1912535"><ele>28.0</ele><time>2026-04-03T07:38:54.992Z</time></trkpt><trkpt lat="44.0744515" lon="8.1909962"><ele>28.333333333333336</ele><time>2026-04-03T07:38:55.992Z</time></trkpt><trkpt lat="44.0744417" lon="8.1907477"><ele>28.666666666666664</ele><time>2026-04-03T07:38:56.991Z</time></trkpt><trkpt lat="44.0744378" lon="8.1905006"><ele>29.0</ele><time>2026-04-03T07:38:57.992Z</time></trkpt><trkpt lat="44.0744419" lon="8.1902494"><ele>29.333333333333332</ele><time>2026-04-03T07:38:58.992Z</time></trkpt><trkpt lat="44.0744398" lon="8.1899901"><ele>29.666666666666664</ele><time>2026-04-03T07:38:59.992Z</time></trkpt><trkpt lat="44.0744352" lon="8.1897104"><ele>30.0</ele><time>2026-04-03T07:39:00.992Z</time></trkpt><trkpt lat="44.0744325" lon="8.1894283"><ele>29.333333333333336</ele><time>2026-04-03T07:39:01.992Z</time></trkpt><trkpt lat="44.0744284" lon="8.1891548"><ele>28.666666666666668</ele><time>2026-04-03T07:39:02.992Z</time></trkpt><trkpt lat="44.0744245" lon="8.1888817"><ele>28.0</ele><time>2026-04-03T07:39:03.991Z</time></trkpt><trkpt lat="44.0744126" lon="8.1886099"><ele>27.666666666666668</ele><time>2026-04-03T07:39:04.992Z</time></trkpt><trkpt lat="44.0744094" lon="8.1883501"><ele>27.333333333333336</ele><time>2026-04-03T07:39:05.991Z</time></trkpt><trkpt lat="44.0744069" lon="8.1880907"><ele>27.0</ele><time>2026-04-03T07:39:06.991Z</time></trkpt><trkpt lat="44.0743906" lon="8.1878442"><ele>27.0</ele><time>2026-04-03T07:39:07.992Z</time></trkpt><trkpt lat="44.0743727" lon="8.1876044"><ele>27.0</ele><time>2026-04-03T07:39:08.991Z</time></trkpt><trkpt lat="44.0743644" lon="8.1873811"><ele>27.0</ele><time>2026-04-03T07:39:09.992Z</time></trkpt><trkpt lat="44.0743636" lon="8.1871826"><ele>27.0</ele><time>2026-04-03T07:39:10.992Z</time></trkpt><trkpt lat="44.0743764" lon="8.187001"><ele>27.0</ele><time>2026-04-03T07:39:11.991Z</time></trkpt><trkpt lat="44.0744141" lon="8.1868218"><ele>27.0</ele><time>2026-04-03T07:39:12.992Z</time></trkpt><trkpt lat="44.0744826" lon="8.1866604"><ele>27.0</ele><time>2026-04-03T07:39:13.991Z</time></trkpt><trkpt lat="44.0745539" lon="8.1865074"><ele>27.0</ele><time>2026-04-03T07:39:14.992Z</time></trkpt><trkpt lat="44.0746198" lon="8.1863682"><ele>27.000000000000004</ele><time>2026-04-03T07:39:15.992Z</time></trkpt><trkpt lat="44.0746689" lon="8.1862467"><ele>27.000000000000004</ele><time>2026-04-03T07:39:16.991Z</time></trkpt><trkpt lat="44.0747217" lon="8.1861334"><ele>27.0</ele><time>2026-04-03T07:39:17.992Z</time></trkpt><trkpt lat="44.074773" lon="8.1860254"><ele>27.0</ele><time>2026-04-03T07:39:18.992Z</time></trkpt><trkpt lat="44.0748273" lon="8.185916"><ele>27.0</ele><time>2026-04-03T07:39:19.991Z</time></trkpt><trkpt lat="44.0748766" lon="8.1858129"><ele>27.0</ele><time>2026-04-03T07:39:20.992Z</time></trkpt><trkpt lat="44.0749124" lon="8.1857387"><ele>27.0</ele><time>2026-04-03T07:39:21.992Z</time></trkpt><trkpt lat="44.0749671" lon="8.1856503"><ele>27.0</ele><time>2026-04-03T07:39:23.992Z</time></trkpt><trkpt lat="44.0750146" lon="8.1855874"><ele>27.0</ele><time>2026-04-03T07:39:25.992Z</time></trkpt><trkpt lat="44.0750944" lon="8.1855052"><ele>27.0</ele><time>2026-04-03T07:39:27.991Z</time></trkpt><trkpt lat="44.0751526" lon="8.1854582"><ele>27.200000000000003</ele><time>2026-04-03T07:39:28.991Z</time></trkpt><trkpt lat="44.0752286" lon="8.1854039"><ele>27.400000000000002</ele><time>2026-04-03T07:39:29.991Z</time></trkpt><trkpt lat="44.0753101" lon="8.1853376"><ele>27.599999999999998</ele><time>2026-04-03T07:39:30.992Z</time></trkpt><trkpt lat="44.0753966" lon="8.1852674"><ele>27.799999999999997</ele><time>2026-04-03T07:39:31.991Z</time></trkpt><trkpt lat="44.0754823" lon="8.1852054"><ele>28.0</ele><time>2026-04-03T07:39:32.991Z</time></trkpt><trkpt lat="44.0755706" lon="8.1851406"><ele>28.0</ele><time>2026-04-03T07:39:33.992Z</time></trkpt><trkpt lat="44.0756588" lon="8.1850738"><ele>27.999999999999996</ele><time>2026-04-03T07:39:34.991Z</time></trkpt><trkpt lat="44.0757462" lon="8.1850098"><ele>27.999999999999996</ele><time>2026-04-03T07:39:35.992Z</time></trkpt><trkpt lat="44.0758372" lon="8.1849503"><ele>28.0</ele><time>2026-04-03T07:39:36.992Z</time></trkpt><trkpt lat="44.0759482" lon="8.1848771"><ele>28.0</ele><time>2026-04-03T07:39:37.992Z</time></trkpt><trkpt lat="44.0760597" lon="8.1848313"><ele>28.799999999999997</ele><time>2026-04-03T07:39:38.992Z</time></trkpt><trkpt lat="44.0761631" lon="8.1847951"><ele>29.599999999999998</ele><time>2026-04-03T07:39:39.992Z</time></trkpt><trkpt lat="44.0762632" lon="8.1847721"><ele>30.400000000000002</ele><time>2026-04-03T07:39:40.992Z</time></trkpt><trkpt lat="44.0763615" lon="8.1847532"><ele>31.200000000000003</ele><time>2026-04-03T07:39:41.992Z</time></trkpt><trkpt lat="44.0764599" lon="8.1847221"><ele>32.0</ele><time>2026-04-03T07:39:42.992Z</time></trkpt><trkpt lat="44.0765598" lon="8.1846919"><ele>32.5</ele><time>2026-04-03T07:39:43.992Z</time></trkpt><trkpt lat="44.0766685" lon="8.1846539"><ele>33.0</ele><time>2026-04-03T07:39:44.992Z</time></trkpt><trkpt lat="44.0767749" lon="8.1846111"><ele>33.5</ele><time>2026-04-03T07:39:45.992Z</time></trkpt><trkpt lat="44.0768832" lon="8.1845534"><ele>34.0</ele><time>2026-04-03T07:39:46.992Z</time></trkpt><trkpt lat="44.0769964" lon="8.1844943"><ele>34.0</ele><time>2026-04-03T07:39:47.992Z</time></trkpt><trkpt lat="44.0771081" lon="8.1844246"><ele>34.0</ele><time>2026-04-03T07:39:48.992Z</time></trkpt><trkpt lat="44.0772213" lon="8.1843494"><ele>34.0</ele><time>2026-04-03T07:39:49.991Z</time></trkpt><trkpt lat="44.0773236" lon="8.1842714"><ele>34.0</ele><time>2026-04-03T07:39:50.992Z</time></trkpt><trkpt lat="44.0774257" lon="8.1841899"><ele>35.25</ele><time>2026-04-03T07:39:51.992Z</time></trkpt><trkpt lat="44.0775261" lon="8.184104"><ele>36.5</ele><time>2026-04-03T07:39:52.992Z</time></trkpt><trkpt lat="44.0776302" lon="8.1840279"><ele>37.75</ele><time>2026-04-03T07:39:53.991Z</time></trkpt><trkpt lat="44.0777288" lon="8.1839514"><ele>39.0</ele><time>2026-04-03T07:39:54.991Z</time></trkpt><trkpt lat="44.0778275" lon="8.1838641"><ele>39.0</ele><time>2026-04-03T07:39:55.992Z</time></trkpt><trkpt lat="44.0779322" lon="8.1837585"><ele>39.0</ele><time>2026-04-03T07:39:56.991Z</time></trkpt><trkpt lat="44.0780392" lon="8.1836398"><ele>39.0</ele><time>2026-04-03T07:39:57.992Z</time></trkpt><trkpt lat="44.0781373" lon="8.1835143"><ele>39.0</ele><time>2026-04-03T07:39:58.992Z</time></trkpt><trkpt lat="44.0782263" lon="8.1833948"><ele>39.5</ele><time>2026-04-03T07:39:59.991Z</time></trkpt><trkpt lat="44.0783112" lon="8.1832738"><ele>40.0</ele><time>2026-04-03T07:40:00.992Z</time></trkpt><trkpt lat="44.0783919" lon="8.1831515"><ele>40.5</ele><time>2026-04-03T07:40:01.991Z</time></trkpt><trkpt lat="44.0784664" lon="8.1830368"><ele>41.0</ele><time>2026-04-03T07:40:02.992Z</time></trkpt><trkpt lat="44.0785512" lon="8.1829241"><ele>41.0</ele><time>2026-04-03T07:40:03.992Z</time></trkpt><trkpt lat="44.0786275" lon="8.1828096"><ele>41.0</ele><time>2026-04-03T07:40:04.992Z</time></trkpt><trkpt lat="44.0787012" lon="8.1826957"><ele>41.0</ele><time>2026-04-03T07:40:05.992Z</time></trkpt><trkpt lat="44.078776" lon="8.1825703"><ele>41.0</ele><time>2026-04-03T07:40:06.992Z</time></trkpt><trkpt lat="44.0788498" lon="8.1824398"><ele>40.25</ele><time>2026-04-03T07:40:07.992Z</time></trkpt><trkpt lat="44.0789124" lon="8.1823036"><ele>39.5</ele><time>2026-04-03T07:40:08.992Z</time></trkpt><trkpt lat="44.0789475" lon="8.1821565"><ele>38.75</ele><time>2026-04-03T07:40:09.992Z</time></trkpt><trkpt lat="44.0789664" lon="8.1819962"><ele>38.0</ele><time>2026-04-03T07:40:10.991Z</time></trkpt><trkpt lat="44.0789632" lon="8.1818441"><ele>38.0</ele><time>2026-04-03T07:40:11.992Z</time></trkpt><trkpt lat="44.0789406" lon="8.1816802"><ele>38.0</ele><time>2026-04-03T07:40:12.992Z</time></trkpt><trkpt lat="44.0789115" lon="8.1815207"><ele>38.0</ele><time>2026-04-03T07:40:13.991Z</time></trkpt><trkpt lat="44.0788841" lon="8.1813506"><ele>38.0</ele><time>2026-04-03T07:40:14.992Z</time></trkpt><trkpt lat="44.0788612" lon="8.1811483"><ele>38.25</ele><time>2026-04-03T07:40:15.991Z</time></trkpt><trkpt lat="44.0788453" lon="8.1809295"><ele>38.5</ele><time>2026-04-03T07:40:16.992Z</time></trkpt><trkpt lat="44.0788327" lon="8.1807235"><ele>38.75</ele><time>2026-04-03T07:40:17.992Z</time></trkpt><trkpt lat="44.0788153" lon="8.1805449"><ele>39.0</ele><time>2026-04-03T07:40:18.991Z</time></trkpt><trkpt lat="44.0787997" lon="8.1803917"><ele>40.0</ele><time>2026-04-03T07:40:19.992Z</time></trkpt><trkpt lat="44.0787894" lon="8.1802394"><ele>41.0</ele><time>2026-04-03T07:40:20.992Z</time></trkpt><trkpt lat="44.0787831" lon="8.1801023"><ele>42.0</ele><time>2026-04-03T07:40:21.991Z</time></trkpt><trkpt lat="44.0787872" lon="8.1799697"><ele>43.0</ele><time>2026-04-03T07:40:22.991Z</time></trkpt><trkpt lat="44.0788036" lon="8.17982"><ele>44.0</ele><time>2026-04-03T07:40:23.992Z</time></trkpt><trkpt lat="44.07883" lon="8.1796642"><ele>44.25</ele><time>2026-04-03T07:40:24.991Z</time></trkpt><trkpt lat="44.0788725" lon="8.1794976"><ele>44.5</ele><time>2026-04-03T07:40:25.992Z</time></trkpt><trkpt lat="44.0789259" lon="8.179315"><ele>44.75</ele><time>2026-04-03T07:40:26.992Z</time></trkpt><trkpt lat="44.0789975" lon="8.1791129"><ele>45.0</ele><time>2026-04-03T07:40:27.991Z</time></trkpt><trkpt lat="44.0790583" lon="8.178902"><ele>46.25</ele><time>2026-04-03T07:40:28.992Z</time></trkpt><trkpt lat="44.0791135" lon="8.1787167"><ele>47.5</ele><time>2026-04-03T07:40:29.992Z</time></trkpt><trkpt lat="44.079157" lon="8.1785534"><ele>48.75</ele><time>2026-04-03T07:40:30.992Z</time></trkpt><trkpt lat="44.079188" lon="8.1783886"><ele>50.0</ele><time>2026-04-03T07:40:31.992Z</time></trkpt><trkpt lat="44.0792098" lon="8.1782316"><ele>50.75</ele><time>2026-04-03T07:40:32.992Z</time></trkpt><trkpt lat="44.0792043" lon="8.1780615"><ele>51.5</ele><time>2026-04-03T07:40:33.992Z</time></trkpt><trkpt lat="44.0792013" lon="8.1779044"><ele>52.25</ele><time>2026-04-03T07:40:34.992Z</time></trkpt><trkpt lat="44.0791974" lon="8.1777441"><ele>53.0</ele><time>2026-04-03T07:40:35.991Z</time></trkpt><trkpt lat="44.0791979" lon="8.1775898"><ele>53.0</ele><time>2026-04-03T07:40:36.992Z</time></trkpt><trkpt lat="44.079196" lon="8.1774409"><ele>53.0</ele><time>2026-04-03T07:40:37.991Z</time></trkpt><trkpt lat="44.0791796" lon="8.1772888"><ele>53.0</ele><time>2026-04-03T07:40:38.992Z</time></trkpt><trkpt lat="44.079159" lon="8.1771372"><ele>53.0</ele><time>2026-04-03T07:40:39.992Z</time></trkpt><trkpt lat="44.0791265" lon="8.1769887"><ele>53.0</ele><time>2026-04-03T07:40:40.992Z</time></trkpt><trkpt lat="44.0790832" lon="8.1768366"><ele>52.2</ele><time>2026-04-03T07:40:41.991Z</time></trkpt><trkpt lat="44.079045" lon="8.17669"><ele>51.4</ele><time>2026-04-03T07:40:42.992Z</time></trkpt><trkpt lat="44.079008" lon="8.1765416"><ele>50.6</ele><time>2026-04-03T07:40:43.991Z</time></trkpt><trkpt lat="44.078978" lon="8.1763949"><ele>49.800000000000004</ele><time>2026-04-03T07:40:44.992Z</time></trkpt><trkpt lat="44.0789472" lon="8.1762646"><ele>49.0</ele><time>2026-04-03T07:40:45.992Z</time></trkpt><trkpt lat="44.0789158" lon="8.1761403"><ele>48.800000000000004</ele><time>2026-04-03T07:40:46.992Z</time></trkpt><trkpt lat="44.0788848" lon="8.1760128"><ele>48.6</ele><time>2026-04-03T07:40:47.991Z</time></trkpt><trkpt lat="44.0788486" lon="8.17588"><ele>48.4</ele><time>2026-04-03T07:40:48.992Z</time></trkpt><trkpt lat="44.0788103" lon="8.1757523"><ele>48.2</ele><time>2026-04-03T07:40:49.992Z</time></trkpt><trkpt lat="44.078772" lon="8.1756227"><ele>48.0</ele><time>2026-04-03T07:40:50.991Z</time></trkpt><trkpt lat="44.078732" lon="8.1754859"><ele>48.0</ele><time>2026-04-03T07:40:51.991Z</time></trkpt><trkpt lat="44.0786914" lon="8.1753275"><ele>48.0</ele><time>2026-04-03T07:40:52.992Z</time></trkpt><trkpt lat="44.0786521" lon="8.1751468"><ele>48.0</ele><time>2026-04-03T07:40:53.992Z</time></trkpt><trkpt lat="44.0786097" lon="8.1749359"><ele>48.0</ele><time>2026-04-03T07:40:54.991Z</time></trkpt><trkpt lat="44.0785884" lon="8.1747048"><ele>47.666666666666664</ele><time>2026-04-03T07:40:55.992Z</time></trkpt><trkpt lat="44.0785952" lon="8.1744295"><ele>47.33333333333333</ele><time>2026-04-03T07:40:56.991Z</time></trkpt><trkpt lat="44.078602" lon="8.174132"><ele>47.0</ele><time>2026-04-03T07:40:57.992Z</time></trkpt><trkpt lat="44.0786023" lon="8.1738293"><ele>48.33333333333333</ele><time>2026-04-03T07:40:58.992Z</time></trkpt><trkpt lat="44.0786121" lon="8.1735431"><ele>49.666666666666664</ele><time>2026-04-03T07:40:59.992Z</time></trkpt><trkpt lat="44.0786207" lon="8.1733053"><ele>51.0</ele><time>2026-04-03T07:41:00.992Z</time></trkpt><trkpt lat="44.0786328" lon="8.1731084"><ele>51.599999999999994</ele><time>2026-04-03T07:41:01.991Z</time></trkpt><trkpt lat="44.0786416" lon="8.1729436"><ele>52.2</ele><time>2026-04-03T07:41:02.992Z</time></trkpt><trkpt lat="44.0786427" lon="8.1727992"><ele>52.800000000000004</ele><time>2026-04-03T07:41:03.992Z</time></trkpt><trkpt lat="44.0786461" lon="8.1726815"><ele>53.400000000000006</ele><time>2026-04-03T07:41:04.991Z</time></trkpt><trkpt lat="44.078644" lon="8.1725836"><ele>54.0</ele><time>2026-04-03T07:41:05.992Z</time></trkpt><trkpt lat="44.0786107" lon="8.1724436"><ele>54.0</ele><time>2026-04-03T07:41:07.992Z</time></trkpt><trkpt lat="44.0785393" lon="8.1723643"><ele>54.00000000000001</ele><time>2026-04-03T07:41:09.992Z</time></trkpt><trkpt lat="44.0784323" lon="8.1723266"><ele>54.00000000000001</ele><time>2026-04-03T07:41:11.991Z</time></trkpt><trkpt lat="44.0783038" lon="8.1723926"><ele>54.0</ele><time>2026-04-03T07:41:13.991Z</time></trkpt><trkpt lat="44.0782373" lon="8.1724781"><ele>54.0</ele><time>2026-04-03T07:41:14.992Z</time></trkpt><trkpt lat="44.0781846" lon="8.1725837"><ele>53.800000000000004</ele><time>2026-04-03T07:41:15.992Z</time></trkpt><trkpt lat="44.0781353" lon="8.1727041"><ele>53.60000000000001</ele><time>2026-04-03T07:41:16.992Z</time></trkpt><trkpt lat="44.0780887" lon="8.1728229"><ele>53.4</ele><time>2026-04-03T07:41:17.991Z</time></trkpt><trkpt lat="44.0780419" lon="8.172934"><ele>53.2</ele><time>2026-04-03T07:41:18.992Z</time></trkpt><trkpt lat="44.0779994" lon="8.1730526"><ele>53.0</ele><time>2026-04-03T07:41:19.991Z</time></trkpt><trkpt lat="44.0779564" lon="8.1731761"><ele>52.75</ele><time>2026-04-03T07:41:20.991Z</time></trkpt><trkpt lat="44.0779042" lon="8.1733035"><ele>52.5</ele><time>2026-04-03T07:41:21.991Z</time></trkpt><trkpt lat="44.0778492" lon="8.1734392"><ele>52.25</ele><time>2026-04-03T07:41:22.991Z</time></trkpt><trkpt lat="44.0777909" lon="8.1735855"><ele>52.0</ele><time>2026-04-03T07:41:23.992Z</time></trkpt><trkpt lat="44.0777308" lon="8.1737223"><ele>52.0</ele><time>2026-04-03T07:41:24.992Z</time></trkpt><trkpt lat="44.0776614" lon="8.1738502"><ele>52.0</ele><time>2026-04-03T07:41:25.991Z</time></trkpt><trkpt lat="44.0775842" lon="8.1739729"><ele>52.0</ele><time>2026-04-03T07:41:26.991Z</time></trkpt><trkpt lat="44.0775037" lon="8.1740913"><ele>52.0</ele><time>2026-04-03T07:41:27.992Z</time></trkpt><trkpt lat="44.0774223" lon="8.1742083"><ele>51.400000000000006</ele><time>2026-04-03T07:41:28.992Z</time></trkpt><trkpt lat="44.0773453" lon="8.1743111"><ele>50.800000000000004</ele><time>2026-04-03T07:41:29.992Z</time></trkpt><trkpt lat="44.0772762" lon="8.1744054"><ele>50.2</ele><time>2026-04-03T07:41:30.992Z</time></trkpt><trkpt lat="44.0772085" lon="8.1744892"><ele>49.6</ele><time>2026-04-03T07:41:31.992Z</time></trkpt><trkpt lat="44.0771385" lon="8.1745625"><ele>49.0</ele><time>2026-04-03T07:41:32.991Z</time></trkpt><trkpt lat="44.0770593" lon="8.1746196"><ele>49.0</ele><time>2026-04-03T07:41:33.992Z</time></trkpt><trkpt lat="44.0769764" lon="8.1746705"><ele>49.0</ele><time>2026-04-03T07:41:34.992Z</time></trkpt><trkpt lat="44.0769016" lon="8.1747439"><ele>49.0</ele><time>2026-04-03T07:41:35.992Z</time></trkpt><trkpt lat="44.0768254" lon="8.1748306"><ele>49.0</ele><time>2026-04-03T07:41:36.991Z</time></trkpt><trkpt lat="44.0767519" lon="8.1749348"><ele>49.0</ele><time>2026-04-03T07:41:37.992Z</time></trkpt><trkpt lat="44.0766886" lon="8.1750434"><ele>48.400000000000006</ele><time>2026-04-03T07:41:38.992Z</time></trkpt><trkpt lat="44.0766135" lon="8.1751511"><ele>47.8</ele><time>2026-04-03T07:41:39.992Z</time></trkpt><trkpt lat="44.0765306" lon="8.1752516"><ele>47.2</ele><time>2026-04-03T07:41:40.992Z</time></trkpt><trkpt lat="44.0764439" lon="8.1753381"><ele>46.599999999999994</ele><time>2026-04-03T07:41:41.991Z</time></trkpt><trkpt lat="44.0763572" lon="8.1754153"><ele>46.0</ele><time>2026-04-03T07:41:42.992Z</time></trkpt><trkpt lat="44.0762726" lon="8.1754905"><ele>45.8</ele><time>2026-04-03T07:41:43.992Z</time></trkpt><trkpt lat="44.0761923" lon="8.1755763"><ele>45.599999999999994</ele><time>2026-04-03T07:41:44.991Z</time></trkpt><trkpt lat="44.0761028" lon="8.1756596"><ele>45.4</ele><time>2026-04-03T07:41:45.991Z</time></trkpt><trkpt lat="44.0760088" lon="8.1757211"><ele>45.2</ele><time>2026-04-03T07:41:46.992Z</time></trkpt><trkpt lat="44.0759029" lon="8.1757561"><ele>45.0</ele><time>2026-04-03T07:41:47.991Z</time></trkpt><trkpt lat="44.0757829" lon="8.175782"><ele>44.0</ele><time>2026-04-03T07:41:48.991Z</time></trkpt><trkpt lat="44.075668" lon="8.1758078"><ele>43.0</ele><time>2026-04-03T07:41:49.991Z</time></trkpt><trkpt lat="44.0755571" lon="8.1758326"><ele>42.0</ele><time>2026-04-03T07:41:50.992Z</time></trkpt><trkpt lat="44.0754447" lon="8.1758731"><ele>41.0</ele><time>2026-04-03T07:41:51.991Z</time></trkpt><trkpt lat="44.0753249" lon="8.175928"><ele>41.0</ele><time>2026-04-03T07:41:52.992Z</time></trkpt><trkpt lat="44.0751957" lon="8.1759802"><ele>41.0</ele><time>2026-04-03T07:41:53.992Z</time></trkpt><trkpt lat="44.0750653" lon="8.1760129"><ele>41.0</ele><time>2026-04-03T07:41:54.992Z</time></trkpt><trkpt lat="44.0749335" lon="8.1760427"><ele>41.0</ele><time>2026-04-03T07:41:55.992Z</time></trkpt><trkpt lat="44.0748082" lon="8.1760544"><ele>41.0</ele><time>2026-04-03T07:41:56.992Z</time></trkpt><trkpt lat="44.0746857" lon="8.1760727"><ele>41.0</ele><time>2026-04-03T07:41:57.991Z</time></trkpt><trkpt lat="44.0745595" lon="8.1760932"><ele>41.0</ele><time>2026-04-03T07:41:58.992Z</time></trkpt><trkpt lat="44.0744257" lon="8.1761136"><ele>41.0</ele><time>2026-04-03T07:41:59.991Z</time></trkpt><trkpt lat="44.0742864" lon="8.1761154"><ele>41.0</ele><time>2026-04-03T07:42:00.992Z</time></trkpt><trkpt lat="44.0741507" lon="8.1761189"><ele>41.0</ele><time>2026-04-03T07:42:01.991Z</time></trkpt><trkpt lat="44.0740241" lon="8.1761189"><ele>41.0</ele><time>2026-04-03T07:42:02.992Z</time></trkpt><trkpt lat="44.0738905" lon="8.1761287"><ele>41.0</ele><time>2026-04-03T07:42:03.992Z</time></trkpt><trkpt lat="44.0737515" lon="8.1761331"><ele>40.5</ele><time>2026-04-03T07:42:04.991Z</time></trkpt><trkpt lat="44.0736186" lon="8.1761385"><ele>40.0</ele><time>2026-04-03T07:42:05.992Z</time></trkpt><trkpt lat="44.0734891" lon="8.176138"><ele>39.5</ele><time>2026-04-03T07:42:06.992Z</time></trkpt><trkpt lat="44.0733609" lon="8.1761426"><ele>39.0</ele><time>2026-04-03T07:42:07.992Z</time></trkpt><trkpt lat="44.0732343" lon="8.1761434"><ele>39.0</ele><time>2026-04-03T07:42:08.992Z</time></trkpt><trkpt lat="44.0731104" lon="8.1761524"><ele>39.0</ele><time>2026-04-03T07:42:09.991Z</time></trkpt><trkpt lat="44.0729947" lon="8.1761741"><ele>39.0</ele><time>2026-04-03T07:42:10.991Z</time></trkpt><trkpt lat="44.0728819" lon="8.1761966"><ele>39.0</ele><time>2026-04-03T07:42:11.992Z</time></trkpt><trkpt lat="44.0727685" lon="8.1761964"><ele>39.0</ele><time>2026-04-03T07:42:12.992Z</time></trkpt><trkpt lat="44.072655" lon="8.176157"><ele>39.0</ele><time>2026-04-03T07:42:13.991Z</time></trkpt><trkpt lat="44.0725447" lon="8.1761024"><ele>39.0</ele><time>2026-04-03T07:42:14.991Z</time></trkpt><trkpt lat="44.0724414" lon="8.176041"><ele>39.0</ele><time>2026-04-03T07:42:15.991Z</time></trkpt><trkpt lat="44.0723291" lon="8.1759773"><ele>39.0</ele><time>2026-04-03T07:42:16.992Z</time></trkpt><trkpt lat="44.072213" lon="8.1759045"><ele>39.0</ele><time>2026-04-03T07:42:17.992Z</time></trkpt><trkpt lat="44.0720893" lon="8.1758364"><ele>39.0</ele><time>2026-04-03T07:42:18.991Z</time></trkpt><trkpt lat="44.0719768" lon="8.1757878"><ele>39.0</ele><time>2026-04-03T07:42:19.991Z</time></trkpt><trkpt lat="44.0718832" lon="8.1757356"><ele>39.2</ele><time>2026-04-03T07:42:20.992Z</time></trkpt><trkpt lat="44.0717854" lon="8.175671"><ele>39.4</ele><time>2026-04-03T07:42:21.992Z</time></trkpt><trkpt lat="44.0717096" lon="8.1755899"><ele>39.6</ele><time>2026-04-03T07:42:22.992Z</time></trkpt><trkpt lat="44.0716368" lon="8.1754989"><ele>39.8</ele><time>2026-04-03T07:42:23.991Z</time></trkpt><trkpt lat="44.0715668" lon="8.1753998"><ele>40.0</ele><time>2026-04-03T07:42:24.992Z</time></trkpt><trkpt lat="44.0714934" lon="8.1752766"><ele>38.5</ele><time>2026-04-03T07:42:25.991Z</time></trkpt><trkpt lat="44.0714256" lon="8.1751379"><ele>37.0</ele><time>2026-04-03T07:42:26.992Z</time></trkpt><trkpt lat="44.0713661" lon="8.1749907"><ele>35.5</ele><time>2026-04-03T07:42:27.992Z</time></trkpt><trkpt lat="44.0713271" lon="8.1748397"><ele>34.0</ele><time>2026-04-03T07:42:28.992Z</time></trkpt><trkpt lat="44.0712968" lon="8.1746846"><ele>34.0</ele><time>2026-04-03T07:42:29.992Z</time></trkpt><trkpt lat="44.0712878" lon="8.1745298"><ele>34.0</ele><time>2026-04-03T07:42:30.992Z</time></trkpt><trkpt lat="44.0712811" lon="8.1743643"><ele>34.0</ele><time>2026-04-03T07:42:31.992Z</time></trkpt><trkpt lat="44.0712656" lon="8.1741998"><ele>34.0</ele><time>2026-04-03T07:42:32.992Z</time></trkpt><trkpt lat="44.0712361" lon="8.174038"><ele>34.25</ele><time>2026-04-03T07:42:33.991Z</time></trkpt><trkpt lat="44.0711882" lon="8.1738825"><ele>34.5</ele><time>2026-04-03T07:42:34.992Z</time></trkpt><trkpt lat="44.0711286" lon="8.173734"><ele>34.75</ele><time>2026-04-03T07:42:35.992Z</time></trkpt><trkpt lat="44.0710623" lon="8.1735877"><ele>35.0</ele><time>2026-04-03T07:42:36.991Z</time></trkpt><trkpt lat="44.0709945" lon="8.1734658"><ele>35.0</ele><time>2026-04-03T07:42:37.992Z</time></trkpt><trkpt lat="44.0709393" lon="8.1733562"><ele>35.0</ele><time>2026-04-03T07:42:38.992Z</time></trkpt><trkpt lat="44.070883" lon="8.1732444"><ele>35.0</ele><time>2026-04-03T07:42:39.991Z</time></trkpt><trkpt lat="44.0708254" lon="8.1731257"><ele>35.0</ele><time>2026-04-03T07:42:40.992Z</time></trkpt><trkpt lat="44.0707725" lon="8.1730039"><ele>35.0</ele><time>2026-04-03T07:42:41.992Z</time></trkpt><trkpt lat="44.0707228" lon="8.1728861"><ele>33.0</ele><time>2026-04-03T07:42:42.992Z</time></trkpt><trkpt lat="44.0706943" lon="8.1727568"><ele>31.0</ele><time>2026-04-03T07:42:43.992Z</time></trkpt><trkpt lat="44.0706677" lon="8.1726273"><ele>29.0</ele><time>2026-04-03T07:42:44.991Z</time></trkpt><trkpt lat="44.0706369" lon="8.1724905"><ele>27.0</ele><time>2026-04-03T07:42:45.991Z</time></trkpt><trkpt lat="44.0705849" lon="8.1723617"><ele>25.0</ele><time>2026-04-03T07:42:46.991Z</time></trkpt><trkpt lat="44.0705012" lon="8.1722555"><ele>25.0</ele><time>2026-04-03T07:42:47.992Z</time></trkpt><trkpt lat="44.0704086" lon="8.1721609"><ele>25.0</ele><time>2026-04-03T07:42:48.992Z</time></trkpt><trkpt lat="44.0703158" lon="8.1720798"><ele>25.0</ele><time>2026-04-03T07:42:49.992Z</time></trkpt><trkpt lat="44.0702193" lon="8.1720154"><ele>25.0</ele><time>2026-04-03T07:42:50.991Z</time></trkpt><trkpt lat="44.0701203" lon="8.1719518"><ele>25.0</ele><time>2026-04-03T07:42:51.991Z</time></trkpt><trkpt lat="44.0700264" lon="8.1718821"><ele>24.4</ele><time>2026-04-03T07:42:52.991Z</time></trkpt><trkpt lat="44.0699375" lon="8.1718072"><ele>23.8</ele><time>2026-04-03T07:42:53.992Z</time></trkpt><trkpt lat="44.0698523" lon="8.1717368"><ele>23.200000000000003</ele><time>2026-04-03T07:42:54.992Z</time></trkpt><trkpt lat="44.0697562" lon="8.1716686"><ele>22.6</ele><time>2026-04-03T07:42:55.991Z</time></trkpt><trkpt lat="44.0696667" lon="8.1716018"><ele>22.0</ele><time>2026-04-03T07:42:56.992Z</time></trkpt><trkpt lat="44.069583" lon="8.1715413"><ele>22.5</ele><time>2026-04-03T07:42:57.992Z</time></trkpt><trkpt lat="44.0695031" lon="8.1714905"><ele>23.0</ele><time>2026-04-03T07:42:58.991Z</time></trkpt><trkpt lat="44.0694309" lon="8.1714408"><ele>23.5</ele><time>2026-04-03T07:42:59.992Z</time></trkpt><trkpt lat="44.069364" lon="8.1713868"><ele>24.0</ele><time>2026-04-03T07:43:00.992Z</time></trkpt><trkpt lat="44.069302" lon="8.1713397"><ele>24.500000000000004</ele><time>2026-04-03T07:43:01.992Z</time></trkpt><trkpt lat="44.0692397" lon="8.1712963"><ele>25.0</ele><time>2026-04-03T07:43:02.992Z</time></trkpt><trkpt lat="44.0691769" lon="8.1712515"><ele>24.42857142857143</ele><time>2026-04-03T07:43:03.992Z</time></trkpt><trkpt lat="44.069105" lon="8.1711984"><ele>23.857142857142858</ele><time>2026-04-03T07:43:04.992Z</time></trkpt><trkpt lat="44.0690277" lon="8.1711472"><ele>23.285714285714285</ele><time>2026-04-03T07:43:05.991Z</time></trkpt><trkpt lat="44.0689639" lon="8.1711031"><ele>22.714285714285715</ele><time>2026-04-03T07:43:06.992Z</time></trkpt><trkpt lat="44.0689019" lon="8.171058"><ele>22.142857142857142</ele><time>2026-04-03T07:43:07.992Z</time></trkpt><trkpt lat="44.068844" lon="8.171007"><ele>21.571428571428573</ele><time>2026-04-03T07:43:08.991Z</time></trkpt><trkpt lat="44.0687917" lon="8.1709566"><ele>21.0</ele><time>2026-04-03T07:43:09.992Z</time></trkpt><trkpt lat="44.0687253" lon="8.1708702"><ele>21.0</ele><time>2026-04-03T07:43:11.991Z</time></trkpt><trkpt lat="44.0686859" lon="8.1707715"><ele>21.0</ele><time>2026-04-03T07:43:14.992Z</time></trkpt><trkpt lat="44.0686742" lon="8.1706238"><ele>21.0</ele><time>2026-04-03T07:43:17.991Z</time></trkpt><trkpt lat="44.0686678" lon="8.1705297"><ele>21.0</ele><time>2026-04-03T07:43:18.992Z</time></trkpt><trkpt lat="44.0686468" lon="8.1704296"><ele>21.0</ele><time>2026-04-03T07:43:19.992Z</time></trkpt><trkpt lat="44.068611" lon="8.170344"><ele>21.0</ele><time>2026-04-03T07:43:20.991Z</time></trkpt><trkpt lat="44.0685211" lon="8.1702613"><ele>21.0</ele><time>2026-04-03T07:43:22.991Z</time></trkpt><trkpt lat="44.0684501" lon="8.1701984"><ele>21.0</ele><time>2026-04-03T07:43:23.992Z</time></trkpt><trkpt lat="44.0683524" lon="8.1700884"><ele>21.0</ele><time>2026-04-03T07:43:24.991Z</time></trkpt><trkpt lat="44.0682332" lon="8.1699383"><ele>21.0</ele><time>2026-04-03T07:43:25.992Z</time></trkpt><trkpt lat="44.0681051" lon="8.169746"><ele>21.0</ele><time>2026-04-03T07:43:26.991Z</time></trkpt><trkpt lat="44.0679839" lon="8.1695209"><ele>21.0</ele><time>2026-04-03T07:43:27.992Z</time></trkpt><trkpt lat="44.0678794" lon="8.1692731"><ele>21.0</ele><time>2026-04-03T07:43:28.992Z</time></trkpt><trkpt lat="44.0677721" lon="8.1690299"><ele>20.333333333333332</ele><time>2026-04-03T07:43:29.992Z</time></trkpt><trkpt lat="44.0676669" lon="8.1687927"><ele>19.666666666666664</ele><time>2026-04-03T07:43:30.992Z</time></trkpt><trkpt lat="44.0675621" lon="8.1685495"><ele>19.0</ele><time>2026-04-03T07:43:31.992Z</time></trkpt><trkpt lat="44.067459" lon="8.1683198"><ele>19.666666666666664</ele><time>2026-04-03T07:43:32.992Z</time></trkpt><trkpt lat="44.0673638" lon="8.1680975"><ele>20.333333333333332</ele><time>2026-04-03T07:43:33.992Z</time></trkpt><trkpt lat="44.0672738" lon="8.1678833"><ele>21.0</ele><time>2026-04-03T07:43:34.992Z</time></trkpt><trkpt lat="44.067181" lon="8.1676711"><ele>21.0</ele><time>2026-04-03T07:43:35.992Z</time></trkpt><trkpt lat="44.0670942" lon="8.1674682"><ele>21.0</ele><time>2026-04-03T07:43:36.992Z</time></trkpt><trkpt lat="44.067017" lon="8.1672818"><ele>21.0</ele><time>2026-04-03T07:43:37.991Z</time></trkpt><trkpt lat="44.0669549" lon="8.1670967"><ele>22.0</ele><time>2026-04-03T07:43:38.991Z</time></trkpt><trkpt lat="44.0668807" lon="8.1669174"><ele>23.0</ele><time>2026-04-03T07:43:39.991Z</time></trkpt><trkpt lat="44.0668001" lon="8.1667345"><ele>24.0</ele><time>2026-04-03T07:43:40.991Z</time></trkpt><trkpt lat="44.0667191" lon="8.1665542"><ele>23.666666666666668</ele><time>2026-04-03T07:43:41.992Z</time></trkpt><trkpt lat="44.0666342" lon="8.1663628"><ele>23.333333333333336</ele><time>2026-04-03T07:43:42.992Z</time></trkpt><trkpt lat="44.066549" lon="8.1661692"><ele>23.0</ele><time>2026-04-03T07:43:43.992Z</time></trkpt><trkpt lat="44.0664701" lon="8.1659828"><ele>23.666666666666668</ele><time>2026-04-03T07:43:44.992Z</time></trkpt><trkpt lat="44.0663842" lon="8.1658033"><ele>24.333333333333336</ele><time>2026-04-03T07:43:45.991Z</time></trkpt><trkpt lat="44.0662897" lon="8.1656166"><ele>25.0</ele><time>2026-04-03T07:43:46.992Z</time></trkpt><trkpt lat="44.0661884" lon="8.1654389"><ele>26.0</ele><time>2026-04-03T07:43:47.99Z</time></trkpt><trkpt lat="44.0660901" lon="8.1652654"><ele>27.0</ele><time>2026-04-03T07:43:48.991Z</time></trkpt><trkpt lat="44.0659922" lon="8.1650961"><ele>28.0</ele><time>2026-04-03T07:43:49.991Z</time></trkpt><trkpt lat="44.0658899" lon="8.1649465"><ele>29.666666666666668</ele><time>2026-04-03T07:43:50.991Z</time></trkpt><trkpt lat="44.0657795" lon="8.1647967"><ele>31.333333333333336</ele><time>2026-04-03T07:43:51.991Z</time></trkpt><trkpt lat="44.0656617" lon="8.1646529"><ele>33.0</ele><time>2026-04-03T07:43:52.99Z</time></trkpt><trkpt lat="44.0655379" lon="8.1645208"><ele>40.66666666666667</ele><time>2026-04-03T07:43:53.991Z</time></trkpt><trkpt lat="44.06541" lon="8.164398"><ele>48.333333333333336</ele><time>2026-04-03T07:43:54.991Z</time></trkpt><trkpt lat="44.0652862" lon="8.1642783"><ele>56.0</ele><time>2026-04-03T07:43:55.991Z</time></trkpt><trkpt lat="44.065169" lon="8.1641386"><ele>52.0</ele><time>2026-04-03T07:43:56.991Z</time></trkpt><trkpt lat="44.0650543" lon="8.1639943"><ele>48.0</ele><time>2026-04-03T07:43:57.991Z</time></trkpt><trkpt lat="44.0649452" lon="8.1638516"><ele>44.0</ele><time>2026-04-03T07:43:58.991Z</time></trkpt><trkpt lat="44.0603967" lon="8.1633167"><ele>44.0</ele><time>2026-04-03T07:44:22Z</time></trkpt><trkpt lat="44.060163" lon="8.1632985"><ele>44.0</ele><time>2026-04-03T07:44:23Z</time></trkpt><trkpt lat="44.0599324" lon="8.1632673"><ele>51.5</ele><time>2026-04-03T07:44:24.001Z</time></trkpt><trkpt lat="44.0597006" lon="8.1632236"><ele>59.0</ele><time>2026-04-03T07:44:25.001Z</time></trkpt><trkpt lat="44.0594731" lon="8.1631827"><ele>59.0</ele><time>2026-04-03T07:44:26Z</time></trkpt><trkpt lat="44.0592448" lon="8.1631439"><ele>59.0</ele><time>2026-04-03T07:44:27.001Z</time></trkpt><trkpt lat="44.0566333" lon="8.16278"><ele>48.75</ele><time>2026-04-03T07:44:38.999Z</time></trkpt><trkpt lat="44.0564753" lon="8.1627658"><ele>38.5</ele><time>2026-04-03T07:44:40Z</time></trkpt><trkpt lat="44.0563418" lon="8.1627433"><ele>28.25</ele><time>2026-04-03T07:44:41Z</time></trkpt><trkpt lat="44.0562429" lon="8.1626983"><ele>18.0</ele><time>2026-04-03T07:44:42Z</time></trkpt><trkpt lat="44.0561646" lon="8.1626155"><ele>18.0</ele><time>2026-04-03T07:44:43Z</time></trkpt><trkpt lat="44.0561082" lon="8.1625028"><ele>18.0</ele><time>2026-04-03T07:44:44Z</time></trkpt><trkpt lat="44.0560793" lon="8.1623565"><ele>18.0</ele><time>2026-04-03T07:44:45Z</time></trkpt><trkpt lat="44.0560796" lon="8.1622123"><ele>18.0</ele><time>2026-04-03T07:44:45.999Z</time></trkpt><trkpt lat="44.0561225" lon="8.1620895"><ele>18.0</ele><time>2026-04-03T07:44:46.999Z</time></trkpt><trkpt lat="44.0561954" lon="8.1619739"><ele>18.0</ele><time>2026-04-03T07:44:48Z</time></trkpt><trkpt lat="44.0562871" lon="8.1619054"><ele>18.0</ele><time>2026-04-03T07:44:49Z</time></trkpt><trkpt lat="44.0563939" lon="8.1618828"><ele>18.0</ele><time>2026-04-03T07:44:49.999Z</time></trkpt><trkpt lat="44.0565006" lon="8.161886"><ele>18.0</ele><time>2026-04-03T07:44:51Z</time></trkpt><trkpt lat="44.0565817" lon="8.1619104"><ele>18.0</ele><time>2026-04-03T07:44:52Z</time></trkpt><trkpt lat="44.0566682" lon="8.1619015"><ele>20.0</ele><time>2026-04-03T07:44:53.999Z</time></trkpt><trkpt lat="44.0567183" lon="8.1617978"><ele>22.0</ele><time>2026-04-03T07:44:56Z</time></trkpt><trkpt lat="44.0567253" lon="8.1616691"><ele>24.0</ele><time>2026-04-03T07:44:57Z</time></trkpt><trkpt lat="44.0567104" lon="8.1614822"><ele>26.0</ele><time>2026-04-03T07:44:57.999Z</time></trkpt><trkpt lat="44.0566964" lon="8.1612723"><ele>26.333333333333332</ele><time>2026-04-03T07:44:58.999Z</time></trkpt><trkpt lat="44.0566863" lon="8.1610682"><ele>26.666666666666664</ele><time>2026-04-03T07:44:59.999Z</time></trkpt><trkpt lat="44.0566807" lon="8.1608381"><ele>27.0</ele><time>2026-04-03T07:45:00.999Z</time></trkpt><trkpt lat="44.0566736" lon="8.1605979"><ele>26.333333333333336</ele><time>2026-04-03T07:45:02Z</time></trkpt><trkpt lat="44.0566635" lon="8.1603591"><ele>25.666666666666668</ele><time>2026-04-03T07:45:03Z</time></trkpt><trkpt lat="44.056653" lon="8.1601185"><ele>25.0</ele><time>2026-04-03T07:45:04Z</time></trkpt><trkpt lat="44.0566406" lon="8.1598738"><ele>23.0</ele><time>2026-04-03T07:45:04.999Z</time></trkpt><trkpt lat="44.0566161" lon="8.1596227"><ele>21.0</ele><time>2026-04-03T07:45:06Z</time></trkpt><trkpt lat="44.0565788" lon="8.1593639"><ele>19.0</ele><time>2026-04-03T07:45:07Z</time></trkpt><trkpt lat="44.0565373" lon="8.1591092"><ele>18.666666666666664</ele><time>2026-04-03T07:45:07.999Z</time></trkpt><trkpt lat="44.0564895" lon="8.1588615"><ele>18.333333333333332</ele><time>2026-04-03T07:45:09Z</time></trkpt><trkpt lat="44.0564465" lon="8.1586165"><ele>18.0</ele><time>2026-04-03T07:45:10Z</time></trkpt><trkpt lat="44.0564103" lon="8.1583845"><ele>18.666666666666668</ele><time>2026-04-03T07:45:11Z</time></trkpt><trkpt lat="44.0563769" lon="8.1581425"><ele>19.333333333333336</ele><time>2026-04-03T07:45:12Z</time></trkpt><trkpt lat="44.0563383" lon="8.1579154"><ele>20.0</ele><time>2026-04-03T07:45:13Z</time></trkpt><trkpt lat="44.0562963" lon="8.1576835"><ele>20.0</ele><time>2026-04-03T07:45:14Z</time></trkpt><trkpt lat="44.0562625" lon="8.1574677"><ele>20.0</ele><time>2026-04-03T07:45:15Z</time></trkpt><trkpt lat="44.05622" lon="8.1572465"><ele>20.0</ele><time>2026-04-03T07:45:16Z</time></trkpt><trkpt lat="44.0561634" lon="8.1570473"><ele>20.5</ele><time>2026-04-03T07:45:16.999Z</time></trkpt><trkpt lat="44.0560854" lon="8.1568554"><ele>21.0</ele><time>2026-04-03T07:45:18Z</time></trkpt><trkpt lat="44.0560053" lon="8.1566921"><ele>21.5</ele><time>2026-04-03T07:45:18.999Z</time></trkpt><trkpt lat="44.0559305" lon="8.1565757"><ele>22.0</ele><time>2026-04-03T07:45:20Z</time></trkpt><trkpt lat="44.0558668" lon="8.1564852"><ele>22.0</ele><time>2026-04-03T07:45:21Z</time></trkpt><trkpt lat="44.0558182" lon="8.156418"><ele>22.0</ele><time>2026-04-03T07:45:22Z</time></trkpt><trkpt lat="44.0557555" lon="8.1563132"><ele>22.0</ele><time>2026-04-03T07:45:23.999Z</time></trkpt><trkpt lat="44.0557115" lon="8.1561875"><ele>22.0</ele><time>2026-04-03T07:45:26Z</time></trkpt><trkpt lat="44.0556539" lon="8.1561147"><ele>22.0</ele><time>2026-04-03T07:45:28Z</time></trkpt><trkpt lat="44.0555486" lon="8.1561155"><ele>22.0</ele><time>2026-04-03T07:45:30Z</time></trkpt><trkpt lat="44.0554853" lon="8.1561359"><ele>22.0</ele><time>2026-04-03T07:45:31Z</time></trkpt><trkpt lat="44.0554084" lon="8.1561474"><ele>22.0</ele><time>2026-04-03T07:45:31.999Z</time></trkpt><trkpt lat="44.0553309" lon="8.1561355"><ele>22.0</ele><time>2026-04-03T07:45:33Z</time></trkpt><trkpt lat="44.0552477" lon="8.1561043"><ele>22.0</ele><time>2026-04-03T07:45:33.999Z</time></trkpt><trkpt lat="44.0551684" lon="8.1560502"><ele>22.0</ele><time>2026-04-03T07:45:35Z</time></trkpt><trkpt lat="44.0550932" lon="8.1559886"><ele>22.0</ele><time>2026-04-03T07:45:36Z</time></trkpt><trkpt lat="44.0550364" lon="8.1559074"><ele>22.0</ele><time>2026-04-03T07:45:37Z</time></trkpt><trkpt lat="44.0549884" lon="8.1558082"><ele>22.0</ele><time>2026-04-03T07:45:38Z</time></trkpt><trkpt lat="44.0549384" lon="8.1556996"><ele>22.0</ele><time>2026-04-03T07:45:39Z</time></trkpt><trkpt lat="44.0548908" lon="8.1555875"><ele>22.0</ele><time>2026-04-03T07:45:40Z</time></trkpt><trkpt lat="44.054841" lon="8.1554635"><ele>22.5</ele><time>2026-04-03T07:45:41Z</time></trkpt><trkpt lat="44.0547804" lon="8.1553293"><ele>23.0</ele><time>2026-04-03T07:45:41.999Z</time></trkpt><trkpt lat="44.0547171" lon="8.1551941"><ele>23.5</ele><time>2026-04-03T07:45:42.999Z</time></trkpt><trkpt lat="44.0546506" lon="8.1550641"><ele>24.0</ele><time>2026-04-03T07:45:44Z</time></trkpt><trkpt lat="44.0545819" lon="8.1549243"><ele>24.4</ele><time>2026-04-03T07:45:45Z</time></trkpt><trkpt lat="44.0545182" lon="8.1547764"><ele>24.799999999999997</ele><time>2026-04-03T07:45:46Z</time></trkpt><trkpt lat="44.0544615" lon="8.1546455"><ele>25.200000000000003</ele><time>2026-04-03T07:45:47Z</time></trkpt><trkpt lat="44.0544125" lon="8.1545266"><ele>25.6</ele><time>2026-04-03T07:45:48Z</time></trkpt><trkpt lat="44.0543624" lon="8.1544203"><ele>26.0</ele><time>2026-04-03T07:45:48.999Z</time></trkpt><trkpt lat="44.0543099" lon="8.1543164"><ele>26.0</ele><time>2026-04-03T07:45:50Z</time></trkpt><trkpt lat="44.0542599" lon="8.154207"><ele>26.0</ele><time>2026-04-03T07:45:50.999Z</time></trkpt><trkpt lat="44.0542025" lon="8.1540813"><ele>26.0</ele><time>2026-04-03T07:45:52Z</time></trkpt><trkpt lat="44.0541464" lon="8.1539597"><ele>26.0</ele><time>2026-04-03T07:45:52.999Z</time></trkpt><trkpt lat="44.054087" lon="8.1538373"><ele>26.0</ele><time>2026-04-03T07:45:53.999Z</time></trkpt><trkpt lat="44.0540203" lon="8.1537238"><ele>25.8</ele><time>2026-04-03T07:45:55Z</time></trkpt><trkpt lat="44.0539636" lon="8.1536114"><ele>25.6</ele><time>2026-04-03T07:45:56Z</time></trkpt><trkpt lat="44.0539112" lon="8.1534954"><ele>25.4</ele><time>2026-04-03T07:45:57Z</time></trkpt><trkpt lat="44.0538651" lon="8.1533783"><ele>25.2</ele><time>2026-04-03T07:45:58Z</time></trkpt><trkpt lat="44.05381" lon="8.1532509"><ele>25.0</ele><time>2026-04-03T07:45:59Z</time></trkpt><trkpt lat="44.0537515" lon="8.1531269"><ele>25.0</ele><time>2026-04-03T07:46:00Z</time></trkpt><trkpt lat="44.0536852" lon="8.1530094"><ele>25.0</ele><time>2026-04-03T07:46:00.999Z</time></trkpt><trkpt lat="44.0536121" lon="8.1528931"><ele>25.0</ele><time>2026-04-03T07:46:01.999Z</time></trkpt><trkpt lat="44.0535371" lon="8.1527919"><ele>25.0</ele><time>2026-04-03T07:46:03Z</time></trkpt><trkpt lat="44.0534602" lon="8.1526894"><ele>25.0</ele><time>2026-04-03T07:46:04Z</time></trkpt><trkpt lat="44.0533781" lon="8.1525824"><ele>24.5</ele><time>2026-04-03T07:46:04.999Z</time></trkpt><trkpt lat="44.0532815" lon="8.1524813"><ele>24.0</ele><time>2026-04-03T07:46:06Z</time></trkpt><trkpt lat="44.0531903" lon="8.1523844"><ele>23.5</ele><time>2026-04-03T07:46:06.999Z</time></trkpt><trkpt lat="44.0531112" lon="8.1522795"><ele>23.0</ele><time>2026-04-03T07:46:07.999Z</time></trkpt><trkpt lat="44.0530343" lon="8.1521797"><ele>23.0</ele><time>2026-04-03T07:46:08.999Z</time></trkpt><trkpt lat="44.0529681" lon="8.1520643"><ele>23.0</ele><time>2026-04-03T07:46:10Z</time></trkpt><trkpt lat="44.0529064" lon="8.1519428"><ele>23.0</ele><time>2026-04-03T07:46:11Z</time></trkpt><trkpt lat="44.0528377" lon="8.1518172"><ele>23.0</ele><time>2026-04-03T07:46:12Z</time></trkpt><trkpt lat="44.0527651" lon="8.1516962"><ele>23.0</ele><time>2026-04-03T07:46:13Z</time></trkpt><trkpt lat="44.05269" lon="8.1515688"><ele>23.0</ele><time>2026-04-03T07:46:13.999Z</time></trkpt><trkpt lat="44.0526128" lon="8.1514388"><ele>23.0</ele><time>2026-04-03T07:46:14.999Z</time></trkpt><trkpt lat="44.0525253" lon="8.1513123"><ele>23.0</ele><time>2026-04-03T07:46:16Z</time></trkpt><trkpt lat="44.0524399" lon="8.1512009"><ele>23.0</ele><time>2026-04-03T07:46:16.999Z</time></trkpt><trkpt lat="44.0523519" lon="8.1510973"><ele>23.0</ele><time>2026-04-03T07:46:18Z</time></trkpt><trkpt lat="44.052268" lon="8.15099"><ele>23.0</ele><time>2026-04-03T07:46:19Z</time></trkpt><trkpt lat="44.0521865" lon="8.1508853"><ele>23.0</ele><time>2026-04-03T07:46:19.999Z</time></trkpt><trkpt lat="44.0521139" lon="8.1507881"><ele>23.0</ele><time>2026-04-03T07:46:21Z</time></trkpt><trkpt lat="44.05204" lon="8.1506903"><ele>23.0</ele><time>2026-04-03T07:46:22Z</time></trkpt><trkpt lat="44.0519636" lon="8.1505891"><ele>23.0</ele><time>2026-04-03T07:46:23Z</time></trkpt><trkpt lat="44.0518822" lon="8.1504852"><ele>23.0</ele><time>2026-04-03T07:46:23.999Z</time></trkpt><trkpt lat="44.0517911" lon="8.1503812"><ele>23.0</ele><time>2026-04-03T07:46:25Z</time></trkpt><trkpt lat="44.051703" lon="8.1502676"><ele>23.0</ele><time>2026-04-03T07:46:26Z</time></trkpt><trkpt lat="44.0516188" lon="8.1501492"><ele>23.0</ele><time>2026-04-03T07:46:27Z</time></trkpt><trkpt lat="44.0515395" lon="8.1500225"><ele>23.0</ele><time>2026-04-03T07:46:27.999Z</time></trkpt><trkpt lat="44.0514706" lon="8.1498934"><ele>23.0</ele><time>2026-04-03T07:46:29Z</time></trkpt><trkpt lat="44.051406" lon="8.1497576"><ele>23.0</ele><time>2026-04-03T07:46:30Z</time></trkpt><trkpt lat="44.0513525" lon="8.1496197"><ele>23.4</ele><time>2026-04-03T07:46:30.999Z</time></trkpt><trkpt lat="44.0513102" lon="8.149471"><ele>23.799999999999997</ele><time>2026-04-03T07:46:32Z</time></trkpt><trkpt lat="44.0512786" lon="8.1493217"><ele>24.2</ele><time>2026-04-03T07:46:32.999Z</time></trkpt><trkpt lat="44.0512564" lon="8.1491691"><ele>24.6</ele><time>2026-04-03T07:46:33.999Z</time></trkpt><trkpt lat="44.05124" lon="8.1490312"><ele>25.0</ele><time>2026-04-03T07:46:35Z</time></trkpt><trkpt lat="44.0512324" lon="8.1488978"><ele>25.500000000000004</ele><time>2026-04-03T07:46:35.999Z</time></trkpt><trkpt lat="44.0512186" lon="8.1487659"><ele>26.0</ele><time>2026-04-03T07:46:37Z</time></trkpt><trkpt lat="44.0512043" lon="8.1486509"><ele>26.5</ele><time>2026-04-03T07:46:38Z</time></trkpt><trkpt lat="44.0511921" lon="8.1485605"><ele>27.0</ele><time>2026-04-03T07:46:39Z</time></trkpt><trkpt lat="44.0511511" lon="8.1483952"><ele>27.500000000000004</ele><time>2026-04-03T07:46:41Z</time></trkpt><trkpt lat="44.0511314" lon="8.1483044"><ele>28.0</ele><time>2026-04-03T07:46:42Z</time></trkpt><trkpt lat="44.0511015" lon="8.1482088"><ele>28.4</ele><time>2026-04-03T07:46:43Z</time></trkpt><trkpt lat="44.0510802" lon="8.1481236"><ele>28.799999999999997</ele><time>2026-04-03T07:46:44Z</time></trkpt><trkpt lat="44.0510414" lon="8.1479775"><ele>29.2</ele><time>2026-04-03T07:46:45.999Z</time></trkpt><trkpt lat="44.0510116" lon="8.1478404"><ele>29.6</ele><time>2026-04-03T07:46:47.999Z</time></trkpt><trkpt lat="44.0509817" lon="8.1477317"><ele>30.0</ele><time>2026-04-03T07:46:49.999Z</time></trkpt><trkpt lat="44.0509471" lon="8.1476138"><ele>30.0</ele><time>2026-04-03T07:46:52Z</time></trkpt><trkpt lat="44.0509191" lon="8.1474863"><ele>30.0</ele><time>2026-04-03T07:46:54Z</time></trkpt><trkpt lat="44.0508897" lon="8.1473621"><ele>30.0</ele><time>2026-04-03T07:46:56Z</time></trkpt><trkpt lat="44.0508546" lon="8.1472137"><ele>30.0</ele><time>2026-04-03T07:46:58Z</time></trkpt><trkpt lat="44.0508301" lon="8.1471083"><ele>30.0</ele><time>2026-04-03T07:46:59Z</time></trkpt><trkpt lat="44.0507972" lon="8.1469763"><ele>30.5</ele><time>2026-04-03T07:47:00Z</time></trkpt><trkpt lat="44.0507618" lon="8.1468097"><ele>31.0</ele><time>2026-04-03T07:47:01Z</time></trkpt><trkpt lat="44.0507249" lon="8.1466132"><ele>31.5</ele><time>2026-04-03T07:47:02Z</time></trkpt><trkpt lat="44.0507012" lon="8.1463899"><ele>32.0</ele><time>2026-04-03T07:47:03Z</time></trkpt><trkpt lat="44.0506934" lon="8.1461623"><ele>32.0</ele><time>2026-04-03T07:47:04Z</time></trkpt><trkpt lat="44.0506934" lon="8.145934"><ele>32.0</ele><time>2026-04-03T07:47:04.999Z</time></trkpt><trkpt lat="44.0506822" lon="8.1457108"><ele>32.0</ele><time>2026-04-03T07:47:05.999Z</time></trkpt><trkpt lat="44.0506734" lon="8.1454809"><ele>31.0</ele><time>2026-04-03T07:47:07Z</time></trkpt><trkpt lat="44.050665" lon="8.1452709"><ele>30.0</ele><time>2026-04-03T07:47:08Z</time></trkpt><trkpt lat="44.0506699" lon="8.1450898"><ele>29.0</ele><time>2026-04-03T07:47:08.999Z</time></trkpt><trkpt lat="44.0506963" lon="8.1449302"><ele>28.0</ele><time>2026-04-03T07:47:10Z</time></trkpt><trkpt lat="44.0507683" lon="8.1447865"><ele>28.666666666666668</ele><time>2026-04-03T07:47:11Z</time></trkpt><trkpt lat="44.0508682" lon="8.1446301"><ele>29.333333333333336</ele><time>2026-04-03T07:47:12Z</time></trkpt><trkpt lat="44.0509761" lon="8.1444593"><ele>30.0</ele><time>2026-04-03T07:47:13Z</time></trkpt><trkpt lat="44.0510849" lon="8.1442829"><ele>30.0</ele><time>2026-04-03T07:47:13.999Z</time></trkpt><trkpt lat="44.0511871" lon="8.1441025"><ele>30.0</ele><time>2026-04-03T07:47:14.999Z</time></trkpt><trkpt lat="44.0512861" lon="8.1439279"><ele>30.0</ele><time>2026-04-03T07:47:16Z</time></trkpt><trkpt lat="44.0513804" lon="8.1437503"><ele>29.5</ele><time>2026-04-03T07:47:16.999Z</time></trkpt><trkpt lat="44.0514632" lon="8.143593"><ele>29.0</ele><time>2026-04-03T07:47:18Z</time></trkpt><trkpt lat="44.0515544" lon="8.1434427"><ele>28.5</ele><time>2026-04-03T07:47:18.999Z</time></trkpt><trkpt lat="44.0516418" lon="8.1432937"><ele>28.0</ele><time>2026-04-03T07:47:19.999Z</time></trkpt><trkpt lat="44.0517257" lon="8.1431489"><ele>29.25</ele><time>2026-04-03T07:47:20.999Z</time></trkpt><trkpt lat="44.0518144" lon="8.142998"><ele>30.5</ele><time>2026-04-03T07:47:22Z</time></trkpt><trkpt lat="44.0519057" lon="8.1428435"><ele>31.75</ele><time>2026-04-03T07:47:23Z</time></trkpt><trkpt lat="44.0519846" lon="8.1426928"><ele>33.0</ele><time>2026-04-03T07:47:24Z</time></trkpt><trkpt lat="44.052042" lon="8.1425156"><ele>32.4</ele><time>2026-04-03T07:47:24.999Z</time></trkpt><trkpt lat="44.0520744" lon="8.1423382"><ele>31.799999999999997</ele><time>2026-04-03T07:47:25.999Z</time></trkpt><trkpt lat="44.052093" lon="8.1421928"><ele>31.2</ele><time>2026-04-03T07:47:26.999Z</time></trkpt><trkpt lat="44.0521006" lon="8.1421014"><ele>30.6</ele><time>2026-04-03T07:47:28Z</time></trkpt><trkpt lat="44.0520808" lon="8.141981"><ele>30.0</ele><time>2026-04-03T07:47:30Z</time></trkpt><trkpt lat="44.0520609" lon="8.1418779"><ele>30.0</ele><time>2026-04-03T07:47:32Z</time></trkpt><trkpt lat="44.0520574" lon="8.1417648"><ele>30.0</ele><time>2026-04-03T07:47:33Z</time></trkpt><trkpt lat="44.0520776" lon="8.1415937"><ele>30.0</ele><time>2026-04-03T07:47:33.999Z</time></trkpt><trkpt lat="44.0521155" lon="8.1413798"><ele>30.0</ele><time>2026-04-03T07:47:34.999Z</time></trkpt><trkpt lat="44.0521804" lon="8.1411413"><ele>30.0</ele><time>2026-04-03T07:47:36Z</time></trkpt><trkpt lat="44.0522782" lon="8.140868"><ele>30.0</ele><time>2026-04-03T07:47:37Z</time></trkpt><trkpt lat="44.0523822" lon="8.1405802"><ele>35.0</ele><time>2026-04-03T07:47:37.999Z</time></trkpt><trkpt lat="44.0524897" lon="8.1402834"><ele>40.0</ele><time>2026-04-03T07:47:39Z</time></trkpt><trkpt lat="44.0525931" lon="8.1399845"><ele>38.0</ele><time>2026-04-03T07:47:40Z</time></trkpt><trkpt lat="44.0526922" lon="8.1396871"><ele>36.0</ele><time>2026-04-03T07:47:41Z</time></trkpt><trkpt lat="44.052768" lon="8.1393715"><ele>34.5</ele><time>2026-04-03T07:47:42Z</time></trkpt><trkpt lat="44.0528308" lon="8.1390253"><ele>33.0</ele><time>2026-04-03T07:47:43Z</time></trkpt><trkpt lat="44.0529025" lon="8.1386999"><ele>33.0</ele><time>2026-04-03T07:47:44Z</time></trkpt><trkpt lat="44.0529873" lon="8.1383701"><ele>33.0</ele><time>2026-04-03T07:47:45Z</time></trkpt><trkpt lat="44.0530698" lon="8.1380558"><ele>31.5</ele><time>2026-04-03T07:47:45.999Z</time></trkpt><trkpt lat="44.0531672" lon="8.1377535"><ele>30.0</ele><time>2026-04-03T07:47:46.999Z</time></trkpt><trkpt lat="44.0532569" lon="8.1374622"><ele>34.333333333333336</ele><time>2026-04-03T07:47:48Z</time></trkpt><trkpt lat="44.0533487" lon="8.1371728"><ele>38.66666666666667</ele><time>2026-04-03T07:47:49Z</time></trkpt><trkpt lat="44.0533999" lon="8.1368855"><ele>43.0</ele><time>2026-04-03T07:47:49.999Z</time></trkpt><trkpt lat="44.0534321" lon="8.1365727"><ele>42.0</ele><time>2026-04-03T07:47:50.999Z</time></trkpt><trkpt lat="44.0534458" lon="8.1362626"><ele>41.0</ele><time>2026-04-03T07:47:51.999Z</time></trkpt><trkpt lat="44.0534526" lon="8.1359456"><ele>41.5</ele><time>2026-04-03T07:47:53Z</time></trkpt><trkpt lat="44.0534537" lon="8.1356229"><ele>42.0</ele><time>2026-04-03T07:47:54Z</time></trkpt><trkpt lat="44.0534679" lon="8.1353021"><ele>42.0</ele><time>2026-04-03T07:47:55Z</time></trkpt><trkpt lat="44.0534836" lon="8.1349843"><ele>42.0</ele><time>2026-04-03T07:47:56Z</time></trkpt><trkpt lat="44.0535044" lon="8.1346623"><ele>40.0</ele><time>2026-04-03T07:47:56.999Z</time></trkpt><trkpt lat="44.0535314" lon="8.1343322"><ele>38.0</ele><time>2026-04-03T07:47:58Z</time></trkpt><trkpt lat="44.05357" lon="8.1339987"><ele>38.0</ele><time>2026-04-03T07:47:59Z</time></trkpt><trkpt lat="44.0535979" lon="8.1336586"><ele>38.0</ele><time>2026-04-03T07:48:00Z</time></trkpt><trkpt lat="44.0536324" lon="8.1333355"><ele>37.0</ele><time>2026-04-03T07:48:00.999Z</time></trkpt><trkpt lat="44.0536739" lon="8.133043"><ele>36.0</ele><time>2026-04-03T07:48:02Z</time></trkpt><trkpt lat="44.0537254" lon="8.1327585"><ele>35.0</ele><time>2026-04-03T07:48:02.999Z</time></trkpt><trkpt lat="44.0537823" lon="8.132476"><ele>34.0</ele><time>2026-04-03T07:48:04Z</time></trkpt><trkpt lat="44.0538553" lon="8.1321949"><ele>33.0</ele><time>2026-04-03T07:48:05Z</time></trkpt><trkpt lat="44.0539453" lon="8.1319265"><ele>32.0</ele><time>2026-04-03T07:48:06Z</time></trkpt><trkpt lat="44.0540525" lon="8.1316695"><ele>37.0</ele><time>2026-04-03T07:48:06.999Z</time></trkpt><trkpt lat="44.0541573" lon="8.1314169"><ele>42.0</ele><time>2026-04-03T07:48:07.999Z</time></trkpt><trkpt lat="44.0542524" lon="8.1311707"><ele>47.0</ele><time>2026-04-03T07:48:09Z</time></trkpt><trkpt lat="44.054314" lon="8.1308987"><ele>45.0</ele><time>2026-04-03T07:48:10Z</time></trkpt><trkpt lat="44.0543511" lon="8.1306047"><ele>43.0</ele><time>2026-04-03T07:48:10.999Z</time></trkpt><trkpt lat="44.0543902" lon="8.130297"><ele>41.0</ele><time>2026-04-03T07:48:12Z</time></trkpt><trkpt lat="44.0544257" lon="8.1299854"><ele>39.5</ele><time>2026-04-03T07:48:12.999Z</time></trkpt><trkpt lat="44.0544664" lon="8.1296722"><ele>38.0</ele><time>2026-04-03T07:48:13.999Z</time></trkpt><trkpt lat="44.0545051" lon="8.1293647"><ele>36.5</ele><time>2026-04-03T07:48:14.999Z</time></trkpt><trkpt lat="44.0545407" lon="8.1290509"><ele>35.0</ele><time>2026-04-03T07:48:16Z</time></trkpt><trkpt lat="44.0545967" lon="8.1287456"><ele>35.0</ele><time>2026-04-03T07:48:17Z</time></trkpt><trkpt lat="44.0546587" lon="8.1284353"><ele>35.0</ele><time>2026-04-03T07:48:18Z</time></trkpt><trkpt lat="44.0547078" lon="8.1281196"><ele>35.0</ele><time>2026-04-03T07:48:19Z</time></trkpt><trkpt lat="44.0547495" lon="8.1277967"><ele>35.0</ele><time>2026-04-03T07:48:20Z</time></trkpt><trkpt lat="44.0547885" lon="8.1274814"><ele>35.5</ele><time>2026-04-03T07:48:20.999Z</time></trkpt><trkpt lat="44.0548193" lon="8.1271663"><ele>36.0</ele><time>2026-04-03T07:48:22Z</time></trkpt><trkpt lat="44.0548629" lon="8.1268485"><ele>35.0</ele><time>2026-04-03T07:48:23Z</time></trkpt><trkpt lat="44.0549055" lon="8.1265287"><ele>34.0</ele><time>2026-04-03T07:48:24Z</time></trkpt><trkpt lat="44.0549569" lon="8.1262076"><ele>37.66666666666667</ele><time>2026-04-03T07:48:25Z</time></trkpt><trkpt lat="44.0550107" lon="8.1259073"><ele>41.333333333333336</ele><time>2026-04-03T07:48:26Z</time></trkpt><trkpt lat="44.0550655" lon="8.1256073"><ele>45.0</ele><time>2026-04-03T07:48:27Z</time></trkpt><trkpt lat="44.0551188" lon="8.12531"><ele>45.0</ele><time>2026-04-03T07:48:28Z</time></trkpt><trkpt lat="44.0551643" lon="8.1250099"><ele>45.0</ele><time>2026-04-03T07:48:29Z</time></trkpt><trkpt lat="44.0552004" lon="8.1247141"><ele>45.0</ele><time>2026-04-03T07:48:29.999Z</time></trkpt><trkpt lat="44.0552308" lon="8.1244033"><ele>45.666666666666664</ele><time>2026-04-03T07:48:30.999Z</time></trkpt><trkpt lat="44.0552627" lon="8.1240993"><ele>46.33333333333333</ele><time>2026-04-03T07:48:32Z</time></trkpt><trkpt lat="44.0552835" lon="8.1237874"><ele>47.0</ele><time>2026-04-03T07:48:33Z</time></trkpt><trkpt lat="44.0552963" lon="8.123466"><ele>43.5</ele><time>2026-04-03T07:48:34Z</time></trkpt><trkpt lat="44.0553013" lon="8.1231512"><ele>40.0</ele><time>2026-04-03T07:48:35Z</time></trkpt><trkpt lat="44.0553093" lon="8.1228285"><ele>40.0</ele><time>2026-04-03T07:48:36Z</time></trkpt><trkpt lat="44.0553175" lon="8.1225082"><ele>40.0</ele><time>2026-04-03T07:48:36.999Z</time></trkpt><trkpt lat="44.0553525" lon="8.122194"><ele>40.0</ele><time>2026-04-03T07:48:38Z</time></trkpt><trkpt lat="44.0554067" lon="8.1218892"><ele>40.0</ele><time>2026-04-03T07:48:39Z</time></trkpt><trkpt lat="44.0554722" lon="8.1215882"><ele>39.333333333333336</ele><time>2026-04-03T07:48:39.999Z</time></trkpt><trkpt lat="44.0555543" lon="8.1213002"><ele>38.666666666666664</ele><time>2026-04-03T07:48:40.999Z</time></trkpt><trkpt lat="44.055628" lon="8.1210294"><ele>38.0</ele><time>2026-04-03T07:48:41.999Z</time></trkpt><trkpt lat="44.0557" lon="8.1207382"><ele>37.666666666666664</ele><time>2026-04-03T07:48:43Z</time></trkpt><trkpt lat="44.0557613" lon="8.1204423"><ele>37.333333333333336</ele><time>2026-04-03T07:48:43.999Z</time></trkpt><trkpt lat="44.055817" lon="8.1201424"><ele>37.0</ele><time>2026-04-03T07:48:45Z</time></trkpt><trkpt lat="44.0558728" lon="8.1198608"><ele>41.0</ele><time>2026-04-03T07:48:46Z</time></trkpt><trkpt lat="44.0559356" lon="8.1195978"><ele>45.0</ele><time>2026-04-03T07:48:47Z</time></trkpt><trkpt lat="44.0560036" lon="8.1193397"><ele>49.0</ele><time>2026-04-03T07:48:48Z</time></trkpt><trkpt lat="44.0560485" lon="8.1190923"><ele>47.33333333333333</ele><time>2026-04-03T07:48:49Z</time></trkpt><trkpt lat="44.0560542" lon="8.118853"><ele>45.666666666666664</ele><time>2026-04-03T07:48:50Z</time></trkpt><trkpt lat="44.0560367" lon="8.1186006"><ele>44.0</ele><time>2026-04-03T07:48:51Z</time></trkpt><trkpt lat="44.0559911" lon="8.1183581"><ele>43.33333333333333</ele><time>2026-04-03T07:48:52Z</time></trkpt><trkpt lat="44.0559259" lon="8.1181337"><ele>42.666666666666664</ele><time>2026-04-03T07:48:52.999Z</time></trkpt><trkpt lat="44.0558394" lon="8.1179217"><ele>42.0</ele><time>2026-04-03T07:48:54Z</time></trkpt><trkpt lat="44.0557044" lon="8.1177098"><ele>41.666666666666664</ele><time>2026-04-03T07:48:55Z</time></trkpt><trkpt lat="44.055557" lon="8.1175066"><ele>41.33333333333333</ele><time>2026-04-03T07:48:55.999Z</time></trkpt><trkpt lat="44.0554067" lon="8.1173047"><ele>41.0</ele><time>2026-04-03T07:48:56.999Z</time></trkpt><trkpt lat="44.0552634" lon="8.1170861"><ele>42.0</ele><time>2026-04-03T07:48:58Z</time></trkpt><trkpt lat="44.055125" lon="8.1168635"><ele>43.0</ele><time>2026-04-03T07:48:59Z</time></trkpt><trkpt lat="44.0550036" lon="8.116611"><ele>44.0</ele><time>2026-04-03T07:48:59.999Z</time></trkpt><trkpt lat="44.0548907" lon="8.1163528"><ele>44.33333333333333</ele><time>2026-04-03T07:49:01Z</time></trkpt><trkpt lat="44.0547867" lon="8.1160862"><ele>44.666666666666664</ele><time>2026-04-03T07:49:01.999Z</time></trkpt><trkpt lat="44.0546943" lon="8.1158161"><ele>45.0</ele><time>2026-04-03T07:49:03Z</time></trkpt><trkpt lat="44.0546071" lon="8.1155327"><ele>45.333333333333336</ele><time>2026-04-03T07:49:04Z</time></trkpt><trkpt lat="44.0545208" lon="8.1152559"><ele>45.66666666666667</ele><time>2026-04-03T07:49:04.999Z</time></trkpt><trkpt lat="44.0544579" lon="8.1149718"><ele>46.0</ele><time>2026-04-03T07:49:05.999Z</time></trkpt><trkpt lat="44.0543977" lon="8.1146832"><ele>46.0</ele><time>2026-04-03T07:49:06.999Z</time></trkpt><trkpt lat="44.054334" lon="8.114389"><ele>46.0</ele><time>2026-04-03T07:49:08Z</time></trkpt><trkpt lat="44.0542799" lon="8.1140898"><ele>46.0</ele><time>2026-04-03T07:49:08.999Z</time></trkpt><trkpt lat="44.0542178" lon="8.1137966"><ele>46.5</ele><time>2026-04-03T07:49:09.999Z</time></trkpt><trkpt lat="44.0541456" lon="8.1135015"><ele>47.0</ele><time>2026-04-03T07:49:11Z</time></trkpt><trkpt lat="44.0540884" lon="8.1131889"><ele>47.0</ele><time>2026-04-03T07:49:12Z</time></trkpt><trkpt lat="44.0540265" lon="8.1128831"><ele>47.0</ele><time>2026-04-03T07:49:13Z</time></trkpt><trkpt lat="44.0539833" lon="8.1125596"><ele>45.5</ele><time>2026-04-03T07:49:14Z</time></trkpt><trkpt lat="44.0539452" lon="8.1122267"><ele>44.0</ele><time>2026-04-03T07:49:14.999Z</time></trkpt><trkpt lat="44.0539369" lon="8.1118996"><ele>44.0</ele><time>2026-04-03T07:49:16Z</time></trkpt><trkpt lat="44.0539403" lon="8.1115752"><ele>44.0</ele><time>2026-04-03T07:49:17Z</time></trkpt><trkpt lat="44.0539618" lon="8.1112435"><ele>44.0</ele><time>2026-04-03T07:49:17.999Z</time></trkpt><trkpt lat="44.0539973" lon="8.1109132"><ele>44.0</ele><time>2026-04-03T07:49:18.999Z</time></trkpt><trkpt lat="44.0540386" lon="8.1105828"><ele>45.0</ele><time>2026-04-03T07:49:19.999Z</time></trkpt><trkpt lat="44.0540795" lon="8.110241"><ele>46.0</ele><time>2026-04-03T07:49:21Z</time></trkpt><trkpt lat="44.0541156" lon="8.1098955"><ele>47.5</ele><time>2026-04-03T07:49:22Z</time></trkpt><trkpt lat="44.0541506" lon="8.109554"><ele>49.0</ele><time>2026-04-03T07:49:23Z</time></trkpt><trkpt lat="44.0541941" lon="8.109222"><ele>49.0</ele><time>2026-04-03T07:49:24Z</time></trkpt><trkpt lat="44.0542424" lon="8.1088884"><ele>49.0</ele><time>2026-04-03T07:49:25Z</time></trkpt><trkpt lat="44.0542803" lon="8.1085471"><ele>48.5</ele><time>2026-04-03T07:49:26Z</time></trkpt><trkpt lat="44.0543257" lon="8.108198"><ele>48.0</ele><time>2026-04-03T07:49:27Z</time></trkpt><trkpt lat="44.0543742" lon="8.1078557"><ele>48.0</ele><time>2026-04-03T07:49:28Z</time></trkpt><trkpt lat="44.0544113" lon="8.1075152"><ele>48.0</ele><time>2026-04-03T07:49:29Z</time></trkpt><trkpt lat="44.0544554" lon="8.1071955"><ele>48.0</ele><time>2026-04-03T07:49:30Z</time></trkpt><trkpt lat="44.0544973" lon="8.1068794"><ele>48.0</ele><time>2026-04-03T07:49:31Z</time></trkpt><trkpt lat="44.0545243" lon="8.1065602"><ele>48.5</ele><time>2026-04-03T07:49:31.999Z</time></trkpt><trkpt lat="44.0545441" lon="8.1062472"><ele>49.0</ele><time>2026-04-03T07:49:32.999Z</time></trkpt><trkpt lat="44.054544" lon="8.105928"><ele>50.5</ele><time>2026-04-03T07:49:33.999Z</time></trkpt><trkpt lat="44.0545239" lon="8.1055988"><ele>52.0</ele><time>2026-04-03T07:49:34.999Z</time></trkpt><trkpt lat="44.0545005" lon="8.1052604"><ele>52.0</ele><time>2026-04-03T07:49:36Z</time></trkpt><trkpt lat="44.0544703" lon="8.1049292"><ele>52.0</ele><time>2026-04-03T07:49:37Z</time></trkpt><trkpt lat="44.0544368" lon="8.104609"><ele>52.5</ele><time>2026-04-03T07:49:38Z</time></trkpt><trkpt lat="44.0544083" lon="8.104285"><ele>53.0</ele><time>2026-04-03T07:49:38.999Z</time></trkpt><trkpt lat="44.0543814" lon="8.1039586"><ele>54.0</ele><time>2026-04-03T07:49:39.999Z</time></trkpt><trkpt lat="44.0543561" lon="8.1036319"><ele>55.0</ele><time>2026-04-03T07:49:40.998Z</time></trkpt><trkpt lat="44.0543289" lon="8.1033063"><ele>56.0</ele><time>2026-04-03T07:49:41.999Z</time></trkpt><trkpt lat="44.0542966" lon="8.1029873"><ele>57.0</ele><time>2026-04-03T07:49:42.999Z</time></trkpt><trkpt lat="44.0542693" lon="8.1026937"><ele>58.0</ele><time>2026-04-03T07:49:43.999Z</time></trkpt><trkpt lat="44.0542565" lon="8.102415"><ele>58.0</ele><time>2026-04-03T07:49:44.998Z</time></trkpt><trkpt lat="44.0542391" lon="8.1021232"><ele>58.0</ele><time>2026-04-03T07:49:45.999Z</time></trkpt><trkpt lat="44.0542211" lon="8.1018458"><ele>58.0</ele><time>2026-04-03T07:49:46.998Z</time></trkpt><trkpt lat="44.0541995" lon="8.1015757"><ele>58.0</ele><time>2026-04-03T07:49:47.999Z</time></trkpt><trkpt lat="44.0541794" lon="8.1013056"><ele>58.0</ele><time>2026-04-03T07:49:48.999Z</time></trkpt><trkpt lat="44.0541537" lon="8.1010446"><ele>58.0</ele><time>2026-04-03T07:49:49.999Z</time></trkpt><trkpt lat="44.0541287" lon="8.1008008"><ele>58.666666666666664</ele><time>2026-04-03T07:49:50.999Z</time></trkpt><trkpt lat="44.0541085" lon="8.1005597"><ele>59.33333333333333</ele><time>2026-04-03T07:49:51.999Z</time></trkpt><trkpt lat="44.0540825" lon="8.1003164"><ele>60.0</ele><time>2026-04-03T07:49:52.999Z</time></trkpt><trkpt lat="44.054063" lon="8.1000865"><ele>60.25</ele><time>2026-04-03T07:49:53.999Z</time></trkpt><trkpt lat="44.0540512" lon="8.0998697"><ele>60.5</ele><time>2026-04-03T07:49:54.999Z</time></trkpt><trkpt lat="44.0540389" lon="8.0996686"><ele>60.75</ele><time>2026-04-03T07:49:55.999Z</time></trkpt><trkpt lat="44.0540263" lon="8.0994879"><ele>61.0</ele><time>2026-04-03T07:49:56.998Z</time></trkpt><trkpt lat="44.0540165" lon="8.0993128"><ele>61.0</ele><time>2026-04-03T07:49:57.998Z</time></trkpt><trkpt lat="44.0540079" lon="8.0991606"><ele>60.99999999999999</ele><time>2026-04-03T07:49:58.999Z</time></trkpt><trkpt lat="44.0540015" lon="8.0990222"><ele>60.99999999999999</ele><time>2026-04-03T07:49:59.999Z</time></trkpt><trkpt lat="44.0539916" lon="8.0988859"><ele>61.0</ele><time>2026-04-03T07:50:00.999Z</time></trkpt><trkpt lat="44.0539748" lon="8.0987521"><ele>61.0</ele><time>2026-04-03T07:50:01.998Z</time></trkpt><trkpt lat="44.0539664" lon="8.0986325"><ele>60.99999999999999</ele><time>2026-04-03T07:50:02.999Z</time></trkpt><trkpt lat="44.0539536" lon="8.0985181"><ele>61.0</ele><time>2026-04-03T07:50:03.998Z</time></trkpt><trkpt lat="44.0539417" lon="8.0984117"><ele>60.99999999999999</ele><time>2026-04-03T07:50:04.999Z</time></trkpt><trkpt lat="44.0539301" lon="8.0983188"><ele>60.99999999999999</ele><time>2026-04-03T07:50:05.999Z</time></trkpt><trkpt lat="44.0539164" lon="8.0982214"><ele>61.0</ele><time>2026-04-03T07:50:07.998Z</time></trkpt><trkpt lat="44.0538796" lon="8.0981482"><ele>60.99999999999999</ele><time>2026-04-03T08:03:34.997Z</time></trkpt><trkpt lat="44.0538747" lon="8.0980328"><ele>60.99999999999999</ele><time>2026-04-03T08:03:35.997Z</time></trkpt><trkpt lat="44.0538865" lon="8.0978681"><ele>61.75</ele><time>2026-04-03T08:03:36.997Z</time></trkpt><trkpt lat="44.0538857" lon="8.0976776"><ele>62.5</ele><time>2026-04-03T08:03:37.997Z</time></trkpt><trkpt lat="44.0538865" lon="8.0974715"><ele>63.25</ele><time>2026-04-03T08:03:38.996Z</time></trkpt><trkpt lat="44.0538874" lon="8.0972757"><ele>64.0</ele><time>2026-04-03T08:03:39.997Z</time></trkpt><trkpt lat="44.0538783" lon="8.0971078"><ele>64.0</ele><time>2026-04-03T08:03:40.997Z</time></trkpt><trkpt lat="44.0538614" lon="8.0969637"><ele>64.0</ele><time>2026-04-03T08:03:41.997Z</time></trkpt><trkpt lat="44.0538518" lon="8.0968274"><ele>64.0</ele><time>2026-04-03T08:03:42.997Z</time></trkpt><trkpt lat="44.0538293" lon="8.0967114"><ele>64.0</ele><time>2026-04-03T08:03:43.996Z</time></trkpt><trkpt lat="44.0538102" lon="8.0966166"><ele>64.0</ele><time>2026-04-03T08:03:44.996Z</time></trkpt><trkpt lat="44.053818" lon="8.0964896"><ele>63.99999999999999</ele><time>2026-04-03T08:03:46.996Z</time></trkpt><trkpt lat="44.0537931" lon="8.0964074"><ele>64.0</ele><time>2026-04-03T08:06:18.997Z</time></trkpt><trkpt lat="44.0539031" lon="8.0963566"><ele>64.0</ele><time>2026-04-03T08:06:22.997Z</time></trkpt><trkpt lat="44.0540141" lon="8.0962897"><ele>64.0</ele><time>2026-04-03T08:06:24.997Z</time></trkpt><trkpt lat="44.0540737" lon="8.0962521"><ele>63.99999999999999</ele><time>2026-04-03T08:06:25.996Z</time></trkpt><trkpt lat="44.0541369" lon="8.0962157"><ele>64.0</ele><time>2026-04-03T08:06:26.997Z</time></trkpt><trkpt lat="44.0542125" lon="8.0962046"><ele>64.4</ele><time>2026-04-03T08:06:27.997Z</time></trkpt><trkpt lat="44.0542907" lon="8.0961954"><ele>64.80000000000001</ele><time>2026-04-03T08:06:28.997Z</time></trkpt><trkpt lat="44.0543763" lon="8.0961945"><ele>65.19999999999999</ele><time>2026-04-03T08:06:29.997Z</time></trkpt><trkpt lat="44.0544704" lon="8.0962175"><ele>65.6</ele><time>2026-04-03T08:06:30.997Z</time></trkpt><trkpt lat="44.0545776" lon="8.096248"><ele>66.0</ele><time>2026-04-03T08:06:31.997Z</time></trkpt><trkpt lat="44.0547051" lon="8.0962827"><ele>66.0</ele><time>2026-04-03T08:06:32.996Z</time></trkpt><trkpt lat="44.0548353" lon="8.096305"><ele>66.0</ele><time>2026-04-03T08:06:33.996Z</time></trkpt><trkpt lat="44.054969" lon="8.0963298"><ele>66.0</ele><time>2026-04-03T08:06:34.997Z</time></trkpt><trkpt lat="44.0550822" lon="8.0963406"><ele>66.0</ele><time>2026-04-03T08:06:35.996Z</time></trkpt><trkpt lat="44.0551987" lon="8.0963696"><ele>66.2</ele><time>2026-04-03T08:06:36.997Z</time></trkpt><trkpt lat="44.055298" lon="8.0963883"><ele>66.39999999999999</ele><time>2026-04-03T08:06:37.997Z</time></trkpt><trkpt lat="44.0554009" lon="8.0964043"><ele>66.6</ele><time>2026-04-03T08:06:38.997Z</time></trkpt><trkpt lat="44.0555078" lon="8.0964338"><ele>66.8</ele><time>2026-04-03T08:06:39.996Z</time></trkpt><trkpt lat="44.0555993" lon="8.096454"><ele>67.0</ele><time>2026-04-03T08:06:40.997Z</time></trkpt><trkpt lat="44.0556849" lon="8.0964754"><ele>67.0</ele><time>2026-04-03T08:06:41.997Z</time></trkpt><trkpt lat="44.0557671" lon="8.096496"><ele>67.0</ele><time>2026-04-03T08:06:42.997Z</time></trkpt><trkpt lat="44.0558692" lon="8.0965348"><ele>67.0</ele><time>2026-04-03T08:06:44.997Z</time></trkpt><trkpt lat="44.0559541" lon="8.0965245"><ele>67.0</ele><time>2026-04-03T08:06:48.997Z</time></trkpt><trkpt lat="44.0560325" lon="8.0963727"><ele>67.0</ele><time>2026-04-03T08:06:50.996Z</time></trkpt><trkpt lat="44.0560681" lon="8.0962471"><ele>67.8</ele><time>2026-04-03T08:06:51.997Z</time></trkpt><trkpt lat="44.0561137" lon="8.0961291"><ele>68.6</ele><time>2026-04-03T08:06:52.997Z</time></trkpt><trkpt lat="44.0561547" lon="8.0960204"><ele>69.39999999999999</ele><time>2026-04-03T08:06:53.997Z</time></trkpt><trkpt lat="44.0561945" lon="8.0959248"><ele>70.2</ele><time>2026-04-03T08:06:54.996Z</time></trkpt><trkpt lat="44.0562923" lon="8.0958481"><ele>71.0</ele><time>2026-04-03T08:06:56.996Z</time></trkpt><trkpt lat="44.0564198" lon="8.095779"><ele>72.39999999999999</ele><time>2026-04-03T08:06:58.997Z</time></trkpt><trkpt lat="44.0565146" lon="8.0957179"><ele>73.8</ele><time>2026-04-03T08:06:59.997Z</time></trkpt><trkpt lat="44.0566127" lon="8.0956596"><ele>75.19999999999999</ele><time>2026-04-03T08:07:00.997Z</time></trkpt><trkpt lat="44.0567001" lon="8.0955849"><ele>76.6</ele><time>2026-04-03T08:07:01.997Z</time></trkpt><trkpt lat="44.0567868" lon="8.0954972"><ele>78.0</ele><time>2026-04-03T08:07:02.997Z</time></trkpt><trkpt lat="44.0568773" lon="8.0953979"><ele>80.8</ele><time>2026-04-03T08:07:03.997Z</time></trkpt><trkpt lat="44.0569543" lon="8.0952865"><ele>83.6</ele><time>2026-04-03T08:07:04.997Z</time></trkpt><trkpt lat="44.0570235" lon="8.0951706"><ele>86.39999999999999</ele><time>2026-04-03T08:07:05.997Z</time></trkpt><trkpt lat="44.0570761" lon="8.0950621"><ele>89.19999999999999</ele><time>2026-04-03T08:07:06.997Z</time></trkpt><trkpt lat="44.0571224" lon="8.0949555"><ele>92.0</ele><time>2026-04-03T08:07:07.997Z</time></trkpt><trkpt lat="44.0571618" lon="8.0948572"><ele>91.33333333333334</ele><time>2026-04-03T08:07:08.996Z</time></trkpt><trkpt lat="44.0572052" lon="8.0947783"><ele>90.66666666666667</ele><time>2026-04-03T08:07:09.997Z</time></trkpt><trkpt lat="44.0572944" lon="8.0946885"><ele>90.0</ele><time>2026-04-03T08:07:11.996Z</time></trkpt><trkpt lat="44.0573625" lon="8.0946735"><ele>89.33333333333333</ele><time>2026-04-03T08:07:12.997Z</time></trkpt><trkpt lat="44.0574278" lon="8.0946611"><ele>88.66666666666666</ele><time>2026-04-03T08:07:13.996Z</time></trkpt><trkpt lat="44.0575025" lon="8.0946558"><ele>88.0</ele><time>2026-04-03T08:07:14.997Z</time></trkpt><trkpt lat="44.0575859" lon="8.0946628"><ele>88.0</ele><time>2026-04-03T08:07:15.997Z</time></trkpt><trkpt lat="44.0576748" lon="8.094666"><ele>88.0</ele><time>2026-04-03T08:07:16.996Z</time></trkpt><trkpt lat="44.0577625" lon="8.0946565"><ele>88.0</ele><time>2026-04-03T08:07:17.996Z</time></trkpt><trkpt lat="44.0578383" lon="8.0946226"><ele>88.0</ele><time>2026-04-03T08:07:18.996Z</time></trkpt><trkpt lat="44.0578942" lon="8.0945387"><ele>88.0</ele><time>2026-04-03T08:07:19.996Z</time></trkpt><trkpt lat="44.0579421" lon="8.0944287"><ele>88.0</ele><time>2026-04-03T08:07:20.997Z</time></trkpt><trkpt lat="44.0580079" lon="8.0943542"><ele>88.0</ele><time>2026-04-03T08:07:21.997Z</time></trkpt><trkpt lat="44.0580757" lon="8.0943021"><ele>88.0</ele><time>2026-04-03T08:07:22.997Z</time></trkpt><trkpt lat="44.0581543" lon="8.0942714"><ele>88.0</ele><time>2026-04-03T08:07:23.997Z</time></trkpt><trkpt lat="44.0582505" lon="8.094254"><ele>88.0</ele><time>2026-04-03T08:07:24.997Z</time></trkpt><trkpt lat="44.0583377" lon="8.0942288"><ele>88.0</ele><time>2026-04-03T08:07:25.996Z</time></trkpt><trkpt lat="44.0584236" lon="8.0941897"><ele>88.0</ele><time>2026-04-03T08:07:26.997Z</time></trkpt><trkpt lat="44.0585007" lon="8.0941325"><ele>88.66666666666666</ele><time>2026-04-03T08:07:27.997Z</time></trkpt><trkpt lat="44.0585722" lon="8.0940714"><ele>89.33333333333333</ele><time>2026-04-03T08:07:28.996Z</time></trkpt><trkpt lat="44.0586322" lon="8.0939703"><ele>90.0</ele><time>2026-04-03T08:07:29.997Z</time></trkpt><trkpt lat="44.0586944" lon="8.0938747"><ele>90.66666666666667</ele><time>2026-04-03T08:07:30.997Z</time></trkpt><trkpt lat="44.0587628" lon="8.0938135"><ele>91.33333333333334</ele><time>2026-04-03T08:07:31.997Z</time></trkpt><trkpt lat="44.0588404" lon="8.0937564"><ele>92.0</ele><time>2026-04-03T08:07:32.996Z</time></trkpt><trkpt lat="44.0589084" lon="8.0936908"><ele>92.0</ele><time>2026-04-03T08:07:33.997Z</time></trkpt><trkpt lat="44.058991" lon="8.0936446"><ele>92.0</ele><time>2026-04-03T08:07:34.997Z</time></trkpt><trkpt lat="44.0590671" lon="8.0936048"><ele>92.0</ele><time>2026-04-03T08:07:35.997Z</time></trkpt><trkpt lat="44.0591468" lon="8.0935982"><ele>92.0</ele><time>2026-04-03T08:07:36.997Z</time></trkpt><trkpt lat="44.0592324" lon="8.0935993"><ele>92.0</ele><time>2026-04-03T08:07:37.997Z</time></trkpt><trkpt lat="44.059315" lon="8.0936117"><ele>92.0</ele><time>2026-04-03T08:07:38.997Z</time></trkpt><trkpt lat="44.0594081" lon="8.0936357"><ele>94.66666666666667</ele><time>2026-04-03T08:07:39.997Z</time></trkpt><trkpt lat="44.0594992" lon="8.0936625"><ele>97.33333333333334</ele><time>2026-04-03T08:07:40.997Z</time></trkpt><trkpt lat="44.05958" lon="8.0936939"><ele>100.0</ele><time>2026-04-03T08:07:41.997Z</time></trkpt><trkpt lat="44.0596488" lon="8.0937405"><ele>102.66666666666667</ele><time>2026-04-03T08:07:42.997Z</time></trkpt><trkpt lat="44.0597204" lon="8.0938042"><ele>105.33333333333333</ele><time>2026-04-03T08:07:43.997Z</time></trkpt><trkpt lat="44.0597709" lon="8.0938826"><ele>108.0</ele><time>2026-04-03T08:07:44.997Z</time></trkpt><trkpt lat="44.0598245" lon="8.0939616"><ele>108.0</ele><time>2026-04-03T08:07:45.997Z</time></trkpt><trkpt lat="44.0598935" lon="8.0940286"><ele>108.0</ele><time>2026-04-03T08:07:46.997Z</time></trkpt><trkpt lat="44.0599644" lon="8.0940605"><ele>108.0</ele><time>2026-04-03T08:07:47.996Z</time></trkpt><trkpt lat="44.0600302" lon="8.0940998"><ele>108.0</ele><time>2026-04-03T08:07:48.996Z</time></trkpt><trkpt lat="44.0600999" lon="8.094133"><ele>108.0</ele><time>2026-04-03T08:07:49.997Z</time></trkpt><trkpt lat="44.0601662" lon="8.0941636"><ele>108.0</ele><time>2026-04-03T08:07:50.997Z</time></trkpt><trkpt lat="44.0602329" lon="8.0942048"><ele>108.0</ele><time>2026-04-03T08:07:51.997Z</time></trkpt><trkpt lat="44.0603542" lon="8.0942954"><ele>109.5</ele><time>2026-04-03T08:07:53.997Z</time></trkpt><trkpt lat="44.0604293" lon="8.0943345"><ele>111.0</ele><time>2026-04-03T08:07:54.997Z</time></trkpt><trkpt lat="44.0605197" lon="8.094395"><ele>112.5</ele><time>2026-04-03T08:07:55.997Z</time></trkpt><trkpt lat="44.0605987" lon="8.0944561"><ele>114.0</ele><time>2026-04-03T08:07:56.997Z</time></trkpt><trkpt lat="44.0606666" lon="8.0945118"><ele>115.5</ele><time>2026-04-03T08:07:57.996Z</time></trkpt><trkpt lat="44.0607474" lon="8.0945597"><ele>117.0</ele><time>2026-04-03T08:08:08.997Z</time></trkpt><trkpt lat="44.0608145" lon="8.0946048"><ele>119.33333333333333</ele><time>2026-04-03T08:08:11.996Z</time></trkpt><trkpt lat="44.0608908" lon="8.0946805"><ele>121.66666666666666</ele><time>2026-04-03T08:08:13.996Z</time></trkpt><trkpt lat="44.0609543" lon="8.0947385"><ele>124.0</ele><time>2026-04-03T08:08:14.997Z</time></trkpt><trkpt lat="44.0610228" lon="8.0947992"><ele>126.33333333333333</ele><time>2026-04-03T08:08:15.996Z</time></trkpt><trkpt lat="44.0610826" lon="8.0948406"><ele>128.66666666666666</ele><time>2026-04-03T08:08:16.996Z</time></trkpt><trkpt lat="44.0611846" lon="8.094885"><ele>131.0</ele><time>2026-04-03T08:08:18.997Z</time></trkpt><trkpt lat="44.061271" lon="8.0948624"><ele>131.0</ele><time>2026-04-03T08:08:20.996Z</time></trkpt><trkpt lat="44.0613619" lon="8.0948074"><ele>131.0</ele><time>2026-04-03T08:08:22.996Z</time></trkpt><trkpt lat="44.0614683" lon="8.0948039"><ele>131.0</ele><time>2026-04-03T08:08:24.996Z</time></trkpt><trkpt lat="44.0615401" lon="8.094828"><ele>131.0</ele><time>2026-04-03T08:08:25.997Z</time></trkpt><trkpt lat="44.061608" lon="8.0948616"><ele>131.0</ele><time>2026-04-03T08:08:26.997Z</time></trkpt><trkpt lat="44.0616866" lon="8.0949257"><ele>131.0</ele><time>2026-04-03T08:08:27.997Z</time></trkpt><trkpt lat="44.0617493" lon="8.0949811"><ele>133.8</ele><time>2026-04-03T08:08:28.997Z</time></trkpt><trkpt lat="44.0618016" lon="8.0950411"><ele>136.6</ele><time>2026-04-03T08:08:30.996Z</time></trkpt><trkpt lat="44.0617839" lon="8.0951331"><ele>139.4</ele><time>2026-04-03T08:08:33.997Z</time></trkpt><trkpt lat="44.061856" lon="8.095051"><ele>142.2</ele><time>2026-04-03T08:10:54.996Z</time></trkpt><trkpt lat="44.0619479" lon="8.0949438"><ele>145.0</ele><time>2026-04-03T08:10:56.996Z</time></trkpt><trkpt lat="44.0620221" lon="8.0948278"><ele>147.2</ele><time>2026-04-03T08:10:58.996Z</time></trkpt><trkpt lat="44.0620767" lon="8.0947334"><ele>149.4</ele><time>2026-04-03T08:11:01.996Z</time></trkpt><trkpt lat="44.0621224" lon="8.0946525"><ele>151.6</ele><time>2026-04-03T08:11:03.996Z</time></trkpt><trkpt lat="44.0621786" lon="8.0945599"><ele>153.8</ele><time>2026-04-03T08:11:05.995Z</time></trkpt><trkpt lat="44.0622394" lon="8.0944173"><ele>156.0</ele><time>2026-04-03T08:11:07.996Z</time></trkpt><trkpt lat="44.0623002" lon="8.0942888"><ele>156.0</ele><time>2026-04-03T08:11:09.995Z</time></trkpt><trkpt lat="44.0623665" lon="8.0941848"><ele>156.0</ele><time>2026-04-03T08:11:11.995Z</time></trkpt><trkpt lat="44.0624099" lon="8.0940824"><ele>156.0</ele><time>2026-04-03T08:11:13.996Z</time></trkpt><trkpt lat="44.0624471" lon="8.0940081"><ele>156.0</ele><time>2026-04-03T08:11:15.996Z</time></trkpt><trkpt lat="44.0625003" lon="8.0939523"><ele>156.0</ele><time>2026-04-03T08:11:17.996Z</time></trkpt><trkpt lat="44.0625916" lon="8.0939289"><ele>156.0</ele><time>2026-04-03T08:11:19.996Z</time></trkpt><trkpt lat="44.0626798" lon="8.0939083"><ele>157.66666666666666</ele><time>2026-04-03T08:11:21.996Z</time></trkpt><trkpt lat="44.0627435" lon="8.0937923"><ele>159.33333333333334</ele><time>2026-04-03T08:12:19.996Z</time></trkpt><trkpt lat="44.0627242" lon="8.0937066"><ele>161.0</ele><time>2026-04-03T08:12:22.995Z</time></trkpt><trkpt lat="44.0626901" lon="8.0936159"><ele>162.66666666666669</ele><time>2026-04-03T08:12:25.996Z</time></trkpt><trkpt lat="44.0626786" lon="8.0935236"><ele>164.33333333333334</ele><time>2026-04-03T08:12:29.996Z</time></trkpt><trkpt lat="44.0626849" lon="8.0934059"><ele>166.0</ele><time>2026-04-03T08:12:35.996Z</time></trkpt><trkpt lat="44.0626209" lon="8.0933374"><ele>168.0</ele><time>2026-04-03T08:12:41.995Z</time></trkpt><trkpt lat="44.0625856" lon="8.0932548"><ele>170.0</ele><time>2026-04-03T08:12:44.996Z</time></trkpt><trkpt lat="44.0625326" lon="8.0931657"><ele>172.0</ele><time>2026-04-03T08:12:55.996Z</time></trkpt><trkpt lat="44.0625077" lon="8.0930718"><ele>174.0</ele><time>2026-04-03T08:12:58.996Z</time></trkpt><trkpt lat="44.062476" lon="8.0929871"><ele>176.0</ele><time>2026-04-03T08:13:02.995Z</time></trkpt><trkpt lat="44.0624323" lon="8.092898"><ele>178.0</ele><time>2026-04-03T08:13:05.996Z</time></trkpt><trkpt lat="44.062404" lon="8.0928053"><ele>180.0</ele><time>2026-04-03T08:13:07.996Z</time></trkpt><trkpt lat="44.0623904" lon="8.092682"><ele>181.28571428571428</ele><time>2026-04-03T08:13:10.996Z</time></trkpt><trkpt lat="44.0623861" lon="8.0925832"><ele>182.57142857142858</ele><time>2026-04-03T08:13:13.996Z</time></trkpt><trkpt lat="44.06236" lon="8.0925025"><ele>183.85714285714286</ele><time>2026-04-03T08:13:17.996Z</time></trkpt><trkpt lat="44.0623736" lon="8.0924009"><ele>185.14285714285714</ele><time>2026-04-03T08:13:28.995Z</time></trkpt><trkpt lat="44.0624123" lon="8.0922898"><ele>186.42857142857144</ele><time>2026-04-03T08:13:31.996Z</time></trkpt><trkpt lat="44.0624391" lon="8.0922023"><ele>187.71428571428572</ele><time>2026-04-03T08:13:33.996Z</time></trkpt><trkpt lat="44.0624697" lon="8.0921113"><ele>189.0</ele><time>2026-04-03T08:13:35.996Z</time></trkpt><trkpt lat="44.0624875" lon="8.0919941"><ele>189.28571428571428</ele><time>2026-04-03T08:13:37.996Z</time></trkpt><trkpt lat="44.0624787" lon="8.0918961"><ele>189.57142857142856</ele><time>2026-04-03T08:13:39.996Z</time></trkpt><trkpt lat="44.0624531" lon="8.0918"><ele>189.85714285714286</ele><time>2026-04-03T08:13:43.996Z</time></trkpt><trkpt lat="44.062476" lon="8.0917158"><ele>190.14285714285714</ele><time>2026-04-03T08:13:51.995Z</time></trkpt><trkpt lat="44.0625128" lon="8.0916201"><ele>190.42857142857142</ele><time>2026-04-03T08:13:53.994Z</time></trkpt><trkpt lat="44.0625326" lon="8.0915205"><ele>190.71428571428572</ele><time>2026-04-03T08:13:55.994Z</time></trkpt><trkpt lat="44.0625408" lon="8.0914322"><ele>191.0</ele><time>2026-04-03T08:13:58.995Z</time></trkpt><trkpt lat="44.0625872" lon="8.0913414"><ele>192.71428571428572</ele><time>2026-04-03T08:14:02.995Z</time></trkpt><trkpt lat="44.0625931" lon="8.0912363"><ele>194.42857142857142</ele><time>2026-04-03T08:14:05.995Z</time></trkpt><trkpt lat="44.0625899" lon="8.0911482"><ele>196.14285714285714</ele><time>2026-04-03T08:14:07.995Z</time></trkpt><trkpt lat="44.0625786" lon="8.0910398"><ele>197.85714285714286</ele><time>2026-04-03T08:14:09.994Z</time></trkpt><trkpt lat="44.0625865" lon="8.0909173"><ele>199.57142857142856</ele><time>2026-04-03T08:14:11.995Z</time></trkpt><trkpt lat="44.0626094" lon="8.0908281"><ele>201.28571428571428</ele><time>2026-04-03T08:14:13.995Z</time></trkpt><trkpt lat="44.0626099" lon="8.0907392"><ele>203.0</ele><time>2026-04-03T08:14:15.994Z</time></trkpt><trkpt lat="44.0625486" lon="8.0906894"><ele>204.14285714285714</ele><time>2026-04-03T08:14:18.995Z</time></trkpt><trkpt lat="44.0624869" lon="8.0906595"><ele>205.28571428571428</ele><time>2026-04-03T08:14:20.994Z</time></trkpt><trkpt lat="44.0624401" lon="8.0905915"><ele>206.42857142857144</ele><time>2026-04-03T08:14:22.994Z</time></trkpt><trkpt lat="44.0624256" lon="8.0905054"><ele>207.57142857142856</ele><time>2026-04-03T08:14:25.994Z</time></trkpt><trkpt lat="44.0624432" lon="8.0904163"><ele>208.71428571428572</ele><time>2026-04-03T08:14:27.995Z</time></trkpt><trkpt lat="44.0624479" lon="8.0903246"><ele>209.85714285714286</ele><time>2026-04-03T08:14:29.995Z</time></trkpt><trkpt lat="44.062449" lon="8.090202"><ele>211.0</ele><time>2026-04-03T08:14:32.994Z</time></trkpt><trkpt lat="44.0624144" lon="8.0901207"><ele>213.14285714285714</ele><time>2026-04-03T08:14:36.995Z</time></trkpt><trkpt lat="44.0624045" lon="8.0900334"><ele>215.28571428571428</ele><time>2026-04-03T08:14:41.995Z</time></trkpt><trkpt lat="44.062387" lon="8.0899337"><ele>217.42857142857144</ele><time>2026-04-03T08:14:45.995Z</time></trkpt><trkpt lat="44.062325" lon="8.0898944"><ele>219.57142857142856</ele><time>2026-04-03T08:14:50.995Z</time></trkpt><trkpt lat="44.0622585" lon="8.089911"><ele>221.7142857142857</ele><time>2026-04-03T08:14:54.995Z</time></trkpt><trkpt lat="44.0621961" lon="8.0898377"><ele>223.85714285714286</ele><time>2026-04-03T08:19:58.994Z</time></trkpt><trkpt lat="44.0621845" lon="8.0897378"><ele>226.0</ele><time>2026-04-03T08:20:01.994Z</time></trkpt><trkpt lat="44.0621485" lon="8.0896655"><ele>228.14285714285717</ele><time>2026-04-03T08:20:05.993Z</time></trkpt><trkpt lat="44.062064" lon="8.0896241"><ele>230.28571428571428</ele><time>2026-04-03T08:20:08.994Z</time></trkpt><trkpt lat="44.0619876" lon="8.0896639"><ele>232.42857142857144</ele><time>2026-04-03T08:20:11.994Z</time></trkpt><trkpt lat="44.0619267" lon="8.0897035"><ele>234.57142857142858</ele><time>2026-04-03T08:20:14.993Z</time></trkpt><trkpt lat="44.0618696" lon="8.0897726"><ele>236.71428571428572</ele><time>2026-04-03T08:20:18.994Z</time></trkpt><trkpt lat="44.061801" lon="8.0897826"><ele>238.85714285714286</ele><time>2026-04-03T08:20:28.993Z</time></trkpt><trkpt lat="44.061743" lon="8.0897433"><ele>241.0</ele><time>2026-04-03T08:20:31.993Z</time></trkpt><trkpt lat="44.0617044" lon="8.0896484"><ele>241.0</ele><time>2026-04-03T08:20:35.993Z</time></trkpt><trkpt lat="44.0617621" lon="8.089559"><ele>241.00000000000003</ele><time>2026-04-03T08:20:52.994Z</time></trkpt><trkpt lat="44.0617651" lon="8.0894606"><ele>241.0</ele><time>2026-04-03T08:21:11.994Z</time></trkpt><trkpt lat="44.0617901" lon="8.0893787"><ele>241.0</ele><time>2026-04-03T08:21:15.994Z</time></trkpt><trkpt lat="44.0618124" lon="8.089295"><ele>241.00000000000003</ele><time>2026-04-03T08:21:20.993Z</time></trkpt><trkpt lat="44.0617578" lon="8.0892269"><ele>241.0</ele><time>2026-04-03T08:21:25.994Z</time></trkpt><trkpt lat="44.0617312" lon="8.0891421"><ele>241.0</ele><time>2026-04-03T08:21:30.994Z</time></trkpt><trkpt lat="44.0617332" lon="8.0890524"><ele>243.0</ele><time>2026-04-03T08:21:36.994Z</time></trkpt><trkpt lat="44.0617427" lon="8.0889388"><ele>245.00000000000003</ele><time>2026-04-03T08:21:41.994Z</time></trkpt><trkpt lat="44.0617754" lon="8.0888412"><ele>247.0</ele><time>2026-04-03T08:21:50.993Z</time></trkpt><trkpt lat="44.0617937" lon="8.0887503"><ele>249.0</ele><time>2026-04-03T08:21:56.994Z</time></trkpt><trkpt lat="44.061838" lon="8.0886807"><ele>251.00000000000003</ele><time>2026-04-03T08:22:33.994Z</time></trkpt><trkpt lat="44.0618643" lon="8.0885955"><ele>253.0</ele><time>2026-04-03T08:22:37.994Z</time></trkpt><trkpt lat="44.0618635" lon="8.0884875"><ele>255.0</ele><time>2026-04-03T08:22:40.993Z</time></trkpt><trkpt lat="44.0618599" lon="8.0883937"><ele>255.0</ele><time>2026-04-03T08:22:43.993Z</time></trkpt><trkpt lat="44.0618445" lon="8.0882695"><ele>255.0</ele><time>2026-04-03T08:23:55.992Z</time></trkpt><trkpt lat="44.0618497" lon="8.0881445"><ele>255.0</ele><time>2026-04-03T08:23:57.993Z</time></trkpt><trkpt lat="44.0618328" lon="8.0880531"><ele>255.0</ele><time>2026-04-03T08:24:00.992Z</time></trkpt><trkpt lat="44.0618055" lon="8.0879443"><ele>255.0</ele><time>2026-04-03T08:24:05.993Z</time></trkpt><trkpt lat="44.0617417" lon="8.0879901"><ele>255.0</ele><time>2026-04-03T08:24:09.993Z</time></trkpt><trkpt lat="44.0616769" lon="8.0880552"><ele>255.2857142857143</ele><time>2026-04-03T08:24:12.992Z</time></trkpt><trkpt lat="44.0617094" lon="8.0879686"><ele>255.5714285714286</ele><time>2026-04-03T08:24:54.993Z</time></trkpt><trkpt lat="44.0617118" lon="8.0878415"><ele>255.85714285714286</ele><time>2026-04-03T08:24:57.993Z</time></trkpt><trkpt lat="44.0617128" lon="8.0877378"><ele>256.14285714285717</ele><time>2026-04-03T08:24:59.992Z</time></trkpt><trkpt lat="44.0617119" lon="8.0876364"><ele>256.42857142857144</ele><time>2026-04-03T08:25:01.993Z</time></trkpt><trkpt lat="44.0617206" lon="8.0875425"><ele>256.7142857142857</ele><time>2026-04-03T08:25:03.993Z</time></trkpt><trkpt lat="44.0617113" lon="8.0874536"><ele>257.0</ele><time>2026-04-03T08:25:05.993Z</time></trkpt><trkpt lat="44.0617026" lon="8.0873638"><ele>257.2857142857143</ele><time>2026-04-03T08:25:07.993Z</time></trkpt><trkpt lat="44.0616724" lon="8.0872487"><ele>257.57142857142856</ele><time>2026-04-03T08:25:10.993Z</time></trkpt><trkpt lat="44.0616416" lon="8.0871617"><ele>257.8571428571429</ele><time>2026-04-03T08:25:12.993Z</time></trkpt><trkpt lat="44.0616168" lon="8.0870725"><ele>258.1428571428571</ele><time>2026-04-03T08:25:14.993Z</time></trkpt><trkpt lat="44.0616324" lon="8.0869841"><ele>258.42857142857144</ele><time>2026-04-03T08:25:16.993Z</time></trkpt><trkpt lat="44.0616633" lon="8.0868941"><ele>258.7142857142857</ele><time>2026-04-03T08:25:18.992Z</time></trkpt><trkpt lat="44.0616741" lon="8.0867982"><ele>259.0</ele><time>2026-04-03T08:25:21.993Z</time></trkpt><trkpt lat="44.0616783" lon="8.0866771"><ele>259.14285714285717</ele><time>2026-04-03T08:25:25.992Z</time></trkpt><trkpt lat="44.0616568" lon="8.0865882"><ele>259.2857142857143</ele><time>2026-04-03T08:25:28.993Z</time></trkpt><trkpt lat="44.0616277" lon="8.0864763"><ele>259.42857142857144</ele><time>2026-04-03T08:25:31.992Z</time></trkpt><trkpt lat="44.0616" lon="8.0863975"><ele>259.57142857142856</ele><time>2026-04-03T08:25:33.992Z</time></trkpt><trkpt lat="44.061554" lon="8.0863317"><ele>259.7142857142857</ele><time>2026-04-03T08:25:36.992Z</time></trkpt><trkpt lat="44.061486" lon="8.0862653"><ele>259.8571428571429</ele><time>2026-04-03T08:25:40.993Z</time></trkpt><trkpt lat="44.061467" lon="8.0861723"><ele>260.0</ele><time>2026-04-03T08:25:43.993Z</time></trkpt><trkpt lat="44.0614406" lon="8.086092"><ele>260.0</ele><time>2026-04-03T08:25:46.993Z</time></trkpt><trkpt lat="44.0614363" lon="8.086004"><ele>260.0</ele><time>2026-04-03T08:25:48.993Z</time></trkpt><trkpt lat="44.0615009" lon="8.0859505"><ele>260.0</ele><time>2026-04-03T08:25:53.992Z</time></trkpt><trkpt lat="44.0615633" lon="8.0859161"><ele>260.0</ele><time>2026-04-03T08:25:56.993Z</time></trkpt><trkpt lat="44.0615789" lon="8.0858025"><ele>260.0</ele><time>2026-04-03T08:25:58.993Z</time></trkpt><trkpt lat="44.0615766" lon="8.0856627"><ele>260.0</ele><time>2026-04-03T08:26:00.993Z</time></trkpt><trkpt lat="44.0615819" lon="8.0855587"><ele>261.5</ele><time>2026-04-03T08:26:02.992Z</time></trkpt><trkpt lat="44.0615903" lon="8.0854444"><ele>263.0</ele><time>2026-04-03T08:26:04.992Z</time></trkpt><trkpt lat="44.0615921" lon="8.0853321"><ele>264.5</ele><time>2026-04-03T08:26:06.993Z</time></trkpt><trkpt lat="44.0616029" lon="8.0852438"><ele>266.0</ele><time>2026-04-03T08:26:09.992Z</time></trkpt><trkpt lat="44.0615865" lon="8.0851368"><ele>267.5</ele><time>2026-04-03T08:26:12.993Z</time></trkpt><trkpt lat="44.0615762" lon="8.0850419"><ele>269.0</ele><time>2026-04-03T08:26:15.992Z</time></trkpt><trkpt lat="44.0615655" lon="8.0849267"><ele>270.1666666666667</ele><time>2026-04-03T08:26:18.993Z</time></trkpt><trkpt lat="44.0615741" lon="8.0848272"><ele>271.33333333333337</ele><time>2026-04-03T08:26:21.993Z</time></trkpt><trkpt lat="44.0615905" lon="8.0847397"><ele>272.5</ele><time>2026-04-03T08:26:24.992Z</time></trkpt><trkpt lat="44.0615845" lon="8.084647"><ele>273.6666666666667</ele><time>2026-04-03T08:26:29.993Z</time></trkpt><trkpt lat="44.0615582" lon="8.0845331"><ele>274.8333333333333</ele><time>2026-04-03T08:26:33.992Z</time></trkpt><trkpt lat="44.0615606" lon="8.0844171"><ele>276.0</ele><time>2026-04-03T08:26:36.992Z</time></trkpt><trkpt lat="44.0615384" lon="8.0843081"><ele>276.0</ele><time>2026-04-03T08:26:47.993Z</time></trkpt><trkpt lat="44.0615012" lon="8.0842015"><ele>276.0</ele><time>2026-04-03T08:26:49.993Z</time></trkpt><trkpt lat="44.0614639" lon="8.0841027"><ele>276.0</ele><time>2026-04-03T08:26:51.992Z</time></trkpt><trkpt lat="44.0614343" lon="8.0840143"><ele>276.0</ele><time>2026-04-03T08:26:54.992Z</time></trkpt><trkpt lat="44.0613434" lon="8.0839985"><ele>276.0</ele><time>2026-04-03T08:28:57.991Z</time></trkpt><trkpt lat="44.0612557" lon="8.0839962"><ele>276.0</ele><time>2026-04-03T08:28:59.992Z</time></trkpt><trkpt lat="44.0611541" lon="8.0840152"><ele>276.0</ele><time>2026-04-03T08:29:01.992Z</time></trkpt><trkpt lat="44.0610864" lon="8.0840725"><ele>276.0</ele><time>2026-04-03T08:29:03.991Z</time></trkpt><trkpt lat="44.0610305" lon="8.0841559"><ele>276.0</ele><time>2026-04-03T08:29:05.991Z</time></trkpt><trkpt lat="44.0609623" lon="8.08422"><ele>276.0</ele><time>2026-04-03T08:29:08.991Z</time></trkpt><trkpt lat="44.0609207" lon="8.0843304"><ele>276.0</ele><time>2026-04-03T08:29:11.992Z</time></trkpt><trkpt lat="44.0608478" lon="8.0843791"><ele>276.0</ele><time>2026-04-03T08:29:14.992Z</time></trkpt><trkpt lat="44.0607767" lon="8.0843817"><ele>270.3333333333333</ele><time>2026-04-03T08:29:17.991Z</time></trkpt><trkpt lat="44.0607255" lon="8.0844372"><ele>264.6666666666667</ele><time>2026-04-03T08:29:19.991Z</time></trkpt><trkpt lat="44.0606617" lon="8.0845169"><ele>259.0</ele><time>2026-04-03T08:29:22.991Z</time></trkpt><trkpt lat="44.0606218" lon="8.0845944"><ele>253.33333333333334</ele><time>2026-04-03T08:29:24.992Z</time></trkpt><trkpt lat="44.0605942" lon="8.084693"><ele>247.66666666666669</ele><time>2026-04-03T08:29:28.991Z</time></trkpt><trkpt lat="44.0605751" lon="8.0848102"><ele>242.0</ele><time>2026-04-03T08:29:30.992Z</time></trkpt><trkpt lat="44.0605118" lon="8.0849435"><ele>242.00000000000003</ele><time>2026-04-03T08:29:32.991Z</time></trkpt><trkpt lat="44.0604721" lon="8.0850264"><ele>242.0</ele><time>2026-04-03T08:29:33.992Z</time></trkpt><trkpt lat="44.0604204" lon="8.085161"><ele>242.0</ele><time>2026-04-03T08:29:35.992Z</time></trkpt><trkpt lat="44.0603745" lon="8.0852715"><ele>242.0</ele><time>2026-04-03T08:29:37.991Z</time></trkpt><trkpt lat="44.0603451" lon="8.0853685"><ele>242.00000000000003</ele><time>2026-04-03T08:29:38.991Z</time></trkpt><trkpt lat="44.0603091" lon="8.085477"><ele>242.0</ele><time>2026-04-03T08:29:39.992Z</time></trkpt><trkpt lat="44.0602713" lon="8.0855651"><ele>242.00000000000003</ele><time>2026-04-03T08:29:40.991Z</time></trkpt><trkpt lat="44.0602202" lon="8.0857032"><ele>242.0</ele><time>2026-04-03T08:29:42.991Z</time></trkpt><trkpt lat="44.0601857" lon="8.0857799"><ele>242.0</ele><time>2026-04-03T08:29:43.991Z</time></trkpt><trkpt lat="44.0601564" lon="8.085879"><ele>242.0</ele><time>2026-04-03T08:29:44.992Z</time></trkpt><trkpt lat="44.0601324" lon="8.085981"><ele>242.00000000000003</ele><time>2026-04-03T08:29:45.992Z</time></trkpt><trkpt lat="44.060111" lon="8.0860688"><ele>242.0</ele><time>2026-04-03T08:29:46.992Z</time></trkpt><trkpt lat="44.0600949" lon="8.0861802"><ele>243.66666666666669</ele><time>2026-04-03T08:29:49.992Z</time></trkpt><trkpt lat="44.0600842" lon="8.0862983"><ele>245.33333333333334</ele><time>2026-04-03T08:29:51.992Z</time></trkpt><trkpt lat="44.0600853" lon="8.0864325"><ele>247.0</ele><time>2026-04-03T08:29:53.992Z</time></trkpt><trkpt lat="44.0600662" lon="8.0865163"><ele>248.66666666666669</ele><time>2026-04-03T08:29:55.992Z</time></trkpt><trkpt lat="44.0600232" lon="8.0866304"><ele>250.33333333333334</ele><time>2026-04-03T08:29:58.992Z</time></trkpt><trkpt lat="44.0599998" lon="8.0867796"><ele>252.0</ele><time>2026-04-03T08:30:00.992Z</time></trkpt><trkpt lat="44.0599975" lon="8.0868775"><ele>252.0</ele><time>2026-04-03T08:30:01.991Z</time></trkpt><trkpt lat="44.0599978" lon="8.0869721"><ele>252.0</ele><time>2026-04-03T08:30:02.992Z</time></trkpt><trkpt lat="44.0599924" lon="8.0870993"><ele>252.0</ele><time>2026-04-03T08:30:04.992Z</time></trkpt><trkpt lat="44.0600076" lon="8.0872421"><ele>252.0</ele><time>2026-04-03T08:30:07.992Z</time></trkpt><trkpt lat="44.0600174" lon="8.0873592"><ele>252.0</ele><time>2026-04-03T08:30:09.992Z</time></trkpt><trkpt lat="44.0600097" lon="8.0874503"><ele>252.0</ele><time>2026-04-03T08:30:11.992Z</time></trkpt><trkpt lat="44.0599766" lon="8.0875256"><ele>245.0</ele><time>2026-04-03T08:30:13.992Z</time></trkpt><trkpt lat="44.0599498" lon="8.0876166"><ele>238.0</ele><time>2026-04-03T08:30:15.992Z</time></trkpt><trkpt lat="44.0599333" lon="8.087746"><ele>231.0</ele><time>2026-04-03T08:30:17.992Z</time></trkpt><trkpt lat="44.0599009" lon="8.0878356"><ele>224.0</ele><time>2026-04-03T08:30:19.991Z</time></trkpt><trkpt lat="44.0598575" lon="8.0879567"><ele>217.0</ele><time>2026-04-03T08:30:21.991Z</time></trkpt><trkpt lat="44.0597945" lon="8.0880322"><ele>210.0</ele><time>2026-04-03T08:30:23.992Z</time></trkpt><trkpt lat="44.0597572" lon="8.0881208"><ele>210.0</ele><time>2026-04-03T08:30:25.992Z</time></trkpt><trkpt lat="44.0597344" lon="8.0882114"><ele>210.0</ele><time>2026-04-03T08:30:27.992Z</time></trkpt><trkpt lat="44.0597274" lon="8.0883021"><ele>210.0</ele><time>2026-04-03T08:30:29.992Z</time></trkpt><trkpt lat="44.0597198" lon="8.0883894"><ele>210.0</ele><time>2026-04-03T08:30:31.992Z</time></trkpt><trkpt lat="44.0596873" lon="8.0884894"><ele>210.0</ele><time>2026-04-03T08:30:33.992Z</time></trkpt><trkpt lat="44.0596646" lon="8.0885915"><ele>210.0</ele><time>2026-04-03T08:30:35.991Z</time></trkpt><trkpt lat="44.0596169" lon="8.0887121"><ele>210.33333333333334</ele><time>2026-04-03T08:30:38.992Z</time></trkpt><trkpt lat="44.0595585" lon="8.0887677"><ele>210.66666666666669</ele><time>2026-04-03T08:30:40.992Z</time></trkpt><trkpt lat="44.0595054" lon="8.0888316"><ele>211.0</ele><time>2026-04-03T08:30:44.992Z</time></trkpt><trkpt lat="44.0594866" lon="8.0889353"><ele>211.33333333333334</ele><time>2026-04-03T08:30:47.991Z</time></trkpt><trkpt lat="44.0594616" lon="8.0890519"><ele>211.66666666666669</ele><time>2026-04-03T08:30:50.991Z</time></trkpt><trkpt lat="44.0594529" lon="8.0891448"><ele>212.0</ele><time>2026-04-03T08:30:52.992Z</time></trkpt><trkpt lat="44.0594729" lon="8.0892511"><ele>210.83333333333334</ele><time>2026-04-03T08:30:55.991Z</time></trkpt><trkpt lat="44.0594806" lon="8.0893682"><ele>209.66666666666669</ele><time>2026-04-03T08:30:58.991Z</time></trkpt><trkpt lat="44.0595027" lon="8.0894636"><ele>208.5</ele><time>2026-04-03T08:31:37.991Z</time></trkpt><trkpt lat="44.059521" lon="8.0895502"><ele>207.33333333333331</ele><time>2026-04-03T08:31:39.992Z</time></trkpt><trkpt lat="44.0595621" lon="8.0896659"><ele>206.16666666666666</ele><time>2026-04-03T08:31:42.992Z</time></trkpt><trkpt lat="44.0595895" lon="8.0897459"><ele>205.0</ele><time>2026-04-03T08:31:44.992Z</time></trkpt><trkpt lat="44.0595894" lon="8.0898571"><ele>201.99999999999997</ele><time>2026-04-03T08:31:47.992Z</time></trkpt><trkpt lat="44.059558" lon="8.0899464"><ele>199.0</ele><time>2026-04-03T08:31:50.992Z</time></trkpt><trkpt lat="44.0595215" lon="8.090117"><ele>196.0</ele><time>2026-04-03T08:32:08.992Z</time></trkpt><trkpt lat="44.0595632" lon="8.0902031"><ele>193.0</ele><time>2026-04-03T08:32:10.992Z</time></trkpt><trkpt lat="44.0596374" lon="8.0902572"><ele>190.0</ele><time>2026-04-03T08:32:13.992Z</time></trkpt><trkpt lat="44.0596972" lon="8.0902954"><ele>187.0</ele><time>2026-04-03T08:32:17.991Z</time></trkpt><trkpt lat="44.0597336" lon="8.090391"><ele>187.0</ele><time>2026-04-03T08:32:20.992Z</time></trkpt><trkpt lat="44.0597988" lon="8.0904666"><ele>187.0</ele><time>2026-04-03T08:32:23.992Z</time></trkpt><trkpt lat="44.0598382" lon="8.0905409"><ele>187.0</ele><time>2026-04-03T08:32:26.992Z</time></trkpt><trkpt lat="44.0598666" lon="8.0906399"><ele>187.0</ele><time>2026-04-03T08:32:29.992Z</time></trkpt><trkpt lat="44.0599172" lon="8.0907013"><ele>187.0</ele><time>2026-04-03T08:32:32.991Z</time></trkpt><trkpt lat="44.0599882" lon="8.0907074"><ele>187.0</ele><time>2026-04-03T08:32:36.991Z</time></trkpt><trkpt lat="44.0600667" lon="8.0907271"><ele>187.0</ele><time>2026-04-03T08:32:39.991Z</time></trkpt><trkpt lat="44.0601461" lon="8.090733"><ele>186.16666666666669</ele><time>2026-04-03T08:32:41.992Z</time></trkpt><trkpt lat="44.0602357" lon="8.0907221"><ele>185.33333333333334</ele><time>2026-04-03T08:32:43.991Z</time></trkpt><trkpt lat="44.060301" lon="8.090719"><ele>184.5</ele><time>2026-04-03T08:32:45.991Z</time></trkpt><trkpt lat="44.060371" lon="8.0907682"><ele>183.66666666666666</ele><time>2026-04-03T08:32:48.991Z</time></trkpt><trkpt lat="44.0604568" lon="8.0907534"><ele>182.83333333333331</ele><time>2026-04-03T08:32:52.99Z</time></trkpt><trkpt lat="44.0605254" lon="8.090739"><ele>182.0</ele><time>2026-04-03T08:32:54.99Z</time></trkpt><trkpt lat="44.0605888" lon="8.0907008"><ele>187.0</ele><time>2026-04-03T08:32:56.991Z</time></trkpt><trkpt lat="44.0606586" lon="8.0905474"><ele>192.0</ele><time>2026-04-03T08:33:56.99Z</time></trkpt><trkpt lat="44.0606895" lon="8.0904623"><ele>197.0</ele><time>2026-04-03T08:33:57.991Z</time></trkpt><trkpt lat="44.0607154" lon="8.0903769"><ele>202.0</ele><time>2026-04-03T08:33:58.991Z</time></trkpt><trkpt lat="44.0607346" lon="8.0902407"><ele>207.0</ele><time>2026-04-03T08:34:00.991Z</time></trkpt><trkpt lat="44.0606998" lon="8.0901014"><ele>207.0</ele><time>2026-04-03T08:34:02.991Z</time></trkpt><trkpt lat="44.0606754" lon="8.0899478"><ele>207.0</ele><time>2026-04-03T08:34:04.991Z</time></trkpt><trkpt lat="44.0606441" lon="8.0898498"><ele>207.0</ele><time>2026-04-03T08:34:05.991Z</time></trkpt><trkpt lat="44.060633" lon="8.089763"><ele>207.0</ele><time>2026-04-03T08:34:06.991Z</time></trkpt><trkpt lat="44.0606203" lon="8.0896412"><ele>207.0</ele><time>2026-04-03T08:34:07.991Z</time></trkpt><trkpt lat="44.0606213" lon="8.0895187"><ele>207.0</ele><time>2026-04-03T08:34:08.991Z</time></trkpt><trkpt lat="44.0606192" lon="8.0894021"><ele>211.39999999999998</ele><time>2026-04-03T08:34:09.991Z</time></trkpt><trkpt lat="44.0606376" lon="8.0892614"><ele>215.79999999999998</ele><time>2026-04-03T08:34:11.991Z</time></trkpt><trkpt lat="44.0606693" lon="8.0891341"><ele>220.2</ele><time>2026-04-03T08:34:13.99Z</time></trkpt><trkpt lat="44.0606693" lon="8.0889868"><ele>224.6</ele><time>2026-04-03T08:34:15.99Z</time></trkpt><trkpt lat="44.060635" lon="8.0888291"><ele>229.0</ele><time>2026-04-03T08:34:17.991Z</time></trkpt><trkpt lat="44.0606252" lon="8.0887115"><ele>231.99999999999997</ele><time>2026-04-03T08:34:19.99Z</time></trkpt><trkpt lat="44.060652" lon="8.0886317"><ele>235.0</ele><time>2026-04-03T08:34:21.99Z</time></trkpt><trkpt lat="44.0606671" lon="8.0885158"><ele>238.0</ele><time>2026-04-03T08:34:24.991Z</time></trkpt><trkpt lat="44.0606949" lon="8.0884103"><ele>241.0</ele><time>2026-04-03T08:34:26.99Z</time></trkpt><trkpt lat="44.0606865" lon="8.0882566"><ele>243.99999999999997</ele><time>2026-04-03T08:34:28.991Z</time></trkpt><trkpt lat="44.0606882" lon="8.0881203"><ele>247.0</ele><time>2026-04-03T08:34:30.991Z</time></trkpt><trkpt lat="44.0607037" lon="8.0880026"><ele>246.99999999999997</ele><time>2026-04-03T08:34:33.991Z</time></trkpt><trkpt lat="44.0607368" lon="8.0881113"><ele>247.0</ele><time>2026-04-03T08:35:19.991Z</time></trkpt><trkpt lat="44.0607695" lon="8.0882154"><ele>247.0</ele><time>2026-04-03T08:35:21.99Z</time></trkpt><trkpt lat="44.0607604" lon="8.0883297"><ele>247.0</ele><time>2026-04-03T08:35:24.991Z</time></trkpt><trkpt lat="44.0607472" lon="8.0884549"><ele>246.99999999999997</ele><time>2026-04-03T08:35:27.991Z</time></trkpt><trkpt lat="44.0607205" lon="8.0885506"><ele>247.0</ele><time>2026-04-03T08:35:30.99Z</time></trkpt><trkpt lat="44.0606865" lon="8.0886882"><ele>246.99999999999997</ele><time>2026-04-03T08:35:37.991Z</time></trkpt><trkpt lat="44.0606905" lon="8.0888632"><ele>247.0</ele><time>2026-04-03T08:35:39.991Z</time></trkpt><trkpt lat="44.0606972" lon="8.0889597"><ele>247.0</ele><time>2026-04-03T08:35:40.991Z</time></trkpt><trkpt lat="44.0606986" lon="8.0890557"><ele>247.0</ele><time>2026-04-03T08:35:41.991Z</time></trkpt><trkpt lat="44.0606921" lon="8.0891538"><ele>246.99999999999997</ele><time>2026-04-03T08:35:42.99Z</time></trkpt><trkpt lat="44.060686" lon="8.0892548"><ele>247.0</ele><time>2026-04-03T08:35:43.991Z</time></trkpt><trkpt lat="44.0606803" lon="8.0893537"><ele>243.99999999999997</ele><time>2026-04-03T08:35:44.991Z</time></trkpt><trkpt lat="44.060679" lon="8.0894435"><ele>241.0</ele><time>2026-04-03T08:35:45.991Z</time></trkpt><trkpt lat="44.0606702" lon="8.0895327"><ele>238.0</ele><time>2026-04-03T08:35:46.991Z</time></trkpt><trkpt lat="44.0606505" lon="8.0897153"><ele>235.0</ele><time>2026-04-03T08:35:48.99Z</time></trkpt><trkpt lat="44.0606539" lon="8.0898214"><ele>231.99999999999997</ele><time>2026-04-03T08:35:49.991Z</time></trkpt><trkpt lat="44.0606552" lon="8.0899099"><ele>229.0</ele><time>2026-04-03T08:35:50.99Z</time></trkpt><trkpt lat="44.0606848" lon="8.0900495"><ele>224.6</ele><time>2026-04-03T08:35:52.99Z</time></trkpt><trkpt lat="44.0607061" lon="8.0902023"><ele>220.2</ele><time>2026-04-03T08:35:54.99Z</time></trkpt><trkpt lat="44.0606954" lon="8.0903886"><ele>215.79999999999998</ele><time>2026-04-03T08:35:56.991Z</time></trkpt><trkpt lat="44.0606753" lon="8.0904911"><ele>211.39999999999998</ele><time>2026-04-03T08:35:57.991Z</time></trkpt><trkpt lat="44.060655" lon="8.0905906"><ele>207.0</ele><time>2026-04-03T08:35:58.99Z</time></trkpt><trkpt lat="44.0606495" lon="8.0906906"><ele>202.83333333333334</ele><time>2026-04-03T08:35:59.99Z</time></trkpt><trkpt lat="44.0606557" lon="8.0907791"><ele>198.66666666666666</ele><time>2026-04-03T08:36:00.991Z</time></trkpt><trkpt lat="44.0606858" lon="8.0909178"><ele>194.5</ele><time>2026-04-03T08:36:02.99Z</time></trkpt><trkpt lat="44.0606886" lon="8.0910725"><ele>190.33333333333331</ele><time>2026-04-03T08:36:04.991Z</time></trkpt><trkpt lat="44.0606828" lon="8.0911713"><ele>186.16666666666666</ele><time>2026-04-03T08:36:05.991Z</time></trkpt><trkpt lat="44.0606744" lon="8.0912707"><ele>182.0</ele><time>2026-04-03T08:36:06.991Z</time></trkpt><trkpt lat="44.060674" lon="8.0913683"><ele>182.0</ele><time>2026-04-03T08:36:07.991Z</time></trkpt><trkpt lat="44.0606928" lon="8.0914593"><ele>182.0</ele><time>2026-04-03T08:36:08.991Z</time></trkpt><trkpt lat="44.0607124" lon="8.09158"><ele>182.0</ele><time>2026-04-03T08:36:09.991Z</time></trkpt><trkpt lat="44.0607353" lon="8.0916978"><ele>182.0</ele><time>2026-04-03T08:36:10.99Z</time></trkpt><trkpt lat="44.0607517" lon="8.0917951"><ele>182.0</ele><time>2026-04-03T08:36:11.991Z</time></trkpt><trkpt lat="44.0607638" lon="8.0918912"><ele>182.0</ele><time>2026-04-03T08:36:12.991Z</time></trkpt><trkpt lat="44.0607851" lon="8.0919812"><ele>183.14285714285714</ele><time>2026-04-03T08:36:13.991Z</time></trkpt><trkpt lat="44.0608061" lon="8.0920753"><ele>184.28571428571428</ele><time>2026-04-03T08:36:14.991Z</time></trkpt><trkpt lat="44.0608321" lon="8.0921887"><ele>185.42857142857144</ele><time>2026-04-03T08:36:15.99Z</time></trkpt><trkpt lat="44.0608501" lon="8.0922944"><ele>186.57142857142856</ele><time>2026-04-03T08:36:16.991Z</time></trkpt><trkpt lat="44.0608621" lon="8.0923881"><ele>187.71428571428572</ele><time>2026-04-03T08:36:17.991Z</time></trkpt><trkpt lat="44.060878" lon="8.0924778"><ele>188.85714285714286</ele><time>2026-04-03T08:36:18.99Z</time></trkpt><trkpt lat="44.0609011" lon="8.0925787"><ele>190.0</ele><time>2026-04-03T08:36:19.99Z</time></trkpt><trkpt lat="44.0609372" lon="8.0926717"><ele>186.2</ele><time>2026-04-03T08:36:21.991Z</time></trkpt><trkpt lat="44.0610261" lon="8.0927719"><ele>182.4</ele><time>2026-04-03T08:36:23.991Z</time></trkpt><trkpt lat="44.0611128" lon="8.0928728"><ele>178.60000000000002</ele><time>2026-04-03T08:36:25.99Z</time></trkpt><trkpt lat="44.0612032" lon="8.0929812"><ele>174.8</ele><time>2026-04-03T08:36:27.991Z</time></trkpt><trkpt lat="44.0612813" lon="8.093067"><ele>171.0</ele><time>2026-04-03T08:36:29.991Z</time></trkpt><trkpt lat="44.0613068" lon="8.0931933"><ele>166.0</ele><time>2026-04-03T08:36:40.991Z</time></trkpt><trkpt lat="44.0613255" lon="8.0933659"><ele>161.0</ele><time>2026-04-03T08:36:42.991Z</time></trkpt><trkpt lat="44.0613926" lon="8.0935099"><ele>156.0</ele><time>2026-04-03T08:36:44.99Z</time></trkpt><trkpt lat="44.0614262" lon="8.0935898"><ele>151.0</ele><time>2026-04-03T08:36:45.99Z</time></trkpt><trkpt lat="44.06147" lon="8.0936883"><ele>146.0</ele><time>2026-04-03T08:36:46.991Z</time></trkpt><trkpt lat="44.0615031" lon="8.0937968"><ele>146.0</ele><time>2026-04-03T08:36:47.99Z</time></trkpt><trkpt lat="44.0615382" lon="8.0938892"><ele>146.0</ele><time>2026-04-03T08:36:48.991Z</time></trkpt><trkpt lat="44.0615783" lon="8.0939801"><ele>146.0</ele><time>2026-04-03T08:36:49.991Z</time></trkpt><trkpt lat="44.0616312" lon="8.094078"><ele>146.0</ele><time>2026-04-03T08:36:50.991Z</time></trkpt><trkpt lat="44.0616775" lon="8.0941768"><ele>146.0</ele><time>2026-04-03T08:36:51.99Z</time></trkpt><trkpt lat="44.0617256" lon="8.0942407"><ele>146.0</ele><time>2026-04-03T08:36:52.991Z</time></trkpt><trkpt lat="44.0617787" lon="8.0942921"><ele>147.66666666666666</ele><time>2026-04-03T08:36:53.991Z</time></trkpt><trkpt lat="44.0618721" lon="8.094313"><ele>149.33333333333331</ele><time>2026-04-03T08:36:55.99Z</time></trkpt><trkpt lat="44.0619435" lon="8.0942914"><ele>151.0</ele><time>2026-04-03T08:36:57.989Z</time></trkpt><trkpt lat="44.0619759" lon="8.0944061"><ele>152.66666666666666</ele><time>2026-04-03T08:37:00.989Z</time></trkpt><trkpt lat="44.0620005" lon="8.0945163"><ele>154.33333333333334</ele><time>2026-04-03T08:37:02.989Z</time></trkpt><trkpt lat="44.0620143" lon="8.0946586"><ele>156.0</ele><time>2026-04-03T08:37:04.99Z</time></trkpt><trkpt lat="44.0620233" lon="8.0947983"><ele>156.0</ele><time>2026-04-03T08:37:06.989Z</time></trkpt><trkpt lat="44.0619985" lon="8.0949046"><ele>156.0</ele><time>2026-04-03T08:37:08.989Z</time></trkpt><trkpt lat="44.0619336" lon="8.0949837"><ele>156.0</ele><time>2026-04-03T08:37:10.99Z</time></trkpt><trkpt lat="44.0618818" lon="8.0950673"><ele>156.0</ele><time>2026-04-03T08:37:12.99Z</time></trkpt><trkpt lat="44.0618262" lon="8.0951263"><ele>156.0</ele><time>2026-04-03T08:37:52.989Z</time></trkpt><trkpt lat="44.0617697" lon="8.0951876"><ele>156.0</ele><time>2026-04-03T08:37:54.989Z</time></trkpt><trkpt lat="44.0617554" lon="8.0953113"><ele>155.8</ele><time>2026-04-03T08:37:56.989Z</time></trkpt><trkpt lat="44.061764" lon="8.0955003"><ele>155.6</ele><time>2026-04-03T08:37:58.989Z</time></trkpt><trkpt lat="44.0617646" lon="8.0956114"><ele>155.4</ele><time>2026-04-03T08:37:59.99Z</time></trkpt><trkpt lat="44.0617608" lon="8.0957112"><ele>155.2</ele><time>2026-04-03T08:38:00.989Z</time></trkpt><trkpt lat="44.0617469" lon="8.0957994"><ele>155.0</ele><time>2026-04-03T08:38:01.99Z</time></trkpt><trkpt lat="44.0617153" lon="8.095951"><ele>155.0</ele><time>2026-04-03T08:38:03.989Z</time></trkpt><trkpt lat="44.0616443" lon="8.0960811"><ele>155.0</ele><time>2026-04-03T08:38:05.99Z</time></trkpt><trkpt lat="44.0615799" lon="8.0961474"><ele>155.0</ele><time>2026-04-03T08:38:06.99Z</time></trkpt><trkpt lat="44.0615039" lon="8.0962112"><ele>155.0</ele><time>2026-04-03T08:38:07.989Z</time></trkpt><trkpt lat="44.0614157" lon="8.0962749"><ele>155.0</ele><time>2026-04-03T08:38:08.989Z</time></trkpt><trkpt lat="44.0613322" lon="8.0963401"><ele>154.6</ele><time>2026-04-03T08:38:09.99Z</time></trkpt><trkpt lat="44.0612667" lon="8.0963993"><ele>154.2</ele><time>2026-04-03T08:38:10.99Z</time></trkpt><trkpt lat="44.0612132" lon="8.0964513"><ele>153.8</ele><time>2026-04-03T08:38:11.989Z</time></trkpt><trkpt lat="44.0611314" lon="8.0965746"><ele>153.4</ele><time>2026-04-03T08:38:13.99Z</time></trkpt><trkpt lat="44.0610576" lon="8.0967202"><ele>153.0</ele><time>2026-04-03T08:38:15.99Z</time></trkpt><trkpt lat="44.0610255" lon="8.0968224"><ele>157.5</ele><time>2026-04-03T08:38:16.99Z</time></trkpt><trkpt lat="44.0610107" lon="8.0969576"><ele>162.0</ele><time>2026-04-03T08:38:17.99Z</time></trkpt><trkpt lat="44.0610002" lon="8.0970826"><ele>166.5</ele><time>2026-04-03T08:38:18.989Z</time></trkpt><trkpt lat="44.0609786" lon="8.0971928"><ele>171.0</ele><time>2026-04-03T08:38:19.99Z</time></trkpt><trkpt lat="44.0609119" lon="8.097123"><ele>175.5</ele><time>2026-04-03T08:38:24.989Z</time></trkpt><trkpt lat="44.0608886" lon="8.0970241"><ele>180.0</ele><time>2026-04-03T08:38:25.99Z</time></trkpt><trkpt lat="44.0608552" lon="8.0969347"><ele>180.0</ele><time>2026-04-03T08:38:26.99Z</time></trkpt><trkpt lat="44.060812" lon="8.0968495"><ele>180.0</ele><time>2026-04-03T08:38:27.99Z</time></trkpt><trkpt lat="44.0607439" lon="8.0967963"><ele>180.0</ele><time>2026-04-03T08:38:28.99Z</time></trkpt><trkpt lat="44.0606673" lon="8.0967625"><ele>180.0</ele><time>2026-04-03T08:38:29.99Z</time></trkpt><trkpt lat="44.0605929" lon="8.0967439"><ele>180.0</ele><time>2026-04-03T08:38:30.99Z</time></trkpt><trkpt lat="44.0605234" lon="8.0967422"><ele>180.0</ele><time>2026-04-03T08:38:31.989Z</time></trkpt><trkpt lat="44.0604293" lon="8.0967718"><ele>181.16666666666666</ele><time>2026-04-03T08:38:33.99Z</time></trkpt><trkpt lat="44.0603374" lon="8.0967883"><ele>182.33333333333334</ele><time>2026-04-03T08:38:59.989Z</time></trkpt><trkpt lat="44.0602452" lon="8.0967522"><ele>183.5</ele><time>2026-04-03T08:39:01.99Z</time></trkpt><trkpt lat="44.0601811" lon="8.0967419"><ele>184.66666666666669</ele><time>2026-04-03T08:39:02.99Z</time></trkpt><trkpt lat="44.0601058" lon="8.0967348"><ele>185.83333333333334</ele><time>2026-04-03T08:39:03.99Z</time></trkpt><trkpt lat="44.0600343" lon="8.0967147"><ele>187.0</ele><time>2026-04-03T08:39:04.989Z</time></trkpt><trkpt lat="44.0599698" lon="8.0966898"><ele>187.2</ele><time>2026-04-03T08:39:05.99Z</time></trkpt><trkpt lat="44.0598687" lon="8.096662"><ele>187.39999999999998</ele><time>2026-04-03T08:39:07.99Z</time></trkpt><trkpt lat="44.059796" lon="8.0967207"><ele>187.60000000000002</ele><time>2026-04-03T08:39:09.99Z</time></trkpt><trkpt lat="44.0597115" lon="8.0968396"><ele>187.8</ele><time>2026-04-03T08:39:11.99Z</time></trkpt><trkpt lat="44.0596526" lon="8.0969091"><ele>188.0</ele><time>2026-04-03T08:39:12.989Z</time></trkpt><trkpt lat="44.0595909" lon="8.0969781"><ele>188.0</ele><time>2026-04-03T08:39:13.989Z</time></trkpt><trkpt lat="44.0595243" lon="8.0970408"><ele>188.0</ele><time>2026-04-03T08:39:14.99Z</time></trkpt><trkpt lat="44.0594567" lon="8.0971102"><ele>188.0</ele><time>2026-04-03T08:39:15.99Z</time></trkpt><trkpt lat="44.0594075" lon="8.0972408"><ele>188.0</ele><time>2026-04-03T08:39:17.99Z</time></trkpt><trkpt lat="44.0594221" lon="8.0974016"><ele>188.0</ele><time>2026-04-03T08:39:19.989Z</time></trkpt><trkpt lat="44.0594384" lon="8.0974933"><ele>188.83333333333331</ele><time>2026-04-03T08:39:20.99Z</time></trkpt><trkpt lat="44.0594693" lon="8.0975897"><ele>189.66666666666666</ele><time>2026-04-03T08:39:21.989Z</time></trkpt><trkpt lat="44.0595073" lon="8.0976746"><ele>190.5</ele><time>2026-04-03T08:39:22.99Z</time></trkpt><trkpt lat="44.0595388" lon="8.0977663"><ele>191.33333333333331</ele><time>2026-04-03T08:39:23.99Z</time></trkpt><trkpt lat="44.059564" lon="8.0978614"><ele>192.16666666666666</ele><time>2026-04-03T08:39:24.989Z</time></trkpt><trkpt lat="44.0595754" lon="8.0979759"><ele>193.0</ele><time>2026-04-03T08:39:25.99Z</time></trkpt><trkpt lat="44.0595729" lon="8.098098"><ele>192.99999999999997</ele><time>2026-04-03T08:39:26.99Z</time></trkpt><trkpt lat="44.0595596" lon="8.0982096"><ele>193.0</ele><time>2026-04-03T08:39:27.99Z</time></trkpt><trkpt lat="44.059524" lon="8.0983156"><ele>193.0</ele><time>2026-04-03T08:39:28.989Z</time></trkpt><trkpt lat="44.0594809" lon="8.0984132"><ele>193.0</ele><time>2026-04-03T08:39:29.99Z</time></trkpt><trkpt lat="44.0594348" lon="8.0984993"><ele>192.99999999999997</ele><time>2026-04-03T08:39:30.989Z</time></trkpt><trkpt lat="44.0593914" lon="8.0985741"><ele>193.0</ele><time>2026-04-03T08:39:31.99Z</time></trkpt><trkpt lat="44.0593525" lon="8.0986549"><ele>193.57142857142858</ele><time>2026-04-03T08:39:32.989Z</time></trkpt><trkpt lat="44.0593142" lon="8.098737"><ele>194.14285714285714</ele><time>2026-04-03T08:39:33.99Z</time></trkpt><trkpt lat="44.0592698" lon="8.0988231"><ele>194.71428571428572</ele><time>2026-04-03T08:39:34.989Z</time></trkpt><trkpt lat="44.0592276" lon="8.0989046"><ele>195.28571428571428</ele><time>2026-04-03T08:39:35.989Z</time></trkpt><trkpt lat="44.05919" lon="8.0989868"><ele>195.85714285714286</ele><time>2026-04-03T08:39:36.99Z</time></trkpt><trkpt lat="44.0591595" lon="8.0990666"><ele>196.42857142857144</ele><time>2026-04-03T08:39:37.989Z</time></trkpt><trkpt lat="44.059138" lon="8.0991592"><ele>197.0</ele><time>2026-04-03T08:39:38.99Z</time></trkpt><trkpt lat="44.0591224" lon="8.099262"><ele>197.16666666666669</ele><time>2026-04-03T08:39:39.99Z</time></trkpt><trkpt lat="44.0591117" lon="8.0993661"><ele>197.33333333333334</ele><time>2026-04-03T08:39:40.99Z</time></trkpt><trkpt lat="44.0591038" lon="8.0994873"><ele>197.5</ele><time>2026-04-03T08:39:41.99Z</time></trkpt><trkpt lat="44.0591099" lon="8.099612"><ele>197.66666666666669</ele><time>2026-04-03T08:39:42.989Z</time></trkpt><trkpt lat="44.059127" lon="8.0997405"><ele>197.83333333333334</ele><time>2026-04-03T08:39:43.989Z</time></trkpt><trkpt lat="44.0591548" lon="8.0998602"><ele>198.0</ele><time>2026-04-03T08:39:44.99Z</time></trkpt><trkpt lat="44.0591671" lon="8.0999676"><ele>198.2</ele><time>2026-04-03T08:39:45.99Z</time></trkpt><trkpt lat="44.0591734" lon="8.1000809"><ele>198.4</ele><time>2026-04-03T08:39:46.99Z</time></trkpt><trkpt lat="44.0591848" lon="8.1002147"><ele>198.6</ele><time>2026-04-03T08:39:47.99Z</time></trkpt><trkpt lat="44.0592018" lon="8.1003834"><ele>198.79999999999998</ele><time>2026-04-03T08:39:48.99Z</time></trkpt><trkpt lat="44.0592057" lon="8.1005722"><ele>199.0</ele><time>2026-04-03T08:39:49.989Z</time></trkpt><trkpt lat="44.0592194" lon="8.1007349"><ele>199.83333333333331</ele><time>2026-04-03T08:39:50.99Z</time></trkpt><trkpt lat="44.0592365" lon="8.1008654"><ele>200.66666666666666</ele><time>2026-04-03T08:39:51.989Z</time></trkpt><trkpt lat="44.0592469" lon="8.1009825"><ele>201.5</ele><time>2026-04-03T08:39:52.99Z</time></trkpt><trkpt lat="44.059242" lon="8.1010811"><ele>202.33333333333331</ele><time>2026-04-03T08:39:53.99Z</time></trkpt><trkpt lat="44.0592318" lon="8.1011811"><ele>203.16666666666666</ele><time>2026-04-03T08:39:54.99Z</time></trkpt><trkpt lat="44.0592182" lon="8.1012747"><ele>204.0</ele><time>2026-04-03T08:39:55.99Z</time></trkpt><trkpt lat="44.0592029" lon="8.101366"><ele>204.0</ele><time>2026-04-03T08:39:56.989Z</time></trkpt><trkpt lat="44.0591848" lon="8.101466"><ele>204.0</ele><time>2026-04-03T08:39:57.99Z</time></trkpt><trkpt lat="44.0591619" lon="8.1015839"><ele>204.0</ele><time>2026-04-03T08:39:58.99Z</time></trkpt><trkpt lat="44.0591388" lon="8.1017477"><ele>204.0</ele><time>2026-04-03T08:39:59.99Z</time></trkpt><trkpt lat="44.0591073" lon="8.1019271"><ele>204.0</ele><time>2026-04-03T08:40:00.99Z</time></trkpt><trkpt lat="44.059085" lon="8.1020914"><ele>208.39999999999998</ele><time>2026-04-03T08:40:01.99Z</time></trkpt><trkpt lat="44.0590739" lon="8.1022051"><ele>212.8</ele><time>2026-04-03T08:40:02.99Z</time></trkpt><trkpt lat="44.0590828" lon="8.1023167"><ele>217.20000000000002</ele><time>2026-04-03T08:40:03.989Z</time></trkpt><trkpt lat="44.0591104" lon="8.1024455"><ele>221.60000000000002</ele><time>2026-04-03T08:40:04.99Z</time></trkpt><trkpt lat="44.0591513" lon="8.1025918"><ele>226.0</ele><time>2026-04-03T08:40:05.99Z</time></trkpt><trkpt lat="44.0591887" lon="8.1027501"><ele>226.0</ele><time>2026-04-03T08:40:06.989Z</time></trkpt><trkpt lat="44.0592302" lon="8.1029026"><ele>226.00000000000003</ele><time>2026-04-03T08:40:07.99Z</time></trkpt><trkpt lat="44.0592623" lon="8.1030312"><ele>226.00000000000003</ele><time>2026-04-03T08:40:08.989Z</time></trkpt><trkpt lat="44.0592782" lon="8.1031533"><ele>226.0</ele><time>2026-04-03T08:40:09.99Z</time></trkpt><trkpt lat="44.0592767" lon="8.1032674"><ele>226.0</ele><time>2026-04-03T08:40:10.99Z</time></trkpt><trkpt lat="44.0592652" lon="8.1033907"><ele>226.4</ele><time>2026-04-03T08:40:11.99Z</time></trkpt><trkpt lat="44.0592541" lon="8.1035136"><ele>226.8</ele><time>2026-04-03T08:40:12.99Z</time></trkpt><trkpt lat="44.0592475" lon="8.1036413"><ele>227.20000000000002</ele><time>2026-04-03T08:40:13.99Z</time></trkpt><trkpt lat="44.0592476" lon="8.1037743"><ele>227.60000000000002</ele><time>2026-04-03T08:40:14.99Z</time></trkpt><trkpt lat="44.0592563" lon="8.1039152"><ele>228.0</ele><time>2026-04-03T08:40:15.989Z</time></trkpt><trkpt lat="44.0592653" lon="8.1040524"><ele>227.16666666666666</ele><time>2026-04-03T08:40:16.989Z</time></trkpt><trkpt lat="44.059267" lon="8.1041728"><ele>226.33333333333331</ele><time>2026-04-03T08:40:17.99Z</time></trkpt><trkpt lat="44.0592718" lon="8.1042915"><ele>225.5</ele><time>2026-04-03T08:40:18.99Z</time></trkpt><trkpt lat="44.0592779" lon="8.1043937"><ele>224.66666666666666</ele><time>2026-04-03T08:40:19.989Z</time></trkpt><trkpt lat="44.0592887" lon="8.1044865"><ele>223.83333333333331</ele><time>2026-04-03T08:40:20.99Z</time></trkpt><trkpt lat="44.059287" lon="8.1045849"><ele>223.0</ele><time>2026-04-03T08:40:21.989Z</time></trkpt><trkpt lat="44.0592581" lon="8.1047014"><ele>223.0</ele><time>2026-04-03T08:40:22.99Z</time></trkpt><trkpt lat="44.0592171" lon="8.1048435"><ele>223.0</ele><time>2026-04-03T08:40:23.99Z</time></trkpt><trkpt lat="44.0591829" lon="8.1049927"><ele>223.0</ele><time>2026-04-03T08:40:24.99Z</time></trkpt><trkpt lat="44.0591587" lon="8.1051343"><ele>223.0</ele><time>2026-04-03T08:40:25.99Z</time></trkpt><trkpt lat="44.0591448" lon="8.1052723"><ele>223.0</ele><time>2026-04-03T08:40:26.99Z</time></trkpt><trkpt lat="44.0591175" lon="8.1054045"><ele>214.60000000000002</ele><time>2026-04-03T08:40:27.989Z</time></trkpt><trkpt lat="44.0590772" lon="8.1055454"><ele>206.20000000000002</ele><time>2026-04-03T08:40:28.99Z</time></trkpt><trkpt lat="44.0590337" lon="8.1056904"><ele>197.8</ele><time>2026-04-03T08:40:29.99Z</time></trkpt><trkpt lat="44.0589951" lon="8.1058376"><ele>189.4</ele><time>2026-04-03T08:40:30.99Z</time></trkpt><trkpt lat="44.0589634" lon="8.1059849"><ele>181.0</ele><time>2026-04-03T08:40:31.99Z</time></trkpt><trkpt lat="44.0589475" lon="8.1061231"><ele>180.4</ele><time>2026-04-03T08:40:32.99Z</time></trkpt><trkpt lat="44.0589286" lon="8.1062529"><ele>179.8</ele><time>2026-04-03T08:40:33.99Z</time></trkpt><trkpt lat="44.0588967" lon="8.1063815"><ele>179.20000000000002</ele><time>2026-04-03T08:40:34.989Z</time></trkpt><trkpt lat="44.0588664" lon="8.1065174"><ele>178.60000000000002</ele><time>2026-04-03T08:40:35.99Z</time></trkpt><trkpt lat="44.0588393" lon="8.1066674"><ele>178.0</ele><time>2026-04-03T08:40:36.989Z</time></trkpt><trkpt lat="44.0588244" lon="8.1068157"><ele>176.83333333333334</ele><time>2026-04-03T08:40:37.99Z</time></trkpt><trkpt lat="44.0588209" lon="8.106932"><ele>175.66666666666669</ele><time>2026-04-03T08:40:38.99Z</time></trkpt><trkpt lat="44.0588373" lon="8.1070229"><ele>174.5</ele><time>2026-04-03T08:40:39.99Z</time></trkpt><trkpt lat="44.0588777" lon="8.1071084"><ele>173.33333333333334</ele><time>2026-04-03T08:42:29.989Z</time></trkpt><trkpt lat="44.0589029" lon="8.107192"><ele>172.16666666666666</ele><time>2026-04-03T08:42:30.989Z</time></trkpt><trkpt lat="44.0589117" lon="8.1072859"><ele>171.0</ele><time>2026-04-03T08:42:31.989Z</time></trkpt><trkpt lat="44.0589099" lon="8.107454"><ele>169.0</ele><time>2026-04-03T08:42:33.988Z</time></trkpt><trkpt lat="44.0588774" lon="8.1076301"><ele>167.0</ele><time>2026-04-03T08:42:35.989Z</time></trkpt><trkpt lat="44.0588444" lon="8.1077234"><ele>165.0</ele><time>2026-04-03T08:42:36.989Z</time></trkpt><trkpt lat="44.0588085" lon="8.1078211"><ele>163.0</ele><time>2026-04-03T08:42:37.989Z</time></trkpt><trkpt lat="44.0587744" lon="8.1079254"><ele>161.0</ele><time>2026-04-03T08:42:38.989Z</time></trkpt><trkpt lat="44.0587382" lon="8.1080395"><ele>161.0</ele><time>2026-04-03T08:42:39.988Z</time></trkpt><trkpt lat="44.0587057" lon="8.1081814"><ele>161.0</ele><time>2026-04-03T08:42:40.988Z</time></trkpt><trkpt lat="44.0586856" lon="8.1083394"><ele>161.0</ele><time>2026-04-03T08:42:41.989Z</time></trkpt><trkpt lat="44.0586829" lon="8.1084898"><ele>161.0</ele><time>2026-04-03T08:42:42.989Z</time></trkpt><trkpt lat="44.05869" lon="8.1086345"><ele>161.0</ele><time>2026-04-03T08:42:43.988Z</time></trkpt><trkpt lat="44.0587066" lon="8.1087801"><ele>159.0</ele><time>2026-04-03T08:42:44.989Z</time></trkpt><trkpt lat="44.0587329" lon="8.1089398"><ele>157.0</ele><time>2026-04-03T08:42:45.989Z</time></trkpt><trkpt lat="44.058751" lon="8.109106"><ele>155.0</ele><time>2026-04-03T08:42:46.989Z</time></trkpt><trkpt lat="44.0587679" lon="8.1092501"><ele>153.0</ele><time>2026-04-03T08:42:47.989Z</time></trkpt><trkpt lat="44.0587803" lon="8.1093631"><ele>151.0</ele><time>2026-04-03T08:42:48.989Z</time></trkpt><trkpt lat="44.0587804" lon="8.1094548"><ele>151.0</ele><time>2026-04-03T08:42:49.989Z</time></trkpt><trkpt lat="44.0587416" lon="8.1096083"><ele>151.0</ele><time>2026-04-03T08:42:51.988Z</time></trkpt><trkpt lat="44.0586894" lon="8.1097633"><ele>151.0</ele><time>2026-04-03T08:42:53.988Z</time></trkpt><trkpt lat="44.058657" lon="8.1098425"><ele>151.0</ele><time>2026-04-03T08:42:54.989Z</time></trkpt><trkpt lat="44.058616" lon="8.1099193"><ele>151.0</ele><time>2026-04-03T08:42:55.989Z</time></trkpt><trkpt lat="44.0585307" lon="8.110042"><ele>151.0</ele><time>2026-04-03T08:42:57.988Z</time></trkpt><trkpt lat="44.0584883" lon="8.1101395"><ele>151.0</ele><time>2026-04-03T08:42:59.988Z</time></trkpt><trkpt lat="44.0584908" lon="8.110275"><ele>151.0</ele><time>2026-04-03T08:43:02.989Z</time></trkpt><trkpt lat="44.0584625" lon="8.1103672"><ele>151.0</ele><time>2026-04-03T08:43:04.989Z</time></trkpt><trkpt lat="44.0583901" lon="8.1104718"><ele>151.0</ele><time>2026-04-03T08:43:06.989Z</time></trkpt><trkpt lat="44.0582823" lon="8.1105626"><ele>144.33333333333334</ele><time>2026-04-03T08:43:08.989Z</time></trkpt><trkpt lat="44.05818" lon="8.1106019"><ele>137.66666666666669</ele><time>2026-04-03T08:43:10.989Z</time></trkpt><trkpt lat="44.0580994" lon="8.1106137"><ele>131.0</ele><time>2026-04-03T08:43:12.989Z</time></trkpt><trkpt lat="44.0580919" lon="8.110705"><ele>124.33333333333334</ele><time>2026-04-03T08:43:15.989Z</time></trkpt><trkpt lat="44.0581707" lon="8.1107864"><ele>117.66666666666667</ele><time>2026-04-03T08:43:17.988Z</time></trkpt><trkpt lat="44.0582239" lon="8.1108805"><ele>111.0</ele><time>2026-04-03T08:43:19.989Z</time></trkpt><trkpt lat="44.0581658" lon="8.1109482"><ele>111.0</ele><time>2026-04-03T08:43:21.989Z</time></trkpt><trkpt lat="44.0580901" lon="8.1109754"><ele>111.0</ele><time>2026-04-03T08:43:22.988Z</time></trkpt><trkpt lat="44.0580151" lon="8.1110098"><ele>111.0</ele><time>2026-04-03T08:43:23.988Z</time></trkpt><trkpt lat="44.0579458" lon="8.1110518"><ele>111.0</ele><time>2026-04-03T08:43:24.989Z</time></trkpt><trkpt lat="44.0578831" lon="8.1111118"><ele>111.0</ele><time>2026-04-03T08:43:25.988Z</time></trkpt><trkpt lat="44.0578148" lon="8.1111646"><ele>111.0</ele><time>2026-04-03T08:43:26.988Z</time></trkpt><trkpt lat="44.0577403" lon="8.1112159"><ele>111.0</ele><time>2026-04-03T08:43:27.988Z</time></trkpt><trkpt lat="44.0576669" lon="8.111263"><ele>111.0</ele><time>2026-04-03T08:43:28.989Z</time></trkpt><trkpt lat="44.057596" lon="8.11132"><ele>111.0</ele><time>2026-04-03T08:43:29.989Z</time></trkpt><trkpt lat="44.057534" lon="8.1113778"><ele>111.0</ele><time>2026-04-03T08:43:30.989Z</time></trkpt><trkpt lat="44.057482" lon="8.1114368"><ele>111.0</ele><time>2026-04-03T08:43:31.989Z</time></trkpt><trkpt lat="44.0574358" lon="8.1115321"><ele>111.0</ele><time>2026-04-03T08:43:33.989Z</time></trkpt><trkpt lat="44.0575118" lon="8.1115985"><ele>111.33333333333333</ele><time>2026-04-03T08:43:36.989Z</time></trkpt><trkpt lat="44.0575783" lon="8.111611"><ele>111.66666666666666</ele><time>2026-04-03T08:43:37.989Z</time></trkpt><trkpt lat="44.0576663" lon="8.1116275"><ele>112.0</ele><time>2026-04-03T08:43:38.989Z</time></trkpt><trkpt lat="44.057738" lon="8.1116516"><ele>112.33333333333333</ele><time>2026-04-03T08:43:39.988Z</time></trkpt><trkpt lat="44.0577859" lon="8.1117207"><ele>112.66666666666666</ele><time>2026-04-03T08:43:41.989Z</time></trkpt><trkpt lat="44.0577038" lon="8.1118468"><ele>113.0</ele><time>2026-04-03T08:43:43.989Z</time></trkpt><trkpt lat="44.0576365" lon="8.111941"><ele>112.99999999999999</ele><time>2026-04-03T08:43:44.989Z</time></trkpt><trkpt lat="44.0575656" lon="8.1120469"><ele>113.0</ele><time>2026-04-03T08:43:45.988Z</time></trkpt><trkpt lat="44.0574983" lon="8.1121405"><ele>113.0</ele><time>2026-04-03T08:43:46.989Z</time></trkpt><trkpt lat="44.0574293" lon="8.1122149"><ele>113.0</ele><time>2026-04-03T08:43:47.989Z</time></trkpt><trkpt lat="44.0573641" lon="8.112274"><ele>112.99999999999999</ele><time>2026-04-03T08:43:48.989Z</time></trkpt><trkpt lat="44.0573028" lon="8.1123342"><ele>113.0</ele><time>2026-04-03T08:43:49.989Z</time></trkpt><trkpt lat="44.0572518" lon="8.1123945"><ele>106.16666666666666</ele><time>2026-04-03T08:43:50.988Z</time></trkpt><trkpt lat="44.0572143" lon="8.1124654"><ele>99.33333333333333</ele><time>2026-04-03T08:43:51.989Z</time></trkpt><trkpt lat="44.0571658" lon="8.1126319"><ele>92.5</ele><time>2026-04-03T08:43:53.989Z</time></trkpt><trkpt lat="44.0571399" lon="8.1127273"><ele>85.66666666666666</ele><time>2026-04-03T08:43:54.989Z</time></trkpt><trkpt lat="44.0571172" lon="8.1128256"><ele>78.83333333333333</ele><time>2026-04-03T08:43:55.988Z</time></trkpt><trkpt lat="44.0570878" lon="8.1129143"><ele>72.0</ele><time>2026-04-03T08:43:56.989Z</time></trkpt><trkpt lat="44.0570411" lon="8.1130719"><ele>72.2</ele><time>2026-04-03T08:43:58.989Z</time></trkpt><trkpt lat="44.0570155" lon="8.1132568"><ele>72.4</ele><time>2026-04-03T08:44:00.988Z</time></trkpt><trkpt lat="44.0569931" lon="8.1133564"><ele>72.6</ele><time>2026-04-03T08:44:01.989Z</time></trkpt><trkpt lat="44.0569649" lon="8.1134494"><ele>72.8</ele><time>2026-04-03T08:44:02.988Z</time></trkpt><trkpt lat="44.0569218" lon="8.1135445"><ele>73.0</ele><time>2026-04-03T08:44:03.988Z</time></trkpt><trkpt lat="44.0568615" lon="8.1136557"><ele>73.0</ele><time>2026-04-03T08:44:04.989Z</time></trkpt><trkpt lat="44.0567987" lon="8.1137651"><ele>73.0</ele><time>2026-04-03T08:44:05.988Z</time></trkpt><trkpt lat="44.0567384" lon="8.1138621"><ele>73.0</ele><time>2026-04-03T08:44:06.989Z</time></trkpt><trkpt lat="44.0566921" lon="8.1139524"><ele>73.0</ele><time>2026-04-03T08:44:07.988Z</time></trkpt><trkpt lat="44.0566657" lon="8.1140927"><ele>73.0</ele><time>2026-04-03T08:44:09.989Z</time></trkpt><trkpt lat="44.056698" lon="8.114171"><ele>73.0</ele><time>2026-04-03T08:44:11.989Z</time></trkpt><trkpt lat="44.0567625" lon="8.1141551"><ele>73.0</ele><time>2026-04-03T08:44:13.989Z</time></trkpt><trkpt lat="44.056824" lon="8.1141183"><ele>73.0</ele><time>2026-04-03T08:44:14.988Z</time></trkpt><trkpt lat="44.0568978" lon="8.1140794"><ele>73.0</ele><time>2026-04-03T08:44:15.989Z</time></trkpt><trkpt lat="44.0569755" lon="8.1140477"><ele>73.0</ele><time>2026-04-03T08:44:16.988Z</time></trkpt><trkpt lat="44.0570674" lon="8.1140294"><ele>73.0</ele><time>2026-04-03T08:44:17.988Z</time></trkpt><trkpt lat="44.0571689" lon="8.1140211"><ele>73.0</ele><time>2026-04-03T08:44:18.989Z</time></trkpt><trkpt lat="44.0572516" lon="8.1140094"><ele>73.0</ele><time>2026-04-03T08:44:19.988Z</time></trkpt><trkpt lat="44.0573398" lon="8.113988"><ele>73.0</ele><time>2026-04-03T08:44:20.989Z</time></trkpt><trkpt lat="44.0574239" lon="8.1139486"><ele>73.0</ele><time>2026-04-03T08:44:21.988Z</time></trkpt><trkpt lat="44.0575002" lon="8.1139005"><ele>73.0</ele><time>2026-04-03T08:44:22.988Z</time></trkpt><trkpt lat="44.0575694" lon="8.1138541"><ele>73.0</ele><time>2026-04-03T08:44:23.988Z</time></trkpt><trkpt lat="44.0576613" lon="8.1137927"><ele>73.0</ele><time>2026-04-03T08:44:25.989Z</time></trkpt><trkpt lat="44.0576227" lon="8.113883"><ele>73.0</ele><time>2026-04-03T08:45:43.988Z</time></trkpt><trkpt lat="44.0575751" lon="8.1139619"><ele>73.0</ele><time>2026-04-03T08:45:44.987Z</time></trkpt><trkpt lat="44.0575145" lon="8.1140621"><ele>73.0</ele><time>2026-04-03T08:45:45.988Z</time></trkpt><trkpt lat="44.057401" lon="8.1142192"><ele>73.0</ele><time>2026-04-03T08:45:46.988Z</time></trkpt><trkpt lat="44.0572382" lon="8.1144405"><ele>73.0</ele><time>2026-04-03T08:45:47.988Z</time></trkpt><trkpt lat="44.0570685" lon="8.1146778"><ele>73.0</ele><time>2026-04-03T08:45:48.988Z</time></trkpt><trkpt lat="44.0569266" lon="8.114905"><ele>70.33333333333333</ele><time>2026-04-03T08:45:49.987Z</time></trkpt><trkpt lat="44.0567946" lon="8.1151067"><ele>67.66666666666667</ele><time>2026-04-03T08:45:50.988Z</time></trkpt><trkpt lat="44.0566949" lon="8.1152795"><ele>65.0</ele><time>2026-04-03T08:45:51.987Z</time></trkpt><trkpt lat="44.0566061" lon="8.1154339"><ele>63.0</ele><time>2026-04-03T08:45:52.987Z</time></trkpt><trkpt lat="44.0565148" lon="8.1155625"><ele>61.0</ele><time>2026-04-03T08:45:53.988Z</time></trkpt><trkpt lat="44.0564175" lon="8.1156898"><ele>59.0</ele><time>2026-04-03T08:45:54.987Z</time></trkpt><trkpt lat="44.0563104" lon="8.1158015"><ele>57.0</ele><time>2026-04-03T08:45:55.987Z</time></trkpt><trkpt lat="44.056206" lon="8.1158957"><ele>56.0</ele><time>2026-04-03T08:45:56.987Z</time></trkpt><trkpt lat="44.0561036" lon="8.1159821"><ele>55.0</ele><time>2026-04-03T08:45:57.987Z</time></trkpt><trkpt lat="44.0559933" lon="8.1160541"><ele>54.0</ele><time>2026-04-03T08:45:58.987Z</time></trkpt><trkpt lat="44.0558952" lon="8.1161383"><ele>53.0</ele><time>2026-04-03T08:45:59.988Z</time></trkpt><trkpt lat="44.0558105" lon="8.1162215"><ele>51.8</ele><time>2026-04-03T08:46:00.988Z</time></trkpt><trkpt lat="44.0557206" lon="8.1162901"><ele>50.599999999999994</ele><time>2026-04-03T08:46:01.988Z</time></trkpt><trkpt lat="44.0556396" lon="8.1163623"><ele>49.400000000000006</ele><time>2026-04-03T08:46:02.987Z</time></trkpt><trkpt lat="44.055559" lon="8.1164349"><ele>48.2</ele><time>2026-04-03T08:46:03.988Z</time></trkpt><trkpt lat="44.0554747" lon="8.1164836"><ele>47.0</ele><time>2026-04-03T08:46:04.988Z</time></trkpt><trkpt lat="44.0553997" lon="8.1165246"><ele>47.0</ele><time>2026-04-03T08:46:05.988Z</time></trkpt><trkpt lat="44.0553309" lon="8.1165647"><ele>47.0</ele><time>2026-04-03T08:46:06.988Z</time></trkpt><trkpt lat="44.0552664" lon="8.1166064"><ele>47.0</ele><time>2026-04-03T08:46:07.988Z</time></trkpt><trkpt lat="44.0552056" lon="8.1166438"><ele>47.0</ele><time>2026-04-03T08:46:08.988Z</time></trkpt><trkpt lat="44.0550985" lon="8.1166981"><ele>47.0</ele><time>2026-04-03T08:46:10.987Z</time></trkpt><trkpt lat="44.0550076" lon="8.116607"><ele>47.0</ele><time>2026-04-03T08:46:12.988Z</time></trkpt><trkpt lat="44.0549603" lon="8.1164778"><ele>46.75</ele><time>2026-04-03T08:46:13.987Z</time></trkpt><trkpt lat="44.0549002" lon="8.1163183"><ele>46.5</ele><time>2026-04-03T08:46:14.988Z</time></trkpt><trkpt lat="44.0548288" lon="8.1161309"><ele>46.25</ele><time>2026-04-03T08:46:15.988Z</time></trkpt><trkpt lat="44.0547516" lon="8.1159365"><ele>46.0</ele><time>2026-04-03T08:46:16.988Z</time></trkpt><trkpt lat="44.0546712" lon="8.1157267"><ele>46.0</ele><time>2026-04-03T08:46:17.987Z</time></trkpt><trkpt lat="44.054601" lon="8.1155116"><ele>46.0</ele><time>2026-04-03T08:46:18.987Z</time></trkpt><trkpt lat="44.05454" lon="8.1152884"><ele>46.0</ele><time>2026-04-03T08:46:19.988Z</time></trkpt><trkpt lat="44.0544811" lon="8.1150513"><ele>46.0</ele><time>2026-04-03T08:46:20.988Z</time></trkpt><trkpt lat="44.0544236" lon="8.1148086"><ele>46.0</ele><time>2026-04-03T08:46:21.988Z</time></trkpt><trkpt lat="44.0543688" lon="8.1145726"><ele>46.0</ele><time>2026-04-03T08:46:22.988Z</time></trkpt><trkpt lat="44.0543128" lon="8.1143376"><ele>46.0</ele><time>2026-04-03T08:46:23.988Z</time></trkpt><trkpt lat="44.0542611" lon="8.1141055"><ele>46.0</ele><time>2026-04-03T08:46:24.987Z</time></trkpt><trkpt lat="44.0542133" lon="8.1138731"><ele>46.0</ele><time>2026-04-03T08:46:25.988Z</time></trkpt><trkpt lat="44.0541604" lon="8.1136387"><ele>46.333333333333336</ele><time>2026-04-03T08:46:26.988Z</time></trkpt><trkpt lat="44.0541169" lon="8.1134159"><ele>46.666666666666664</ele><time>2026-04-03T08:46:27.987Z</time></trkpt><trkpt lat="44.0540784" lon="8.1131866"><ele>47.0</ele><time>2026-04-03T08:46:28.988Z</time></trkpt><trkpt lat="44.0540395" lon="8.1129374"><ele>47.0</ele><time>2026-04-03T08:46:29.988Z</time></trkpt><trkpt lat="44.0540073" lon="8.1126836"><ele>47.0</ele><time>2026-04-03T08:46:30.988Z</time></trkpt><trkpt lat="44.0539788" lon="8.1124288"><ele>47.0</ele><time>2026-04-03T08:46:31.988Z</time></trkpt><trkpt lat="44.0539624" lon="8.112173"><ele>46.0</ele><time>2026-04-03T08:46:32.987Z</time></trkpt><trkpt lat="44.0539637" lon="8.1119258"><ele>45.0</ele><time>2026-04-03T08:46:33.988Z</time></trkpt><trkpt lat="44.0539711" lon="8.1116703"><ele>44.0</ele><time>2026-04-03T08:46:34.988Z</time></trkpt><trkpt lat="44.0539804" lon="8.1114127"><ele>44.0</ele><time>2026-04-03T08:46:35.988Z</time></trkpt><trkpt lat="44.0539927" lon="8.1111557"><ele>44.0</ele><time>2026-04-03T08:46:36.987Z</time></trkpt><trkpt lat="44.0540155" lon="8.1108968"><ele>44.0</ele><time>2026-04-03T08:46:37.987Z</time></trkpt><trkpt lat="44.0540392" lon="8.1106531"><ele>44.666666666666664</ele><time>2026-04-03T08:46:38.987Z</time></trkpt><trkpt lat="44.0540714" lon="8.1104208"><ele>45.333333333333336</ele><time>2026-04-03T08:46:39.987Z</time></trkpt><trkpt lat="44.0541052" lon="8.1101784"><ele>46.0</ele><time>2026-04-03T08:46:40.987Z</time></trkpt><trkpt lat="44.0541425" lon="8.1099235"><ele>47.0</ele><time>2026-04-03T08:46:41.988Z</time></trkpt><trkpt lat="44.0541793" lon="8.1096722"><ele>48.0</ele><time>2026-04-03T08:46:42.988Z</time></trkpt><trkpt lat="44.0542072" lon="8.1094256"><ele>49.0</ele><time>2026-04-03T08:46:43.988Z</time></trkpt><trkpt lat="44.0542304" lon="8.1091754"><ele>49.0</ele><time>2026-04-03T08:46:44.987Z</time></trkpt><trkpt lat="44.0542512" lon="8.1089224"><ele>49.0</ele><time>2026-04-03T08:46:45.987Z</time></trkpt><trkpt lat="44.0542773" lon="8.1086843"><ele>49.0</ele><time>2026-04-03T08:46:46.988Z</time></trkpt><trkpt lat="44.0543015" lon="8.108462"><ele>48.666666666666664</ele><time>2026-04-03T08:46:47.988Z</time></trkpt><trkpt lat="44.0543373" lon="8.1082399"><ele>48.33333333333333</ele><time>2026-04-03T08:46:48.988Z</time></trkpt><trkpt lat="44.0543689" lon="8.1080259"><ele>48.0</ele><time>2026-04-03T08:46:49.987Z</time></trkpt><trkpt lat="44.054429" lon="8.1076052"><ele>48.0</ele><time>2026-04-03T08:46:51.988Z</time></trkpt><trkpt lat="44.054467" lon="8.1073868"><ele>48.0</ele><time>2026-04-03T08:46:52.988Z</time></trkpt><trkpt lat="44.0545015" lon="8.1071611"><ele>48.0</ele><time>2026-04-03T08:46:53.988Z</time></trkpt><trkpt lat="44.0545347" lon="8.1069311"><ele>48.0</ele><time>2026-04-03T08:46:54.988Z</time></trkpt><trkpt lat="44.0545579" lon="8.1066963"><ele>48.0</ele><time>2026-04-03T08:46:55.988Z</time></trkpt><trkpt lat="44.0545794" lon="8.1064618"><ele>48.0</ele><time>2026-04-03T08:46:56.988Z</time></trkpt><trkpt lat="44.0545791" lon="8.1062214"><ele>48.25</ele><time>2026-04-03T08:46:57.987Z</time></trkpt><trkpt lat="44.0545871" lon="8.1060025"><ele>48.5</ele><time>2026-04-03T08:46:58.988Z</time></trkpt><trkpt lat="44.0545806" lon="8.1057994"><ele>48.75</ele><time>2026-04-03T08:46:59.988Z</time></trkpt><trkpt lat="44.0545745" lon="8.1056079"><ele>49.0</ele><time>2026-04-03T08:47:00.987Z</time></trkpt><trkpt lat="44.05455" lon="8.1054283"><ele>49.75</ele><time>2026-04-03T08:47:01.988Z</time></trkpt><trkpt lat="44.0545167" lon="8.105255"><ele>50.5</ele><time>2026-04-03T08:47:02.988Z</time></trkpt><trkpt lat="44.0544964" lon="8.1050924"><ele>51.25</ele><time>2026-04-03T08:47:03.988Z</time></trkpt><trkpt lat="44.0544789" lon="8.1049242"><ele>52.0</ele><time>2026-04-03T08:47:04.987Z</time></trkpt><trkpt lat="44.0544658" lon="8.1047456"><ele>52.25</ele><time>2026-04-03T08:47:05.988Z</time></trkpt><trkpt lat="44.0544536" lon="8.1045612"><ele>52.5</ele><time>2026-04-03T08:47:06.988Z</time></trkpt><trkpt lat="44.0544405" lon="8.104369"><ele>52.75</ele><time>2026-04-03T08:47:07.987Z</time></trkpt><trkpt lat="44.0544257" lon="8.1041769"><ele>53.0</ele><time>2026-04-03T08:47:08.987Z</time></trkpt><trkpt lat="44.0543847" lon="8.1037935"><ele>53.5</ele><time>2026-04-03T08:47:10.987Z</time></trkpt><trkpt lat="44.054365" lon="8.1036177"><ele>54.0</ele><time>2026-04-03T08:47:11.988Z</time></trkpt><trkpt lat="44.054344" lon="8.1034446"><ele>54.5</ele><time>2026-04-03T08:47:12.988Z</time></trkpt><trkpt lat="44.05433" lon="8.1032871"><ele>55.0</ele><time>2026-04-03T08:47:13.988Z</time></trkpt><trkpt lat="44.0543192" lon="8.1031413"><ele>55.6</ele><time>2026-04-03T08:47:14.987Z</time></trkpt><trkpt lat="44.0542992" lon="8.1029971"><ele>56.2</ele><time>2026-04-03T08:47:15.988Z</time></trkpt><trkpt lat="44.0542839" lon="8.1028735"><ele>56.8</ele><time>2026-04-03T08:47:16.988Z</time></trkpt><trkpt lat="44.0542762" lon="8.1027721"><ele>57.4</ele><time>2026-04-03T08:47:17.988Z</time></trkpt><trkpt lat="44.0542729" lon="8.1026443"><ele>58.0</ele><time>2026-04-03T08:47:19.988Z</time></trkpt><trkpt lat="44.0542077" lon="8.1025538"><ele>57.75</ele><time>2026-04-03T08:47:25.988Z</time></trkpt><trkpt lat="44.0541169" lon="8.1024472"><ele>57.5</ele><time>2026-04-03T08:47:27.988Z</time></trkpt><trkpt lat="44.0540497" lon="8.1023458"><ele>57.25</ele><time>2026-04-03T08:47:28.987Z</time></trkpt><trkpt lat="44.0539666" lon="8.1022284"><ele>57.0</ele><time>2026-04-03T08:47:29.988Z</time></trkpt><trkpt lat="44.0538797" lon="8.1021109"><ele>57.0</ele><time>2026-04-03T08:47:30.987Z</time></trkpt><trkpt lat="44.0537978" lon="8.1020002"><ele>57.0</ele><time>2026-04-03T08:47:31.988Z</time></trkpt><trkpt lat="44.0537184" lon="8.101893"><ele>57.0</ele><time>2026-04-03T08:47:32.988Z</time></trkpt><trkpt lat="44.0536413" lon="8.1017853"><ele>57.0</ele><time>2026-04-03T08:47:33.988Z</time></trkpt><trkpt lat="44.05357" lon="8.1016725"><ele>57.0</ele><time>2026-04-03T08:47:34.988Z</time></trkpt><trkpt lat="44.0535067" lon="8.101542"><ele>57.5</ele><time>2026-04-03T08:47:35.988Z</time></trkpt><trkpt lat="44.0534424" lon="8.1014017"><ele>58.0</ele><time>2026-04-03T08:47:36.988Z</time></trkpt><trkpt lat="44.0533823" lon="8.1012498"><ele>58.5</ele><time>2026-04-03T08:47:37.988Z</time></trkpt><trkpt lat="44.053336" lon="8.1010852"><ele>59.0</ele><time>2026-04-03T08:47:38.987Z</time></trkpt><trkpt lat="44.0533025" lon="8.100921"><ele>58.25</ele><time>2026-04-03T08:47:39.988Z</time></trkpt><trkpt lat="44.0532772" lon="8.1007512"><ele>57.5</ele><time>2026-04-03T08:47:40.988Z</time></trkpt><trkpt lat="44.0532595" lon="8.1005794"><ele>56.75</ele><time>2026-04-03T08:47:41.988Z</time></trkpt><trkpt lat="44.0532389" lon="8.1004123"><ele>56.0</ele><time>2026-04-03T08:47:42.988Z</time></trkpt><trkpt lat="44.05322" lon="8.1002484"><ele>56.0</ele><time>2026-04-03T08:47:43.988Z</time></trkpt><trkpt lat="44.0532092" lon="8.1000834"><ele>56.0</ele><time>2026-04-03T08:47:44.988Z</time></trkpt><trkpt lat="44.053202" lon="8.099918"><ele>56.0</ele><time>2026-04-03T08:47:45.987Z</time></trkpt><trkpt lat="44.0531949" lon="8.0997584"><ele>56.0</ele><time>2026-04-03T08:47:46.987Z</time></trkpt><trkpt lat="44.0531898" lon="8.099603"><ele>56.199999999999996</ele><time>2026-04-03T08:47:47.988Z</time></trkpt><trkpt lat="44.0531891" lon="8.0994666"><ele>56.39999999999999</ele><time>2026-04-03T08:47:48.988Z</time></trkpt><trkpt lat="44.0532074" lon="8.0992569"><ele>56.6</ele><time>2026-04-03T08:47:50.988Z</time></trkpt><trkpt lat="44.0531905" lon="8.0991417"><ele>56.8</ele><time>2026-04-03T08:47:52.988Z</time></trkpt><trkpt lat="44.0531089" lon="8.099081"><ele>57.0</ele><time>2026-04-03T08:47:54.988Z</time></trkpt><trkpt lat="44.0530311" lon="8.0990857"><ele>57.0</ele><time>2026-04-03T08:47:55.988Z</time></trkpt><trkpt lat="44.0529317" lon="8.0991033"><ele>57.0</ele><time>2026-04-03T08:47:56.988Z</time></trkpt><trkpt lat="44.0528171" lon="8.0991151"><ele>57.0</ele><time>2026-04-03T08:47:57.988Z</time></trkpt><trkpt lat="44.0527013" lon="8.0991242"><ele>57.0</ele><time>2026-04-03T08:47:58.988Z</time></trkpt><trkpt lat="44.0525832" lon="8.099126"><ele>57.0</ele><time>2026-04-03T08:47:59.988Z</time></trkpt><trkpt lat="44.052459" lon="8.0991298"><ele>56.0</ele><time>2026-04-03T08:48:00.988Z</time></trkpt><trkpt lat="44.0523361" lon="8.0991383"><ele>55.0</ele><time>2026-04-03T08:48:01.988Z</time></trkpt><trkpt lat="44.0522198" lon="8.0991408"><ele>54.0</ele><time>2026-04-03T08:48:02.988Z</time></trkpt><trkpt lat="44.0521039" lon="8.0991424"><ele>53.0</ele><time>2026-04-03T08:48:03.987Z</time></trkpt><trkpt lat="44.0519945" lon="8.0991461"><ele>53.0</ele><time>2026-04-03T08:48:04.988Z</time></trkpt><trkpt lat="44.0518887" lon="8.0991407"><ele>53.0</ele><time>2026-04-03T08:48:05.988Z</time></trkpt><trkpt lat="44.0517799" lon="8.0991371"><ele>53.0</ele><time>2026-04-03T08:48:06.988Z</time></trkpt><trkpt lat="44.0516726" lon="8.0991365"><ele>53.0</ele><time>2026-04-03T08:48:07.988Z</time></trkpt><trkpt lat="44.0515637" lon="8.0991299"><ele>53.0</ele><time>2026-04-03T08:48:08.987Z</time></trkpt><trkpt lat="44.0513734" lon="8.0991276"><ele>56.8</ele><time>2026-04-03T08:48:10.988Z</time></trkpt><trkpt lat="44.0512854" lon="8.0991259"><ele>60.599999999999994</ele><time>2026-04-03T08:48:11.988Z</time></trkpt><trkpt lat="44.0511153" lon="8.0991097"><ele>64.4</ele><time>2026-04-03T08:48:13.988Z</time></trkpt><trkpt lat="44.0510535" lon="8.0990849"><ele>68.2</ele><time>2026-04-03T08:48:14.988Z</time></trkpt><trkpt lat="44.0509881" lon="8.0989445"><ele>72.0</ele><time>2026-04-03T08:48:16.988Z</time></trkpt><trkpt lat="44.0509678" lon="8.0988408"><ele>72.25</ele><time>2026-04-03T08:48:17.988Z</time></trkpt><trkpt lat="44.0509536" lon="8.0986974"><ele>72.5</ele><time>2026-04-03T08:48:18.987Z</time></trkpt><trkpt lat="44.0509257" lon="8.0984014"><ele>72.75</ele><time>2026-04-03T08:48:20.988Z</time></trkpt><trkpt lat="44.0509022" lon="8.0982774"><ele>73.0</ele><time>2026-04-03T08:48:21.987Z</time></trkpt><trkpt lat="44.0508735" lon="8.0981647"><ele>74.0</ele><time>2026-04-03T08:48:22.988Z</time></trkpt><trkpt lat="44.0508525" lon="8.0980676"><ele>75.0</ele><time>2026-04-03T08:48:23.988Z</time></trkpt><trkpt lat="44.0509338" lon="8.0978571"><ele>76.0</ele><time>2026-04-03T08:48:26.988Z</time></trkpt><trkpt lat="44.0509872" lon="8.0976918"><ele>77.0</ele><time>2026-04-03T08:48:28.987Z</time></trkpt><trkpt lat="44.0509984" lon="8.0975726"><ele>77.0</ele><time>2026-04-03T08:48:29.987Z</time></trkpt><trkpt lat="44.0510057" lon="8.0974315"><ele>77.0</ele><time>2026-04-03T08:48:30.987Z</time></trkpt><trkpt lat="44.0510321" lon="8.097103"><ele>77.0</ele><time>2026-04-03T08:48:32.987Z</time></trkpt><trkpt lat="44.0510442" lon="8.0969232"><ele>83.66666666666667</ele><time>2026-04-03T08:48:33.988Z</time></trkpt><trkpt lat="44.0510799" lon="8.0965337"><ele>90.33333333333334</ele><time>2026-04-03T08:48:35.987Z</time></trkpt><trkpt lat="44.0511045" lon="8.0963336"><ele>97.0</ele><time>2026-04-03T08:48:36.987Z</time></trkpt><trkpt lat="44.0511493" lon="8.095922"><ele>99.0</ele><time>2026-04-03T08:48:38.987Z</time></trkpt><trkpt lat="44.0511722" lon="8.095727"><ele>101.0</ele><time>2026-04-03T08:48:39.987Z</time></trkpt><trkpt lat="44.0511992" lon="8.0955316"><ele>103.0</ele><time>2026-04-03T08:48:40.987Z</time></trkpt><trkpt lat="44.0512274" lon="8.0953389"><ele>105.0</ele><time>2026-04-03T08:48:41.987Z</time></trkpt><trkpt lat="44.0512496" lon="8.0951475"><ele>105.0</ele><time>2026-04-03T08:48:42.986Z</time></trkpt><trkpt lat="44.051275" lon="8.0949665"><ele>105.0</ele><time>2026-04-03T08:48:43.987Z</time></trkpt><trkpt lat="44.0512977" lon="8.0947882"><ele>105.0</ele><time>2026-04-03T08:48:44.987Z</time></trkpt><trkpt lat="44.0513269" lon="8.0946053"><ele>105.0</ele><time>2026-04-03T08:48:45.986Z</time></trkpt><trkpt lat="44.0513555" lon="8.0944183"><ele>105.0</ele><time>2026-04-03T08:48:46.987Z</time></trkpt><trkpt lat="44.0513911" lon="8.0942225"><ele>105.0</ele><time>2026-04-03T08:48:47.986Z</time></trkpt><trkpt lat="44.051412" lon="8.0940232"><ele>105.0</ele><time>2026-04-03T08:48:48.987Z</time></trkpt><trkpt lat="44.0514341" lon="8.0938532"><ele>105.0</ele><time>2026-04-03T08:48:49.986Z</time></trkpt><trkpt lat="44.0514543" lon="8.0937027"><ele>105.5</ele><time>2026-04-03T08:48:50.987Z</time></trkpt><trkpt lat="44.0514618" lon="8.0935652"><ele>106.0</ele><time>2026-04-03T08:48:51.987Z</time></trkpt><trkpt lat="44.0514616" lon="8.0934498"><ele>106.5</ele><time>2026-04-03T08:48:52.987Z</time></trkpt><trkpt lat="44.0514656" lon="8.0933498"><ele>107.0</ele><time>2026-04-03T08:48:53.986Z</time></trkpt><trkpt lat="44.0514328" lon="8.0932503"><ele>107.5</ele><time>2026-04-03T08:48:55.987Z</time></trkpt><trkpt lat="44.0513655" lon="8.0932605"><ele>108.0</ele><time>2026-04-03T08:49:09.986Z</time></trkpt><trkpt lat="44.051295" lon="8.0932786"><ele>108.0</ele><time>2026-04-03T08:49:15.986Z</time></trkpt><trkpt lat="44.0512348" lon="8.09325"><ele>108.0</ele><time>2026-04-03T08:49:21.987Z</time></trkpt><trkpt lat="44.05119" lon="8.0933131"><ele>108.0</ele><time>2026-04-03T08:49:24.987Z</time></trkpt><trkpt lat="44.0511555" lon="8.0934187"><ele>108.0</ele><time>2026-04-03T08:49:28.987Z</time></trkpt><trkpt lat="44.0510922" lon="8.0934392"><ele>108.0</ele><time>2026-04-03T08:49:34.986Z</time></trkpt><trkpt lat="44.0510329" lon="8.093334"><ele>108.0</ele><time>2026-04-03T08:49:46.987Z</time></trkpt><trkpt lat="44.0509725" lon="8.0932993"><ele>108.0</ele><time>2026-04-03T08:49:50.987Z</time></trkpt><trkpt lat="44.0509088" lon="8.0933551"><ele>108.0</ele><time>2026-04-03T08:49:54.987Z</time></trkpt><trkpt lat="44.0508232" lon="8.0932649"><ele>108.0</ele><time>2026-04-03T08:52:33.985Z</time></trkpt><trkpt lat="44.0507821" lon="8.0931697"><ele>108.0</ele><time>2026-04-03T08:52:37.986Z</time></trkpt><trkpt lat="44.0507712" lon="8.0930726"><ele>108.0</ele><time>2026-04-03T08:52:40.986Z</time></trkpt><trkpt lat="44.0507716" lon="8.0929762"><ele>108.0</ele><time>2026-04-03T08:52:42.986Z</time></trkpt><trkpt lat="44.0507684" lon="8.0928741"><ele>108.0</ele><time>2026-04-03T08:52:44.985Z</time></trkpt><trkpt lat="44.0507564" lon="8.0927677"><ele>116.66666666666667</ele><time>2026-04-03T08:52:47.986Z</time></trkpt><trkpt lat="44.0507307" lon="8.0928823"><ele>125.33333333333334</ele><time>2026-04-03T08:52:52.985Z</time></trkpt><trkpt lat="44.0506725" lon="8.0929267"><ele>134.0</ele><time>2026-04-03T08:52:55.986Z</time></trkpt><trkpt lat="44.0506122" lon="8.0930009"><ele>142.66666666666669</ele><time>2026-04-03T08:53:02.986Z</time></trkpt><trkpt lat="44.0505925" lon="8.0930922"><ele>151.33333333333334</ele><time>2026-04-03T08:53:04.986Z</time></trkpt><trkpt lat="44.0505404" lon="8.0931506"><ele>160.0</ele><time>2026-04-03T08:53:07.986Z</time></trkpt><trkpt lat="44.0504507" lon="8.0930456"><ele>160.0</ele><time>2026-04-03T08:53:12.986Z</time></trkpt><trkpt lat="44.0503967" lon="8.0929992"><ele>160.0</ele><time>2026-04-03T08:53:15.985Z</time></trkpt><trkpt lat="44.0503556" lon="8.093089"><ele>160.0</ele><time>2026-04-03T08:53:21.986Z</time></trkpt><trkpt lat="44.050334" lon="8.0931744"><ele>160.0</ele><time>2026-04-03T08:53:23.985Z</time></trkpt><trkpt lat="44.0502997" lon="8.093265"><ele>160.0</ele><time>2026-04-03T08:53:25.985Z</time></trkpt><trkpt lat="44.0502239" lon="8.0933605"><ele>160.0</ele><time>2026-04-03T08:53:28.986Z</time></trkpt><trkpt lat="44.0501451" lon="8.0933817"><ele>158.16666666666669</ele><time>2026-04-03T08:53:31.986Z</time></trkpt><trkpt lat="44.0500844" lon="8.093419"><ele>156.33333333333334</ele><time>2026-04-03T08:53:33.986Z</time></trkpt><trkpt lat="44.0500198" lon="8.0934859"><ele>154.5</ele><time>2026-04-03T08:53:36.986Z</time></trkpt><trkpt lat="44.0499853" lon="8.0935602"><ele>152.66666666666666</ele><time>2026-04-03T08:53:42.985Z</time></trkpt><trkpt lat="44.0499057" lon="8.0936664"><ele>150.83333333333331</ele><time>2026-04-03T08:54:17.986Z</time></trkpt><trkpt lat="44.0498464" lon="8.093728"><ele>149.0</ele><time>2026-04-03T08:54:20.986Z</time></trkpt><trkpt lat="44.0497739" lon="8.093807"><ele>153.28571428571428</ele><time>2026-04-03T08:54:45.986Z</time></trkpt><trkpt lat="44.049703" lon="8.0938686"><ele>157.57142857142856</ele><time>2026-04-03T08:54:48.985Z</time></trkpt><trkpt lat="44.0496477" lon="8.0939294"><ele>161.85714285714286</ele><time>2026-04-03T08:54:51.986Z</time></trkpt><trkpt lat="44.0496123" lon="8.0940068"><ele>166.14285714285714</ele><time>2026-04-03T08:54:54.986Z</time></trkpt><trkpt lat="44.0495601" lon="8.0940585"><ele>170.42857142857144</ele><time>2026-04-03T08:54:57.985Z</time></trkpt><trkpt lat="44.0494951" lon="8.0941521"><ele>174.71428571428572</ele><time>2026-04-03T08:55:10.986Z</time></trkpt><trkpt lat="44.0494544" lon="8.0942322"><ele>179.0</ele><time>2026-04-03T08:55:12.985Z</time></trkpt><trkpt lat="44.0493573" lon="8.0943229"><ele>179.0</ele><time>2026-04-03T08:55:15.986Z</time></trkpt><trkpt lat="44.0492788" lon="8.0942983"><ele>179.0</ele><time>2026-04-03T08:55:31.985Z</time></trkpt><trkpt lat="44.0492104" lon="8.0943363"><ele>179.0</ele><time>2026-04-03T08:55:37.984Z</time></trkpt><trkpt lat="44.0491718" lon="8.0944192"><ele>179.0</ele><time>2026-04-03T08:55:40.985Z</time></trkpt><trkpt lat="44.0491079" lon="8.094492"><ele>179.0</ele><time>2026-04-03T08:55:48.985Z</time></trkpt><trkpt lat="44.0490656" lon="8.0945669"><ele>179.0</ele><time>2026-04-03T08:55:50.985Z</time></trkpt><trkpt lat="44.049027" lon="8.0946646"><ele>183.83333333333331</ele><time>2026-04-03T08:55:53.984Z</time></trkpt><trkpt lat="44.0489898" lon="8.094748"><ele>188.66666666666666</ele><time>2026-04-03T08:55:55.985Z</time></trkpt><trkpt lat="44.0489316" lon="8.0948348"><ele>193.5</ele><time>2026-04-03T08:55:57.985Z</time></trkpt><trkpt lat="44.0488625" lon="8.0949199"><ele>198.33333333333331</ele><time>2026-04-03T08:56:00.985Z</time></trkpt><trkpt lat="44.0487854" lon="8.0950326"><ele>203.16666666666666</ele><time>2026-04-03T08:56:03.984Z</time></trkpt><trkpt lat="44.0487371" lon="8.0950933"><ele>208.0</ele><time>2026-04-03T08:56:05.985Z</time></trkpt><trkpt lat="44.0486582" lon="8.0951584"><ele>208.0</ele><time>2026-04-03T08:56:08.985Z</time></trkpt><trkpt lat="44.0486003" lon="8.0952272"><ele>208.0</ele><time>2026-04-03T08:56:10.985Z</time></trkpt><trkpt lat="44.0485154" lon="8.0952622"><ele>208.0</ele><time>2026-04-03T08:56:12.984Z</time></trkpt><trkpt lat="44.0484119" lon="8.0952517"><ele>208.0</ele><time>2026-04-03T08:56:14.985Z</time></trkpt><trkpt lat="44.0483449" lon="8.0952303"><ele>208.0</ele><time>2026-04-03T08:56:15.985Z</time></trkpt><trkpt lat="44.0482361" lon="8.0951887"><ele>212.60000000000002</ele><time>2026-04-03T08:56:17.985Z</time></trkpt><trkpt lat="44.0481351" lon="8.0951588"><ele>217.20000000000002</ele><time>2026-04-03T08:56:19.985Z</time></trkpt><trkpt lat="44.0480192" lon="8.0951666"><ele>221.8</ele><time>2026-04-03T08:56:21.985Z</time></trkpt><trkpt lat="44.0479052" lon="8.0952258"><ele>226.4</ele><time>2026-04-03T08:56:23.985Z</time></trkpt><trkpt lat="44.0478469" lon="8.0952743"><ele>231.0</ele><time>2026-04-03T08:56:24.985Z</time></trkpt><trkpt lat="44.0477184" lon="8.0954051"><ele>231.0</ele><time>2026-04-03T08:56:26.984Z</time></trkpt><trkpt lat="44.047655" lon="8.0954549"><ele>231.00000000000003</ele><time>2026-04-03T08:56:27.984Z</time></trkpt><trkpt lat="44.0475757" lon="8.0954865"><ele>231.00000000000003</ele><time>2026-04-03T08:56:28.984Z</time></trkpt><trkpt lat="44.047406" lon="8.0955515"><ele>231.0</ele><time>2026-04-03T08:56:30.984Z</time></trkpt><trkpt lat="44.0473248" lon="8.0955868"><ele>231.0</ele><time>2026-04-03T08:56:31.985Z</time></trkpt><trkpt lat="44.0472516" lon="8.0956044"><ele>236.0</ele><time>2026-04-03T08:56:32.984Z</time></trkpt><trkpt lat="44.0471793" lon="8.0956029"><ele>241.0</ele><time>2026-04-03T08:56:33.985Z</time></trkpt><trkpt lat="44.0470999" lon="8.0956006"><ele>246.0</ele><time>2026-04-03T08:56:34.985Z</time></trkpt><trkpt lat="44.0469564" lon="8.0955978"><ele>251.0</ele><time>2026-04-03T08:56:36.984Z</time></trkpt><trkpt lat="44.0467835" lon="8.0955868"><ele>250.99999999999997</ele><time>2026-04-03T08:56:39.985Z</time></trkpt><trkpt lat="44.0467231" lon="8.0955422"><ele>251.0</ele><time>2026-04-03T08:56:40.985Z</time></trkpt><trkpt lat="44.046663" lon="8.0954911"><ele>250.99999999999997</ele><time>2026-04-03T08:56:41.985Z</time></trkpt><trkpt lat="44.0465979" lon="8.0954313"><ele>250.99999999999997</ele><time>2026-04-03T08:56:42.985Z</time></trkpt><trkpt lat="44.0465378" lon="8.0953845"><ele>251.0</ele><time>2026-04-03T08:56:43.985Z</time></trkpt><trkpt lat="44.0464607" lon="8.0953461"><ele>250.99999999999997</ele><time>2026-04-03T08:56:45.985Z</time></trkpt><trkpt lat="44.0463978" lon="8.0954096"><ele>250.99999999999997</ele><time>2026-04-03T08:57:15.985Z</time></trkpt><trkpt lat="44.0463402" lon="8.0954714"><ele>253.83333333333334</ele><time>2026-04-03T08:57:17.984Z</time></trkpt><trkpt lat="44.0462679" lon="8.0955465"><ele>256.6666666666667</ele><time>2026-04-03T08:57:20.984Z</time></trkpt><trkpt lat="44.0462744" lon="8.0953728"><ele>259.5</ele><time>2026-04-03T08:57:25.985Z</time></trkpt><trkpt lat="44.046291" lon="8.0952733"><ele>262.3333333333333</ele><time>2026-04-03T08:57:27.984Z</time></trkpt><trkpt lat="44.0462669" lon="8.0951614"><ele>265.16666666666663</ele><time>2026-04-03T08:58:19.985Z</time></trkpt><trkpt lat="44.0462048" lon="8.0952162"><ele>268.0</ele><time>2026-04-03T08:58:34.985Z</time></trkpt><trkpt lat="44.046128" lon="8.0952934"><ele>268.0</ele><time>2026-04-03T08:58:37.985Z</time></trkpt><trkpt lat="44.0460451" lon="8.0953083"><ele>268.0</ele><time>2026-04-03T08:58:40.984Z</time></trkpt><trkpt lat="44.0459739" lon="8.09532"><ele>268.0</ele><time>2026-04-03T08:58:43.984Z</time></trkpt><trkpt lat="44.0459096" lon="8.0954192"><ele>268.0</ele><time>2026-04-03T08:58:48.984Z</time></trkpt><trkpt lat="44.0458738" lon="8.0955349"><ele>268.0</ele><time>2026-04-03T08:58:52.984Z</time></trkpt><trkpt lat="44.0458198" lon="8.0956872"><ele>264.8333333333333</ele><time>2026-04-03T08:58:56.984Z</time></trkpt><trkpt lat="44.0457988" lon="8.0957925"><ele>261.66666666666663</ele><time>2026-04-03T08:58:58.984Z</time></trkpt><trkpt lat="44.0457657" lon="8.0958747"><ele>258.5</ele><time>2026-04-03T08:59:00.984Z</time></trkpt><trkpt lat="44.0457148" lon="8.095949"><ele>255.33333333333331</ele><time>2026-04-03T08:59:04.984Z</time></trkpt><trkpt lat="44.0456513" lon="8.095973"><ele>252.16666666666666</ele><time>2026-04-03T08:59:07.984Z</time></trkpt><trkpt lat="44.0455452" lon="8.0959851"><ele>249.0</ele><time>2026-04-03T08:59:27.984Z</time></trkpt><trkpt lat="44.0454813" lon="8.0960089"><ele>254.7142857142857</ele><time>2026-04-03T08:59:37.984Z</time></trkpt><trkpt lat="44.0454129" lon="8.0960544"><ele>260.4285714285714</ele><time>2026-04-03T08:59:55.984Z</time></trkpt><trkpt lat="44.0453627" lon="8.0961197"><ele>266.1428571428571</ele><time>2026-04-03T08:59:57.984Z</time></trkpt><trkpt lat="44.045323" lon="8.0961953"><ele>271.85714285714283</ele><time>2026-04-03T09:00:00.984Z</time></trkpt><trkpt lat="44.0452711" lon="8.0962533"><ele>277.57142857142856</ele><time>2026-04-03T09:07:24.981Z</time></trkpt><trkpt lat="44.0452309" lon="8.0963263"><ele>283.2857142857143</ele><time>2026-04-03T09:07:27.981Z</time></trkpt><trkpt lat="44.0451698" lon="8.0963763"><ele>289.0</ele><time>2026-04-03T09:07:29.982Z</time></trkpt><trkpt lat="44.0451114" lon="8.096434"><ele>289.0</ele><time>2026-04-03T09:07:31.981Z</time></trkpt><trkpt lat="44.0450715" lon="8.0965202"><ele>289.0</ele><time>2026-04-03T09:07:33.981Z</time></trkpt><trkpt lat="44.0450463" lon="8.0966302"><ele>289.0</ele><time>2026-04-03T09:07:36.981Z</time></trkpt><trkpt lat="44.0449954" lon="8.0967058"><ele>289.0</ele><time>2026-04-03T09:07:40.982Z</time></trkpt><trkpt lat="44.0449616" lon="8.0967993"><ele>289.0</ele><time>2026-04-03T09:07:43.982Z</time></trkpt><trkpt lat="44.0449468" lon="8.0968983"><ele>289.0</ele><time>2026-04-03T09:07:45.982Z</time></trkpt><trkpt lat="44.044926" lon="8.0969954"><ele>291.0</ele><time>2026-04-03T09:07:47.982Z</time></trkpt><trkpt lat="44.044891" lon="8.0971083"><ele>293.0</ele><time>2026-04-03T09:07:49.981Z</time></trkpt><trkpt lat="44.0448576" lon="8.0972324"><ele>295.0</ele><time>2026-04-03T09:07:51.982Z</time></trkpt><trkpt lat="44.0448287" lon="8.0973531"><ele>297.0</ele><time>2026-04-03T09:07:53.981Z</time></trkpt><trkpt lat="44.0448118" lon="8.09745"><ele>299.0</ele><time>2026-04-03T09:07:55.981Z</time></trkpt><trkpt lat="44.0447965" lon="8.0975685"><ele>301.0</ele><time>2026-04-03T09:07:58.982Z</time></trkpt><trkpt lat="44.0447772" lon="8.0976684"><ele>301.0</ele><time>2026-04-03T09:08:00.982Z</time></trkpt><trkpt lat="44.0447337" lon="8.0977632"><ele>301.0</ele><time>2026-04-03T09:08:02.982Z</time></trkpt><trkpt lat="44.0446679" lon="8.0978241"><ele>301.0</ele><time>2026-04-03T09:08:04.982Z</time></trkpt><trkpt lat="44.0446116" lon="8.0977605"><ele>301.0</ele><time>2026-04-03T09:08:17.982Z</time></trkpt><trkpt lat="44.0445558" lon="8.0976212"><ele>301.0</ele><time>2026-04-03T09:08:49.981Z</time></trkpt><trkpt lat="44.0445266" lon="8.0974972"><ele>301.0</ele><time>2026-04-03T09:08:51.982Z</time></trkpt><trkpt lat="44.0444671" lon="8.0973828"><ele>301.3333333333333</ele><time>2026-04-03T09:08:53.982Z</time></trkpt><trkpt lat="44.0443759" lon="8.0972732"><ele>301.66666666666663</ele><time>2026-04-03T09:08:55.981Z</time></trkpt><trkpt lat="44.0443023" lon="8.0971864"><ele>302.0</ele><time>2026-04-03T09:08:57.981Z</time></trkpt><trkpt lat="44.0442486" lon="8.0971137"><ele>302.3333333333333</ele><time>2026-04-03T09:09:00.981Z</time></trkpt><trkpt lat="44.0442116" lon="8.0970329"><ele>302.6666666666667</ele><time>2026-04-03T09:09:03.98Z</time></trkpt><trkpt lat="44.0441849" lon="8.0969238"><ele>303.0</ele><time>2026-04-03T09:09:05.981Z</time></trkpt><trkpt lat="44.0441583" lon="8.0967578"><ele>303.0</ele><time>2026-04-03T09:09:07.981Z</time></trkpt><trkpt lat="44.0441245" lon="8.0966676"><ele>303.0</ele><time>2026-04-03T09:09:08.98Z</time></trkpt><trkpt lat="44.0440946" lon="8.0965868"><ele>303.0</ele><time>2026-04-03T09:09:09.98Z</time></trkpt><trkpt lat="44.0440554" lon="8.0964696"><ele>303.0</ele><time>2026-04-03T09:09:11.981Z</time></trkpt><trkpt lat="44.0440769" lon="8.0965625"><ele>303.0</ele><time>2026-04-03T09:09:21.981Z</time></trkpt><trkpt lat="44.04414" lon="8.0967078"><ele>303.0</ele><time>2026-04-03T09:09:23.981Z</time></trkpt><trkpt lat="44.0441763" lon="8.0968338"><ele>303.0</ele><time>2026-04-03T09:09:25.98Z</time></trkpt><trkpt lat="44.0441941" lon="8.0969199"><ele>303.0</ele><time>2026-04-03T09:09:27.981Z</time></trkpt><trkpt lat="44.0442143" lon="8.0970035"><ele>303.0</ele><time>2026-04-03T09:09:29.981Z</time></trkpt><trkpt lat="44.0442544" lon="8.0970718"><ele>303.0</ele><time>2026-04-03T09:09:32.981Z</time></trkpt><trkpt lat="44.0442991" lon="8.0971455"><ele>303.0</ele><time>2026-04-03T09:09:51.981Z</time></trkpt><trkpt lat="44.0443536" lon="8.0972349"><ele>303.0</ele><time>2026-04-03T09:09:53.98Z</time></trkpt><trkpt lat="44.0444174" lon="8.0973157"><ele>303.0</ele><time>2026-04-03T09:09:55.981Z</time></trkpt><trkpt lat="44.0444707" lon="8.0973704"><ele>303.0</ele><time>2026-04-03T09:09:57.98Z</time></trkpt><trkpt lat="44.0445081" lon="8.0974618"><ele>303.0</ele><time>2026-04-03T09:09:59.981Z</time></trkpt><trkpt lat="44.0445517" lon="8.0975461"><ele>303.0</ele><time>2026-04-03T09:10:02.98Z</time></trkpt><trkpt lat="44.0445943" lon="8.0974742"><ele>303.0</ele><time>2026-04-03T09:10:05.981Z</time></trkpt><trkpt lat="44.0446243" lon="8.0973407"><ele>303.0</ele><time>2026-04-03T09:10:07.981Z</time></trkpt><trkpt lat="44.044619" lon="8.0971818"><ele>303.0</ele><time>2026-04-03T09:10:09.98Z</time></trkpt><trkpt lat="44.0446105" lon="8.0970843"><ele>303.0</ele><time>2026-04-03T09:10:11.98Z</time></trkpt><trkpt lat="44.0445912" lon="8.0972384"><ele>303.0</ele><time>2026-04-03T09:11:13.981Z</time></trkpt><trkpt lat="44.0445855" lon="8.0973401"><ele>303.0</ele><time>2026-04-03T09:11:14.981Z</time></trkpt><trkpt lat="44.0445839" lon="8.0974406"><ele>303.0</ele><time>2026-04-03T09:11:15.981Z</time></trkpt><trkpt lat="44.0445903" lon="8.0975566"><ele>303.0</ele><time>2026-04-03T09:11:17.981Z</time></trkpt><trkpt lat="44.0445538" lon="8.097445"><ele>303.0</ele><time>2026-04-03T09:11:21.981Z</time></trkpt><trkpt lat="44.0445142" lon="8.0973288"><ele>303.0</ele><time>2026-04-03T09:11:23.98Z</time></trkpt><trkpt lat="44.0444904" lon="8.0972304"><ele>303.0</ele><time>2026-04-03T09:11:25.981Z</time></trkpt><trkpt lat="44.0444501" lon="8.0971245"><ele>303.0</ele><time>2026-04-03T09:11:28.98Z</time></trkpt><trkpt lat="44.0444144" lon="8.0970246"><ele>303.0</ele><time>2026-04-03T09:11:31.981Z</time></trkpt><trkpt lat="44.0443925" lon="8.0968992"><ele>303.0</ele><time>2026-04-03T09:11:34.98Z</time></trkpt><trkpt lat="44.0443723" lon="8.0967453"><ele>303.0</ele><time>2026-04-03T09:11:47.981Z</time></trkpt><trkpt lat="44.0443608" lon="8.0966093"><ele>304.2857142857143</ele><time>2026-04-03T09:11:49.98Z</time></trkpt><trkpt lat="44.0443518" lon="8.0965204"><ele>305.57142857142856</ele><time>2026-04-03T09:11:52.981Z</time></trkpt><trkpt lat="44.0442947" lon="8.0964663"><ele>306.8571428571429</ele><time>2026-04-03T09:12:13.981Z</time></trkpt><trkpt lat="44.044293" lon="8.0963672"><ele>308.1428571428571</ele><time>2026-04-03T09:12:17.98Z</time></trkpt><trkpt lat="44.0443232" lon="8.0962764"><ele>309.4285714285714</ele><time>2026-04-03T09:12:21.981Z</time></trkpt><trkpt lat="44.0443689" lon="8.0961811"><ele>310.7142857142857</ele><time>2026-04-03T09:12:35.979Z</time></trkpt><trkpt lat="44.0443776" lon="8.0963052"><ele>312.0</ele><time>2026-04-03T09:12:54.979Z</time></trkpt><trkpt lat="44.0443898" lon="8.0963939"><ele>312.0</ele><time>2026-04-03T09:12:57.979Z</time></trkpt><trkpt lat="44.044406" lon="8.0964925"><ele>312.0</ele><time>2026-04-03T09:13:04.98Z</time></trkpt><trkpt lat="44.0444267" lon="8.0965801"><ele>312.0</ele><time>2026-04-03T09:13:07.98Z</time></trkpt><trkpt lat="44.0444446" lon="8.096687"><ele>312.0</ele><time>2026-04-03T09:13:12.98Z</time></trkpt><trkpt lat="44.0444682" lon="8.0967924"><ele>312.0</ele><time>2026-04-03T09:13:15.979Z</time></trkpt><trkpt lat="44.0444939" lon="8.096889"><ele>312.0</ele><time>2026-04-03T09:13:18.979Z</time></trkpt><trkpt lat="44.0445041" lon="8.0969853"><ele>312.0</ele><time>2026-04-03T09:13:21.979Z</time></trkpt><trkpt lat="44.0445319" lon="8.0971027"><ele>310.5</ele><time>2026-04-03T09:13:24.98Z</time></trkpt><trkpt lat="44.0445249" lon="8.097195"><ele>309.0</ele><time>2026-04-03T09:13:26.98Z</time></trkpt><trkpt lat="44.0444753" lon="8.0972552"><ele>307.5</ele><time>2026-04-03T09:13:30.98Z</time></trkpt><trkpt lat="44.0444075" lon="8.097223"><ele>306.0</ele><time>2026-04-03T09:13:36.98Z</time></trkpt><trkpt lat="44.0443148" lon="8.0971665"><ele>304.5</ele><time>2026-04-03T09:13:38.98Z</time></trkpt><trkpt lat="44.0442513" lon="8.0970676"><ele>303.0</ele><time>2026-04-03T09:13:40.979Z</time></trkpt><trkpt lat="44.0442275" lon="8.0969334"><ele>303.0</ele><time>2026-04-03T09:13:42.98Z</time></trkpt><trkpt lat="44.0442055" lon="8.0967947"><ele>303.0</ele><time>2026-04-03T09:13:44.98Z</time></trkpt><trkpt lat="44.0441712" lon="8.0966874"><ele>303.0</ele><time>2026-04-03T09:13:46.98Z</time></trkpt><trkpt lat="44.0441272" lon="8.0966025"><ele>303.0</ele><time>2026-04-03T09:13:48.98Z</time></trkpt><trkpt lat="44.0440877" lon="8.0965189"><ele>303.0</ele><time>2026-04-03T09:13:50.979Z</time></trkpt><trkpt lat="44.0440571" lon="8.096416"><ele>303.0</ele><time>2026-04-03T09:13:53.98Z</time></trkpt><trkpt lat="44.0440296" lon="8.0963112"><ele>303.0</ele><time>2026-04-03T09:13:55.979Z</time></trkpt><trkpt lat="44.0440093" lon="8.0961431"><ele>303.0</ele><time>2026-04-03T09:13:57.979Z</time></trkpt><trkpt lat="44.0440002" lon="8.096049"><ele>303.0</ele><time>2026-04-03T09:13:58.979Z</time></trkpt><trkpt lat="44.043999" lon="8.0959363"><ele>303.0</ele><time>2026-04-03T09:13:59.98Z</time></trkpt><trkpt lat="44.0440065" lon="8.0958387"><ele>303.0</ele><time>2026-04-03T09:14:00.98Z</time></trkpt><trkpt lat="44.0440417" lon="8.0957407"><ele>303.0</ele><time>2026-04-03T09:14:02.98Z</time></trkpt><trkpt lat="44.044121" lon="8.0957073"><ele>307.8333333333333</ele><time>2026-04-03T09:14:54.979Z</time></trkpt><trkpt lat="44.0442254" lon="8.0956501"><ele>312.6666666666667</ele><time>2026-04-03T09:14:56.98Z</time></trkpt><trkpt lat="44.0442806" lon="8.0956005"><ele>317.5</ele><time>2026-04-03T09:14:57.98Z</time></trkpt><trkpt lat="44.044338" lon="8.0955291"><ele>322.33333333333337</ele><time>2026-04-03T09:14:58.98Z</time></trkpt><trkpt lat="44.0444015" lon="8.0954433"><ele>327.1666666666667</ele><time>2026-04-03T09:14:59.98Z</time></trkpt><trkpt lat="44.0444676" lon="8.0953452"><ele>332.0</ele><time>2026-04-03T09:15:00.98Z</time></trkpt><trkpt lat="44.0445364" lon="8.0952561"><ele>332.0</ele><time>2026-04-03T09:15:01.979Z</time></trkpt><trkpt lat="44.0446014" lon="8.0951639"><ele>332.0</ele><time>2026-04-03T09:15:02.979Z</time></trkpt><trkpt lat="44.044655" lon="8.0950836"><ele>332.0</ele><time>2026-04-03T09:15:03.979Z</time></trkpt><trkpt lat="44.0447041" lon="8.0950279"><ele>332.0</ele><time>2026-04-03T09:15:04.98Z</time></trkpt><trkpt lat="44.0447685" lon="8.094989"><ele>332.0</ele><time>2026-04-03T09:15:06.98Z</time></trkpt><trkpt lat="44.0448345" lon="8.0948881"><ele>332.0</ele><time>2026-04-03T09:15:13.98Z</time></trkpt><trkpt lat="44.0448852" lon="8.0947925"><ele>329.0</ele><time>2026-04-03T09:15:15.979Z</time></trkpt><trkpt lat="44.0449514" lon="8.0946648"><ele>326.0</ele><time>2026-04-03T09:15:17.979Z</time></trkpt><trkpt lat="44.0449923" lon="8.0945759"><ele>323.0</ele><time>2026-04-03T09:15:18.98Z</time></trkpt><trkpt lat="44.0450473" lon="8.0944865"><ele>320.0</ele><time>2026-04-03T09:15:19.98Z</time></trkpt><trkpt lat="44.0451097" lon="8.0944039"><ele>317.0</ele><time>2026-04-03T09:15:20.98Z</time></trkpt><trkpt lat="44.0451894" lon="8.0943163"><ele>317.0</ele><time>2026-04-03T09:15:21.98Z</time></trkpt><trkpt lat="44.0452652" lon="8.0942274"><ele>317.0</ele><time>2026-04-03T09:15:22.98Z</time></trkpt><trkpt lat="44.0453482" lon="8.094129"><ele>317.0</ele><time>2026-04-03T09:15:23.979Z</time></trkpt><trkpt lat="44.0454252" lon="8.0940352"><ele>317.0</ele><time>2026-04-03T09:15:24.98Z</time></trkpt><trkpt lat="44.0454986" lon="8.0939543"><ele>317.0</ele><time>2026-04-03T09:15:25.98Z</time></trkpt><trkpt lat="44.0455532" lon="8.093885"><ele>316.1666666666667</ele><time>2026-04-03T09:15:26.98Z</time></trkpt><trkpt lat="44.0456099" lon="8.093811"><ele>315.33333333333337</ele><time>2026-04-03T09:15:27.979Z</time></trkpt><trkpt lat="44.0456827" lon="8.0937298"><ele>314.5</ele><time>2026-04-03T09:15:28.979Z</time></trkpt><trkpt lat="44.0457462" lon="8.0936373"><ele>313.6666666666667</ele><time>2026-04-03T09:15:29.979Z</time></trkpt><trkpt lat="44.0458071" lon="8.0935582"><ele>312.8333333333333</ele><time>2026-04-03T09:15:30.979Z</time></trkpt><trkpt lat="44.0458672" lon="8.0935036"><ele>312.0</ele><time>2026-04-03T09:15:31.98Z</time></trkpt><trkpt lat="44.0459767" lon="8.0934824"><ele>312.0</ele><time>2026-04-03T09:15:33.98Z</time></trkpt><trkpt lat="44.0460407" lon="8.0934905"><ele>312.0</ele><time>2026-04-03T09:15:34.979Z</time></trkpt><trkpt lat="44.0461184" lon="8.0935135"><ele>312.0</ele><time>2026-04-03T09:15:35.98Z</time></trkpt><trkpt lat="44.0462167" lon="8.0935558"><ele>312.0</ele><time>2026-04-03T09:15:36.979Z</time></trkpt><trkpt lat="44.0463025" lon="8.0936037"><ele>312.0</ele><time>2026-04-03T09:15:37.98Z</time></trkpt><trkpt lat="44.0463764" lon="8.0936659"><ele>312.0</ele><time>2026-04-03T09:15:38.98Z</time></trkpt><trkpt lat="44.0464506" lon="8.0937056"><ele>312.0</ele><time>2026-04-03T09:15:39.98Z</time></trkpt><trkpt lat="44.0465591" lon="8.093707"><ele>312.0</ele><time>2026-04-03T09:15:41.979Z</time></trkpt><trkpt lat="44.0466601" lon="8.093628"><ele>312.0</ele><time>2026-04-03T09:15:43.98Z</time></trkpt><trkpt lat="44.0467114" lon="8.093568"><ele>312.0</ele><time>2026-04-03T09:15:44.98Z</time></trkpt><trkpt lat="44.0467757" lon="8.0935063"><ele>312.0</ele><time>2026-04-03T09:15:45.98Z</time></trkpt><trkpt lat="44.0468515" lon="8.0934342"><ele>310.1666666666667</ele><time>2026-04-03T09:15:46.98Z</time></trkpt><trkpt lat="44.0469318" lon="8.0933553"><ele>308.3333333333333</ele><time>2026-04-03T09:15:47.98Z</time></trkpt><trkpt lat="44.0470194" lon="8.0932977"><ele>306.5</ele><time>2026-04-03T09:15:48.98Z</time></trkpt><trkpt lat="44.0471028" lon="8.0932518"><ele>304.66666666666663</ele><time>2026-04-03T09:15:49.979Z</time></trkpt><trkpt lat="44.0471693" lon="8.093207"><ele>302.8333333333333</ele><time>2026-04-03T09:15:50.98Z</time></trkpt><trkpt lat="44.0472315" lon="8.0931617"><ele>301.0</ele><time>2026-04-03T09:15:51.979Z</time></trkpt><trkpt lat="44.0472891" lon="8.0930962"><ele>300.0</ele><time>2026-04-03T09:15:52.98Z</time></trkpt><trkpt lat="44.0473431" lon="8.0930198"><ele>299.0</ele><time>2026-04-03T09:15:53.979Z</time></trkpt><trkpt lat="44.0473918" lon="8.0929415"><ele>298.0</ele><time>2026-04-03T09:15:54.98Z</time></trkpt><trkpt lat="44.0474311" lon="8.0928348"><ele>297.0</ele><time>2026-04-03T09:15:55.98Z</time></trkpt><trkpt lat="44.0474719" lon="8.0927044"><ele>296.0</ele><time>2026-04-03T09:15:56.979Z</time></trkpt><trkpt lat="44.0475192" lon="8.0925872"><ele>295.0</ele><time>2026-04-03T09:15:57.98Z</time></trkpt><trkpt lat="44.0475713" lon="8.0924922"><ele>297.28571428571433</ele><time>2026-04-03T09:15:58.979Z</time></trkpt><trkpt lat="44.0476261" lon="8.0924094"><ele>299.57142857142856</ele><time>2026-04-03T09:15:59.98Z</time></trkpt><trkpt lat="44.0476838" lon="8.092339"><ele>301.8571428571429</ele><time>2026-04-03T09:16:00.979Z</time></trkpt><trkpt lat="44.0477383" lon="8.0922702"><ele>304.14285714285717</ele><time>2026-04-03T09:16:01.98Z</time></trkpt><trkpt lat="44.0477853" lon="8.0922074"><ele>306.42857142857144</ele><time>2026-04-03T09:16:02.98Z</time></trkpt><trkpt lat="44.0478166" lon="8.0921307"><ele>308.7142857142857</ele><time>2026-04-03T09:16:03.98Z</time></trkpt><trkpt lat="44.0478494" lon="8.0920535"><ele>311.0</ele><time>2026-04-03T09:16:04.98Z</time></trkpt><trkpt lat="44.0479332" lon="8.091932"><ele>311.0</ele><time>2026-04-03T09:16:06.98Z</time></trkpt><trkpt lat="44.0480111" lon="8.091842"><ele>311.0</ele><time>2026-04-03T09:16:08.979Z</time></trkpt><trkpt lat="44.0480765" lon="8.0917863"><ele>311.0</ele><time>2026-04-03T09:16:10.979Z</time></trkpt><trkpt lat="44.0481385" lon="8.0916571"><ele>311.0</ele><time>2026-04-03T09:16:12.979Z</time></trkpt><trkpt lat="44.0481732" lon="8.0915551"><ele>311.0</ele><time>2026-04-03T09:16:13.979Z</time></trkpt><trkpt lat="44.0482028" lon="8.0914272"><ele>309.1666666666667</ele><time>2026-04-03T09:16:14.979Z</time></trkpt><trkpt lat="44.0482306" lon="8.0912974"><ele>307.33333333333337</ele><time>2026-04-03T09:16:15.979Z</time></trkpt><trkpt lat="44.0482543" lon="8.0911802"><ele>305.5</ele><time>2026-04-03T09:16:16.979Z</time></trkpt><trkpt lat="44.0482671" lon="8.0910683"><ele>303.6666666666667</ele><time>2026-04-03T09:16:17.979Z</time></trkpt><trkpt lat="44.0482671" lon="8.0909606"><ele>301.8333333333333</ele><time>2026-04-03T09:16:18.978Z</time></trkpt><trkpt lat="44.0482322" lon="8.0908792"><ele>300.0</ele><time>2026-04-03T09:16:19.978Z</time></trkpt><trkpt lat="44.0481925" lon="8.0908056"><ele>295.6</ele><time>2026-04-03T09:16:20.979Z</time></trkpt><trkpt lat="44.048134" lon="8.0907382"><ele>291.2</ele><time>2026-04-03T09:16:21.978Z</time></trkpt><trkpt lat="44.0480789" lon="8.0906873"><ele>286.8</ele><time>2026-04-03T09:16:22.979Z</time></trkpt><trkpt lat="44.0479884" lon="8.090589"><ele>282.4</ele><time>2026-04-03T09:16:24.979Z</time></trkpt><trkpt lat="44.0478968" lon="8.0904956"><ele>278.0</ele><time>2026-04-03T09:16:26.979Z</time></trkpt><trkpt lat="44.0478294" lon="8.0904284"><ele>278.0</ele><time>2026-04-03T09:16:27.978Z</time></trkpt><trkpt lat="44.0477509" lon="8.0903665"><ele>278.0</ele><time>2026-04-03T09:16:28.979Z</time></trkpt><trkpt lat="44.0476641" lon="8.0902953"><ele>278.0</ele><time>2026-04-03T09:16:29.979Z</time></trkpt><trkpt lat="44.047589" lon="8.0902191"><ele>278.0</ele><time>2026-04-03T09:16:30.979Z</time></trkpt><trkpt lat="44.0475337" lon="8.0901349"><ele>278.0</ele><time>2026-04-03T09:16:31.979Z</time></trkpt><trkpt lat="44.0474978" lon="8.0900606"><ele>278.0</ele><time>2026-04-03T09:16:32.979Z</time></trkpt><trkpt lat="44.0474876" lon="8.0899579"><ele>276.4</ele><time>2026-04-03T09:16:33.979Z</time></trkpt><trkpt lat="44.0474972" lon="8.0897815"><ele>274.8</ele><time>2026-04-03T09:16:35.979Z</time></trkpt><trkpt lat="44.0474867" lon="8.0896786"><ele>273.2</ele><time>2026-04-03T09:16:36.979Z</time></trkpt><trkpt lat="44.0474406" lon="8.0895758"><ele>271.6</ele><time>2026-04-03T09:16:37.978Z</time></trkpt><trkpt lat="44.0473964" lon="8.089465"><ele>270.0</ele><time>2026-04-03T09:16:38.979Z</time></trkpt><trkpt lat="44.0473532" lon="8.0893535"><ele>277.1666666666667</ele><time>2026-04-03T09:16:39.979Z</time></trkpt><trkpt lat="44.0473161" lon="8.0892532"><ele>284.3333333333333</ele><time>2026-04-03T09:16:40.979Z</time></trkpt><trkpt lat="44.0472846" lon="8.0891643"><ele>291.5</ele><time>2026-04-03T09:16:41.979Z</time></trkpt><trkpt lat="44.0472499" lon="8.0890702"><ele>298.66666666666663</ele><time>2026-04-03T09:16:42.978Z</time></trkpt><trkpt lat="44.0472303" lon="8.0889806"><ele>305.8333333333333</ele><time>2026-04-03T09:16:43.979Z</time></trkpt><trkpt lat="44.0472194" lon="8.0888253"><ele>313.0</ele><time>2026-04-03T09:16:45.979Z</time></trkpt><trkpt lat="44.0472813" lon="8.0887542"><ele>310.4</ele><time>2026-04-03T09:16:47.979Z</time></trkpt><trkpt lat="44.0473665" lon="8.0887383"><ele>307.8</ele><time>2026-04-03T09:16:48.979Z</time></trkpt><trkpt lat="44.0474674" lon="8.0887292"><ele>305.2</ele><time>2026-04-03T09:16:49.979Z</time></trkpt><trkpt lat="44.0475892" lon="8.0887369"><ele>302.6</ele><time>2026-04-03T09:16:50.978Z</time></trkpt><trkpt lat="44.0476972" lon="8.0887474"><ele>300.0</ele><time>2026-04-03T09:16:51.979Z</time></trkpt><trkpt lat="44.0477922" lon="8.0887665"><ele>300.0</ele><time>2026-04-03T09:16:52.978Z</time></trkpt><trkpt lat="44.0478667" lon="8.0887687"><ele>300.0</ele><time>2026-04-03T09:16:53.978Z</time></trkpt><trkpt lat="44.047932" lon="8.088758"><ele>300.0</ele><time>2026-04-03T09:16:54.979Z</time></trkpt><trkpt lat="44.0479858" lon="8.0887114"><ele>300.0</ele><time>2026-04-03T09:16:55.979Z</time></trkpt><trkpt lat="44.0480335" lon="8.0886535"><ele>300.0</ele><time>2026-04-03T09:16:56.979Z</time></trkpt><trkpt lat="44.0481116" lon="8.0885267"><ele>300.0</ele><time>2026-04-03T09:16:58.979Z</time></trkpt><trkpt lat="44.048142" lon="8.0884479"><ele>300.0</ele><time>2026-04-03T09:16:59.978Z</time></trkpt><trkpt lat="44.0482197" lon="8.088319"><ele>300.0</ele><time>2026-04-03T09:17:01.979Z</time></trkpt><trkpt lat="44.0483172" lon="8.0882429"><ele>300.0</ele><time>2026-04-03T09:17:03.978Z</time></trkpt><trkpt lat="44.0484281" lon="8.0882103"><ele>300.0</ele><time>2026-04-03T09:17:05.978Z</time></trkpt><trkpt lat="44.0485286" lon="8.0881039"><ele>297.8333333333333</ele><time>2026-04-03T09:17:07.979Z</time></trkpt><trkpt lat="44.0485814" lon="8.0880284"><ele>295.6666666666667</ele><time>2026-04-03T09:17:08.979Z</time></trkpt><trkpt lat="44.0486477" lon="8.0879498"><ele>293.5</ele><time>2026-04-03T09:17:09.979Z</time></trkpt><trkpt lat="44.0487149" lon="8.0878668"><ele>291.33333333333337</ele><time>2026-04-03T09:17:10.979Z</time></trkpt><trkpt lat="44.0487725" lon="8.0877904"><ele>289.1666666666667</ele><time>2026-04-03T09:17:11.979Z</time></trkpt><trkpt lat="44.0488203" lon="8.0877286"><ele>287.0</ele><time>2026-04-03T09:17:12.979Z</time></trkpt><trkpt lat="44.0488884" lon="8.0875937"><ele>287.0</ele><time>2026-04-03T09:17:14.979Z</time></trkpt><trkpt lat="44.0489162" lon="8.0874342"><ele>287.0</ele><time>2026-04-03T09:17:16.979Z</time></trkpt><trkpt lat="44.0489034" lon="8.0872943"><ele>287.0</ele><time>2026-04-03T09:17:18.979Z</time></trkpt><trkpt lat="44.0488538" lon="8.0871526"><ele>287.0</ele><time>2026-04-03T09:17:20.979Z</time></trkpt><trkpt lat="44.0488048" lon="8.0870781"><ele>287.0</ele><time>2026-04-03T09:17:21.979Z</time></trkpt><trkpt lat="44.0487461" lon="8.0869885"><ele>284.0</ele><time>2026-04-03T09:17:22.979Z</time></trkpt><trkpt lat="44.0486933" lon="8.0868944"><ele>281.0</ele><time>2026-04-03T09:17:23.978Z</time></trkpt><trkpt lat="44.0486429" lon="8.0867735"><ele>278.0</ele><time>2026-04-03T09:17:25.978Z</time></trkpt><trkpt lat="44.0485665" lon="8.0866443"><ele>275.0</ele><time>2026-04-03T09:17:27.979Z</time></trkpt><trkpt lat="44.0485056" lon="8.0865792"><ele>272.0</ele><time>2026-04-03T09:17:28.979Z</time></trkpt><trkpt lat="44.0484442" lon="8.0865185"><ele>273.6666666666667</ele><time>2026-04-03T09:17:29.979Z</time></trkpt><trkpt lat="44.0483866" lon="8.0864747"><ele>275.33333333333337</ele><time>2026-04-03T09:17:30.979Z</time></trkpt><trkpt lat="44.048317" lon="8.0863885"><ele>277.0</ele><time>2026-04-03T09:17:32.979Z</time></trkpt><trkpt lat="44.0482566" lon="8.0862844"><ele>278.6666666666667</ele><time>2026-04-03T09:17:33.979Z</time></trkpt><trkpt lat="44.0481812" lon="8.0862025"><ele>280.3333333333333</ele><time>2026-04-03T09:17:34.979Z</time></trkpt><trkpt lat="44.048106" lon="8.0861232"><ele>282.0</ele><time>2026-04-03T09:17:35.978Z</time></trkpt><trkpt lat="44.0480386" lon="8.0860569"><ele>282.0</ele><time>2026-04-03T09:17:36.979Z</time></trkpt><trkpt lat="44.0479776" lon="8.0859989"><ele>282.0</ele><time>2026-04-03T09:17:37.978Z</time></trkpt><trkpt lat="44.0479213" lon="8.0859433"><ele>282.0</ele><time>2026-04-03T09:17:38.979Z</time></trkpt><trkpt lat="44.0478469" lon="8.0858824"><ele>282.0</ele><time>2026-04-03T09:17:40.978Z</time></trkpt><trkpt lat="44.0477931" lon="8.085824"><ele>282.0</ele><time>2026-04-03T09:17:42.978Z</time></trkpt><trkpt lat="44.0477672" lon="8.0857436"><ele>282.0</ele><time>2026-04-03T09:17:44.979Z</time></trkpt><trkpt lat="44.0477775" lon="8.0856311"><ele>282.0</ele><time>2026-04-03T09:17:46.979Z</time></trkpt><trkpt lat="44.0477993" lon="8.0854678"><ele>282.57142857142856</ele><time>2026-04-03T09:17:48.979Z</time></trkpt><trkpt lat="44.0477975" lon="8.0853773"><ele>283.1428571428571</ele><time>2026-04-03T09:17:49.979Z</time></trkpt><trkpt lat="44.0477894" lon="8.0852794"><ele>283.71428571428567</ele><time>2026-04-03T09:17:50.979Z</time></trkpt><trkpt lat="44.0477805" lon="8.0851874"><ele>284.2857142857143</ele><time>2026-04-03T09:17:51.979Z</time></trkpt><trkpt lat="44.0477865" lon="8.0850888"><ele>284.85714285714283</ele><time>2026-04-03T09:17:52.978Z</time></trkpt><trkpt lat="44.0477971" lon="8.0849978"><ele>285.4285714285714</ele><time>2026-04-03T09:17:53.979Z</time></trkpt><trkpt lat="44.0478376" lon="8.0848738"><ele>286.0</ele><time>2026-04-03T09:17:54.978Z</time></trkpt><trkpt lat="44.0478629" lon="8.0847761"><ele>289.1428571428571</ele><time>2026-04-03T09:17:55.979Z</time></trkpt><trkpt lat="44.0478875" lon="8.084694"><ele>292.2857142857143</ele><time>2026-04-03T09:17:56.978Z</time></trkpt><trkpt lat="44.0479366" lon="8.0845974"><ele>295.42857142857144</ele><time>2026-04-03T09:17:57.979Z</time></trkpt><trkpt lat="44.0479989" lon="8.0845341"><ele>298.57142857142856</ele><time>2026-04-03T09:17:58.978Z</time></trkpt><trkpt lat="44.0480607" lon="8.0844979"><ele>301.7142857142857</ele><time>2026-04-03T09:17:59.979Z</time></trkpt><trkpt lat="44.0481336" lon="8.0844743"><ele>304.85714285714283</ele><time>2026-04-03T09:18:00.979Z</time></trkpt><trkpt lat="44.0482009" lon="8.0844285"><ele>308.0</ele><time>2026-04-03T09:18:01.979Z</time></trkpt><trkpt lat="44.0482699" lon="8.0843731"><ele>306.6666666666667</ele><time>2026-04-03T09:18:02.978Z</time></trkpt><trkpt lat="44.0483188" lon="8.084306"><ele>305.33333333333337</ele><time>2026-04-03T09:18:03.978Z</time></trkpt><trkpt lat="44.0483663" lon="8.0842277"><ele>304.0</ele><time>2026-04-03T09:18:04.979Z</time></trkpt><trkpt lat="44.04841" lon="8.0841315"><ele>302.6666666666667</ele><time>2026-04-03T09:18:05.978Z</time></trkpt><trkpt lat="44.0484572" lon="8.0840299"><ele>301.3333333333333</ele><time>2026-04-03T09:18:06.978Z</time></trkpt><trkpt lat="44.0484934" lon="8.0839326"><ele>300.0</ele><time>2026-04-03T09:18:07.978Z</time></trkpt><trkpt lat="44.0485413" lon="8.0837835"><ele>300.0</ele><time>2026-04-03T09:18:09.978Z</time></trkpt><trkpt lat="44.0485466" lon="8.0836935"><ele>300.0</ele><time>2026-04-03T09:18:13.979Z</time></trkpt><trkpt lat="44.0486037" lon="8.0836523"><ele>300.0</ele><time>2026-04-03T09:18:23.978Z</time></trkpt><trkpt lat="44.0487078" lon="8.0835936"><ele>300.0</ele><time>2026-04-03T09:18:25.979Z</time></trkpt><trkpt lat="44.0487693" lon="8.0835621"><ele>300.0</ele><time>2026-04-03T09:18:26.978Z</time></trkpt><trkpt lat="44.0488438" lon="8.0835531"><ele>300.0</ele><time>2026-04-03T09:18:27.979Z</time></trkpt><trkpt lat="44.0489159" lon="8.083555"><ele>300.0</ele><time>2026-04-03T09:18:28.979Z</time></trkpt><trkpt lat="44.0489873" lon="8.0835471"><ele>300.0</ele><time>2026-04-03T09:18:29.979Z</time></trkpt><trkpt lat="44.0490795" lon="8.0834595"><ele>300.0</ele><time>2026-04-03T09:18:31.979Z</time></trkpt><trkpt lat="44.0490769" lon="8.083297"><ele>300.0</ele><time>2026-04-03T09:18:33.979Z</time></trkpt><trkpt lat="44.0490153" lon="8.0831578"><ele>300.0</ele><time>2026-04-03T09:18:35.978Z</time></trkpt><trkpt lat="44.048968" lon="8.0830972"><ele>300.4285714285714</ele><time>2026-04-03T09:18:36.979Z</time></trkpt><trkpt lat="44.0489205" lon="8.083023"><ele>300.85714285714283</ele><time>2026-04-03T09:18:37.978Z</time></trkpt><trkpt lat="44.0488667" lon="8.0829472"><ele>301.2857142857143</ele><time>2026-04-03T09:18:38.979Z</time></trkpt><trkpt lat="44.0488132" lon="8.0828648"><ele>301.71428571428567</ele><time>2026-04-03T09:18:39.979Z</time></trkpt><trkpt lat="44.0487585" lon="8.0827901"><ele>302.1428571428571</ele><time>2026-04-03T09:18:40.979Z</time></trkpt><trkpt lat="44.0487104" lon="8.082722"><ele>302.57142857142856</ele><time>2026-04-03T09:18:41.979Z</time></trkpt><trkpt lat="44.0486514" lon="8.0826764"><ele>303.0</ele><time>2026-04-03T09:18:43.979Z</time></trkpt><trkpt lat="44.0487145" lon="8.082626"><ele>303.0</ele><time>2026-04-03T09:19:08.979Z</time></trkpt><trkpt lat="44.0486465" lon="8.0826318"><ele>303.0</ele><time>2026-04-03T09:19:23.979Z</time></trkpt><trkpt lat="44.0485886" lon="8.0825496"><ele>303.0</ele><time>2026-04-03T09:20:34.977Z</time></trkpt><trkpt lat="44.0485549" lon="8.0824756"><ele>303.0</ele><time>2026-04-03T09:20:41.977Z</time></trkpt><trkpt lat="44.048513" lon="8.0824"><ele>303.0</ele><time>2026-04-03T09:20:45.978Z</time></trkpt><trkpt lat="44.048436" lon="8.0823368"><ele>303.0</ele><time>2026-04-03T09:20:54.977Z</time></trkpt><trkpt lat="44.0483501" lon="8.0822068"><ele>302.0</ele><time>2026-04-03T09:21:47.978Z</time></trkpt><trkpt lat="44.0483068" lon="8.0820748"><ele>301.0</ele><time>2026-04-03T09:22:19.978Z</time></trkpt><trkpt lat="44.0482823" lon="8.0819904"><ele>300.0</ele><time>2026-04-03T09:22:22.977Z</time></trkpt><trkpt lat="44.0482349" lon="8.0819039"><ele>299.0</ele><time>2026-04-03T09:22:33.978Z</time></trkpt><trkpt lat="44.0481793" lon="8.0818274"><ele>298.0</ele><time>2026-04-03T09:22:36.978Z</time></trkpt><trkpt lat="44.0481116" lon="8.0818436"><ele>297.0</ele><time>2026-04-03T09:22:54.978Z</time></trkpt><trkpt lat="44.0481692" lon="8.081983"><ele>297.0</ele><time>2026-04-03T09:26:49.977Z</time></trkpt><trkpt lat="44.0482368" lon="8.0820474"><ele>297.0</ele><time>2026-04-03T09:26:52.977Z</time></trkpt><trkpt lat="44.0483109" lon="8.0821159"><ele>297.0</ele><time>2026-04-03T09:27:08.977Z</time></trkpt><trkpt lat="44.0483549" lon="8.0822052"><ele>297.0</ele><time>2026-04-03T09:27:13.976Z</time></trkpt><trkpt lat="44.0483985" lon="8.0822858"><ele>297.0</ele><time>2026-04-03T09:27:26.977Z</time></trkpt><trkpt lat="44.0484487" lon="8.0823892"><ele>297.0</ele><time>2026-04-03T09:27:38.977Z</time></trkpt><trkpt lat="44.0485084" lon="8.0824657"><ele>297.8571428571429</ele><time>2026-04-03T09:27:41.976Z</time></trkpt><trkpt lat="44.0485609" lon="8.0825573"><ele>298.7142857142857</ele><time>2026-04-03T09:27:43.977Z</time></trkpt><trkpt lat="44.0486046" lon="8.0826211"><ele>299.57142857142856</ele><time>2026-04-03T09:27:44.977Z</time></trkpt><trkpt lat="44.0486467" lon="8.0826942"><ele>300.42857142857144</ele><time>2026-04-03T09:27:45.976Z</time></trkpt><trkpt lat="44.0486799" lon="8.0827692"><ele>301.2857142857143</ele><time>2026-04-03T09:27:46.977Z</time></trkpt><trkpt lat="44.0487025" lon="8.0828555"><ele>302.14285714285717</ele><time>2026-04-03T09:27:47.977Z</time></trkpt><trkpt lat="44.0487133" lon="8.0829522"><ele>303.0</ele><time>2026-04-03T09:27:48.977Z</time></trkpt><trkpt lat="44.0487175" lon="8.083046"><ele>303.0</ele><time>2026-04-03T09:27:49.976Z</time></trkpt><trkpt lat="44.0487073" lon="8.0831872"><ele>303.0</ele><time>2026-04-03T09:27:51.977Z</time></trkpt><trkpt lat="44.04865" lon="8.0832489"><ele>303.0</ele><time>2026-04-03T09:27:53.976Z</time></trkpt><trkpt lat="44.0485511" lon="8.0832797"><ele>303.0</ele><time>2026-04-03T09:27:55.976Z</time></trkpt><trkpt lat="44.0484899" lon="8.0833188"><ele>303.0</ele><time>2026-04-03T09:27:56.976Z</time></trkpt><trkpt lat="44.0484229" lon="8.0833623"><ele>303.0</ele><time>2026-04-03T09:27:57.977Z</time></trkpt><trkpt lat="44.0483585" lon="8.0834093"><ele>302.4</ele><time>2026-04-03T09:27:58.977Z</time></trkpt><trkpt lat="44.0482968" lon="8.0834578"><ele>301.8</ele><time>2026-04-03T09:27:59.976Z</time></trkpt><trkpt lat="44.0481979" lon="8.0835361"><ele>301.2</ele><time>2026-04-03T09:28:01.977Z</time></trkpt><trkpt lat="44.0481452" lon="8.0836596"><ele>300.6</ele><time>2026-04-03T09:28:03.977Z</time></trkpt><trkpt lat="44.0480885" lon="8.0837817"><ele>300.0</ele><time>2026-04-03T09:28:05.977Z</time></trkpt><trkpt lat="44.0479945" lon="8.0838135"><ele>304.71428571428567</ele><time>2026-04-03T09:28:07.977Z</time></trkpt><trkpt lat="44.0479305" lon="8.0838141"><ele>309.42857142857144</ele><time>2026-04-03T09:28:08.976Z</time></trkpt><trkpt lat="44.0478617" lon="8.0838224"><ele>314.1428571428571</ele><time>2026-04-03T09:28:09.976Z</time></trkpt><trkpt lat="44.0477984" lon="8.0838418"><ele>318.85714285714283</ele><time>2026-04-03T09:28:10.977Z</time></trkpt><trkpt lat="44.0477321" lon="8.0838662"><ele>323.57142857142856</ele><time>2026-04-03T09:28:11.977Z</time></trkpt><trkpt lat="44.0476694" lon="8.0838844"><ele>328.2857142857143</ele><time>2026-04-03T09:28:12.976Z</time></trkpt><trkpt lat="44.0475597" lon="8.083891"><ele>333.0</ele><time>2026-04-03T09:28:14.977Z</time></trkpt><trkpt lat="44.0474889" lon="8.0839086"><ele>334.8333333333333</ele><time>2026-04-03T09:28:15.976Z</time></trkpt><trkpt lat="44.0474241" lon="8.0839361"><ele>336.6666666666667</ele><time>2026-04-03T09:28:16.977Z</time></trkpt><trkpt lat="44.0473288" lon="8.0840262"><ele>338.5</ele><time>2026-04-03T09:28:18.977Z</time></trkpt><trkpt lat="44.0473095" lon="8.0841161"><ele>340.33333333333337</ele><time>2026-04-03T09:28:19.977Z</time></trkpt><trkpt lat="44.0473098" lon="8.0842358"><ele>342.1666666666667</ele><time>2026-04-03T09:28:20.976Z</time></trkpt><trkpt lat="44.0473231" lon="8.0843707"><ele>344.0</ele><time>2026-04-03T09:28:21.976Z</time></trkpt><trkpt lat="44.0473389" lon="8.0844977"><ele>344.0</ele><time>2026-04-03T09:28:22.976Z</time></trkpt><trkpt lat="44.0473373" lon="8.0846061"><ele>344.0</ele><time>2026-04-03T09:28:23.976Z</time></trkpt><trkpt lat="44.0472724" lon="8.0847182"><ele>344.0</ele><time>2026-04-03T09:28:25.976Z</time></trkpt><trkpt lat="44.0471594" lon="8.0846841"><ele>344.0</ele><time>2026-04-03T09:28:27.976Z</time></trkpt><trkpt lat="44.0471" lon="8.0846486"><ele>344.0</ele><time>2026-04-03T09:28:28.975Z</time></trkpt><trkpt lat="44.0470151" lon="8.084618"><ele>344.0</ele><time>2026-04-03T09:28:29.976Z</time></trkpt><trkpt lat="44.0469217" lon="8.0846029"><ele>344.0</ele><time>2026-04-03T09:28:30.975Z</time></trkpt><trkpt lat="44.0468287" lon="8.0845968"><ele>344.0</ele><time>2026-04-03T09:28:31.976Z</time></trkpt><trkpt lat="44.046732" lon="8.0846095"><ele>344.0</ele><time>2026-04-03T09:28:32.976Z</time></trkpt><trkpt lat="44.0466495" lon="8.0846241"><ele>344.0</ele><time>2026-04-03T09:28:33.975Z</time></trkpt><trkpt lat="44.0465773" lon="8.0846712"><ele>344.0</ele><time>2026-04-03T09:28:34.976Z</time></trkpt><trkpt lat="44.0465107" lon="8.0847258"><ele>344.0</ele><time>2026-04-03T09:28:35.975Z</time></trkpt><trkpt lat="44.0464489" lon="8.0847917"><ele>350.1666666666667</ele><time>2026-04-03T09:28:36.975Z</time></trkpt><trkpt lat="44.0464124" lon="8.0848705"><ele>356.33333333333337</ele><time>2026-04-03T09:28:37.976Z</time></trkpt><trkpt lat="44.0463961" lon="8.084966"><ele>362.5</ele><time>2026-04-03T09:28:38.976Z</time></trkpt><trkpt lat="44.0463929" lon="8.0851529"><ele>368.6666666666667</ele><time>2026-04-03T09:28:40.976Z</time></trkpt><trkpt lat="44.0464288" lon="8.085264"><ele>374.8333333333333</ele><time>2026-04-03T09:28:41.975Z</time></trkpt><trkpt lat="44.0464603" lon="8.0853792"><ele>381.0</ele><time>2026-04-03T09:28:42.976Z</time></trkpt><trkpt lat="44.0464792" lon="8.0854937"><ele>381.0</ele><time>2026-04-03T09:28:43.976Z</time></trkpt><trkpt lat="44.0465175" lon="8.0856019"><ele>381.0</ele><time>2026-04-03T09:28:44.975Z</time></trkpt><trkpt lat="44.0465522" lon="8.0856972"><ele>381.0</ele><time>2026-04-03T09:28:45.976Z</time></trkpt><trkpt lat="44.0465685" lon="8.0858637"><ele>381.0</ele><time>2026-04-03T09:28:47.976Z</time></trkpt><trkpt lat="44.0465662" lon="8.0859642"><ele>381.0</ele><time>2026-04-03T09:28:48.976Z</time></trkpt><trkpt lat="44.0465599" lon="8.0860674"><ele>381.0</ele><time>2026-04-03T09:28:49.976Z</time></trkpt><trkpt lat="44.0465437" lon="8.0861594"><ele>381.4</ele><time>2026-04-03T09:28:50.975Z</time></trkpt><trkpt lat="44.046473" lon="8.0862919"><ele>381.8</ele><time>2026-04-03T09:28:52.976Z</time></trkpt><trkpt lat="44.0463879" lon="8.0863731"><ele>382.2</ele><time>2026-04-03T09:28:54.976Z</time></trkpt><trkpt lat="44.0463552" lon="8.0864499"><ele>382.59999999999997</ele><time>2026-04-03T09:28:56.976Z</time></trkpt><trkpt lat="44.046357" lon="8.0865626"><ele>383.0</ele><time>2026-04-03T09:28:58.976Z</time></trkpt><trkpt lat="44.0463936" lon="8.0867286"><ele>383.4</ele><time>2026-04-03T09:29:00.976Z</time></trkpt><trkpt lat="44.046438" lon="8.0868442"><ele>383.79999999999995</ele><time>2026-04-03T09:29:01.976Z</time></trkpt><trkpt lat="44.046491" lon="8.0869522"><ele>384.2</ele><time>2026-04-03T09:29:02.976Z</time></trkpt><trkpt lat="44.0465592" lon="8.0870699"><ele>384.6</ele><time>2026-04-03T09:29:03.975Z</time></trkpt><trkpt lat="44.046615" lon="8.0871928"><ele>385.0</ele><time>2026-04-03T09:29:04.976Z</time></trkpt><trkpt lat="44.0466482" lon="8.0873107"><ele>383.8</ele><time>2026-04-03T09:29:05.976Z</time></trkpt><trkpt lat="44.0466773" lon="8.0874269"><ele>382.6</ele><time>2026-04-03T09:29:06.975Z</time></trkpt><trkpt lat="44.0466712" lon="8.0875221"><ele>381.4</ele><time>2026-04-03T09:29:07.975Z</time></trkpt><trkpt lat="44.0465943" lon="8.0876562"><ele>380.2</ele><time>2026-04-03T09:29:09.976Z</time></trkpt><trkpt lat="44.0465208" lon="8.0877016"><ele>379.0</ele><time>2026-04-03T09:29:10.975Z</time></trkpt><trkpt lat="44.0464238" lon="8.0877336"><ele>379.0</ele><time>2026-04-03T09:29:11.976Z</time></trkpt><trkpt lat="44.0463173" lon="8.0877804"><ele>379.0</ele><time>2026-04-03T09:29:12.976Z</time></trkpt><trkpt lat="44.0462158" lon="8.08783"><ele>379.0</ele><time>2026-04-03T09:29:13.975Z</time></trkpt><trkpt lat="44.046141" lon="8.0878739"><ele>379.0</ele><time>2026-04-03T09:29:14.975Z</time></trkpt><trkpt lat="44.0460695" lon="8.0879235"><ele>379.0</ele><time>2026-04-03T09:29:15.976Z</time></trkpt><trkpt lat="44.0460077" lon="8.0879688"><ele>379.0</ele><time>2026-04-03T09:29:16.976Z</time></trkpt><trkpt lat="44.0459714" lon="8.0880502"><ele>379.0</ele><time>2026-04-03T09:29:17.975Z</time></trkpt><trkpt lat="44.0459458" lon="8.0881509"><ele>379.0</ele><time>2026-04-03T09:29:18.976Z</time></trkpt><trkpt lat="44.0459157" lon="8.0882427"><ele>379.0</ele><time>2026-04-03T09:29:19.976Z</time></trkpt><trkpt lat="44.0458335" lon="8.0883435"><ele>379.0</ele><time>2026-04-03T09:29:21.976Z</time></trkpt><trkpt lat="44.0457422" lon="8.0884022"><ele>379.0</ele><time>2026-04-03T09:29:23.976Z</time></trkpt><trkpt lat="44.045652" lon="8.0885454"><ele>382.66666666666663</ele><time>2026-04-03T09:29:25.976Z</time></trkpt><trkpt lat="44.0456419" lon="8.0886599"><ele>386.3333333333333</ele><time>2026-04-03T09:29:26.976Z</time></trkpt><trkpt lat="44.0456579" lon="8.0887832"><ele>390.0</ele><time>2026-04-03T09:29:27.976Z</time></trkpt><trkpt lat="44.0456775" lon="8.0888888"><ele>393.66666666666663</ele><time>2026-04-03T09:29:28.976Z</time></trkpt><trkpt lat="44.0456951" lon="8.0889747"><ele>397.3333333333333</ele><time>2026-04-03T09:29:29.976Z</time></trkpt><trkpt lat="44.0456788" lon="8.0891227"><ele>401.0</ele><time>2026-04-03T09:29:31.976Z</time></trkpt><trkpt lat="44.0456502" lon="8.0892885"><ele>401.0</ele><time>2026-04-03T09:29:33.975Z</time></trkpt><trkpt lat="44.0456421" lon="8.0894618"><ele>401.0</ele><time>2026-04-03T09:29:35.976Z</time></trkpt><trkpt lat="44.0456747" lon="8.0896273"><ele>401.0</ele><time>2026-04-03T09:29:37.976Z</time></trkpt><trkpt lat="44.0457041" lon="8.0897317"><ele>401.0</ele><time>2026-04-03T09:29:38.975Z</time></trkpt><trkpt lat="44.0457318" lon="8.0898581"><ele>401.0</ele><time>2026-04-03T09:29:39.976Z</time></trkpt><trkpt lat="44.0457513" lon="8.0899906"><ele>400.4</ele><time>2026-04-03T09:29:40.976Z</time></trkpt><trkpt lat="44.0457617" lon="8.0901329"><ele>399.8</ele><time>2026-04-03T09:29:41.976Z</time></trkpt><trkpt lat="44.0457818" lon="8.0902749"><ele>399.2</ele><time>2026-04-03T09:29:42.976Z</time></trkpt><trkpt lat="44.0457974" lon="8.0904022"><ele>398.59999999999997</ele><time>2026-04-03T09:29:43.976Z</time></trkpt><trkpt lat="44.0458128" lon="8.0905268"><ele>398.0</ele><time>2026-04-03T09:29:44.976Z</time></trkpt><trkpt lat="44.0458251" lon="8.0906208"><ele>394.3333333333333</ele><time>2026-04-03T09:29:45.976Z</time></trkpt><trkpt lat="44.0458424" lon="8.0907259"><ele>390.66666666666663</ele><time>2026-04-03T09:29:46.976Z</time></trkpt><trkpt lat="44.0458688" lon="8.0908475"><ele>387.0</ele><time>2026-04-03T09:29:47.975Z</time></trkpt><trkpt lat="44.0458917" lon="8.090978"><ele>383.3333333333333</ele><time>2026-04-03T09:29:48.976Z</time></trkpt><trkpt lat="44.0459182" lon="8.0910924"><ele>379.66666666666663</ele><time>2026-04-03T09:29:49.976Z</time></trkpt><trkpt lat="44.0459406" lon="8.091192"><ele>376.0</ele><time>2026-04-03T09:29:50.976Z</time></trkpt><trkpt lat="44.0459208" lon="8.0913365"><ele>376.0</ele><time>2026-04-03T09:29:52.976Z</time></trkpt><trkpt lat="44.0458267" lon="8.0914181"><ele>376.0</ele><time>2026-04-03T09:29:54.975Z</time></trkpt><trkpt lat="44.0457575" lon="8.0914631"><ele>376.0</ele><time>2026-04-03T09:29:55.976Z</time></trkpt><trkpt lat="44.0456997" lon="8.0915091"><ele>376.0</ele><time>2026-04-03T09:29:56.975Z</time></trkpt><trkpt lat="44.0456469" lon="8.0915757"><ele>376.0</ele><time>2026-04-03T09:29:57.976Z</time></trkpt><trkpt lat="44.0455929" lon="8.0916423"><ele>376.0</ele><time>2026-04-03T09:29:58.976Z</time></trkpt><trkpt lat="44.0455413" lon="8.0916982"><ele>377.66666666666663</ele><time>2026-04-03T09:29:59.975Z</time></trkpt><trkpt lat="44.0454702" lon="8.0917069"><ele>379.3333333333333</ele><time>2026-04-03T09:30:00.975Z</time></trkpt><trkpt lat="44.0453992" lon="8.0917006"><ele>381.0</ele><time>2026-04-03T09:30:01.976Z</time></trkpt><trkpt lat="44.0453136" lon="8.0916922"><ele>382.66666666666663</ele><time>2026-04-03T09:30:03.976Z</time></trkpt><trkpt lat="44.0452111" lon="8.0917028"><ele>384.3333333333333</ele><time>2026-04-03T09:30:56.975Z</time></trkpt><trkpt lat="44.0452941" lon="8.0917116"><ele>386.0</ele><time>2026-04-03T09:30:59.976Z</time></trkpt><trkpt lat="44.0452739" lon="8.0918198"><ele>386.00000000000006</ele><time>2026-04-03T09:31:08.975Z</time></trkpt><trkpt lat="44.0452325" lon="8.0919081"><ele>386.0</ele><time>2026-04-03T09:31:10.975Z</time></trkpt><trkpt lat="44.0451908" lon="8.091995"><ele>386.0</ele><time>2026-04-03T09:31:12.975Z</time></trkpt><trkpt lat="44.0451655" lon="8.0920821"><ele>386.0</ele><time>2026-04-03T09:31:14.976Z</time></trkpt><trkpt lat="44.0450855" lon="8.0921554"><ele>386.0</ele><time>2026-04-03T09:31:17.976Z</time></trkpt><trkpt lat="44.0450294" lon="8.0922041"><ele>386.00000000000006</ele><time>2026-04-03T09:31:20.976Z</time></trkpt><trkpt lat="44.0450164" lon="8.0922938"><ele>386.0</ele><time>2026-04-03T09:32:47.975Z</time></trkpt><trkpt lat="44.0450746" lon="8.0921967"><ele>385.99999999999994</ele><time>2026-04-03T09:33:01.975Z</time></trkpt><trkpt lat="44.0450962" lon="8.0921009"><ele>386.0</ele><time>2026-04-03T09:33:03.975Z</time></trkpt><trkpt lat="44.0451319" lon="8.0919791"><ele>386.0</ele><time>2026-04-03T09:33:06.974Z</time></trkpt><trkpt lat="44.0451943" lon="8.0918647"><ele>386.0</ele><time>2026-04-03T09:33:08.975Z</time></trkpt><trkpt lat="44.045241" lon="8.0917771"><ele>385.99999999999994</ele><time>2026-04-03T09:33:10.975Z</time></trkpt><trkpt lat="44.0453017" lon="8.0917311"><ele>386.0</ele><time>2026-04-03T09:33:14.975Z</time></trkpt><trkpt lat="44.0452545" lon="8.0916628"><ele>385.99999999999994</ele><time>2026-04-03T09:33:33.974Z</time></trkpt><trkpt lat="44.0451825" lon="8.0916145"><ele>386.0</ele><time>2026-04-03T09:33:35.974Z</time></trkpt><trkpt lat="44.0451066" lon="8.0916029"><ele>386.0</ele><time>2026-04-03T09:33:37.975Z</time></trkpt><trkpt lat="44.0450457" lon="8.0916279"><ele>386.0</ele><time>2026-04-03T09:33:39.975Z</time></trkpt><trkpt lat="44.0449565" lon="8.0917099"><ele>385.99999999999994</ele><time>2026-04-03T09:33:41.975Z</time></trkpt><trkpt lat="44.0448719" lon="8.0917886"><ele>386.0</ele><time>2026-04-03T09:33:43.975Z</time></trkpt><trkpt lat="44.0448046" lon="8.0918491"><ele>385.49999999999994</ele><time>2026-04-03T09:33:45.975Z</time></trkpt><trkpt lat="44.0447414" lon="8.091942"><ele>385.0</ele><time>2026-04-03T09:33:47.974Z</time></trkpt><trkpt lat="44.0447043" lon="8.0918653"><ele>384.5</ele><time>2026-04-03T09:34:03.975Z</time></trkpt><trkpt lat="44.0446455" lon="8.091834"><ele>384.0</ele><time>2026-04-03T09:34:06.975Z</time></trkpt><trkpt lat="44.0446542" lon="8.0917458"><ele>383.5</ele><time>2026-04-03T09:34:11.974Z</time></trkpt><trkpt lat="44.0446258" lon="8.0916588"><ele>383.0</ele><time>2026-04-03T09:34:13.975Z</time></trkpt><trkpt lat="44.0445829" lon="8.0915211"><ele>383.0</ele><time>2026-04-03T09:34:15.975Z</time></trkpt><trkpt lat="44.0445461" lon="8.0913826"><ele>383.0</ele><time>2026-04-03T09:34:17.975Z</time></trkpt><trkpt lat="44.0445263" lon="8.0912661"><ele>383.0</ele><time>2026-04-03T09:34:19.975Z</time></trkpt><trkpt lat="44.0445165" lon="8.0911212"><ele>383.0</ele><time>2026-04-03T09:34:21.975Z</time></trkpt><trkpt lat="44.0444992" lon="8.0909629"><ele>383.0</ele><time>2026-04-03T09:34:23.974Z</time></trkpt><trkpt lat="44.0444795" lon="8.0908417"><ele>384.59999999999997</ele><time>2026-04-03T09:34:25.975Z</time></trkpt><trkpt lat="44.0444818" lon="8.0907122"><ele>386.2</ele><time>2026-04-03T09:34:27.974Z</time></trkpt><trkpt lat="44.0445057" lon="8.0905818"><ele>387.8</ele><time>2026-04-03T09:34:29.975Z</time></trkpt><trkpt lat="44.0445355" lon="8.0904688"><ele>389.4</ele><time>2026-04-03T09:34:31.975Z</time></trkpt><trkpt lat="44.0446067" lon="8.0903514"><ele>391.0</ele><time>2026-04-03T09:43:26.973Z</time></trkpt><trkpt lat="44.0446057" lon="8.0902395"><ele>391.00000000000006</ele><time>2026-04-03T09:51:09.97Z</time></trkpt><trkpt lat="44.0446188" lon="8.0901175"><ele>391.0</ele><time>2026-04-03T09:52:38.97Z</time></trkpt><trkpt lat="44.0446251" lon="8.0899871"><ele>391.0</ele><time>2026-04-03T09:52:47.969Z</time></trkpt><trkpt lat="44.0446394" lon="8.0898916"><ele>391.0</ele><time>2026-04-03T09:52:49.969Z</time></trkpt><trkpt lat="44.0446477" lon="8.0897779"><ele>391.00000000000006</ele><time>2026-04-03T09:52:51.97Z</time></trkpt><trkpt lat="44.0446507" lon="8.0896578"><ele>391.0</ele><time>2026-04-03T09:52:53.97Z</time></trkpt><trkpt lat="44.0446549" lon="8.0895655"><ele>394.85714285714283</ele><time>2026-04-03T09:52:55.97Z</time></trkpt><trkpt lat="44.0446451" lon="8.089465"><ele>398.7142857142857</ele><time>2026-04-03T09:52:58.97Z</time></trkpt><trkpt lat="44.0445797" lon="8.0893923"><ele>402.57142857142856</ele><time>2026-04-03T09:53:01.968Z</time></trkpt><trkpt lat="44.0445609" lon="8.089277"><ele>406.42857142857144</ele><time>2026-04-03T09:53:04.968Z</time></trkpt><trkpt lat="44.0445864" lon="8.089192"><ele>410.2857142857143</ele><time>2026-04-03T09:53:07.969Z</time></trkpt><trkpt lat="44.0446119" lon="8.0891077"><ele>414.1428571428571</ele><time>2026-04-03T09:53:10.969Z</time></trkpt><trkpt lat="44.0445631" lon="8.0890314"><ele>418.0</ele><time>2026-04-03T09:53:19.969Z</time></trkpt><trkpt lat="44.0445012" lon="8.088999"><ele>420.1428571428571</ele><time>2026-04-03T09:53:23.969Z</time></trkpt><trkpt lat="44.0444304" lon="8.0889781"><ele>422.2857142857143</ele><time>2026-04-03T09:53:27.968Z</time></trkpt><trkpt lat="44.0443585" lon="8.0889545"><ele>424.42857142857144</ele><time>2026-04-03T09:53:31.969Z</time></trkpt><trkpt lat="44.0442898" lon="8.0889038"><ele>426.57142857142856</ele><time>2026-04-03T09:53:34.968Z</time></trkpt><trkpt lat="44.0442292" lon="8.0888561"><ele>428.7142857142857</ele><time>2026-04-03T09:53:36.968Z</time></trkpt><trkpt lat="44.0441568" lon="8.0888163"><ele>430.85714285714283</ele><time>2026-04-03T09:53:39.969Z</time></trkpt><trkpt lat="44.0441104" lon="8.0887407"><ele>433.0</ele><time>2026-04-03T09:53:44.968Z</time></trkpt><trkpt lat="44.0440988" lon="8.0886171"><ele>433.00000000000006</ele><time>2026-04-03T09:53:47.969Z</time></trkpt><trkpt lat="44.0441124" lon="8.088531"><ele>433.0</ele><time>2026-04-03T09:53:49.969Z</time></trkpt><trkpt lat="44.0441262" lon="8.0884287"><ele>433.0</ele><time>2026-04-03T09:53:52.969Z</time></trkpt><trkpt lat="44.0441614" lon="8.0883543"><ele>433.0</ele><time>2026-04-03T09:53:54.969Z</time></trkpt><trkpt lat="44.0442078" lon="8.0882536"><ele>433.00000000000006</ele><time>2026-04-03T09:53:57.968Z</time></trkpt><trkpt lat="44.044281" lon="8.0882244"><ele>433.0</ele><time>2026-04-03T09:54:02.969Z</time></trkpt><trkpt lat="44.0443422" lon="8.0883178"><ele>433.00000000000006</ele><time>2026-04-03T09:54:13.968Z</time></trkpt><trkpt lat="44.0444039" lon="8.0883941"><ele>433.0</ele><time>2026-04-03T09:54:16.969Z</time></trkpt><trkpt lat="44.0443949" lon="8.0883072"><ele>433.0</ele><time>2026-04-03T09:55:17.968Z</time></trkpt><trkpt lat="44.0443844" lon="8.0881894"><ele>433.0</ele><time>2026-04-03T09:55:20.968Z</time></trkpt><trkpt lat="44.0444275" lon="8.0880659"><ele>433.00000000000006</ele><time>2026-04-03T09:55:22.968Z</time></trkpt><trkpt lat="44.044452" lon="8.0879851"><ele>433.0</ele><time>2026-04-03T09:55:23.969Z</time></trkpt><trkpt lat="44.0444891" lon="8.0878222"><ele>431.59999999999997</ele><time>2026-04-03T09:55:25.968Z</time></trkpt><trkpt lat="44.0445129" lon="8.0876743"><ele>430.19999999999993</ele><time>2026-04-03T09:55:27.969Z</time></trkpt><trkpt lat="44.0445292" lon="8.0875326"><ele>428.8</ele><time>2026-04-03T09:55:29.968Z</time></trkpt><trkpt lat="44.0445666" lon="8.0874161"><ele>427.4</ele><time>2026-04-03T09:55:31.968Z</time></trkpt><trkpt lat="44.0445209" lon="8.0873327"><ele>426.0</ele><time>2026-04-03T09:55:35.969Z</time></trkpt><trkpt lat="44.0444471" lon="8.0873898"><ele>426.0</ele><time>2026-04-03T09:55:37.968Z</time></trkpt><trkpt lat="44.0443726" lon="8.0875124"><ele>426.0</ele><time>2026-04-03T09:55:39.969Z</time></trkpt><trkpt lat="44.0443186" lon="8.0875739"><ele>426.0</ele><time>2026-04-03T09:55:40.969Z</time></trkpt><trkpt lat="44.0442613" lon="8.0876267"><ele>426.0</ele><time>2026-04-03T09:55:41.969Z</time></trkpt><trkpt lat="44.0441991" lon="8.087665"><ele>426.0</ele><time>2026-04-03T09:55:42.969Z</time></trkpt><trkpt lat="44.0441428" lon="8.0877077"><ele>426.0</ele><time>2026-04-03T09:55:43.968Z</time></trkpt><trkpt lat="44.0440558" lon="8.0877372"><ele>424.20000000000005</ele><time>2026-04-03T09:55:45.969Z</time></trkpt><trkpt lat="44.0440343" lon="8.0876363"><ele>422.40000000000003</ele><time>2026-04-03T09:55:48.969Z</time></trkpt><trkpt lat="44.0440856" lon="8.0875103"><ele>420.6</ele><time>2026-04-03T09:55:50.968Z</time></trkpt><trkpt lat="44.0441203" lon="8.0873826"><ele>418.8</ele><time>2026-04-03T09:55:52.967Z</time></trkpt><trkpt lat="44.0441553" lon="8.0872582"><ele>417.0</ele><time>2026-04-03T09:55:54.967Z</time></trkpt><trkpt lat="44.0440805" lon="8.087232"><ele>410.0</ele><time>2026-04-03T09:56:00.968Z</time></trkpt><trkpt lat="44.0439914" lon="8.0872766"><ele>403.0</ele><time>2026-04-03T09:56:02.968Z</time></trkpt><trkpt lat="44.043929" lon="8.0872369"><ele>396.0</ele><time>2026-04-03T09:56:04.968Z</time></trkpt><trkpt lat="44.0439377" lon="8.0871236"><ele>389.0</ele><time>2026-04-03T09:56:06.968Z</time></trkpt><trkpt lat="44.0440163" lon="8.0870016"><ele>382.0</ele><time>2026-04-03T09:56:08.967Z</time></trkpt><trkpt lat="44.0440804" lon="8.0869272"><ele>375.0</ele><time>2026-04-03T09:56:10.968Z</time></trkpt><trkpt lat="44.0440128" lon="8.0868736"><ele>375.0</ele><time>2026-04-03T09:56:15.968Z</time></trkpt><trkpt lat="44.0439518" lon="8.0869007"><ele>375.0</ele><time>2026-04-03T09:56:17.968Z</time></trkpt><trkpt lat="44.0438923" lon="8.0869665"><ele>375.0</ele><time>2026-04-03T09:56:19.968Z</time></trkpt><trkpt lat="44.0438476" lon="8.0870522"><ele>375.0</ele><time>2026-04-03T09:56:21.968Z</time></trkpt><trkpt lat="44.0437776" lon="8.0870539"><ele>375.0</ele><time>2026-04-03T09:56:24.968Z</time></trkpt><trkpt lat="44.0437671" lon="8.0869258"><ele>375.0</ele><time>2026-04-03T09:56:27.968Z</time></trkpt><trkpt lat="44.0438013" lon="8.0868101"><ele>375.0</ele><time>2026-04-03T09:56:29.967Z</time></trkpt><trkpt lat="44.0438356" lon="8.0867084"><ele>375.0</ele><time>2026-04-03T09:56:31.967Z</time></trkpt><trkpt lat="44.0437958" lon="8.0866264"><ele>375.0</ele><time>2026-04-03T09:56:34.967Z</time></trkpt><trkpt lat="44.0437139" lon="8.0866832"><ele>375.0</ele><time>2026-04-03T09:56:36.968Z</time></trkpt><trkpt lat="44.0436405" lon="8.086793"><ele>375.0</ele><time>2026-04-03T09:56:38.968Z</time></trkpt><trkpt lat="44.0435996" lon="8.0868898"><ele>375.0</ele><time>2026-04-03T09:56:40.968Z</time></trkpt><trkpt lat="44.0435463" lon="8.0868146"><ele>375.0</ele><time>2026-04-03T09:56:45.968Z</time></trkpt><trkpt lat="44.0435613" lon="8.0866918"><ele>375.0</ele><time>2026-04-03T09:56:47.968Z</time></trkpt><trkpt lat="44.0435723" lon="8.0865641"><ele>375.0</ele><time>2026-04-03T09:56:49.968Z</time></trkpt><trkpt lat="44.043599" lon="8.0864804"><ele>375.0</ele><time>2026-04-03T09:57:01.968Z</time></trkpt><trkpt lat="44.0435104" lon="8.0864683"><ele>375.0</ele><time>2026-04-03T09:57:05.968Z</time></trkpt><trkpt lat="44.0434361" lon="8.0865562"><ele>375.0</ele><time>2026-04-03T09:57:07.967Z</time></trkpt><trkpt lat="44.0433692" lon="8.0866705"><ele>375.0</ele><time>2026-04-03T09:57:09.967Z</time></trkpt><trkpt lat="44.0433129" lon="8.0867825"><ele>375.0</ele><time>2026-04-03T09:57:11.968Z</time></trkpt><trkpt lat="44.0433062" lon="8.0868934"><ele>375.0</ele><time>2026-04-03T09:57:13.968Z</time></trkpt><trkpt lat="44.0433329" lon="8.0869961"><ele>375.0</ele><time>2026-04-03T09:57:16.968Z</time></trkpt><trkpt lat="44.0432734" lon="8.0869419"><ele>375.0</ele><time>2026-04-03T09:58:08.968Z</time></trkpt><trkpt lat="44.043243" lon="8.086803"><ele>375.0</ele><time>2026-04-03T09:58:10.967Z</time></trkpt><trkpt lat="44.0432539" lon="8.0867059"><ele>372.6666666666667</ele><time>2026-04-03T09:58:11.968Z</time></trkpt><trkpt lat="44.0432899" lon="8.0866034"><ele>370.3333333333333</ele><time>2026-04-03T09:58:12.968Z</time></trkpt><trkpt lat="44.0433312" lon="8.0865083"><ele>368.0</ele><time>2026-04-03T09:58:13.968Z</time></trkpt><trkpt lat="44.0433687" lon="8.0864222"><ele>365.66666666666663</ele><time>2026-04-03T09:58:14.968Z</time></trkpt><trkpt lat="44.0434025" lon="8.086342"><ele>363.3333333333333</ele><time>2026-04-03T09:58:15.968Z</time></trkpt><trkpt lat="44.0434795" lon="8.0862088"><ele>361.0</ele><time>2026-04-03T09:58:17.968Z</time></trkpt><trkpt lat="44.0435269" lon="8.086147"><ele>361.0</ele><time>2026-04-03T09:58:18.968Z</time></trkpt><trkpt lat="44.0436006" lon="8.0860003"><ele>361.0</ele><time>2026-04-03T09:58:20.968Z</time></trkpt><trkpt lat="44.0436268" lon="8.0859086"><ele>361.0</ele><time>2026-04-03T09:58:21.968Z</time></trkpt><trkpt lat="44.0436493" lon="8.0857446"><ele>361.0</ele><time>2026-04-03T09:58:23.968Z</time></trkpt><trkpt lat="44.0436218" lon="8.0856401"><ele>361.0</ele><time>2026-04-03T09:58:24.968Z</time></trkpt><trkpt lat="44.0435958" lon="8.0855302"><ele>360.16666666666663</ele><time>2026-04-03T09:58:25.968Z</time></trkpt><trkpt lat="44.0435706" lon="8.0854292"><ele>359.3333333333333</ele><time>2026-04-03T09:58:26.968Z</time></trkpt><trkpt lat="44.0435528" lon="8.0853277"><ele>358.5</ele><time>2026-04-03T09:58:27.967Z</time></trkpt><trkpt lat="44.0435434" lon="8.085225"><ele>357.6666666666667</ele><time>2026-04-03T09:58:28.967Z</time></trkpt><trkpt lat="44.043554" lon="8.085118"><ele>356.83333333333337</ele><time>2026-04-03T09:58:29.968Z</time></trkpt><trkpt lat="44.0435931" lon="8.0850144"><ele>356.0</ele><time>2026-04-03T09:58:30.968Z</time></trkpt><trkpt lat="44.0436495" lon="8.0848976"><ele>354.1666666666667</ele><time>2026-04-03T09:58:31.968Z</time></trkpt><trkpt lat="44.0437079" lon="8.0847947"><ele>352.33333333333337</ele><time>2026-04-03T09:58:32.968Z</time></trkpt><trkpt lat="44.043755" lon="8.0846991"><ele>350.5</ele><time>2026-04-03T09:58:33.967Z</time></trkpt><trkpt lat="44.0438013" lon="8.0846142"><ele>348.6666666666667</ele><time>2026-04-03T09:58:34.968Z</time></trkpt><trkpt lat="44.043851" lon="8.0845318"><ele>346.8333333333333</ele><time>2026-04-03T09:58:35.968Z</time></trkpt><trkpt lat="44.0439043" lon="8.0844396"><ele>345.0</ele><time>2026-04-03T09:58:36.967Z</time></trkpt><trkpt lat="44.0439579" lon="8.0843409"><ele>345.0</ele><time>2026-04-03T09:58:37.967Z</time></trkpt><trkpt lat="44.0440009" lon="8.0842445"><ele>345.0</ele><time>2026-04-03T09:58:38.968Z</time></trkpt><trkpt lat="44.0440408" lon="8.0841492"><ele>345.0</ele><time>2026-04-03T09:58:39.968Z</time></trkpt><trkpt lat="44.0440792" lon="8.0840659"><ele>345.0</ele><time>2026-04-03T09:58:40.966Z</time></trkpt><trkpt lat="44.0441278" lon="8.0839954"><ele>345.0</ele><time>2026-04-03T09:58:41.966Z</time></trkpt><trkpt lat="44.0442378" lon="8.0839577"><ele>345.0</ele><time>2026-04-03T09:58:43.967Z</time></trkpt><trkpt lat="44.0443462" lon="8.0839868"><ele>347.5</ele><time>2026-04-03T09:58:45.966Z</time></trkpt><trkpt lat="44.0444266" lon="8.0839881"><ele>350.0</ele><time>2026-04-03T09:58:47.966Z</time></trkpt><trkpt lat="44.0444852" lon="8.0839312"><ele>352.5</ele><time>2026-04-03T09:58:49.967Z</time></trkpt><trkpt lat="44.0445159" lon="8.0838244"><ele>355.0</ele><time>2026-04-03T09:58:51.966Z</time></trkpt><trkpt lat="44.0445221" lon="8.0837343"><ele>357.5</ele><time>2026-04-03T09:58:52.967Z</time></trkpt><trkpt lat="44.0445324" lon="8.0836213"><ele>360.0</ele><time>2026-04-03T09:58:53.967Z</time></trkpt><trkpt lat="44.0445688" lon="8.0834967"><ele>360.0</ele><time>2026-04-03T09:58:54.967Z</time></trkpt><trkpt lat="44.0446063" lon="8.083383"><ele>360.0</ele><time>2026-04-03T09:58:55.967Z</time></trkpt><trkpt lat="44.0446454" lon="8.0832663"><ele>360.0</ele><time>2026-04-03T09:58:56.966Z</time></trkpt><trkpt lat="44.044686" lon="8.0831427"><ele>360.0</ele><time>2026-04-03T09:58:57.967Z</time></trkpt><trkpt lat="44.0447317" lon="8.0829886"><ele>360.0</ele><time>2026-04-03T09:58:58.966Z</time></trkpt><trkpt lat="44.0447636" lon="8.0828286"><ele>358.2</ele><time>2026-04-03T09:58:59.966Z</time></trkpt><trkpt lat="44.0447858" lon="8.0826767"><ele>356.4</ele><time>2026-04-03T09:59:00.966Z</time></trkpt><trkpt lat="44.0448085" lon="8.0825422"><ele>354.6</ele><time>2026-04-03T09:59:01.967Z</time></trkpt><trkpt lat="44.044829" lon="8.0824212"><ele>352.8</ele><time>2026-04-03T09:59:02.967Z</time></trkpt><trkpt lat="44.0448522" lon="8.0823088"><ele>351.0</ele><time>2026-04-03T09:59:03.966Z</time></trkpt><trkpt lat="44.0448688" lon="8.082195"><ele>350.8333333333333</ele><time>2026-04-03T09:59:04.966Z</time></trkpt><trkpt lat="44.0448598" lon="8.0820928"><ele>350.6666666666667</ele><time>2026-04-03T09:59:05.967Z</time></trkpt><trkpt lat="44.0448514" lon="8.0819941"><ele>350.5</ele><time>2026-04-03T09:59:06.967Z</time></trkpt><trkpt lat="44.0448474" lon="8.0819029"><ele>350.33333333333337</ele><time>2026-04-03T09:59:07.967Z</time></trkpt><trkpt lat="44.0448923" lon="8.0817305"><ele>350.1666666666667</ele><time>2026-04-03T09:59:09.967Z</time></trkpt><trkpt lat="44.0449294" lon="8.0816474"><ele>350.0</ele><time>2026-04-03T09:59:10.966Z</time></trkpt><trkpt lat="44.0449826" lon="8.0815544"><ele>353.2</ele><time>2026-04-03T09:59:12.967Z</time></trkpt><trkpt lat="44.045033" lon="8.0814393"><ele>356.4</ele><time>2026-04-03T09:59:15.967Z</time></trkpt><trkpt lat="44.0450672" lon="8.0812987"><ele>359.6</ele><time>2026-04-03T09:59:17.967Z</time></trkpt><trkpt lat="44.0451216" lon="8.0811465"><ele>362.8</ele><time>2026-04-03T09:59:19.967Z</time></trkpt><trkpt lat="44.0451558" lon="8.0810474"><ele>366.0</ele><time>2026-04-03T09:59:20.966Z</time></trkpt><trkpt lat="44.0451953" lon="8.0809374"><ele>366.0</ele><time>2026-04-03T09:59:21.966Z</time></trkpt><trkpt lat="44.0452213" lon="8.0808343"><ele>366.0</ele><time>2026-04-03T09:59:22.967Z</time></trkpt><trkpt lat="44.0452555" lon="8.0807476"><ele>366.0</ele><time>2026-04-03T09:59:23.967Z</time></trkpt><trkpt lat="44.0453055" lon="8.0806796"><ele>366.0</ele><time>2026-04-03T09:59:24.966Z</time></trkpt><trkpt lat="44.0453634" lon="8.0806066"><ele>366.0</ele><time>2026-04-03T09:59:25.966Z</time></trkpt><trkpt lat="44.0454177" lon="8.0805502"><ele>366.0</ele><time>2026-04-03T09:59:26.966Z</time></trkpt><trkpt lat="44.0455174" lon="8.0805243"><ele>364.0</ele><time>2026-04-03T09:59:28.967Z</time></trkpt><trkpt lat="44.0455935" lon="8.0805024"><ele>362.0</ele><time>2026-04-03T09:59:30.967Z</time></trkpt><trkpt lat="44.0456776" lon="8.0804805"><ele>360.0</ele><time>2026-04-03T09:59:33.966Z</time></trkpt><trkpt lat="44.045727" lon="8.0803767"><ele>358.0</ele><time>2026-04-03T09:59:36.966Z</time></trkpt><trkpt lat="44.0457345" lon="8.080263"><ele>356.0</ele><time>2026-04-03T09:59:38.966Z</time></trkpt><trkpt lat="44.0457844" lon="8.0801154"><ele>356.6666666666667</ele><time>2026-04-03T09:59:40.966Z</time></trkpt><trkpt lat="44.0458332" lon="8.0800387"><ele>357.33333333333337</ele><time>2026-04-03T09:59:41.967Z</time></trkpt><trkpt lat="44.0458831" lon="8.0799645"><ele>358.0</ele><time>2026-04-03T09:59:42.967Z</time></trkpt><trkpt lat="44.0459401" lon="8.0798998"><ele>358.6666666666667</ele><time>2026-04-03T09:59:43.967Z</time></trkpt><trkpt lat="44.0460042" lon="8.079834"><ele>359.3333333333333</ele><time>2026-04-03T09:59:44.966Z</time></trkpt><trkpt lat="44.0460655" lon="8.0797663"><ele>360.0</ele><time>2026-04-03T09:59:45.967Z</time></trkpt><trkpt lat="44.0461255" lon="8.0796928"><ele>360.0</ele><time>2026-04-03T09:59:46.967Z</time></trkpt><trkpt lat="44.0461807" lon="8.0796292"><ele>360.0</ele><time>2026-04-03T09:59:47.966Z</time></trkpt><trkpt lat="44.0462498" lon="8.079524"><ele>360.0</ele><time>2026-04-03T09:59:49.967Z</time></trkpt><trkpt lat="44.046272" lon="8.079442"><ele>360.0</ele><time>2026-04-03T09:59:51.966Z</time></trkpt><trkpt lat="44.04633" lon="8.0794072"><ele>360.0</ele><time>2026-04-03T09:59:54.967Z</time></trkpt><trkpt lat="44.0463944" lon="8.0794596"><ele>360.0</ele><time>2026-04-03T09:59:56.966Z</time></trkpt><trkpt lat="44.0464541" lon="8.0795083"><ele>360.0</ele><time>2026-04-03T09:59:58.966Z</time></trkpt><trkpt lat="44.0465378" lon="8.0794256"><ele>360.0</ele><time>2026-04-03T10:00:15.966Z</time></trkpt><trkpt lat="44.0466189" lon="8.0793724"><ele>360.0</ele><time>2026-04-03T10:00:26.967Z</time></trkpt><trkpt lat="44.04671" lon="8.0793653"><ele>360.0</ele><time>2026-04-03T10:00:30.967Z</time></trkpt><trkpt lat="44.0467919" lon="8.0792717"><ele>360.0</ele><time>2026-04-03T10:00:32.966Z</time></trkpt><trkpt lat="44.0468369" lon="8.0791496"><ele>360.0</ele><time>2026-04-03T10:00:34.966Z</time></trkpt><trkpt lat="44.0468822" lon="8.0790414"><ele>364.0</ele><time>2026-04-03T10:00:36.967Z</time></trkpt><trkpt lat="44.046944" lon="8.0789026"><ele>368.0</ele><time>2026-04-03T10:00:38.966Z</time></trkpt><trkpt lat="44.046966" lon="8.0788203"><ele>372.0</ele><time>2026-04-03T10:00:39.967Z</time></trkpt><trkpt lat="44.0469832" lon="8.0786968"><ele>376.0</ele><time>2026-04-03T10:00:41.967Z</time></trkpt><trkpt lat="44.0469844" lon="8.0786046"><ele>380.0</ele><time>2026-04-03T10:00:43.967Z</time></trkpt><trkpt lat="44.0469945" lon="8.0784824"><ele>384.0</ele><time>2026-04-03T10:00:45.967Z</time></trkpt><trkpt lat="44.0470127" lon="8.0783874"><ele>384.0</ele><time>2026-04-03T10:00:47.967Z</time></trkpt><trkpt lat="44.0470409" lon="8.0782716"><ele>384.0</ele><time>2026-04-03T10:00:50.967Z</time></trkpt><trkpt lat="44.0470547" lon="8.0781582"><ele>384.0</ele><time>2026-04-03T10:00:53.967Z</time></trkpt><trkpt lat="44.0470645" lon="8.0780395"><ele>384.0</ele><time>2026-04-03T10:00:55.967Z</time></trkpt><trkpt lat="44.047038" lon="8.077899"><ele>384.0</ele><time>2026-04-03T10:00:57.967Z</time></trkpt><trkpt lat="44.047006" lon="8.0777919"><ele>384.0</ele><time>2026-04-03T10:00:59.966Z</time></trkpt><trkpt lat="44.0469775" lon="8.0777046"><ele>384.5</ele><time>2026-04-03T10:01:01.966Z</time></trkpt><trkpt lat="44.046987" lon="8.0776001"><ele>385.0</ele><time>2026-04-03T10:01:03.966Z</time></trkpt><trkpt lat="44.0470503" lon="8.077499"><ele>385.5</ele><time>2026-04-03T10:01:05.967Z</time></trkpt><trkpt lat="44.0470924" lon="8.0774047"><ele>386.0</ele><time>2026-04-03T10:01:07.967Z</time></trkpt><trkpt lat="44.0471585" lon="8.0773478"><ele>386.5</ele><time>2026-04-03T10:01:10.967Z</time></trkpt><trkpt lat="44.047232" lon="8.0773264"><ele>387.0</ele><time>2026-04-03T10:01:13.967Z</time></trkpt><trkpt lat="44.0472709" lon="8.0772426"><ele>387.20000000000005</ele><time>2026-04-03T10:01:15.966Z</time></trkpt><trkpt lat="44.0473291" lon="8.0771413"><ele>387.4</ele><time>2026-04-03T10:01:17.967Z</time></trkpt><trkpt lat="44.0473699" lon="8.0770385"><ele>387.6</ele><time>2026-04-03T10:01:19.967Z</time></trkpt><trkpt lat="44.047409" lon="8.0769259"><ele>387.79999999999995</ele><time>2026-04-03T10:01:21.967Z</time></trkpt><trkpt lat="44.0474412" lon="8.0768124"><ele>388.0</ele><time>2026-04-03T10:01:23.967Z</time></trkpt><trkpt lat="44.0474757" lon="8.0766835"><ele>388.59999999999997</ele><time>2026-04-03T10:01:25.967Z</time></trkpt><trkpt lat="44.0475164" lon="8.0765553"><ele>389.2</ele><time>2026-04-03T10:01:27.967Z</time></trkpt><trkpt lat="44.0475594" lon="8.0764361"><ele>389.8</ele><time>2026-04-03T10:01:29.967Z</time></trkpt><trkpt lat="44.0475865" lon="8.0763348"><ele>390.4</ele><time>2026-04-03T10:01:31.966Z</time></trkpt><trkpt lat="44.047632" lon="8.0762366"><ele>391.0</ele><time>2026-04-03T10:01:33.967Z</time></trkpt><trkpt lat="44.0476943" lon="8.0761136"><ele>391.0</ele><time>2026-04-03T10:01:35.966Z</time></trkpt><trkpt lat="44.0477458" lon="8.0759751"><ele>391.0</ele><time>2026-04-03T10:01:37.966Z</time></trkpt><trkpt lat="44.0477728" lon="8.0758483"><ele>391.0</ele><time>2026-04-03T10:01:39.965Z</time></trkpt><trkpt lat="44.04778" lon="8.0757095"><ele>391.0</ele><time>2026-04-03T10:01:41.966Z</time></trkpt><trkpt lat="44.0477771" lon="8.0755753"><ele>391.0</ele><time>2026-04-03T10:01:43.966Z</time></trkpt><trkpt lat="44.0477768" lon="8.0754167"><ele>392.33333333333337</ele><time>2026-04-03T10:01:45.965Z</time></trkpt><trkpt lat="44.0477876" lon="8.0752985"><ele>393.6666666666667</ele><time>2026-04-03T10:01:47.965Z</time></trkpt><trkpt lat="44.0478421" lon="8.0752028"><ele>395.0</ele><time>2026-04-03T10:01:50.966Z</time></trkpt><trkpt lat="44.0478421" lon="8.0751094"><ele>396.33333333333337</ele><time>2026-04-03T10:01:53.966Z</time></trkpt><trkpt lat="44.0478132" lon="8.0749931"><ele>397.6666666666667</ele><time>2026-04-03T10:01:56.966Z</time></trkpt><trkpt lat="44.0477838" lon="8.0748665"><ele>399.0</ele><time>2026-04-03T10:01:58.966Z</time></trkpt><trkpt lat="44.0477453" lon="8.0747538"><ele>399.5</ele><time>2026-04-03T10:02:00.966Z</time></trkpt><trkpt lat="44.047711" lon="8.0746373"><ele>400.0</ele><time>2026-04-03T10:02:02.966Z</time></trkpt><trkpt lat="44.047686" lon="8.0745346"><ele>400.5</ele><time>2026-04-03T10:02:04.965Z</time></trkpt><trkpt lat="44.0476434" lon="8.0744668"><ele>401.0</ele><time>2026-04-03T10:02:06.965Z</time></trkpt><trkpt lat="44.0475702" lon="8.0744038"><ele>401.5</ele><time>2026-04-03T10:02:08.965Z</time></trkpt><trkpt lat="44.0475113" lon="8.0743097"><ele>402.0</ele><time>2026-04-03T10:02:10.966Z</time></trkpt><trkpt lat="44.0474889" lon="8.0741941"><ele>399.6666666666667</ele><time>2026-04-03T10:02:12.966Z</time></trkpt><trkpt lat="44.0474583" lon="8.0741032"><ele>397.33333333333337</ele><time>2026-04-03T10:02:14.965Z</time></trkpt><trkpt lat="44.0473936" lon="8.0740617"><ele>395.0</ele><time>2026-04-03T10:02:16.965Z</time></trkpt><trkpt lat="44.047356" lon="8.0739479"><ele>392.6666666666667</ele><time>2026-04-03T10:02:19.966Z</time></trkpt><trkpt lat="44.0472801" lon="8.0738744"><ele>390.33333333333337</ele><time>2026-04-03T10:02:21.965Z</time></trkpt><trkpt lat="44.047189" lon="8.0738047"><ele>388.0</ele><time>2026-04-03T10:02:23.966Z</time></trkpt><trkpt lat="44.0471364" lon="8.0737483"><ele>388.00000000000006</ele><time>2026-04-03T10:02:25.966Z</time></trkpt><trkpt lat="44.0470611" lon="8.0737911"><ele>388.0</ele><time>2026-04-03T10:04:00.965Z</time></trkpt><trkpt lat="44.0469944" lon="8.073819"><ele>388.0</ele><time>2026-04-03T10:04:02.966Z</time></trkpt><trkpt lat="44.046915" lon="8.0738295"><ele>388.0</ele><time>2026-04-03T10:04:08.965Z</time></trkpt><trkpt lat="44.046824" lon="8.0738111"><ele>388.00000000000006</ele><time>2026-04-03T10:04:10.966Z</time></trkpt><trkpt lat="44.046726" lon="8.0738354"><ele>388.0</ele><time>2026-04-03T10:04:12.966Z</time></trkpt><trkpt lat="44.0466243" lon="8.0738407"><ele>384.59999999999997</ele><time>2026-04-03T10:04:14.965Z</time></trkpt><trkpt lat="44.0465018" lon="8.0738113"><ele>381.2</ele><time>2026-04-03T10:04:16.966Z</time></trkpt><trkpt lat="44.0464143" lon="8.0737817"><ele>377.8</ele><time>2026-04-03T10:04:18.966Z</time></trkpt><trkpt lat="44.0463435" lon="8.0737717"><ele>374.4</ele><time>2026-04-03T10:04:20.966Z</time></trkpt><trkpt lat="44.0462498" lon="8.0737818"><ele>371.0</ele><time>2026-04-03T10:04:22.966Z</time></trkpt><trkpt lat="44.0461591" lon="8.0738011"><ele>371.0</ele><time>2026-04-03T10:04:24.966Z</time></trkpt><trkpt lat="44.0460695" lon="8.0737818"><ele>371.0</ele><time>2026-04-03T10:04:26.966Z</time></trkpt><trkpt lat="44.0459991" lon="8.0737603"><ele>371.0</ele><time>2026-04-03T10:04:28.966Z</time></trkpt><trkpt lat="44.0459187" lon="8.0737467"><ele>371.0</ele><time>2026-04-03T10:04:32.965Z</time></trkpt><trkpt lat="44.0458354" lon="8.0737845"><ele>371.0</ele><time>2026-04-03T10:04:35.966Z</time></trkpt><trkpt lat="44.0459437" lon="8.0737729"><ele>371.0</ele><time>2026-04-03T10:04:59.965Z</time></trkpt><trkpt lat="44.0460267" lon="8.0737219"><ele>371.0</ele><time>2026-04-03T10:05:01.965Z</time></trkpt><trkpt lat="44.0461049" lon="8.0738002"><ele>371.0</ele><time>2026-04-03T10:05:24.965Z</time></trkpt><trkpt lat="44.0461897" lon="8.0738064"><ele>371.0</ele><time>2026-04-03T10:05:26.964Z</time></trkpt><trkpt lat="44.0462854" lon="8.0737831"><ele>371.0</ele><time>2026-04-03T10:05:28.964Z</time></trkpt><trkpt lat="44.0463946" lon="8.0737767"><ele>371.0</ele><time>2026-04-03T10:05:30.964Z</time></trkpt><trkpt lat="44.0465021" lon="8.0738235"><ele>371.0</ele><time>2026-04-03T10:05:32.964Z</time></trkpt><trkpt lat="44.0465642" lon="8.0738404"><ele>371.0</ele><time>2026-04-03T10:05:33.964Z</time></trkpt><trkpt lat="44.0466308" lon="8.0738627"><ele>371.0</ele><time>2026-04-03T10:05:34.965Z</time></trkpt><trkpt lat="44.0466996" lon="8.0738773"><ele>371.0</ele><time>2026-04-03T10:05:35.964Z</time></trkpt><trkpt lat="44.0467672" lon="8.0738598"><ele>371.0</ele><time>2026-04-03T10:05:36.964Z</time></trkpt><trkpt lat="44.0468329" lon="8.0738419"><ele>371.0</ele><time>2026-04-03T10:05:37.965Z</time></trkpt><trkpt lat="44.046901" lon="8.0738205"><ele>371.0</ele><time>2026-04-03T10:05:38.965Z</time></trkpt><trkpt lat="44.0469665" lon="8.0738051"><ele>373.83333333333337</ele><time>2026-04-03T10:05:39.964Z</time></trkpt><trkpt lat="44.0470347" lon="8.0737864"><ele>376.6666666666667</ele><time>2026-04-03T10:05:40.964Z</time></trkpt><trkpt lat="44.0470977" lon="8.0737613"><ele>379.5</ele><time>2026-04-03T10:05:41.964Z</time></trkpt><trkpt lat="44.0471665" lon="8.0737176"><ele>382.33333333333337</ele><time>2026-04-03T10:05:43.965Z</time></trkpt><trkpt lat="44.0471326" lon="8.0735844"><ele>385.1666666666667</ele><time>2026-04-03T10:05:46.965Z</time></trkpt><trkpt lat="44.0470686" lon="8.0734899"><ele>388.0</ele><time>2026-04-03T10:05:48.965Z</time></trkpt><trkpt lat="44.0470215" lon="8.0733674"><ele>387.1666666666667</ele><time>2026-04-03T10:05:50.965Z</time></trkpt><trkpt lat="44.0469945" lon="8.0732647"><ele>386.33333333333337</ele><time>2026-04-03T10:05:51.964Z</time></trkpt><trkpt lat="44.0469594" lon="8.0731531"><ele>385.5</ele><time>2026-04-03T10:05:52.964Z</time></trkpt><trkpt lat="44.0469232" lon="8.0730535"><ele>384.6666666666667</ele><time>2026-04-03T10:05:53.964Z</time></trkpt><trkpt lat="44.0468937" lon="8.0729698"><ele>383.83333333333337</ele><time>2026-04-03T10:05:54.964Z</time></trkpt><trkpt lat="44.0468724" lon="8.0728732"><ele>383.0</ele><time>2026-04-03T10:05:55.965Z</time></trkpt><trkpt lat="44.0468387" lon="8.0727785"><ele>383.0</ele><time>2026-04-03T10:05:56.965Z</time></trkpt><trkpt lat="44.046811" lon="8.0726936"><ele>383.0</ele><time>2026-04-03T10:05:57.965Z</time></trkpt><trkpt lat="44.0467899" lon="8.0726041"><ele>383.0</ele><time>2026-04-03T10:05:58.964Z</time></trkpt><trkpt lat="44.0467762" lon="8.0725077"><ele>383.0</ele><time>2026-04-03T10:05:59.965Z</time></trkpt><trkpt lat="44.0467637" lon="8.0724112"><ele>383.0</ele><time>2026-04-03T10:06:00.965Z</time></trkpt><trkpt lat="44.0467146" lon="8.0722853"><ele>383.0</ele><time>2026-04-03T10:06:02.965Z</time></trkpt><trkpt lat="44.0466965" lon="8.0721501"><ele>382.83333333333337</ele><time>2026-04-03T10:06:05.965Z</time></trkpt><trkpt lat="44.0467042" lon="8.0720229"><ele>382.6666666666667</ele><time>2026-04-03T10:06:07.965Z</time></trkpt><trkpt lat="44.0467335" lon="8.0718689"><ele>382.5</ele><time>2026-04-03T10:06:09.965Z</time></trkpt><trkpt lat="44.0467627" lon="8.0717812"><ele>382.3333333333333</ele><time>2026-04-03T10:06:10.964Z</time></trkpt><trkpt lat="44.0468057" lon="8.0717068"><ele>382.16666666666663</ele><time>2026-04-03T10:06:11.965Z</time></trkpt><trkpt lat="44.0468388" lon="8.0716229"><ele>382.0</ele><time>2026-04-03T10:06:12.965Z</time></trkpt><trkpt lat="44.0468393" lon="8.0714825"><ele>382.6</ele><time>2026-04-03T10:06:14.965Z</time></trkpt><trkpt lat="44.0467979" lon="8.0713426"><ele>383.20000000000005</ele><time>2026-04-03T10:06:16.964Z</time></trkpt><trkpt lat="44.0467617" lon="8.0712229"><ele>383.8</ele><time>2026-04-03T10:06:18.965Z</time></trkpt><trkpt lat="44.0468265" lon="8.0711038"><ele>384.4</ele><time>2026-04-03T10:06:46.965Z</time></trkpt><trkpt lat="44.0468945" lon="8.0709485"><ele>385.0</ele><time>2026-04-03T10:06:48.964Z</time></trkpt><trkpt lat="44.0469302" lon="8.0708611"><ele>385.6</ele><time>2026-04-03T10:06:49.965Z</time></trkpt><trkpt lat="44.046989" lon="8.0707001"><ele>386.2</ele><time>2026-04-03T10:06:51.965Z</time></trkpt><trkpt lat="44.0470103" lon="8.070612"><ele>386.79999999999995</ele><time>2026-04-03T10:06:52.965Z</time></trkpt><trkpt lat="44.0470488" lon="8.0704603"><ele>387.4</ele><time>2026-04-03T10:06:54.965Z</time></trkpt><trkpt lat="44.0470399" lon="8.0703438"><ele>388.0</ele><time>2026-04-03T10:06:56.965Z</time></trkpt><trkpt lat="44.0469882" lon="8.0702234"><ele>388.0</ele><time>2026-04-03T10:06:58.965Z</time></trkpt><trkpt lat="44.046938" lon="8.070122"><ele>388.0</ele><time>2026-04-03T10:07:00.965Z</time></trkpt><trkpt lat="44.0468862" lon="8.0700004"><ele>388.0</ele><time>2026-04-03T10:07:02.964Z</time></trkpt><trkpt lat="44.0468407" lon="8.0698703"><ele>388.0</ele><time>2026-04-03T10:07:04.965Z</time></trkpt><trkpt lat="44.0468202" lon="8.0697291"><ele>388.0</ele><time>2026-04-03T10:07:06.964Z</time></trkpt><trkpt lat="44.04683" lon="8.069593"><ele>389.4</ele><time>2026-04-03T10:07:08.965Z</time></trkpt><trkpt lat="44.0468935" lon="8.0694506"><ele>390.79999999999995</ele><time>2026-04-03T10:07:10.965Z</time></trkpt><trkpt lat="44.0469523" lon="8.0692946"><ele>392.2</ele><time>2026-04-03T10:07:12.965Z</time></trkpt><trkpt lat="44.0469814" lon="8.0692136"><ele>393.6</ele><time>2026-04-03T10:07:13.965Z</time></trkpt><trkpt lat="44.0470346" lon="8.0690808"><ele>395.0</ele><time>2026-04-03T10:07:15.965Z</time></trkpt><trkpt lat="44.0470962" lon="8.0689781"><ele>396.4</ele><time>2026-04-03T10:07:17.965Z</time></trkpt><trkpt lat="44.047149" lon="8.0688325"><ele>397.8</ele><time>2026-04-03T10:07:19.964Z</time></trkpt><trkpt lat="44.0471849" lon="8.0687596"><ele>399.20000000000005</ele><time>2026-04-03T10:07:20.964Z</time></trkpt><trkpt lat="44.0472612" lon="8.0686444"><ele>400.6</ele><time>2026-04-03T10:07:22.964Z</time></trkpt><trkpt lat="44.0473664" lon="8.0686071"><ele>402.0</ele><time>2026-04-03T10:07:24.965Z</time></trkpt><trkpt lat="44.0474776" lon="8.0685735"><ele>403.8</ele><time>2026-04-03T10:07:26.965Z</time></trkpt><trkpt lat="44.0475868" lon="8.0685684"><ele>405.6</ele><time>2026-04-03T10:07:28.964Z</time></trkpt><trkpt lat="44.0476997" lon="8.068568"><ele>407.40000000000003</ele><time>2026-04-03T10:07:30.965Z</time></trkpt><trkpt lat="44.0477875" lon="8.068552"><ele>409.20000000000005</ele><time>2026-04-03T10:07:32.965Z</time></trkpt><trkpt lat="44.0478763" lon="8.0684714"><ele>411.0</ele><time>2026-04-03T10:07:34.965Z</time></trkpt><trkpt lat="44.0479422" lon="8.0684154"><ele>411.0</ele><time>2026-04-03T10:07:35.964Z</time></trkpt><trkpt lat="44.0479998" lon="8.0683552"><ele>411.0</ele><time>2026-04-03T10:07:36.964Z</time></trkpt><trkpt lat="44.0480666" lon="8.0682325"><ele>411.0</ele><time>2026-04-03T10:07:38.965Z</time></trkpt><trkpt lat="44.048096" lon="8.068103"><ele>411.0</ele><time>2026-04-03T10:07:40.964Z</time></trkpt><trkpt lat="44.0480748" lon="8.0679509"><ele>411.0</ele><time>2026-04-03T10:07:42.964Z</time></trkpt><trkpt lat="44.0480453" lon="8.0677968"><ele>411.3333333333333</ele><time>2026-04-03T10:07:44.964Z</time></trkpt><trkpt lat="44.0480295" lon="8.0676709"><ele>411.66666666666663</ele><time>2026-04-03T10:07:46.964Z</time></trkpt><trkpt lat="44.0480257" lon="8.0675746"><ele>412.0</ele><time>2026-04-03T10:07:48.964Z</time></trkpt><trkpt lat="44.0479829" lon="8.0675004"><ele>412.3333333333333</ele><time>2026-04-03T10:07:50.964Z</time></trkpt><trkpt lat="44.0478942" lon="8.0674454"><ele>412.66666666666663</ele><time>2026-04-03T10:07:52.964Z</time></trkpt><trkpt lat="44.0478137" lon="8.0674016"><ele>413.0</ele><time>2026-04-03T10:07:54.964Z</time></trkpt><trkpt lat="44.0477567" lon="8.067362"><ele>410.66666666666663</ele><time>2026-04-03T10:07:56.964Z</time></trkpt><trkpt lat="44.0476811" lon="8.0673003"><ele>408.3333333333333</ele><time>2026-04-03T10:07:58.963Z</time></trkpt><trkpt lat="44.0475946" lon="8.0672105"><ele>406.0</ele><time>2026-04-03T10:08:00.964Z</time></trkpt><trkpt lat="44.0475427" lon="8.0671373"><ele>403.66666666666663</ele><time>2026-04-03T10:08:01.964Z</time></trkpt><trkpt lat="44.0474907" lon="8.0670542"><ele>401.3333333333333</ele><time>2026-04-03T10:08:02.964Z</time></trkpt><trkpt lat="44.0474426" lon="8.0669653"><ele>399.0</ele><time>2026-04-03T10:08:03.963Z</time></trkpt><trkpt lat="44.0474008" lon="8.0668869"><ele>399.4</ele><time>2026-04-03T10:08:04.964Z</time></trkpt><trkpt lat="44.0473618" lon="8.0668095"><ele>399.79999999999995</ele><time>2026-04-03T10:08:05.964Z</time></trkpt><trkpt lat="44.0472923" lon="8.0666904"><ele>400.20000000000005</ele><time>2026-04-03T10:08:07.964Z</time></trkpt><trkpt lat="44.0472281" lon="8.0665804"><ele>400.6</ele><time>2026-04-03T10:08:09.964Z</time></trkpt><trkpt lat="44.0471473" lon="8.0664235"><ele>401.0</ele><time>2026-04-03T10:08:11.964Z</time></trkpt><trkpt lat="44.0471044" lon="8.0663284"><ele>401.0</ele><time>2026-04-03T10:08:12.964Z</time></trkpt><trkpt lat="44.0470642" lon="8.0662421"><ele>401.0</ele><time>2026-04-03T10:08:13.963Z</time></trkpt><trkpt lat="44.0470253" lon="8.0661616"><ele>401.0</ele><time>2026-04-03T10:08:14.964Z</time></trkpt><trkpt lat="44.0469679" lon="8.0660268"><ele>401.0</ele><time>2026-04-03T10:08:16.964Z</time></trkpt><trkpt lat="44.046939" lon="8.0658708"><ele>401.0</ele><time>2026-04-03T10:08:18.964Z</time></trkpt><trkpt lat="44.0468922" lon="8.0657124"><ele>402.6</ele><time>2026-04-03T10:08:20.964Z</time></trkpt><trkpt lat="44.046851" lon="8.0655883"><ele>404.20000000000005</ele><time>2026-04-03T10:08:22.964Z</time></trkpt><trkpt lat="44.0467826" lon="8.0654563"><ele>405.79999999999995</ele><time>2026-04-03T10:08:24.964Z</time></trkpt><trkpt lat="44.0467425" lon="8.0653776"><ele>407.4</ele><time>2026-04-03T10:08:26.964Z</time></trkpt><trkpt lat="44.0467049" lon="8.0652888"><ele>409.0</ele><time>2026-04-03T10:08:46.963Z</time></trkpt><trkpt lat="44.0466544" lon="8.0651767"><ele>407.6666666666667</ele><time>2026-04-03T10:08:48.963Z</time></trkpt><trkpt lat="44.0466214" lon="8.0650951"><ele>406.33333333333337</ele><time>2026-04-03T10:08:50.964Z</time></trkpt><trkpt lat="44.0465988" lon="8.064987"><ele>405.0</ele><time>2026-04-03T10:08:52.963Z</time></trkpt><trkpt lat="44.0465772" lon="8.0649027"><ele>403.66666666666663</ele><time>2026-04-03T10:08:54.963Z</time></trkpt><trkpt lat="44.0465265" lon="8.064806"><ele>402.3333333333333</ele><time>2026-04-03T10:08:58.964Z</time></trkpt><trkpt lat="44.0465074" lon="8.0646948"><ele>401.0</ele><time>2026-04-03T10:09:01.963Z</time></trkpt><trkpt lat="44.0465021" lon="8.0645951"><ele>400.99999999999994</ele><time>2026-04-03T10:09:03.964Z</time></trkpt><trkpt lat="44.0464727" lon="8.0644924"><ele>401.0</ele><time>2026-04-03T10:09:05.964Z</time></trkpt><trkpt lat="44.0464214" lon="8.0644014"><ele>401.0</ele><time>2026-04-03T10:09:07.964Z</time></trkpt><trkpt lat="44.0463739" lon="8.0643025"><ele>401.0</ele><time>2026-04-03T10:09:09.964Z</time></trkpt><trkpt lat="44.046339" lon="8.0642148"><ele>400.99999999999994</ele><time>2026-04-03T10:09:11.964Z</time></trkpt><trkpt lat="44.046309" lon="8.0641051"><ele>401.0</ele><time>2026-04-03T10:09:14.964Z</time></trkpt><trkpt lat="44.0462596" lon="8.0640102"><ele>401.0</ele><time>2026-04-03T10:09:16.963Z</time></trkpt><trkpt lat="44.0462169" lon="8.0639214"><ele>401.0</ele><time>2026-04-03T10:09:18.964Z</time></trkpt><trkpt lat="44.0461655" lon="8.0638125"><ele>401.0</ele><time>2026-04-03T10:09:20.964Z</time></trkpt><trkpt lat="44.0461091" lon="8.0637011"><ele>401.0</ele><time>2026-04-03T10:09:22.964Z</time></trkpt><trkpt lat="44.0460244" lon="8.0636407"><ele>401.0</ele><time>2026-04-03T10:09:24.963Z</time></trkpt><trkpt lat="44.0459596" lon="8.0635514"><ele>400.99999999999994</ele><time>2026-04-03T10:09:26.963Z</time></trkpt><trkpt lat="44.0459159" lon="8.063415"><ele>401.0</ele><time>2026-04-03T10:09:28.964Z</time></trkpt><trkpt lat="44.0458529" lon="8.0632971"><ele>401.0</ele><time>2026-04-03T10:09:30.964Z</time></trkpt><trkpt lat="44.0458121" lon="8.0632262"><ele>401.0</ele><time>2026-04-03T10:09:32.963Z</time></trkpt><trkpt lat="44.0458626" lon="8.0631618"><ele>400.99999999999994</ele><time>2026-04-03T10:09:36.964Z</time></trkpt><trkpt lat="44.0459055" lon="8.0630732"><ele>401.0</ele><time>2026-04-03T10:09:38.964Z</time></trkpt><trkpt lat="44.0459474" lon="8.0629191"><ele>398.99999999999994</ele><time>2026-04-03T10:09:40.963Z</time></trkpt><trkpt lat="44.0459548" lon="8.0628185"><ele>397.0</ele><time>2026-04-03T10:09:41.964Z</time></trkpt><trkpt lat="44.045964" lon="8.0627222"><ele>395.0</ele><time>2026-04-03T10:09:42.963Z</time></trkpt><trkpt lat="44.0459706" lon="8.0626231"><ele>393.0</ele><time>2026-04-03T10:09:43.964Z</time></trkpt><trkpt lat="44.0459715" lon="8.0625274"><ele>390.99999999999994</ele><time>2026-04-03T10:09:44.963Z</time></trkpt><trkpt lat="44.045967" lon="8.0624234"><ele>389.0</ele><time>2026-04-03T10:09:45.964Z</time></trkpt><trkpt lat="44.0459566" lon="8.0622665"><ele>387.49999999999994</ele><time>2026-04-03T10:09:47.964Z</time></trkpt><trkpt lat="44.0459668" lon="8.0621553"><ele>386.0</ele><time>2026-04-03T10:09:49.964Z</time></trkpt><trkpt lat="44.0460034" lon="8.0620765"><ele>384.5</ele><time>2026-04-03T10:09:51.963Z</time></trkpt><trkpt lat="44.0460137" lon="8.0619711"><ele>383.0</ele><time>2026-04-03T10:10:33.964Z</time></trkpt><trkpt lat="44.0460668" lon="8.0618271"><ele>381.5</ele><time>2026-04-03T10:10:35.964Z</time></trkpt><trkpt lat="44.0460868" lon="8.0617363"><ele>380.0</ele><time>2026-04-03T10:10:36.963Z</time></trkpt><trkpt lat="44.0460428" lon="8.0615911"><ele>377.6</ele><time>2026-04-03T10:10:38.963Z</time></trkpt><trkpt lat="44.0459568" lon="8.0615289"><ele>375.2</ele><time>2026-04-03T10:10:39.963Z</time></trkpt><trkpt lat="44.045864" lon="8.0614523"><ele>372.79999999999995</ele><time>2026-04-03T10:10:40.964Z</time></trkpt><trkpt lat="44.0457766" lon="8.0613696"><ele>370.4</ele><time>2026-04-03T10:10:41.964Z</time></trkpt><trkpt lat="44.0457076" lon="8.0612735"><ele>368.0</ele><time>2026-04-03T10:10:42.964Z</time></trkpt><trkpt lat="44.0456571" lon="8.0611717"><ele>367.59999999999997</ele><time>2026-04-03T10:10:43.964Z</time></trkpt><trkpt lat="44.0456031" lon="8.0610699"><ele>367.2</ele><time>2026-04-03T10:10:44.964Z</time></trkpt><trkpt lat="44.0455518" lon="8.0609983"><ele>366.8</ele><time>2026-04-03T10:10:45.964Z</time></trkpt><trkpt lat="44.0454535" lon="8.0609112"><ele>366.4</ele><time>2026-04-03T10:10:47.964Z</time></trkpt><trkpt lat="44.0453556" lon="8.0608255"><ele>366.0</ele><time>2026-04-03T10:10:49.964Z</time></trkpt><trkpt lat="44.0452517" lon="8.060731"><ele>365.6666666666667</ele><time>2026-04-03T10:10:51.962Z</time></trkpt><trkpt lat="44.0452023" lon="8.0606432"><ele>365.3333333333333</ele><time>2026-04-03T10:10:52.963Z</time></trkpt><trkpt lat="44.0451738" lon="8.0605296"><ele>365.0</ele><time>2026-04-03T10:10:53.962Z</time></trkpt><trkpt lat="44.045159" lon="8.0604075"><ele>364.66666666666663</ele><time>2026-04-03T10:10:54.963Z</time></trkpt><trkpt lat="44.0451552" lon="8.0602887"><ele>364.3333333333333</ele><time>2026-04-03T10:10:55.963Z</time></trkpt><trkpt lat="44.0451592" lon="8.0601746"><ele>364.0</ele><time>2026-04-03T10:10:56.963Z</time></trkpt><trkpt lat="44.0451699" lon="8.0600731"><ele>364.0</ele><time>2026-04-03T10:10:57.963Z</time></trkpt><trkpt lat="44.0451743" lon="8.0599804"><ele>364.0</ele><time>2026-04-03T10:10:58.962Z</time></trkpt><trkpt lat="44.0451612" lon="8.0598883"><ele>364.0</ele><time>2026-04-03T10:10:59.962Z</time></trkpt><trkpt lat="44.0451504" lon="8.0597927"><ele>364.0</ele><time>2026-04-03T10:11:00.963Z</time></trkpt><trkpt lat="44.0451383" lon="8.0597021"><ele>364.0</ele><time>2026-04-03T10:11:01.962Z</time></trkpt><trkpt lat="44.0451301" lon="8.0596132"><ele>364.0</ele><time>2026-04-03T10:11:02.963Z</time></trkpt><trkpt lat="44.0451245" lon="8.0594519"><ele>363.79999999999995</ele><time>2026-04-03T10:11:04.963Z</time></trkpt><trkpt lat="44.0451127" lon="8.0593071"><ele>363.59999999999997</ele><time>2026-04-03T10:11:06.963Z</time></trkpt><trkpt lat="44.0450952" lon="8.0592186"><ele>363.4</ele><time>2026-04-03T10:11:07.963Z</time></trkpt><trkpt lat="44.0450844" lon="8.0591285"><ele>363.2</ele><time>2026-04-03T10:11:08.963Z</time></trkpt><trkpt lat="44.0450831" lon="8.0589752"><ele>363.0</ele><time>2026-04-03T10:11:10.963Z</time></trkpt><trkpt lat="44.045074" lon="8.0588279"><ele>362.4</ele><time>2026-04-03T10:11:12.963Z</time></trkpt><trkpt lat="44.0450384" lon="8.0587169"><ele>361.79999999999995</ele><time>2026-04-03T10:11:14.963Z</time></trkpt><trkpt lat="44.04499" lon="8.0586007"><ele>361.2</ele><time>2026-04-03T10:11:16.963Z</time></trkpt><trkpt lat="44.0449116" lon="8.0584608"><ele>360.6</ele><time>2026-04-03T10:11:18.963Z</time></trkpt><trkpt lat="44.0448578" lon="8.058395"><ele>360.0</ele><time>2026-04-03T10:11:19.963Z</time></trkpt><trkpt lat="44.0448004" lon="8.058334"><ele>361.8333333333333</ele><time>2026-04-03T10:11:20.963Z</time></trkpt><trkpt lat="44.0447459" lon="8.0582733"><ele>363.6666666666667</ele><time>2026-04-03T10:11:21.963Z</time></trkpt><trkpt lat="44.0446903" lon="8.0582153"><ele>365.5</ele><time>2026-04-03T10:11:22.962Z</time></trkpt><trkpt lat="44.0446264" lon="8.058155"><ele>367.33333333333337</ele><time>2026-04-03T10:11:23.962Z</time></trkpt><trkpt lat="44.0445568" lon="8.0581006"><ele>369.1666666666667</ele><time>2026-04-03T10:11:24.963Z</time></trkpt><trkpt lat="44.0444868" lon="8.0580399"><ele>371.0</ele><time>2026-04-03T10:11:25.963Z</time></trkpt><trkpt lat="44.0444375" lon="8.0579672"><ele>371.0</ele><time>2026-04-03T10:11:26.963Z</time></trkpt><trkpt lat="44.0443938" lon="8.057868"><ele>371.0</ele><time>2026-04-03T10:11:27.963Z</time></trkpt><trkpt lat="44.0443499" lon="8.0577582"><ele>371.0</ele><time>2026-04-03T10:11:28.962Z</time></trkpt><trkpt lat="44.0443003" lon="8.0576302"><ele>371.0</ele><time>2026-04-03T10:11:29.963Z</time></trkpt><trkpt lat="44.0442437" lon="8.0574945"><ele>371.0</ele><time>2026-04-03T10:11:30.962Z</time></trkpt><trkpt lat="44.0441979" lon="8.057371"><ele>373.1666666666667</ele><time>2026-04-03T10:11:31.963Z</time></trkpt><trkpt lat="44.0441581" lon="8.0572503"><ele>375.33333333333337</ele><time>2026-04-03T10:11:32.963Z</time></trkpt><trkpt lat="44.0441195" lon="8.0571354"><ele>377.5</ele><time>2026-04-03T10:11:33.963Z</time></trkpt><trkpt lat="44.0440926" lon="8.0570265"><ele>379.6666666666667</ele><time>2026-04-03T10:11:34.962Z</time></trkpt><trkpt lat="44.044086" lon="8.0569114"><ele>381.8333333333333</ele><time>2026-04-03T10:11:35.963Z</time></trkpt><trkpt lat="44.0440908" lon="8.0567854"><ele>384.0</ele><time>2026-04-03T10:11:36.963Z</time></trkpt><trkpt lat="44.044104" lon="8.0566606"><ele>386.5</ele><time>2026-04-03T10:11:37.963Z</time></trkpt><trkpt lat="44.0441313" lon="8.0565477"><ele>389.0</ele><time>2026-04-03T10:11:38.963Z</time></trkpt><trkpt lat="44.044162" lon="8.0564556"><ele>391.5</ele><time>2026-04-03T10:11:39.963Z</time></trkpt><trkpt lat="44.0442089" lon="8.056391"><ele>394.0</ele><time>2026-04-03T10:11:40.963Z</time></trkpt><trkpt lat="44.0442573" lon="8.0562716"><ele>396.5</ele><time>2026-04-03T10:11:42.963Z</time></trkpt><trkpt lat="44.0442729" lon="8.0561387"><ele>399.0</ele><time>2026-04-03T10:11:44.963Z</time></trkpt><trkpt lat="44.0442923" lon="8.0559935"><ele>399.0</ele><time>2026-04-03T10:11:46.962Z</time></trkpt><trkpt lat="44.0443021" lon="8.055906"><ele>399.0</ele><time>2026-04-03T10:11:47.963Z</time></trkpt><trkpt lat="44.0443158" lon="8.0558066"><ele>399.0</ele><time>2026-04-03T10:11:48.962Z</time></trkpt><trkpt lat="44.0443396" lon="8.0557054"><ele>399.0</ele><time>2026-04-03T10:11:49.963Z</time></trkpt><trkpt lat="44.0443703" lon="8.055599"><ele>399.0</ele><time>2026-04-03T10:11:50.963Z</time></trkpt><trkpt lat="44.044408" lon="8.055495"><ele>399.0</ele><time>2026-04-03T10:11:51.963Z</time></trkpt><trkpt lat="44.0444462" lon="8.0553936"><ele>401.1666666666667</ele><time>2026-04-03T10:11:52.963Z</time></trkpt><trkpt lat="44.044489" lon="8.0552885"><ele>403.33333333333337</ele><time>2026-04-03T10:11:53.963Z</time></trkpt><trkpt lat="44.0445313" lon="8.0551963"><ele>405.5</ele><time>2026-04-03T10:11:54.963Z</time></trkpt><trkpt lat="44.0445774" lon="8.0551252"><ele>407.6666666666667</ele><time>2026-04-03T10:11:55.963Z</time></trkpt><trkpt lat="44.0446407" lon="8.0550791"><ele>409.83333333333337</ele><time>2026-04-03T10:11:56.963Z</time></trkpt><trkpt lat="44.0447237" lon="8.0550664"><ele>412.0</ele><time>2026-04-03T10:11:57.962Z</time></trkpt><trkpt lat="44.0448037" lon="8.0550657"><ele>412.00000000000006</ele><time>2026-04-03T10:11:58.963Z</time></trkpt><trkpt lat="44.0448841" lon="8.0550477"><ele>412.0</ele><time>2026-04-03T10:11:59.963Z</time></trkpt><trkpt lat="44.0449663" lon="8.0550296"><ele>412.0</ele><time>2026-04-03T10:12:00.963Z</time></trkpt><trkpt lat="44.045052" lon="8.0550178"><ele>412.0</ele><time>2026-04-03T10:12:01.962Z</time></trkpt><trkpt lat="44.0451403" lon="8.0550189"><ele>412.00000000000006</ele><time>2026-04-03T10:12:02.963Z</time></trkpt><trkpt lat="44.0452202" lon="8.0550154"><ele>412.0</ele><time>2026-04-03T10:12:03.962Z</time></trkpt><trkpt lat="44.0452837" lon="8.0549866"><ele>410.57142857142856</ele><time>2026-04-03T10:12:04.963Z</time></trkpt><trkpt lat="44.0453389" lon="8.05494"><ele>409.1428571428571</ele><time>2026-04-03T10:12:05.963Z</time></trkpt><trkpt lat="44.045393" lon="8.0548837"><ele>407.71428571428567</ele><time>2026-04-03T10:12:06.963Z</time></trkpt><trkpt lat="44.0454358" lon="8.0548116"><ele>406.2857142857143</ele><time>2026-04-03T10:12:07.963Z</time></trkpt><trkpt lat="44.0454672" lon="8.0547255"><ele>404.8571428571429</ele><time>2026-04-03T10:12:08.963Z</time></trkpt><trkpt lat="44.045494" lon="8.0546256"><ele>403.4285714285714</ele><time>2026-04-03T10:12:09.962Z</time></trkpt><trkpt lat="44.045512" lon="8.0545233"><ele>402.0</ele><time>2026-04-03T10:12:10.963Z</time></trkpt><trkpt lat="44.0455277" lon="8.0544206"><ele>402.0</ele><time>2026-04-03T10:12:11.962Z</time></trkpt><trkpt lat="44.045515" lon="8.0543108"><ele>402.0</ele><time>2026-04-03T10:12:12.963Z</time></trkpt><trkpt lat="44.0454756" lon="8.0541876"><ele>402.0</ele><time>2026-04-03T10:12:13.963Z</time></trkpt><trkpt lat="44.0454414" lon="8.0540656"><ele>402.0</ele><time>2026-04-03T10:12:14.963Z</time></trkpt><trkpt lat="44.0454107" lon="8.0539395"><ele>402.0</ele><time>2026-04-03T10:12:15.962Z</time></trkpt><trkpt lat="44.045387" lon="8.0538136"><ele>402.40000000000003</ele><time>2026-04-03T10:12:16.962Z</time></trkpt><trkpt lat="44.0453725" lon="8.0536788"><ele>402.8</ele><time>2026-04-03T10:12:17.962Z</time></trkpt><trkpt lat="44.045343" lon="8.0535328"><ele>403.2</ele><time>2026-04-03T10:12:18.962Z</time></trkpt><trkpt lat="44.0453204" lon="8.0533921"><ele>403.6</ele><time>2026-04-03T10:12:19.962Z</time></trkpt><trkpt lat="44.0453047" lon="8.0532627"><ele>404.0</ele><time>2026-04-03T10:12:20.963Z</time></trkpt><trkpt lat="44.0452998" lon="8.0531484"><ele>406.49999999999994</ele><time>2026-04-03T10:12:21.962Z</time></trkpt><trkpt lat="44.0453079" lon="8.0530591"><ele>409.0</ele><time>2026-04-03T10:12:22.962Z</time></trkpt><trkpt lat="44.0453927" lon="8.0530105"><ele>411.5</ele><time>2026-04-03T10:12:24.963Z</time></trkpt><trkpt lat="44.0454559" lon="8.0530282"><ele>414.0</ele><time>2026-04-03T10:12:25.962Z</time></trkpt><trkpt lat="44.0455358" lon="8.0530597"><ele>416.49999999999994</ele><time>2026-04-03T10:12:26.962Z</time></trkpt><trkpt lat="44.0456165" lon="8.0531018"><ele>419.0</ele><time>2026-04-03T10:12:27.962Z</time></trkpt><trkpt lat="44.0456975" lon="8.0531085"><ele>418.99999999999994</ele><time>2026-04-03T10:12:28.963Z</time></trkpt><trkpt lat="44.0457847" lon="8.0530869"><ele>419.0</ele><time>2026-04-03T10:12:29.963Z</time></trkpt><trkpt lat="44.0458605" lon="8.0530504"><ele>419.0</ele><time>2026-04-03T10:12:30.962Z</time></trkpt><trkpt lat="44.0459258" lon="8.0529921"><ele>419.0</ele><time>2026-04-03T10:12:31.962Z</time></trkpt><trkpt lat="44.0459703" lon="8.0529261"><ele>418.99999999999994</ele><time>2026-04-03T10:12:32.963Z</time></trkpt><trkpt lat="44.0460211" lon="8.0527981"><ele>419.0</ele><time>2026-04-03T10:12:34.963Z</time></trkpt><trkpt lat="44.0460828" lon="8.0527319"><ele>415.66666666666663</ele><time>2026-04-03T10:12:36.962Z</time></trkpt><trkpt lat="44.0461805" lon="8.0527142"><ele>412.3333333333333</ele><time>2026-04-03T10:12:38.963Z</time></trkpt><trkpt lat="44.046253" lon="8.0527154"><ele>409.0</ele><time>2026-04-03T10:12:39.963Z</time></trkpt><trkpt lat="44.0463508" lon="8.0527137"><ele>405.66666666666663</ele><time>2026-04-03T10:12:40.963Z</time></trkpt><trkpt lat="44.0464387" lon="8.0527285"><ele>402.3333333333333</ele><time>2026-04-03T10:12:41.963Z</time></trkpt><trkpt lat="44.0464979" lon="8.0527756"><ele>399.0</ele><time>2026-04-03T10:12:42.962Z</time></trkpt><trkpt lat="44.0465435" lon="8.0528608"><ele>399.0</ele><time>2026-04-03T10:12:43.962Z</time></trkpt><trkpt lat="44.0465813" lon="8.0529382"><ele>399.0</ele><time>2026-04-03T10:12:44.963Z</time></trkpt><trkpt lat="44.0466215" lon="8.0530123"><ele>399.0</ele><time>2026-04-03T10:12:45.963Z</time></trkpt><trkpt lat="44.0467304" lon="8.0530959"><ele>399.0</ele><time>2026-04-03T10:12:47.963Z</time></trkpt><trkpt lat="44.0467987" lon="8.0531244"><ele>399.0</ele><time>2026-04-03T10:12:48.963Z</time></trkpt><trkpt lat="44.0468745" lon="8.0531319"><ele>399.0</ele><time>2026-04-03T10:12:49.962Z</time></trkpt><trkpt lat="44.0469483" lon="8.0531273"><ele>398.6</ele><time>2026-04-03T10:12:50.963Z</time></trkpt><trkpt lat="44.0470208" lon="8.053108"><ele>398.2</ele><time>2026-04-03T10:12:51.963Z</time></trkpt><trkpt lat="44.0470922" lon="8.0530797"><ele>397.8</ele><time>2026-04-03T10:12:52.963Z</time></trkpt><trkpt lat="44.0471854" lon="8.0530238"><ele>397.40000000000003</ele><time>2026-04-03T10:12:53.963Z</time></trkpt><trkpt lat="44.0472938" lon="8.0529694"><ele>397.0</ele><time>2026-04-03T10:12:54.962Z</time></trkpt><trkpt lat="44.0474462" lon="8.0529361"><ele>395.5</ele><time>2026-04-03T10:12:55.963Z</time></trkpt><trkpt lat="44.0475694" lon="8.05294"><ele>394.0</ele><time>2026-04-03T10:12:56.963Z</time></trkpt><trkpt lat="44.0477076" lon="8.0530012"><ele>392.5</ele><time>2026-04-03T10:12:57.962Z</time></trkpt><trkpt lat="44.0478266" lon="8.0530818"><ele>391.0</ele><time>2026-04-03T10:12:58.963Z</time></trkpt><trkpt lat="44.0479392" lon="8.0531544"><ele>391.00000000000006</ele><time>2026-04-03T10:12:59.962Z</time></trkpt><trkpt lat="44.0480399" lon="8.0531922"><ele>391.0</ele><time>2026-04-03T10:13:00.962Z</time></trkpt><trkpt lat="44.0481276" lon="8.0531986"><ele>391.0</ele><time>2026-04-03T10:13:01.963Z</time></trkpt><trkpt lat="44.04821" lon="8.0531865"><ele>391.0</ele><time>2026-04-03T10:13:02.963Z</time></trkpt><trkpt lat="44.04829" lon="8.0531523"><ele>391.00000000000006</ele><time>2026-04-03T10:13:03.962Z</time></trkpt><trkpt lat="44.048361" lon="8.0531175"><ele>391.0</ele><time>2026-04-03T10:13:04.962Z</time></trkpt><trkpt lat="44.0484229" lon="8.0530858"><ele>391.0</ele><time>2026-04-03T10:13:05.963Z</time></trkpt><trkpt lat="44.048494" lon="8.0530029"><ele>391.0</ele><time>2026-04-03T10:13:07.963Z</time></trkpt><trkpt lat="44.0485069" lon="8.0528975"><ele>391.0</ele><time>2026-04-03T10:13:09.962Z</time></trkpt><trkpt lat="44.0484583" lon="8.0528133"><ele>391.0</ele><time>2026-04-03T10:13:10.963Z</time></trkpt><trkpt lat="44.0483689" lon="8.0527027"><ele>391.0</ele><time>2026-04-03T10:13:11.963Z</time></trkpt><trkpt lat="44.0482674" lon="8.0525827"><ele>391.0</ele><time>2026-04-03T10:13:12.962Z</time></trkpt><trkpt lat="44.0481656" lon="8.0524696"><ele>391.0</ele><time>2026-04-03T10:13:13.963Z</time></trkpt><trkpt lat="44.0480681" lon="8.052372"><ele>391.0</ele><time>2026-04-03T10:13:14.963Z</time></trkpt><trkpt lat="44.0479803" lon="8.0522897"><ele>391.0</ele><time>2026-04-03T10:13:15.962Z</time></trkpt><trkpt lat="44.047905" lon="8.0522006"><ele>388.6</ele><time>2026-04-03T10:13:16.963Z</time></trkpt><trkpt lat="44.0478413" lon="8.0520969"><ele>386.20000000000005</ele><time>2026-04-03T10:13:17.962Z</time></trkpt><trkpt lat="44.047784" lon="8.0519815"><ele>383.79999999999995</ele><time>2026-04-03T10:13:18.963Z</time></trkpt><trkpt lat="44.0477332" lon="8.0518596"><ele>381.4</ele><time>2026-04-03T10:13:19.963Z</time></trkpt><trkpt lat="44.047675" lon="8.0517265"><ele>379.0</ele><time>2026-04-03T10:13:20.963Z</time></trkpt><trkpt lat="44.0476135" lon="8.051607"><ele>375.79999999999995</ele><time>2026-04-03T10:13:21.963Z</time></trkpt><trkpt lat="44.0475469" lon="8.0514934"><ele>372.59999999999997</ele><time>2026-04-03T10:13:22.962Z</time></trkpt><trkpt lat="44.047479" lon="8.0513916"><ele>369.4</ele><time>2026-04-03T10:13:23.963Z</time></trkpt><trkpt lat="44.047417" lon="8.0512888"><ele>366.2</ele><time>2026-04-03T10:13:24.963Z</time></trkpt><trkpt lat="44.0473665" lon="8.0511937"><ele>363.0</ele><time>2026-04-03T10:13:25.963Z</time></trkpt><trkpt lat="44.0473318" lon="8.0511028"><ele>369.2</ele><time>2026-04-03T10:13:26.963Z</time></trkpt><trkpt lat="44.0473029" lon="8.0510218"><ele>375.4</ele><time>2026-04-03T10:13:27.963Z</time></trkpt><trkpt lat="44.0472659" lon="8.050859"><ele>381.59999999999997</ele><time>2026-04-03T10:13:29.962Z</time></trkpt><trkpt lat="44.0472696" lon="8.0507642"><ele>387.79999999999995</ele><time>2026-04-03T10:13:30.963Z</time></trkpt><trkpt lat="44.0473372" lon="8.0506443"><ele>394.0</ele><time>2026-04-03T10:13:31.962Z</time></trkpt><trkpt lat="44.047418" lon="8.0505468"><ele>394.0</ele><time>2026-04-03T10:13:32.962Z</time></trkpt><trkpt lat="44.0474711" lon="8.0504489"><ele>394.0</ele><time>2026-04-03T10:13:33.963Z</time></trkpt><trkpt lat="44.0474924" lon="8.0503507"><ele>394.0</ele><time>2026-04-03T10:13:34.962Z</time></trkpt><trkpt lat="44.0474721" lon="8.0502614"><ele>394.0</ele><time>2026-04-03T10:13:35.962Z</time></trkpt><trkpt lat="44.0474547" lon="8.0501628"><ele>394.0</ele><time>2026-04-03T10:13:36.962Z</time></trkpt><trkpt lat="44.0474339" lon="8.0500637"><ele>394.0</ele><time>2026-04-03T10:13:37.963Z</time></trkpt><trkpt lat="44.0474272" lon="8.0499644"><ele>394.0</ele><time>2026-04-03T10:13:38.962Z</time></trkpt><trkpt lat="44.0474446" lon="8.0498738"><ele>387.00000000000006</ele><time>2026-04-03T10:13:39.962Z</time></trkpt><trkpt lat="44.0474705" lon="8.0497866"><ele>380.0</ele><time>2026-04-03T10:13:40.963Z</time></trkpt><trkpt lat="44.0474998" lon="8.0497045"><ele>373.0</ele><time>2026-04-03T10:13:41.963Z</time></trkpt><trkpt lat="44.0475467" lon="8.0495509"><ele>366.0</ele><time>2026-04-03T10:13:43.963Z</time></trkpt><trkpt lat="44.0475604" lon="8.0494585"><ele>359.0</ele><time>2026-04-03T10:13:44.963Z</time></trkpt><trkpt lat="44.0475812" lon="8.0493369"><ele>352.0</ele><time>2026-04-03T10:13:45.963Z</time></trkpt><trkpt lat="44.047611" lon="8.0491897"><ele>351.6</ele><time>2026-04-03T10:13:46.963Z</time></trkpt><trkpt lat="44.0476411" lon="8.0490548"><ele>351.20000000000005</ele><time>2026-04-03T10:13:47.962Z</time></trkpt><trkpt lat="44.0476646" lon="8.0489484"><ele>350.8</ele><time>2026-04-03T10:13:48.962Z</time></trkpt><trkpt lat="44.0476583" lon="8.0488257"><ele>350.4</ele><time>2026-04-03T10:13:50.963Z</time></trkpt><trkpt lat="44.0475775" lon="8.0487683"><ele>350.0</ele><time>2026-04-03T10:14:46.962Z</time></trkpt><trkpt lat="44.0474407" lon="8.0487087"><ele>350.0</ele><time>2026-04-03T10:14:48.962Z</time></trkpt><trkpt lat="44.0473538" lon="8.0486782"><ele>350.0</ele><time>2026-04-03T10:14:49.962Z</time></trkpt><trkpt lat="44.0472738" lon="8.0486386"><ele>350.0</ele><time>2026-04-03T10:14:50.961Z</time></trkpt><trkpt lat="44.0471929" lon="8.0485996"><ele>350.0</ele><time>2026-04-03T10:14:51.962Z</time></trkpt><trkpt lat="44.0471132" lon="8.0485713"><ele>350.0</ele><time>2026-04-03T10:14:52.962Z</time></trkpt><trkpt lat="44.0470337" lon="8.0485463"><ele>350.0</ele><time>2026-04-03T10:14:53.962Z</time></trkpt><trkpt lat="44.0469594" lon="8.0485336"><ele>350.0</ele><time>2026-04-03T10:14:54.962Z</time></trkpt><trkpt lat="44.0468907" lon="8.0485293"><ele>350.0</ele><time>2026-04-03T10:14:55.962Z</time></trkpt><trkpt lat="44.0468249" lon="8.0485301"><ele>350.0</ele><time>2026-04-03T10:14:56.962Z</time></trkpt><trkpt lat="44.0467152" lon="8.048497"><ele>350.0</ele><time>2026-04-03T10:14:58.962Z</time></trkpt><trkpt lat="44.0466163" lon="8.0483881"><ele>350.0</ele><time>2026-04-03T10:15:00.962Z</time></trkpt><trkpt lat="44.0465438" lon="8.0483167"><ele>348.8</ele><time>2026-04-03T10:15:01.962Z</time></trkpt><trkpt lat="44.0464585" lon="8.0482452"><ele>347.6</ele><time>2026-04-03T10:15:02.961Z</time></trkpt><trkpt lat="44.0463673" lon="8.048201"><ele>346.4</ele><time>2026-04-03T10:15:03.962Z</time></trkpt><trkpt lat="44.0462698" lon="8.0481749"><ele>345.2</ele><time>2026-04-03T10:15:04.961Z</time></trkpt><trkpt lat="44.0461836" lon="8.0481581"><ele>344.0</ele><time>2026-04-03T10:15:05.962Z</time></trkpt><trkpt lat="44.0461143" lon="8.0481359"><ele>344.0</ele><time>2026-04-03T10:15:06.961Z</time></trkpt><trkpt lat="44.0460559" lon="8.0481004"><ele>344.0</ele><time>2026-04-03T10:15:07.962Z</time></trkpt><trkpt lat="44.046012" lon="8.0480357"><ele>344.0</ele><time>2026-04-03T10:15:08.962Z</time></trkpt><trkpt lat="44.0459787" lon="8.0479478"><ele>344.0</ele><time>2026-04-03T10:15:09.961Z</time></trkpt><trkpt lat="44.0459544" lon="8.047828"><ele>344.0</ele><time>2026-04-03T10:15:10.962Z</time></trkpt><trkpt lat="44.0459171" lon="8.0477116"><ele>344.0</ele><time>2026-04-03T10:15:11.962Z</time></trkpt><trkpt lat="44.0458607" lon="8.0475966"><ele>344.0</ele><time>2026-04-03T10:15:12.962Z</time></trkpt><trkpt lat="44.0457758" lon="8.0474849"><ele>344.0</ele><time>2026-04-03T10:15:13.962Z</time></trkpt><trkpt lat="44.0456903" lon="8.0473878"><ele>344.0</ele><time>2026-04-03T10:15:14.962Z</time></trkpt><trkpt lat="44.0456095" lon="8.0472983"><ele>344.0</ele><time>2026-04-03T10:15:15.962Z</time></trkpt><trkpt lat="44.0455317" lon="8.0472259"><ele>344.0</ele><time>2026-04-03T10:15:16.962Z</time></trkpt><trkpt lat="44.0454657" lon="8.0471833"><ele>344.0</ele><time>2026-04-03T10:15:17.961Z</time></trkpt><trkpt lat="44.0453944" lon="8.0471541"><ele>344.0</ele><time>2026-04-03T10:15:18.961Z</time></trkpt><trkpt lat="44.0453085" lon="8.0471465"><ele>344.0</ele><time>2026-04-03T10:15:19.962Z</time></trkpt><trkpt lat="44.0452236" lon="8.0471425"><ele>344.0</ele><time>2026-04-03T10:15:20.962Z</time></trkpt><trkpt lat="44.0451469" lon="8.0471376"><ele>344.0</ele><time>2026-04-03T10:15:21.962Z</time></trkpt><trkpt lat="44.0450866" lon="8.0471123"><ele>344.0</ele><time>2026-04-03T10:15:22.962Z</time></trkpt><trkpt lat="44.0450098" lon="8.0469912"><ele>344.0</ele><time>2026-04-03T10:15:24.962Z</time></trkpt><trkpt lat="44.0449828" lon="8.0468903"><ele>344.0</ele><time>2026-04-03T10:15:25.962Z</time></trkpt><trkpt lat="44.0449712" lon="8.0467892"><ele>344.0</ele><time>2026-04-03T10:15:26.961Z</time></trkpt><trkpt lat="44.0449677" lon="8.046685"><ele>344.0</ele><time>2026-04-03T10:15:27.962Z</time></trkpt><trkpt lat="44.0449772" lon="8.0465832"><ele>344.0</ele><time>2026-04-03T10:15:28.962Z</time></trkpt><trkpt lat="44.0450025" lon="8.0464839"><ele>344.0</ele><time>2026-04-03T10:15:29.962Z</time></trkpt><trkpt lat="44.0450397" lon="8.046378"><ele>342.5</ele><time>2026-04-03T10:15:30.962Z</time></trkpt><trkpt lat="44.0450839" lon="8.0462822"><ele>341.0</ele><time>2026-04-03T10:15:31.962Z</time></trkpt><trkpt lat="44.0451151" lon="8.0461755"><ele>339.5</ele><time>2026-04-03T10:15:32.962Z</time></trkpt><trkpt lat="44.0451235" lon="8.0460694"><ele>338.0</ele><time>2026-04-03T10:15:33.961Z</time></trkpt><trkpt lat="44.0450966" lon="8.045966"><ele>336.5</ele><time>2026-04-03T10:15:34.962Z</time></trkpt><trkpt lat="44.045056" lon="8.0458626"><ele>335.0</ele><time>2026-04-03T10:15:35.962Z</time></trkpt><trkpt lat="44.0450202" lon="8.045756"><ele>334.8</ele><time>2026-04-03T10:15:36.961Z</time></trkpt><trkpt lat="44.0449838" lon="8.0456456"><ele>334.6</ele><time>2026-04-03T10:15:37.962Z</time></trkpt><trkpt lat="44.0449451" lon="8.0455399"><ele>334.4</ele><time>2026-04-03T10:15:38.961Z</time></trkpt><trkpt lat="44.044883" lon="8.0454282"><ele>334.2</ele><time>2026-04-03T10:15:39.962Z</time></trkpt><trkpt lat="44.0448129" lon="8.0453097"><ele>334.0</ele><time>2026-04-03T10:15:40.961Z</time></trkpt><trkpt lat="44.0447425" lon="8.0451797"><ele>339.4</ele><time>2026-04-03T10:15:41.961Z</time></trkpt><trkpt lat="44.0446768" lon="8.0450541"><ele>344.79999999999995</ele><time>2026-04-03T10:15:42.961Z</time></trkpt><trkpt lat="44.0446259" lon="8.0449526"><ele>350.20000000000005</ele><time>2026-04-03T10:15:43.961Z</time></trkpt><trkpt lat="44.0445969" lon="8.0448652"><ele>355.6</ele><time>2026-04-03T10:15:44.962Z</time></trkpt><trkpt lat="44.044606" lon="8.0447273"><ele>361.0</ele><time>2026-04-03T10:15:46.961Z</time></trkpt><trkpt lat="44.0447293" lon="8.0446628"><ele>361.20000000000005</ele><time>2026-04-03T10:15:48.961Z</time></trkpt><trkpt lat="44.0448173" lon="8.0446651"><ele>361.40000000000003</ele><time>2026-04-03T10:15:49.962Z</time></trkpt><trkpt lat="44.0449092" lon="8.0446899"><ele>361.6</ele><time>2026-04-03T10:15:50.961Z</time></trkpt><trkpt lat="44.0450042" lon="8.0447149"><ele>361.8</ele><time>2026-04-03T10:15:51.961Z</time></trkpt><trkpt lat="44.0451084" lon="8.0447363"><ele>362.0</ele><time>2026-04-03T10:15:52.962Z</time></trkpt><trkpt lat="44.0452203" lon="8.0447626"><ele>362.0</ele><time>2026-04-03T10:15:53.962Z</time></trkpt><trkpt lat="44.0453272" lon="8.0448038"><ele>362.0</ele><time>2026-04-03T10:15:54.962Z</time></trkpt><trkpt lat="44.0454141" lon="8.0448492"><ele>362.0</ele><time>2026-04-03T10:15:55.962Z</time></trkpt><trkpt lat="44.0454961" lon="8.0448751"><ele>362.0</ele><time>2026-04-03T10:15:56.961Z</time></trkpt><trkpt lat="44.0455778" lon="8.0448826"><ele>362.0</ele><time>2026-04-03T10:15:57.962Z</time></trkpt><trkpt lat="44.0456595" lon="8.044856"><ele>362.0</ele><time>2026-04-03T10:15:58.961Z</time></trkpt><trkpt lat="44.0457438" lon="8.0448022"><ele>362.0</ele><time>2026-04-03T10:15:59.962Z</time></trkpt><trkpt lat="44.0458316" lon="8.0447245"><ele>362.0</ele><time>2026-04-03T10:16:00.962Z</time></trkpt><trkpt lat="44.0459242" lon="8.044655"><ele>362.0</ele><time>2026-04-03T10:16:01.962Z</time></trkpt><trkpt lat="44.0460087" lon="8.0446021"><ele>362.0</ele><time>2026-04-03T10:16:02.962Z</time></trkpt><trkpt lat="44.0460906" lon="8.0445573"><ele>360.8</ele><time>2026-04-03T10:16:03.962Z</time></trkpt><trkpt lat="44.0461695" lon="8.0444975"><ele>359.6</ele><time>2026-04-03T10:16:04.961Z</time></trkpt><trkpt lat="44.0462439" lon="8.0444208"><ele>358.40000000000003</ele><time>2026-04-03T10:16:05.962Z</time></trkpt><trkpt lat="44.046321" lon="8.0443499"><ele>357.20000000000005</ele><time>2026-04-03T10:16:06.961Z</time></trkpt><trkpt lat="44.0463942" lon="8.044278"><ele>356.0</ele><time>2026-04-03T10:16:07.961Z</time></trkpt><trkpt lat="44.0464771" lon="8.044229"><ele>356.0</ele><time>2026-04-03T10:16:08.962Z</time></trkpt><trkpt lat="44.0465398" lon="8.044178"><ele>356.0</ele><time>2026-04-03T10:16:09.962Z</time></trkpt><trkpt lat="44.0465956" lon="8.044115"><ele>356.0</ele><time>2026-04-03T10:16:10.962Z</time></trkpt><trkpt lat="44.0466368" lon="8.0440475"><ele>356.0</ele><time>2026-04-03T10:16:11.962Z</time></trkpt><trkpt lat="44.0466669" lon="8.0439665"><ele>356.0</ele><time>2026-04-03T10:16:12.962Z</time></trkpt><trkpt lat="44.0466846" lon="8.0438158"><ele>356.0</ele><time>2026-04-03T10:16:14.961Z</time></trkpt><trkpt lat="44.0467307" lon="8.0437428"><ele>355.6</ele><time>2026-04-03T10:16:16.961Z</time></trkpt><trkpt lat="44.0468563" lon="8.0437045"><ele>355.20000000000005</ele><time>2026-04-03T10:16:18.961Z</time></trkpt><trkpt lat="44.0469541" lon="8.0436617"><ele>354.79999999999995</ele><time>2026-04-03T10:16:19.961Z</time></trkpt><trkpt lat="44.0470456" lon="8.0436161"><ele>354.4</ele><time>2026-04-03T10:16:20.961Z</time></trkpt><trkpt lat="44.0471409" lon="8.0435577"><ele>354.0</ele><time>2026-04-03T10:16:21.961Z</time></trkpt><trkpt lat="44.0472282" lon="8.0434895"><ele>354.0</ele><time>2026-04-03T10:16:22.962Z</time></trkpt><trkpt lat="44.0473159" lon="8.0434235"><ele>354.0</ele><time>2026-04-03T10:16:23.962Z</time></trkpt><trkpt lat="44.0473997" lon="8.04338"><ele>354.0</ele><time>2026-04-03T10:16:24.962Z</time></trkpt><trkpt lat="44.0474854" lon="8.0433655"><ele>354.0</ele><time>2026-04-03T10:16:25.962Z</time></trkpt><trkpt lat="44.0475705" lon="8.0433571"><ele>354.0</ele><time>2026-04-03T10:16:26.961Z</time></trkpt><trkpt lat="44.0476435" lon="8.0433291"><ele>354.0</ele><time>2026-04-03T10:16:27.962Z</time></trkpt><trkpt lat="44.0477222" lon="8.0432787"><ele>352.79999999999995</ele><time>2026-04-03T10:16:28.962Z</time></trkpt><trkpt lat="44.0477991" lon="8.043208"><ele>351.59999999999997</ele><time>2026-04-03T10:16:29.962Z</time></trkpt><trkpt lat="44.0478793" lon="8.043124"><ele>350.4</ele><time>2026-04-03T10:16:30.961Z</time></trkpt><trkpt lat="44.0479673" lon="8.0430459"><ele>349.2</ele><time>2026-04-03T10:16:31.962Z</time></trkpt><trkpt lat="44.0480537" lon="8.0429632"><ele>348.0</ele><time>2026-04-03T10:16:32.961Z</time></trkpt><trkpt lat="44.0481198" lon="8.0428723"><ele>348.0</ele><time>2026-04-03T10:16:33.961Z</time></trkpt><trkpt lat="44.0481835" lon="8.0427759"><ele>348.0</ele><time>2026-04-03T10:16:34.962Z</time></trkpt><trkpt lat="44.0482482" lon="8.042681"><ele>348.0</ele><time>2026-04-03T10:16:35.962Z</time></trkpt><trkpt lat="44.0483113" lon="8.0425986"><ele>348.0</ele><time>2026-04-03T10:16:36.961Z</time></trkpt><trkpt lat="44.0483793" lon="8.042536"><ele>348.0</ele><time>2026-04-03T10:16:37.962Z</time></trkpt><trkpt lat="44.0484356" lon="8.0424809"><ele>348.0</ele><time>2026-04-03T10:16:38.962Z</time></trkpt><trkpt lat="44.0484894" lon="8.0424193"><ele>339.59999999999997</ele><time>2026-04-03T10:16:39.962Z</time></trkpt><trkpt lat="44.0485333" lon="8.0423045"><ele>331.2</ele><time>2026-04-03T10:16:41.962Z</time></trkpt><trkpt lat="44.0484961" lon="8.0421218"><ele>322.8</ele><time>2026-04-03T10:16:43.962Z</time></trkpt><trkpt lat="44.0484672" lon="8.0420048"><ele>314.4</ele><time>2026-04-03T10:16:44.962Z</time></trkpt><trkpt lat="44.0484351" lon="8.0418919"><ele>306.0</ele><time>2026-04-03T10:16:45.962Z</time></trkpt><trkpt lat="44.0484085" lon="8.041791"><ele>306.0</ele><time>2026-04-03T10:16:46.962Z</time></trkpt><trkpt lat="44.048368" lon="8.0416791"><ele>306.0</ele><time>2026-04-03T10:16:47.962Z</time></trkpt><trkpt lat="44.048335" lon="8.0415817"><ele>306.0</ele><time>2026-04-03T10:16:48.962Z</time></trkpt><trkpt lat="44.0482948" lon="8.0414964"><ele>306.0</ele><time>2026-04-03T10:16:49.962Z</time></trkpt><trkpt lat="44.0482325" lon="8.0414154"><ele>306.0</ele><time>2026-04-03T10:16:50.962Z</time></trkpt><trkpt lat="44.0481625" lon="8.0413398"><ele>306.0</ele><time>2026-04-03T10:16:51.961Z</time></trkpt><trkpt lat="44.0480942" lon="8.0412863"><ele>307.6</ele><time>2026-04-03T10:16:52.962Z</time></trkpt><trkpt lat="44.0480223" lon="8.041252"><ele>309.20000000000005</ele><time>2026-04-03T10:16:53.962Z</time></trkpt><trkpt lat="44.0479047" lon="8.0411954"><ele>310.79999999999995</ele><time>2026-04-03T10:16:55.961Z</time></trkpt><trkpt lat="44.0478308" lon="8.041117"><ele>312.4</ele><time>2026-04-03T10:16:57.961Z</time></trkpt><trkpt lat="44.0478212" lon="8.0410051"><ele>314.0</ele><time>2026-04-03T10:16:59.961Z</time></trkpt><trkpt lat="44.0477617" lon="8.0409355"><ele>314.0</ele><time>2026-04-03T10:17:25.962Z</time></trkpt><trkpt lat="44.0477355" lon="8.0410155"><ele>314.0</ele><time>2026-04-03T10:17:27.962Z</time></trkpt><trkpt lat="44.0477711" lon="8.0410948"><ele>314.0</ele><time>2026-04-03T10:17:30.961Z</time></trkpt><trkpt lat="44.0478572" lon="8.0410774"><ele>314.0</ele><time>2026-04-03T10:17:32.961Z</time></trkpt><trkpt lat="44.0479473" lon="8.0411093"><ele>314.0</ele><time>2026-04-03T10:17:34.962Z</time></trkpt><trkpt lat="44.0480316" lon="8.0411774"><ele>314.0</ele><time>2026-04-03T10:17:36.962Z</time></trkpt><trkpt lat="44.0481259" lon="8.0412764"><ele>314.0</ele><time>2026-04-03T10:17:38.96Z</time></trkpt><trkpt lat="44.0481617" lon="8.0413501"><ele>314.0</ele><time>2026-04-03T10:17:39.96Z</time></trkpt><trkpt lat="44.0481911" lon="8.041433"><ele>314.0</ele><time>2026-04-03T10:17:40.961Z</time></trkpt><trkpt lat="44.0482382" lon="8.0415715"><ele>314.0</ele><time>2026-04-03T10:17:42.96Z</time></trkpt><trkpt lat="44.0482849" lon="8.0416939"><ele>314.0</ele><time>2026-04-03T10:17:44.961Z</time></trkpt><trkpt lat="44.0483032" lon="8.0418068"><ele>314.0</ele><time>2026-04-03T10:17:46.961Z</time></trkpt><trkpt lat="44.0483348" lon="8.0419462"><ele>312.4</ele><time>2026-04-03T10:17:48.96Z</time></trkpt><trkpt lat="44.04837" lon="8.04209"><ele>310.79999999999995</ele><time>2026-04-03T10:17:50.961Z</time></trkpt><trkpt lat="44.0484179" lon="8.0422474"><ele>309.20000000000005</ele><time>2026-04-03T10:17:52.96Z</time></trkpt><trkpt lat="44.0484619" lon="8.0423837"><ele>307.6</ele><time>2026-04-03T10:17:54.96Z</time></trkpt><trkpt lat="44.0484663" lon="8.0422478"><ele>306.0</ele><time>2026-04-03T10:20:13.961Z</time></trkpt><trkpt lat="44.0484469" lon="8.0421411"><ele>306.0</ele><time>2026-04-03T10:20:14.961Z</time></trkpt><trkpt lat="44.0484108" lon="8.0419973"><ele>306.0</ele><time>2026-04-03T10:20:15.961Z</time></trkpt><trkpt lat="44.0483694" lon="8.041841"><ele>306.0</ele><time>2026-04-03T10:20:16.96Z</time></trkpt><trkpt lat="44.0483149" lon="8.0416744"><ele>306.0</ele><time>2026-04-03T10:20:17.961Z</time></trkpt><trkpt lat="44.0482667" lon="8.041539"><ele>307.6</ele><time>2026-04-03T10:20:18.961Z</time></trkpt><trkpt lat="44.0482239" lon="8.041421"><ele>309.20000000000005</ele><time>2026-04-03T10:20:19.96Z</time></trkpt><trkpt lat="44.0481765" lon="8.0413136"><ele>310.79999999999995</ele><time>2026-04-03T10:20:20.961Z</time></trkpt><trkpt lat="44.048118" lon="8.0412181"><ele>312.4</ele><time>2026-04-03T10:20:21.96Z</time></trkpt><trkpt lat="44.0480246" lon="8.0411483"><ele>314.0</ele><time>2026-04-03T10:20:22.961Z</time></trkpt><trkpt lat="44.0479467" lon="8.0410901"><ele>314.0</ele><time>2026-04-03T10:20:23.961Z</time></trkpt><trkpt lat="44.0478525" lon="8.0410463"><ele>314.0</ele><time>2026-04-03T10:20:24.961Z</time></trkpt><trkpt lat="44.0477706" lon="8.0409987"><ele>314.0</ele><time>2026-04-03T10:20:25.961Z</time></trkpt><trkpt lat="44.0477107" lon="8.040933"><ele>314.0</ele><time>2026-04-03T10:20:26.961Z</time></trkpt><trkpt lat="44.047698" lon="8.0407931"><ele>314.0</ele><time>2026-04-03T10:20:28.96Z</time></trkpt><trkpt lat="44.0477521" lon="8.0406404"><ele>313.4</ele><time>2026-04-03T10:20:30.961Z</time></trkpt><trkpt lat="44.0477518" lon="8.0405022"><ele>312.79999999999995</ele><time>2026-04-03T10:20:32.961Z</time></trkpt><trkpt lat="44.0477134" lon="8.0404304"><ele>312.20000000000005</ele><time>2026-04-03T10:20:33.961Z</time></trkpt><trkpt lat="44.0476296" lon="8.0403607"><ele>311.6</ele><time>2026-04-03T10:20:34.96Z</time></trkpt><trkpt lat="44.0475344" lon="8.0402917"><ele>311.0</ele><time>2026-04-03T10:20:35.961Z</time></trkpt><trkpt lat="44.0474472" lon="8.0402308"><ele>311.0</ele><time>2026-04-03T10:20:36.961Z</time></trkpt><trkpt lat="44.0473779" lon="8.0401846"><ele>311.0</ele><time>2026-04-03T10:20:37.961Z</time></trkpt><trkpt lat="44.0473226" lon="8.0401368"><ele>311.0</ele><time>2026-04-03T10:20:38.961Z</time></trkpt><trkpt lat="44.047258" lon="8.0400585"><ele>311.0</ele><time>2026-04-03T10:20:39.96Z</time></trkpt><trkpt lat="44.0471894" lon="8.0399629"><ele>311.0</ele><time>2026-04-03T10:20:40.961Z</time></trkpt><trkpt lat="44.0471157" lon="8.0398606"><ele>311.0</ele><time>2026-04-03T10:20:41.961Z</time></trkpt><trkpt lat="44.0470339" lon="8.0397771"><ele>310.6</ele><time>2026-04-03T10:20:42.96Z</time></trkpt><trkpt lat="44.0469403" lon="8.0397054"><ele>310.20000000000005</ele><time>2026-04-03T10:20:43.96Z</time></trkpt><trkpt lat="44.0468522" lon="8.0396517"><ele>309.79999999999995</ele><time>2026-04-03T10:20:44.96Z</time></trkpt><trkpt lat="44.0467709" lon="8.0395863"><ele>309.4</ele><time>2026-04-03T10:20:45.961Z</time></trkpt><trkpt lat="44.0466838" lon="8.0394866"><ele>309.0</ele><time>2026-04-03T10:20:46.961Z</time></trkpt><trkpt lat="44.0466008" lon="8.039378"><ele>309.0</ele><time>2026-04-03T10:20:47.961Z</time></trkpt><trkpt lat="44.0465375" lon="8.0392453"><ele>309.0</ele><time>2026-04-03T10:20:48.961Z</time></trkpt><trkpt lat="44.046489" lon="8.0390975"><ele>309.0</ele><time>2026-04-03T10:20:49.961Z</time></trkpt><trkpt lat="44.0464411" lon="8.0389612"><ele>309.0</ele><time>2026-04-03T10:20:50.961Z</time></trkpt><trkpt lat="44.0463912" lon="8.0388377"><ele>309.0</ele><time>2026-04-03T10:20:51.96Z</time></trkpt><trkpt lat="44.0463218" lon="8.0387209"><ele>305.75</ele><time>2026-04-03T10:20:52.961Z</time></trkpt><trkpt lat="44.0462377" lon="8.0386251"><ele>302.5</ele><time>2026-04-03T10:20:53.96Z</time></trkpt><trkpt lat="44.0461344" lon="8.0385411"><ele>299.25</ele><time>2026-04-03T10:20:54.96Z</time></trkpt><trkpt lat="44.0460019" lon="8.0384802"><ele>296.0</ele><time>2026-04-03T10:20:55.96Z</time></trkpt><trkpt lat="44.0458741" lon="8.0384451"><ele>299.8</ele><time>2026-04-03T10:20:56.96Z</time></trkpt><trkpt lat="44.0457548" lon="8.0384043"><ele>303.6</ele><time>2026-04-03T10:20:57.96Z</time></trkpt><trkpt lat="44.0456545" lon="8.0383851"><ele>307.4</ele><time>2026-04-03T10:20:58.96Z</time></trkpt><trkpt lat="44.0455787" lon="8.0383581"><ele>311.2</ele><time>2026-04-03T10:20:59.961Z</time></trkpt><trkpt lat="44.0455193" lon="8.0383187"><ele>315.0</ele><time>2026-04-03T10:21:00.961Z</time></trkpt><trkpt lat="44.0454895" lon="8.0381976"><ele>316.0</ele><time>2026-04-03T10:21:02.961Z</time></trkpt><trkpt lat="44.0456252" lon="8.0381137"><ele>317.0</ele><time>2026-04-03T10:21:04.96Z</time></trkpt><trkpt lat="44.0457342" lon="8.0380656"><ele>318.0</ele><time>2026-04-03T10:21:05.96Z</time></trkpt><trkpt lat="44.0458676" lon="8.0380161"><ele>319.0</ele><time>2026-04-03T10:21:06.961Z</time></trkpt><trkpt lat="44.0460213" lon="8.0379998"><ele>319.0</ele><time>2026-04-03T10:21:07.961Z</time></trkpt><trkpt lat="44.0461582" lon="8.0379907"><ele>319.0</ele><time>2026-04-03T10:21:08.961Z</time></trkpt><trkpt lat="44.0462954" lon="8.0379912"><ele>319.0</ele><time>2026-04-03T10:21:09.961Z</time></trkpt><trkpt lat="44.0464274" lon="8.0379971"><ele>319.0</ele><time>2026-04-03T10:21:10.96Z</time></trkpt><trkpt lat="44.0465507" lon="8.0380089"><ele>318.2</ele><time>2026-04-03T10:21:11.961Z</time></trkpt><trkpt lat="44.0466627" lon="8.0380299"><ele>317.4</ele><time>2026-04-03T10:21:12.961Z</time></trkpt><trkpt lat="44.0467455" lon="8.0380774"><ele>316.6</ele><time>2026-04-03T10:21:13.961Z</time></trkpt><trkpt lat="44.0468188" lon="8.0381287"><ele>315.8</ele><time>2026-04-03T10:21:14.961Z</time></trkpt><trkpt lat="44.0468946" lon="8.0381724"><ele>315.0</ele><time>2026-04-03T10:21:15.961Z</time></trkpt><trkpt lat="44.0469786" lon="8.0381821"><ele>315.0</ele><time>2026-04-03T10:21:16.961Z</time></trkpt><trkpt lat="44.0470729" lon="8.0381772"><ele>315.0</ele><time>2026-04-03T10:21:17.96Z</time></trkpt><trkpt lat="44.0471751" lon="8.0381689"><ele>315.0</ele><time>2026-04-03T10:21:18.961Z</time></trkpt><trkpt lat="44.0472936" lon="8.0381874"><ele>315.0</ele><time>2026-04-03T10:21:19.961Z</time></trkpt><trkpt lat="44.0474376" lon="8.0382041"><ele>313.8</ele><time>2026-04-03T10:21:20.96Z</time></trkpt><trkpt lat="44.0475588" lon="8.0382342"><ele>312.6</ele><time>2026-04-03T10:21:21.96Z</time></trkpt><trkpt lat="44.047668" lon="8.0382556"><ele>311.4</ele><time>2026-04-03T10:21:22.959Z</time></trkpt><trkpt lat="44.0477686" lon="8.0382659"><ele>310.2</ele><time>2026-04-03T10:21:23.959Z</time></trkpt><trkpt lat="44.0478545" lon="8.0382672"><ele>309.0</ele><time>2026-04-03T10:21:24.96Z</time></trkpt><trkpt lat="44.0479226" lon="8.0382608"><ele>309.0</ele><time>2026-04-03T10:21:25.96Z</time></trkpt><trkpt lat="44.0479856" lon="8.0382278"><ele>309.0</ele><time>2026-04-03T10:21:26.96Z</time></trkpt><trkpt lat="44.0480462" lon="8.0381775"><ele>309.0</ele><time>2026-04-03T10:21:27.959Z</time></trkpt><trkpt lat="44.0481393" lon="8.0381138"><ele>309.0</ele><time>2026-04-03T10:21:29.959Z</time></trkpt><trkpt lat="44.0482126" lon="8.0381058"><ele>309.0</ele><time>2026-04-03T10:21:30.96Z</time></trkpt><trkpt lat="44.0482948" lon="8.038126"><ele>309.0</ele><time>2026-04-03T10:21:31.96Z</time></trkpt><trkpt lat="44.048381" lon="8.0381833"><ele>308.2</ele><time>2026-04-03T10:21:32.96Z</time></trkpt><trkpt lat="44.0484691" lon="8.0382663"><ele>307.4</ele><time>2026-04-03T10:21:33.96Z</time></trkpt><trkpt lat="44.0485351" lon="8.0383166"><ele>306.6</ele><time>2026-04-03T10:21:34.96Z</time></trkpt><trkpt lat="44.0486586" lon="8.0382798"><ele>305.8</ele><time>2026-04-03T10:21:36.96Z</time></trkpt><trkpt lat="44.0487333" lon="8.0382167"><ele>305.0</ele><time>2026-04-03T10:21:38.959Z</time></trkpt><trkpt lat="44.0488144" lon="8.0381251"><ele>305.0</ele><time>2026-04-03T10:22:09.96Z</time></trkpt><trkpt lat="44.0488633" lon="8.0380628"><ele>305.0</ele><time>2026-04-03T10:22:10.96Z</time></trkpt><trkpt lat="44.0489325" lon="8.038005"><ele>305.0</ele><time>2026-04-03T10:22:11.96Z</time></trkpt><trkpt lat="44.0490147" lon="8.0379625"><ele>305.0</ele><time>2026-04-03T10:22:12.96Z</time></trkpt><trkpt lat="44.0491036" lon="8.0379393"><ele>305.0</ele><time>2026-04-03T10:22:13.96Z</time></trkpt><trkpt lat="44.0491647" lon="8.0379057"><ele>305.0</ele><time>2026-04-03T10:22:14.96Z</time></trkpt><trkpt lat="44.0492225" lon="8.0378609"><ele>305.5</ele><time>2026-04-03T10:22:15.96Z</time></trkpt><trkpt lat="44.0492702" lon="8.0377765"><ele>306.0</ele><time>2026-04-03T10:22:16.96Z</time></trkpt><trkpt lat="44.0493139" lon="8.0376563"><ele>306.5</ele><time>2026-04-03T10:22:17.959Z</time></trkpt><trkpt lat="44.049352" lon="8.0375533"><ele>307.0</ele><time>2026-04-03T10:22:18.96Z</time></trkpt><trkpt lat="44.0493888" lon="8.0374683"><ele>307.5</ele><time>2026-04-03T10:22:19.96Z</time></trkpt><trkpt lat="44.0494826" lon="8.0374029"><ele>308.0</ele><time>2026-04-03T10:22:21.96Z</time></trkpt><trkpt lat="44.049624" lon="8.0374295"><ele>301.0</ele><time>2026-04-03T10:22:23.96Z</time></trkpt><trkpt lat="44.0497245" lon="8.0374986"><ele>294.0</ele><time>2026-04-03T10:22:24.959Z</time></trkpt><trkpt lat="44.0498133" lon="8.0375686"><ele>287.0</ele><time>2026-04-03T10:22:25.96Z</time></trkpt><trkpt lat="44.0499072" lon="8.037634"><ele>280.0</ele><time>2026-04-03T10:22:26.959Z</time></trkpt><trkpt lat="44.0499886" lon="8.0376937"><ele>273.0</ele><time>2026-04-03T10:22:27.959Z</time></trkpt><trkpt lat="44.0500624" lon="8.0377632"><ele>270.2</ele><time>2026-04-03T10:22:28.96Z</time></trkpt><trkpt lat="44.0501344" lon="8.0378335"><ele>267.4</ele><time>2026-04-03T10:22:29.959Z</time></trkpt><trkpt lat="44.0502076" lon="8.0379062"><ele>264.59999999999997</ele><time>2026-04-03T10:22:30.959Z</time></trkpt><trkpt lat="44.0502968" lon="8.0379736"><ele>261.8</ele><time>2026-04-03T10:22:31.96Z</time></trkpt><trkpt lat="44.0503735" lon="8.0380338"><ele>259.0</ele><time>2026-04-03T10:22:32.96Z</time></trkpt><trkpt lat="44.0504524" lon="8.0380926"><ele>259.0</ele><time>2026-04-03T10:22:33.96Z</time></trkpt><trkpt lat="44.0505242" lon="8.0381358"><ele>259.0</ele><time>2026-04-03T10:22:34.96Z</time></trkpt><trkpt lat="44.0506401" lon="8.0381809"><ele>259.0</ele><time>2026-04-03T10:22:36.959Z</time></trkpt><trkpt lat="44.050741" lon="8.0381893"><ele>259.0</ele><time>2026-04-03T10:22:38.96Z</time></trkpt><trkpt lat="44.0508753" lon="8.0382326"><ele>259.0</ele><time>2026-04-03T10:22:40.959Z</time></trkpt><trkpt lat="44.0509547" lon="8.0382928"><ele>256.5</ele><time>2026-04-03T10:22:41.96Z</time></trkpt><trkpt lat="44.0510306" lon="8.0383716"><ele>254.0</ele><time>2026-04-03T10:22:42.96Z</time></trkpt><trkpt lat="44.0511051" lon="8.0384535"><ele>251.5</ele><time>2026-04-03T10:22:43.959Z</time></trkpt><trkpt lat="44.0511692" lon="8.0385362"><ele>249.0</ele><time>2026-04-03T10:22:44.96Z</time></trkpt><trkpt lat="44.051226" lon="8.038622"><ele>246.49999999999997</ele><time>2026-04-03T10:22:45.96Z</time></trkpt><trkpt lat="44.0512778" lon="8.0386961"><ele>244.0</ele><time>2026-04-03T10:22:46.96Z</time></trkpt><trkpt lat="44.0513235" lon="8.0387691"><ele>244.0</ele><time>2026-04-03T10:22:47.96Z</time></trkpt><trkpt lat="44.0513634" lon="8.0388416"><ele>243.99999999999997</ele><time>2026-04-03T10:22:48.96Z</time></trkpt><trkpt lat="44.0514232" lon="8.0389958"><ele>243.99999999999997</ele><time>2026-04-03T10:22:50.96Z</time></trkpt><trkpt lat="44.0514524" lon="8.0390773"><ele>244.0</ele><time>2026-04-03T10:22:51.96Z</time></trkpt><trkpt lat="44.0515301" lon="8.0391532"><ele>244.0</ele><time>2026-04-03T10:22:53.96Z</time></trkpt><trkpt lat="44.0516524" lon="8.0391133"><ele>240.79999999999998</ele><time>2026-04-03T10:22:55.96Z</time></trkpt><trkpt lat="44.0517711" lon="8.0390501"><ele>237.59999999999997</ele><time>2026-04-03T10:22:57.959Z</time></trkpt><trkpt lat="44.0518124" lon="8.0389081"><ele>234.4</ele><time>2026-04-03T10:22:59.96Z</time></trkpt><trkpt lat="44.0517844" lon="8.0388001"><ele>231.2</ele><time>2026-04-03T10:23:00.96Z</time></trkpt><trkpt lat="44.0517358" lon="8.0386783"><ele>228.0</ele><time>2026-04-03T10:23:01.96Z</time></trkpt><trkpt lat="44.0516865" lon="8.0385342"><ele>228.0</ele><time>2026-04-03T10:23:02.96Z</time></trkpt><trkpt lat="44.0516318" lon="8.0383733"><ele>228.0</ele><time>2026-04-03T10:23:03.96Z</time></trkpt><trkpt lat="44.0515761" lon="8.038215"><ele>228.0</ele><time>2026-04-03T10:23:04.96Z</time></trkpt><trkpt lat="44.0515165" lon="8.0380432"><ele>228.0</ele><time>2026-04-03T10:23:05.96Z</time></trkpt><trkpt lat="44.0514542" lon="8.0378784"><ele>234.25</ele><time>2026-04-03T10:23:06.96Z</time></trkpt><trkpt lat="44.0513949" lon="8.0377254"><ele>240.5</ele><time>2026-04-03T10:23:07.96Z</time></trkpt><trkpt lat="44.0513423" lon="8.0375737"><ele>246.75</ele><time>2026-04-03T10:23:08.959Z</time></trkpt><trkpt lat="44.0512882" lon="8.0374307"><ele>253.0</ele><time>2026-04-03T10:23:09.96Z</time></trkpt><trkpt lat="44.0512573" lon="8.0372849"><ele>254.25</ele><time>2026-04-03T10:23:10.96Z</time></trkpt><trkpt lat="44.051238" lon="8.0371295"><ele>255.5</ele><time>2026-04-03T10:23:11.96Z</time></trkpt><trkpt lat="44.0512356" lon="8.0369741"><ele>256.75</ele><time>2026-04-03T10:23:12.959Z</time></trkpt><trkpt lat="44.0512476" lon="8.0368198"><ele>258.0</ele><time>2026-04-03T10:23:13.96Z</time></trkpt><trkpt lat="44.0512668" lon="8.0366568"><ele>259.5</ele><time>2026-04-03T10:23:14.959Z</time></trkpt><trkpt lat="44.0512983" lon="8.0364903"><ele>261.0</ele><time>2026-04-03T10:23:15.959Z</time></trkpt><trkpt lat="44.0513314" lon="8.0363284"><ele>262.5</ele><time>2026-04-03T10:23:16.96Z</time></trkpt><trkpt lat="44.0513515" lon="8.036163"><ele>264.0</ele><time>2026-04-03T10:23:17.96Z</time></trkpt><trkpt lat="44.0513725" lon="8.0360379"><ele>264.0</ele><time>2026-04-03T10:23:18.96Z</time></trkpt><trkpt lat="44.0513962" lon="8.0359442"><ele>264.0</ele><time>2026-04-03T10:23:19.96Z</time></trkpt><trkpt lat="44.0514645" lon="8.0358535"><ele>264.0</ele><time>2026-04-03T10:23:21.96Z</time></trkpt><trkpt lat="44.051514" lon="8.0359628"><ele>264.0</ele><time>2026-04-03T10:23:23.96Z</time></trkpt><trkpt lat="44.0515148" lon="8.0361144"><ele>264.0</ele><time>2026-04-03T10:23:24.96Z</time></trkpt><trkpt lat="44.0515145" lon="8.0362883"><ele>264.0</ele><time>2026-04-03T10:23:25.96Z</time></trkpt><trkpt lat="44.0515031" lon="8.0364605"><ele>264.0</ele><time>2026-04-03T10:23:26.959Z</time></trkpt><trkpt lat="44.0514803" lon="8.0366296"><ele>264.0</ele><time>2026-04-03T10:23:27.959Z</time></trkpt><trkpt lat="44.0514548" lon="8.0367708"><ele>264.0</ele><time>2026-04-03T10:23:28.96Z</time></trkpt><trkpt lat="44.0514502" lon="8.0368839"><ele>264.0</ele><time>2026-04-03T10:23:29.96Z</time></trkpt><trkpt lat="44.0514545" lon="8.0369917"><ele>262.8</ele><time>2026-04-03T10:23:31.959Z</time></trkpt><trkpt lat="44.0515385" lon="8.0369785"><ele>261.59999999999997</ele><time>2026-04-03T10:24:46.959Z</time></trkpt><trkpt lat="44.051583" lon="8.0371137"><ele>260.4</ele><time>2026-04-03T10:24:48.959Z</time></trkpt><trkpt lat="44.0516132" lon="8.037227"><ele>259.2</ele><time>2026-04-03T10:24:49.96Z</time></trkpt><trkpt lat="44.0516631" lon="8.0373719"><ele>258.0</ele><time>2026-04-03T10:24:50.96Z</time></trkpt><trkpt lat="44.0517176" lon="8.0375242"><ele>249.60000000000002</ele><time>2026-04-03T10:24:51.96Z</time></trkpt><trkpt lat="44.0517629" lon="8.0376783"><ele>241.20000000000002</ele><time>2026-04-03T10:24:52.96Z</time></trkpt><trkpt lat="44.0518032" lon="8.0378276"><ele>232.8</ele><time>2026-04-03T10:24:53.959Z</time></trkpt><trkpt lat="44.0518402" lon="8.0379668"><ele>224.4</ele><time>2026-04-03T10:24:54.96Z</time></trkpt><trkpt lat="44.0518837" lon="8.0380996"><ele>216.0</ele><time>2026-04-03T10:24:55.959Z</time></trkpt><trkpt lat="44.0519384" lon="8.0382206"><ele>218.4</ele><time>2026-04-03T10:24:56.96Z</time></trkpt><trkpt lat="44.0520026" lon="8.0383406"><ele>220.8</ele><time>2026-04-03T10:24:57.96Z</time></trkpt><trkpt lat="44.0520563" lon="8.0384575"><ele>223.20000000000002</ele><time>2026-04-03T10:24:58.96Z</time></trkpt><trkpt lat="44.0520976" lon="8.0385607"><ele>225.60000000000002</ele><time>2026-04-03T10:24:59.959Z</time></trkpt><trkpt lat="44.0521349" lon="8.0386679"><ele>228.0</ele><time>2026-04-03T10:25:00.959Z</time></trkpt><trkpt lat="44.0521906" lon="8.0387826"><ele>228.0</ele><time>2026-04-03T10:25:01.96Z</time></trkpt><trkpt lat="44.052252" lon="8.0389119"><ele>228.0</ele><time>2026-04-03T10:25:02.96Z</time></trkpt><trkpt lat="44.0523017" lon="8.039042"><ele>228.0</ele><time>2026-04-03T10:25:03.96Z</time></trkpt><trkpt lat="44.052347" lon="8.0391766"><ele>228.0</ele><time>2026-04-03T10:25:04.96Z</time></trkpt><trkpt lat="44.0524014" lon="8.039311"><ele>228.0</ele><time>2026-04-03T10:25:05.959Z</time></trkpt><trkpt lat="44.0524567" lon="8.0394214"><ele>222.83333333333334</ele><time>2026-04-03T10:25:06.96Z</time></trkpt><trkpt lat="44.0525174" lon="8.039515"><ele>217.66666666666669</ele><time>2026-04-03T10:25:07.959Z</time></trkpt><trkpt lat="44.0525992" lon="8.0395831"><ele>212.5</ele><time>2026-04-03T10:25:08.96Z</time></trkpt><trkpt lat="44.0526821" lon="8.0396555"><ele>207.33333333333334</ele><time>2026-04-03T10:25:09.959Z</time></trkpt><trkpt lat="44.0527472" lon="8.0397239"><ele>202.16666666666669</ele><time>2026-04-03T10:25:10.958Z</time></trkpt><trkpt lat="44.0528081" lon="8.0397967"><ele>197.0</ele><time>2026-04-03T10:25:11.959Z</time></trkpt><trkpt lat="44.0528619" lon="8.0398808"><ele>198.0</ele><time>2026-04-03T10:25:12.958Z</time></trkpt><trkpt lat="44.0529108" lon="8.0399949"><ele>199.0</ele><time>2026-04-03T10:25:13.959Z</time></trkpt><trkpt lat="44.0529577" lon="8.040094"><ele>200.0</ele><time>2026-04-03T10:25:14.959Z</time></trkpt><trkpt lat="44.0530118" lon="8.0401722"><ele>201.0</ele><time>2026-04-03T10:25:15.959Z</time></trkpt><trkpt lat="44.0530758" lon="8.0403101"><ele>202.0</ele><time>2026-04-03T10:25:17.959Z</time></trkpt><trkpt lat="44.0530633" lon="8.0404396"><ele>202.0</ele><time>2026-04-03T10:25:19.959Z</time></trkpt><trkpt lat="44.0529859" lon="8.0404672"><ele>202.0</ele><time>2026-04-03T10:25:20.958Z</time></trkpt><trkpt lat="44.0528924" lon="8.0404901"><ele>202.0</ele><time>2026-04-03T10:25:21.959Z</time></trkpt><trkpt lat="44.0527931" lon="8.0405098"><ele>202.0</ele><time>2026-04-03T10:25:22.959Z</time></trkpt><trkpt lat="44.0526987" lon="8.0405476"><ele>202.0</ele><time>2026-04-03T10:25:23.959Z</time></trkpt><trkpt lat="44.0526106" lon="8.0406134"><ele>201.99999999999997</ele><time>2026-04-03T10:25:24.958Z</time></trkpt><trkpt lat="44.0525338" lon="8.0406707"><ele>202.0</ele><time>2026-04-03T10:25:25.959Z</time></trkpt><trkpt lat="44.0524633" lon="8.0406915"><ele>202.0</ele><time>2026-04-03T10:25:26.959Z</time></trkpt><trkpt lat="44.0523798" lon="8.040674"><ele>202.0</ele><time>2026-04-03T10:25:27.959Z</time></trkpt><trkpt lat="44.0522954" lon="8.0406495"><ele>201.99999999999997</ele><time>2026-04-03T10:25:28.958Z</time></trkpt><trkpt lat="44.0522069" lon="8.0406283"><ele>202.0</ele><time>2026-04-03T10:25:29.959Z</time></trkpt><trkpt lat="44.0521146" lon="8.0406039"><ele>203.0</ele><time>2026-04-03T10:25:30.959Z</time></trkpt><trkpt lat="44.0520209" lon="8.0405835"><ele>204.0</ele><time>2026-04-03T10:25:31.959Z</time></trkpt><trkpt lat="44.0519239" lon="8.0405722"><ele>205.0</ele><time>2026-04-03T10:25:32.959Z</time></trkpt><trkpt lat="44.0518354" lon="8.0405604"><ele>206.0</ele><time>2026-04-03T10:25:33.959Z</time></trkpt><trkpt lat="44.0517464" lon="8.0405493"><ele>207.0</ele><time>2026-04-03T10:25:34.959Z</time></trkpt><trkpt lat="44.0516527" lon="8.0405252"><ele>204.6</ele><time>2026-04-03T10:25:35.958Z</time></trkpt><trkpt lat="44.0515577" lon="8.0404914"><ele>202.2</ele><time>2026-04-03T10:25:36.959Z</time></trkpt><trkpt lat="44.0514525" lon="8.040454"><ele>199.8</ele><time>2026-04-03T10:25:37.959Z</time></trkpt><trkpt lat="44.0513382" lon="8.0404066"><ele>197.4</ele><time>2026-04-03T10:25:38.959Z</time></trkpt><trkpt lat="44.0512271" lon="8.0403529"><ele>195.0</ele><time>2026-04-03T10:25:39.958Z</time></trkpt><trkpt lat="44.0511116" lon="8.0403018"><ele>195.0</ele><time>2026-04-03T10:25:40.959Z</time></trkpt><trkpt lat="44.0509831" lon="8.0402945"><ele>195.0</ele><time>2026-04-03T10:25:41.959Z</time></trkpt><trkpt lat="44.0508589" lon="8.0402746"><ele>195.0</ele><time>2026-04-03T10:25:42.959Z</time></trkpt><trkpt lat="44.0507453" lon="8.0402408"><ele>195.0</ele><time>2026-04-03T10:25:43.959Z</time></trkpt><trkpt lat="44.0506327" lon="8.0402144"><ele>192.8</ele><time>2026-04-03T10:25:44.958Z</time></trkpt><trkpt lat="44.050523" lon="8.0401791"><ele>190.6</ele><time>2026-04-03T10:25:45.958Z</time></trkpt><trkpt lat="44.0504224" lon="8.0401776"><ele>188.39999999999998</ele><time>2026-04-03T10:25:46.959Z</time></trkpt><trkpt lat="44.0503288" lon="8.0401839"><ele>186.2</ele><time>2026-04-03T10:25:47.959Z</time></trkpt><trkpt lat="44.0502254" lon="8.0401973"><ele>184.0</ele><time>2026-04-03T10:25:48.959Z</time></trkpt><trkpt lat="44.0501262" lon="8.0401906"><ele>184.0</ele><time>2026-04-03T10:25:49.958Z</time></trkpt><trkpt lat="44.0500261" lon="8.0401739"><ele>184.0</ele><time>2026-04-03T10:25:50.959Z</time></trkpt><trkpt lat="44.049926" lon="8.0401512"><ele>184.0</ele><time>2026-04-03T10:25:51.958Z</time></trkpt><trkpt lat="44.0498332" lon="8.040127"><ele>184.0</ele><time>2026-04-03T10:25:52.959Z</time></trkpt><trkpt lat="44.0497405" lon="8.0401118"><ele>184.0</ele><time>2026-04-03T10:25:53.958Z</time></trkpt><trkpt lat="44.0496623" lon="8.0401027"><ele>188.16666666666669</ele><time>2026-04-03T10:25:54.959Z</time></trkpt><trkpt lat="44.0495994" lon="8.0400941"><ele>192.33333333333334</ele><time>2026-04-03T10:25:55.959Z</time></trkpt><trkpt lat="44.0495116" lon="8.0401643"><ele>196.5</ele><time>2026-04-03T10:25:57.958Z</time></trkpt><trkpt lat="44.0495826" lon="8.0402258"><ele>200.66666666666669</ele><time>2026-04-03T10:25:59.959Z</time></trkpt><trkpt lat="44.0496684" lon="8.0402516"><ele>204.83333333333334</ele><time>2026-04-03T10:26:11.958Z</time></trkpt><trkpt lat="44.0497403" lon="8.0403335"><ele>209.0</ele><time>2026-04-03T10:26:13.959Z</time></trkpt><trkpt lat="44.0497978" lon="8.0404005"><ele>209.0</ele><time>2026-04-03T10:26:14.958Z</time></trkpt><trkpt lat="44.0498512" lon="8.0404894"><ele>209.0</ele><time>2026-04-03T10:26:15.958Z</time></trkpt><trkpt lat="44.0499066" lon="8.0405921"><ele>209.0</ele><time>2026-04-03T10:26:16.959Z</time></trkpt><trkpt lat="44.0499742" lon="8.0406922"><ele>209.0</ele><time>2026-04-03T10:26:17.959Z</time></trkpt><trkpt lat="44.0500621" lon="8.040785"><ele>209.0</ele><time>2026-04-03T10:26:18.959Z</time></trkpt><trkpt lat="44.050192" lon="8.0408868"><ele>204.5</ele><time>2026-04-03T10:26:19.958Z</time></trkpt><trkpt lat="44.0503138" lon="8.0409939"><ele>200.0</ele><time>2026-04-03T10:26:20.959Z</time></trkpt><trkpt lat="44.0504247" lon="8.041102"><ele>195.5</ele><time>2026-04-03T10:26:21.958Z</time></trkpt><trkpt lat="44.0505405" lon="8.0412062"><ele>191.0</ele><time>2026-04-03T10:26:22.958Z</time></trkpt><trkpt lat="44.0506485" lon="8.0413222"><ele>191.0</ele><time>2026-04-03T10:26:23.958Z</time></trkpt><trkpt lat="44.0507597" lon="8.041449"><ele>191.0</ele><time>2026-04-03T10:26:24.959Z</time></trkpt><trkpt lat="44.0508632" lon="8.0415621"><ele>191.0</ele><time>2026-04-03T10:26:25.959Z</time></trkpt><trkpt lat="44.0509625" lon="8.0416645"><ele>191.0</ele><time>2026-04-03T10:26:26.959Z</time></trkpt><trkpt lat="44.0510538" lon="8.0417543"><ele>192.25</ele><time>2026-04-03T10:26:27.959Z</time></trkpt><trkpt lat="44.0511536" lon="8.041867"><ele>193.5</ele><time>2026-04-03T10:26:28.958Z</time></trkpt><trkpt lat="44.0512566" lon="8.0419787"><ele>194.75</ele><time>2026-04-03T10:26:29.958Z</time></trkpt><trkpt lat="44.0513526" lon="8.0420754"><ele>196.0</ele><time>2026-04-03T10:26:30.959Z</time></trkpt><trkpt lat="44.0514401" lon="8.0421692"><ele>196.0</ele><time>2026-04-03T10:26:31.959Z</time></trkpt><trkpt lat="44.0515406" lon="8.0422291"><ele>196.0</ele><time>2026-04-03T10:26:32.959Z</time></trkpt><trkpt lat="44.0516228" lon="8.042295"><ele>196.0</ele><time>2026-04-03T10:26:33.959Z</time></trkpt><trkpt lat="44.0516934" lon="8.0423631"><ele>196.0</ele><time>2026-04-03T10:26:34.959Z</time></trkpt><trkpt lat="44.0517521" lon="8.0424524"><ele>196.0</ele><time>2026-04-03T10:26:35.959Z</time></trkpt><trkpt lat="44.0518094" lon="8.0425652"><ele>194.66666666666666</ele><time>2026-04-03T10:26:36.958Z</time></trkpt><trkpt lat="44.0518647" lon="8.0426829"><ele>193.33333333333331</ele><time>2026-04-03T10:26:37.958Z</time></trkpt><trkpt lat="44.0519186" lon="8.0427948"><ele>192.0</ele><time>2026-04-03T10:26:38.958Z</time></trkpt><trkpt lat="44.0519761" lon="8.0428991"><ele>190.66666666666666</ele><time>2026-04-03T10:26:39.959Z</time></trkpt><trkpt lat="44.0520254" lon="8.0429779"><ele>189.33333333333331</ele><time>2026-04-03T10:26:40.958Z</time></trkpt><trkpt lat="44.052081" lon="8.0430481"><ele>188.0</ele><time>2026-04-03T10:26:42.959Z</time></trkpt><trkpt lat="44.0520074" lon="8.0430636"><ele>188.0</ele><time>2026-04-03T10:27:19.959Z</time></trkpt><trkpt lat="44.0519396" lon="8.0430804"><ele>188.0</ele><time>2026-04-03T10:27:20.958Z</time></trkpt><trkpt lat="44.0518605" lon="8.043085"><ele>188.0</ele><time>2026-04-03T10:27:21.958Z</time></trkpt><trkpt lat="44.051763" lon="8.0430825"><ele>188.0</ele><time>2026-04-03T10:27:22.959Z</time></trkpt><trkpt lat="44.0516611" lon="8.0430673"><ele>188.0</ele><time>2026-04-03T10:27:23.959Z</time></trkpt><trkpt lat="44.0515638" lon="8.0430467"><ele>188.0</ele><time>2026-04-03T10:27:24.958Z</time></trkpt><trkpt lat="44.0514744" lon="8.0430342"><ele>193.2</ele><time>2026-04-03T10:27:25.958Z</time></trkpt><trkpt lat="44.0513798" lon="8.0430494"><ele>198.4</ele><time>2026-04-03T10:27:26.958Z</time></trkpt><trkpt lat="44.0512847" lon="8.0431126"><ele>203.59999999999997</ele><time>2026-04-03T10:27:27.959Z</time></trkpt><trkpt lat="44.0511901" lon="8.0431708"><ele>208.79999999999998</ele><time>2026-04-03T10:27:28.959Z</time></trkpt><trkpt lat="44.0510994" lon="8.0432346"><ele>214.0</ele><time>2026-04-03T10:27:29.959Z</time></trkpt><trkpt lat="44.0510154" lon="8.0432872"><ele>215.16666666666666</ele><time>2026-04-03T10:27:30.958Z</time></trkpt><trkpt lat="44.0509329" lon="8.0433457"><ele>216.33333333333331</ele><time>2026-04-03T10:27:31.959Z</time></trkpt><trkpt lat="44.0508533" lon="8.0433848"><ele>217.5</ele><time>2026-04-03T10:27:32.959Z</time></trkpt><trkpt lat="44.0507827" lon="8.0434326"><ele>218.66666666666669</ele><time>2026-04-03T10:27:33.958Z</time></trkpt><trkpt lat="44.0507236" lon="8.0435092"><ele>219.83333333333334</ele><time>2026-04-03T10:27:34.958Z</time></trkpt><trkpt lat="44.0506635" lon="8.0436032"><ele>221.0</ele><time>2026-04-03T10:27:35.959Z</time></trkpt><trkpt lat="44.0505899" lon="8.0436904"><ele>221.0</ele><time>2026-04-03T10:27:36.959Z</time></trkpt><trkpt lat="44.0505097" lon="8.0437785"><ele>221.00000000000003</ele><time>2026-04-03T10:27:37.959Z</time></trkpt><trkpt lat="44.0504352" lon="8.043861"><ele>221.00000000000003</ele><time>2026-04-03T10:27:38.959Z</time></trkpt><trkpt lat="44.050363" lon="8.043926"><ele>221.0</ele><time>2026-04-03T10:27:39.958Z</time></trkpt><trkpt lat="44.0502651" lon="8.0440112"><ele>221.0</ele><time>2026-04-03T10:27:40.959Z</time></trkpt><trkpt lat="44.0501754" lon="8.0440856"><ele>220.20000000000002</ele><time>2026-04-03T10:27:41.959Z</time></trkpt><trkpt lat="44.0500914" lon="8.0441373"><ele>219.40000000000003</ele><time>2026-04-03T10:27:42.958Z</time></trkpt><trkpt lat="44.0500125" lon="8.0441941"><ele>218.6</ele><time>2026-04-03T10:27:43.959Z</time></trkpt><trkpt lat="44.0499463" lon="8.0442661"><ele>217.8</ele><time>2026-04-03T10:27:44.959Z</time></trkpt><trkpt lat="44.0499271" lon="8.044352"><ele>217.0</ele><time>2026-04-03T10:27:46.959Z</time></trkpt><trkpt lat="44.0500637" lon="8.0443931"><ele>213.0</ele><time>2026-04-03T10:27:48.959Z</time></trkpt><trkpt lat="44.0501438" lon="8.0444046"><ele>209.0</ele><time>2026-04-03T10:27:49.959Z</time></trkpt><trkpt lat="44.0502193" lon="8.0444452"><ele>205.0</ele><time>2026-04-03T10:27:50.959Z</time></trkpt><trkpt lat="44.0502898" lon="8.0444947"><ele>201.0</ele><time>2026-04-03T10:27:51.959Z</time></trkpt><trkpt lat="44.0503594" lon="8.0445328"><ele>197.0</ele><time>2026-04-03T10:27:52.959Z</time></trkpt><trkpt lat="44.0504178" lon="8.0445704"><ele>193.0</ele><time>2026-04-03T10:27:53.959Z</time></trkpt><trkpt lat="44.0504799" lon="8.0446108"><ele>189.0</ele><time>2026-04-03T10:27:54.959Z</time></trkpt><trkpt lat="44.0505431" lon="8.044632"><ele>189.0</ele><time>2026-04-03T10:27:55.958Z</time></trkpt><trkpt lat="44.0506168" lon="8.0446517"><ele>189.0</ele><time>2026-04-03T10:27:56.959Z</time></trkpt><trkpt lat="44.050696" lon="8.0446836"><ele>189.0</ele><time>2026-04-03T10:27:57.959Z</time></trkpt><trkpt lat="44.0507747" lon="8.0447279"><ele>189.0</ele><time>2026-04-03T10:27:58.959Z</time></trkpt><trkpt lat="44.050844" lon="8.0447678"><ele>189.0</ele><time>2026-04-03T10:27:59.959Z</time></trkpt><trkpt lat="44.0509136" lon="8.0447935"><ele>189.0</ele><time>2026-04-03T10:28:00.959Z</time></trkpt><trkpt lat="44.0510037" lon="8.0448204"><ele>188.5</ele><time>2026-04-03T10:28:01.959Z</time></trkpt><trkpt lat="44.0510933" lon="8.0448515"><ele>188.0</ele><time>2026-04-03T10:28:02.959Z</time></trkpt><trkpt lat="44.0511862" lon="8.0448908"><ele>187.5</ele><time>2026-04-03T10:28:03.959Z</time></trkpt><trkpt lat="44.0512651" lon="8.0449422"><ele>187.0</ele><time>2026-04-03T10:28:04.959Z</time></trkpt><trkpt lat="44.0513339" lon="8.0449928"><ele>186.5</ele><time>2026-04-03T10:28:05.959Z</time></trkpt><trkpt lat="44.0513964" lon="8.0450385"><ele>186.0</ele><time>2026-04-03T10:28:06.959Z</time></trkpt><trkpt lat="44.0514724" lon="8.0450848"><ele>186.0</ele><time>2026-04-03T10:28:07.959Z</time></trkpt><trkpt lat="44.0515453" lon="8.0451262"><ele>186.0</ele><time>2026-04-03T10:28:08.958Z</time></trkpt><trkpt lat="44.0516577" lon="8.0451738"><ele>186.0</ele><time>2026-04-03T10:28:10.959Z</time></trkpt><trkpt lat="44.0517948" lon="8.0451412"><ele>186.0</ele><time>2026-04-03T10:28:12.959Z</time></trkpt><trkpt lat="44.051871" lon="8.0451316"><ele>186.0</ele><time>2026-04-03T10:28:13.959Z</time></trkpt><trkpt lat="44.0519351" lon="8.0451528"><ele>182.0</ele><time>2026-04-03T10:28:14.958Z</time></trkpt><trkpt lat="44.0519945" lon="8.0451878"><ele>178.0</ele><time>2026-04-03T10:28:15.959Z</time></trkpt><trkpt lat="44.0520527" lon="8.0452292"><ele>174.0</ele><time>2026-04-03T10:28:16.958Z</time></trkpt><trkpt lat="44.0521069" lon="8.0452872"><ele>170.0</ele><time>2026-04-03T10:28:17.959Z</time></trkpt><trkpt lat="44.0521887" lon="8.0454144"><ele>166.0</ele><time>2026-04-03T10:28:19.958Z</time></trkpt><trkpt lat="44.0522246" lon="8.0455837"><ele>162.0</ele><time>2026-04-03T10:28:21.958Z</time></trkpt><trkpt lat="44.0522163" lon="8.0456759"><ele>162.0</ele><time>2026-04-03T10:28:22.958Z</time></trkpt><trkpt lat="44.0522047" lon="8.0457683"><ele>162.0</ele><time>2026-04-03T10:28:23.959Z</time></trkpt><trkpt lat="44.0521886" lon="8.0459247"><ele>162.0</ele><time>2026-04-03T10:28:25.959Z</time></trkpt><trkpt lat="44.0521874" lon="8.0460148"><ele>162.0</ele><time>2026-04-03T10:28:26.958Z</time></trkpt><trkpt lat="44.0521924" lon="8.04612"><ele>162.0</ele><time>2026-04-03T10:28:27.959Z</time></trkpt><trkpt lat="44.0521963" lon="8.0462158"><ele>162.0</ele><time>2026-04-03T10:28:28.959Z</time></trkpt><trkpt lat="44.052225" lon="8.0463059"><ele>165.5</ele><time>2026-04-03T10:28:29.959Z</time></trkpt><trkpt lat="44.0522561" lon="8.0464001"><ele>169.0</ele><time>2026-04-03T10:28:30.958Z</time></trkpt><trkpt lat="44.0522794" lon="8.0464894"><ele>172.5</ele><time>2026-04-03T10:28:31.959Z</time></trkpt><trkpt lat="44.0522924" lon="8.0465783"><ele>176.0</ele><time>2026-04-03T10:28:32.959Z</time></trkpt><trkpt lat="44.052296" lon="8.0466699"><ele>179.5</ele><time>2026-04-03T10:28:33.958Z</time></trkpt><trkpt lat="44.0522915" lon="8.0467603"><ele>183.0</ele><time>2026-04-03T10:28:34.959Z</time></trkpt><trkpt lat="44.0522733" lon="8.0469324"><ele>183.2</ele><time>2026-04-03T10:28:36.959Z</time></trkpt><trkpt lat="44.0522704" lon="8.0470823"><ele>183.4</ele><time>2026-04-03T10:28:38.959Z</time></trkpt><trkpt lat="44.052283" lon="8.0471838"><ele>183.6</ele><time>2026-04-03T10:28:40.958Z</time></trkpt><trkpt lat="44.0522949" lon="8.0473043"><ele>183.79999999999998</ele><time>2026-04-03T10:28:42.958Z</time></trkpt><trkpt lat="44.0523056" lon="8.04745"><ele>184.0</ele><time>2026-04-03T10:28:44.959Z</time></trkpt><trkpt lat="44.0523161" lon="8.0475943"><ele>183.0</ele><time>2026-04-03T10:28:46.958Z</time></trkpt><trkpt lat="44.0523135" lon="8.0477512"><ele>182.0</ele><time>2026-04-03T10:28:48.959Z</time></trkpt><trkpt lat="44.0523053" lon="8.0479061"><ele>181.0</ele><time>2026-04-03T10:28:50.959Z</time></trkpt><trkpt lat="44.0523036" lon="8.048036"><ele>180.0</ele><time>2026-04-03T10:28:52.958Z</time></trkpt><trkpt lat="44.0522965" lon="8.0481564"><ele>179.0</ele><time>2026-04-03T10:28:54.958Z</time></trkpt><trkpt lat="44.0523036" lon="8.0482567"><ele>176.5</ele><time>2026-04-03T10:28:56.959Z</time></trkpt><trkpt lat="44.0523173" lon="8.0483521"><ele>174.0</ele><time>2026-04-03T10:28:58.959Z</time></trkpt><trkpt lat="44.0523084" lon="8.0484832"><ele>171.5</ele><time>2026-04-03T10:29:00.959Z</time></trkpt><trkpt lat="44.0522746" lon="8.048616"><ele>169.0</ele><time>2026-04-03T10:29:02.958Z</time></trkpt><trkpt lat="44.052268" lon="8.0487177"><ele>166.5</ele><time>2026-04-03T10:29:04.959Z</time></trkpt><trkpt lat="44.0523536" lon="8.0486811"><ele>164.0</ele><time>2026-04-03T10:29:08.958Z</time></trkpt><trkpt lat="44.0524146" lon="8.0486088"><ele>156.2</ele><time>2026-04-03T10:29:10.958Z</time></trkpt><trkpt lat="44.0524933" lon="8.0485047"><ele>148.39999999999998</ele><time>2026-04-03T10:29:12.958Z</time></trkpt><trkpt lat="44.0525746" lon="8.0483796"><ele>140.6</ele><time>2026-04-03T10:29:14.958Z</time></trkpt><trkpt lat="44.0526179" lon="8.0483051"><ele>132.8</ele><time>2026-04-03T10:29:15.958Z</time></trkpt><trkpt lat="44.0526633" lon="8.0482289"><ele>125.0</ele><time>2026-04-03T10:29:16.958Z</time></trkpt><trkpt lat="44.0527131" lon="8.0481382"><ele>124.99999999999999</ele><time>2026-04-03T10:29:17.957Z</time></trkpt><trkpt lat="44.0527677" lon="8.0480485"><ele>125.0</ele><time>2026-04-03T10:29:18.958Z</time></trkpt><trkpt lat="44.0528184" lon="8.0479412"><ele>125.0</ele><time>2026-04-03T10:29:19.957Z</time></trkpt><trkpt lat="44.0528562" lon="8.0478386"><ele>125.0</ele><time>2026-04-03T10:29:20.957Z</time></trkpt><trkpt lat="44.0528897" lon="8.04774"><ele>124.99999999999999</ele><time>2026-04-03T10:29:21.957Z</time></trkpt><trkpt lat="44.0529182" lon="8.0476373"><ele>125.0</ele><time>2026-04-03T10:29:22.957Z</time></trkpt><trkpt lat="44.0529473" lon="8.0475468"><ele>124.99999999999999</ele><time>2026-04-03T10:29:23.958Z</time></trkpt><trkpt lat="44.0529741" lon="8.0474667"><ele>125.0</ele><time>2026-04-03T10:29:24.958Z</time></trkpt><trkpt lat="44.053028" lon="8.0473306"><ele>125.0</ele><time>2026-04-03T10:29:26.958Z</time></trkpt><trkpt lat="44.0530786" lon="8.0471894"><ele>125.0</ele><time>2026-04-03T10:29:28.958Z</time></trkpt><trkpt lat="44.0531072" lon="8.0470966"><ele>124.99999999999999</ele><time>2026-04-03T10:29:29.958Z</time></trkpt><trkpt lat="44.0531437" lon="8.04699"><ele>125.0</ele><time>2026-04-03T10:29:30.958Z</time></trkpt><trkpt lat="44.0531838" lon="8.0468841"><ele>126.4</ele><time>2026-04-03T10:29:31.958Z</time></trkpt><trkpt lat="44.0532259" lon="8.0467764"><ele>127.8</ele><time>2026-04-03T10:29:32.957Z</time></trkpt><trkpt lat="44.05327" lon="8.0466615"><ele>129.2</ele><time>2026-04-03T10:29:33.958Z</time></trkpt><trkpt lat="44.0533104" lon="8.0465442"><ele>130.6</ele><time>2026-04-03T10:29:34.958Z</time></trkpt><trkpt lat="44.0533515" lon="8.0464223"><ele>132.0</ele><time>2026-04-03T10:29:35.958Z</time></trkpt><trkpt lat="44.0533859" lon="8.0463045"><ele>129.0</ele><time>2026-04-03T10:29:36.958Z</time></trkpt><trkpt lat="44.0534205" lon="8.046184"><ele>126.0</ele><time>2026-04-03T10:29:37.958Z</time></trkpt><trkpt lat="44.0534481" lon="8.0460758"><ele>123.0</ele><time>2026-04-03T10:29:38.957Z</time></trkpt><trkpt lat="44.0534597" lon="8.0459598"><ele>120.0</ele><time>2026-04-03T10:29:39.957Z</time></trkpt><trkpt lat="44.0534438" lon="8.0458487"><ele>117.0</ele><time>2026-04-03T10:29:40.958Z</time></trkpt><trkpt lat="44.0534119" lon="8.0457479"><ele>114.0</ele><time>2026-04-03T10:29:41.958Z</time></trkpt><trkpt lat="44.0533597" lon="8.0456681"><ele>114.0</ele><time>2026-04-03T10:29:42.958Z</time></trkpt><trkpt lat="44.053289" lon="8.0455813"><ele>114.0</ele><time>2026-04-03T10:29:43.958Z</time></trkpt><trkpt lat="44.0532133" lon="8.0455033"><ele>114.0</ele><time>2026-04-03T10:29:44.958Z</time></trkpt><trkpt lat="44.0531572" lon="8.0454236"><ele>114.0</ele><time>2026-04-03T10:29:45.958Z</time></trkpt><trkpt lat="44.0531217" lon="8.0453427"><ele>114.0</ele><time>2026-04-03T10:29:46.958Z</time></trkpt><trkpt lat="44.0531673" lon="8.0452495"><ele>114.0</ele><time>2026-04-03T10:29:48.958Z</time></trkpt><trkpt lat="44.0532762" lon="8.0451767"><ele>114.0</ele><time>2026-04-03T10:29:50.957Z</time></trkpt><trkpt lat="44.0533279" lon="8.0451243"><ele>114.0</ele><time>2026-04-03T10:29:51.957Z</time></trkpt><trkpt lat="44.0533664" lon="8.0450541"><ele>114.0</ele><time>2026-04-03T10:29:52.957Z</time></trkpt><trkpt lat="44.0533995" lon="8.0449439"><ele>114.0</ele><time>2026-04-03T10:29:53.958Z</time></trkpt><trkpt lat="44.05343" lon="8.0448101"><ele>114.0</ele><time>2026-04-03T10:29:54.958Z</time></trkpt><trkpt lat="44.0534627" lon="8.0446702"><ele>114.0</ele><time>2026-04-03T10:29:55.957Z</time></trkpt><trkpt lat="44.053498" lon="8.0445259"><ele>118.75</ele><time>2026-04-03T10:29:56.958Z</time></trkpt><trkpt lat="44.0535435" lon="8.0443744"><ele>123.5</ele><time>2026-04-03T10:29:57.957Z</time></trkpt><trkpt lat="44.0535876" lon="8.0442165"><ele>128.25</ele><time>2026-04-03T10:29:58.957Z</time></trkpt><trkpt lat="44.0536347" lon="8.0440565"><ele>133.0</ele><time>2026-04-03T10:29:59.958Z</time></trkpt><trkpt lat="44.0536886" lon="8.0439106"><ele>134.8</ele><time>2026-04-03T10:30:00.958Z</time></trkpt><trkpt lat="44.0537409" lon="8.0437664"><ele>136.60000000000002</ele><time>2026-04-03T10:30:01.958Z</time></trkpt><trkpt lat="44.0537684" lon="8.0436253"><ele>138.39999999999998</ele><time>2026-04-03T10:30:02.957Z</time></trkpt><trkpt lat="44.0538074" lon="8.0434903"><ele>140.2</ele><time>2026-04-03T10:30:03.958Z</time></trkpt><trkpt lat="44.0538475" lon="8.0433581"><ele>142.0</ele><time>2026-04-03T10:30:04.958Z</time></trkpt><trkpt lat="44.0538809" lon="8.0432242"><ele>142.0</ele><time>2026-04-03T10:30:05.958Z</time></trkpt><trkpt lat="44.0539152" lon="8.0430885"><ele>142.0</ele><time>2026-04-03T10:30:06.957Z</time></trkpt><trkpt lat="44.0539439" lon="8.0429457"><ele>142.0</ele><time>2026-04-03T10:30:07.957Z</time></trkpt><trkpt lat="44.0539698" lon="8.0427985"><ele>142.0</ele><time>2026-04-03T10:30:08.958Z</time></trkpt><trkpt lat="44.0539935" lon="8.0426476"><ele>142.0</ele><time>2026-04-03T10:30:09.958Z</time></trkpt><trkpt lat="44.0540203" lon="8.0424982"><ele>141.79999999999998</ele><time>2026-04-03T10:30:10.958Z</time></trkpt><trkpt lat="44.0540508" lon="8.0423523"><ele>141.6</ele><time>2026-04-03T10:30:11.957Z</time></trkpt><trkpt lat="44.054089" lon="8.0422167"><ele>141.39999999999998</ele><time>2026-04-03T10:30:12.957Z</time></trkpt><trkpt lat="44.0541297" lon="8.0420912"><ele>141.2</ele><time>2026-04-03T10:30:13.958Z</time></trkpt><trkpt lat="44.054177" lon="8.0419726"><ele>141.0</ele><time>2026-04-03T10:30:14.958Z</time></trkpt><trkpt lat="44.054219" lon="8.0418508"><ele>137.4</ele><time>2026-04-03T10:30:15.957Z</time></trkpt><trkpt lat="44.0542527" lon="8.0417147"><ele>133.8</ele><time>2026-04-03T10:30:16.958Z</time></trkpt><trkpt lat="44.0542814" lon="8.0415711"><ele>130.20000000000002</ele><time>2026-04-03T10:30:17.958Z</time></trkpt><trkpt lat="44.0543107" lon="8.0414344"><ele>126.60000000000001</ele><time>2026-04-03T10:30:18.958Z</time></trkpt><trkpt lat="44.0543342" lon="8.0412972"><ele>123.0</ele><time>2026-04-03T10:30:19.958Z</time></trkpt><trkpt lat="44.0543433" lon="8.0411444"><ele>123.0</ele><time>2026-04-03T10:30:20.958Z</time></trkpt><trkpt lat="44.0543561" lon="8.0409862"><ele>123.0</ele><time>2026-04-03T10:30:21.958Z</time></trkpt><trkpt lat="44.0543653" lon="8.0408251"><ele>123.0</ele><time>2026-04-03T10:30:22.958Z</time></trkpt><trkpt lat="44.0543719" lon="8.0406647"><ele>123.0</ele><time>2026-04-03T10:30:23.958Z</time></trkpt><trkpt lat="44.054377" lon="8.0404986"><ele>124.5</ele><time>2026-04-03T10:30:24.957Z</time></trkpt><trkpt lat="44.0543834" lon="8.0403259"><ele>126.0</ele><time>2026-04-03T10:30:25.957Z</time></trkpt><trkpt lat="44.0543873" lon="8.0401604"><ele>127.5</ele><time>2026-04-03T10:30:26.958Z</time></trkpt><trkpt lat="44.0543815" lon="8.0400041"><ele>129.0</ele><time>2026-04-03T10:30:27.958Z</time></trkpt><trkpt lat="44.0543758" lon="8.0398615"><ele>129.8</ele><time>2026-04-03T10:30:28.957Z</time></trkpt><trkpt lat="44.0543741" lon="8.0397227"><ele>130.60000000000002</ele><time>2026-04-03T10:30:29.958Z</time></trkpt><trkpt lat="44.0543829" lon="8.0395906"><ele>131.4</ele><time>2026-04-03T10:30:30.958Z</time></trkpt><trkpt lat="44.0544013" lon="8.0394559"><ele>132.20000000000002</ele><time>2026-04-03T10:30:31.958Z</time></trkpt><trkpt lat="44.0544241" lon="8.0393231"><ele>133.0</ele><time>2026-04-03T10:30:32.957Z</time></trkpt><trkpt lat="44.0544541" lon="8.0391794"><ele>132.5</ele><time>2026-04-03T10:30:33.957Z</time></trkpt><trkpt lat="44.0544883" lon="8.0390183"><ele>132.0</ele><time>2026-04-03T10:30:34.958Z</time></trkpt><trkpt lat="44.0545275" lon="8.0388503"><ele>131.5</ele><time>2026-04-03T10:30:35.958Z</time></trkpt><trkpt lat="44.0545788" lon="8.0386918"><ele>131.0</ele><time>2026-04-03T10:30:36.958Z</time></trkpt><trkpt lat="44.0546368" lon="8.0385464"><ele>131.0</ele><time>2026-04-03T10:30:37.958Z</time></trkpt><trkpt lat="44.0546869" lon="8.03841"><ele>131.0</ele><time>2026-04-03T10:30:38.958Z</time></trkpt><trkpt lat="44.0547248" lon="8.0383027"><ele>131.0</ele><time>2026-04-03T10:30:39.958Z</time></trkpt><trkpt lat="44.0547553" lon="8.0382125"><ele>131.0</ele><time>2026-04-03T10:30:40.958Z</time></trkpt><trkpt lat="44.0547558" lon="8.0381095"><ele>131.0</ele><time>2026-04-03T10:30:41.958Z</time></trkpt><trkpt lat="44.054724" lon="8.0379772"><ele>131.0</ele><time>2026-04-03T10:30:42.957Z</time></trkpt><trkpt lat="44.0546819" lon="8.0378285"><ele>131.2</ele><time>2026-04-03T10:30:43.958Z</time></trkpt><trkpt lat="44.05465" lon="8.0376793"><ele>131.39999999999998</ele><time>2026-04-03T10:30:44.958Z</time></trkpt><trkpt lat="44.0546289" lon="8.0375284"><ele>131.6</ele><time>2026-04-03T10:30:45.957Z</time></trkpt><trkpt lat="44.0546245" lon="8.0373868"><ele>131.79999999999998</ele><time>2026-04-03T10:30:46.958Z</time></trkpt><trkpt lat="44.0546371" lon="8.0372616"><ele>132.0</ele><time>2026-04-03T10:30:47.957Z</time></trkpt><trkpt lat="44.0546506" lon="8.0371472"><ele>133.4</ele><time>2026-04-03T10:30:48.957Z</time></trkpt><trkpt lat="44.0546594" lon="8.0370385"><ele>134.79999999999998</ele><time>2026-04-03T10:30:49.958Z</time></trkpt><trkpt lat="44.0546661" lon="8.0369349"><ele>136.2</ele><time>2026-04-03T10:30:50.958Z</time></trkpt><trkpt lat="44.054692" lon="8.0368273"><ele>137.6</ele><time>2026-04-03T10:30:51.958Z</time></trkpt><trkpt lat="44.0547384" lon="8.0367102"><ele>139.0</ele><time>2026-04-03T10:30:52.957Z</time></trkpt><trkpt lat="44.0547976" lon="8.0365621"><ele>140.75</ele><time>2026-04-03T10:30:53.957Z</time></trkpt><trkpt lat="44.0548594" lon="8.0363998"><ele>142.5</ele><time>2026-04-03T10:30:54.958Z</time></trkpt><trkpt lat="44.0549215" lon="8.0362358"><ele>144.25</ele><time>2026-04-03T10:30:55.958Z</time></trkpt><trkpt lat="44.0549877" lon="8.036079"><ele>146.0</ele><time>2026-04-03T10:30:56.958Z</time></trkpt><trkpt lat="44.0550519" lon="8.035937"><ele>143.8</ele><time>2026-04-03T10:30:57.957Z</time></trkpt><trkpt lat="44.0551134" lon="8.035802"><ele>141.6</ele><time>2026-04-03T10:30:58.958Z</time></trkpt><trkpt lat="44.0551751" lon="8.0356739"><ele>139.4</ele><time>2026-04-03T10:30:59.958Z</time></trkpt><trkpt lat="44.0552287" lon="8.035553"><ele>137.2</ele><time>2026-04-03T10:31:00.958Z</time></trkpt><trkpt lat="44.0552723" lon="8.035426"><ele>135.0</ele><time>2026-04-03T10:31:01.958Z</time></trkpt><trkpt lat="44.0553202" lon="8.0353043"><ele>135.0</ele><time>2026-04-03T10:31:02.958Z</time></trkpt><trkpt lat="44.0553623" lon="8.0351771"><ele>135.0</ele><time>2026-04-03T10:31:03.957Z</time></trkpt><trkpt lat="44.0554023" lon="8.0350333"><ele>135.0</ele><time>2026-04-03T10:31:04.958Z</time></trkpt><trkpt lat="44.0554389" lon="8.0348623"><ele>135.0</ele><time>2026-04-03T10:31:05.958Z</time></trkpt><trkpt lat="44.0554737" lon="8.03467"><ele>135.75</ele><time>2026-04-03T10:31:06.958Z</time></trkpt><trkpt lat="44.0555073" lon="8.0344773"><ele>136.5</ele><time>2026-04-03T10:31:07.958Z</time></trkpt><trkpt lat="44.0555478" lon="8.034299"><ele>137.25</ele><time>2026-04-03T10:31:08.957Z</time></trkpt><trkpt lat="44.0556117" lon="8.0341234"><ele>138.0</ele><time>2026-04-03T10:31:09.957Z</time></trkpt><trkpt lat="44.0556707" lon="8.0339691"><ele>138.20000000000002</ele><time>2026-04-03T10:31:10.957Z</time></trkpt><trkpt lat="44.0557347" lon="8.0338336"><ele>138.4</ele><time>2026-04-03T10:31:11.957Z</time></trkpt><trkpt lat="44.0557929" lon="8.0336993"><ele>138.60000000000002</ele><time>2026-04-03T10:31:12.958Z</time></trkpt><trkpt lat="44.0558399" lon="8.0335744"><ele>138.8</ele><time>2026-04-03T10:31:13.958Z</time></trkpt><trkpt lat="44.0558733" lon="8.033459"><ele>139.0</ele><time>2026-04-03T10:31:14.958Z</time></trkpt><trkpt lat="44.0559243" lon="8.0333773"><ele>134.6</ele><time>2026-04-03T10:31:15.958Z</time></trkpt><trkpt lat="44.0559847" lon="8.0333465"><ele>130.2</ele><time>2026-04-03T10:31:16.958Z</time></trkpt><trkpt lat="44.0560628" lon="8.0334435"><ele>125.79999999999998</ele><time>2026-04-03T10:31:18.958Z</time></trkpt><trkpt lat="44.0560712" lon="8.0335508"><ele>121.39999999999999</ele><time>2026-04-03T10:31:19.958Z</time></trkpt><trkpt lat="44.0560603" lon="8.0336924"><ele>117.0</ele><time>2026-04-03T10:31:20.958Z</time></trkpt><trkpt lat="44.056052" lon="8.0338543"><ele>117.0</ele><time>2026-04-03T10:31:21.957Z</time></trkpt><trkpt lat="44.0560494" lon="8.0340255"><ele>117.0</ele><time>2026-04-03T10:31:22.957Z</time></trkpt><trkpt lat="44.0560651" lon="8.0341972"><ele>117.0</ele><time>2026-04-03T10:31:23.958Z</time></trkpt><trkpt lat="44.0560898" lon="8.0343572"><ele>117.0</ele><time>2026-04-03T10:31:24.958Z</time></trkpt><trkpt lat="44.0561181" lon="8.0345182"><ele>115.5</ele><time>2026-04-03T10:31:25.958Z</time></trkpt><trkpt lat="44.0561412" lon="8.0346843"><ele>114.0</ele><time>2026-04-03T10:31:26.958Z</time></trkpt><trkpt lat="44.056171" lon="8.034853"><ele>112.5</ele><time>2026-04-03T10:31:27.958Z</time></trkpt><trkpt lat="44.0561996" lon="8.0350234"><ele>111.0</ele><time>2026-04-03T10:31:28.957Z</time></trkpt><trkpt lat="44.0562313" lon="8.035195"><ele>110.25</ele><time>2026-04-03T10:31:29.958Z</time></trkpt><trkpt lat="44.0562593" lon="8.0353695"><ele>109.5</ele><time>2026-04-03T10:31:30.957Z</time></trkpt><trkpt lat="44.0562914" lon="8.0355449"><ele>108.75</ele><time>2026-04-03T10:31:31.958Z</time></trkpt><trkpt lat="44.0563259" lon="8.0357153"><ele>108.0</ele><time>2026-04-03T10:31:32.958Z</time></trkpt><trkpt lat="44.0563597" lon="8.0358785"><ele>107.80000000000001</ele><time>2026-04-03T10:31:33.958Z</time></trkpt><trkpt lat="44.0563928" lon="8.0360313"><ele>107.60000000000001</ele><time>2026-04-03T10:31:34.958Z</time></trkpt><trkpt lat="44.0564219" lon="8.0361778"><ele>107.39999999999999</ele><time>2026-04-03T10:31:35.958Z</time></trkpt><trkpt lat="44.0564441" lon="8.0363233"><ele>107.19999999999999</ele><time>2026-04-03T10:31:36.957Z</time></trkpt><trkpt lat="44.0564656" lon="8.0364697"><ele>107.0</ele><time>2026-04-03T10:31:37.957Z</time></trkpt><trkpt lat="44.0564949" lon="8.0366286"><ele>106.25</ele><time>2026-04-03T10:31:38.958Z</time></trkpt><trkpt lat="44.0565282" lon="8.0368047"><ele>105.5</ele><time>2026-04-03T10:31:39.958Z</time></trkpt><trkpt lat="44.0565483" lon="8.0369763"><ele>104.75</ele><time>2026-04-03T10:31:40.958Z</time></trkpt><trkpt lat="44.0565486" lon="8.0371454"><ele>104.0</ele><time>2026-04-03T10:31:41.958Z</time></trkpt><trkpt lat="44.0565302" lon="8.0373017"><ele>104.0</ele><time>2026-04-03T10:31:42.958Z</time></trkpt><trkpt lat="44.0565021" lon="8.037447"><ele>104.0</ele><time>2026-04-03T10:31:43.957Z</time></trkpt><trkpt lat="44.0564749" lon="8.0375924"><ele>104.0</ele><time>2026-04-03T10:31:44.957Z</time></trkpt><trkpt lat="44.056463" lon="8.0377316"><ele>104.0</ele><time>2026-04-03T10:31:45.957Z</time></trkpt><trkpt lat="44.0564657" lon="8.0378503"><ele>104.0</ele><time>2026-04-03T10:31:46.958Z</time></trkpt><trkpt lat="44.0564741" lon="8.0379432"><ele>103.49999999999999</ele><time>2026-04-03T10:31:47.958Z</time></trkpt><trkpt lat="44.0564883" lon="8.0380316"><ele>103.0</ele><time>2026-04-03T10:31:49.957Z</time></trkpt><trkpt lat="44.056497" lon="8.0381811"><ele>102.5</ele><time>2026-04-03T10:31:58.958Z</time></trkpt><trkpt lat="44.0565085" lon="8.0382713"><ele>102.0</ele><time>2026-04-03T10:31:59.958Z</time></trkpt><trkpt lat="44.0565113" lon="8.0383734"><ele>101.49999999999999</ele><time>2026-04-03T10:32:00.958Z</time></trkpt><trkpt lat="44.0565038" lon="8.0385007"><ele>101.0</ele><time>2026-04-03T10:32:01.957Z</time></trkpt><trkpt lat="44.0565002" lon="8.0386577"><ele>98.5</ele><time>2026-04-03T10:32:02.958Z</time></trkpt><trkpt lat="44.0565116" lon="8.0388403"><ele>96.0</ele><time>2026-04-03T10:32:03.958Z</time></trkpt><trkpt lat="44.0565325" lon="8.0390365"><ele>93.5</ele><time>2026-04-03T10:32:04.958Z</time></trkpt><trkpt lat="44.0565537" lon="8.0392342"><ele>91.0</ele><time>2026-04-03T10:32:05.958Z</time></trkpt><trkpt lat="44.0565678" lon="8.0394363"><ele>91.0</ele><time>2026-04-03T10:32:06.957Z</time></trkpt><trkpt lat="44.056577" lon="8.0396463"><ele>91.0</ele><time>2026-04-03T10:32:07.958Z</time></trkpt><trkpt lat="44.0565796" lon="8.0398532"><ele>91.0</ele><time>2026-04-03T10:32:08.957Z</time></trkpt><trkpt lat="44.0565748" lon="8.040055"><ele>91.0</ele><time>2026-04-03T10:32:09.958Z</time></trkpt><trkpt lat="44.0565724" lon="8.040261"><ele>91.5</ele><time>2026-04-03T10:32:10.957Z</time></trkpt><trkpt lat="44.0565829" lon="8.0404564"><ele>92.0</ele><time>2026-04-03T10:32:11.957Z</time></trkpt><trkpt lat="44.0565996" lon="8.0406383"><ele>92.5</ele><time>2026-04-03T10:32:12.958Z</time></trkpt><trkpt lat="44.0566158" lon="8.040813"><ele>93.0</ele><time>2026-04-03T10:32:13.958Z</time></trkpt><trkpt lat="44.0566203" lon="8.0409823"><ele>93.33333333333333</ele><time>2026-04-03T10:32:14.958Z</time></trkpt><trkpt lat="44.0566177" lon="8.0411398"><ele>93.66666666666667</ele><time>2026-04-03T10:32:15.957Z</time></trkpt><trkpt lat="44.0566106" lon="8.0412703"><ele>94.0</ele><time>2026-04-03T10:32:16.958Z</time></trkpt><trkpt lat="44.0566123" lon="8.0413689"><ele>94.33333333333334</ele><time>2026-04-03T10:32:17.958Z</time></trkpt><trkpt lat="44.0566396" lon="8.0414665"><ele>94.66666666666667</ele><time>2026-04-03T10:32:19.957Z</time></trkpt><trkpt lat="44.0566792" lon="8.0413981"><ele>95.0</ele><time>2026-04-03T10:33:37.957Z</time></trkpt><trkpt lat="44.0567472" lon="8.0412171"><ele>97.0</ele><time>2026-04-03T10:33:39.957Z</time></trkpt><trkpt lat="44.056781" lon="8.0410782"><ele>99.0</ele><time>2026-04-03T10:33:40.956Z</time></trkpt><trkpt lat="44.0568131" lon="8.0409423"><ele>101.0</ele><time>2026-04-03T10:33:41.957Z</time></trkpt><trkpt lat="44.0568447" lon="8.0408382"><ele>103.0</ele><time>2026-04-03T10:33:42.957Z</time></trkpt><trkpt lat="44.0569009" lon="8.0407711"><ele>104.99999999999999</ele><time>2026-04-03T10:33:44.957Z</time></trkpt><trkpt lat="44.0569624" lon="8.0408259"><ele>107.0</ele><time>2026-04-03T10:33:46.957Z</time></trkpt><trkpt lat="44.0570165" lon="8.0408795"><ele>107.19999999999999</ele><time>2026-04-03T10:33:47.956Z</time></trkpt><trkpt lat="44.0570764" lon="8.0409469"><ele>107.39999999999999</ele><time>2026-04-03T10:33:48.957Z</time></trkpt><trkpt lat="44.0571254" lon="8.0410256"><ele>107.60000000000001</ele><time>2026-04-03T10:33:49.956Z</time></trkpt><trkpt lat="44.0571987" lon="8.0411551"><ele>107.80000000000001</ele><time>2026-04-03T10:33:51.957Z</time></trkpt><trkpt lat="44.0572793" lon="8.0412671"><ele>108.0</ele><time>2026-04-03T10:33:53.956Z</time></trkpt><trkpt lat="44.057279" lon="8.041372"><ele>108.0</ele><time>2026-04-03T10:33:55.957Z</time></trkpt><trkpt lat="44.0572013" lon="8.0415067"><ele>108.00000000000001</ele><time>2026-04-03T10:33:57.956Z</time></trkpt><trkpt lat="44.0571782" lon="8.0416089"><ele>108.00000000000001</ele><time>2026-04-03T10:33:58.957Z</time></trkpt><trkpt lat="44.0571734" lon="8.041735"><ele>108.0</ele><time>2026-04-03T10:33:59.957Z</time></trkpt><trkpt lat="44.0571792" lon="8.0418698"><ele>108.0</ele><time>2026-04-03T10:34:00.957Z</time></trkpt><trkpt lat="44.0571937" lon="8.041999"><ele>108.16666666666667</ele><time>2026-04-03T10:34:01.957Z</time></trkpt><trkpt lat="44.0572047" lon="8.0421219"><ele>108.33333333333334</ele><time>2026-04-03T10:34:02.957Z</time></trkpt><trkpt lat="44.0572197" lon="8.0422185"><ele>108.5</ele><time>2026-04-03T10:34:03.956Z</time></trkpt><trkpt lat="44.0572558" lon="8.0423003"><ele>108.66666666666667</ele><time>2026-04-03T10:34:04.957Z</time></trkpt><trkpt lat="44.0573206" lon="8.0423404"><ele>108.83333333333334</ele><time>2026-04-03T10:34:05.956Z</time></trkpt><trkpt lat="44.0573981" lon="8.0423509"><ele>109.0</ele><time>2026-04-03T10:34:06.956Z</time></trkpt><trkpt lat="44.0574869" lon="8.0423501"><ele>112.33333333333334</ele><time>2026-04-03T10:34:07.957Z</time></trkpt><trkpt lat="44.05757" lon="8.0423506"><ele>115.66666666666667</ele><time>2026-04-03T10:34:08.957Z</time></trkpt><trkpt lat="44.057631" lon="8.0424054"><ele>119.0</ele><time>2026-04-03T10:34:09.957Z</time></trkpt><trkpt lat="44.0576924" lon="8.0424971"><ele>122.33333333333334</ele><time>2026-04-03T10:34:10.957Z</time></trkpt><trkpt lat="44.0577287" lon="8.0426027"><ele>125.66666666666667</ele><time>2026-04-03T10:34:11.957Z</time></trkpt><trkpt lat="44.0577539" lon="8.0427251"><ele>129.0</ele><time>2026-04-03T10:34:12.956Z</time></trkpt><trkpt lat="44.057784" lon="8.0428293"><ele>129.0</ele><time>2026-04-03T10:34:13.956Z</time></trkpt><trkpt lat="44.0578122" lon="8.042913"><ele>129.0</ele><time>2026-04-03T10:34:15.957Z</time></trkpt><trkpt lat="44.0578972" lon="8.042958"><ele>129.0</ele><time>2026-04-03T10:34:47.957Z</time></trkpt><trkpt lat="44.0578934" lon="8.0430472"><ele>129.0</ele><time>2026-04-03T10:34:49.957Z</time></trkpt><trkpt lat="44.0577835" lon="8.0431587"><ele>129.0</ele><time>2026-04-03T10:34:51.957Z</time></trkpt><trkpt lat="44.0577283" lon="8.0432343"><ele>129.0</ele><time>2026-04-03T10:34:52.956Z</time></trkpt><trkpt lat="44.05768" lon="8.0433204"><ele>130.8</ele><time>2026-04-03T10:34:53.957Z</time></trkpt><trkpt lat="44.0576574" lon="8.0434294"><ele>132.60000000000002</ele><time>2026-04-03T10:34:54.956Z</time></trkpt><trkpt lat="44.0576712" lon="8.0435553"><ele>134.4</ele><time>2026-04-03T10:34:55.957Z</time></trkpt><trkpt lat="44.0577217" lon="8.0437039"><ele>136.20000000000002</ele><time>2026-04-03T10:34:56.957Z</time></trkpt><trkpt lat="44.0577878" lon="8.0438558"><ele>138.0</ele><time>2026-04-03T10:34:57.956Z</time></trkpt><trkpt lat="44.0578338" lon="8.0439949"><ele>138.0</ele><time>2026-04-03T10:34:58.957Z</time></trkpt><trkpt lat="44.057853" lon="8.0441126"><ele>138.0</ele><time>2026-04-03T10:34:59.956Z</time></trkpt><trkpt lat="44.0578392" lon="8.0442155"><ele>138.0</ele><time>2026-04-03T10:35:00.956Z</time></trkpt><trkpt lat="44.0577945" lon="8.0443035"><ele>138.0</ele><time>2026-04-03T10:35:01.956Z</time></trkpt><trkpt lat="44.0577277" lon="8.0443763"><ele>138.0</ele><time>2026-04-03T10:35:02.957Z</time></trkpt><trkpt lat="44.0576518" lon="8.0444339"><ele>138.0</ele><time>2026-04-03T10:35:03.956Z</time></trkpt><trkpt lat="44.0575666" lon="8.0444977"><ele>136.6</ele><time>2026-04-03T10:35:04.957Z</time></trkpt><trkpt lat="44.0574851" lon="8.0445821"><ele>135.20000000000002</ele><time>2026-04-03T10:35:05.956Z</time></trkpt><trkpt lat="44.0574105" lon="8.0446788"><ele>133.8</ele><time>2026-04-03T10:35:06.957Z</time></trkpt><trkpt lat="44.057338" lon="8.0447786"><ele>132.4</ele><time>2026-04-03T10:35:07.957Z</time></trkpt><trkpt lat="44.0572714" lon="8.0448762"><ele>131.0</ele><time>2026-04-03T10:35:08.957Z</time></trkpt><trkpt lat="44.0572121" lon="8.0449764"><ele>131.0</ele><time>2026-04-03T10:35:09.956Z</time></trkpt><trkpt lat="44.0571638" lon="8.0450665"><ele>131.0</ele><time>2026-04-03T10:35:10.956Z</time></trkpt><trkpt lat="44.0571296" lon="8.045141"><ele>131.0</ele><time>2026-04-03T10:35:11.956Z</time></trkpt><trkpt lat="44.0571235" lon="8.0452467"><ele>131.0</ele><time>2026-04-03T10:35:13.957Z</time></trkpt><trkpt lat="44.0571689" lon="8.045095"><ele>131.0</ele><time>2026-04-03T10:35:49.956Z</time></trkpt><trkpt lat="44.0572" lon="8.0449901"><ele>131.0</ele><time>2026-04-03T10:35:50.956Z</time></trkpt><trkpt lat="44.05725" lon="8.0448778"><ele>131.0</ele><time>2026-04-03T10:35:51.957Z</time></trkpt><trkpt lat="44.0573136" lon="8.0447693"><ele>131.0</ele><time>2026-04-03T10:35:52.957Z</time></trkpt><trkpt lat="44.0573806" lon="8.0446663"><ele>131.0</ele><time>2026-04-03T10:35:53.957Z</time></trkpt><trkpt lat="44.0574475" lon="8.0445836"><ele>131.0</ele><time>2026-04-03T10:35:54.956Z</time></trkpt><trkpt lat="44.0575141" lon="8.0445019"><ele>131.0</ele><time>2026-04-03T10:35:55.957Z</time></trkpt><trkpt lat="44.0575837" lon="8.0444277"><ele>132.16666666666666</ele><time>2026-04-03T10:35:56.956Z</time></trkpt><trkpt lat="44.0576593" lon="8.0443654"><ele>133.33333333333331</ele><time>2026-04-03T10:35:57.956Z</time></trkpt><trkpt lat="44.0577334" lon="8.0443026"><ele>134.5</ele><time>2026-04-03T10:35:58.957Z</time></trkpt><trkpt lat="44.057796" lon="8.0442353"><ele>135.66666666666666</ele><time>2026-04-03T10:35:59.957Z</time></trkpt><trkpt lat="44.0578399" lon="8.0441634"><ele>136.83333333333334</ele><time>2026-04-03T10:36:00.956Z</time></trkpt><trkpt lat="44.057879" lon="8.0439973"><ele>138.0</ele><time>2026-04-03T10:36:02.957Z</time></trkpt><trkpt lat="44.0578693" lon="8.0438984"><ele>138.0</ele><time>2026-04-03T10:36:03.957Z</time></trkpt><trkpt lat="44.0578404" lon="8.0437834"><ele>138.0</ele><time>2026-04-03T10:36:04.957Z</time></trkpt><trkpt lat="44.0577911" lon="8.0436544"><ele>138.0</ele><time>2026-04-03T10:36:05.956Z</time></trkpt><trkpt lat="44.0577523" lon="8.0435331"><ele>138.0</ele><time>2026-04-03T10:36:06.956Z</time></trkpt><trkpt lat="44.0577344" lon="8.0434101"><ele>138.0</ele><time>2026-04-03T10:36:07.956Z</time></trkpt><trkpt lat="44.0577401" lon="8.0432983"><ele>136.5</ele><time>2026-04-03T10:36:08.957Z</time></trkpt><trkpt lat="44.0577622" lon="8.0431941"><ele>135.0</ele><time>2026-04-03T10:36:09.957Z</time></trkpt><trkpt lat="44.057802" lon="8.0431"><ele>133.5</ele><time>2026-04-03T10:36:10.956Z</time></trkpt><trkpt lat="44.0578539" lon="8.0430178"><ele>132.0</ele><time>2026-04-03T10:36:11.957Z</time></trkpt><trkpt lat="44.0578932" lon="8.0429309"><ele>130.5</ele><time>2026-04-03T10:36:12.956Z</time></trkpt><trkpt lat="44.0579112" lon="8.0428237"><ele>129.0</ele><time>2026-04-03T10:36:14.957Z</time></trkpt><trkpt lat="44.0578709" lon="8.0427059"><ele>129.0</ele><time>2026-04-03T10:36:33.957Z</time></trkpt><trkpt lat="44.0579006" lon="8.0425673"><ele>129.0</ele><time>2026-04-03T10:36:35.957Z</time></trkpt><trkpt lat="44.0579538" lon="8.0424127"><ele>129.0</ele><time>2026-04-03T10:36:37.957Z</time></trkpt><trkpt lat="44.058012" lon="8.0422579"><ele>129.0</ele><time>2026-04-03T10:36:39.956Z</time></trkpt><trkpt lat="44.0580575" lon="8.0421335"><ele>128.83333333333334</ele><time>2026-04-03T10:36:41.956Z</time></trkpt><trkpt lat="44.0580878" lon="8.0420302"><ele>128.66666666666666</ele><time>2026-04-03T10:36:44.957Z</time></trkpt><trkpt lat="44.0581029" lon="8.0419165"><ele>128.5</ele><time>2026-04-03T10:36:46.956Z</time></trkpt><trkpt lat="44.0581066" lon="8.0417872"><ele>128.33333333333331</ele><time>2026-04-03T10:36:48.957Z</time></trkpt><trkpt lat="44.0581055" lon="8.0416701"><ele>128.16666666666666</ele><time>2026-04-03T10:36:50.957Z</time></trkpt><trkpt lat="44.0581186" lon="8.0415668"><ele>128.0</ele><time>2026-04-03T10:36:53.957Z</time></trkpt><trkpt lat="44.0581387" lon="8.0414752"><ele>128.0</ele><time>2026-04-03T10:36:56.957Z</time></trkpt><trkpt lat="44.0581252" lon="8.041607"><ele>128.0</ele><time>2026-04-03T10:37:09.957Z</time></trkpt><trkpt lat="44.0581184" lon="8.0417083"><ele>128.0</ele><time>2026-04-03T10:37:11.957Z</time></trkpt><trkpt lat="44.0581185" lon="8.0418557"><ele>128.0</ele><time>2026-04-03T10:37:16.957Z</time></trkpt><trkpt lat="44.0580887" lon="8.0420251"><ele>128.0</ele><time>2026-04-03T10:37:18.957Z</time></trkpt><trkpt lat="44.0580598" lon="8.0421263"><ele>128.16666666666666</ele><time>2026-04-03T10:37:19.957Z</time></trkpt><trkpt lat="44.0580236" lon="8.0422335"><ele>128.33333333333331</ele><time>2026-04-03T10:37:20.956Z</time></trkpt><trkpt lat="44.0579802" lon="8.0423365"><ele>128.5</ele><time>2026-04-03T10:37:21.956Z</time></trkpt><trkpt lat="44.0579341" lon="8.0424439"><ele>128.66666666666666</ele><time>2026-04-03T10:37:22.957Z</time></trkpt><trkpt lat="44.0578857" lon="8.0425501"><ele>128.83333333333334</ele><time>2026-04-03T10:37:23.956Z</time></trkpt><trkpt lat="44.0578388" lon="8.0426406"><ele>129.0</ele><time>2026-04-03T10:37:24.957Z</time></trkpt><trkpt lat="44.0578029" lon="8.0427132"><ele>129.0</ele><time>2026-04-03T10:37:25.956Z</time></trkpt><trkpt lat="44.0577823" lon="8.0428428"><ele>129.0</ele><time>2026-04-03T10:37:27.957Z</time></trkpt><trkpt lat="44.0577143" lon="8.0426956"><ele>129.0</ele><time>2026-04-03T10:37:32.956Z</time></trkpt><trkpt lat="44.0576772" lon="8.0425842"><ele>129.0</ele><time>2026-04-03T10:37:33.957Z</time></trkpt><trkpt lat="44.0576351" lon="8.0424755"><ele>129.0</ele><time>2026-04-03T10:37:34.956Z</time></trkpt><trkpt lat="44.0575906" lon="8.0423814"><ele>129.33333333333334</ele><time>2026-04-03T10:37:35.957Z</time></trkpt><trkpt lat="44.0575372" lon="8.0423147"><ele>129.66666666666666</ele><time>2026-04-03T10:37:36.957Z</time></trkpt><trkpt lat="44.0574691" lon="8.0422776"><ele>130.0</ele><time>2026-04-03T10:37:37.957Z</time></trkpt><trkpt lat="44.0573828" lon="8.0422726"><ele>130.33333333333331</ele><time>2026-04-03T10:37:38.957Z</time></trkpt><trkpt lat="44.0572988" lon="8.042266"><ele>130.66666666666666</ele><time>2026-04-03T10:37:39.957Z</time></trkpt><trkpt lat="44.0572352" lon="8.0422317"><ele>131.0</ele><time>2026-04-03T10:37:40.957Z</time></trkpt><trkpt lat="44.0571966" lon="8.0421553"><ele>126.6</ele><time>2026-04-03T10:37:41.957Z</time></trkpt><trkpt lat="44.0571826" lon="8.0420393"><ele>122.19999999999999</ele><time>2026-04-03T10:37:42.957Z</time></trkpt><trkpt lat="44.0571815" lon="8.0418883"><ele>117.80000000000001</ele><time>2026-04-03T10:37:43.957Z</time></trkpt><trkpt lat="44.0571852" lon="8.0417379"><ele>113.4</ele><time>2026-04-03T10:37:44.957Z</time></trkpt><trkpt lat="44.0571882" lon="8.0415952"><ele>109.0</ele><time>2026-04-03T10:37:45.957Z</time></trkpt><trkpt lat="44.0572001" lon="8.04146"><ele>108.83333333333334</ele><time>2026-04-03T10:37:46.957Z</time></trkpt><trkpt lat="44.0572354" lon="8.0413579"><ele>108.66666666666667</ele><time>2026-04-03T10:37:47.956Z</time></trkpt><trkpt lat="44.0572743" lon="8.0412783"><ele>108.5</ele><time>2026-04-03T10:37:48.955Z</time></trkpt><trkpt lat="44.0572709" lon="8.0411563"><ele>108.33333333333334</ele><time>2026-04-03T10:37:50.956Z</time></trkpt><trkpt lat="44.0572066" lon="8.0410985"><ele>108.16666666666667</ele><time>2026-04-03T10:37:51.956Z</time></trkpt><trkpt lat="44.0571322" lon="8.0410211"><ele>108.0</ele><time>2026-04-03T10:37:52.955Z</time></trkpt><trkpt lat="44.0570612" lon="8.0409454"><ele>108.0</ele><time>2026-04-03T10:37:53.955Z</time></trkpt><trkpt lat="44.0569923" lon="8.0408801"><ele>108.0</ele><time>2026-04-03T10:37:54.955Z</time></trkpt><trkpt lat="44.0569289" lon="8.040827"><ele>108.0</ele><time>2026-04-03T10:37:55.955Z</time></trkpt><trkpt lat="44.0568644" lon="8.0407714"><ele>108.0</ele><time>2026-04-03T10:37:57.955Z</time></trkpt><trkpt lat="44.0568971" lon="8.040621"><ele>108.0</ele><time>2026-04-03T10:38:06.956Z</time></trkpt><trkpt lat="44.0569325" lon="8.0404865"><ele>108.0</ele><time>2026-04-03T10:38:07.956Z</time></trkpt><trkpt lat="44.0569735" lon="8.0403217"><ele>107.75</ele><time>2026-04-03T10:38:08.955Z</time></trkpt><trkpt lat="44.0570153" lon="8.0401531"><ele>107.5</ele><time>2026-04-03T10:38:09.956Z</time></trkpt><trkpt lat="44.0570592" lon="8.0399872"><ele>107.25</ele><time>2026-04-03T10:38:10.956Z</time></trkpt><trkpt lat="44.0570965" lon="8.0398218"><ele>107.0</ele><time>2026-04-03T10:38:11.956Z</time></trkpt><trkpt lat="44.057133" lon="8.0396645"><ele>105.75</ele><time>2026-04-03T10:38:12.955Z</time></trkpt><trkpt lat="44.0571687" lon="8.0395099"><ele>104.5</ele><time>2026-04-03T10:38:13.956Z</time></trkpt><trkpt lat="44.0572117" lon="8.0393567"><ele>103.25</ele><time>2026-04-03T10:38:14.955Z</time></trkpt><trkpt lat="44.0572539" lon="8.0391953"><ele>102.0</ele><time>2026-04-03T10:38:15.956Z</time></trkpt><trkpt lat="44.0572931" lon="8.0390258"><ele>101.0</ele><time>2026-04-03T10:38:16.956Z</time></trkpt><trkpt lat="44.0573402" lon="8.0388569"><ele>100.0</ele><time>2026-04-03T10:38:17.956Z</time></trkpt><trkpt lat="44.0573908" lon="8.038679"><ele>99.0</ele><time>2026-04-03T10:38:18.955Z</time></trkpt><trkpt lat="44.0574392" lon="8.038486"><ele>98.0</ele><time>2026-04-03T10:38:19.955Z</time></trkpt><trkpt lat="44.0574859" lon="8.0383039"><ele>99.4</ele><time>2026-04-03T10:38:20.956Z</time></trkpt><trkpt lat="44.0575249" lon="8.0381462"><ele>100.80000000000001</ele><time>2026-04-03T10:38:21.955Z</time></trkpt><trkpt lat="44.0575589" lon="8.0380006"><ele>102.2</ele><time>2026-04-03T10:38:22.955Z</time></trkpt><trkpt lat="44.0575898" lon="8.0378532"><ele>103.6</ele><time>2026-04-03T10:38:23.955Z</time></trkpt><trkpt lat="44.0576105" lon="8.0377064"><ele>105.0</ele><time>2026-04-03T10:38:24.956Z</time></trkpt><trkpt lat="44.0576229" lon="8.0375495"><ele>104.2</ele><time>2026-04-03T10:38:25.955Z</time></trkpt><trkpt lat="44.0576358" lon="8.0373903"><ele>103.4</ele><time>2026-04-03T10:38:26.956Z</time></trkpt><trkpt lat="44.0576465" lon="8.0372379"><ele>102.6</ele><time>2026-04-03T10:38:27.955Z</time></trkpt><trkpt lat="44.0576463" lon="8.0370934"><ele>101.8</ele><time>2026-04-03T10:38:28.955Z</time></trkpt><trkpt lat="44.0576556" lon="8.0369606"><ele>101.0</ele><time>2026-04-03T10:38:29.955Z</time></trkpt><trkpt lat="44.0576653" lon="8.0368169"><ele>101.0</ele><time>2026-04-03T10:38:30.955Z</time></trkpt><trkpt lat="44.0576766" lon="8.0366628"><ele>101.0</ele><time>2026-04-03T10:38:31.955Z</time></trkpt><trkpt lat="44.0576895" lon="8.0364961"><ele>101.0</ele><time>2026-04-03T10:38:32.956Z</time></trkpt><trkpt lat="44.0576968" lon="8.0363222"><ele>101.0</ele><time>2026-04-03T10:38:33.955Z</time></trkpt><trkpt lat="44.0577059" lon="8.0361433"><ele>101.19999999999999</ele><time>2026-04-03T10:38:34.955Z</time></trkpt><trkpt lat="44.0577169" lon="8.0359781"><ele>101.39999999999999</ele><time>2026-04-03T10:38:35.956Z</time></trkpt><trkpt lat="44.0577266" lon="8.0358163"><ele>101.6</ele><time>2026-04-03T10:38:36.956Z</time></trkpt><trkpt lat="44.0577351" lon="8.0356725"><ele>101.8</ele><time>2026-04-03T10:38:37.956Z</time></trkpt><trkpt lat="44.0577374" lon="8.0355454"><ele>102.0</ele><time>2026-04-03T10:38:38.956Z</time></trkpt><trkpt lat="44.0577504" lon="8.0354218"><ele>102.19999999999999</ele><time>2026-04-03T10:38:39.955Z</time></trkpt><trkpt lat="44.0577667" lon="8.0352925"><ele>102.4</ele><time>2026-04-03T10:38:40.955Z</time></trkpt><trkpt lat="44.0577826" lon="8.035153"><ele>102.6</ele><time>2026-04-03T10:38:41.956Z</time></trkpt><trkpt lat="44.057791" lon="8.0350013"><ele>102.80000000000001</ele><time>2026-04-03T10:38:42.956Z</time></trkpt><trkpt lat="44.0578011" lon="8.0348374"><ele>103.0</ele><time>2026-04-03T10:38:43.956Z</time></trkpt><trkpt lat="44.0578167" lon="8.0346586"><ele>103.0</ele><time>2026-04-03T10:38:44.956Z</time></trkpt><trkpt lat="44.0578357" lon="8.0344763"><ele>103.0</ele><time>2026-04-03T10:38:45.956Z</time></trkpt><trkpt lat="44.0578507" lon="8.0342894"><ele>103.0</ele><time>2026-04-03T10:38:46.956Z</time></trkpt><trkpt lat="44.0578657" lon="8.0340944"><ele>103.0</ele><time>2026-04-03T10:38:47.956Z</time></trkpt><trkpt lat="44.0578816" lon="8.0338916"><ele>103.0</ele><time>2026-04-03T10:38:48.956Z</time></trkpt><trkpt lat="44.0578956" lon="8.0337055"><ele>103.0</ele><time>2026-04-03T10:38:49.956Z</time></trkpt><trkpt lat="44.0579155" lon="8.0335313"><ele>103.0</ele><time>2026-04-03T10:38:50.955Z</time></trkpt><trkpt lat="44.0579307" lon="8.0333588"><ele>103.0</ele><time>2026-04-03T10:38:51.956Z</time></trkpt><trkpt lat="44.0579446" lon="8.0331769"><ele>103.5</ele><time>2026-04-03T10:38:52.956Z</time></trkpt><trkpt lat="44.0579569" lon="8.0329884"><ele>104.0</ele><time>2026-04-03T10:38:53.955Z</time></trkpt><trkpt lat="44.0579719" lon="8.0328007"><ele>104.5</ele><time>2026-04-03T10:38:54.956Z</time></trkpt><trkpt lat="44.057994" lon="8.032606"><ele>105.0</ele><time>2026-04-03T10:38:55.955Z</time></trkpt><trkpt lat="44.0580135" lon="8.0324247"><ele>105.25</ele><time>2026-04-03T10:38:56.956Z</time></trkpt><trkpt lat="44.0580308" lon="8.0322475"><ele>105.5</ele><time>2026-04-03T10:38:57.955Z</time></trkpt><trkpt lat="44.0580479" lon="8.032077"><ele>105.75</ele><time>2026-04-03T10:38:58.955Z</time></trkpt><trkpt lat="44.0580653" lon="8.0319076"><ele>106.0</ele><time>2026-04-03T10:38:59.956Z</time></trkpt><trkpt lat="44.058083" lon="8.0317365"><ele>105.75</ele><time>2026-04-03T10:39:00.955Z</time></trkpt><trkpt lat="44.0580966" lon="8.0315674"><ele>105.5</ele><time>2026-04-03T10:39:01.956Z</time></trkpt><trkpt lat="44.0581052" lon="8.031396"><ele>105.25</ele><time>2026-04-03T10:39:02.956Z</time></trkpt><trkpt lat="44.0581086" lon="8.0312263"><ele>105.0</ele><time>2026-04-03T10:39:03.956Z</time></trkpt><trkpt lat="44.0580993" lon="8.0310727"><ele>105.0</ele><time>2026-04-03T10:39:04.955Z</time></trkpt><trkpt lat="44.0580855" lon="8.0309315"><ele>105.0</ele><time>2026-04-03T10:39:05.955Z</time></trkpt><trkpt lat="44.0580688" lon="8.0308047"><ele>105.0</ele><time>2026-04-03T10:39:06.956Z</time></trkpt><trkpt lat="44.0580531" lon="8.0306817"><ele>105.0</ele><time>2026-04-03T10:39:07.955Z</time></trkpt><trkpt lat="44.0580402" lon="8.0305655"><ele>105.0</ele><time>2026-04-03T10:39:08.956Z</time></trkpt><trkpt lat="44.0580247" lon="8.0304533"><ele>105.0</ele><time>2026-04-03T10:39:09.955Z</time></trkpt><trkpt lat="44.058012" lon="8.0303363"><ele>105.0</ele><time>2026-04-03T10:39:10.956Z</time></trkpt><trkpt lat="44.0579973" lon="8.0302171"><ele>105.0</ele><time>2026-04-03T10:39:11.955Z</time></trkpt><trkpt lat="44.0579848" lon="8.0301052"><ele>105.0</ele><time>2026-04-03T10:39:12.955Z</time></trkpt><trkpt lat="44.0579784" lon="8.0300135"><ele>105.0</ele><time>2026-04-03T10:39:13.955Z</time></trkpt><trkpt lat="44.0579802" lon="8.0299051"><ele>105.0</ele><time>2026-04-03T10:39:15.955Z</time></trkpt><trkpt lat="44.0579614" lon="8.0300281"><ele>105.0</ele><time>2026-04-03T10:39:39.955Z</time></trkpt><trkpt lat="44.057973" lon="8.0301174"><ele>105.0</ele><time>2026-04-03T10:39:40.956Z</time></trkpt><trkpt lat="44.0579924" lon="8.0302384"><ele>105.0</ele><time>2026-04-03T10:39:41.955Z</time></trkpt><trkpt lat="44.0580103" lon="8.0303796"><ele>105.0</ele><time>2026-04-03T10:39:42.955Z</time></trkpt><trkpt lat="44.0580197" lon="8.0305258"><ele>105.0</ele><time>2026-04-03T10:39:43.955Z</time></trkpt><trkpt lat="44.0580309" lon="8.0306635"><ele>105.0</ele><time>2026-04-03T10:39:44.955Z</time></trkpt><trkpt lat="44.0580421" lon="8.0307927"><ele>105.0</ele><time>2026-04-03T10:39:45.956Z</time></trkpt><trkpt lat="44.0580552" lon="8.0309109"><ele>105.0</ele><time>2026-04-03T10:39:46.956Z</time></trkpt><trkpt lat="44.058069" lon="8.0310039"><ele>105.0</ele><time>2026-04-03T10:39:47.956Z</time></trkpt><trkpt lat="44.0581188" lon="8.0310732"><ele>105.0</ele><time>2026-04-03T10:39:49.956Z</time></trkpt><trkpt lat="44.0582114" lon="8.0311205"><ele>105.0</ele><time>2026-04-03T10:39:51.956Z</time></trkpt><trkpt lat="44.0582718" lon="8.0312624"><ele>108.4</ele><time>2026-04-03T10:39:53.955Z</time></trkpt><trkpt lat="44.0582903" lon="8.0313624"><ele>111.8</ele><time>2026-04-03T10:39:54.955Z</time></trkpt><trkpt lat="44.0583149" lon="8.0314805"><ele>115.19999999999999</ele><time>2026-04-03T10:39:55.956Z</time></trkpt><trkpt lat="44.0583529" lon="8.0316072"><ele>118.6</ele><time>2026-04-03T10:39:56.956Z</time></trkpt><trkpt lat="44.0583947" lon="8.0317409"><ele>122.0</ele><time>2026-04-03T10:39:57.955Z</time></trkpt><trkpt lat="44.0584278" lon="8.0318713"><ele>122.0</ele><time>2026-04-03T10:39:58.955Z</time></trkpt><trkpt lat="44.0584589" lon="8.031997"><ele>121.99999999999999</ele><time>2026-04-03T10:39:59.956Z</time></trkpt><trkpt lat="44.0584869" lon="8.0321221"><ele>121.99999999999999</ele><time>2026-04-03T10:40:00.956Z</time></trkpt><trkpt lat="44.0585002" lon="8.0322521"><ele>122.0</ele><time>2026-04-03T10:40:01.956Z</time></trkpt><trkpt lat="44.0585039" lon="8.0323753"><ele>122.0</ele><time>2026-04-03T10:40:02.956Z</time></trkpt><trkpt lat="44.0585006" lon="8.0325045"><ele>122.49999999999999</ele><time>2026-04-03T10:40:03.955Z</time></trkpt><trkpt lat="44.0584994" lon="8.0326101"><ele>123.0</ele><time>2026-04-03T10:40:04.956Z</time></trkpt><trkpt lat="44.058488" lon="8.0327062"><ele>123.5</ele><time>2026-04-03T10:40:05.956Z</time></trkpt><trkpt lat="44.0584754" lon="8.0328152"><ele>124.0</ele><time>2026-04-03T10:40:06.956Z</time></trkpt><trkpt lat="44.0584692" lon="8.0329199"><ele>124.49999999999999</ele><time>2026-04-03T10:40:07.956Z</time></trkpt><trkpt lat="44.0584575" lon="8.03303"><ele>125.0</ele><time>2026-04-03T10:40:08.956Z</time></trkpt><trkpt lat="44.0584453" lon="8.0331362"><ele>125.0</ele><time>2026-04-03T10:40:09.956Z</time></trkpt><trkpt lat="44.0584287" lon="8.0332501"><ele>125.0</ele><time>2026-04-03T10:40:10.955Z</time></trkpt><trkpt lat="44.0584149" lon="8.0333758"><ele>125.0</ele><time>2026-04-03T10:40:11.956Z</time></trkpt><trkpt lat="44.0584024" lon="8.0335089"><ele>125.0</ele><time>2026-04-03T10:40:12.955Z</time></trkpt><trkpt lat="44.0583843" lon="8.0336404"><ele>125.0</ele><time>2026-04-03T10:40:13.956Z</time></trkpt><trkpt lat="44.0583628" lon="8.0337754"><ele>125.0</ele><time>2026-04-03T10:40:14.955Z</time></trkpt><trkpt lat="44.0583449" lon="8.0338961"><ele>125.0</ele><time>2026-04-03T10:40:15.956Z</time></trkpt><trkpt lat="44.0583261" lon="8.0340062"><ele>125.0</ele><time>2026-04-03T10:40:16.956Z</time></trkpt><trkpt lat="44.0583189" lon="8.0341003"><ele>125.0</ele><time>2026-04-03T10:40:17.956Z</time></trkpt><trkpt lat="44.0583251" lon="8.0341913"><ele>125.0</ele><time>2026-04-03T10:40:18.955Z</time></trkpt><trkpt lat="44.058345" lon="8.0342778"><ele>125.0</ele><time>2026-04-03T10:40:19.956Z</time></trkpt><trkpt lat="44.0583781" lon="8.0343704"><ele>125.0</ele><time>2026-04-03T10:40:20.955Z</time></trkpt><trkpt lat="44.0584239" lon="8.0344569"><ele>125.16666666666666</ele><time>2026-04-03T10:40:21.955Z</time></trkpt><trkpt lat="44.0584792" lon="8.0345377"><ele>125.33333333333333</ele><time>2026-04-03T10:40:22.956Z</time></trkpt><trkpt lat="44.0585449" lon="8.0346175"><ele>125.5</ele><time>2026-04-03T10:40:23.956Z</time></trkpt><trkpt lat="44.0586136" lon="8.0347145"><ele>125.66666666666666</ele><time>2026-04-03T10:40:24.956Z</time></trkpt><trkpt lat="44.0586705" lon="8.0348172"><ele>125.83333333333333</ele><time>2026-04-03T10:40:25.956Z</time></trkpt><trkpt lat="44.0587106" lon="8.0349241"><ele>126.0</ele><time>2026-04-03T10:40:26.955Z</time></trkpt><trkpt lat="44.0587245" lon="8.0350308"><ele>126.0</ele><time>2026-04-03T10:40:27.955Z</time></trkpt><trkpt lat="44.0587203" lon="8.035141"><ele>126.0</ele><time>2026-04-03T10:40:28.956Z</time></trkpt><trkpt lat="44.0587085" lon="8.03526"><ele>126.0</ele><time>2026-04-03T10:40:29.956Z</time></trkpt><trkpt lat="44.0587105" lon="8.0353768"><ele>126.0</ele><time>2026-04-03T10:40:30.956Z</time></trkpt><trkpt lat="44.0587498" lon="8.0354677"><ele>126.0</ele><time>2026-04-03T10:40:31.956Z</time></trkpt><trkpt lat="44.0588038" lon="8.035528"><ele>126.0</ele><time>2026-04-03T10:40:32.956Z</time></trkpt><trkpt lat="44.0588685" lon="8.0355138"><ele>126.0</ele><time>2026-04-03T10:40:33.956Z</time></trkpt><trkpt lat="44.0589378" lon="8.0354586"><ele>126.0</ele><time>2026-04-03T10:40:34.955Z</time></trkpt><trkpt lat="44.0589926" lon="8.0353676"><ele>126.0</ele><time>2026-04-03T10:40:35.955Z</time></trkpt><trkpt lat="44.059036" lon="8.0352486"><ele>126.0</ele><time>2026-04-03T10:40:36.956Z</time></trkpt><trkpt lat="44.0590839" lon="8.0351312"><ele>126.0</ele><time>2026-04-03T10:40:37.955Z</time></trkpt><trkpt lat="44.0591361" lon="8.0350083"><ele>132.5</ele><time>2026-04-03T10:40:38.956Z</time></trkpt><trkpt lat="44.0592014" lon="8.0348789"><ele>139.0</ele><time>2026-04-03T10:40:39.956Z</time></trkpt><trkpt lat="44.0592869" lon="8.0347597"><ele>145.5</ele><time>2026-04-03T10:40:40.955Z</time></trkpt><trkpt lat="44.059383" lon="8.03467"><ele>152.0</ele><time>2026-04-03T10:40:41.956Z</time></trkpt><trkpt lat="44.0594732" lon="8.034591"><ele>152.0</ele><time>2026-04-03T10:40:42.956Z</time></trkpt><trkpt lat="44.0595471" lon="8.0344991"><ele>152.0</ele><time>2026-04-03T10:40:43.956Z</time></trkpt><trkpt lat="44.0595888" lon="8.0343939"><ele>152.0</ele><time>2026-04-03T10:40:44.955Z</time></trkpt><trkpt lat="44.0595967" lon="8.0342668"><ele>152.0</ele><time>2026-04-03T10:40:45.955Z</time></trkpt><trkpt lat="44.0595553" lon="8.0341407"><ele>152.0</ele><time>2026-04-03T10:40:46.956Z</time></trkpt><trkpt lat="44.059495" lon="8.0340384"><ele>152.0</ele><time>2026-04-03T10:40:47.956Z</time></trkpt><trkpt lat="44.0594432" lon="8.0339397"><ele>152.0</ele><time>2026-04-03T10:40:48.956Z</time></trkpt><trkpt lat="44.0594246" lon="8.0338462"><ele>152.0</ele><time>2026-04-03T10:40:49.956Z</time></trkpt><trkpt lat="44.0594377" lon="8.0337464"><ele>152.0</ele><time>2026-04-03T10:40:50.956Z</time></trkpt><trkpt lat="44.0594704" lon="8.0336268"><ele>152.0</ele><time>2026-04-03T10:40:51.955Z</time></trkpt><trkpt lat="44.0595058" lon="8.0334861"><ele>152.0</ele><time>2026-04-03T10:40:52.956Z</time></trkpt><trkpt lat="44.0595349" lon="8.0333424"><ele>151.79999999999998</ele><time>2026-04-03T10:40:53.956Z</time></trkpt><trkpt lat="44.0595563" lon="8.0332038"><ele>151.6</ele><time>2026-04-03T10:40:54.956Z</time></trkpt><trkpt lat="44.0595943" lon="8.0330811"><ele>151.39999999999998</ele><time>2026-04-03T10:40:55.956Z</time></trkpt><trkpt lat="44.0596535" lon="8.0329563"><ele>151.2</ele><time>2026-04-03T10:40:56.956Z</time></trkpt><trkpt lat="44.059722" lon="8.0328429"><ele>151.0</ele><time>2026-04-03T10:40:57.956Z</time></trkpt><trkpt lat="44.0598143" lon="8.0327535"><ele>151.0</ele><time>2026-04-03T10:40:58.956Z</time></trkpt><trkpt lat="44.0599209" lon="8.0326935"><ele>151.0</ele><time>2026-04-03T10:40:59.956Z</time></trkpt><trkpt lat="44.0600416" lon="8.0326352"><ele>151.0</ele><time>2026-04-03T10:41:00.956Z</time></trkpt><trkpt lat="44.060167" lon="8.0325558"><ele>151.0</ele><time>2026-04-03T10:41:01.955Z</time></trkpt><trkpt lat="44.0602847" lon="8.0324614"><ele>153.25</ele><time>2026-04-03T10:41:02.955Z</time></trkpt><trkpt lat="44.0604039" lon="8.032359"><ele>155.5</ele><time>2026-04-03T10:41:03.956Z</time></trkpt><trkpt lat="44.0605261" lon="8.0322845"><ele>157.75</ele><time>2026-04-03T10:41:04.955Z</time></trkpt><trkpt lat="44.0606421" lon="8.0322317"><ele>160.0</ele><time>2026-04-03T10:41:05.955Z</time></trkpt><trkpt lat="44.0607503" lon="8.0321805"><ele>166.0</ele><time>2026-04-03T10:41:06.955Z</time></trkpt><trkpt lat="44.0608487" lon="8.0321234"><ele>172.0</ele><time>2026-04-03T10:41:07.956Z</time></trkpt><trkpt lat="44.0609204" lon="8.0320349"><ele>178.0</ele><time>2026-04-03T10:41:08.955Z</time></trkpt><trkpt lat="44.0609745" lon="8.031911"><ele>184.0</ele><time>2026-04-03T10:41:09.956Z</time></trkpt><trkpt lat="44.0610115" lon="8.0317804"><ele>190.0</ele><time>2026-04-03T10:41:10.956Z</time></trkpt><trkpt lat="44.0610464" lon="8.0316572"><ele>190.8</ele><time>2026-04-03T10:41:11.956Z</time></trkpt><trkpt lat="44.0610449" lon="8.0315418"><ele>191.6</ele><time>2026-04-03T10:41:12.956Z</time></trkpt><trkpt lat="44.0610024" lon="8.0314247"><ele>192.39999999999998</ele><time>2026-04-03T10:41:13.956Z</time></trkpt><trkpt lat="44.06093" lon="8.0312993"><ele>193.2</ele><time>2026-04-03T10:41:14.956Z</time></trkpt><trkpt lat="44.060855" lon="8.0311612"><ele>194.0</ele><time>2026-04-03T10:41:15.956Z</time></trkpt><trkpt lat="44.0608212" lon="8.0310125"><ele>194.00000000000003</ele><time>2026-04-03T10:41:16.956Z</time></trkpt><trkpt lat="44.060811" lon="8.0308866"><ele>194.0</ele><time>2026-04-03T10:41:17.956Z</time></trkpt><trkpt lat="44.0608312" lon="8.0307823"><ele>194.0</ele><time>2026-04-03T10:41:18.956Z</time></trkpt><trkpt lat="44.0608775" lon="8.0307005"><ele>194.0</ele><time>2026-04-03T10:41:19.956Z</time></trkpt><trkpt lat="44.0609475" lon="8.0306241"><ele>194.00000000000003</ele><time>2026-04-03T10:41:20.956Z</time></trkpt><trkpt lat="44.0610456" lon="8.0305657"><ele>194.0</ele><time>2026-04-03T10:41:21.956Z</time></trkpt><trkpt lat="44.0611571" lon="8.0305107"><ele>192.5</ele><time>2026-04-03T10:41:22.956Z</time></trkpt><trkpt lat="44.0612695" lon="8.0304496"><ele>191.0</ele><time>2026-04-03T10:41:23.955Z</time></trkpt><trkpt lat="44.061367" lon="8.0303603"><ele>189.5</ele><time>2026-04-03T10:41:24.956Z</time></trkpt><trkpt lat="44.0614428" lon="8.0302311"><ele>188.0</ele><time>2026-04-03T10:41:25.956Z</time></trkpt><trkpt lat="44.0614996" lon="8.0300671"><ele>188.5</ele><time>2026-04-03T10:41:26.956Z</time></trkpt><trkpt lat="44.0615402" lon="8.0299009"><ele>189.0</ele><time>2026-04-03T10:41:27.956Z</time></trkpt><trkpt lat="44.0615794" lon="8.0297267"><ele>189.5</ele><time>2026-04-03T10:41:28.956Z</time></trkpt><trkpt lat="44.0616354" lon="8.029565"><ele>190.0</ele><time>2026-04-03T10:41:29.956Z</time></trkpt><trkpt lat="44.0616937" lon="8.029408"><ele>195.25</ele><time>2026-04-03T10:41:30.956Z</time></trkpt><trkpt lat="44.0617447" lon="8.0292538"><ele>200.5</ele><time>2026-04-03T10:41:31.955Z</time></trkpt><trkpt lat="44.0617845" lon="8.0291056"><ele>205.75</ele><time>2026-04-03T10:41:32.955Z</time></trkpt><trkpt lat="44.0618144" lon="8.0289439"><ele>211.0</ele><time>2026-04-03T10:41:33.956Z</time></trkpt><trkpt lat="44.0618343" lon="8.0287926"><ele>210.99999999999997</ele><time>2026-04-03T10:41:34.956Z</time></trkpt><trkpt lat="44.0618558" lon="8.0286553"><ele>211.0</ele><time>2026-04-03T10:41:35.956Z</time></trkpt><trkpt lat="44.0618816" lon="8.0285327"><ele>211.0</ele><time>2026-04-03T10:41:36.955Z</time></trkpt><trkpt lat="44.0619043" lon="8.028416"><ele>211.0</ele><time>2026-04-03T10:41:37.955Z</time></trkpt><trkpt lat="44.0619187" lon="8.0282992"><ele>210.99999999999997</ele><time>2026-04-03T10:41:38.956Z</time></trkpt><trkpt lat="44.0619155" lon="8.0281855"><ele>211.0</ele><time>2026-04-03T10:41:39.956Z</time></trkpt><trkpt lat="44.061882" lon="8.0280828"><ele>212.4</ele><time>2026-04-03T10:41:40.955Z</time></trkpt><trkpt lat="44.061821" lon="8.0279742"><ele>213.8</ele><time>2026-04-03T10:41:41.956Z</time></trkpt><trkpt lat="44.0617466" lon="8.027859"><ele>215.20000000000002</ele><time>2026-04-03T10:41:42.956Z</time></trkpt><trkpt lat="44.0616791" lon="8.0277507"><ele>216.60000000000002</ele><time>2026-04-03T10:41:43.955Z</time></trkpt><trkpt lat="44.0616125" lon="8.0276468"><ele>218.0</ele><time>2026-04-03T10:41:44.955Z</time></trkpt><trkpt lat="44.0615733" lon="8.0275399"><ele>217.66666666666669</ele><time>2026-04-03T10:41:45.955Z</time></trkpt><trkpt lat="44.0615604" lon="8.0274359"><ele>217.33333333333334</ele><time>2026-04-03T10:41:46.955Z</time></trkpt><trkpt lat="44.06156" lon="8.0273266"><ele>217.0</ele><time>2026-04-03T10:41:47.956Z</time></trkpt><trkpt lat="44.0615769" lon="8.0272127"><ele>216.66666666666669</ele><time>2026-04-03T10:41:48.956Z</time></trkpt><trkpt lat="44.0616132" lon="8.0270953"><ele>216.33333333333334</ele><time>2026-04-03T10:41:49.955Z</time></trkpt><trkpt lat="44.0616726" lon="8.0269702"><ele>216.0</ele><time>2026-04-03T10:41:50.955Z</time></trkpt><trkpt lat="44.0617441" lon="8.0268335"><ele>216.0</ele><time>2026-04-03T10:41:51.956Z</time></trkpt><trkpt lat="44.0618167" lon="8.0267124"><ele>216.0</ele><time>2026-04-03T10:41:52.956Z</time></trkpt><trkpt lat="44.0618866" lon="8.0265961"><ele>216.0</ele><time>2026-04-03T10:41:53.956Z</time></trkpt><trkpt lat="44.0619755" lon="8.0264906"><ele>216.0</ele><time>2026-04-03T10:41:54.956Z</time></trkpt><trkpt lat="44.0620639" lon="8.0263981"><ele>214.20000000000002</ele><time>2026-04-03T10:41:55.955Z</time></trkpt><trkpt lat="44.0621591" lon="8.0263365"><ele>212.40000000000003</ele><time>2026-04-03T10:41:56.956Z</time></trkpt><trkpt lat="44.0622443" lon="8.0263129"><ele>210.6</ele><time>2026-04-03T10:41:57.955Z</time></trkpt><trkpt lat="44.0623086" lon="8.0263256"><ele>208.8</ele><time>2026-04-03T10:41:58.956Z</time></trkpt><trkpt lat="44.0623206" lon="8.0265122"><ele>207.0</ele><time>2026-04-03T10:42:00.955Z</time></trkpt><trkpt lat="44.0623091" lon="8.0266439"><ele>208.8</ele><time>2026-04-03T10:42:01.955Z</time></trkpt><trkpt lat="44.0623028" lon="8.026773"><ele>210.6</ele><time>2026-04-03T10:42:02.954Z</time></trkpt><trkpt lat="44.062292" lon="8.0269172"><ele>212.40000000000003</ele><time>2026-04-03T10:42:03.954Z</time></trkpt><trkpt lat="44.0622822" lon="8.0270487"><ele>214.20000000000002</ele><time>2026-04-03T10:42:04.954Z</time></trkpt><trkpt lat="44.0622724" lon="8.0271796"><ele>216.0</ele><time>2026-04-03T10:42:05.955Z</time></trkpt><trkpt lat="44.0622619" lon="8.0272967"><ele>216.0</ele><time>2026-04-03T10:42:06.954Z</time></trkpt><trkpt lat="44.0622606" lon="8.0273966"><ele>216.0</ele><time>2026-04-03T10:42:07.954Z</time></trkpt><trkpt lat="44.0623283" lon="8.0274711"><ele>216.0</ele><time>2026-04-03T10:42:09.954Z</time></trkpt><trkpt lat="44.0623953" lon="8.0274726"><ele>216.0</ele><time>2026-04-03T10:42:10.955Z</time></trkpt><trkpt lat="44.0625061" lon="8.0275035"><ele>216.0</ele><time>2026-04-03T10:42:12.954Z</time></trkpt><trkpt lat="44.0625619" lon="8.0275618"><ele>216.0</ele><time>2026-04-03T10:42:13.954Z</time></trkpt><trkpt lat="44.0626179" lon="8.0276531"><ele>219.4</ele><time>2026-04-03T10:42:14.955Z</time></trkpt><trkpt lat="44.0626672" lon="8.0277623"><ele>222.8</ele><time>2026-04-03T10:42:15.954Z</time></trkpt><trkpt lat="44.0627106" lon="8.0278821"><ele>226.20000000000002</ele><time>2026-04-03T10:42:16.955Z</time></trkpt><trkpt lat="44.0627522" lon="8.0280139"><ele>229.60000000000002</ele><time>2026-04-03T10:42:17.955Z</time></trkpt><trkpt lat="44.0627876" lon="8.0281596"><ele>233.0</ele><time>2026-04-03T10:42:18.955Z</time></trkpt><trkpt lat="44.0628286" lon="8.0283093"><ele>232.25</ele><time>2026-04-03T10:42:19.954Z</time></trkpt><trkpt lat="44.0628609" lon="8.0284567"><ele>231.5</ele><time>2026-04-03T10:42:20.954Z</time></trkpt><trkpt lat="44.0628871" lon="8.028629"><ele>230.75</ele><time>2026-04-03T10:42:21.954Z</time></trkpt><trkpt lat="44.0628964" lon="8.028809"><ele>230.0</ele><time>2026-04-03T10:42:22.954Z</time></trkpt><trkpt lat="44.062879" lon="8.0289859"><ele>230.2</ele><time>2026-04-03T10:42:23.954Z</time></trkpt><trkpt lat="44.0628407" lon="8.0291445"><ele>230.4</ele><time>2026-04-03T10:42:24.955Z</time></trkpt><trkpt lat="44.0627875" lon="8.0292855"><ele>230.60000000000002</ele><time>2026-04-03T10:42:25.955Z</time></trkpt><trkpt lat="44.0627328" lon="8.0293857"><ele>230.8</ele><time>2026-04-03T10:42:26.955Z</time></trkpt><trkpt lat="44.0626908" lon="8.0294648"><ele>231.0</ele><time>2026-04-03T10:42:27.955Z</time></trkpt><trkpt lat="44.0626562" lon="8.02955"><ele>231.0</ele><time>2026-04-03T10:42:29.954Z</time></trkpt><trkpt lat="44.0627034" lon="8.0296263"><ele>231.0</ele><time>2026-04-03T10:42:51.955Z</time></trkpt><trkpt lat="44.0627676" lon="8.0295649"><ele>231.0</ele><time>2026-04-03T10:42:53.955Z</time></trkpt><trkpt lat="44.0628078" lon="8.0294754"><ele>231.0</ele><time>2026-04-03T10:42:56.955Z</time></trkpt><trkpt lat="44.0628584" lon="8.0293225"><ele>231.0</ele><time>2026-04-03T10:43:50.955Z</time></trkpt><trkpt lat="44.0629211" lon="8.0292221"><ele>231.0</ele><time>2026-04-03T10:43:51.954Z</time></trkpt><trkpt lat="44.0630057" lon="8.0291208"><ele>230.8</ele><time>2026-04-03T10:43:52.954Z</time></trkpt><trkpt lat="44.0631056" lon="8.0290387"><ele>230.60000000000002</ele><time>2026-04-03T10:43:53.954Z</time></trkpt><trkpt lat="44.0632071" lon="8.0289643"><ele>230.4</ele><time>2026-04-03T10:43:54.955Z</time></trkpt><trkpt lat="44.0632998" lon="8.0288831"><ele>230.2</ele><time>2026-04-03T10:43:55.955Z</time></trkpt><trkpt lat="44.0633558" lon="8.0287748"><ele>230.0</ele><time>2026-04-03T10:43:56.954Z</time></trkpt><trkpt lat="44.0633901" lon="8.0286636"><ele>235.0</ele><time>2026-04-03T10:43:57.955Z</time></trkpt><trkpt lat="44.0634129" lon="8.0285349"><ele>240.0</ele><time>2026-04-03T10:43:58.955Z</time></trkpt><trkpt lat="44.0634168" lon="8.0283813"><ele>245.0</ele><time>2026-04-03T10:43:59.954Z</time></trkpt><trkpt lat="44.063428" lon="8.0282203"><ele>250.0</ele><time>2026-04-03T10:44:00.955Z</time></trkpt><trkpt lat="44.0634504" lon="8.0280568"><ele>255.0</ele><time>2026-04-03T10:44:01.954Z</time></trkpt><trkpt lat="44.0634756" lon="8.0278866"><ele>255.0</ele><time>2026-04-03T10:44:02.955Z</time></trkpt><trkpt lat="44.0635076" lon="8.0277031"><ele>255.0</ele><time>2026-04-03T10:44:03.954Z</time></trkpt><trkpt lat="44.0635465" lon="8.0275283"><ele>255.0</ele><time>2026-04-03T10:44:04.955Z</time></trkpt><trkpt lat="44.0635847" lon="8.0273614"><ele>255.0</ele><time>2026-04-03T10:44:05.955Z</time></trkpt><trkpt lat="44.0636273" lon="8.0272037"><ele>255.25</ele><time>2026-04-03T10:44:06.955Z</time></trkpt><trkpt lat="44.063674" lon="8.0270475"><ele>255.5</ele><time>2026-04-03T10:44:07.955Z</time></trkpt><trkpt lat="44.0637003" lon="8.0268768"><ele>255.75</ele><time>2026-04-03T10:44:08.954Z</time></trkpt><trkpt lat="44.063703" lon="8.0267018"><ele>256.0</ele><time>2026-04-03T10:44:09.955Z</time></trkpt><trkpt lat="44.0636862" lon="8.0265233"><ele>255.0</ele><time>2026-04-03T10:44:10.955Z</time></trkpt><trkpt lat="44.0636708" lon="8.0263382"><ele>254.0</ele><time>2026-04-03T10:44:11.954Z</time></trkpt><trkpt lat="44.0636613" lon="8.0261619"><ele>253.0</ele><time>2026-04-03T10:44:12.955Z</time></trkpt><trkpt lat="44.0636635" lon="8.0260069"><ele>252.0</ele><time>2026-04-03T10:44:13.955Z</time></trkpt><trkpt lat="44.0636758" lon="8.0258645"><ele>249.33333333333334</ele><time>2026-04-03T10:44:14.955Z</time></trkpt><trkpt lat="44.0637036" lon="8.0257412"><ele>246.66666666666669</ele><time>2026-04-03T10:44:15.954Z</time></trkpt><trkpt lat="44.0637566" lon="8.0256493"><ele>244.0</ele><time>2026-04-03T10:44:16.955Z</time></trkpt><trkpt lat="44.0638223" lon="8.0255769"><ele>241.33333333333334</ele><time>2026-04-03T10:44:17.954Z</time></trkpt><trkpt lat="44.0638948" lon="8.0255269"><ele>238.66666666666669</ele><time>2026-04-03T10:44:18.954Z</time></trkpt><trkpt lat="44.0639736" lon="8.0255073"><ele>236.0</ele><time>2026-04-03T10:44:19.955Z</time></trkpt><trkpt lat="44.064061" lon="8.025505"><ele>239.4</ele><time>2026-04-03T10:44:20.955Z</time></trkpt><trkpt lat="44.0641469" lon="8.0255086"><ele>242.8</ele><time>2026-04-03T10:44:21.955Z</time></trkpt><trkpt lat="44.064237" lon="8.0255407"><ele>246.20000000000002</ele><time>2026-04-03T10:44:22.955Z</time></trkpt><trkpt lat="44.0643398" lon="8.0256343"><ele>249.60000000000002</ele><time>2026-04-03T10:44:23.955Z</time></trkpt><trkpt lat="44.0644581" lon="8.0257273"><ele>253.0</ele><time>2026-04-03T10:44:24.954Z</time></trkpt><trkpt lat="44.0645865" lon="8.0257951"><ele>253.0</ele><time>2026-04-03T10:44:25.954Z</time></trkpt><trkpt lat="44.0647153" lon="8.0258095"><ele>253.0</ele><time>2026-04-03T10:44:26.955Z</time></trkpt><trkpt lat="44.0648351" lon="8.0258115"><ele>253.0</ele><time>2026-04-03T10:44:27.955Z</time></trkpt><trkpt lat="44.0649267" lon="8.0257842"><ele>253.0</ele><time>2026-04-03T10:44:28.955Z</time></trkpt><trkpt lat="44.0650097" lon="8.0257371"><ele>253.0</ele><time>2026-04-03T10:44:29.954Z</time></trkpt><trkpt lat="44.0650772" lon="8.025661"><ele>259.25</ele><time>2026-04-03T10:44:30.954Z</time></trkpt><trkpt lat="44.0650862" lon="8.0255098"><ele>265.5</ele><time>2026-04-03T10:44:31.955Z</time></trkpt><trkpt lat="44.0650679" lon="8.0253131"><ele>271.75</ele><time>2026-04-03T10:44:32.955Z</time></trkpt><trkpt lat="44.065053" lon="8.0251113"><ele>278.0</ele><time>2026-04-03T10:44:33.955Z</time></trkpt><trkpt lat="44.0650376" lon="8.0249207"><ele>278.25</ele><time>2026-04-03T10:44:34.954Z</time></trkpt><trkpt lat="44.0650293" lon="8.0247424"><ele>278.5</ele><time>2026-04-03T10:44:35.955Z</time></trkpt><trkpt lat="44.0650363" lon="8.0245796"><ele>278.75</ele><time>2026-04-03T10:44:36.954Z</time></trkpt><trkpt lat="44.0650685" lon="8.024431"><ele>279.0</ele><time>2026-04-03T10:44:37.954Z</time></trkpt><trkpt lat="44.0651249" lon="8.0242851"><ele>279.0</ele><time>2026-04-03T10:44:38.955Z</time></trkpt><trkpt lat="44.0651956" lon="8.0241583"><ele>279.0</ele><time>2026-04-03T10:44:39.955Z</time></trkpt><trkpt lat="44.0652543" lon="8.0240434"><ele>279.0</ele><time>2026-04-03T10:44:40.955Z</time></trkpt><trkpt lat="44.065286" lon="8.0239461"><ele>279.0</ele><time>2026-04-03T10:44:41.955Z</time></trkpt><trkpt lat="44.0652821" lon="8.0238516"><ele>279.0</ele><time>2026-04-03T10:44:42.954Z</time></trkpt><trkpt lat="44.0651799" lon="8.0237789"><ele>280.0</ele><time>2026-04-03T10:44:43.955Z</time></trkpt><trkpt lat="44.0650668" lon="8.0236901"><ele>281.0</ele><time>2026-04-03T10:44:44.955Z</time></trkpt><trkpt lat="44.064967" lon="8.0235809"><ele>282.0</ele><time>2026-04-03T10:44:45.955Z</time></trkpt><trkpt lat="44.0648695" lon="8.0234508"><ele>283.0</ele><time>2026-04-03T10:44:46.955Z</time></trkpt><trkpt lat="44.0647679" lon="8.0233122"><ele>283.0</ele><time>2026-04-03T10:44:47.954Z</time></trkpt><trkpt lat="44.0646745" lon="8.0231679"><ele>283.0</ele><time>2026-04-03T10:44:48.954Z</time></trkpt><trkpt lat="44.0645883" lon="8.0230083"><ele>283.0</ele><time>2026-04-03T10:44:49.954Z</time></trkpt><trkpt lat="44.0645117" lon="8.0228717"><ele>283.0</ele><time>2026-04-03T10:44:50.955Z</time></trkpt><trkpt lat="44.0644417" lon="8.0227417"><ele>283.0</ele><time>2026-04-03T10:44:51.955Z</time></trkpt><trkpt lat="44.064405" lon="8.0226183"><ele>283.0</ele><time>2026-04-03T10:44:52.955Z</time></trkpt><trkpt lat="44.064395" lon="8.022495"><ele>283.0</ele><time>2026-04-03T10:44:53.955Z</time></trkpt><trkpt lat="44.0644133" lon="8.0223633"><ele>283.0</ele><time>2026-04-03T10:44:54.954Z</time></trkpt><trkpt lat="44.06443" lon="8.0222233"><ele>283.0</ele><time>2026-04-03T10:44:55.955Z</time></trkpt><trkpt lat="44.0644083" lon="8.0220917"><ele>283.5</ele><time>2026-04-03T10:44:56.955Z</time></trkpt><trkpt lat="44.0643567" lon="8.0219517"><ele>284.0</ele><time>2026-04-03T10:44:57.954Z</time></trkpt><trkpt lat="44.0643033" lon="8.0218417"><ele>284.5</ele><time>2026-04-03T10:44:58.954Z</time></trkpt><trkpt lat="44.06429" lon="8.02173"><ele>285.0</ele><time>2026-04-03T10:44:59.955Z</time></trkpt><trkpt lat="44.0642917" lon="8.0216333"><ele>285.5</ele><time>2026-04-03T10:45:00.955Z</time></trkpt><trkpt lat="44.0643583" lon="8.0215917"><ele>286.0</ele><time>2026-04-03T10:45:02.954Z</time></trkpt><trkpt lat="44.064395" lon="8.0216733"><ele>287.0</ele><time>2026-04-03T10:45:03.955Z</time></trkpt><trkpt lat="44.0644467" lon="8.0217717"><ele>288.0</ele><time>2026-04-03T10:45:04.954Z</time></trkpt><trkpt lat="44.064505" lon="8.021905"><ele>289.0</ele><time>2026-04-03T10:45:05.955Z</time></trkpt><trkpt lat="44.0645717" lon="8.02206"><ele>290.0</ele><time>2026-04-03T10:45:06.954Z</time></trkpt><trkpt lat="44.0646183" lon="8.022205"><ele>291.0</ele><time>2026-04-03T10:45:07.955Z</time></trkpt><trkpt lat="44.0646517" lon="8.0223517"><ele>289.40000000000003</ele><time>2026-04-03T10:45:08.954Z</time></trkpt><trkpt lat="44.064695" lon="8.0225017"><ele>287.8</ele><time>2026-04-03T10:45:09.955Z</time></trkpt><trkpt lat="44.0647417" lon="8.0226267"><ele>286.20000000000005</ele><time>2026-04-03T10:45:10.955Z</time></trkpt><trkpt lat="44.0647917" lon="8.0227383"><ele>284.6</ele><time>2026-04-03T10:45:11.955Z</time></trkpt><trkpt lat="44.064855" lon="8.0228283"><ele>283.0</ele><time>2026-04-03T10:45:12.955Z</time></trkpt><trkpt lat="44.0649467" lon="8.02291"><ele>286.0</ele><time>2026-04-03T10:45:13.955Z</time></trkpt><trkpt lat="44.0650433" lon="8.0229783"><ele>289.0</ele><time>2026-04-03T10:45:14.954Z</time></trkpt><trkpt lat="44.0651533" lon="8.023055"><ele>292.0</ele><time>2026-04-03T10:45:15.955Z</time></trkpt><trkpt lat="44.0652233" lon="8.023155"><ele>295.0</ele><time>2026-04-03T10:45:16.955Z</time></trkpt><trkpt lat="44.0652917" lon="8.0232583"><ele>298.0</ele><time>2026-04-03T10:45:17.955Z</time></trkpt><trkpt lat="44.0653633" lon="8.0233433"><ele>298.0</ele><time>2026-04-03T10:45:18.955Z</time></trkpt><trkpt lat="44.0654383" lon="8.0234"><ele>298.0</ele><time>2026-04-03T10:45:19.954Z</time></trkpt><trkpt lat="44.0655383" lon="8.0234117"><ele>298.0</ele><time>2026-04-03T10:45:20.954Z</time></trkpt><trkpt lat="44.0656467" lon="8.0233917"><ele>298.0</ele><time>2026-04-03T10:45:21.954Z</time></trkpt><trkpt lat="44.0657517" lon="8.0233683"><ele>298.0</ele><time>2026-04-03T10:45:22.954Z</time></trkpt><trkpt lat="44.0658533" lon="8.023365"><ele>303.0</ele><time>2026-04-03T10:45:23.955Z</time></trkpt><trkpt lat="44.06594" lon="8.023385"><ele>308.0</ele><time>2026-04-03T10:45:24.954Z</time></trkpt><trkpt lat="44.0660133" lon="8.0234317"><ele>313.0</ele><time>2026-04-03T10:45:25.954Z</time></trkpt><trkpt lat="44.066055" lon="8.023545"><ele>318.0</ele><time>2026-04-03T10:45:26.954Z</time></trkpt><trkpt lat="44.0660667" lon="8.0236883"><ele>323.0</ele><time>2026-04-03T10:45:27.954Z</time></trkpt><trkpt lat="44.066055" lon="8.0238467"><ele>323.0</ele><time>2026-04-03T10:45:28.955Z</time></trkpt><trkpt lat="44.06603" lon="8.0240183"><ele>323.0</ele><time>2026-04-03T10:45:29.954Z</time></trkpt><trkpt lat="44.0660233" lon="8.0241783"><ele>323.0</ele><time>2026-04-03T10:45:30.954Z</time></trkpt><trkpt lat="44.0660217" lon="8.0243433"><ele>323.0</ele><time>2026-04-03T10:45:31.954Z</time></trkpt><trkpt lat="44.0660083" lon="8.0244967"><ele>321.59999999999997</ele><time>2026-04-03T10:45:32.955Z</time></trkpt><trkpt lat="44.0659817" lon="8.0246433"><ele>320.2</ele><time>2026-04-03T10:45:33.954Z</time></trkpt><trkpt lat="44.06594" lon="8.0247583"><ele>318.8</ele><time>2026-04-03T10:45:34.954Z</time></trkpt><trkpt lat="44.065935" lon="8.0248783"><ele>317.4</ele><time>2026-04-03T10:45:35.955Z</time></trkpt><trkpt lat="44.065945" lon="8.0249833"><ele>316.0</ele><time>2026-04-03T10:45:36.955Z</time></trkpt><trkpt lat="44.066035" lon="8.0250567"><ele>316.0</ele><time>2026-04-03T10:45:37.954Z</time></trkpt><trkpt lat="44.06613" lon="8.0251283"><ele>316.0</ele><time>2026-04-03T10:45:38.954Z</time></trkpt><trkpt lat="44.06623" lon="8.0252117"><ele>316.0</ele><time>2026-04-03T10:45:39.955Z</time></trkpt><trkpt lat="44.0663117" lon="8.02531"><ele>316.0</ele><time>2026-04-03T10:45:40.955Z</time></trkpt><trkpt lat="44.0663717" lon="8.025425"><ele>316.0</ele><time>2026-04-03T10:45:41.954Z</time></trkpt><trkpt lat="44.0664117" lon="8.025555"><ele>316.0</ele><time>2026-04-03T10:45:42.955Z</time></trkpt><trkpt lat="44.0664467" lon="8.02569"><ele>316.0</ele><time>2026-04-03T10:45:43.955Z</time></trkpt><trkpt lat="44.0664733" lon="8.025845"><ele>316.0</ele><time>2026-04-03T10:45:44.955Z</time></trkpt><trkpt lat="44.066495" lon="8.0260017"><ele>316.0</ele><time>2026-04-03T10:45:45.955Z</time></trkpt><trkpt lat="44.0665167" lon="8.0261467"><ele>316.0</ele><time>2026-04-03T10:45:46.955Z</time></trkpt><trkpt lat="44.0665383" lon="8.0263117"><ele>316.5</ele><time>2026-04-03T10:45:47.955Z</time></trkpt><trkpt lat="44.0665567" lon="8.0264833"><ele>317.0</ele><time>2026-04-03T10:45:48.955Z</time></trkpt><trkpt lat="44.0665533" lon="8.0266683"><ele>317.5</ele><time>2026-04-03T10:45:49.954Z</time></trkpt><trkpt lat="44.0665333" lon="8.0268517"><ele>318.0</ele><time>2026-04-03T10:45:50.955Z</time></trkpt><trkpt lat="44.0664967" lon="8.02703"><ele>318.0</ele><time>2026-04-03T10:45:51.955Z</time></trkpt><trkpt lat="44.0664633" lon="8.0272017"><ele>318.0</ele><time>2026-04-03T10:45:52.954Z</time></trkpt><trkpt lat="44.0664333" lon="8.0273567"><ele>318.0</ele><time>2026-04-03T10:45:53.955Z</time></trkpt><trkpt lat="44.066395" lon="8.0275"><ele>318.0</ele><time>2026-04-03T10:45:54.954Z</time></trkpt><trkpt lat="44.0663233" lon="8.02762"><ele>322.25</ele><time>2026-04-03T10:45:55.955Z</time></trkpt><trkpt lat="44.0662317" lon="8.0277117"><ele>326.5</ele><time>2026-04-03T10:45:56.954Z</time></trkpt><trkpt lat="44.0661333" lon="8.0278017"><ele>330.75</ele><time>2026-04-03T10:45:57.954Z</time></trkpt><trkpt lat="44.0660267" lon="8.0278967"><ele>335.0</ele><time>2026-04-03T10:45:58.955Z</time></trkpt><trkpt lat="44.0659217" lon="8.0279983"><ele>335.0</ele><time>2026-04-03T10:45:59.954Z</time></trkpt><trkpt lat="44.0658383" lon="8.0281017"><ele>335.0</ele><time>2026-04-03T10:46:00.955Z</time></trkpt><trkpt lat="44.065775" lon="8.0282283"><ele>335.0</ele><time>2026-04-03T10:46:01.954Z</time></trkpt><trkpt lat="44.065745" lon="8.02836"><ele>335.0</ele><time>2026-04-03T10:46:02.955Z</time></trkpt><trkpt lat="44.065735" lon="8.028515"><ele>335.0</ele><time>2026-04-03T10:46:03.955Z</time></trkpt><trkpt lat="44.0657267" lon="8.028665"><ele>332.4</ele><time>2026-04-03T10:46:04.954Z</time></trkpt><trkpt lat="44.0657033" lon="8.0287917"><ele>329.8</ele><time>2026-04-03T10:46:05.955Z</time></trkpt><trkpt lat="44.0656733" lon="8.02892"><ele>327.20000000000005</ele><time>2026-04-03T10:46:06.955Z</time></trkpt><trkpt lat="44.0656433" lon="8.0290417"><ele>324.6</ele><time>2026-04-03T10:46:07.955Z</time></trkpt><trkpt lat="44.0656267" lon="8.029185"><ele>322.0</ele><time>2026-04-03T10:46:08.955Z</time></trkpt><trkpt lat="44.0656133" lon="8.029335"><ele>322.0</ele><time>2026-04-03T10:46:09.955Z</time></trkpt><trkpt lat="44.0656167" lon="8.029485"><ele>322.0</ele><time>2026-04-03T10:46:10.954Z</time></trkpt><trkpt lat="44.0656067" lon="8.029625"><ele>322.0</ele><time>2026-04-03T10:46:11.954Z</time></trkpt><trkpt lat="44.06561" lon="8.02975"><ele>322.0</ele><time>2026-04-03T10:46:12.954Z</time></trkpt><trkpt lat="44.0656367" lon="8.0298333"><ele>322.0</ele><time>2026-04-03T10:46:13.954Z</time></trkpt><trkpt lat="44.0657317" lon="8.029795"><ele>322.0</ele><time>2026-04-03T10:46:15.954Z</time></trkpt><trkpt lat="44.0657567" lon="8.0297033"><ele>322.0</ele><time>2026-04-03T10:46:16.954Z</time></trkpt><trkpt lat="44.065755" lon="8.0295667"><ele>322.0</ele><time>2026-04-03T10:46:17.953Z</time></trkpt><trkpt lat="44.0657433" lon="8.0294217"><ele>322.0</ele><time>2026-04-03T10:46:18.954Z</time></trkpt><trkpt lat="44.0657533" lon="8.0292733"><ele>322.0</ele><time>2026-04-03T10:46:19.953Z</time></trkpt><trkpt lat="44.06578" lon="8.02914"><ele>327.20000000000005</ele><time>2026-04-03T10:46:20.954Z</time></trkpt><trkpt lat="44.0658367" lon="8.0290067"><ele>332.4</ele><time>2026-04-03T10:46:21.954Z</time></trkpt><trkpt lat="44.0659017" lon="8.0288667"><ele>337.6</ele><time>2026-04-03T10:46:22.954Z</time></trkpt><trkpt lat="44.065965" lon="8.0287317"><ele>342.79999999999995</ele><time>2026-04-03T10:46:23.954Z</time></trkpt><trkpt lat="44.0660133" lon="8.028615"><ele>348.0</ele><time>2026-04-03T10:46:24.954Z</time></trkpt><trkpt lat="44.0660517" lon="8.0285283"><ele>348.0</ele><time>2026-04-03T10:46:25.954Z</time></trkpt><trkpt lat="44.066095" lon="8.02846"><ele>348.0</ele><time>2026-04-03T10:46:27.954Z</time></trkpt><trkpt lat="44.066155" lon="8.0284333"><ele>348.0</ele><time>2026-04-03T10:46:30.954Z</time></trkpt><trkpt lat="44.066245" lon="8.02838"><ele>348.0</ele><time>2026-04-03T10:47:01.954Z</time></trkpt><trkpt lat="44.0663883" lon="8.0283733"><ele>348.0</ele><time>2026-04-03T10:47:03.953Z</time></trkpt><trkpt lat="44.066485" lon="8.0283767"><ele>348.0</ele><time>2026-04-03T10:47:04.954Z</time></trkpt><trkpt lat="44.0665983" lon="8.0283933"><ele>348.0</ele><time>2026-04-03T10:47:05.954Z</time></trkpt><trkpt lat="44.066715" lon="8.0283983"><ele>348.0</ele><time>2026-04-03T10:47:06.953Z</time></trkpt><trkpt lat="44.0668267" lon="8.0283883"><ele>348.0</ele><time>2026-04-03T10:47:07.954Z</time></trkpt><trkpt lat="44.0669483" lon="8.0283667"><ele>348.59999999999997</ele><time>2026-04-03T10:47:08.953Z</time></trkpt><trkpt lat="44.0670717" lon="8.0283333"><ele>349.2</ele><time>2026-04-03T10:47:09.953Z</time></trkpt><trkpt lat="44.0671717" lon="8.0282767"><ele>349.8</ele><time>2026-04-03T10:47:10.953Z</time></trkpt><trkpt lat="44.06725" lon="8.0281917"><ele>350.4</ele><time>2026-04-03T10:47:11.953Z</time></trkpt><trkpt lat="44.0673333" lon="8.0280867"><ele>351.0</ele><time>2026-04-03T10:47:12.954Z</time></trkpt><trkpt lat="44.0674333" lon="8.0279417"><ele>356.0</ele><time>2026-04-03T10:47:13.954Z</time></trkpt><trkpt lat="44.0675367" lon="8.0278017"><ele>361.0</ele><time>2026-04-03T10:47:14.954Z</time></trkpt><trkpt lat="44.0676383" lon="8.0276467"><ele>366.0</ele><time>2026-04-03T10:47:15.954Z</time></trkpt><trkpt lat="44.06773" lon="8.0275067"><ele>371.0</ele><time>2026-04-03T10:47:16.953Z</time></trkpt><trkpt lat="44.0678067" lon="8.0273617"><ele>371.0</ele><time>2026-04-03T10:47:17.953Z</time></trkpt><trkpt lat="44.0678817" lon="8.0272317"><ele>371.0</ele><time>2026-04-03T10:47:18.953Z</time></trkpt><trkpt lat="44.0679533" lon="8.0271317"><ele>371.0</ele><time>2026-04-03T10:47:19.954Z</time></trkpt><trkpt lat="44.0680117" lon="8.0270333"><ele>371.0</ele><time>2026-04-03T10:47:20.954Z</time></trkpt><trkpt lat="44.0680517" lon="8.0269183"><ele>371.0</ele><time>2026-04-03T10:47:21.954Z</time></trkpt><trkpt lat="44.06806" lon="8.0267983"><ele>371.0</ele><time>2026-04-03T10:47:22.953Z</time></trkpt><trkpt lat="44.0679933" lon="8.026645"><ele>371.0</ele><time>2026-04-03T10:47:23.953Z</time></trkpt><trkpt lat="44.0679033" lon="8.0265133"><ele>371.0</ele><time>2026-04-03T10:47:24.953Z</time></trkpt><trkpt lat="44.067815" lon="8.0263933"><ele>371.0</ele><time>2026-04-03T10:47:25.954Z</time></trkpt><trkpt lat="44.0677117" lon="8.0262983"><ele>374.0</ele><time>2026-04-03T10:47:26.953Z</time></trkpt><trkpt lat="44.06762" lon="8.026185"><ele>377.0</ele><time>2026-04-03T10:47:27.953Z</time></trkpt><trkpt lat="44.0675367" lon="8.0260917"><ele>380.0</ele><time>2026-04-03T10:47:28.954Z</time></trkpt><trkpt lat="44.0674717" lon="8.0259983"><ele>383.0</ele><time>2026-04-03T10:47:29.954Z</time></trkpt><trkpt lat="44.0674383" lon="8.02588"><ele>386.0</ele><time>2026-04-03T10:47:30.954Z</time></trkpt><trkpt lat="44.0674283" lon="8.0257467"><ele>386.0</ele><time>2026-04-03T10:47:31.953Z</time></trkpt><trkpt lat="44.06743" lon="8.0255867"><ele>386.0</ele><time>2026-04-03T10:47:32.954Z</time></trkpt><trkpt lat="44.0674167" lon="8.0254133"><ele>386.0</ele><time>2026-04-03T10:47:33.954Z</time></trkpt><trkpt lat="44.06741" lon="8.0252617"><ele>386.0</ele><time>2026-04-03T10:47:34.954Z</time></trkpt><trkpt lat="44.0674417" lon="8.0251333"><ele>386.0</ele><time>2026-04-03T10:47:35.954Z</time></trkpt><trkpt lat="44.0675183" lon="8.02504"><ele>386.0</ele><time>2026-04-03T10:47:36.954Z</time></trkpt><trkpt lat="44.0676167" lon="8.02498"><ele>386.0</ele><time>2026-04-03T10:47:37.954Z</time></trkpt><trkpt lat="44.0677233" lon="8.0249117"><ele>386.0</ele><time>2026-04-03T10:47:38.954Z</time></trkpt><trkpt lat="44.067835" lon="8.02483"><ele>386.0</ele><time>2026-04-03T10:47:39.953Z</time></trkpt><trkpt lat="44.0679217" lon="8.0247167"><ele>384.0</ele><time>2026-04-03T10:47:40.954Z</time></trkpt><trkpt lat="44.068" lon="8.0245633"><ele>382.0</ele><time>2026-04-03T10:47:41.954Z</time></trkpt><trkpt lat="44.0680583" lon="8.0244"><ele>380.0</ele><time>2026-04-03T10:47:42.954Z</time></trkpt><trkpt lat="44.0681217" lon="8.0242283"><ele>378.0</ele><time>2026-04-03T10:47:43.954Z</time></trkpt><trkpt lat="44.0681817" lon="8.0240517"><ele>377.79999999999995</ele><time>2026-04-03T10:47:44.954Z</time></trkpt><trkpt lat="44.06823" lon="8.0238933"><ele>377.6</ele><time>2026-04-03T10:47:45.954Z</time></trkpt><trkpt lat="44.0682667" lon="8.0237333"><ele>377.4</ele><time>2026-04-03T10:47:46.954Z</time></trkpt><trkpt lat="44.068315" lon="8.02364"><ele>377.20000000000005</ele><time>2026-04-03T10:47:47.954Z</time></trkpt><trkpt lat="44.0684183" lon="8.023615"><ele>377.0</ele><time>2026-04-03T10:47:49.954Z</time></trkpt><trkpt lat="44.0684667" lon="8.023745"><ele>383.25</ele><time>2026-04-03T10:47:51.954Z</time></trkpt><trkpt lat="44.0684583" lon="8.02386"><ele>389.5</ele><time>2026-04-03T10:47:52.954Z</time></trkpt><trkpt lat="44.0684167" lon="8.0240183"><ele>395.75</ele><time>2026-04-03T10:47:53.953Z</time></trkpt><trkpt lat="44.0683633" lon="8.0241833"><ele>402.0</ele><time>2026-04-03T10:47:54.954Z</time></trkpt><trkpt lat="44.0682967" lon="8.0243933"><ele>398.0</ele><time>2026-04-03T10:47:55.954Z</time></trkpt><trkpt lat="44.0682583" lon="8.0245883"><ele>394.0</ele><time>2026-04-03T10:47:56.954Z</time></trkpt><trkpt lat="44.0682217" lon="8.0247733"><ele>390.0</ele><time>2026-04-03T10:47:57.954Z</time></trkpt><trkpt lat="44.0681633" lon="8.024935"><ele>386.0</ele><time>2026-04-03T10:47:58.954Z</time></trkpt><trkpt lat="44.0680917" lon="8.0250817"><ele>386.0</ele><time>2026-04-03T10:47:59.954Z</time></trkpt><trkpt lat="44.068025" lon="8.02523"><ele>386.0</ele><time>2026-04-03T10:48:00.954Z</time></trkpt><trkpt lat="44.0679583" lon="8.0253467"><ele>386.0</ele><time>2026-04-03T10:48:01.954Z</time></trkpt><trkpt lat="44.06792" lon="8.0254617"><ele>386.0</ele><time>2026-04-03T10:48:02.953Z</time></trkpt><trkpt lat="44.0678933" lon="8.025555"><ele>386.0</ele><time>2026-04-03T10:48:03.953Z</time></trkpt><trkpt lat="44.0679217" lon="8.0256417"><ele>386.0</ele><time>2026-04-03T10:48:04.954Z</time></trkpt><trkpt lat="44.0679833" lon="8.0257183"><ele>386.0</ele><time>2026-04-03T10:48:05.954Z</time></trkpt><trkpt lat="44.0680733" lon="8.02577"><ele>386.0</ele><time>2026-04-03T10:48:06.954Z</time></trkpt><trkpt lat="44.068175" lon="8.0258133"><ele>386.0</ele><time>2026-04-03T10:48:07.954Z</time></trkpt><trkpt lat="44.06829" lon="8.0258667"><ele>386.0</ele><time>2026-04-03T10:48:08.954Z</time></trkpt><trkpt lat="44.0684033" lon="8.02593"><ele>392.75</ele><time>2026-04-03T10:48:09.954Z</time></trkpt><trkpt lat="44.0685167" lon="8.0259983"><ele>399.5</ele><time>2026-04-03T10:48:10.954Z</time></trkpt><trkpt lat="44.06864" lon="8.026055"><ele>406.25</ele><time>2026-04-03T10:48:11.954Z</time></trkpt><trkpt lat="44.068765" lon="8.026105"><ele>413.0</ele><time>2026-04-03T10:48:12.954Z</time></trkpt><trkpt lat="44.0688867" lon="8.026155"><ele>413.0</ele><time>2026-04-03T10:48:13.953Z</time></trkpt><trkpt lat="44.0690133" lon="8.02621"><ele>413.0</ele><time>2026-04-03T10:48:14.954Z</time></trkpt><trkpt lat="44.0691317" lon="8.0262917"><ele>413.0</ele><time>2026-04-03T10:48:15.954Z</time></trkpt><trkpt lat="44.0692267" lon="8.026375"><ele>413.0</ele><time>2026-04-03T10:48:16.953Z</time></trkpt><trkpt lat="44.0693" lon="8.0264867"><ele>415.5</ele><time>2026-04-03T10:48:17.954Z</time></trkpt><trkpt lat="44.06934" lon="8.0266267"><ele>418.0</ele><time>2026-04-03T10:48:18.953Z</time></trkpt><trkpt lat="44.069355" lon="8.0267817"><ele>420.5</ele><time>2026-04-03T10:48:19.954Z</time></trkpt><trkpt lat="44.0693717" lon="8.0269483"><ele>423.0</ele><time>2026-04-03T10:48:20.953Z</time></trkpt><trkpt lat="44.0693933" lon="8.0271317"><ele>423.0</ele><time>2026-04-03T10:48:21.953Z</time></trkpt><trkpt lat="44.069415" lon="8.0272983"><ele>423.0</ele><time>2026-04-03T10:48:22.954Z</time></trkpt><trkpt lat="44.0694083" lon="8.02744"><ele>423.0</ele><time>2026-04-03T10:48:23.954Z</time></trkpt><trkpt lat="44.0693767" lon="8.0275733"><ele>423.0</ele><time>2026-04-03T10:48:24.954Z</time></trkpt><trkpt lat="44.0693217" lon="8.0277017"><ele>423.0</ele><time>2026-04-03T10:48:25.953Z</time></trkpt><trkpt lat="44.0692617" lon="8.02784"><ele>424.0</ele><time>2026-04-03T10:48:26.953Z</time></trkpt><trkpt lat="44.0692033" lon="8.027985"><ele>425.0</ele><time>2026-04-03T10:48:27.953Z</time></trkpt><trkpt lat="44.0691417" lon="8.0281233"><ele>426.0</ele><time>2026-04-03T10:48:28.954Z</time></trkpt><trkpt lat="44.069095" lon="8.0282683"><ele>427.0</ele><time>2026-04-03T10:48:29.954Z</time></trkpt><trkpt lat="44.069055" lon="8.0284317"><ele>422.6</ele><time>2026-04-03T10:48:30.953Z</time></trkpt><trkpt lat="44.0690433" lon="8.028585"><ele>418.20000000000005</ele><time>2026-04-03T10:48:31.954Z</time></trkpt><trkpt lat="44.0690317" lon="8.02873"><ele>413.8</ele><time>2026-04-03T10:48:32.954Z</time></trkpt><trkpt lat="44.0690317" lon="8.0288733"><ele>409.4</ele><time>2026-04-03T10:48:33.953Z</time></trkpt><trkpt lat="44.0690367" lon="8.0289883"><ele>405.0</ele><time>2026-04-03T10:48:34.954Z</time></trkpt><trkpt lat="44.0690383" lon="8.0290767"><ele>406.4</ele><time>2026-04-03T10:48:35.953Z</time></trkpt><trkpt lat="44.0690583" lon="8.0292"><ele>407.8</ele><time>2026-04-03T10:48:37.954Z</time></trkpt><trkpt lat="44.06908" lon="8.0293983"><ele>409.20000000000005</ele><time>2026-04-03T11:29:29.943Z</time></trkpt><trkpt lat="44.06913" lon="8.0294617"><ele>410.6</ele><time>2026-04-03T11:29:33.943Z</time></trkpt><trkpt lat="44.0691667" lon="8.0295467"><ele>412.0</ele><time>2026-04-03T11:29:35.943Z</time></trkpt><trkpt lat="44.0691833" lon="8.0297133"><ele>417.33333333333337</ele><time>2026-04-03T11:29:37.943Z</time></trkpt><trkpt lat="44.06919" lon="8.0298117"><ele>422.6666666666667</ele><time>2026-04-03T11:29:38.942Z</time></trkpt><trkpt lat="44.0692067" lon="8.0299133"><ele>428.0</ele><time>2026-04-03T11:29:39.942Z</time></trkpt><trkpt lat="44.06922" lon="8.0300067"><ele>433.33333333333337</ele><time>2026-04-03T11:29:40.942Z</time></trkpt><trkpt lat="44.06922" lon="8.0301583"><ele>438.6666666666667</ele><time>2026-04-03T11:29:42.942Z</time></trkpt><trkpt lat="44.0691983" lon="8.0302617"><ele>444.0</ele><time>2026-04-03T11:29:43.943Z</time></trkpt><trkpt lat="44.0691667" lon="8.0303733"><ele>444.2</ele><time>2026-04-03T11:29:44.942Z</time></trkpt><trkpt lat="44.0691167" lon="8.0304867"><ele>444.4</ele><time>2026-04-03T11:29:45.942Z</time></trkpt><trkpt lat="44.0690517" lon="8.0305867"><ele>444.6</ele><time>2026-04-03T11:29:46.943Z</time></trkpt><trkpt lat="44.0689767" lon="8.0306517"><ele>444.8</ele><time>2026-04-03T11:29:47.943Z</time></trkpt><trkpt lat="44.0688933" lon="8.0307017"><ele>445.0</ele><time>2026-04-03T11:29:48.943Z</time></trkpt><trkpt lat="44.068815" lon="8.0307367"><ele>444.6666666666667</ele><time>2026-04-03T11:29:49.943Z</time></trkpt><trkpt lat="44.06874" lon="8.0307667"><ele>444.33333333333337</ele><time>2026-04-03T11:29:50.943Z</time></trkpt><trkpt lat="44.0686667" lon="8.03081"><ele>444.0</ele><time>2026-04-03T11:29:51.943Z</time></trkpt><trkpt lat="44.0685967" lon="8.03085"><ele>443.66666666666663</ele><time>2026-04-03T11:29:52.942Z</time></trkpt><trkpt lat="44.0685317" lon="8.0308933"><ele>443.3333333333333</ele><time>2026-04-03T11:29:53.943Z</time></trkpt><trkpt lat="44.0684483" lon="8.03091"><ele>443.0</ele><time>2026-04-03T11:29:54.943Z</time></trkpt><trkpt lat="44.0683817" lon="8.03092"><ele>442.99999999999994</ele><time>2026-04-03T11:29:55.943Z</time></trkpt><trkpt lat="44.0683133" lon="8.0309083"><ele>443.0</ele><time>2026-04-03T11:29:56.943Z</time></trkpt><trkpt lat="44.068265" lon="8.0309733"><ele>443.0</ele><time>2026-04-03T11:29:58.943Z</time></trkpt><trkpt lat="44.0683067" lon="8.03106"><ele>443.0</ele><time>2026-04-03T11:30:00.943Z</time></trkpt><trkpt lat="44.0683783" lon="8.0311033"><ele>442.99999999999994</ele><time>2026-04-03T11:30:01.942Z</time></trkpt><trkpt lat="44.0684567" lon="8.03114"><ele>443.0</ele><time>2026-04-03T11:30:02.942Z</time></trkpt><trkpt lat="44.0685617" lon="8.0311833"><ele>442.99999999999994</ele><time>2026-04-03T11:30:04.943Z</time></trkpt><trkpt lat="44.0686783" lon="8.03117"><ele>443.0</ele><time>2026-04-03T11:30:06.943Z</time></trkpt><trkpt lat="44.0687467" lon="8.031135"><ele>443.0</ele><time>2026-04-03T11:30:07.943Z</time></trkpt><trkpt lat="44.0688217" lon="8.0311"><ele>443.0</ele><time>2026-04-03T11:30:08.943Z</time></trkpt><trkpt lat="44.0688967" lon="8.0310717"><ele>442.99999999999994</ele><time>2026-04-03T11:30:09.942Z</time></trkpt><trkpt lat="44.0689833" lon="8.0310233"><ele>443.0</ele><time>2026-04-03T11:30:10.943Z</time></trkpt><trkpt lat="44.0690533" lon="8.0309833"><ele>444.59999999999997</ele><time>2026-04-03T11:30:11.942Z</time></trkpt><trkpt lat="44.0691233" lon="8.03097"><ele>446.19999999999993</ele><time>2026-04-03T11:30:12.943Z</time></trkpt><trkpt lat="44.0691867" lon="8.0309617"><ele>447.8</ele><time>2026-04-03T11:30:13.943Z</time></trkpt><trkpt lat="44.0692683" lon="8.030955"><ele>449.4</ele><time>2026-04-03T11:30:15.943Z</time></trkpt><trkpt lat="44.0693783" lon="8.0309717"><ele>451.0</ele><time>2026-04-03T11:30:17.943Z</time></trkpt><trkpt lat="44.0694933" lon="8.0310483"><ele>451.00000000000006</ele><time>2026-04-03T11:30:19.942Z</time></trkpt><trkpt lat="44.06956" lon="8.0311083"><ele>451.0</ele><time>2026-04-03T11:30:20.942Z</time></trkpt><trkpt lat="44.0696233" lon="8.03117"><ele>451.0</ele><time>2026-04-03T11:30:21.943Z</time></trkpt><trkpt lat="44.0697167" lon="8.0312733"><ele>451.0</ele><time>2026-04-03T11:30:22.943Z</time></trkpt><trkpt lat="44.0697683" lon="8.0313433"><ele>451.00000000000006</ele><time>2026-04-03T11:30:23.943Z</time></trkpt><trkpt lat="44.0698433" lon="8.03141"><ele>451.0</ele><time>2026-04-03T11:30:25.943Z</time></trkpt><trkpt lat="44.0699467" lon="8.0313717"><ele>455.0</ele><time>2026-04-03T11:30:59.942Z</time></trkpt><trkpt lat="44.0700217" lon="8.0313567"><ele>459.0</ele><time>2026-04-03T11:31:00.943Z</time></trkpt><trkpt lat="44.0701183" lon="8.0313483"><ele>463.0</ele><time>2026-04-03T11:31:01.943Z</time></trkpt><trkpt lat="44.0702283" lon="8.031365"><ele>467.0</ele><time>2026-04-03T11:31:02.942Z</time></trkpt><trkpt lat="44.0703217" lon="8.031415"><ele>471.0</ele><time>2026-04-03T11:31:03.943Z</time></trkpt><trkpt lat="44.070405" lon="8.0314367"><ele>471.0</ele><time>2026-04-03T11:31:04.943Z</time></trkpt><trkpt lat="44.0704883" lon="8.0314217"><ele>471.0</ele><time>2026-04-03T11:31:05.943Z</time></trkpt><trkpt lat="44.070555" lon="8.0313517"><ele>471.0</ele><time>2026-04-03T11:31:06.943Z</time></trkpt><trkpt lat="44.0706367" lon="8.03124"><ele>471.0</ele><time>2026-04-03T11:31:07.943Z</time></trkpt><trkpt lat="44.0707383" lon="8.0311267"><ele>471.0</ele><time>2026-04-03T11:31:08.943Z</time></trkpt><trkpt lat="44.0708317" lon="8.03101"><ele>471.0</ele><time>2026-04-03T11:31:09.943Z</time></trkpt><trkpt lat="44.0708933" lon="8.03094"><ele>471.0</ele><time>2026-04-03T11:31:10.942Z</time></trkpt><trkpt lat="44.07095" lon="8.0308383"><ele>471.0</ele><time>2026-04-03T11:31:12.943Z</time></trkpt><trkpt lat="44.0707617" lon="8.0309567"><ele>471.0</ele><time>2026-04-03T11:31:16.943Z</time></trkpt><trkpt lat="44.07064" lon="8.031055"><ele>471.0</ele><time>2026-04-03T11:31:17.943Z</time></trkpt><trkpt lat="44.0705333" lon="8.0311067"><ele>471.0</ele><time>2026-04-03T11:31:18.943Z</time></trkpt><trkpt lat="44.0704483" lon="8.0311117"><ele>471.0</ele><time>2026-04-03T11:31:19.943Z</time></trkpt><trkpt lat="44.0703667" lon="8.0310967"><ele>471.0</ele><time>2026-04-03T11:31:20.943Z</time></trkpt><trkpt lat="44.07029" lon="8.03104"><ele>471.0</ele><time>2026-04-03T11:31:21.942Z</time></trkpt><trkpt lat="44.0702383" lon="8.03097"><ele>471.0</ele><time>2026-04-03T11:31:22.943Z</time></trkpt><trkpt lat="44.07021" lon="8.0308733"><ele>471.0</ele><time>2026-04-03T11:31:23.942Z</time></trkpt><trkpt lat="44.0702083" lon="8.03078"><ele>471.0</ele><time>2026-04-03T11:31:24.943Z</time></trkpt><trkpt lat="44.070225" lon="8.030685"><ele>471.0</ele><time>2026-04-03T11:31:25.943Z</time></trkpt><trkpt lat="44.0702767" lon="8.030595"><ele>471.0</ele><time>2026-04-03T11:31:26.943Z</time></trkpt><trkpt lat="44.0703317" lon="8.0305017"><ele>471.0</ele><time>2026-04-03T11:31:27.943Z</time></trkpt><trkpt lat="44.0703867" lon="8.030395"><ele>471.0</ele><time>2026-04-03T11:31:28.942Z</time></trkpt><trkpt lat="44.0704167" lon="8.0302717"><ele>471.0</ele><time>2026-04-03T11:31:29.943Z</time></trkpt><trkpt lat="44.070425" lon="8.03015"><ele>471.0</ele><time>2026-04-03T11:31:30.943Z</time></trkpt><trkpt lat="44.070415" lon="8.03006"><ele>471.0</ele><time>2026-04-03T11:31:31.942Z</time></trkpt><trkpt lat="44.0703933" lon="8.0299233"><ele>471.0</ele><time>2026-04-03T11:31:33.943Z</time></trkpt><trkpt lat="44.0703933" lon="8.0298333"><ele>471.0</ele><time>2026-04-03T11:31:35.942Z</time></trkpt><trkpt lat="44.0704283" lon="8.0297"><ele>471.0</ele><time>2026-04-03T11:31:54.943Z</time></trkpt><trkpt lat="44.07047" lon="8.029525"><ele>471.0</ele><time>2026-04-03T11:31:56.943Z</time></trkpt><trkpt lat="44.070495" lon="8.0294017"><ele>471.0</ele><time>2026-04-03T11:31:57.942Z</time></trkpt><trkpt lat="44.0705183" lon="8.0292567"><ele>471.0</ele><time>2026-04-03T11:31:58.942Z</time></trkpt><trkpt lat="44.0705367" lon="8.029105"><ele>471.0</ele><time>2026-04-03T11:31:59.942Z</time></trkpt><trkpt lat="44.070575" lon="8.02897"><ele>471.0</ele><time>2026-04-03T11:32:00.942Z</time></trkpt><trkpt lat="44.0706133" lon="8.0288467"><ele>470.0</ele><time>2026-04-03T11:32:01.942Z</time></trkpt><trkpt lat="44.0706767" lon="8.02874"><ele>469.0</ele><time>2026-04-03T11:32:02.943Z</time></trkpt><trkpt lat="44.0707517" lon="8.028655"><ele>468.0</ele><time>2026-04-03T11:32:03.943Z</time></trkpt><trkpt lat="44.0708267" lon="8.0285917"><ele>467.0</ele><time>2026-04-03T11:32:04.943Z</time></trkpt><trkpt lat="44.07091" lon="8.028565"><ele>466.0</ele><time>2026-04-03T11:32:05.942Z</time></trkpt><trkpt lat="44.0709883" lon="8.028525"><ele>470.4</ele><time>2026-04-03T11:32:06.943Z</time></trkpt><trkpt lat="44.07106" lon="8.0284817"><ele>474.8</ele><time>2026-04-03T11:32:07.943Z</time></trkpt><trkpt lat="44.071105" lon="8.0283867"><ele>479.19999999999993</ele><time>2026-04-03T11:32:08.942Z</time></trkpt><trkpt lat="44.07115" lon="8.028265"><ele>483.59999999999997</ele><time>2026-04-03T11:32:09.943Z</time></trkpt><trkpt lat="44.0711867" lon="8.028115"><ele>488.0</ele><time>2026-04-03T11:32:10.943Z</time></trkpt><trkpt lat="44.071235" lon="8.0279733"><ele>488.0</ele><time>2026-04-03T11:32:11.943Z</time></trkpt><trkpt lat="44.07129" lon="8.0278433"><ele>488.0</ele><time>2026-04-03T11:32:12.943Z</time></trkpt><trkpt lat="44.0713567" lon="8.0276967"><ele>488.0</ele><time>2026-04-03T11:32:13.943Z</time></trkpt><trkpt lat="44.07142" lon="8.02756"><ele>488.0</ele><time>2026-04-03T11:32:14.942Z</time></trkpt><trkpt lat="44.0714833" lon="8.0274333"><ele>486.66666666666663</ele><time>2026-04-03T11:32:15.943Z</time></trkpt><trkpt lat="44.0715467" lon="8.0273583"><ele>485.3333333333333</ele><time>2026-04-03T11:32:16.943Z</time></trkpt><trkpt lat="44.0716083" lon="8.0273133"><ele>484.0</ele><time>2026-04-03T11:32:17.943Z</time></trkpt><trkpt lat="44.07168" lon="8.0272683"><ele>482.66666666666663</ele><time>2026-04-03T11:32:18.942Z</time></trkpt><trkpt lat="44.0717683" lon="8.0272317"><ele>481.3333333333333</ele><time>2026-04-03T11:32:19.942Z</time></trkpt><trkpt lat="44.0718583" lon="8.0271817"><ele>480.0</ele><time>2026-04-03T11:32:20.943Z</time></trkpt><trkpt lat="44.0719467" lon="8.0271317"><ele>486.6</ele><time>2026-04-03T11:32:21.943Z</time></trkpt><trkpt lat="44.0720117" lon="8.0270717"><ele>493.2</ele><time>2026-04-03T11:32:22.942Z</time></trkpt><trkpt lat="44.07207" lon="8.0269717"><ele>499.79999999999995</ele><time>2026-04-03T11:32:24.943Z</time></trkpt><trkpt lat="44.07202" lon="8.0268233"><ele>506.4</ele><time>2026-04-03T11:32:26.943Z</time></trkpt><trkpt lat="44.0719717" lon="8.026725"><ele>513.0</ele><time>2026-04-03T11:32:27.942Z</time></trkpt><trkpt lat="44.0719383" lon="8.0266067"><ele>515.25</ele><time>2026-04-03T11:32:28.943Z</time></trkpt><trkpt lat="44.07191" lon="8.0264767"><ele>517.5</ele><time>2026-04-03T11:32:29.943Z</time></trkpt><trkpt lat="44.071895" lon="8.0263317"><ele>519.75</ele><time>2026-04-03T11:32:30.942Z</time></trkpt><trkpt lat="44.071885" lon="8.0261667"><ele>522.0</ele><time>2026-04-03T11:32:31.942Z</time></trkpt><trkpt lat="44.0718717" lon="8.0259817"><ele>522.8000000000001</ele><time>2026-04-03T11:32:32.942Z</time></trkpt><trkpt lat="44.07185" lon="8.0258033"><ele>523.6</ele><time>2026-04-03T11:32:33.942Z</time></trkpt><trkpt lat="44.0718167" lon="8.0256283"><ele>524.4000000000001</ele><time>2026-04-03T11:32:34.943Z</time></trkpt><trkpt lat="44.071805" lon="8.02548"><ele>525.2</ele><time>2026-04-03T11:32:35.943Z</time></trkpt><trkpt lat="44.071805" lon="8.0253733"><ele>526.0</ele><time>2026-04-03T11:32:36.942Z</time></trkpt><trkpt lat="44.0718183" lon="8.0252817"><ele>526.0</ele><time>2026-04-03T11:32:37.942Z</time></trkpt><trkpt lat="44.0718483" lon="8.02519"><ele>526.0</ele><time>2026-04-03T11:32:38.943Z</time></trkpt><trkpt lat="44.0719083" lon="8.02511"><ele>526.0</ele><time>2026-04-03T11:32:39.943Z</time></trkpt><trkpt lat="44.0719767" lon="8.0250217"><ele>526.0</ele><time>2026-04-03T11:32:40.942Z</time></trkpt><trkpt lat="44.072065" lon="8.0249183"><ele>526.0</ele><time>2026-04-03T11:32:41.943Z</time></trkpt><trkpt lat="44.072135" lon="8.024825"><ele>524.8</ele><time>2026-04-03T11:32:42.943Z</time></trkpt><trkpt lat="44.072205" lon="8.0247417"><ele>523.6</ele><time>2026-04-03T11:32:43.943Z</time></trkpt><trkpt lat="44.0723" lon="8.0246733"><ele>522.4</ele><time>2026-04-03T11:32:44.943Z</time></trkpt><trkpt lat="44.0723983" lon="8.0245867"><ele>521.2</ele><time>2026-04-03T11:32:45.943Z</time></trkpt><trkpt lat="44.0724917" lon="8.0245033"><ele>520.0</ele><time>2026-04-03T11:32:46.943Z</time></trkpt><trkpt lat="44.0725767" lon="8.0244217"><ele>523.5</ele><time>2026-04-03T11:32:47.942Z</time></trkpt><trkpt lat="44.0726533" lon="8.0243283"><ele>527.0</ele><time>2026-04-03T11:32:48.943Z</time></trkpt><trkpt lat="44.07273" lon="8.0242433"><ele>530.5</ele><time>2026-04-03T11:32:49.942Z</time></trkpt><trkpt lat="44.0727933" lon="8.0241917"><ele>534.0</ele><time>2026-04-03T11:32:50.943Z</time></trkpt><trkpt lat="44.072865" lon="8.0242317"><ele>537.5</ele><time>2026-04-03T11:32:51.942Z</time></trkpt><trkpt lat="44.0729433" lon="8.0243"><ele>541.0</ele><time>2026-04-03T11:32:52.942Z</time></trkpt><trkpt lat="44.0730583" lon="8.0244017"><ele>541.0</ele><time>2026-04-03T11:32:53.942Z</time></trkpt><trkpt lat="44.0731717" lon="8.024505"><ele>541.0</ele><time>2026-04-03T11:32:54.941Z</time></trkpt><trkpt lat="44.073295" lon="8.0246117"><ele>541.0</ele><time>2026-04-03T11:32:55.942Z</time></trkpt><trkpt lat="44.0734117" lon="8.024715"><ele>541.0</ele><time>2026-04-03T11:32:56.941Z</time></trkpt><trkpt lat="44.0735233" lon="8.024805"><ele>541.0</ele><time>2026-04-03T11:32:57.942Z</time></trkpt><trkpt lat="44.073635" lon="8.0248767"><ele>541.0</ele><time>2026-04-03T11:32:58.941Z</time></trkpt><trkpt lat="44.07374" lon="8.0249067"><ele>541.0</ele><time>2026-04-03T11:32:59.942Z</time></trkpt><trkpt lat="44.0738383" lon="8.024895"><ele>541.0</ele><time>2026-04-03T11:33:00.941Z</time></trkpt><trkpt lat="44.0739483" lon="8.02488"><ele>541.0</ele><time>2026-04-03T11:33:01.942Z</time></trkpt><trkpt lat="44.0740633" lon="8.0248867"><ele>540.2</ele><time>2026-04-03T11:33:02.941Z</time></trkpt><trkpt lat="44.07418" lon="8.024915"><ele>539.4000000000001</ele><time>2026-04-03T11:33:03.941Z</time></trkpt><trkpt lat="44.07428" lon="8.0249333"><ele>538.6</ele><time>2026-04-03T11:33:04.941Z</time></trkpt><trkpt lat="44.0743833" lon="8.0249317"><ele>537.8000000000001</ele><time>2026-04-03T11:33:05.942Z</time></trkpt><trkpt lat="44.0744933" lon="8.0249183"><ele>537.0</ele><time>2026-04-03T11:33:06.942Z</time></trkpt><trkpt lat="44.074615" lon="8.0248917"><ele>537.0</ele><time>2026-04-03T11:33:07.942Z</time></trkpt><trkpt lat="44.0747417" lon="8.024855"><ele>537.0</ele><time>2026-04-03T11:33:08.941Z</time></trkpt><trkpt lat="44.0748583" lon="8.024835"><ele>537.0</ele><time>2026-04-03T11:33:09.941Z</time></trkpt><trkpt lat="44.0749733" lon="8.0248367"><ele>537.0</ele><time>2026-04-03T11:33:10.942Z</time></trkpt><trkpt lat="44.0750767" lon="8.0248667"><ele>536.4</ele><time>2026-04-03T11:33:11.942Z</time></trkpt><trkpt lat="44.0751817" lon="8.02489"><ele>535.8000000000001</ele><time>2026-04-03T11:33:12.942Z</time></trkpt><trkpt lat="44.0752717" lon="8.0249333"><ele>535.2</ele><time>2026-04-03T11:33:13.942Z</time></trkpt><trkpt lat="44.0753283" lon="8.025005"><ele>534.6</ele><time>2026-04-03T11:33:14.941Z</time></trkpt><trkpt lat="44.0754183" lon="8.0250917"><ele>534.0</ele><time>2026-04-03T11:33:15.942Z</time></trkpt><trkpt lat="44.075485" lon="8.0251767"><ele>539.1666666666666</ele><time>2026-04-03T11:33:16.941Z</time></trkpt><trkpt lat="44.0755483" lon="8.0252517"><ele>544.3333333333334</ele><time>2026-04-03T11:33:17.942Z</time></trkpt><trkpt lat="44.07561" lon="8.0252767"><ele>549.5</ele><time>2026-04-03T11:33:18.942Z</time></trkpt><trkpt lat="44.0756733" lon="8.0252233"><ele>554.6666666666667</ele><time>2026-04-03T11:33:19.942Z</time></trkpt><trkpt lat="44.0757567" lon="8.02516"><ele>559.8333333333334</ele><time>2026-04-03T11:33:20.942Z</time></trkpt><trkpt lat="44.0758467" lon="8.0251033"><ele>565.0</ele><time>2026-04-03T11:33:21.942Z</time></trkpt><trkpt lat="44.07595" lon="8.0250883"><ele>565.5</ele><time>2026-04-03T11:33:22.942Z</time></trkpt><trkpt lat="44.07607" lon="8.0251033"><ele>566.0</ele><time>2026-04-03T11:33:23.941Z</time></trkpt><trkpt lat="44.0761917" lon="8.0251017"><ele>566.5</ele><time>2026-04-03T11:33:24.942Z</time></trkpt><trkpt lat="44.0763233" lon="8.025105"><ele>567.0</ele><time>2026-04-03T11:33:25.942Z</time></trkpt><trkpt lat="44.0764367" lon="8.0250983"><ele>567.0</ele><time>2026-04-03T11:33:26.941Z</time></trkpt><trkpt lat="44.0765183" lon="8.025115"><ele>567.0</ele><time>2026-04-03T11:33:27.941Z</time></trkpt><trkpt lat="44.0766017" lon="8.0251567"><ele>567.0</ele><time>2026-04-03T11:33:28.942Z</time></trkpt><trkpt lat="44.0766433" lon="8.025245"><ele>567.0</ele><time>2026-04-03T11:33:29.941Z</time></trkpt><trkpt lat="44.0766783" lon="8.0253367"><ele>567.0</ele><time>2026-04-03T11:33:30.942Z</time></trkpt><trkpt lat="44.0767267" lon="8.02544"><ele>567.0</ele><time>2026-04-03T11:33:31.942Z</time></trkpt><trkpt lat="44.076775" lon="8.025535"><ele>567.6</ele><time>2026-04-03T11:33:32.942Z</time></trkpt><trkpt lat="44.0768367" lon="8.0256417"><ele>568.2</ele><time>2026-04-03T11:33:33.941Z</time></trkpt><trkpt lat="44.0769067" lon="8.0257383"><ele>568.8</ele><time>2026-04-03T11:33:34.942Z</time></trkpt><trkpt lat="44.0769717" lon="8.02584"><ele>569.4</ele><time>2026-04-03T11:33:35.942Z</time></trkpt><trkpt lat="44.07704" lon="8.0259517"><ele>570.0</ele><time>2026-04-03T11:33:36.942Z</time></trkpt><trkpt lat="44.0770967" lon="8.0260433"><ele>570.0</ele><time>2026-04-03T11:33:37.942Z</time></trkpt><trkpt lat="44.0771433" lon="8.0261183"><ele>570.0</ele><time>2026-04-03T11:33:38.941Z</time></trkpt><trkpt lat="44.0772383" lon="8.0261933"><ele>570.0</ele><time>2026-04-03T11:33:40.941Z</time></trkpt><trkpt lat="44.0772867" lon="8.0261233"><ele>570.0</ele><time>2026-04-03T11:33:41.942Z</time></trkpt><trkpt lat="44.0773317" lon="8.026015"><ele>570.0</ele><time>2026-04-03T11:33:42.942Z</time></trkpt><trkpt lat="44.077375" lon="8.0259083"><ele>570.0</ele><time>2026-04-03T11:33:43.941Z</time></trkpt><trkpt lat="44.077385" lon="8.0257617"><ele>570.0</ele><time>2026-04-03T11:33:44.942Z</time></trkpt><trkpt lat="44.077375" lon="8.025625"><ele>570.0</ele><time>2026-04-03T11:33:45.941Z</time></trkpt><trkpt lat="44.0773633" lon="8.0255283"><ele>570.0</ele><time>2026-04-03T11:33:46.942Z</time></trkpt><trkpt lat="44.0773583" lon="8.0253617"><ele>570.0</ele><time>2026-04-03T11:33:48.941Z</time></trkpt><trkpt lat="44.0774583" lon="8.0252233"><ele>570.0</ele><time>2026-04-03T11:33:50.942Z</time></trkpt><trkpt lat="44.07755" lon="8.0251583"><ele>571.6</ele><time>2026-04-03T11:33:51.942Z</time></trkpt><trkpt lat="44.07766" lon="8.0250783"><ele>573.2</ele><time>2026-04-03T11:33:52.942Z</time></trkpt><trkpt lat="44.0777583" lon="8.0250067"><ele>574.8</ele><time>2026-04-03T11:33:53.942Z</time></trkpt><trkpt lat="44.0778533" lon="8.0249733"><ele>576.4</ele><time>2026-04-03T11:33:54.942Z</time></trkpt><trkpt lat="44.077965" lon="8.02497"><ele>578.0</ele><time>2026-04-03T11:33:55.942Z</time></trkpt><trkpt lat="44.0780617" lon="8.024975"><ele>578.0</ele><time>2026-04-03T11:33:56.942Z</time></trkpt><trkpt lat="44.0781417" lon="8.0249867"><ele>578.0</ele><time>2026-04-03T11:33:57.942Z</time></trkpt><trkpt lat="44.0782283" lon="8.0250183"><ele>578.0</ele><time>2026-04-03T11:33:58.941Z</time></trkpt><trkpt lat="44.0783183" lon="8.0250267"><ele>578.0</ele><time>2026-04-03T11:33:59.942Z</time></trkpt><trkpt lat="44.07843" lon="8.0250233"><ele>578.0</ele><time>2026-04-03T11:34:00.942Z</time></trkpt><trkpt lat="44.07855" lon="8.0250417"><ele>580.6</ele><time>2026-04-03T11:34:01.941Z</time></trkpt><trkpt lat="44.078675" lon="8.025055"><ele>583.1999999999999</ele><time>2026-04-03T11:34:02.942Z</time></trkpt><trkpt lat="44.0787867" lon="8.0250733"><ele>585.8</ele><time>2026-04-03T11:34:03.942Z</time></trkpt><trkpt lat="44.0788917" lon="8.025115"><ele>588.4</ele><time>2026-04-03T11:34:04.942Z</time></trkpt><trkpt lat="44.0789783" lon="8.0251733"><ele>591.0</ele><time>2026-04-03T11:34:05.941Z</time></trkpt><trkpt lat="44.0790467" lon="8.0252567"><ele>590.4</ele><time>2026-04-03T11:34:06.942Z</time></trkpt><trkpt lat="44.0791117" lon="8.0253567"><ele>589.8</ele><time>2026-04-03T11:34:07.941Z</time></trkpt><trkpt lat="44.0791783" lon="8.0254483"><ele>589.1999999999999</ele><time>2026-04-03T11:34:08.942Z</time></trkpt><trkpt lat="44.0792333" lon="8.0255183"><ele>588.6</ele><time>2026-04-03T11:34:09.942Z</time></trkpt><trkpt lat="44.0793433" lon="8.0255367"><ele>588.0</ele><time>2026-04-03T11:34:11.942Z</time></trkpt><trkpt lat="44.0794267" lon="8.0254733"><ele>588.0</ele><time>2026-04-03T11:34:12.941Z</time></trkpt><trkpt lat="44.0795117" lon="8.0254117"><ele>588.0</ele><time>2026-04-03T11:34:13.942Z</time></trkpt><trkpt lat="44.07959" lon="8.025345"><ele>588.0</ele><time>2026-04-03T11:34:14.942Z</time></trkpt><trkpt lat="44.0796533" lon="8.0253083"><ele>588.0</ele><time>2026-04-03T11:34:15.942Z</time></trkpt><trkpt lat="44.079745" lon="8.0253017"><ele>588.0</ele><time>2026-04-03T11:34:16.941Z</time></trkpt><trkpt lat="44.0798433" lon="8.02531"><ele>588.0</ele><time>2026-04-03T11:34:17.942Z</time></trkpt><trkpt lat="44.0799667" lon="8.025325"><ele>589.0</ele><time>2026-04-03T11:34:18.941Z</time></trkpt><trkpt lat="44.0800867" lon="8.02534"><ele>590.0</ele><time>2026-04-03T11:34:19.942Z</time></trkpt><trkpt lat="44.0802083" lon="8.025345"><ele>591.0</ele><time>2026-04-03T11:34:20.942Z</time></trkpt><trkpt lat="44.0803267" lon="8.0253317"><ele>592.0</ele><time>2026-04-03T11:34:21.942Z</time></trkpt><trkpt lat="44.080445" lon="8.025295"><ele>592.0</ele><time>2026-04-03T11:34:22.941Z</time></trkpt><trkpt lat="44.080495" lon="8.025225"><ele>592.0</ele><time>2026-04-03T11:34:23.942Z</time></trkpt><trkpt lat="44.0805617" lon="8.025135"><ele>592.0</ele><time>2026-04-03T11:34:24.941Z</time></trkpt><trkpt lat="44.0806367" lon="8.025035"><ele>592.0</ele><time>2026-04-03T11:34:25.942Z</time></trkpt><trkpt lat="44.0806933" lon="8.024945"><ele>592.0</ele><time>2026-04-03T11:34:26.942Z</time></trkpt><trkpt lat="44.0807483" lon="8.0248433"><ele>592.0</ele><time>2026-04-03T11:34:27.942Z</time></trkpt><trkpt lat="44.0808217" lon="8.0247683"><ele>591.0</ele><time>2026-04-03T11:34:28.942Z</time></trkpt><trkpt lat="44.080905" lon="8.0247067"><ele>590.0</ele><time>2026-04-03T11:34:29.941Z</time></trkpt><trkpt lat="44.0809867" lon="8.024655"><ele>589.0</ele><time>2026-04-03T11:34:30.942Z</time></trkpt><trkpt lat="44.0810667" lon="8.02461"><ele>588.0</ele><time>2026-04-03T11:34:31.942Z</time></trkpt><trkpt lat="44.0811433" lon="8.0245983"><ele>587.0</ele><time>2026-04-03T11:34:32.942Z</time></trkpt><trkpt lat="44.0812117" lon="8.0246167"><ele>586.0</ele><time>2026-04-03T11:34:33.941Z</time></trkpt><trkpt lat="44.081315" lon="8.024715"><ele>586.0</ele><time>2026-04-03T11:34:35.942Z</time></trkpt><trkpt lat="44.0813833" lon="8.02481"><ele>586.0</ele><time>2026-04-03T11:34:36.942Z</time></trkpt><trkpt lat="44.0814833" lon="8.0249117"><ele>586.0</ele><time>2026-04-03T11:34:37.941Z</time></trkpt><trkpt lat="44.08158" lon="8.0250083"><ele>586.0</ele><time>2026-04-03T11:34:38.942Z</time></trkpt><trkpt lat="44.0816733" lon="8.0250933"><ele>594.5</ele><time>2026-04-03T11:34:39.942Z</time></trkpt><trkpt lat="44.0817717" lon="8.0251717"><ele>603.0</ele><time>2026-04-03T11:34:40.941Z</time></trkpt><trkpt lat="44.081865" lon="8.025255"><ele>611.5</ele><time>2026-04-03T11:34:41.942Z</time></trkpt><trkpt lat="44.0819683" lon="8.025355"><ele>620.0</ele><time>2026-04-03T11:34:42.942Z</time></trkpt><trkpt lat="44.0820733" lon="8.02547"><ele>620.0</ele><time>2026-04-03T11:34:43.942Z</time></trkpt><trkpt lat="44.0821667" lon="8.02557"><ele>620.0</ele><time>2026-04-03T11:34:44.942Z</time></trkpt><trkpt lat="44.08225" lon="8.0256667"><ele>620.0</ele><time>2026-04-03T11:34:45.941Z</time></trkpt><trkpt lat="44.0823333" lon="8.025785"><ele>620.0</ele><time>2026-04-03T11:34:46.942Z</time></trkpt><trkpt lat="44.0824" lon="8.0259033"><ele>623.0</ele><time>2026-04-03T11:34:47.941Z</time></trkpt><trkpt lat="44.0824633" lon="8.0260417"><ele>626.0</ele><time>2026-04-03T11:34:48.941Z</time></trkpt><trkpt lat="44.0825417" lon="8.0261633"><ele>629.0</ele><time>2026-04-03T11:34:49.942Z</time></trkpt><trkpt lat="44.0826083" lon="8.026295"><ele>632.0</ele><time>2026-04-03T11:34:50.942Z</time></trkpt><trkpt lat="44.08267" lon="8.0264317"><ele>632.0</ele><time>2026-04-03T11:34:51.941Z</time></trkpt><trkpt lat="44.0827417" lon="8.0265567"><ele>632.0</ele><time>2026-04-03T11:34:52.942Z</time></trkpt><trkpt lat="44.0828033" lon="8.026645"><ele>632.0</ele><time>2026-04-03T11:34:53.942Z</time></trkpt><trkpt lat="44.0828783" lon="8.0267233"><ele>632.0</ele><time>2026-04-03T11:34:54.941Z</time></trkpt><trkpt lat="44.0829667" lon="8.0267733"><ele>632.0</ele><time>2026-04-03T11:34:55.941Z</time></trkpt><trkpt lat="44.0830567" lon="8.0267867"><ele>630.4</ele><time>2026-04-03T11:34:56.941Z</time></trkpt><trkpt lat="44.0831633" lon="8.0267933"><ele>628.8000000000001</ele><time>2026-04-03T11:34:57.942Z</time></trkpt><trkpt lat="44.08325" lon="8.0267183"><ele>627.2</ele><time>2026-04-03T11:34:58.942Z</time></trkpt><trkpt lat="44.0833117" lon="8.0266333"><ele>625.6</ele><time>2026-04-03T11:34:59.942Z</time></trkpt><trkpt lat="44.0833667" lon="8.0265283"><ele>624.0</ele><time>2026-04-03T11:35:00.941Z</time></trkpt><trkpt lat="44.083425" lon="8.0264383"><ele>624.0</ele><time>2026-04-03T11:35:01.942Z</time></trkpt><trkpt lat="44.0834883" lon="8.02635"><ele>624.0</ele><time>2026-04-03T11:35:02.941Z</time></trkpt><trkpt lat="44.083575" lon="8.02627"><ele>624.0</ele><time>2026-04-03T11:35:03.942Z</time></trkpt><trkpt lat="44.0836767" lon="8.0262133"><ele>624.0</ele><time>2026-04-03T11:35:04.942Z</time></trkpt><trkpt lat="44.0837967" lon="8.0261817"><ele>624.0</ele><time>2026-04-03T11:35:05.941Z</time></trkpt><trkpt lat="44.0839183" lon="8.0261767"><ele>624.0</ele><time>2026-04-03T11:35:06.942Z</time></trkpt><trkpt lat="44.0840533" lon="8.0262083"><ele>624.0</ele><time>2026-04-03T11:35:07.941Z</time></trkpt><trkpt lat="44.0841867" lon="8.0262417"><ele>624.0</ele><time>2026-04-03T11:35:08.942Z</time></trkpt><trkpt lat="44.08431" lon="8.02627"><ele>624.0</ele><time>2026-04-03T11:35:09.941Z</time></trkpt><trkpt lat="44.08442" lon="8.0262917"><ele>625.5</ele><time>2026-04-03T11:35:10.941Z</time></trkpt><trkpt lat="44.084525" lon="8.0262783"><ele>627.0</ele><time>2026-04-03T11:35:11.941Z</time></trkpt><trkpt lat="44.0846383" lon="8.0262633"><ele>628.5</ele><time>2026-04-03T11:35:12.942Z</time></trkpt><trkpt lat="44.08475" lon="8.0262417"><ele>630.0</ele><time>2026-04-03T11:35:13.942Z</time></trkpt><trkpt lat="44.0848717" lon="8.0262233"><ele>632.3333333333334</ele><time>2026-04-03T11:35:14.942Z</time></trkpt><trkpt lat="44.08496" lon="8.02625"><ele>634.6666666666666</ele><time>2026-04-03T11:35:15.941Z</time></trkpt><trkpt lat="44.08505" lon="8.026275"><ele>637.0</ele><time>2026-04-03T11:35:16.942Z</time></trkpt><trkpt lat="44.085135" lon="8.0262883"><ele>639.3333333333333</ele><time>2026-04-03T11:35:17.942Z</time></trkpt><trkpt lat="44.0852167" lon="8.0262833"><ele>641.6666666666666</ele><time>2026-04-03T11:35:18.942Z</time></trkpt><trkpt lat="44.0852983" lon="8.0262383"><ele>644.0</ele><time>2026-04-03T11:35:19.942Z</time></trkpt><trkpt lat="44.0854083" lon="8.0261567"><ele>644.0</ele><time>2026-04-03T11:35:20.942Z</time></trkpt><trkpt lat="44.085525" lon="8.02608"><ele>644.0</ele><time>2026-04-03T11:35:21.941Z</time></trkpt><trkpt lat="44.0856317" lon="8.02599"><ele>644.0</ele><time>2026-04-03T11:35:22.942Z</time></trkpt><trkpt lat="44.08573" lon="8.0258933"><ele>644.0</ele><time>2026-04-03T11:35:23.941Z</time></trkpt><trkpt lat="44.0858067" lon="8.0258133"><ele>645.0</ele><time>2026-04-03T11:35:24.942Z</time></trkpt><trkpt lat="44.0858767" lon="8.025775"><ele>646.0</ele><time>2026-04-03T11:35:25.942Z</time></trkpt><trkpt lat="44.0859683" lon="8.0257417"><ele>647.0</ele><time>2026-04-03T11:35:27.942Z</time></trkpt><trkpt lat="44.086035" lon="8.0257883"><ele>648.0</ele><time>2026-04-03T11:36:19.941Z</time></trkpt><trkpt lat="44.086135" lon="8.0258783"><ele>649.0</ele><time>2026-04-03T11:37:20.941Z</time></trkpt><trkpt lat="44.0861583" lon="8.02597"><ele>650.0</ele><time>2026-04-03T11:38:26.941Z</time></trkpt><trkpt lat="44.08618" lon="8.025865"><ele>650.0</ele><time>2026-04-03T11:38:31.94Z</time></trkpt><trkpt lat="44.0862317" lon="8.0257667"><ele>650.0</ele><time>2026-04-03T11:38:35.941Z</time></trkpt><trkpt lat="44.0862233" lon="8.0256317"><ele>650.0</ele><time>2026-04-03T11:38:38.941Z</time></trkpt><trkpt lat="44.086175" lon="8.02555"><ele>650.0</ele><time>2026-04-03T11:38:41.941Z</time></trkpt><trkpt lat="44.0860933" lon="8.0255"><ele>650.0</ele><time>2026-04-03T11:38:44.941Z</time></trkpt><trkpt lat="44.086065" lon="8.0256"><ele>650.0</ele><time>2026-04-03T11:39:25.94Z</time></trkpt><trkpt lat="44.0860383" lon="8.025695"><ele>650.0</ele><time>2026-04-03T11:39:28.941Z</time></trkpt><trkpt lat="44.085985" lon="8.0257467"><ele>650.0</ele><time>2026-04-03T11:39:38.94Z</time></trkpt><trkpt lat="44.0859433" lon="8.0258633"><ele>650.0</ele><time>2026-04-03T11:39:41.941Z</time></trkpt><trkpt lat="44.0858717" lon="8.025995"><ele>650.0</ele><time>2026-04-03T11:39:49.941Z</time></trkpt><trkpt lat="44.0858083" lon="8.02611"><ele>650.0</ele><time>2026-04-03T11:39:51.941Z</time></trkpt><trkpt lat="44.0857633" lon="8.0261883"><ele>649.0</ele><time>2026-04-03T11:39:52.941Z</time></trkpt><trkpt lat="44.08572" lon="8.0262667"><ele>648.0</ele><time>2026-04-03T11:39:53.94Z</time></trkpt><trkpt lat="44.08567" lon="8.0263533"><ele>647.0</ele><time>2026-04-03T11:39:54.94Z</time></trkpt><trkpt lat="44.0856117" lon="8.02644"><ele>646.0</ele><time>2026-04-03T11:39:55.941Z</time></trkpt><trkpt lat="44.0855533" lon="8.0265417"><ele>645.0</ele><time>2026-04-03T11:39:56.941Z</time></trkpt><trkpt lat="44.0854867" lon="8.0266633"><ele>644.0</ele><time>2026-04-03T11:39:57.94Z</time></trkpt><trkpt lat="44.0854217" lon="8.0267767"><ele>646.8000000000001</ele><time>2026-04-03T11:39:58.94Z</time></trkpt><trkpt lat="44.0853483" lon="8.0268917"><ele>649.6</ele><time>2026-04-03T11:39:59.941Z</time></trkpt><trkpt lat="44.0852717" lon="8.0269983"><ele>652.4</ele><time>2026-04-03T11:40:00.94Z</time></trkpt><trkpt lat="44.0851883" lon="8.0271017"><ele>655.2</ele><time>2026-04-03T11:40:01.94Z</time></trkpt><trkpt lat="44.08512" lon="8.0272083"><ele>658.0</ele><time>2026-04-03T11:40:02.94Z</time></trkpt><trkpt lat="44.0850617" lon="8.0273167"><ele>658.0</ele><time>2026-04-03T11:40:03.941Z</time></trkpt><trkpt lat="44.0850067" lon="8.02741"><ele>658.0</ele><time>2026-04-03T11:40:04.941Z</time></trkpt><trkpt lat="44.08496" lon="8.0274833"><ele>658.0</ele><time>2026-04-03T11:40:05.941Z</time></trkpt><trkpt lat="44.0849083" lon="8.0275383"><ele>658.0</ele><time>2026-04-03T11:40:06.941Z</time></trkpt><trkpt lat="44.08484" lon="8.0275917"><ele>658.0</ele><time>2026-04-03T11:40:07.941Z</time></trkpt><trkpt lat="44.0847567" lon="8.02763"><ele>658.0</ele><time>2026-04-03T11:40:08.941Z</time></trkpt><trkpt lat="44.0846617" lon="8.0276767"><ele>661.8</ele><time>2026-04-03T11:40:09.941Z</time></trkpt><trkpt lat="44.0845633" lon="8.0277167"><ele>665.5999999999999</ele><time>2026-04-03T11:40:10.941Z</time></trkpt><trkpt lat="44.0844683" lon="8.0277467"><ele>669.4000000000001</ele><time>2026-04-03T11:40:11.941Z</time></trkpt><trkpt lat="44.0843717" lon="8.02778"><ele>673.2</ele><time>2026-04-03T11:40:12.94Z</time></trkpt><trkpt lat="44.0842683" lon="8.0278117"><ele>677.0</ele><time>2026-04-03T11:40:13.94Z</time></trkpt><trkpt lat="44.0841733" lon="8.0278267"><ele>675.6666666666666</ele><time>2026-04-03T11:40:14.941Z</time></trkpt><trkpt lat="44.08409" lon="8.02784"><ele>674.3333333333333</ele><time>2026-04-03T11:40:15.941Z</time></trkpt><trkpt lat="44.0840133" lon="8.0278467"><ele>673.0</ele><time>2026-04-03T11:40:16.941Z</time></trkpt><trkpt lat="44.0839383" lon="8.027865"><ele>671.6666666666666</ele><time>2026-04-03T11:40:17.94Z</time></trkpt><trkpt lat="44.0838533" lon="8.0278833"><ele>670.3333333333334</ele><time>2026-04-03T11:40:18.941Z</time></trkpt><trkpt lat="44.0837617" lon="8.027915"><ele>669.0</ele><time>2026-04-03T11:40:19.94Z</time></trkpt><trkpt lat="44.0836617" lon="8.0279517"><ele>669.0</ele><time>2026-04-03T11:40:20.94Z</time></trkpt><trkpt lat="44.0835683" lon="8.0279783"><ele>669.0</ele><time>2026-04-03T11:40:21.941Z</time></trkpt><trkpt lat="44.0834767" lon="8.02801"><ele>669.0</ele><time>2026-04-03T11:40:22.941Z</time></trkpt><trkpt lat="44.0833917" lon="8.0280583"><ele>669.0</ele><time>2026-04-03T11:40:23.941Z</time></trkpt><trkpt lat="44.0833317" lon="8.0281267"><ele>669.0</ele><time>2026-04-03T11:40:24.94Z</time></trkpt><trkpt lat="44.083275" lon="8.0282017"><ele>669.0</ele><time>2026-04-03T11:40:25.94Z</time></trkpt><trkpt lat="44.08326" lon="8.028305"><ele>671.2</ele><time>2026-04-03T11:40:26.941Z</time></trkpt><trkpt lat="44.0832533" lon="8.0284267"><ele>673.4000000000001</ele><time>2026-04-03T11:40:27.94Z</time></trkpt><trkpt lat="44.0832583" lon="8.0285567"><ele>675.6</ele><time>2026-04-03T11:40:28.94Z</time></trkpt><trkpt lat="44.0832517" lon="8.0286883"><ele>677.8</ele><time>2026-04-03T11:40:29.94Z</time></trkpt><trkpt lat="44.0832417" lon="8.0288133"><ele>680.0</ele><time>2026-04-03T11:40:30.94Z</time></trkpt><trkpt lat="44.0832233" lon="8.02894"><ele>680.0</ele><time>2026-04-03T11:40:31.94Z</time></trkpt><trkpt lat="44.0831967" lon="8.0290517"><ele>680.0</ele><time>2026-04-03T11:40:32.941Z</time></trkpt><trkpt lat="44.0831733" lon="8.0291417"><ele>680.0</ele><time>2026-04-03T11:40:33.941Z</time></trkpt><trkpt lat="44.08313" lon="8.0292317"><ele>680.0</ele><time>2026-04-03T11:40:34.94Z</time></trkpt><trkpt lat="44.08309" lon="8.029325"><ele>680.0</ele><time>2026-04-03T11:40:35.941Z</time></trkpt><trkpt lat="44.0830317" lon="8.0294283"><ele>680.0</ele><time>2026-04-03T11:40:36.941Z</time></trkpt><trkpt lat="44.082985" lon="8.0295317"><ele>682.8333333333333</ele><time>2026-04-03T11:40:37.94Z</time></trkpt><trkpt lat="44.082955" lon="8.02963"><ele>685.6666666666666</ele><time>2026-04-03T11:40:38.941Z</time></trkpt><trkpt lat="44.08302" lon="8.0296667"><ele>688.5</ele><time>2026-04-03T11:40:41.941Z</time></trkpt><trkpt lat="44.083085" lon="8.029615"><ele>691.3333333333334</ele><time>2026-04-03T11:40:42.941Z</time></trkpt><trkpt lat="44.0831583" lon="8.0295567"><ele>694.1666666666667</ele><time>2026-04-03T11:40:43.941Z</time></trkpt><trkpt lat="44.0832417" lon="8.0295"><ele>697.0</ele><time>2026-04-03T11:40:44.941Z</time></trkpt><trkpt lat="44.08333" lon="8.0294583"><ele>698.5</ele><time>2026-04-03T11:40:45.941Z</time></trkpt><trkpt lat="44.0834167" lon="8.0294217"><ele>700.0</ele><time>2026-04-03T11:40:46.94Z</time></trkpt><trkpt lat="44.08349" lon="8.0294033"><ele>701.5</ele><time>2026-04-03T11:40:47.941Z</time></trkpt><trkpt lat="44.0835767" lon="8.0294017"><ele>703.0</ele><time>2026-04-03T11:40:48.941Z</time></trkpt><trkpt lat="44.083675" lon="8.0294083"><ele>704.5</ele><time>2026-04-03T11:40:49.941Z</time></trkpt><trkpt lat="44.0837667" lon="8.0294083"><ele>706.0</ele><time>2026-04-03T11:40:50.94Z</time></trkpt><trkpt lat="44.0838533" lon="8.0294033"><ele>706.0</ele><time>2026-04-03T11:40:51.941Z</time></trkpt><trkpt lat="44.08394" lon="8.0294017"><ele>706.0</ele><time>2026-04-03T11:40:52.94Z</time></trkpt><trkpt lat="44.0840433" lon="8.0294133"><ele>706.0</ele><time>2026-04-03T11:40:53.941Z</time></trkpt><trkpt lat="44.0841383" lon="8.0294367"><ele>706.0</ele><time>2026-04-03T11:40:54.941Z</time></trkpt><trkpt lat="44.0842317" lon="8.0294567"><ele>706.0</ele><time>2026-04-03T11:40:55.94Z</time></trkpt><trkpt lat="44.08432" lon="8.029485"><ele>709.1666666666667</ele><time>2026-04-03T11:40:56.94Z</time></trkpt><trkpt lat="44.0843933" lon="8.0295067"><ele>712.3333333333334</ele><time>2026-04-03T11:40:57.94Z</time></trkpt><trkpt lat="44.0844667" lon="8.0295333"><ele>715.5</ele><time>2026-04-03T11:40:58.941Z</time></trkpt><trkpt lat="44.0845517" lon="8.0295233"><ele>718.6666666666666</ele><time>2026-04-03T11:40:59.941Z</time></trkpt><trkpt lat="44.0846383" lon="8.0294967"><ele>721.8333333333333</ele><time>2026-04-03T11:41:00.94Z</time></trkpt><trkpt lat="44.0847367" lon="8.029475"><ele>725.0</ele><time>2026-04-03T11:41:01.94Z</time></trkpt><trkpt lat="44.084845" lon="8.0294617"><ele>725.0</ele><time>2026-04-03T11:41:02.941Z</time></trkpt><trkpt lat="44.0849283" lon="8.0294817"><ele>725.0</ele><time>2026-04-03T11:41:03.941Z</time></trkpt><trkpt lat="44.085005" lon="8.02953"><ele>725.0</ele><time>2026-04-03T11:41:04.941Z</time></trkpt><trkpt lat="44.0850767" lon="8.0295883"><ele>725.0</ele><time>2026-04-03T11:41:05.941Z</time></trkpt><trkpt lat="44.0851267" lon="8.0296883"><ele>725.0</ele><time>2026-04-03T11:41:06.941Z</time></trkpt><trkpt lat="44.0851583" lon="8.0297833"><ele>725.0</ele><time>2026-04-03T11:41:07.941Z</time></trkpt><trkpt lat="44.0852283" lon="8.0297233"><ele>726.5</ele><time>2026-04-03T11:41:10.939Z</time></trkpt><trkpt lat="44.0852083" lon="8.0296167"><ele>728.0</ele><time>2026-04-03T11:41:11.939Z</time></trkpt><trkpt lat="44.0851867" lon="8.0295033"><ele>729.5</ele><time>2026-04-03T11:41:12.94Z</time></trkpt><trkpt lat="44.08517" lon="8.0294"><ele>731.0</ele><time>2026-04-03T11:41:13.94Z</time></trkpt><trkpt lat="44.0851733" lon="8.02931"><ele>732.5</ele><time>2026-04-03T11:41:14.94Z</time></trkpt><trkpt lat="44.0852267" lon="8.0292267"><ele>734.0</ele><time>2026-04-03T11:41:20.94Z</time></trkpt><trkpt lat="44.0852933" lon="8.02924"><ele>734.0</ele><time>2026-04-03T11:41:22.939Z</time></trkpt><trkpt lat="44.0854017" lon="8.0292733"><ele>734.0</ele><time>2026-04-03T11:41:24.94Z</time></trkpt><trkpt lat="44.085535" lon="8.0292817"><ele>734.0</ele><time>2026-04-03T11:41:26.94Z</time></trkpt><trkpt lat="44.0856133" lon="8.0292867"><ele>734.0</ele><time>2026-04-03T11:41:27.939Z</time></trkpt><trkpt lat="44.0856833" lon="8.0292983"><ele>734.0</ele><time>2026-04-03T11:41:28.94Z</time></trkpt><trkpt lat="44.0857567" lon="8.0293267"><ele>736.0</ele><time>2026-04-03T11:41:29.94Z</time></trkpt><trkpt lat="44.0858217" lon="8.0293617"><ele>738.0</ele><time>2026-04-03T11:41:30.939Z</time></trkpt><trkpt lat="44.0859083" lon="8.0293917"><ele>740.0</ele><time>2026-04-03T11:41:31.94Z</time></trkpt><trkpt lat="44.0859833" lon="8.0294167"><ele>742.0</ele><time>2026-04-03T11:41:32.94Z</time></trkpt><trkpt lat="44.0860667" lon="8.0294367"><ele>744.0</ele><time>2026-04-03T11:41:33.94Z</time></trkpt><trkpt lat="44.0861567" lon="8.029465"><ele>746.0</ele><time>2026-04-03T11:41:34.94Z</time></trkpt><trkpt lat="44.0862483" lon="8.0294933"><ele>746.0</ele><time>2026-04-03T11:41:35.94Z</time></trkpt><trkpt lat="44.086345" lon="8.0295183"><ele>746.0</ele><time>2026-04-03T11:41:36.939Z</time></trkpt><trkpt lat="44.08644" lon="8.029545"><ele>746.0</ele><time>2026-04-03T11:41:37.94Z</time></trkpt><trkpt lat="44.0865417" lon="8.0295883"><ele>746.0</ele><time>2026-04-03T11:41:38.94Z</time></trkpt><trkpt lat="44.0866417" lon="8.02962"><ele>746.0</ele><time>2026-04-03T11:41:39.94Z</time></trkpt><trkpt lat="44.0867283" lon="8.0296283"><ele>748.6666666666666</ele><time>2026-04-03T11:41:40.94Z</time></trkpt><trkpt lat="44.0868167" lon="8.02963"><ele>751.3333333333333</ele><time>2026-04-03T11:41:41.94Z</time></trkpt><trkpt lat="44.086895" lon="8.0296283"><ele>754.0</ele><time>2026-04-03T11:41:42.939Z</time></trkpt><trkpt lat="44.0869717" lon="8.0296233"><ele>756.6666666666666</ele><time>2026-04-03T11:41:43.94Z</time></trkpt><trkpt lat="44.0870483" lon="8.0296233"><ele>759.3333333333334</ele><time>2026-04-03T11:41:44.939Z</time></trkpt><trkpt lat="44.087125" lon="8.0296183"><ele>762.0</ele><time>2026-04-03T11:41:45.94Z</time></trkpt><trkpt lat="44.087215" lon="8.0296017"><ele>762.0</ele><time>2026-04-03T11:41:46.94Z</time></trkpt><trkpt lat="44.0873117" lon="8.029595"><ele>762.0</ele><time>2026-04-03T11:41:47.939Z</time></trkpt><trkpt lat="44.08741" lon="8.0295833"><ele>762.0</ele><time>2026-04-03T11:41:48.94Z</time></trkpt><trkpt lat="44.087505" lon="8.0295867"><ele>762.0</ele><time>2026-04-03T11:41:49.939Z</time></trkpt><trkpt lat="44.0876" lon="8.029615"><ele>762.0</ele><time>2026-04-03T11:41:50.939Z</time></trkpt><trkpt lat="44.0876967" lon="8.0296367"><ele>765.2</ele><time>2026-04-03T11:41:51.94Z</time></trkpt><trkpt lat="44.0878017" lon="8.0296633"><ele>768.4000000000001</ele><time>2026-04-03T11:41:52.94Z</time></trkpt><trkpt lat="44.087905" lon="8.02969"><ele>771.5999999999999</ele><time>2026-04-03T11:41:53.94Z</time></trkpt><trkpt lat="44.088" lon="8.0297083"><ele>774.8</ele><time>2026-04-03T11:41:54.94Z</time></trkpt><trkpt lat="44.0881" lon="8.0297283"><ele>778.0</ele><time>2026-04-03T11:41:55.939Z</time></trkpt><trkpt lat="44.0881817" lon="8.029745"><ele>779.8333333333333</ele><time>2026-04-03T11:41:56.94Z</time></trkpt><trkpt lat="44.0882633" lon="8.02976"><ele>781.6666666666666</ele><time>2026-04-03T11:41:57.939Z</time></trkpt><trkpt lat="44.088395" lon="8.0297817"><ele>783.5</ele><time>2026-04-03T11:41:59.939Z</time></trkpt><trkpt lat="44.0884583" lon="8.0297817"><ele>785.3333333333333</ele><time>2026-04-03T11:42:00.939Z</time></trkpt><trkpt lat="44.088535" lon="8.0297617"><ele>787.1666666666666</ele><time>2026-04-03T11:42:01.939Z</time></trkpt><trkpt lat="44.0886183" lon="8.029725"><ele>789.0</ele><time>2026-04-03T11:42:02.939Z</time></trkpt><trkpt lat="44.088715" lon="8.0296617"><ele>789.0</ele><time>2026-04-03T11:42:03.94Z</time></trkpt><trkpt lat="44.0888283" lon="8.0295883"><ele>789.0</ele><time>2026-04-03T11:42:04.94Z</time></trkpt><trkpt lat="44.088935" lon="8.0295317"><ele>789.0</ele><time>2026-04-03T11:42:05.939Z</time></trkpt><trkpt lat="44.0890533" lon="8.029505"><ele>789.0</ele><time>2026-04-03T11:42:06.94Z</time></trkpt><trkpt lat="44.08917" lon="8.0294917"><ele>793.0</ele><time>2026-04-03T11:42:07.939Z</time></trkpt><trkpt lat="44.0892917" lon="8.0294683"><ele>797.0</ele><time>2026-04-03T11:42:08.939Z</time></trkpt><trkpt lat="44.0894033" lon="8.0294617"><ele>801.0</ele><time>2026-04-03T11:42:09.94Z</time></trkpt><trkpt lat="44.08952" lon="8.0294533"><ele>805.0</ele><time>2026-04-03T11:42:10.94Z</time></trkpt><trkpt lat="44.0896267" lon="8.029445"><ele>805.0</ele><time>2026-04-03T11:42:11.939Z</time></trkpt><trkpt lat="44.08972" lon="8.0294467"><ele>805.0</ele><time>2026-04-03T11:42:12.939Z</time></trkpt><trkpt lat="44.0897983" lon="8.0294333"><ele>805.0</ele><time>2026-04-03T11:42:13.94Z</time></trkpt><trkpt lat="44.089885" lon="8.0294017"><ele>805.0</ele><time>2026-04-03T11:42:14.94Z</time></trkpt><trkpt lat="44.0899817" lon="8.0293733"><ele>805.0</ele><time>2026-04-03T11:42:15.939Z</time></trkpt><trkpt lat="44.09008" lon="8.0293667"><ele>807.8</ele><time>2026-04-03T11:42:16.94Z</time></trkpt><trkpt lat="44.0901767" lon="8.0293717"><ele>810.6</ele><time>2026-04-03T11:42:17.939Z</time></trkpt><trkpt lat="44.0902683" lon="8.0293617"><ele>813.4000000000001</ele><time>2026-04-03T11:42:18.939Z</time></trkpt><trkpt lat="44.0903617" lon="8.0293367"><ele>816.2</ele><time>2026-04-03T11:42:19.939Z</time></trkpt><trkpt lat="44.09045" lon="8.0293117"><ele>819.0</ele><time>2026-04-03T11:42:20.939Z</time></trkpt><trkpt lat="44.0905433" lon="8.02928"><ele>819.0</ele><time>2026-04-03T11:42:21.94Z</time></trkpt><trkpt lat="44.0906267" lon="8.029265"><ele>819.0</ele><time>2026-04-03T11:42:22.94Z</time></trkpt><trkpt lat="44.0907183" lon="8.0293067"><ele>819.0</ele><time>2026-04-03T11:42:24.939Z</time></trkpt><trkpt lat="44.0907667" lon="8.029435"><ele>819.0</ele><time>2026-04-03T11:42:26.94Z</time></trkpt><trkpt lat="44.0907733" lon="8.029535"><ele>819.0</ele><time>2026-04-03T11:42:27.94Z</time></trkpt><trkpt lat="44.0907717" lon="8.0296333"><ele>819.0</ele><time>2026-04-03T11:42:28.94Z</time></trkpt><trkpt lat="44.0907817" lon="8.02972"><ele>821.5</ele><time>2026-04-03T11:42:29.94Z</time></trkpt><trkpt lat="44.0908267" lon="8.0298467"><ele>824.0</ele><time>2026-04-03T11:42:31.94Z</time></trkpt><trkpt lat="44.0908883" lon="8.0298783"><ele>826.5</ele><time>2026-04-03T11:42:33.94Z</time></trkpt><trkpt lat="44.090945" lon="8.0298083"><ele>829.0</ele><time>2026-04-03T11:42:35.94Z</time></trkpt><trkpt lat="44.0909633" lon="8.0297083"><ele>831.5</ele><time>2026-04-03T11:42:37.94Z</time></trkpt><trkpt lat="44.0910233" lon="8.0295883"><ele>834.0</ele><time>2026-04-03T11:42:39.939Z</time></trkpt><trkpt lat="44.0910833" lon="8.0295383"><ele>834.0</ele><time>2026-04-03T11:42:40.94Z</time></trkpt><trkpt lat="44.0911633" lon="8.02951"><ele>834.0</ele><time>2026-04-03T11:42:42.939Z</time></trkpt><trkpt lat="44.0912067" lon="8.0296433"><ele>834.0</ele><time>2026-04-03T11:42:45.939Z</time></trkpt><trkpt lat="44.0912833" lon="8.0296433"><ele>834.0</ele><time>2026-04-03T11:42:49.939Z</time></trkpt><trkpt lat="44.0913383" lon="8.0295983"><ele>834.0</ele><time>2026-04-03T11:42:51.94Z</time></trkpt><trkpt lat="44.0912867" lon="8.0294967"><ele>834.0</ele><time>2026-04-03T11:42:57.939Z</time></trkpt><trkpt lat="44.0912117" lon="8.029475"><ele>834.0</ele><time>2026-04-03T11:42:58.94Z</time></trkpt><trkpt lat="44.09114" lon="8.0294467"><ele>834.0</ele><time>2026-04-03T11:42:59.94Z</time></trkpt><trkpt lat="44.091035" lon="8.0294383"><ele>834.0</ele><time>2026-04-03T11:43:01.94Z</time></trkpt><trkpt lat="44.091025" lon="8.0293417"><ele>834.0</ele><time>2026-04-03T11:43:16.939Z</time></trkpt><trkpt lat="44.09109" lon="8.029315"><ele>834.0</ele><time>2026-04-03T11:43:18.94Z</time></trkpt><trkpt lat="44.0912233" lon="8.0292383"><ele>834.0</ele><time>2026-04-03T11:43:20.939Z</time></trkpt><trkpt lat="44.0913233" lon="8.029195"><ele>834.0</ele><time>2026-04-03T11:43:21.94Z</time></trkpt><trkpt lat="44.09142" lon="8.02917"><ele>834.0</ele><time>2026-04-03T11:43:22.94Z</time></trkpt><trkpt lat="44.0915117" lon="8.029145"><ele>834.0</ele><time>2026-04-03T11:43:23.939Z</time></trkpt><trkpt lat="44.0915967" lon="8.0291283"><ele>834.0</ele><time>2026-04-03T11:43:24.939Z</time></trkpt><trkpt lat="44.0916717" lon="8.029105"><ele>833.5</ele><time>2026-04-03T11:43:25.94Z</time></trkpt><trkpt lat="44.09179" lon="8.0290667"><ele>833.0</ele><time>2026-04-03T11:43:27.939Z</time></trkpt><trkpt lat="44.0918583" lon="8.029025"><ele>832.5</ele><time>2026-04-03T11:43:28.94Z</time></trkpt><trkpt lat="44.0919117" lon="8.0289667"><ele>832.0</ele><time>2026-04-03T11:43:29.94Z</time></trkpt><trkpt lat="44.0919517" lon="8.02889"><ele>831.5</ele><time>2026-04-03T11:43:30.94Z</time></trkpt><trkpt lat="44.09199" lon="8.0287933"><ele>831.0</ele><time>2026-04-03T11:43:31.94Z</time></trkpt><trkpt lat="44.0920317" lon="8.0286967"><ele>831.0</ele><time>2026-04-03T11:43:32.939Z</time></trkpt><trkpt lat="44.0920783" lon="8.0285983"><ele>831.0</ele><time>2026-04-03T11:43:33.94Z</time></trkpt><trkpt lat="44.0921267" lon="8.0285033"><ele>831.0</ele><time>2026-04-03T11:43:34.939Z</time></trkpt><trkpt lat="44.09217" lon="8.0284017"><ele>831.0</ele><time>2026-04-03T11:43:35.94Z</time></trkpt><trkpt lat="44.0922033" lon="8.028295"><ele>831.0</ele><time>2026-04-03T11:43:36.94Z</time></trkpt><trkpt lat="44.092225" lon="8.02818"><ele>831.0</ele><time>2026-04-03T11:43:37.94Z</time></trkpt><trkpt lat="44.0922233" lon="8.0280533"><ele>830.1666666666666</ele><time>2026-04-03T11:43:38.94Z</time></trkpt><trkpt lat="44.0922333" lon="8.02795"><ele>829.3333333333333</ele><time>2026-04-03T11:43:39.94Z</time></trkpt><trkpt lat="44.0922467" lon="8.02779"><ele>828.5</ele><time>2026-04-03T11:43:41.939Z</time></trkpt><trkpt lat="44.0922683" lon="8.0276867"><ele>827.6666666666666</ele><time>2026-04-03T11:43:43.94Z</time></trkpt><trkpt lat="44.09231" lon="8.0276167"><ele>826.8333333333333</ele><time>2026-04-03T11:43:45.94Z</time></trkpt><trkpt lat="44.09239" lon="8.0275033"><ele>826.0</ele><time>2026-04-03T11:43:47.94Z</time></trkpt><trkpt lat="44.09244" lon="8.0274483"><ele>825.9999999999999</ele><time>2026-04-03T11:43:48.939Z</time></trkpt><trkpt lat="44.09249" lon="8.027385"><ele>826.0</ele><time>2026-04-03T11:43:49.94Z</time></trkpt><trkpt lat="44.09254" lon="8.0273183"><ele>826.0</ele><time>2026-04-03T11:43:50.94Z</time></trkpt><trkpt lat="44.0926167" lon="8.0272367"><ele>826.0</ele><time>2026-04-03T11:43:52.94Z</time></trkpt><trkpt lat="44.0926867" lon="8.0271833"><ele>825.9999999999999</ele><time>2026-04-03T11:43:55.939Z</time></trkpt><trkpt lat="44.09273" lon="8.027095"><ele>826.0</ele><time>2026-04-03T11:43:57.94Z</time></trkpt><trkpt lat="44.092765" lon="8.0269917"><ele>826.0</ele><time>2026-04-03T11:43:59.939Z</time></trkpt><trkpt lat="44.0928383" lon="8.02689"><ele>826.0</ele><time>2026-04-03T11:44:01.94Z</time></trkpt><trkpt lat="44.0929117" lon="8.0267983"><ele>826.0</ele><time>2026-04-03T11:44:03.939Z</time></trkpt><trkpt lat="44.0929983" lon="8.0267167"><ele>826.0</ele><time>2026-04-03T11:44:06.94Z</time></trkpt><trkpt lat="44.0930883" lon="8.026635"><ele>826.0</ele><time>2026-04-03T11:44:08.939Z</time></trkpt><trkpt lat="44.0931933" lon="8.02658"><ele>826.5714285714286</ele><time>2026-04-03T11:44:10.939Z</time></trkpt><trkpt lat="44.09326" lon="8.0265483"><ele>827.1428571428571</ele><time>2026-04-03T11:44:11.94Z</time></trkpt><trkpt lat="44.0933317" lon="8.026515"><ele>827.7142857142858</ele><time>2026-04-03T11:44:12.94Z</time></trkpt><trkpt lat="44.0933983" lon="8.0264933"><ele>828.2857142857142</ele><time>2026-04-03T11:44:13.94Z</time></trkpt><trkpt lat="44.0934717" lon="8.0264617"><ele>828.8571428571429</ele><time>2026-04-03T11:44:15.94Z</time></trkpt><trkpt lat="44.0935367" lon="8.0264217"><ele>829.4285714285714</ele><time>2026-04-03T11:44:17.939Z</time></trkpt><trkpt lat="44.0936133" lon="8.02638"><ele>830.0</ele><time>2026-04-03T11:44:19.94Z</time></trkpt><trkpt lat="44.09369" lon="8.0263067"><ele>830.0</ele><time>2026-04-03T11:44:21.94Z</time></trkpt><trkpt lat="44.0937617" lon="8.026235"><ele>830.0</ele><time>2026-04-03T11:44:23.94Z</time></trkpt><trkpt lat="44.0938283" lon="8.0261533"><ele>830.0</ele><time>2026-04-03T11:44:25.94Z</time></trkpt><trkpt lat="44.0939683" lon="8.0260683"><ele>830.0</ele><time>2026-04-03T11:44:27.939Z</time></trkpt><trkpt lat="44.0940433" lon="8.026015"><ele>830.0</ele><time>2026-04-03T11:44:28.94Z</time></trkpt><trkpt lat="44.09412" lon="8.0259483"><ele>829.6666666666667</ele><time>2026-04-03T11:44:29.94Z</time></trkpt><trkpt lat="44.094185" lon="8.025875"><ele>829.3333333333334</ele><time>2026-04-03T11:44:30.94Z</time></trkpt><trkpt lat="44.0942483" lon="8.0258183"><ele>829.0</ele><time>2026-04-03T11:44:31.939Z</time></trkpt><trkpt lat="44.0943217" lon="8.0257583"><ele>828.6666666666667</ele><time>2026-04-03T11:44:32.94Z</time></trkpt><trkpt lat="44.0943867" lon="8.0257083"><ele>828.3333333333334</ele><time>2026-04-03T11:44:33.939Z</time></trkpt><trkpt lat="44.0944683" lon="8.0256567"><ele>828.0</ele><time>2026-04-03T11:44:34.94Z</time></trkpt><trkpt lat="44.09456" lon="8.0255967"><ele>828.0</ele><time>2026-04-03T11:44:35.939Z</time></trkpt><trkpt lat="44.0946567" lon="8.0255433"><ele>828.0</ele><time>2026-04-03T11:44:36.94Z</time></trkpt><trkpt lat="44.09472" lon="8.02551"><ele>828.0</ele><time>2026-04-03T11:44:37.94Z</time></trkpt><trkpt lat="44.094805" lon="8.0254533"><ele>828.0</ele><time>2026-04-03T11:44:39.94Z</time></trkpt><trkpt lat="44.094905" lon="8.0253083"><ele>828.0</ele><time>2026-04-03T11:44:41.94Z</time></trkpt><trkpt lat="44.0949667" lon="8.0252283"><ele>830.0</ele><time>2026-04-03T11:44:42.939Z</time></trkpt><trkpt lat="44.0950383" lon="8.02515"><ele>832.0</ele><time>2026-04-03T11:44:43.94Z</time></trkpt><trkpt lat="44.09511" lon="8.0250883"><ele>834.0</ele><time>2026-04-03T11:44:44.94Z</time></trkpt><trkpt lat="44.09519" lon="8.0250367"><ele>836.0</ele><time>2026-04-03T11:44:45.939Z</time></trkpt><trkpt lat="44.09528" lon="8.0249817"><ele>838.0</ele><time>2026-04-03T11:44:46.939Z</time></trkpt><trkpt lat="44.0953733" lon="8.0249217"><ele>838.0</ele><time>2026-04-03T11:44:47.939Z</time></trkpt><trkpt lat="44.09545" lon="8.024865"><ele>838.0</ele><time>2026-04-03T11:44:48.94Z</time></trkpt><trkpt lat="44.0955167" lon="8.0247783"><ele>838.0</ele><time>2026-04-03T11:44:49.94Z</time></trkpt><trkpt lat="44.095585" lon="8.02468"><ele>838.0</ele><time>2026-04-03T11:44:50.94Z</time></trkpt><trkpt lat="44.0956533" lon="8.024595"><ele>838.0</ele><time>2026-04-03T11:44:51.94Z</time></trkpt><trkpt lat="44.0957217" lon="8.0245217"><ele>841.4285714285713</ele><time>2026-04-03T11:44:52.94Z</time></trkpt><trkpt lat="44.0957833" lon="8.0244717"><ele>844.8571428571429</ele><time>2026-04-03T11:44:53.94Z</time></trkpt><trkpt lat="44.09585" lon="8.0244133"><ele>848.2857142857142</ele><time>2026-04-03T11:44:54.94Z</time></trkpt><trkpt lat="44.095905" lon="8.024345"><ele>851.7142857142857</ele><time>2026-04-03T11:44:55.94Z</time></trkpt><trkpt lat="44.09596" lon="8.024265"><ele>855.1428571428571</ele><time>2026-04-03T11:44:56.939Z</time></trkpt><trkpt lat="44.096" lon="8.0241917"><ele>858.5714285714286</ele><time>2026-04-03T11:44:57.939Z</time></trkpt><trkpt lat="44.0960367" lon="8.0240983"><ele>862.0</ele><time>2026-04-03T11:44:58.94Z</time></trkpt><trkpt lat="44.0960617" lon="8.0239917"><ele>862.0</ele><time>2026-04-03T11:45:00.94Z</time></trkpt><trkpt lat="44.0960417" lon="8.02387"><ele>862.0</ele><time>2026-04-03T11:45:15.94Z</time></trkpt><trkpt lat="44.0960733" lon="8.0236767"><ele>862.0</ele><time>2026-04-03T11:45:17.94Z</time></trkpt><trkpt lat="44.0960683" lon="8.0235367"><ele>862.0</ele><time>2026-04-03T11:45:18.94Z</time></trkpt><trkpt lat="44.0960467" lon="8.0234033"><ele>862.0</ele><time>2026-04-03T11:45:19.94Z</time></trkpt><trkpt lat="44.0960317" lon="8.0233017"><ele>861.3333333333333</ele><time>2026-04-03T11:45:20.939Z</time></trkpt><trkpt lat="44.0960583" lon="8.0231467"><ele>860.6666666666666</ele><time>2026-04-03T11:45:22.94Z</time></trkpt><trkpt lat="44.0960967" lon="8.023065"><ele>860.0</ele><time>2026-04-03T11:45:23.939Z</time></trkpt><trkpt lat="44.0961433" lon="8.02298"><ele>859.3333333333333</ele><time>2026-04-03T11:45:24.94Z</time></trkpt><trkpt lat="44.0962" lon="8.0228933"><ele>858.6666666666666</ele><time>2026-04-03T11:45:25.94Z</time></trkpt><trkpt lat="44.0962633" lon="8.022815"><ele>858.0</ele><time>2026-04-03T11:45:26.939Z</time></trkpt><trkpt lat="44.0963317" lon="8.0227483"><ele>858.0</ele><time>2026-04-03T11:45:27.939Z</time></trkpt><trkpt lat="44.0963983" lon="8.022685"><ele>858.0</ele><time>2026-04-03T11:45:28.94Z</time></trkpt><trkpt lat="44.0964567" lon="8.022635"><ele>858.0</ele><time>2026-04-03T11:45:29.94Z</time></trkpt><trkpt lat="44.0965367" lon="8.0225733"><ele>858.0</ele><time>2026-04-03T11:45:31.94Z</time></trkpt><trkpt lat="44.0965317" lon="8.02246"><ele>858.0</ele><time>2026-04-03T11:47:41.939Z</time></trkpt><trkpt lat="44.0965233" lon="8.0223583"><ele>858.0</ele><time>2026-04-03T11:47:44.939Z</time></trkpt><trkpt lat="44.0965517" lon="8.022265"><ele>856.6666666666666</ele><time>2026-04-03T11:47:46.939Z</time></trkpt><trkpt lat="44.0965817" lon="8.02215"><ele>855.3333333333333</ele><time>2026-04-03T11:47:48.939Z</time></trkpt><trkpt lat="44.0966" lon="8.0220567"><ele>854.0</ele><time>2026-04-03T11:47:49.938Z</time></trkpt><trkpt lat="44.096615" lon="8.021955"><ele>852.6666666666666</ele><time>2026-04-03T11:47:50.939Z</time></trkpt><trkpt lat="44.09663" lon="8.0218583"><ele>851.3333333333333</ele><time>2026-04-03T11:47:51.939Z</time></trkpt><trkpt lat="44.0966567" lon="8.0217767"><ele>850.0</ele><time>2026-04-03T11:47:52.938Z</time></trkpt><trkpt lat="44.0966767" lon="8.0216433"><ele>850.3333333333333</ele><time>2026-04-03T11:47:54.939Z</time></trkpt><trkpt lat="44.0966733" lon="8.0215467"><ele>850.6666666666666</ele><time>2026-04-03T11:47:56.939Z</time></trkpt><trkpt lat="44.0966183" lon="8.0214567"><ele>851.0</ele><time>2026-04-03T11:47:58.939Z</time></trkpt><trkpt lat="44.0965533" lon="8.0213683"><ele>851.3333333333333</ele><time>2026-04-03T11:48:00.938Z</time></trkpt><trkpt lat="44.0965333" lon="8.0212567"><ele>851.6666666666666</ele><time>2026-04-03T11:48:03.939Z</time></trkpt><trkpt lat="44.0965583" lon="8.0211617"><ele>852.0</ele><time>2026-04-03T11:48:05.938Z</time></trkpt><trkpt lat="44.096585" lon="8.021075"><ele>852.0</ele><time>2026-04-03T11:48:07.939Z</time></trkpt><trkpt lat="44.0965817" lon="8.0208883"><ele>852.0</ele><time>2026-04-03T11:48:09.939Z</time></trkpt><trkpt lat="44.0965783" lon="8.02076"><ele>852.0</ele><time>2026-04-03T11:48:11.938Z</time></trkpt><trkpt lat="44.0965983" lon="8.020585"><ele>852.0</ele><time>2026-04-03T11:48:13.939Z</time></trkpt><trkpt lat="44.0965733" lon="8.020455"><ele>851.6666666666666</ele><time>2026-04-03T11:48:14.939Z</time></trkpt><trkpt lat="44.09656" lon="8.0203367"><ele>851.3333333333333</ele><time>2026-04-03T11:48:15.939Z</time></trkpt><trkpt lat="44.0965667" lon="8.0202217"><ele>851.0</ele><time>2026-04-03T11:48:16.939Z</time></trkpt><trkpt lat="44.0965783" lon="8.0200883"><ele>850.6666666666666</ele><time>2026-04-03T11:48:17.939Z</time></trkpt><trkpt lat="44.096615" lon="8.0200033"><ele>850.3333333333333</ele><time>2026-04-03T11:48:18.938Z</time></trkpt><trkpt lat="44.09665" lon="8.0199117"><ele>850.0</ele><time>2026-04-03T11:48:19.939Z</time></trkpt><trkpt lat="44.0966767" lon="8.0198167"><ele>847.2</ele><time>2026-04-03T11:48:20.939Z</time></trkpt><trkpt lat="44.0966883" lon="8.0196433"><ele>844.4</ele><time>2026-04-03T11:48:22.939Z</time></trkpt><trkpt lat="44.0966917" lon="8.0194883"><ele>841.5999999999999</ele><time>2026-04-03T11:48:24.938Z</time></trkpt><trkpt lat="44.0967133" lon="8.019385"><ele>838.8</ele><time>2026-04-03T11:48:26.939Z</time></trkpt><trkpt lat="44.0966683" lon="8.0192817"><ele>836.0</ele><time>2026-04-03T11:48:29.938Z</time></trkpt><trkpt lat="44.0965583" lon="8.01918"><ele>832.6666666666667</ele><time>2026-04-03T11:48:31.939Z</time></trkpt><trkpt lat="44.096505" lon="8.01913"><ele>829.3333333333334</ele><time>2026-04-03T11:48:32.939Z</time></trkpt><trkpt lat="44.0964117" lon="8.0190617"><ele>826.0</ele><time>2026-04-03T11:48:34.939Z</time></trkpt><trkpt lat="44.0963283" lon="8.019035"><ele>822.6666666666667</ele><time>2026-04-03T11:48:36.938Z</time></trkpt><trkpt lat="44.0962583" lon="8.0190333"><ele>819.3333333333334</ele><time>2026-04-03T11:48:38.939Z</time></trkpt><trkpt lat="44.096185" lon="8.01904"><ele>816.0</ele><time>2026-04-03T11:48:54.939Z</time></trkpt><trkpt lat="44.096115" lon="8.01901"><ele>816.0</ele><time>2026-04-03T11:48:56.939Z</time></trkpt><trkpt lat="44.0960517" lon="8.0189217"><ele>816.0</ele><time>2026-04-03T11:48:58.939Z</time></trkpt><trkpt lat="44.0960367" lon="8.0188233"><ele>816.0</ele><time>2026-04-03T11:49:00.939Z</time></trkpt><trkpt lat="44.09609" lon="8.0187533"><ele>816.0</ele><time>2026-04-03T11:49:02.939Z</time></trkpt><trkpt lat="44.096155" lon="8.0187667"><ele>816.0</ele><time>2026-04-03T11:49:06.939Z</time></trkpt><trkpt lat="44.096215" lon="8.0188267"><ele>816.0</ele><time>2026-04-03T11:49:11.938Z</time></trkpt><trkpt lat="44.0961867" lon="8.018905"><ele>816.0</ele><time>2026-04-03T11:49:58.939Z</time></trkpt><trkpt lat="44.096115" lon="8.0189567"><ele>816.0</ele><time>2026-04-03T11:50:02.939Z</time></trkpt><trkpt lat="44.0960367" lon="8.0189383"><ele>816.0</ele><time>2026-04-03T11:50:05.938Z</time></trkpt><trkpt lat="44.0960317" lon="8.0188417"><ele>816.0</ele><time>2026-04-03T11:50:08.939Z</time></trkpt><trkpt lat="44.0960883" lon="8.0187717"><ele>816.0</ele><time>2026-04-03T11:50:10.939Z</time></trkpt><trkpt lat="44.096195" lon="8.0186783"><ele>816.0</ele><time>2026-04-03T11:50:12.939Z</time></trkpt><trkpt lat="44.0962517" lon="8.018635"><ele>816.0</ele><time>2026-04-03T11:50:13.938Z</time></trkpt><trkpt lat="44.09634" lon="8.0185817"><ele>816.0</ele><time>2026-04-03T11:50:15.937Z</time></trkpt><trkpt lat="44.0963017" lon="8.0185067"><ele>816.0</ele><time>2026-04-03T11:50:21.938Z</time></trkpt><trkpt lat="44.09618" lon="8.0184917"><ele>816.0</ele><time>2026-04-03T11:50:23.938Z</time></trkpt><trkpt lat="44.0960767" lon="8.0184483"><ele>816.0</ele><time>2026-04-03T11:50:25.938Z</time></trkpt><trkpt lat="44.0959817" lon="8.0183633"><ele>816.0</ele><time>2026-04-03T11:50:27.938Z</time></trkpt><trkpt lat="44.0959033" lon="8.018235"><ele>812.8</ele><time>2026-04-03T11:50:29.938Z</time></trkpt><trkpt lat="44.0958433" lon="8.01812"><ele>809.5999999999999</ele><time>2026-04-03T11:50:31.938Z</time></trkpt><trkpt lat="44.0958183" lon="8.0179683"><ele>806.4</ele><time>2026-04-03T11:50:33.938Z</time></trkpt><trkpt lat="44.0957983" lon="8.017875"><ele>803.2</ele><time>2026-04-03T11:50:34.937Z</time></trkpt><trkpt lat="44.095775" lon="8.0177683"><ele>800.0</ele><time>2026-04-03T11:50:35.938Z</time></trkpt><trkpt lat="44.0957433" lon="8.0176417"><ele>798.8333333333334</ele><time>2026-04-03T11:50:36.938Z</time></trkpt><trkpt lat="44.0957133" lon="8.017535"><ele>797.6666666666667</ele><time>2026-04-03T11:50:37.938Z</time></trkpt><trkpt lat="44.0956683" lon="8.0174"><ele>796.5</ele><time>2026-04-03T11:50:38.938Z</time></trkpt><trkpt lat="44.0956333" lon="8.0172833"><ele>795.3333333333333</ele><time>2026-04-03T11:50:39.938Z</time></trkpt><trkpt lat="44.09561" lon="8.0171683"><ele>794.1666666666666</ele><time>2026-04-03T11:50:40.937Z</time></trkpt><trkpt lat="44.095615" lon="8.0170533"><ele>793.0</ele><time>2026-04-03T11:50:41.938Z</time></trkpt><trkpt lat="44.09563" lon="8.0169517"><ele>792.6666666666666</ele><time>2026-04-03T11:50:42.937Z</time></trkpt><trkpt lat="44.0956567" lon="8.0168633"><ele>792.3333333333333</ele><time>2026-04-03T11:50:43.937Z</time></trkpt><trkpt lat="44.0956867" lon="8.01676"><ele>792.0</ele><time>2026-04-03T11:52:05.938Z</time></trkpt><trkpt lat="44.0957667" lon="8.0168033"><ele>791.6666666666667</ele><time>2026-04-03T11:52:07.937Z</time></trkpt><trkpt lat="44.0958167" lon="8.0168667"><ele>791.3333333333334</ele><time>2026-04-03T11:52:08.937Z</time></trkpt><trkpt lat="44.0958667" lon="8.0169517"><ele>791.0</ele><time>2026-04-03T11:52:09.937Z</time></trkpt><trkpt lat="44.0959183" lon="8.0170467"><ele>791.0000000000001</ele><time>2026-04-03T11:52:10.937Z</time></trkpt><trkpt lat="44.0959617" lon="8.0171383"><ele>791.0</ele><time>2026-04-03T11:52:11.938Z</time></trkpt><trkpt lat="44.096" lon="8.017225"><ele>791.0</ele><time>2026-04-03T11:52:12.938Z</time></trkpt><trkpt lat="44.0960367" lon="8.0173117"><ele>791.0</ele><time>2026-04-03T11:52:13.937Z</time></trkpt><trkpt lat="44.0960733" lon="8.0173933"><ele>791.0000000000001</ele><time>2026-04-03T11:52:14.938Z</time></trkpt><trkpt lat="44.09611" lon="8.0174667"><ele>791.0</ele><time>2026-04-03T11:52:15.938Z</time></trkpt><trkpt lat="44.0961933" lon="8.0175567"><ele>792.5000000000001</ele><time>2026-04-03T11:52:17.937Z</time></trkpt><trkpt lat="44.096265" lon="8.0175817"><ele>794.0</ele><time>2026-04-03T11:52:18.938Z</time></trkpt><trkpt lat="44.0963367" lon="8.01762"><ele>795.5</ele><time>2026-04-03T11:52:19.938Z</time></trkpt><trkpt lat="44.0963983" lon="8.0176567"><ele>797.0</ele><time>2026-04-03T11:52:20.937Z</time></trkpt><trkpt lat="44.0964717" lon="8.01769"><ele>798.5000000000001</ele><time>2026-04-03T11:52:21.937Z</time></trkpt><trkpt lat="44.096555" lon="8.0177117"><ele>800.0</ele><time>2026-04-03T11:52:22.938Z</time></trkpt><trkpt lat="44.0966683" lon="8.0177183"><ele>796.0</ele><time>2026-04-03T11:52:23.938Z</time></trkpt><trkpt lat="44.0967917" lon="8.0177367"><ele>792.0</ele><time>2026-04-03T11:52:24.938Z</time></trkpt><trkpt lat="44.0968867" lon="8.0177867"><ele>788.0</ele><time>2026-04-03T11:52:25.938Z</time></trkpt><trkpt lat="44.0969667" lon="8.017845"><ele>784.0</ele><time>2026-04-03T11:52:26.937Z</time></trkpt><trkpt lat="44.0970383" lon="8.0178933"><ele>780.0</ele><time>2026-04-03T11:52:27.937Z</time></trkpt><trkpt lat="44.0970933" lon="8.0179367"><ele>780.0</ele><time>2026-04-03T11:52:28.938Z</time></trkpt><trkpt lat="44.097175" lon="8.01796"><ele>780.0</ele><time>2026-04-03T11:52:30.937Z</time></trkpt><trkpt lat="44.0972783" lon="8.018025"><ele>780.0</ele><time>2026-04-03T11:52:32.937Z</time></trkpt><trkpt lat="44.0973467" lon="8.0180983"><ele>780.0</ele><time>2026-04-03T11:52:33.938Z</time></trkpt><trkpt lat="44.0974117" lon="8.018195"><ele>780.0</ele><time>2026-04-03T11:52:34.938Z</time></trkpt><trkpt lat="44.09748" lon="8.0183083"><ele>779.1666666666666</ele><time>2026-04-03T11:52:35.938Z</time></trkpt><trkpt lat="44.0975383" lon="8.018405"><ele>778.3333333333333</ele><time>2026-04-03T11:52:36.937Z</time></trkpt><trkpt lat="44.0975883" lon="8.0185"><ele>777.5</ele><time>2026-04-03T11:52:37.938Z</time></trkpt><trkpt lat="44.0976267" lon="8.0185967"><ele>776.6666666666666</ele><time>2026-04-03T11:52:38.937Z</time></trkpt><trkpt lat="44.09766" lon="8.0187"><ele>775.8333333333333</ele><time>2026-04-03T11:52:39.938Z</time></trkpt><trkpt lat="44.0976717" lon="8.0188117"><ele>775.0</ele><time>2026-04-03T11:52:40.938Z</time></trkpt><trkpt lat="44.0976617" lon="8.01892"><ele>775.0</ele><time>2026-04-03T11:52:41.937Z</time></trkpt><trkpt lat="44.0976467" lon="8.0190367"><ele>775.0</ele><time>2026-04-03T11:52:42.938Z</time></trkpt><trkpt lat="44.097655" lon="8.019145"><ele>775.0</ele><time>2026-04-03T11:52:43.937Z</time></trkpt><trkpt lat="44.0976817" lon="8.0192567"><ele>775.0</ele><time>2026-04-03T11:52:44.938Z</time></trkpt><trkpt lat="44.0977233" lon="8.019395"><ele>775.0</ele><time>2026-04-03T11:52:45.938Z</time></trkpt><trkpt lat="44.0977767" lon="8.0195167"><ele>778.0</ele><time>2026-04-03T11:52:46.937Z</time></trkpt><trkpt lat="44.0978217" lon="8.019625"><ele>781.0</ele><time>2026-04-03T11:52:47.938Z</time></trkpt><trkpt lat="44.0978817" lon="8.0197117"><ele>784.0</ele><time>2026-04-03T11:52:48.938Z</time></trkpt><trkpt lat="44.0980133" lon="8.0197833"><ele>787.0</ele><time>2026-04-03T11:52:50.938Z</time></trkpt><trkpt lat="44.09811" lon="8.0197717"><ele>790.0</ele><time>2026-04-03T11:52:51.938Z</time></trkpt><trkpt lat="44.0982267" lon="8.0197667"><ele>781.2</ele><time>2026-04-03T11:52:52.938Z</time></trkpt><trkpt lat="44.09834" lon="8.0197783"><ele>772.4</ele><time>2026-04-03T11:52:53.937Z</time></trkpt><trkpt lat="44.0984333" lon="8.0197867"><ele>763.5999999999999</ele><time>2026-04-03T11:52:54.937Z</time></trkpt><trkpt lat="44.09853" lon="8.0198133"><ele>754.8</ele><time>2026-04-03T11:52:55.938Z</time></trkpt><trkpt lat="44.0986167" lon="8.0198567"><ele>746.0</ele><time>2026-04-03T11:52:56.938Z</time></trkpt><trkpt lat="44.0986933" lon="8.0199167"><ele>747.8333333333333</ele><time>2026-04-03T11:52:57.938Z</time></trkpt><trkpt lat="44.098765" lon="8.0199867"><ele>749.6666666666666</ele><time>2026-04-03T11:52:58.938Z</time></trkpt><trkpt lat="44.098825" lon="8.0200567"><ele>751.5</ele><time>2026-04-03T11:52:59.938Z</time></trkpt><trkpt lat="44.0988867" lon="8.0201217"><ele>753.3333333333334</ele><time>2026-04-03T11:53:00.938Z</time></trkpt><trkpt lat="44.0989483" lon="8.0201817"><ele>755.1666666666667</ele><time>2026-04-03T11:53:01.938Z</time></trkpt><trkpt lat="44.099015" lon="8.0202233"><ele>757.0</ele><time>2026-04-03T11:53:02.938Z</time></trkpt><trkpt lat="44.0990917" lon="8.0202517"><ele>757.0</ele><time>2026-04-03T11:53:03.938Z</time></trkpt><trkpt lat="44.0991683" lon="8.0202633"><ele>757.0</ele><time>2026-04-03T11:53:04.938Z</time></trkpt><trkpt lat="44.0992467" lon="8.0202717"><ele>757.0</ele><time>2026-04-03T11:53:05.938Z</time></trkpt><trkpt lat="44.0993267" lon="8.0202583"><ele>757.0</ele><time>2026-04-03T11:53:06.938Z</time></trkpt><trkpt lat="44.0994117" lon="8.0202317"><ele>757.0</ele><time>2026-04-03T11:53:07.938Z</time></trkpt><trkpt lat="44.0995067" lon="8.0202"><ele>757.0</ele><time>2026-04-03T11:53:08.938Z</time></trkpt><trkpt lat="44.0996017" lon="8.0201783"><ele>757.0</ele><time>2026-04-03T11:53:09.938Z</time></trkpt><trkpt lat="44.0996917" lon="8.0201517"><ele>757.0</ele><time>2026-04-03T11:53:10.937Z</time></trkpt><trkpt lat="44.099765" lon="8.0201033"><ele>757.0</ele><time>2026-04-03T11:53:11.938Z</time></trkpt><trkpt lat="44.0998333" lon="8.0200283"><ele>757.0</ele><time>2026-04-03T11:53:12.937Z</time></trkpt><trkpt lat="44.0999367" lon="8.0199033"><ele>757.0</ele><time>2026-04-03T11:53:13.938Z</time></trkpt><trkpt lat="44.100015" lon="8.019765"><ele>750.4000000000001</ele><time>2026-04-03T11:53:14.938Z</time></trkpt><trkpt lat="44.100085" lon="8.0196617"><ele>743.8000000000001</ele><time>2026-04-03T11:53:15.938Z</time></trkpt><trkpt lat="44.10017" lon="8.0196183"><ele>737.2</ele><time>2026-04-03T11:53:16.937Z</time></trkpt><trkpt lat="44.10028" lon="8.0196167"><ele>730.6</ele><time>2026-04-03T11:53:17.938Z</time></trkpt><trkpt lat="44.1003733" lon="8.0196167"><ele>724.0</ele><time>2026-04-03T11:53:18.938Z</time></trkpt><trkpt lat="44.1004583" lon="8.0196383"><ele>724.0</ele><time>2026-04-03T11:53:19.937Z</time></trkpt><trkpt lat="44.100545" lon="8.0196617"><ele>724.0</ele><time>2026-04-03T11:53:20.938Z</time></trkpt><trkpt lat="44.100635" lon="8.019695"><ele>724.0</ele><time>2026-04-03T11:53:21.937Z</time></trkpt><trkpt lat="44.10072" lon="8.0197067"><ele>724.0</ele><time>2026-04-03T11:53:22.938Z</time></trkpt><trkpt lat="44.1008167" lon="8.019685"><ele>724.0</ele><time>2026-04-03T11:53:23.938Z</time></trkpt><trkpt lat="44.1008867" lon="8.01965"><ele>724.0</ele><time>2026-04-03T11:53:24.937Z</time></trkpt><trkpt lat="44.1009667" lon="8.01962"><ele>725.8000000000001</ele><time>2026-04-03T11:53:25.937Z</time></trkpt><trkpt lat="44.1010517" lon="8.019555"><ele>727.6</ele><time>2026-04-03T11:53:26.938Z</time></trkpt><trkpt lat="44.1011367" lon="8.019475"><ele>729.4</ele><time>2026-04-03T11:53:27.937Z</time></trkpt><trkpt lat="44.1012183" lon="8.0194017"><ele>731.2</ele><time>2026-04-03T11:53:28.938Z</time></trkpt><trkpt lat="44.1013033" lon="8.019305"><ele>733.0</ele><time>2026-04-03T11:53:29.937Z</time></trkpt><trkpt lat="44.1013867" lon="8.0192167"><ele>729.0</ele><time>2026-04-03T11:53:30.938Z</time></trkpt><trkpt lat="44.101485" lon="8.0191167"><ele>725.0</ele><time>2026-04-03T11:53:31.937Z</time></trkpt><trkpt lat="44.1015633" lon="8.0189833"><ele>721.0</ele><time>2026-04-03T11:53:32.938Z</time></trkpt><trkpt lat="44.1016417" lon="8.0188733"><ele>717.0</ele><time>2026-04-03T11:53:33.938Z</time></trkpt><trkpt lat="44.10171" lon="8.0187717"><ele>717.0</ele><time>2026-04-03T11:53:34.938Z</time></trkpt><trkpt lat="44.1017817" lon="8.01868"><ele>717.0</ele><time>2026-04-03T11:53:35.938Z</time></trkpt><trkpt lat="44.10185" lon="8.01858"><ele>717.0</ele><time>2026-04-03T11:53:36.938Z</time></trkpt><trkpt lat="44.1019317" lon="8.0185"><ele>717.0</ele><time>2026-04-03T11:53:37.938Z</time></trkpt><trkpt lat="44.1020067" lon="8.018425"><ele>717.0</ele><time>2026-04-03T11:53:38.938Z</time></trkpt><trkpt lat="44.10207" lon="8.0183267"><ele>712.3333333333334</ele><time>2026-04-03T11:53:39.938Z</time></trkpt><trkpt lat="44.1021433" lon="8.01824"><ele>707.6666666666666</ele><time>2026-04-03T11:53:40.938Z</time></trkpt><trkpt lat="44.10221" lon="8.01816"><ele>703.0</ele><time>2026-04-03T11:53:41.938Z</time></trkpt><trkpt lat="44.10226" lon="8.0180283"><ele>698.3333333333333</ele><time>2026-04-03T11:53:42.937Z</time></trkpt><trkpt lat="44.1022717" lon="8.0179417"><ele>693.6666666666666</ele><time>2026-04-03T11:53:43.938Z</time></trkpt><trkpt lat="44.1022483" lon="8.0178467"><ele>689.0</ele><time>2026-04-03T11:53:45.938Z</time></trkpt><trkpt lat="44.102175" lon="8.0179467"><ele>689.0</ele><time>2026-04-03T11:53:48.937Z</time></trkpt><trkpt lat="44.10212" lon="8.0180167"><ele>689.0</ele><time>2026-04-03T11:53:49.937Z</time></trkpt><trkpt lat="44.1020517" lon="8.018075"><ele>689.0</ele><time>2026-04-03T11:53:50.937Z</time></trkpt><trkpt lat="44.1019617" lon="8.0181267"><ele>689.0</ele><time>2026-04-03T11:53:51.937Z</time></trkpt><trkpt lat="44.1018883" lon="8.01817"><ele>689.0</ele><time>2026-04-03T11:53:52.937Z</time></trkpt><trkpt lat="44.1017733" lon="8.018225"><ele>689.0</ele><time>2026-04-03T11:53:53.938Z</time></trkpt><trkpt lat="44.10164" lon="8.0182767"><ele>689.0</ele><time>2026-04-03T11:53:54.938Z</time></trkpt><trkpt lat="44.10152" lon="8.0183117"><ele>689.0</ele><time>2026-04-03T11:53:55.937Z</time></trkpt><trkpt lat="44.101415" lon="8.01835"><ele>689.0</ele><time>2026-04-03T11:53:56.938Z</time></trkpt><trkpt lat="44.10131" lon="8.01837"><ele>693.0</ele><time>2026-04-03T11:53:57.938Z</time></trkpt><trkpt lat="44.10119" lon="8.0183967"><ele>697.0</ele><time>2026-04-03T11:53:58.938Z</time></trkpt><trkpt lat="44.1010583" lon="8.0184283"><ele>701.0</ele><time>2026-04-03T11:53:59.938Z</time></trkpt><trkpt lat="44.100925" lon="8.0184733"><ele>705.0</ele><time>2026-04-03T11:54:00.937Z</time></trkpt><trkpt lat="44.100795" lon="8.01849"><ele>702.25</ele><time>2026-04-03T11:54:01.938Z</time></trkpt><trkpt lat="44.10064" lon="8.0184983"><ele>699.5</ele><time>2026-04-03T11:54:02.938Z</time></trkpt><trkpt lat="44.100525" lon="8.0185183"><ele>696.75</ele><time>2026-04-03T11:54:03.938Z</time></trkpt><trkpt lat="44.1004233" lon="8.0185583"><ele>694.0</ele><time>2026-04-03T11:54:04.937Z</time></trkpt><trkpt lat="44.1003533" lon="8.01861"><ele>694.0</ele><time>2026-04-03T11:54:05.938Z</time></trkpt><trkpt lat="44.1002667" lon="8.018645"><ele>694.0</ele><time>2026-04-03T11:54:06.938Z</time></trkpt><trkpt lat="44.1001783" lon="8.018665"><ele>694.0</ele><time>2026-04-03T11:54:07.938Z</time></trkpt><trkpt lat="44.1000967" lon="8.0186867"><ele>694.0</ele><time>2026-04-03T11:54:08.938Z</time></trkpt><trkpt lat="44.1000167" lon="8.01869"><ele>694.0</ele><time>2026-04-03T11:54:09.938Z</time></trkpt><trkpt lat="44.0999533" lon="8.0186917"><ele>694.0</ele><time>2026-04-03T11:54:10.937Z</time></trkpt><trkpt lat="44.0998383" lon="8.0186917"><ele>694.0</ele><time>2026-04-03T11:54:12.938Z</time></trkpt><trkpt lat="44.0997917" lon="8.01862"><ele>694.0</ele><time>2026-04-03T11:54:15.937Z</time></trkpt><trkpt lat="44.0998817" lon="8.01856"><ele>694.0</ele><time>2026-04-03T11:54:17.938Z</time></trkpt><trkpt lat="44.0999583" lon="8.0185367"><ele>694.0</ele><time>2026-04-03T11:54:18.938Z</time></trkpt><trkpt lat="44.1000567" lon="8.0185067"><ele>694.0</ele><time>2026-04-03T11:54:19.938Z</time></trkpt><trkpt lat="44.100145" lon="8.0184567"><ele>694.0</ele><time>2026-04-03T11:54:20.937Z</time></trkpt><trkpt lat="44.10024" lon="8.0184017"><ele>694.0</ele><time>2026-04-03T11:54:21.938Z</time></trkpt><trkpt lat="44.1003367" lon="8.0183283"><ele>694.0</ele><time>2026-04-03T11:54:22.938Z</time></trkpt><trkpt lat="44.10043" lon="8.0182483"><ele>694.0</ele><time>2026-04-03T11:54:23.938Z</time></trkpt><trkpt lat="44.1005167" lon="8.01818"><ele>694.0</ele><time>2026-04-03T11:54:24.937Z</time></trkpt><trkpt lat="44.1005817" lon="8.0181183"><ele>694.0</ele><time>2026-04-03T11:54:25.937Z</time></trkpt><trkpt lat="44.1006483" lon="8.0180767"><ele>687.8000000000001</ele><time>2026-04-03T11:54:26.937Z</time></trkpt><trkpt lat="44.100675" lon="8.0179783"><ele>681.6</ele><time>2026-04-03T11:54:28.938Z</time></trkpt><trkpt lat="44.10059" lon="8.0179133"><ele>675.4</ele><time>2026-04-03T11:54:31.938Z</time></trkpt><trkpt lat="44.10044" lon="8.0179083"><ele>669.2</ele><time>2026-04-03T11:54:33.938Z</time></trkpt><trkpt lat="44.10034" lon="8.0179183"><ele>663.0</ele><time>2026-04-03T11:54:34.937Z</time></trkpt><trkpt lat="44.100255" lon="8.0179533"><ele>663.0</ele><time>2026-04-03T11:54:35.938Z</time></trkpt><trkpt lat="44.1001617" lon="8.018005"><ele>663.0</ele><time>2026-04-03T11:54:36.937Z</time></trkpt><trkpt lat="44.10006" lon="8.01807"><ele>663.0</ele><time>2026-04-03T11:54:37.938Z</time></trkpt><trkpt lat="44.09996" lon="8.0181333"><ele>663.0</ele><time>2026-04-03T11:54:38.938Z</time></trkpt><trkpt lat="44.0998583" lon="8.01819"><ele>663.0</ele><time>2026-04-03T11:54:39.938Z</time></trkpt><trkpt lat="44.099765" lon="8.0182167"><ele>662.5</ele><time>2026-04-03T11:54:40.937Z</time></trkpt><trkpt lat="44.0996733" lon="8.0182367"><ele>662.0</ele><time>2026-04-03T11:54:41.938Z</time></trkpt><trkpt lat="44.0995983" lon="8.0182583"><ele>661.5</ele><time>2026-04-03T11:54:42.938Z</time></trkpt><trkpt lat="44.0995183" lon="8.0182967"><ele>661.0</ele><time>2026-04-03T11:54:45.938Z</time></trkpt><trkpt lat="44.0994117" lon="8.0183633"><ele>660.5</ele><time>2026-04-03T11:56:57.937Z</time></trkpt><trkpt lat="44.099345" lon="8.0183683"><ele>660.0</ele><time>2026-04-03T11:57:00.936Z</time></trkpt><trkpt lat="44.0992283" lon="8.0183717"><ele>664.3333333333334</ele><time>2026-04-03T11:57:07.936Z</time></trkpt><trkpt lat="44.0991517" lon="8.0183667"><ele>668.6666666666666</ele><time>2026-04-03T11:57:08.937Z</time></trkpt><trkpt lat="44.09906" lon="8.0183567"><ele>673.0</ele><time>2026-04-03T11:57:09.937Z</time></trkpt><trkpt lat="44.09897" lon="8.018345"><ele>677.3333333333333</ele><time>2026-04-03T11:57:10.936Z</time></trkpt><trkpt lat="44.0988933" lon="8.018325"><ele>681.6666666666666</ele><time>2026-04-03T11:57:11.936Z</time></trkpt><trkpt lat="44.0988367" lon="8.0182633"><ele>686.0</ele><time>2026-04-03T11:57:12.937Z</time></trkpt><trkpt lat="44.098805" lon="8.018175"><ele>683.8</ele><time>2026-04-03T11:57:13.936Z</time></trkpt><trkpt lat="44.098795" lon="8.018055"><ele>681.5999999999999</ele><time>2026-04-03T11:57:14.937Z</time></trkpt><trkpt lat="44.098785" lon="8.01792"><ele>679.4</ele><time>2026-04-03T11:57:15.937Z</time></trkpt><trkpt lat="44.0987533" lon="8.0177733"><ele>677.2</ele><time>2026-04-03T11:57:16.937Z</time></trkpt><trkpt lat="44.0986983" lon="8.0176117"><ele>675.0</ele><time>2026-04-03T11:57:17.937Z</time></trkpt><trkpt lat="44.0986317" lon="8.0174617"><ele>675.0</ele><time>2026-04-03T11:57:18.937Z</time></trkpt><trkpt lat="44.098575" lon="8.0173"><ele>675.0</ele><time>2026-04-03T11:57:19.936Z</time></trkpt><trkpt lat="44.0985283" lon="8.01716"><ele>675.0</ele><time>2026-04-03T11:57:20.936Z</time></trkpt><trkpt lat="44.0984933" lon="8.0170483"><ele>675.0</ele><time>2026-04-03T11:57:21.937Z</time></trkpt><trkpt lat="44.0984517" lon="8.0169483"><ele>675.0</ele><time>2026-04-03T11:57:22.937Z</time></trkpt><trkpt lat="44.0983867" lon="8.01685"><ele>675.0</ele><time>2026-04-03T11:57:23.937Z</time></trkpt><trkpt lat="44.0983017" lon="8.01674"><ele>675.0</ele><time>2026-04-03T11:57:24.937Z</time></trkpt><trkpt lat="44.0982167" lon="8.016645"><ele>675.0</ele><time>2026-04-03T11:57:25.937Z</time></trkpt><trkpt lat="44.0981233" lon="8.01655"><ele>675.0</ele><time>2026-04-03T11:57:26.937Z</time></trkpt><trkpt lat="44.0980333" lon="8.0164583"><ele>681.0</ele><time>2026-04-03T11:57:27.937Z</time></trkpt><trkpt lat="44.0979567" lon="8.0163717"><ele>687.0</ele><time>2026-04-03T11:57:28.937Z</time></trkpt><trkpt lat="44.0978833" lon="8.016305"><ele>693.0</ele><time>2026-04-03T11:57:29.936Z</time></trkpt><trkpt lat="44.0978267" lon="8.0162283"><ele>699.0</ele><time>2026-04-03T11:57:30.937Z</time></trkpt><trkpt lat="44.0977833" lon="8.0160517"><ele>705.0</ele><time>2026-04-03T11:57:32.937Z</time></trkpt><trkpt lat="44.0977717" lon="8.0159317"><ele>705.6</ele><time>2026-04-03T11:57:33.937Z</time></trkpt><trkpt lat="44.0977317" lon="8.0158033"><ele>706.2</ele><time>2026-04-03T11:57:34.936Z</time></trkpt><trkpt lat="44.0976933" lon="8.0156917"><ele>706.8</ele><time>2026-04-03T11:57:35.936Z</time></trkpt><trkpt lat="44.0976683" lon="8.0156033"><ele>707.4</ele><time>2026-04-03T11:57:36.937Z</time></trkpt><trkpt lat="44.0976883" lon="8.0154517"><ele>708.0</ele><time>2026-04-03T11:57:38.936Z</time></trkpt><trkpt lat="44.0977583" lon="8.0152817"><ele>708.0</ele><time>2026-04-03T11:57:40.937Z</time></trkpt><trkpt lat="44.09779" lon="8.0151533"><ele>708.0</ele><time>2026-04-03T11:57:41.937Z</time></trkpt><trkpt lat="44.0978267" lon="8.0149967"><ele>708.0</ele><time>2026-04-03T11:57:42.936Z</time></trkpt><trkpt lat="44.0978583" lon="8.014815"><ele>708.0</ele><time>2026-04-03T11:57:43.937Z</time></trkpt><trkpt lat="44.097895" lon="8.0146717"><ele>708.0</ele><time>2026-04-03T11:57:44.936Z</time></trkpt><trkpt lat="44.0979283" lon="8.0145567"><ele>708.0</ele><time>2026-04-03T11:57:45.936Z</time></trkpt><trkpt lat="44.0979633" lon="8.0144567"><ele>708.0</ele><time>2026-04-03T11:57:46.937Z</time></trkpt><trkpt lat="44.0979917" lon="8.0143567"><ele>708.0</ele><time>2026-04-03T11:57:47.937Z</time></trkpt><trkpt lat="44.09801" lon="8.0142717"><ele>708.0</ele><time>2026-04-03T11:57:48.937Z</time></trkpt><trkpt lat="44.0980117" lon="8.01418"><ele>708.0</ele><time>2026-04-03T11:57:50.937Z</time></trkpt><trkpt lat="44.0979867" lon="8.0140883"><ele>708.0</ele><time>2026-04-03T11:57:52.937Z</time></trkpt><trkpt lat="44.0979433" lon="8.0140067"><ele>704.1666666666666</ele><time>2026-04-03T11:58:09.937Z</time></trkpt><trkpt lat="44.0978667" lon="8.013925"><ele>700.3333333333334</ele><time>2026-04-03T11:58:11.936Z</time></trkpt><trkpt lat="44.09781" lon="8.01387"><ele>696.5</ele><time>2026-04-03T11:58:12.936Z</time></trkpt><trkpt lat="44.09775" lon="8.013805"><ele>692.6666666666667</ele><time>2026-04-03T11:58:13.936Z</time></trkpt><trkpt lat="44.0976883" lon="8.013745"><ele>688.8333333333334</ele><time>2026-04-03T11:58:14.937Z</time></trkpt><trkpt lat="44.09762" lon="8.0136633"><ele>685.0</ele><time>2026-04-03T11:58:16.936Z</time></trkpt><trkpt lat="44.0975767" lon="8.0135833"><ele>685.0</ele><time>2026-04-03T11:58:18.937Z</time></trkpt><trkpt lat="44.0974917" lon="8.0134667"><ele>685.0</ele><time>2026-04-03T11:58:20.936Z</time></trkpt><trkpt lat="44.097435" lon="8.01342"><ele>685.0</ele><time>2026-04-03T11:58:21.936Z</time></trkpt><trkpt lat="44.09734" lon="8.013285"><ele>685.0</ele><time>2026-04-03T11:58:23.936Z</time></trkpt><trkpt lat="44.0972917" lon="8.01318"><ele>685.0</ele><time>2026-04-03T11:58:24.937Z</time></trkpt><trkpt lat="44.0972333" lon="8.0131"><ele>690.6</ele><time>2026-04-03T11:58:25.937Z</time></trkpt><trkpt lat="44.097165" lon="8.01302"><ele>696.2</ele><time>2026-04-03T11:58:26.936Z</time></trkpt><trkpt lat="44.097115" lon="8.0128517"><ele>701.8</ele><time>2026-04-03T11:58:28.937Z</time></trkpt><trkpt lat="44.0971067" lon="8.012735"><ele>707.4</ele><time>2026-04-03T11:58:29.936Z</time></trkpt><trkpt lat="44.0971133" lon="8.012615"><ele>713.0</ele><time>2026-04-03T11:58:30.937Z</time></trkpt><trkpt lat="44.09712" lon="8.0124867"><ele>716.0</ele><time>2026-04-03T11:58:31.937Z</time></trkpt><trkpt lat="44.0971233" lon="8.0123567"><ele>719.0</ele><time>2026-04-03T11:58:32.936Z</time></trkpt><trkpt lat="44.097175" lon="8.0122817"><ele>722.0</ele><time>2026-04-03T11:58:33.936Z</time></trkpt><trkpt lat="44.097235" lon="8.012185"><ele>725.0</ele><time>2026-04-03T11:58:34.936Z</time></trkpt><trkpt lat="44.0973417" lon="8.0120717"><ele>728.0</ele><time>2026-04-03T11:58:35.937Z</time></trkpt><trkpt lat="44.09744" lon="8.01194"><ele>727.5</ele><time>2026-04-03T11:58:36.937Z</time></trkpt><trkpt lat="44.0975333" lon="8.0118233"><ele>727.0</ele><time>2026-04-03T11:58:37.937Z</time></trkpt><trkpt lat="44.0976317" lon="8.0116933"><ele>726.5</ele><time>2026-04-03T11:58:38.937Z</time></trkpt><trkpt lat="44.0977233" lon="8.01158"><ele>726.0</ele><time>2026-04-03T11:58:39.936Z</time></trkpt><trkpt lat="44.0978267" lon="8.0114667"><ele>726.0</ele><time>2026-04-03T11:58:40.937Z</time></trkpt><trkpt lat="44.097935" lon="8.0113617"><ele>726.0</ele><time>2026-04-03T11:58:41.936Z</time></trkpt><trkpt lat="44.098055" lon="8.0112667"><ele>726.0</ele><time>2026-04-03T11:58:42.937Z</time></trkpt><trkpt lat="44.098165" lon="8.0111917"><ele>726.0</ele><time>2026-04-03T11:58:43.937Z</time></trkpt><trkpt lat="44.0982767" lon="8.011115"><ele>719.0</ele><time>2026-04-03T11:58:44.936Z</time></trkpt><trkpt lat="44.09839" lon="8.0110467"><ele>712.0</ele><time>2026-04-03T11:58:45.937Z</time></trkpt><trkpt lat="44.098505" lon="8.0109883"><ele>705.0</ele><time>2026-04-03T11:58:46.936Z</time></trkpt><trkpt lat="44.0986267" lon="8.010955"><ele>698.0</ele><time>2026-04-03T11:58:47.937Z</time></trkpt><trkpt lat="44.0987683" lon="8.0109483"><ele>698.0</ele><time>2026-04-03T11:58:48.937Z</time></trkpt><trkpt lat="44.09891" lon="8.010965"><ele>698.0</ele><time>2026-04-03T11:58:49.937Z</time></trkpt><trkpt lat="44.0990417" lon="8.01097"><ele>698.0</ele><time>2026-04-03T11:58:50.936Z</time></trkpt><trkpt lat="44.0991633" lon="8.010965"><ele>698.0</ele><time>2026-04-03T11:58:51.937Z</time></trkpt><trkpt lat="44.0992717" lon="8.0109617"><ele>697.1666666666666</ele><time>2026-04-03T11:58:52.937Z</time></trkpt><trkpt lat="44.0993667" lon="8.0109167"><ele>696.3333333333333</ele><time>2026-04-03T11:58:53.936Z</time></trkpt><trkpt lat="44.0994417" lon="8.01086"><ele>695.5</ele><time>2026-04-03T11:58:54.937Z</time></trkpt><trkpt lat="44.09951" lon="8.0107933"><ele>694.6666666666666</ele><time>2026-04-03T11:58:55.937Z</time></trkpt><trkpt lat="44.099565" lon="8.010735"><ele>693.8333333333334</ele><time>2026-04-03T11:58:56.937Z</time></trkpt><trkpt lat="44.099555" lon="8.010605"><ele>693.0</ele><time>2026-04-03T11:58:58.937Z</time></trkpt><trkpt lat="44.0994833" lon="8.0105067"><ele>693.0</ele><time>2026-04-03T11:58:59.937Z</time></trkpt><trkpt lat="44.0993967" lon="8.0104033"><ele>693.0</ele><time>2026-04-03T11:59:00.937Z</time></trkpt><trkpt lat="44.0993433" lon="8.010295"><ele>693.0</ele><time>2026-04-03T11:59:01.936Z</time></trkpt><trkpt lat="44.0993" lon="8.010175"><ele>693.0</ele><time>2026-04-03T11:59:02.936Z</time></trkpt><trkpt lat="44.0992833" lon="8.01004"><ele>693.0</ele><time>2026-04-03T11:59:03.937Z</time></trkpt><trkpt lat="44.0992983" lon="8.0099017"><ele>690.2</ele><time>2026-04-03T11:59:04.937Z</time></trkpt><trkpt lat="44.099345" lon="8.0097417"><ele>687.4</ele><time>2026-04-03T11:59:05.936Z</time></trkpt><trkpt lat="44.0994017" lon="8.00958"><ele>684.6</ele><time>2026-04-03T11:59:06.937Z</time></trkpt><trkpt lat="44.0994483" lon="8.0094583"><ele>681.8000000000001</ele><time>2026-04-03T11:59:07.937Z</time></trkpt><trkpt lat="44.099475" lon="8.0093467"><ele>679.0</ele><time>2026-04-03T11:59:08.937Z</time></trkpt><trkpt lat="44.0994867" lon="8.0092333"><ele>672.8000000000001</ele><time>2026-04-03T11:59:09.936Z</time></trkpt><trkpt lat="44.09945" lon="8.009115"><ele>666.6</ele><time>2026-04-03T11:59:10.937Z</time></trkpt><trkpt lat="44.0993817" lon="8.009025"><ele>660.4</ele><time>2026-04-03T11:59:11.937Z</time></trkpt><trkpt lat="44.0993117" lon="8.0089533"><ele>654.2</ele><time>2026-04-03T11:59:12.936Z</time></trkpt><trkpt lat="44.099215" lon="8.0089083"><ele>648.0</ele><time>2026-04-03T11:59:13.937Z</time></trkpt><trkpt lat="44.099085" lon="8.0088867"><ele>654.4</ele><time>2026-04-03T11:59:14.937Z</time></trkpt><trkpt lat="44.0989317" lon="8.0088883"><ele>660.8</ele><time>2026-04-03T11:59:15.937Z</time></trkpt><trkpt lat="44.0988083" lon="8.0088733"><ele>667.2</ele><time>2026-04-03T11:59:16.937Z</time></trkpt><trkpt lat="44.0987117" lon="8.00886"><ele>673.6</ele><time>2026-04-03T11:59:17.937Z</time></trkpt><trkpt lat="44.0986517" lon="8.0088317"><ele>680.0</ele><time>2026-04-03T11:59:18.936Z</time></trkpt><trkpt lat="44.098575" lon="8.0087817"><ele>680.0</ele><time>2026-04-03T11:59:20.937Z</time></trkpt><trkpt lat="44.0985483" lon="8.00864"><ele>680.0</ele><time>2026-04-03T11:59:22.936Z</time></trkpt><trkpt lat="44.0984917" lon="8.0085017"><ele>680.0</ele><time>2026-04-03T11:59:23.936Z</time></trkpt><trkpt lat="44.09844" lon="8.0084383"><ele>680.0</ele><time>2026-04-03T11:59:24.937Z</time></trkpt><trkpt lat="44.0983633" lon="8.0083717"><ele>680.0</ele><time>2026-04-03T11:59:25.937Z</time></trkpt><trkpt lat="44.098295" lon="8.008295"><ele>688.1666666666666</ele><time>2026-04-03T11:59:26.937Z</time></trkpt><trkpt lat="44.0982217" lon="8.0082267"><ele>696.3333333333333</ele><time>2026-04-03T11:59:27.937Z</time></trkpt><trkpt lat="44.0981633" lon="8.00814"><ele>704.5</ele><time>2026-04-03T11:59:28.937Z</time></trkpt><trkpt lat="44.09811" lon="8.0080217"><ele>712.6666666666666</ele><time>2026-04-03T11:59:29.937Z</time></trkpt><trkpt lat="44.0980917" lon="8.00791"><ele>720.8333333333334</ele><time>2026-04-03T11:59:30.937Z</time></trkpt><trkpt lat="44.0980933" lon="8.00781"><ele>729.0</ele><time>2026-04-03T11:59:31.936Z</time></trkpt><trkpt lat="44.098105" lon="8.0076867"><ele>729.0</ele><time>2026-04-03T11:59:32.937Z</time></trkpt><trkpt lat="44.0981133" lon="8.00755"><ele>729.0</ele><time>2026-04-03T11:59:33.937Z</time></trkpt><trkpt lat="44.0981233" lon="8.0074217"><ele>729.0</ele><time>2026-04-03T11:59:34.937Z</time></trkpt><trkpt lat="44.0981617" lon="8.0073133"><ele>729.0</ele><time>2026-04-03T11:59:35.937Z</time></trkpt><trkpt lat="44.098195" lon="8.007165"><ele>729.0</ele><time>2026-04-03T11:59:36.937Z</time></trkpt><trkpt lat="44.0982283" lon="8.0070183"><ele>719.5</ele><time>2026-04-03T11:59:37.936Z</time></trkpt><trkpt lat="44.09827" lon="8.0068717"><ele>710.0</ele><time>2026-04-03T11:59:38.937Z</time></trkpt><trkpt lat="44.0983183" lon="8.0067117"><ele>700.5</ele><time>2026-04-03T11:59:39.936Z</time></trkpt><trkpt lat="44.0983883" lon="8.006555"><ele>691.0</ele><time>2026-04-03T11:59:40.937Z</time></trkpt><trkpt lat="44.09846" lon="8.0063933"><ele>691.0</ele><time>2026-04-03T11:59:41.937Z</time></trkpt><trkpt lat="44.0985233" lon="8.0062567"><ele>691.0</ele><time>2026-04-03T11:59:42.937Z</time></trkpt><trkpt lat="44.0985983" lon="8.0061283"><ele>691.0</ele><time>2026-04-03T11:59:43.937Z</time></trkpt><trkpt lat="44.0986683" lon="8.0060217"><ele>691.0</ele><time>2026-04-03T11:59:44.937Z</time></trkpt><trkpt lat="44.098715" lon="8.0059317"><ele>691.0</ele><time>2026-04-03T11:59:45.936Z</time></trkpt><trkpt lat="44.0988267" lon="8.0058467"><ele>688.0</ele><time>2026-04-03T11:59:46.936Z</time></trkpt><trkpt lat="44.09891" lon="8.0057633"><ele>685.0</ele><time>2026-04-03T11:59:47.935Z</time></trkpt><trkpt lat="44.0989817" lon="8.00569"><ele>682.0</ele><time>2026-04-03T11:59:48.935Z</time></trkpt><trkpt lat="44.0990317" lon="8.0055617"><ele>679.0</ele><time>2026-04-03T11:59:50.935Z</time></trkpt><trkpt lat="44.0989667" lon="8.0055267"><ele>676.0</ele><time>2026-04-03T11:59:51.936Z</time></trkpt><trkpt lat="44.0988933" lon="8.0055083"><ele>673.0</ele><time>2026-04-03T11:59:52.936Z</time></trkpt><trkpt lat="44.0988117" lon="8.0055"><ele>673.0</ele><time>2026-04-03T11:59:53.936Z</time></trkpt><trkpt lat="44.098705" lon="8.0054917"><ele>673.0</ele><time>2026-04-03T11:59:54.936Z</time></trkpt><trkpt lat="44.0985983" lon="8.0054933"><ele>673.0</ele><time>2026-04-03T11:59:55.936Z</time></trkpt><trkpt lat="44.0984983" lon="8.0055133"><ele>673.0</ele><time>2026-04-03T11:59:56.936Z</time></trkpt><trkpt lat="44.0984133" lon="8.0055133"><ele>673.0</ele><time>2026-04-03T11:59:57.936Z</time></trkpt><trkpt lat="44.0983483" lon="8.0054917"><ele>673.0</ele><time>2026-04-03T11:59:58.935Z</time></trkpt><trkpt lat="44.09826" lon="8.0054017"><ele>673.0</ele><time>2026-04-03T12:00:00.936Z</time></trkpt><trkpt lat="44.098185" lon="8.0053067"><ele>673.0</ele><time>2026-04-03T12:00:02.936Z</time></trkpt><trkpt lat="44.0980933" lon="8.0052317"><ele>673.0</ele><time>2026-04-03T12:00:04.935Z</time></trkpt><trkpt lat="44.0979883" lon="8.0051767"><ele>673.0</ele><time>2026-04-03T12:00:06.935Z</time></trkpt><trkpt lat="44.097895" lon="8.0051233"><ele>673.6666666666667</ele><time>2026-04-03T12:00:08.936Z</time></trkpt><trkpt lat="44.097805" lon="8.00505"><ele>674.3333333333334</ele><time>2026-04-03T12:00:10.936Z</time></trkpt><trkpt lat="44.09775" lon="8.0049967"><ele>675.0</ele><time>2026-04-03T12:00:11.936Z</time></trkpt><trkpt lat="44.0976867" lon="8.0049217"><ele>675.6666666666666</ele><time>2026-04-03T12:00:12.935Z</time></trkpt><trkpt lat="44.09764" lon="8.0048383"><ele>676.3333333333333</ele><time>2026-04-03T12:00:13.936Z</time></trkpt><trkpt lat="44.09755" lon="8.0047533"><ele>677.0</ele><time>2026-04-03T12:00:15.936Z</time></trkpt><trkpt lat="44.09749" lon="8.0047133"><ele>685.8</ele><time>2026-04-03T12:00:16.935Z</time></trkpt><trkpt lat="44.0973867" lon="8.00461"><ele>694.6</ele><time>2026-04-03T12:00:18.935Z</time></trkpt><trkpt lat="44.0973367" lon="8.00452"><ele>703.4</ele><time>2026-04-03T12:00:19.935Z</time></trkpt><trkpt lat="44.0972867" lon="8.0044083"><ele>712.1999999999999</ele><time>2026-04-03T12:00:20.936Z</time></trkpt><trkpt lat="44.0972267" lon="8.00431"><ele>721.0</ele><time>2026-04-03T12:00:21.936Z</time></trkpt><trkpt lat="44.09714" lon="8.0042267"><ele>715.8</ele><time>2026-04-03T12:00:22.935Z</time></trkpt><trkpt lat="44.09705" lon="8.00415"><ele>710.5999999999999</ele><time>2026-04-03T12:00:23.936Z</time></trkpt><trkpt lat="44.0969517" lon="8.004085"><ele>705.4</ele><time>2026-04-03T12:00:24.935Z</time></trkpt><trkpt lat="44.096865" lon="8.0040417"><ele>700.2</ele><time>2026-04-03T12:00:25.936Z</time></trkpt><trkpt lat="44.09679" lon="8.0039867"><ele>695.0</ele><time>2026-04-03T12:00:26.936Z</time></trkpt><trkpt lat="44.0967267" lon="8.0039683"><ele>695.0</ele><time>2026-04-03T12:00:27.935Z</time></trkpt><trkpt lat="44.0966667" lon="8.003915"><ele>695.0</ele><time>2026-04-03T12:00:28.936Z</time></trkpt><trkpt lat="44.0966267" lon="8.003825"><ele>695.0</ele><time>2026-04-03T12:00:29.935Z</time></trkpt><trkpt lat="44.0965933" lon="8.003715"><ele>695.0</ele><time>2026-04-03T12:00:30.935Z</time></trkpt><trkpt lat="44.09655" lon="8.0035817"><ele>695.0</ele><time>2026-04-03T12:00:31.936Z</time></trkpt><trkpt lat="44.096495" lon="8.00347"><ele>695.0</ele><time>2026-04-03T12:00:32.935Z</time></trkpt><trkpt lat="44.0964367" lon="8.00336"><ele>705.8</ele><time>2026-04-03T12:00:33.935Z</time></trkpt><trkpt lat="44.0963667" lon="8.0032783"><ele>716.6</ele><time>2026-04-03T12:00:34.936Z</time></trkpt><trkpt lat="44.0963117" lon="8.00319"><ele>727.4000000000001</ele><time>2026-04-03T12:00:35.936Z</time></trkpt><trkpt lat="44.09627" lon="8.0030833"><ele>738.2</ele><time>2026-04-03T12:00:36.936Z</time></trkpt><trkpt lat="44.0962517" lon="8.002955"><ele>749.0</ele><time>2026-04-03T12:00:37.936Z</time></trkpt><trkpt lat="44.09624" lon="8.002815"><ele>749.0</ele><time>2026-04-03T12:00:38.936Z</time></trkpt><trkpt lat="44.0962633" lon="8.0026583"><ele>749.0</ele><time>2026-04-03T12:00:39.936Z</time></trkpt><trkpt lat="44.0962733" lon="8.0025133"><ele>749.0</ele><time>2026-04-03T12:00:40.935Z</time></trkpt><trkpt lat="44.096285" lon="8.0023883"><ele>749.0</ele><time>2026-04-03T12:00:41.936Z</time></trkpt><trkpt lat="44.0963" lon="8.00224"><ele>749.0</ele><time>2026-04-03T12:00:42.936Z</time></trkpt><trkpt lat="44.0963133" lon="8.0020933"><ele>750.8333333333333</ele><time>2026-04-03T12:00:43.936Z</time></trkpt><trkpt lat="44.0963333" lon="8.00196"><ele>752.6666666666666</ele><time>2026-04-03T12:00:44.936Z</time></trkpt><trkpt lat="44.09636" lon="8.001815"><ele>754.5</ele><time>2026-04-03T12:00:45.936Z</time></trkpt><trkpt lat="44.0963867" lon="8.0017183"><ele>756.3333333333334</ele><time>2026-04-03T12:00:46.935Z</time></trkpt><trkpt lat="44.09639" lon="8.0016083"><ele>758.1666666666667</ele><time>2026-04-03T12:00:47.936Z</time></trkpt><trkpt lat="44.0963683" lon="8.0014867"><ele>760.0</ele><time>2026-04-03T12:00:48.936Z</time></trkpt><trkpt lat="44.0963317" lon="8.0013583"><ele>760.0</ele><time>2026-04-03T12:00:49.936Z</time></trkpt><trkpt lat="44.0963" lon="8.0012483"><ele>760.0</ele><time>2026-04-03T12:00:50.936Z</time></trkpt><trkpt lat="44.0962817" lon="8.0011317"><ele>760.0</ele><time>2026-04-03T12:00:51.936Z</time></trkpt><trkpt lat="44.096275" lon="8.0010167"><ele>760.0</ele><time>2026-04-03T12:00:52.935Z</time></trkpt><trkpt lat="44.0962933" lon="8.0008967"><ele>760.0</ele><time>2026-04-03T12:00:53.936Z</time></trkpt><trkpt lat="44.0962867" lon="8.00076"><ele>760.0</ele><time>2026-04-03T12:00:54.935Z</time></trkpt><trkpt lat="44.09627" lon="8.0006117"><ele>757.5</ele><time>2026-04-03T12:00:55.935Z</time></trkpt><trkpt lat="44.0962483" lon="8.000445"><ele>755.0</ele><time>2026-04-03T12:00:56.936Z</time></trkpt><trkpt lat="44.0962117" lon="8.0002733"><ele>752.5</ele><time>2026-04-03T12:00:57.936Z</time></trkpt><trkpt lat="44.09618" lon="8.0001183"><ele>750.0</ele><time>2026-04-03T12:00:58.936Z</time></trkpt><trkpt lat="44.0961533" lon="7.999955"><ele>750.0</ele><time>2026-04-03T12:00:59.936Z</time></trkpt><trkpt lat="44.09612" lon="7.9997933"><ele>750.0</ele><time>2026-04-03T12:01:00.936Z</time></trkpt><trkpt lat="44.0960883" lon="7.9996417"><ele>750.0</ele><time>2026-04-03T12:01:01.935Z</time></trkpt><trkpt lat="44.0960517" lon="7.999515"><ele>750.0</ele><time>2026-04-03T12:01:02.936Z</time></trkpt><trkpt lat="44.0960283" lon="7.9993817"><ele>750.0</ele><time>2026-04-03T12:01:03.936Z</time></trkpt><trkpt lat="44.0959967" lon="7.9992467"><ele>749.6</ele><time>2026-04-03T12:01:04.936Z</time></trkpt><trkpt lat="44.0959817" lon="7.99911"><ele>749.2</ele><time>2026-04-03T12:01:05.936Z</time></trkpt><trkpt lat="44.09597" lon="7.9989883"><ele>748.8</ele><time>2026-04-03T12:01:06.936Z</time></trkpt><trkpt lat="44.0959517" lon="7.998875"><ele>748.4</ele><time>2026-04-03T12:01:07.936Z</time></trkpt><trkpt lat="44.095925" lon="7.9987533"><ele>748.0</ele><time>2026-04-03T12:01:08.936Z</time></trkpt><trkpt lat="44.0959033" lon="7.9986317"><ele>748.0</ele><time>2026-04-03T12:01:09.936Z</time></trkpt><trkpt lat="44.09589" lon="7.998505"><ele>748.0</ele><time>2026-04-03T12:01:10.936Z</time></trkpt><trkpt lat="44.0958933" lon="7.9984083"><ele>748.0</ele><time>2026-04-03T12:01:11.936Z</time></trkpt><trkpt lat="44.0959083" lon="7.998275"><ele>748.0</ele><time>2026-04-03T12:01:12.935Z</time></trkpt><trkpt lat="44.0959267" lon="7.9981367"><ele>748.0</ele><time>2026-04-03T12:01:13.935Z</time></trkpt><trkpt lat="44.0959383" lon="7.9979967"><ele>748.0</ele><time>2026-04-03T12:01:14.936Z</time></trkpt><trkpt lat="44.0959483" lon="7.9978583"><ele>748.0</ele><time>2026-04-03T12:01:15.936Z</time></trkpt><trkpt lat="44.095955" lon="7.997725"><ele>748.0</ele><time>2026-04-03T12:01:16.935Z</time></trkpt><trkpt lat="44.09596" lon="7.99761"><ele>748.0</ele><time>2026-04-03T12:01:17.935Z</time></trkpt><trkpt lat="44.09598" lon="7.9974967"><ele>748.0</ele><time>2026-04-03T12:01:18.936Z</time></trkpt><trkpt lat="44.096005" lon="7.9973967"><ele>748.0</ele><time>2026-04-03T12:01:19.936Z</time></trkpt><trkpt lat="44.09603" lon="7.9973067"><ele>748.0</ele><time>2026-04-03T12:01:21.936Z</time></trkpt><trkpt lat="44.0959783" lon="7.9973633"><ele>748.0</ele><time>2026-04-03T12:01:41.935Z</time></trkpt><trkpt lat="44.0959633" lon="7.9975117"><ele>748.0</ele><time>2026-04-03T12:01:44.935Z</time></trkpt><trkpt lat="44.0959567" lon="7.9976983"><ele>748.0</ele><time>2026-04-03T12:01:46.935Z</time></trkpt><trkpt lat="44.09595" lon="7.99781"><ele>748.0</ele><time>2026-04-03T12:01:47.935Z</time></trkpt><trkpt lat="44.0959383" lon="7.9979233"><ele>748.0</ele><time>2026-04-03T12:01:48.936Z</time></trkpt><trkpt lat="44.095925" lon="7.99803"><ele>748.0</ele><time>2026-04-03T12:01:49.936Z</time></trkpt><trkpt lat="44.0959133" lon="7.9981333"><ele>748.0</ele><time>2026-04-03T12:01:50.936Z</time></trkpt><trkpt lat="44.0959033" lon="7.9982467"><ele>748.0</ele><time>2026-04-03T12:01:51.936Z</time></trkpt><trkpt lat="44.095895" lon="7.9983483"><ele>748.0</ele><time>2026-04-03T12:01:52.935Z</time></trkpt><trkpt lat="44.0958883" lon="7.9984483"><ele>748.0</ele><time>2026-04-03T12:01:53.936Z</time></trkpt><trkpt lat="44.09588" lon="7.998545"><ele>748.0</ele><time>2026-04-03T12:01:54.935Z</time></trkpt><trkpt lat="44.0958783" lon="7.9986333"><ele>748.0</ele><time>2026-04-03T12:01:55.936Z</time></trkpt><trkpt lat="44.0958783" lon="7.9987217"><ele>748.0</ele><time>2026-04-03T12:01:56.936Z</time></trkpt><trkpt lat="44.0958967" lon="7.998815"><ele>748.0</ele><time>2026-04-03T12:01:58.936Z</time></trkpt><trkpt lat="44.095935" lon="7.998715"><ele>748.0</ele><time>2026-04-03T12:02:35.936Z</time></trkpt><trkpt lat="44.0959783" lon="7.9985583"><ele>748.0</ele><time>2026-04-03T12:02:37.935Z</time></trkpt><trkpt lat="44.0960317" lon="7.998485"><ele>748.0</ele><time>2026-04-03T12:02:38.936Z</time></trkpt><trkpt lat="44.0961" lon="7.9984183"><ele>748.0</ele><time>2026-04-03T12:02:39.935Z</time></trkpt><trkpt lat="44.0961833" lon="7.9983317"><ele>748.0</ele><time>2026-04-03T12:02:40.936Z</time></trkpt><trkpt lat="44.096255" lon="7.9982617"><ele>748.0</ele><time>2026-04-03T12:02:41.936Z</time></trkpt><trkpt lat="44.0963233" lon="7.9981883"><ele>748.0</ele><time>2026-04-03T12:02:42.935Z</time></trkpt><trkpt lat="44.09639" lon="7.99812"><ele>748.0</ele><time>2026-04-03T12:02:43.936Z</time></trkpt><trkpt lat="44.0964533" lon="7.99805"><ele>748.0</ele><time>2026-04-03T12:02:44.936Z</time></trkpt><trkpt lat="44.0965483" lon="7.9979683"><ele>748.0</ele><time>2026-04-03T12:02:46.936Z</time></trkpt><trkpt lat="44.09667" lon="7.9979567"><ele>748.0</ele><time>2026-04-03T12:02:48.935Z</time></trkpt><trkpt lat="44.09674" lon="7.99796"><ele>748.0</ele><time>2026-04-03T12:02:49.936Z</time></trkpt><trkpt lat="44.0968167" lon="7.99795"><ele>748.0</ele><time>2026-04-03T12:02:50.935Z</time></trkpt><trkpt lat="44.0969033" lon="7.99794"><ele>743.1666666666667</ele><time>2026-04-03T12:02:51.935Z</time></trkpt><trkpt lat="44.0969817" lon="7.9979133"><ele>738.3333333333334</ele><time>2026-04-03T12:02:52.936Z</time></trkpt><trkpt lat="44.0970567" lon="7.9978767"><ele>733.5</ele><time>2026-04-03T12:02:53.936Z</time></trkpt><trkpt lat="44.09713" lon="7.997835"><ele>728.6666666666666</ele><time>2026-04-03T12:02:54.936Z</time></trkpt><trkpt lat="44.097205" lon="7.9977817"><ele>723.8333333333333</ele><time>2026-04-03T12:02:55.935Z</time></trkpt><trkpt lat="44.097265" lon="7.9977083"><ele>719.0</ele><time>2026-04-03T12:02:56.935Z</time></trkpt><trkpt lat="44.0973133" lon="7.99761"><ele>715.1666666666666</ele><time>2026-04-03T12:02:57.936Z</time></trkpt><trkpt lat="44.0973283" lon="7.997475"><ele>711.3333333333333</ele><time>2026-04-03T12:02:58.936Z</time></trkpt><trkpt lat="44.0973483" lon="7.9973317"><ele>707.5</ele><time>2026-04-03T12:02:59.936Z</time></trkpt><trkpt lat="44.0973633" lon="7.99721"><ele>703.6666666666666</ele><time>2026-04-03T12:03:00.936Z</time></trkpt><trkpt lat="44.09738" lon="7.9971017"><ele>699.8333333333334</ele><time>2026-04-03T12:03:01.936Z</time></trkpt><trkpt lat="44.097395" lon="7.9970133"><ele>696.0</ele><time>2026-04-03T12:03:02.935Z</time></trkpt><trkpt lat="44.097425" lon="7.9969333"><ele>696.0</ele><time>2026-04-03T12:03:03.936Z</time></trkpt><trkpt lat="44.0974617" lon="7.9968483"><ele>696.0</ele><time>2026-04-03T12:03:04.936Z</time></trkpt><trkpt lat="44.0974983" lon="7.9967633"><ele>696.0</ele><time>2026-04-03T12:03:05.936Z</time></trkpt><trkpt lat="44.0975333" lon="7.996665"><ele>696.0</ele><time>2026-04-03T12:03:06.935Z</time></trkpt><trkpt lat="44.0975733" lon="7.9965717"><ele>696.0</ele><time>2026-04-03T12:03:07.936Z</time></trkpt><trkpt lat="44.0976017" lon="7.99649"><ele>696.0</ele><time>2026-04-03T12:03:08.935Z</time></trkpt><trkpt lat="44.0976467" lon="7.9964133"><ele>696.0</ele><time>2026-04-03T12:03:09.935Z</time></trkpt><trkpt lat="44.0977133" lon="7.9963283"><ele>698.0</ele><time>2026-04-03T12:03:10.936Z</time></trkpt><trkpt lat="44.097765" lon="7.99623"><ele>700.0</ele><time>2026-04-03T12:03:11.936Z</time></trkpt><trkpt lat="44.0978167" lon="7.9961383"><ele>702.0</ele><time>2026-04-03T12:03:12.936Z</time></trkpt><trkpt lat="44.097855" lon="7.996065"><ele>704.0</ele><time>2026-04-03T12:03:13.935Z</time></trkpt><trkpt lat="44.09792" lon="7.9959467"><ele>706.0</ele><time>2026-04-03T12:03:15.935Z</time></trkpt><trkpt lat="44.097965" lon="7.9958367"><ele>708.0</ele><time>2026-04-03T12:03:17.936Z</time></trkpt><trkpt lat="44.0980167" lon="7.9957167"><ele>711.0</ele><time>2026-04-03T12:03:19.936Z</time></trkpt><trkpt lat="44.09811" lon="7.9956933"><ele>714.0</ele><time>2026-04-03T12:03:21.936Z</time></trkpt><trkpt lat="44.0981767" lon="7.99567"><ele>717.0</ele><time>2026-04-03T12:03:22.936Z</time></trkpt><trkpt lat="44.0982433" lon="7.9956233"><ele>720.0</ele><time>2026-04-03T12:03:23.935Z</time></trkpt><trkpt lat="44.0983033" lon="7.9955633"><ele>723.0</ele><time>2026-04-03T12:03:24.935Z</time></trkpt><trkpt lat="44.0983567" lon="7.9954983"><ele>726.0</ele><time>2026-04-03T12:03:25.935Z</time></trkpt><trkpt lat="44.098405" lon="7.995415"><ele>717.0</ele><time>2026-04-03T12:03:26.936Z</time></trkpt><trkpt lat="44.0984483" lon="7.9953267"><ele>708.0</ele><time>2026-04-03T12:03:27.936Z</time></trkpt><trkpt lat="44.0984983" lon="7.9952317"><ele>699.0</ele><time>2026-04-03T12:03:28.936Z</time></trkpt><trkpt lat="44.0985383" lon="7.9951633"><ele>690.0</ele><time>2026-04-03T12:03:29.936Z</time></trkpt><trkpt lat="44.0986183" lon="7.9951533"><ele>681.0</ele><time>2026-04-03T12:03:32.936Z</time></trkpt><trkpt lat="44.09864" lon="7.9952567"><ele>672.0</ele><time>2026-04-03T12:03:34.935Z</time></trkpt><trkpt lat="44.0987033" lon="7.9954183"><ele>672.0</ele><time>2026-04-03T12:03:36.936Z</time></trkpt><trkpt lat="44.0987483" lon="7.9955383"><ele>672.0</ele><time>2026-04-03T12:03:37.936Z</time></trkpt><trkpt lat="44.0987983" lon="7.9956783"><ele>672.0</ele><time>2026-04-03T12:03:38.936Z</time></trkpt><trkpt lat="44.0988333" lon="7.99581"><ele>672.0</ele><time>2026-04-03T12:03:39.936Z</time></trkpt><trkpt lat="44.09887" lon="7.9959183"><ele>672.0</ele><time>2026-04-03T12:03:40.936Z</time></trkpt><trkpt lat="44.098905" lon="7.9959933"><ele>671.6</ele><time>2026-04-03T12:03:41.936Z</time></trkpt><trkpt lat="44.0990233" lon="7.9960383"><ele>671.2</ele><time>2026-04-03T12:03:43.935Z</time></trkpt><trkpt lat="44.0990933" lon="7.9960217"><ele>670.8</ele><time>2026-04-03T12:03:44.936Z</time></trkpt><trkpt lat="44.0991767" lon="7.99596"><ele>670.4</ele><time>2026-04-03T12:03:45.935Z</time></trkpt><trkpt lat="44.0992667" lon="7.995865"><ele>670.0</ele><time>2026-04-03T12:03:46.936Z</time></trkpt><trkpt lat="44.099345" lon="7.9957783"><ele>670.0</ele><time>2026-04-03T12:03:47.936Z</time></trkpt><trkpt lat="44.0994167" lon="7.9957"><ele>670.0</ele><time>2026-04-03T12:03:48.936Z</time></trkpt><trkpt lat="44.0994767" lon="7.9956567"><ele>670.0</ele><time>2026-04-03T12:03:49.935Z</time></trkpt><trkpt lat="44.0995917" lon="7.9956883"><ele>670.0</ele><time>2026-04-03T12:03:51.936Z</time></trkpt><trkpt lat="44.099675" lon="7.9957633"><ele>670.0</ele><time>2026-04-03T12:03:52.936Z</time></trkpt><trkpt lat="44.09975" lon="7.9958533"><ele>668.2</ele><time>2026-04-03T12:03:53.935Z</time></trkpt><trkpt lat="44.0998183" lon="7.995945"><ele>666.4</ele><time>2026-04-03T12:03:54.936Z</time></trkpt><trkpt lat="44.0998967" lon="7.99602"><ele>664.5999999999999</ele><time>2026-04-03T12:03:55.936Z</time></trkpt><trkpt lat="44.0999817" lon="7.9960767"><ele>662.8</ele><time>2026-04-03T12:03:56.935Z</time></trkpt><trkpt lat="44.100065" lon="7.99616"><ele>661.0</ele><time>2026-04-03T12:03:57.936Z</time></trkpt><trkpt lat="44.1001517" lon="7.9962433"><ele>661.0</ele><time>2026-04-03T12:03:58.935Z</time></trkpt><trkpt lat="44.1002283" lon="7.9963117"><ele>661.0</ele><time>2026-04-03T12:03:59.936Z</time></trkpt><trkpt lat="44.1003" lon="7.9963883"><ele>661.0</ele><time>2026-04-03T12:04:00.936Z</time></trkpt><trkpt lat="44.10038" lon="7.9964633"><ele>661.0</ele><time>2026-04-03T12:04:01.936Z</time></trkpt><trkpt lat="44.1004667" lon="7.9965433"><ele>661.0</ele><time>2026-04-03T12:04:02.936Z</time></trkpt><trkpt lat="44.100565" lon="7.9965917"><ele>663.0</ele><time>2026-04-03T12:04:03.936Z</time></trkpt><trkpt lat="44.1006583" lon="7.9966817"><ele>665.0</ele><time>2026-04-03T12:04:04.936Z</time></trkpt><trkpt lat="44.1007533" lon="7.9967517"><ele>667.0</ele><time>2026-04-03T12:04:05.936Z</time></trkpt><trkpt lat="44.10083" lon="7.9968317"><ele>669.0</ele><time>2026-04-03T12:04:06.935Z</time></trkpt><trkpt lat="44.1009133" lon="7.99692"><ele>671.0</ele><time>2026-04-03T12:04:07.936Z</time></trkpt><trkpt lat="44.1009883" lon="7.99699"><ele>671.0</ele><time>2026-04-03T12:04:08.935Z</time></trkpt><trkpt lat="44.1010683" lon="7.9970667"><ele>671.0</ele><time>2026-04-03T12:04:09.935Z</time></trkpt><trkpt lat="44.1011517" lon="7.9971483"><ele>671.0</ele><time>2026-04-03T12:04:10.935Z</time></trkpt><trkpt lat="44.1012817" lon="7.9971883"><ele>671.0</ele><time>2026-04-03T12:04:12.936Z</time></trkpt><trkpt lat="44.1013583" lon="7.99716"><ele>671.0</ele><time>2026-04-03T12:04:13.936Z</time></trkpt><trkpt lat="44.1014467" lon="7.9971117"><ele>671.0</ele><time>2026-04-03T12:04:14.936Z</time></trkpt><trkpt lat="44.1015517" lon="7.9970833"><ele>671.0</ele><time>2026-04-03T12:04:15.936Z</time></trkpt><trkpt lat="44.1016383" lon="7.9970783"><ele>671.0</ele><time>2026-04-03T12:04:16.936Z</time></trkpt><trkpt lat="44.1017117" lon="7.9970833"><ele>671.0</ele><time>2026-04-03T12:04:17.935Z</time></trkpt><trkpt lat="44.1017817" lon="7.9970983"><ele>671.0</ele><time>2026-04-03T12:04:18.935Z</time></trkpt><trkpt lat="44.1018517" lon="7.9971133"><ele>671.0</ele><time>2026-04-03T12:04:19.935Z</time></trkpt><trkpt lat="44.1019667" lon="7.99714"><ele>671.0</ele><time>2026-04-03T12:04:21.935Z</time></trkpt><trkpt lat="44.1020433" lon="7.997155"><ele>671.0</ele><time>2026-04-03T12:04:22.936Z</time></trkpt><trkpt lat="44.1021383" lon="7.9971783"><ele>671.0</ele><time>2026-04-03T12:04:23.936Z</time></trkpt><trkpt lat="44.10224" lon="7.9972"><ele>671.0</ele><time>2026-04-03T12:04:24.936Z</time></trkpt><trkpt lat="44.10234" lon="7.9972217"><ele>671.0</ele><time>2026-04-03T12:04:25.936Z</time></trkpt><trkpt lat="44.10243" lon="7.9972583"><ele>667.8333333333333</ele><time>2026-04-03T12:04:26.936Z</time></trkpt><trkpt lat="44.1025167" lon="7.997275"><ele>664.6666666666666</ele><time>2026-04-03T12:04:27.935Z</time></trkpt><trkpt lat="44.1025933" lon="7.9972667"><ele>661.5</ele><time>2026-04-03T12:04:28.936Z</time></trkpt><trkpt lat="44.1026633" lon="7.9972233"><ele>658.3333333333334</ele><time>2026-04-03T12:04:29.936Z</time></trkpt><trkpt lat="44.102735" lon="7.9971583"><ele>655.1666666666667</ele><time>2026-04-03T12:04:30.935Z</time></trkpt><trkpt lat="44.1028117" lon="7.9970717"><ele>652.0</ele><time>2026-04-03T12:04:31.936Z</time></trkpt><trkpt lat="44.1029033" lon="7.996985"><ele>652.0</ele><time>2026-04-03T12:04:32.935Z</time></trkpt><trkpt lat="44.1030133" lon="7.996915"><ele>652.0</ele><time>2026-04-03T12:04:33.936Z</time></trkpt><trkpt lat="44.1031417" lon="7.9968533"><ele>652.0</ele><time>2026-04-03T12:04:34.936Z</time></trkpt><trkpt lat="44.10326" lon="7.9968317"><ele>652.0</ele><time>2026-04-03T12:04:35.936Z</time></trkpt><trkpt lat="44.1033683" lon="7.9968183"><ele>650.0</ele><time>2026-04-03T12:04:36.936Z</time></trkpt><trkpt lat="44.103465" lon="7.99682"><ele>648.0</ele><time>2026-04-03T12:04:37.936Z</time></trkpt><trkpt lat="44.1035617" lon="7.9968567"><ele>646.0</ele><time>2026-04-03T12:04:38.935Z</time></trkpt><trkpt lat="44.1036583" lon="7.9969067"><ele>644.0</ele><time>2026-04-03T12:04:39.936Z</time></trkpt><trkpt lat="44.103745" lon="7.9969383"><ele>642.0</ele><time>2026-04-03T12:04:40.935Z</time></trkpt><trkpt lat="44.1038417" lon="7.996965"><ele>642.0</ele><time>2026-04-03T12:04:41.936Z</time></trkpt><trkpt lat="44.103945" lon="7.9969667"><ele>642.0</ele><time>2026-04-03T12:04:42.936Z</time></trkpt><trkpt lat="44.1040583" lon="7.9969733"><ele>642.0</ele><time>2026-04-03T12:04:43.935Z</time></trkpt><trkpt lat="44.1041533" lon="7.997005"><ele>642.0</ele><time>2026-04-03T12:04:44.936Z</time></trkpt><trkpt lat="44.1042367" lon="7.9970317"><ele>642.0</ele><time>2026-04-03T12:04:45.935Z</time></trkpt><trkpt lat="44.1043267" lon="7.997055"><ele>642.4000000000001</ele><time>2026-04-03T12:04:46.935Z</time></trkpt><trkpt lat="44.1044267" lon="7.9970783"><ele>642.8000000000001</ele><time>2026-04-03T12:04:47.934Z</time></trkpt><trkpt lat="44.1045183" lon="7.9970733"><ele>643.2</ele><time>2026-04-03T12:04:48.935Z</time></trkpt><trkpt lat="44.1046217" lon="7.9970583"><ele>643.6</ele><time>2026-04-03T12:04:49.934Z</time></trkpt><trkpt lat="44.10474" lon="7.997045"><ele>644.0</ele><time>2026-04-03T12:04:50.934Z</time></trkpt><trkpt lat="44.1048467" lon="7.997035"><ele>645.2</ele><time>2026-04-03T12:04:51.935Z</time></trkpt><trkpt lat="44.104955" lon="7.9970183"><ele>646.4000000000001</ele><time>2026-04-03T12:04:52.935Z</time></trkpt><trkpt lat="44.1050583" lon="7.9969967"><ele>647.6</ele><time>2026-04-03T12:04:53.934Z</time></trkpt><trkpt lat="44.1051517" lon="7.9969783"><ele>648.8</ele><time>2026-04-03T12:04:54.935Z</time></trkpt><trkpt lat="44.1052417" lon="7.9969683"><ele>650.0</ele><time>2026-04-03T12:04:55.935Z</time></trkpt><trkpt lat="44.1053217" lon="7.9969483"><ele>650.0</ele><time>2026-04-03T12:04:56.934Z</time></trkpt><trkpt lat="44.105395" lon="7.9969167"><ele>650.0</ele><time>2026-04-03T12:04:57.935Z</time></trkpt><trkpt lat="44.1055167" lon="7.996865"><ele>650.0</ele><time>2026-04-03T12:04:58.934Z</time></trkpt><trkpt lat="44.10558" lon="7.99679"><ele>650.0</ele><time>2026-04-03T12:04:59.935Z</time></trkpt><trkpt lat="44.105635" lon="7.996695"><ele>650.0</ele><time>2026-04-03T12:05:00.935Z</time></trkpt><trkpt lat="44.10567" lon="7.9966133"><ele>650.0</ele><time>2026-04-03T12:05:01.935Z</time></trkpt><trkpt lat="44.105685" lon="7.996485"><ele>648.4</ele><time>2026-04-03T12:05:03.935Z</time></trkpt><trkpt lat="44.1056517" lon="7.996375"><ele>646.8</ele><time>2026-04-03T12:05:05.935Z</time></trkpt><trkpt lat="44.1056117" lon="7.99626"><ele>645.2</ele><time>2026-04-03T12:05:07.934Z</time></trkpt><trkpt lat="44.1056383" lon="7.9961533"><ele>643.6</ele><time>2026-04-03T12:05:09.935Z</time></trkpt><trkpt lat="44.1057067" lon="7.9960883"><ele>642.0</ele><time>2026-04-03T12:05:11.935Z</time></trkpt><trkpt lat="44.1057983" lon="7.9959617"><ele>642.0</ele><time>2026-04-03T12:05:13.934Z</time></trkpt><trkpt lat="44.1058617" lon="7.99586"><ele>642.0</ele><time>2026-04-03T12:05:15.934Z</time></trkpt><trkpt lat="44.1059483" lon="7.9957683"><ele>642.0</ele><time>2026-04-03T12:05:17.935Z</time></trkpt><trkpt lat="44.106055" lon="7.9957267"><ele>642.0</ele><time>2026-04-03T12:05:19.935Z</time></trkpt><trkpt lat="44.1061733" lon="7.9957783"><ele>642.0</ele><time>2026-04-03T12:05:21.934Z</time></trkpt><trkpt lat="44.1062183" lon="7.9958683"><ele>642.0</ele><time>2026-04-03T12:05:22.935Z</time></trkpt><trkpt lat="44.10631" lon="7.9959367"><ele>642.0</ele><time>2026-04-03T12:05:24.935Z</time></trkpt><trkpt lat="44.1064167" lon="7.995985"><ele>642.0</ele><time>2026-04-03T12:05:26.935Z</time></trkpt><trkpt lat="44.106485" lon="7.996015"><ele>642.0</ele><time>2026-04-03T12:05:27.935Z</time></trkpt><trkpt lat="44.1065533" lon="7.996035"><ele>642.0</ele><time>2026-04-03T12:05:28.935Z</time></trkpt><trkpt lat="44.106675" lon="7.9960183"><ele>638.5</ele><time>2026-04-03T12:05:30.934Z</time></trkpt><trkpt lat="44.106755" lon="7.995985"><ele>635.0</ele><time>2026-04-03T12:05:31.935Z</time></trkpt><trkpt lat="44.1068317" lon="7.9959433"><ele>631.5</ele><time>2026-04-03T12:05:32.935Z</time></trkpt><trkpt lat="44.1068967" lon="7.9958933"><ele>628.0</ele><time>2026-04-03T12:05:33.934Z</time></trkpt><trkpt lat="44.1069567" lon="7.9958317"><ele>624.5</ele><time>2026-04-03T12:05:34.935Z</time></trkpt><trkpt lat="44.1070117" lon="7.9957733"><ele>621.0</ele><time>2026-04-03T12:05:35.935Z</time></trkpt><trkpt lat="44.107065" lon="7.995665"><ele>621.0</ele><time>2026-04-03T12:05:37.934Z</time></trkpt><trkpt lat="44.1070933" lon="7.995505"><ele>621.0</ele><time>2026-04-03T12:05:39.935Z</time></trkpt><trkpt lat="44.107105" lon="7.995415"><ele>621.0</ele><time>2026-04-03T12:05:40.935Z</time></trkpt><trkpt lat="44.1071267" lon="7.9953283"><ele>621.0</ele><time>2026-04-03T12:05:41.934Z</time></trkpt><trkpt lat="44.10715" lon="7.9952467"><ele>621.0</ele><time>2026-04-03T12:05:42.934Z</time></trkpt><trkpt lat="44.1071717" lon="7.99516"><ele>621.0</ele><time>2026-04-03T12:05:43.935Z</time></trkpt><trkpt lat="44.1072083" lon="7.995065"><ele>626.0</ele><time>2026-04-03T12:05:44.935Z</time></trkpt><trkpt lat="44.10725" lon="7.9949417"><ele>631.0</ele><time>2026-04-03T12:05:45.934Z</time></trkpt><trkpt lat="44.1072733" lon="7.9948083"><ele>636.0</ele><time>2026-04-03T12:05:46.935Z</time></trkpt><trkpt lat="44.1073033" lon="7.99467"><ele>641.0</ele><time>2026-04-03T12:05:47.935Z</time></trkpt><trkpt lat="44.107345" lon="7.9945633"><ele>646.0</ele><time>2026-04-03T12:05:48.935Z</time></trkpt><trkpt lat="44.107385" lon="7.9944583"><ele>638.5</ele><time>2026-04-03T12:05:49.935Z</time></trkpt><trkpt lat="44.1074433" lon="7.99436"><ele>631.0</ele><time>2026-04-03T12:05:50.935Z</time></trkpt><trkpt lat="44.1074917" lon="7.9942567"><ele>623.5</ele><time>2026-04-03T12:05:51.934Z</time></trkpt><trkpt lat="44.107545" lon="7.9941533"><ele>616.0</ele><time>2026-04-03T12:05:52.935Z</time></trkpt><trkpt lat="44.1075767" lon="7.9940633"><ele>608.5</ele><time>2026-04-03T12:05:53.934Z</time></trkpt><trkpt lat="44.1076283" lon="7.9939583"><ele>601.0</ele><time>2026-04-03T12:05:54.935Z</time></trkpt><trkpt lat="44.10768" lon="7.993855"><ele>601.0</ele><time>2026-04-03T12:05:55.934Z</time></trkpt><trkpt lat="44.107735" lon="7.9937633"><ele>601.0</ele><time>2026-04-03T12:05:56.935Z</time></trkpt><trkpt lat="44.107775" lon="7.9936717"><ele>601.0</ele><time>2026-04-03T12:05:57.935Z</time></trkpt><trkpt lat="44.10781" lon="7.9935633"><ele>601.0</ele><time>2026-04-03T12:05:58.935Z</time></trkpt><trkpt lat="44.107835" lon="7.9934633"><ele>601.0</ele><time>2026-04-03T12:05:59.934Z</time></trkpt><trkpt lat="44.1078117" lon="7.9933733"><ele>601.0</ele><time>2026-04-03T12:06:00.935Z</time></trkpt><trkpt lat="44.1077117" lon="7.9931667"><ele>602.0</ele><time>2026-04-03T12:06:14.934Z</time></trkpt><trkpt lat="44.1077167" lon="7.9930117"><ele>603.0</ele><time>2026-04-03T12:06:54.935Z</time></trkpt><trkpt lat="44.107685" lon="7.99288"><ele>604.0</ele><time>2026-04-03T12:06:56.934Z</time></trkpt><trkpt lat="44.10766" lon="7.99279"><ele>605.0</ele><time>2026-04-03T12:06:57.935Z</time></trkpt><trkpt lat="44.1076367" lon="7.992695"><ele>606.0</ele><time>2026-04-03T12:06:58.935Z</time></trkpt><trkpt lat="44.1076067" lon="7.9926033"><ele>607.0</ele><time>2026-04-03T12:06:59.934Z</time></trkpt><trkpt lat="44.1075767" lon="7.9925167"><ele>607.1666666666667</ele><time>2026-04-03T12:07:00.935Z</time></trkpt><trkpt lat="44.10754" lon="7.9924267"><ele>607.3333333333334</ele><time>2026-04-03T12:07:01.935Z</time></trkpt><trkpt lat="44.107525" lon="7.9923333"><ele>607.5</ele><time>2026-04-03T12:07:02.935Z</time></trkpt><trkpt lat="44.107505" lon="7.99223"><ele>607.6666666666666</ele><time>2026-04-03T12:07:03.934Z</time></trkpt><trkpt lat="44.1074767" lon="7.9921283"><ele>607.8333333333333</ele><time>2026-04-03T12:07:04.935Z</time></trkpt><trkpt lat="44.107475" lon="7.99204"><ele>608.0</ele><time>2026-04-03T12:07:05.935Z</time></trkpt><trkpt lat="44.1074767" lon="7.9919133"><ele>608.0</ele><time>2026-04-03T12:07:06.935Z</time></trkpt><trkpt lat="44.1074833" lon="7.9917867"><ele>608.0</ele><time>2026-04-03T12:07:07.934Z</time></trkpt><trkpt lat="44.1075067" lon="7.99164"><ele>608.0</ele><time>2026-04-03T12:07:08.935Z</time></trkpt><trkpt lat="44.10751" lon="7.991495"><ele>608.0</ele><time>2026-04-03T12:07:09.935Z</time></trkpt><trkpt lat="44.1075117" lon="7.9913583"><ele>608.0</ele><time>2026-04-03T12:07:10.935Z</time></trkpt><trkpt lat="44.1075017" lon="7.9912233"><ele>607.6666666666666</ele><time>2026-04-03T12:07:11.934Z</time></trkpt><trkpt lat="44.1074783" lon="7.9911"><ele>607.3333333333333</ele><time>2026-04-03T12:07:12.935Z</time></trkpt><trkpt lat="44.107465" lon="7.99099"><ele>607.0</ele><time>2026-04-03T12:07:13.935Z</time></trkpt><trkpt lat="44.10745" lon="7.99087"><ele>606.6666666666666</ele><time>2026-04-03T12:07:14.935Z</time></trkpt><trkpt lat="44.1074283" lon="7.9907567"><ele>606.3333333333334</ele><time>2026-04-03T12:07:15.934Z</time></trkpt><trkpt lat="44.1074117" lon="7.99065"><ele>606.0</ele><time>2026-04-03T12:07:16.935Z</time></trkpt><trkpt lat="44.1073817" lon="7.990495"><ele>606.0</ele><time>2026-04-03T12:07:18.935Z</time></trkpt><trkpt lat="44.1073833" lon="7.9904017"><ele>606.0</ele><time>2026-04-03T12:07:19.935Z</time></trkpt><trkpt lat="44.10742" lon="7.9903233"><ele>606.0</ele><time>2026-04-03T12:07:21.935Z</time></trkpt><trkpt lat="44.1075033" lon="7.9902683"><ele>606.0</ele><time>2026-04-03T12:07:23.935Z</time></trkpt><trkpt lat="44.1076183" lon="7.9901733"><ele>606.0</ele><time>2026-04-03T12:07:24.935Z</time></trkpt><trkpt lat="44.10772" lon="7.9901267"><ele>606.0</ele><time>2026-04-03T12:07:25.935Z</time></trkpt><trkpt lat="44.1078" lon="7.99007"><ele>606.0</ele><time>2026-04-03T12:07:26.935Z</time></trkpt><trkpt lat="44.1078833" lon="7.9900117"><ele>606.0</ele><time>2026-04-03T12:07:27.935Z</time></trkpt><trkpt lat="44.10795" lon="7.9899517"><ele>606.0</ele><time>2026-04-03T12:07:28.934Z</time></trkpt><trkpt lat="44.10802" lon="7.9898883"><ele>606.0</ele><time>2026-04-03T12:07:29.935Z</time></trkpt><trkpt lat="44.10806" lon="7.9897983"><ele>606.0</ele><time>2026-04-03T12:07:30.934Z</time></trkpt><trkpt lat="44.1080883" lon="7.9897033"><ele>612.4</ele><time>2026-04-03T12:07:31.934Z</time></trkpt><trkpt lat="44.1081033" lon="7.9896083"><ele>618.8</ele><time>2026-04-03T12:07:32.935Z</time></trkpt><trkpt lat="44.1080817" lon="7.9894183"><ele>625.1999999999999</ele><time>2026-04-03T12:07:34.935Z</time></trkpt><trkpt lat="44.1080667" lon="7.9893117"><ele>631.6</ele><time>2026-04-03T12:07:35.935Z</time></trkpt><trkpt lat="44.10806" lon="7.98921"><ele>638.0</ele><time>2026-04-03T12:07:36.934Z</time></trkpt><trkpt lat="44.1081067" lon="7.989045"><ele>633.8333333333333</ele><time>2026-04-03T12:07:38.934Z</time></trkpt><trkpt lat="44.1081617" lon="7.9889583"><ele>629.6666666666666</ele><time>2026-04-03T12:07:39.935Z</time></trkpt><trkpt lat="44.1082167" lon="7.9888767"><ele>625.5</ele><time>2026-04-03T12:07:40.935Z</time></trkpt><trkpt lat="44.108265" lon="7.98881"><ele>621.3333333333334</ele><time>2026-04-03T12:07:41.935Z</time></trkpt><trkpt lat="44.1083217" lon="7.988705"><ele>617.1666666666667</ele><time>2026-04-03T12:07:43.934Z</time></trkpt><trkpt lat="44.1083567" lon="7.98859"><ele>613.0</ele><time>2026-04-03T12:07:46.935Z</time></trkpt><trkpt lat="44.1083283" lon="7.9884583"><ele>615.4</ele><time>2026-04-03T12:07:49.934Z</time></trkpt><trkpt lat="44.1082667" lon="7.9883367"><ele>617.8</ele><time>2026-04-03T12:07:51.934Z</time></trkpt><trkpt lat="44.10822" lon="7.988205"><ele>620.2</ele><time>2026-04-03T12:07:53.934Z</time></trkpt><trkpt lat="44.1081917" lon="7.9880333"><ele>622.6</ele><time>2026-04-03T12:07:55.935Z</time></trkpt><trkpt lat="44.1082017" lon="7.9879433"><ele>625.0</ele><time>2026-04-03T12:07:56.934Z</time></trkpt><trkpt lat="44.1082083" lon="7.987835"><ele>627.0</ele><time>2026-04-03T12:07:57.935Z</time></trkpt><trkpt lat="44.1082133" lon="7.9877217"><ele>629.0</ele><time>2026-04-03T12:07:58.935Z</time></trkpt><trkpt lat="44.10822" lon="7.98759"><ele>631.0</ele><time>2026-04-03T12:07:59.935Z</time></trkpt><trkpt lat="44.1082267" lon="7.9874733"><ele>633.0</ele><time>2026-04-03T12:08:00.934Z</time></trkpt><trkpt lat="44.1082483" lon="7.9873583"><ele>635.0</ele><time>2026-04-03T12:08:01.935Z</time></trkpt><trkpt lat="44.108275" lon="7.987245"><ele>637.0</ele><time>2026-04-03T12:08:02.935Z</time></trkpt><trkpt lat="44.1083033" lon="7.9871367"><ele>637.0</ele><time>2026-04-03T12:08:03.935Z</time></trkpt><trkpt lat="44.1083417" lon="7.9870367"><ele>637.0</ele><time>2026-04-03T12:08:04.935Z</time></trkpt><trkpt lat="44.1083733" lon="7.9869217"><ele>637.0</ele><time>2026-04-03T12:08:05.935Z</time></trkpt><trkpt lat="44.1084" lon="7.9868067"><ele>637.0</ele><time>2026-04-03T12:08:06.935Z</time></trkpt><trkpt lat="44.1084267" lon="7.9867083"><ele>637.0</ele><time>2026-04-03T12:08:07.935Z</time></trkpt><trkpt lat="44.1084217" lon="7.98657"><ele>637.0</ele><time>2026-04-03T12:08:09.934Z</time></trkpt><trkpt lat="44.1083983" lon="7.9864183"><ele>639.8333333333334</ele><time>2026-04-03T12:08:11.934Z</time></trkpt><trkpt lat="44.1084217" lon="7.9862483"><ele>642.6666666666667</ele><time>2026-04-03T12:08:13.934Z</time></trkpt><trkpt lat="44.1084333" lon="7.98615"><ele>645.5</ele><time>2026-04-03T12:08:14.935Z</time></trkpt><trkpt lat="44.10843" lon="7.9860517"><ele>648.3333333333334</ele><time>2026-04-03T12:08:15.935Z</time></trkpt><trkpt lat="44.10842" lon="7.9859367"><ele>651.1666666666666</ele><time>2026-04-03T12:08:16.934Z</time></trkpt><trkpt lat="44.1083967" lon="7.985805"><ele>654.0</ele><time>2026-04-03T12:08:17.935Z</time></trkpt><trkpt lat="44.1083867" lon="7.98568"><ele>656.4000000000001</ele><time>2026-04-03T12:08:18.935Z</time></trkpt><trkpt lat="44.10836" lon="7.9855367"><ele>658.8</ele><time>2026-04-03T12:08:19.935Z</time></trkpt><trkpt lat="44.1083183" lon="7.985395"><ele>661.2</ele><time>2026-04-03T12:08:20.934Z</time></trkpt><trkpt lat="44.1082883" lon="7.9852817"><ele>663.5999999999999</ele><time>2026-04-03T12:08:21.935Z</time></trkpt><trkpt lat="44.1082633" lon="7.9851833"><ele>666.0</ele><time>2026-04-03T12:08:22.934Z</time></trkpt><trkpt lat="44.10825" lon="7.98508"><ele>666.0</ele><time>2026-04-03T12:08:23.935Z</time></trkpt><trkpt lat="44.10825" lon="7.9849633"><ele>666.0</ele><time>2026-04-03T12:08:25.934Z</time></trkpt><trkpt lat="44.1082533" lon="7.98485"><ele>666.0</ele><time>2026-04-03T12:08:27.935Z</time></trkpt><trkpt lat="44.10826" lon="7.984705"><ele>666.0</ele><time>2026-04-03T12:08:29.935Z</time></trkpt><trkpt lat="44.1082867" lon="7.98452"><ele>666.0</ele><time>2026-04-03T12:08:31.935Z</time></trkpt><trkpt lat="44.10831" lon="7.9844017"><ele>666.0</ele><time>2026-04-03T12:08:32.934Z</time></trkpt><trkpt lat="44.1083233" lon="7.98428"><ele>666.0</ele><time>2026-04-03T12:08:33.935Z</time></trkpt><trkpt lat="44.1083433" lon="7.9841733"><ele>666.0</ele><time>2026-04-03T12:08:34.934Z</time></trkpt><trkpt lat="44.1083567" lon="7.98408"><ele>666.0</ele><time>2026-04-03T12:08:35.934Z</time></trkpt><trkpt lat="44.108385" lon="7.983925"><ele>666.0</ele><time>2026-04-03T12:08:37.935Z</time></trkpt><trkpt lat="44.1084217" lon="7.9837733"><ele>666.8333333333334</ele><time>2026-04-03T12:08:39.935Z</time></trkpt><trkpt lat="44.10845" lon="7.9836717"><ele>667.6666666666666</ele><time>2026-04-03T12:08:40.934Z</time></trkpt><trkpt lat="44.1084867" lon="7.98356"><ele>668.5</ele><time>2026-04-03T12:08:41.935Z</time></trkpt><trkpt lat="44.108515" lon="7.983465"><ele>669.3333333333333</ele><time>2026-04-03T12:08:42.935Z</time></trkpt><trkpt lat="44.10855" lon="7.9833683"><ele>670.1666666666666</ele><time>2026-04-03T12:08:43.935Z</time></trkpt><trkpt lat="44.1086" lon="7.9832733"><ele>671.0</ele><time>2026-04-03T12:08:44.934Z</time></trkpt><trkpt lat="44.1086483" lon="7.9831667"><ele>677.1999999999999</ele><time>2026-04-03T12:08:45.934Z</time></trkpt><trkpt lat="44.1087" lon="7.9830633"><ele>683.4</ele><time>2026-04-03T12:08:46.935Z</time></trkpt><trkpt lat="44.1087583" lon="7.98296"><ele>689.6</ele><time>2026-04-03T12:08:47.935Z</time></trkpt><trkpt lat="44.1088283" lon="7.9828583"><ele>695.8</ele><time>2026-04-03T12:08:48.935Z</time></trkpt><trkpt lat="44.1088733" lon="7.9827617"><ele>702.0</ele><time>2026-04-03T12:08:49.935Z</time></trkpt><trkpt lat="44.108925" lon="7.982645"><ele>702.0</ele><time>2026-04-03T12:08:50.935Z</time></trkpt><trkpt lat="44.1089917" lon="7.9825233"><ele>702.0</ele><time>2026-04-03T12:08:51.935Z</time></trkpt><trkpt lat="44.1090417" lon="7.9824067"><ele>702.0</ele><time>2026-04-03T12:08:52.934Z</time></trkpt><trkpt lat="44.1090967" lon="7.982295"><ele>702.0</ele><time>2026-04-03T12:08:53.934Z</time></trkpt><trkpt lat="44.1091467" lon="7.9821883"><ele>702.0</ele><time>2026-04-03T12:08:54.935Z</time></trkpt><trkpt lat="44.1091917" lon="7.9821033"><ele>705.0</ele><time>2026-04-03T12:08:55.935Z</time></trkpt><trkpt lat="44.1092483" lon="7.9820233"><ele>708.0</ele><time>2026-04-03T12:08:56.934Z</time></trkpt><trkpt lat="44.109305" lon="7.9819483"><ele>711.0</ele><time>2026-04-03T12:08:57.934Z</time></trkpt><trkpt lat="44.1093483" lon="7.9818367"><ele>714.0</ele><time>2026-04-03T12:08:58.934Z</time></trkpt><trkpt lat="44.1093967" lon="7.9817467"><ele>717.0</ele><time>2026-04-03T12:08:59.935Z</time></trkpt><trkpt lat="44.1094617" lon="7.9816467"><ele>720.0</ele><time>2026-04-03T12:09:00.935Z</time></trkpt><trkpt lat="44.109515" lon="7.9815533"><ele>720.0</ele><time>2026-04-03T12:09:01.935Z</time></trkpt><trkpt lat="44.10958" lon="7.9814517"><ele>720.0</ele><time>2026-04-03T12:09:02.934Z</time></trkpt><trkpt lat="44.10963" lon="7.981355"><ele>720.0</ele><time>2026-04-03T12:09:03.935Z</time></trkpt><trkpt lat="44.109665" lon="7.9812817"><ele>720.0</ele><time>2026-04-03T12:09:04.935Z</time></trkpt><trkpt lat="44.1097133" lon="7.981175"><ele>720.0</ele><time>2026-04-03T12:09:06.934Z</time></trkpt><trkpt lat="44.1097267" lon="7.9810267"><ele>720.0</ele><time>2026-04-03T12:09:08.934Z</time></trkpt><trkpt lat="44.109745" lon="7.9808817"><ele>715.3333333333334</ele><time>2026-04-03T12:09:10.934Z</time></trkpt><trkpt lat="44.1097783" lon="7.980775"><ele>710.6666666666666</ele><time>2026-04-03T12:09:12.934Z</time></trkpt><trkpt lat="44.1098033" lon="7.9806917"><ele>706.0</ele><time>2026-04-03T12:09:15.934Z</time></trkpt><trkpt lat="44.109835" lon="7.9806133"><ele>701.3333333333333</ele><time>2026-04-03T12:09:19.934Z</time></trkpt><trkpt lat="44.1099183" lon="7.980635"><ele>696.6666666666666</ele><time>2026-04-03T12:09:21.935Z</time></trkpt><trkpt lat="44.1100167" lon="7.9805717"><ele>692.0</ele><time>2026-04-03T12:09:25.935Z</time></trkpt><trkpt lat="44.1100783" lon="7.98054"><ele>692.0</ele><time>2026-04-03T12:09:28.935Z</time></trkpt><trkpt lat="44.110135" lon="7.98049"><ele>692.0</ele><time>2026-04-03T12:09:48.935Z</time></trkpt><trkpt lat="44.1100567" lon="7.9804533"><ele>692.0</ele><time>2026-04-03T12:09:53.935Z</time></trkpt><trkpt lat="44.109965" lon="7.9804083"><ele>692.0</ele><time>2026-04-03T12:10:15.933Z</time></trkpt><trkpt lat="44.1099833" lon="7.9805383"><ele>692.0</ele><time>2026-04-03T12:10:26.934Z</time></trkpt><trkpt lat="44.11002" lon="7.9806217"><ele>692.0</ele><time>2026-04-03T12:10:28.934Z</time></trkpt><trkpt lat="44.1100767" lon="7.980665"><ele>692.0</ele><time>2026-04-03T12:10:30.934Z</time></trkpt><trkpt lat="44.11003" lon="7.980725"><ele>692.0</ele><time>2026-04-03T12:10:33.934Z</time></trkpt><trkpt lat="44.1099817" lon="7.9808383"><ele>692.0</ele><time>2026-04-03T12:10:35.934Z</time></trkpt><trkpt lat="44.109915" lon="7.9809783"><ele>692.0</ele><time>2026-04-03T12:10:37.934Z</time></trkpt><trkpt lat="44.10988" lon="7.9810517"><ele>692.0</ele><time>2026-04-03T12:10:38.934Z</time></trkpt><trkpt lat="44.1098717" lon="7.98114"><ele>692.0</ele><time>2026-04-03T12:10:40.933Z</time></trkpt><trkpt lat="44.1098717" lon="7.9810167"><ele>692.0</ele><time>2026-04-03T12:10:56.933Z</time></trkpt><trkpt lat="44.1098567" lon="7.980865"><ele>692.0</ele><time>2026-04-03T12:10:58.934Z</time></trkpt><trkpt lat="44.1098483" lon="7.9807667"><ele>692.0</ele><time>2026-04-03T12:11:00.933Z</time></trkpt><trkpt lat="44.10985" lon="7.9806617"><ele>692.0</ele><time>2026-04-03T12:11:15.934Z</time></trkpt><trkpt lat="44.1098783" lon="7.9805467"><ele>692.0</ele><time>2026-04-03T12:11:17.934Z</time></trkpt><trkpt lat="44.1099083" lon="7.9804583"><ele>692.0</ele><time>2026-04-03T12:11:18.934Z</time></trkpt><trkpt lat="44.10995" lon="7.9803733"><ele>692.0</ele><time>2026-04-03T12:11:19.934Z</time></trkpt><trkpt lat="44.109985" lon="7.98028"><ele>692.0</ele><time>2026-04-03T12:11:20.934Z</time></trkpt><trkpt lat="44.11002" lon="7.9802067"><ele>692.0</ele><time>2026-04-03T12:11:21.934Z</time></trkpt><trkpt lat="44.110065" lon="7.9800483"><ele>692.0</ele><time>2026-04-03T12:11:23.934Z</time></trkpt><trkpt lat="44.1100717" lon="7.9798783"><ele>692.0</ele><time>2026-04-03T12:11:25.933Z</time></trkpt><trkpt lat="44.1100817" lon="7.979755"><ele>695.4000000000001</ele><time>2026-04-03T12:11:27.934Z</time></trkpt><trkpt lat="44.1101167" lon="7.9796233"><ele>698.8000000000001</ele><time>2026-04-03T12:11:46.934Z</time></trkpt><trkpt lat="44.1101617" lon="7.9794967"><ele>702.2</ele><time>2026-04-03T12:11:49.934Z</time></trkpt><trkpt lat="44.1102567" lon="7.97938"><ele>705.6</ele><time>2026-04-03T12:11:51.934Z</time></trkpt><trkpt lat="44.1103033" lon="7.9793183"><ele>709.0</ele><time>2026-04-03T12:11:52.934Z</time></trkpt><trkpt lat="44.11038" lon="7.9792167"><ele>713.6</ele><time>2026-04-03T12:11:54.933Z</time></trkpt><trkpt lat="44.1104167" lon="7.9790783"><ele>718.2</ele><time>2026-04-03T12:11:56.933Z</time></trkpt><trkpt lat="44.1104267" lon="7.9789417"><ele>722.8000000000001</ele><time>2026-04-03T12:11:58.933Z</time></trkpt><trkpt lat="44.110405" lon="7.978785"><ele>727.4000000000001</ele><time>2026-04-03T12:12:00.934Z</time></trkpt><trkpt lat="44.1104" lon="7.97868"><ele>732.0</ele><time>2026-04-03T12:12:01.934Z</time></trkpt><trkpt lat="44.110375" lon="7.978555"><ele>732.0</ele><time>2026-04-03T12:12:02.933Z</time></trkpt><trkpt lat="44.11035" lon="7.978425"><ele>732.0</ele><time>2026-04-03T12:12:03.934Z</time></trkpt><trkpt lat="44.1103567" lon="7.97829"><ele>732.0</ele><time>2026-04-03T12:12:04.934Z</time></trkpt><trkpt lat="44.11037" lon="7.9781983"><ele>732.0</ele><time>2026-04-03T12:12:05.933Z</time></trkpt><trkpt lat="44.1103833" lon="7.9781"><ele>732.0</ele><time>2026-04-03T12:12:06.934Z</time></trkpt><trkpt lat="44.1103983" lon="7.977965"><ele>732.0</ele><time>2026-04-03T12:12:08.934Z</time></trkpt><trkpt lat="44.1104267" lon="7.9778783"><ele>732.4000000000001</ele><time>2026-04-03T12:12:10.933Z</time></trkpt><trkpt lat="44.1105217" lon="7.977715"><ele>732.8000000000001</ele><time>2026-04-03T12:13:28.933Z</time></trkpt><trkpt lat="44.110455" lon="7.977655"><ele>733.2</ele><time>2026-04-03T12:17:28.933Z</time></trkpt><trkpt lat="44.110375" lon="7.9775083"><ele>733.6</ele><time>2026-04-03T12:17:30.932Z</time></trkpt><trkpt lat="44.110335" lon="7.977435"><ele>734.0</ele><time>2026-04-03T12:17:31.933Z</time></trkpt><trkpt lat="44.110245" lon="7.977315"><ele>736.8000000000001</ele><time>2026-04-03T12:17:33.933Z</time></trkpt><trkpt lat="44.1101517" lon="7.9772183"><ele>739.6</ele><time>2026-04-03T12:17:35.933Z</time></trkpt><trkpt lat="44.110065" lon="7.977145"><ele>742.4</ele><time>2026-04-03T12:17:37.933Z</time></trkpt><trkpt lat="44.1099567" lon="7.97709"><ele>745.2</ele><time>2026-04-03T12:17:39.932Z</time></trkpt><trkpt lat="44.1098517" lon="7.9770733"><ele>748.0</ele><time>2026-04-03T12:17:41.933Z</time></trkpt><trkpt lat="44.109755" lon="7.9770383"><ele>748.0</ele><time>2026-04-03T12:17:43.933Z</time></trkpt><trkpt lat="44.1096933" lon="7.977005"><ele>748.0</ele><time>2026-04-03T12:17:45.933Z</time></trkpt><trkpt lat="44.1096333" lon="7.976945"><ele>748.0</ele><time>2026-04-03T12:17:47.933Z</time></trkpt><trkpt lat="44.1095717" lon="7.9768867"><ele>748.0</ele><time>2026-04-03T12:17:50.932Z</time></trkpt><trkpt lat="44.1094633" lon="7.976795"><ele>748.0</ele><time>2026-04-03T12:18:07.933Z</time></trkpt><trkpt lat="44.1094367" lon="7.9766583"><ele>748.0</ele><time>2026-04-03T12:18:28.933Z</time></trkpt><trkpt lat="44.10941" lon="7.9765417"><ele>742.8</ele><time>2026-04-03T12:18:36.933Z</time></trkpt><trkpt lat="44.10937" lon="7.9764283"><ele>737.5999999999999</ele><time>2026-04-03T12:18:41.932Z</time></trkpt><trkpt lat="44.1093233" lon="7.97634"><ele>732.4000000000001</ele><time>2026-04-03T12:18:46.932Z</time></trkpt><trkpt lat="44.109215" lon="7.9763267"><ele>727.2</ele><time>2026-04-03T12:19:16.933Z</time></trkpt><trkpt lat="44.10929" lon="7.9764117"><ele>722.0</ele><time>2026-04-03T12:19:58.933Z</time></trkpt><trkpt lat="44.1093483" lon="7.9765233"><ele>722.0</ele><time>2026-04-03T12:20:24.932Z</time></trkpt><trkpt lat="44.1093433" lon="7.9764267"><ele>722.0</ele><time>2026-04-03T12:20:39.932Z</time></trkpt><trkpt lat="44.1094033" lon="7.9763767"><ele>722.0</ele><time>2026-04-03T12:20:50.931Z</time></trkpt><trkpt lat="44.1094633" lon="7.9764783"><ele>722.0</ele><time>2026-04-03T12:21:30.931Z</time></trkpt><trkpt lat="44.109535" lon="7.9765617"><ele>722.0</ele><time>2026-04-03T12:21:32.931Z</time></trkpt><trkpt lat="44.109625" lon="7.9766033"><ele>722.0</ele><time>2026-04-03T12:21:34.932Z</time></trkpt><trkpt lat="44.1096683" lon="7.9766683"><ele>718.8</ele><time>2026-04-03T12:21:35.932Z</time></trkpt><trkpt lat="44.10972" lon="7.9767383"><ele>715.6</ele><time>2026-04-03T12:21:36.931Z</time></trkpt><trkpt lat="44.1097917" lon="7.9768367"><ele>712.4</ele><time>2026-04-03T12:21:37.932Z</time></trkpt><trkpt lat="44.1098633" lon="7.9769183"><ele>709.1999999999999</ele><time>2026-04-03T12:21:38.932Z</time></trkpt><trkpt lat="44.1099233" lon="7.976965"><ele>706.0</ele><time>2026-04-03T12:21:39.932Z</time></trkpt><trkpt lat="44.1100333" lon="7.977055"><ele>706.0</ele><time>2026-04-03T12:21:41.932Z</time></trkpt><trkpt lat="44.110095" lon="7.9771167"><ele>706.0</ele><time>2026-04-03T12:21:42.931Z</time></trkpt><trkpt lat="44.1101517" lon="7.9771667"><ele>706.0</ele><time>2026-04-03T12:21:43.931Z</time></trkpt><trkpt lat="44.110205" lon="7.9772483"><ele>706.0</ele><time>2026-04-03T12:21:44.931Z</time></trkpt><trkpt lat="44.1102517" lon="7.97731"><ele>706.0</ele><time>2026-04-03T12:21:45.932Z</time></trkpt><trkpt lat="44.1103133" lon="7.9773867"><ele>706.0</ele><time>2026-04-03T12:21:46.931Z</time></trkpt><trkpt lat="44.1103683" lon="7.977475"><ele>711.5999999999999</ele><time>2026-04-03T12:21:47.931Z</time></trkpt><trkpt lat="44.1104267" lon="7.9776283"><ele>717.2</ele><time>2026-04-03T12:21:49.932Z</time></trkpt><trkpt lat="44.1104533" lon="7.9777683"><ele>722.8</ele><time>2026-04-03T12:21:51.931Z</time></trkpt><trkpt lat="44.1104467" lon="7.9779367"><ele>728.4000000000001</ele><time>2026-04-03T12:21:53.932Z</time></trkpt><trkpt lat="44.1104417" lon="7.97803"><ele>734.0</ele><time>2026-04-03T12:21:54.932Z</time></trkpt><trkpt lat="44.1104133" lon="7.9781083"><ele>734.0</ele><time>2026-04-03T12:21:55.932Z</time></trkpt><trkpt lat="44.1103917" lon="7.9782067"><ele>734.0</ele><time>2026-04-03T12:21:56.932Z</time></trkpt><trkpt lat="44.110395" lon="7.978315"><ele>734.0</ele><time>2026-04-03T12:21:57.931Z</time></trkpt><trkpt lat="44.1103967" lon="7.9784167"><ele>734.0</ele><time>2026-04-03T12:21:58.932Z</time></trkpt><trkpt lat="44.1103983" lon="7.97854"><ele>734.0</ele><time>2026-04-03T12:21:59.932Z</time></trkpt><trkpt lat="44.1104167" lon="7.9786583"><ele>734.0</ele><time>2026-04-03T12:22:00.932Z</time></trkpt><trkpt lat="44.11044" lon="7.9787717"><ele>733.6666666666666</ele><time>2026-04-03T12:22:01.931Z</time></trkpt><trkpt lat="44.11046" lon="7.978865"><ele>733.3333333333333</ele><time>2026-04-03T12:22:02.931Z</time></trkpt><trkpt lat="44.11047" lon="7.9789517"><ele>733.0</ele><time>2026-04-03T12:22:03.932Z</time></trkpt><trkpt lat="44.1104617" lon="7.9790917"><ele>732.6666666666666</ele><time>2026-04-03T12:22:05.931Z</time></trkpt><trkpt lat="44.110405" lon="7.97921"><ele>732.3333333333334</ele><time>2026-04-03T12:22:07.931Z</time></trkpt><trkpt lat="44.1103583" lon="7.9792717"><ele>732.0</ele><time>2026-04-03T12:22:08.932Z</time></trkpt><trkpt lat="44.1103067" lon="7.9793367"><ele>728.1666666666666</ele><time>2026-04-03T12:22:09.932Z</time></trkpt><trkpt lat="44.1102517" lon="7.9793983"><ele>724.3333333333334</ele><time>2026-04-03T12:22:10.932Z</time></trkpt><trkpt lat="44.11021" lon="7.979465"><ele>720.5</ele><time>2026-04-03T12:22:11.932Z</time></trkpt><trkpt lat="44.1101583" lon="7.9795683"><ele>716.6666666666667</ele><time>2026-04-03T12:22:13.932Z</time></trkpt><trkpt lat="44.1101217" lon="7.9797533"><ele>712.8333333333334</ele><time>2026-04-03T12:22:15.932Z</time></trkpt><trkpt lat="44.11012" lon="7.979865"><ele>709.0</ele><time>2026-04-03T12:22:16.932Z</time></trkpt><trkpt lat="44.1101083" lon="7.9799517"><ele>705.6</ele><time>2026-04-03T12:22:17.931Z</time></trkpt><trkpt lat="44.11008" lon="7.9801083"><ele>702.2</ele><time>2026-04-03T12:22:19.932Z</time></trkpt><trkpt lat="44.1100317" lon="7.9802267"><ele>698.8000000000001</ele><time>2026-04-03T12:22:21.931Z</time></trkpt><trkpt lat="44.1099817" lon="7.9803267"><ele>695.4000000000001</ele><time>2026-04-03T12:22:23.932Z</time></trkpt><trkpt lat="44.109955" lon="7.9804233"><ele>692.0</ele><time>2026-04-03T12:22:25.932Z</time></trkpt><trkpt lat="44.1099383" lon="7.9805433"><ele>692.0</ele><time>2026-04-03T12:22:27.932Z</time></trkpt><trkpt lat="44.109915" lon="7.9806817"><ele>692.0</ele><time>2026-04-03T12:22:29.931Z</time></trkpt><trkpt lat="44.1098967" lon="7.9808417"><ele>692.0</ele><time>2026-04-03T12:22:31.931Z</time></trkpt><trkpt lat="44.1098883" lon="7.981"><ele>692.0</ele><time>2026-04-03T12:22:33.932Z</time></trkpt><trkpt lat="44.1098733" lon="7.98111"><ele>692.0</ele><time>2026-04-03T12:22:35.932Z</time></trkpt><trkpt lat="44.109855" lon="7.9812867"><ele>689.2</ele><time>2026-04-03T12:24:02.932Z</time></trkpt><trkpt lat="44.10981" lon="7.9814183"><ele>686.4000000000001</ele><time>2026-04-03T12:24:05.931Z</time></trkpt><trkpt lat="44.1097617" lon="7.98153"><ele>683.5999999999999</ele><time>2026-04-03T12:24:07.931Z</time></trkpt><trkpt lat="44.1096917" lon="7.981645"><ele>680.8</ele><time>2026-04-03T12:24:09.931Z</time></trkpt><trkpt lat="44.1096167" lon="7.9817467"><ele>678.0</ele><time>2026-04-03T12:24:11.932Z</time></trkpt><trkpt lat="44.1095683" lon="7.98181"><ele>678.0</ele><time>2026-04-03T12:24:12.932Z</time></trkpt><trkpt lat="44.109515" lon="7.9818783"><ele>678.0</ele><time>2026-04-03T12:24:13.932Z</time></trkpt><trkpt lat="44.1094567" lon="7.9819583"><ele>678.0</ele><time>2026-04-03T12:24:14.932Z</time></trkpt><trkpt lat="44.1094167" lon="7.9820383"><ele>678.0</ele><time>2026-04-03T12:24:15.932Z</time></trkpt><trkpt lat="44.109375" lon="7.982135"><ele>678.0</ele><time>2026-04-03T12:24:16.932Z</time></trkpt><trkpt lat="44.109335" lon="7.982215"><ele>678.0</ele><time>2026-04-03T12:24:17.931Z</time></trkpt><trkpt lat="44.109295" lon="7.982285"><ele>678.0</ele><time>2026-04-03T12:24:18.932Z</time></trkpt><trkpt lat="44.1092533" lon="7.982355"><ele>678.0</ele><time>2026-04-03T12:24:19.932Z</time></trkpt><trkpt lat="44.1092067" lon="7.9824317"><ele>678.0</ele><time>2026-04-03T12:24:20.932Z</time></trkpt><trkpt lat="44.10912" lon="7.982565"><ele>678.0</ele><time>2026-04-03T12:24:22.932Z</time></trkpt><trkpt lat="44.1090567" lon="7.982645"><ele>678.0</ele><time>2026-04-03T12:24:23.932Z</time></trkpt><trkpt lat="44.1089867" lon="7.9827183"><ele>678.0</ele><time>2026-04-03T12:24:24.931Z</time></trkpt><trkpt lat="44.1089183" lon="7.9827967"><ele>682.0</ele><time>2026-04-03T12:24:25.931Z</time></trkpt><trkpt lat="44.1088717" lon="7.9828717"><ele>686.0</ele><time>2026-04-03T12:24:26.932Z</time></trkpt><trkpt lat="44.1088283" lon="7.9829533"><ele>690.0</ele><time>2026-04-03T12:24:27.932Z</time></trkpt><trkpt lat="44.1087767" lon="7.9830483"><ele>694.0</ele><time>2026-04-03T12:24:28.932Z</time></trkpt><trkpt lat="44.108725" lon="7.9831417"><ele>698.0</ele><time>2026-04-03T12:24:29.932Z</time></trkpt><trkpt lat="44.1086767" lon="7.9832367"><ele>702.0</ele><time>2026-04-03T12:24:30.932Z</time></trkpt><trkpt lat="44.10863" lon="7.9833233"><ele>695.8</ele><time>2026-04-03T12:24:31.932Z</time></trkpt><trkpt lat="44.1085833" lon="7.9834"><ele>689.6</ele><time>2026-04-03T12:24:32.932Z</time></trkpt><trkpt lat="44.1085367" lon="7.9835283"><ele>683.4</ele><time>2026-04-03T12:24:34.931Z</time></trkpt><trkpt lat="44.1085183" lon="7.9837017"><ele>677.1999999999999</ele><time>2026-04-03T12:24:36.932Z</time></trkpt><trkpt lat="44.1085167" lon="7.9838133"><ele>671.0</ele><time>2026-04-03T12:24:37.932Z</time></trkpt><trkpt lat="44.10852" lon="7.9839383"><ele>671.0</ele><time>2026-04-03T12:24:38.932Z</time></trkpt><trkpt lat="44.1085233" lon="7.9840633"><ele>671.0</ele><time>2026-04-03T12:24:39.932Z</time></trkpt><trkpt lat="44.1085117" lon="7.984185"><ele>671.0</ele><time>2026-04-03T12:24:40.932Z</time></trkpt><trkpt lat="44.10849" lon="7.9843083"><ele>671.0</ele><time>2026-04-03T12:24:41.931Z</time></trkpt><trkpt lat="44.10846" lon="7.9844333"><ele>671.0</ele><time>2026-04-03T12:24:42.932Z</time></trkpt><trkpt lat="44.10842" lon="7.984545"><ele>670.1666666666666</ele><time>2026-04-03T12:24:43.931Z</time></trkpt><trkpt lat="44.1083883" lon="7.9846317"><ele>669.3333333333333</ele><time>2026-04-03T12:24:44.932Z</time></trkpt><trkpt lat="44.1083667" lon="7.984715"><ele>668.5</ele><time>2026-04-03T12:24:45.932Z</time></trkpt><trkpt lat="44.10835" lon="7.9848033"><ele>667.6666666666666</ele><time>2026-04-03T12:24:46.932Z</time></trkpt><trkpt lat="44.10833" lon="7.9849683"><ele>666.8333333333334</ele><time>2026-04-03T12:24:48.932Z</time></trkpt><trkpt lat="44.108315" lon="7.98509"><ele>666.0</ele><time>2026-04-03T12:24:50.932Z</time></trkpt><trkpt lat="44.1083317" lon="7.9852583"><ele>666.0</ele><time>2026-04-03T12:24:52.932Z</time></trkpt><trkpt lat="44.1083467" lon="7.9853717"><ele>666.0</ele><time>2026-04-03T12:24:53.932Z</time></trkpt><trkpt lat="44.108355" lon="7.9855033"><ele>666.0</ele><time>2026-04-03T12:24:54.932Z</time></trkpt><trkpt lat="44.1083617" lon="7.985645"><ele>666.0</ele><time>2026-04-03T12:24:55.932Z</time></trkpt><trkpt lat="44.10837" lon="7.98579"><ele>666.0</ele><time>2026-04-03T12:24:56.932Z</time></trkpt><trkpt lat="44.1083883" lon="7.9859183"><ele>664.0</ele><time>2026-04-03T12:24:57.932Z</time></trkpt><trkpt lat="44.108405" lon="7.98604"><ele>662.0</ele><time>2026-04-03T12:24:58.932Z</time></trkpt><trkpt lat="44.1084167" lon="7.98615"><ele>660.0</ele><time>2026-04-03T12:24:59.931Z</time></trkpt><trkpt lat="44.108425" lon="7.9862667"><ele>658.0</ele><time>2026-04-03T12:25:00.932Z</time></trkpt><trkpt lat="44.108425" lon="7.9863683"><ele>656.0</ele><time>2026-04-03T12:25:01.932Z</time></trkpt><trkpt lat="44.1084283" lon="7.9864617"><ele>654.0</ele><time>2026-04-03T12:25:02.932Z</time></trkpt><trkpt lat="44.108455" lon="7.9865967"><ele>651.1666666666666</ele><time>2026-04-03T12:25:04.932Z</time></trkpt><trkpt lat="44.108475" lon="7.9867317"><ele>648.3333333333334</ele><time>2026-04-03T12:25:06.932Z</time></trkpt><trkpt lat="44.108475" lon="7.9868767"><ele>645.5</ele><time>2026-04-03T12:25:08.931Z</time></trkpt><trkpt lat="44.1084733" lon="7.9869667"><ele>642.6666666666667</ele><time>2026-04-03T12:25:09.932Z</time></trkpt><trkpt lat="44.1084567" lon="7.9870683"><ele>639.8333333333334</ele><time>2026-04-03T12:25:10.932Z</time></trkpt><trkpt lat="44.1084283" lon="7.9871617"><ele>637.0</ele><time>2026-04-03T12:25:11.932Z</time></trkpt><trkpt lat="44.1084183" lon="7.987265"><ele>637.0</ele><time>2026-04-03T12:25:12.932Z</time></trkpt><trkpt lat="44.1084017" lon="7.9873683"><ele>637.0</ele><time>2026-04-03T12:25:13.932Z</time></trkpt><trkpt lat="44.10839" lon="7.987485"><ele>637.0</ele><time>2026-04-03T12:25:14.93Z</time></trkpt><trkpt lat="44.1083767" lon="7.987605"><ele>637.0</ele><time>2026-04-03T12:25:15.931Z</time></trkpt><trkpt lat="44.10837" lon="7.9877367"><ele>637.0</ele><time>2026-04-03T12:25:16.931Z</time></trkpt><trkpt lat="44.1083617" lon="7.9878633"><ele>637.0</ele><time>2026-04-03T12:25:17.931Z</time></trkpt><trkpt lat="44.1083483" lon="7.9880017"><ele>635.0</ele><time>2026-04-03T12:25:18.931Z</time></trkpt><trkpt lat="44.1083433" lon="7.988135"><ele>633.0</ele><time>2026-04-03T12:25:19.931Z</time></trkpt><trkpt lat="44.108355" lon="7.9882617"><ele>631.0</ele><time>2026-04-03T12:25:20.93Z</time></trkpt><trkpt lat="44.1083717" lon="7.9883733"><ele>629.0</ele><time>2026-04-03T12:25:21.931Z</time></trkpt><trkpt lat="44.1083833" lon="7.9884883"><ele>627.0</ele><time>2026-04-03T12:25:22.93Z</time></trkpt><trkpt lat="44.108405" lon="7.9885783"><ele>625.0</ele><time>2026-04-03T12:25:23.93Z</time></trkpt><trkpt lat="44.10842" lon="7.9887283"><ele>623.0</ele><time>2026-04-03T12:25:25.931Z</time></trkpt><trkpt lat="44.1084167" lon="7.9888167"><ele>621.0</ele><time>2026-04-03T12:25:26.931Z</time></trkpt><trkpt lat="44.1083967" lon="7.9889017"><ele>619.0</ele><time>2026-04-03T12:25:27.93Z</time></trkpt><trkpt lat="44.1083583" lon="7.9889867"><ele>617.0</ele><time>2026-04-03T12:25:28.93Z</time></trkpt><trkpt lat="44.1083167" lon="7.9890767"><ele>615.0</ele><time>2026-04-03T12:25:29.931Z</time></trkpt><trkpt lat="44.1082617" lon="7.9891683"><ele>613.0</ele><time>2026-04-03T12:25:30.931Z</time></trkpt><trkpt lat="44.1082083" lon="7.9892767"><ele>617.1666666666667</ele><time>2026-04-03T12:25:31.931Z</time></trkpt><trkpt lat="44.108175" lon="7.98939"><ele>621.3333333333334</ele><time>2026-04-03T12:25:32.93Z</time></trkpt><trkpt lat="44.108175" lon="7.989485"><ele>625.5</ele><time>2026-04-03T12:25:33.931Z</time></trkpt><trkpt lat="44.1081717" lon="7.9896033"><ele>629.6666666666666</ele><time>2026-04-03T12:25:34.93Z</time></trkpt><trkpt lat="44.1081717" lon="7.9897167"><ele>633.8333333333333</ele><time>2026-04-03T12:25:35.931Z</time></trkpt><trkpt lat="44.1081583" lon="7.9898417"><ele>638.0</ele><time>2026-04-03T12:25:36.93Z</time></trkpt><trkpt lat="44.108145" lon="7.98995"><ele>633.4285714285714</ele><time>2026-04-03T12:25:37.931Z</time></trkpt><trkpt lat="44.1081217" lon="7.990045"><ele>628.8571428571428</ele><time>2026-04-03T12:25:38.931Z</time></trkpt><trkpt lat="44.108085" lon="7.9901267"><ele>624.2857142857142</ele><time>2026-04-03T12:25:39.931Z</time></trkpt><trkpt lat="44.1080317" lon="7.9901933"><ele>619.7142857142858</ele><time>2026-04-03T12:25:40.931Z</time></trkpt><trkpt lat="44.1079717" lon="7.990235"><ele>615.1428571428571</ele><time>2026-04-03T12:25:41.93Z</time></trkpt><trkpt lat="44.1079" lon="7.9902617"><ele>610.5714285714286</ele><time>2026-04-03T12:25:42.931Z</time></trkpt><trkpt lat="44.10782" lon="7.9902683"><ele>606.0</ele><time>2026-04-03T12:25:43.931Z</time></trkpt><trkpt lat="44.107755" lon="7.9902667"><ele>606.0</ele><time>2026-04-03T12:25:44.931Z</time></trkpt><trkpt lat="44.1076467" lon="7.99031"><ele>606.0</ele><time>2026-04-03T12:25:46.93Z</time></trkpt><trkpt lat="44.107585" lon="7.990415"><ele>606.0</ele><time>2026-04-03T12:25:48.931Z</time></trkpt><trkpt lat="44.1075917" lon="7.9905033"><ele>606.0</ele><time>2026-04-03T12:25:50.931Z</time></trkpt><trkpt lat="44.1075867" lon="7.99064"><ele>606.0</ele><time>2026-04-03T12:25:52.931Z</time></trkpt><trkpt lat="44.1076217" lon="7.9907933"><ele>605.6</ele><time>2026-04-03T12:25:54.931Z</time></trkpt><trkpt lat="44.1076567" lon="7.9909517"><ele>605.2</ele><time>2026-04-03T12:25:56.931Z</time></trkpt><trkpt lat="44.1076617" lon="7.9910767"><ele>604.8</ele><time>2026-04-03T12:25:57.931Z</time></trkpt><trkpt lat="44.107675" lon="7.9911867"><ele>604.4</ele><time>2026-04-03T12:25:58.931Z</time></trkpt><trkpt lat="44.1076783" lon="7.991295"><ele>604.0</ele><time>2026-04-03T12:25:59.93Z</time></trkpt><trkpt lat="44.1076933" lon="7.99142"><ele>604.0</ele><time>2026-04-03T12:26:00.93Z</time></trkpt><trkpt lat="44.1076933" lon="7.9915667"><ele>604.0</ele><time>2026-04-03T12:26:01.931Z</time></trkpt><trkpt lat="44.1076917" lon="7.9916883"><ele>604.0</ele><time>2026-04-03T12:26:02.931Z</time></trkpt><trkpt lat="44.10769" lon="7.9918167"><ele>604.0</ele><time>2026-04-03T12:26:03.93Z</time></trkpt><trkpt lat="44.10768" lon="7.9919417"><ele>604.0</ele><time>2026-04-03T12:26:04.93Z</time></trkpt><trkpt lat="44.10768" lon="7.9920783"><ele>604.5</ele><time>2026-04-03T12:26:05.931Z</time></trkpt><trkpt lat="44.1076867" lon="7.9922"><ele>605.0</ele><time>2026-04-03T12:26:06.931Z</time></trkpt><trkpt lat="44.1076967" lon="7.99232"><ele>605.5</ele><time>2026-04-03T12:26:07.931Z</time></trkpt><trkpt lat="44.1077133" lon="7.9924433"><ele>606.0</ele><time>2026-04-03T12:26:08.931Z</time></trkpt><trkpt lat="44.10772" lon="7.99257"><ele>606.5</ele><time>2026-04-03T12:26:09.931Z</time></trkpt><trkpt lat="44.10773" lon="7.9926967"><ele>607.0</ele><time>2026-04-03T12:26:10.931Z</time></trkpt><trkpt lat="44.10774" lon="7.9928417"><ele>607.0</ele><time>2026-04-03T12:26:11.93Z</time></trkpt><trkpt lat="44.10775" lon="7.9929783"><ele>607.0</ele><time>2026-04-03T12:26:12.931Z</time></trkpt><trkpt lat="44.1077667" lon="7.9930967"><ele>607.0</ele><time>2026-04-03T12:26:13.93Z</time></trkpt><trkpt lat="44.1077683" lon="7.9932383"><ele>607.0</ele><time>2026-04-03T12:26:14.931Z</time></trkpt><trkpt lat="44.1077733" lon="7.9933717"><ele>607.0</ele><time>2026-04-03T12:26:15.93Z</time></trkpt><trkpt lat="44.1077783" lon="7.9934733"><ele>605.8000000000001</ele><time>2026-04-03T12:26:16.931Z</time></trkpt><trkpt lat="44.1077667" lon="7.9936333"><ele>604.6</ele><time>2026-04-03T12:26:18.931Z</time></trkpt><trkpt lat="44.1077217" lon="7.9937567"><ele>603.4000000000001</ele><time>2026-04-03T12:26:20.931Z</time></trkpt><trkpt lat="44.1076667" lon="7.9938417"><ele>602.2</ele><time>2026-04-03T12:26:21.931Z</time></trkpt><trkpt lat="44.1076133" lon="7.993935"><ele>601.0</ele><time>2026-04-03T12:26:22.93Z</time></trkpt><trkpt lat="44.107575" lon="7.9940333"><ele>601.0</ele><time>2026-04-03T12:26:23.931Z</time></trkpt><trkpt lat="44.1075333" lon="7.99414"><ele>601.0</ele><time>2026-04-03T12:26:24.931Z</time></trkpt><trkpt lat="44.107485" lon="7.99426"><ele>601.0</ele><time>2026-04-03T12:26:25.93Z</time></trkpt><trkpt lat="44.10744" lon="7.994395"><ele>601.0</ele><time>2026-04-03T12:26:26.93Z</time></trkpt><trkpt lat="44.10738" lon="7.9945433"><ele>601.0</ele><time>2026-04-03T12:26:27.93Z</time></trkpt><trkpt lat="44.1073383" lon="7.9946883"><ele>605.0</ele><time>2026-04-03T12:26:28.931Z</time></trkpt><trkpt lat="44.107305" lon="7.9948233"><ele>609.0</ele><time>2026-04-03T12:26:29.931Z</time></trkpt><trkpt lat="44.1072667" lon="7.9949583"><ele>613.0</ele><time>2026-04-03T12:26:30.931Z</time></trkpt><trkpt lat="44.10724" lon="7.9950683"><ele>617.0</ele><time>2026-04-03T12:26:31.931Z</time></trkpt><trkpt lat="44.1072267" lon="7.9951833"><ele>621.0</ele><time>2026-04-03T12:26:32.931Z</time></trkpt><trkpt lat="44.1072" lon="7.9952917"><ele>621.0</ele><time>2026-04-03T12:26:33.931Z</time></trkpt><trkpt lat="44.10718" lon="7.9953967"><ele>621.0</ele><time>2026-04-03T12:26:34.931Z</time></trkpt><trkpt lat="44.1071633" lon="7.995485"><ele>621.0</ele><time>2026-04-03T12:26:35.931Z</time></trkpt><trkpt lat="44.1071067" lon="7.995615"><ele>621.0</ele><time>2026-04-03T12:26:37.931Z</time></trkpt><trkpt lat="44.1070033" lon="7.9957483"><ele>621.0</ele><time>2026-04-03T12:26:39.931Z</time></trkpt><trkpt lat="44.1069183" lon="7.99581"><ele>621.0</ele><time>2026-04-03T12:26:40.931Z</time></trkpt><trkpt lat="44.10683" lon="7.9958633"><ele>621.0</ele><time>2026-04-03T12:26:41.931Z</time></trkpt><trkpt lat="44.1067633" lon="7.99589"><ele>621.0</ele><time>2026-04-03T12:26:42.931Z</time></trkpt><trkpt lat="44.1066483" lon="7.9958733"><ele>621.0</ele><time>2026-04-03T12:26:44.93Z</time></trkpt><trkpt lat="44.1065883" lon="7.995835"><ele>621.0</ele><time>2026-04-03T12:26:45.93Z</time></trkpt><trkpt lat="44.1065317" lon="7.995785"><ele>621.0</ele><time>2026-04-03T12:26:46.93Z</time></trkpt><trkpt lat="44.1064267" lon="7.9957317"><ele>627.4</ele><time>2026-04-03T12:26:48.931Z</time></trkpt><trkpt lat="44.1063433" lon="7.995675"><ele>633.8</ele><time>2026-04-03T12:26:50.931Z</time></trkpt><trkpt lat="44.10624" lon="7.9955767"><ele>640.1999999999999</ele><time>2026-04-03T12:26:52.93Z</time></trkpt><trkpt lat="44.10614" lon="7.9954967"><ele>646.6</ele><time>2026-04-03T12:26:54.931Z</time></trkpt><trkpt lat="44.10605" lon="7.9955283"><ele>653.0</ele><time>2026-04-03T12:26:56.931Z</time></trkpt><trkpt lat="44.1059917" lon="7.9956017"><ele>653.0</ele><time>2026-04-03T12:26:58.93Z</time></trkpt><trkpt lat="44.105935" lon="7.9956733"><ele>653.0</ele><time>2026-04-03T12:27:00.931Z</time></trkpt><trkpt lat="44.10585" lon="7.99577"><ele>653.0</ele><time>2026-04-03T12:27:02.93Z</time></trkpt><trkpt lat="44.1057533" lon="7.995855"><ele>653.0</ele><time>2026-04-03T12:27:04.93Z</time></trkpt><trkpt lat="44.1056867" lon="7.9959833"><ele>653.0</ele><time>2026-04-03T12:27:06.931Z</time></trkpt><trkpt lat="44.105675" lon="7.9961317"><ele>652.5</ele><time>2026-04-03T12:27:08.931Z</time></trkpt><trkpt lat="44.105685" lon="7.9962217"><ele>652.0</ele><time>2026-04-03T12:27:09.931Z</time></trkpt><trkpt lat="44.1057033" lon="7.9963217"><ele>651.5</ele><time>2026-04-03T12:27:10.931Z</time></trkpt><trkpt lat="44.105725" lon="7.9964383"><ele>651.0</ele><time>2026-04-03T12:27:11.931Z</time></trkpt><trkpt lat="44.10574" lon="7.9965617"><ele>650.5</ele><time>2026-04-03T12:27:12.931Z</time></trkpt><trkpt lat="44.1057333" lon="7.99668"><ele>650.0</ele><time>2026-04-03T12:27:13.931Z</time></trkpt><trkpt lat="44.10571" lon="7.99679"><ele>650.0</ele><time>2026-04-03T12:27:14.93Z</time></trkpt><trkpt lat="44.1056683" lon="7.9968783"><ele>650.0</ele><time>2026-04-03T12:27:15.931Z</time></trkpt><trkpt lat="44.1056" lon="7.9969483"><ele>650.0</ele><time>2026-04-03T12:27:16.931Z</time></trkpt><trkpt lat="44.1055283" lon="7.996995"><ele>650.0</ele><time>2026-04-03T12:27:17.93Z</time></trkpt><trkpt lat="44.1054317" lon="7.9970067"><ele>650.0</ele><time>2026-04-03T12:27:18.931Z</time></trkpt><trkpt lat="44.1053233" lon="7.9970167"><ele>650.0</ele><time>2026-04-03T12:27:19.931Z</time></trkpt><trkpt lat="44.1052067" lon="7.997035"><ele>650.0</ele><time>2026-04-03T12:27:20.93Z</time></trkpt><trkpt lat="44.1051033" lon="7.9970483"><ele>650.0</ele><time>2026-04-03T12:27:21.93Z</time></trkpt><trkpt lat="44.1050067" lon="7.997055"><ele>650.0</ele><time>2026-04-03T12:27:22.931Z</time></trkpt><trkpt lat="44.1049183" lon="7.99706"><ele>650.0</ele><time>2026-04-03T12:27:23.931Z</time></trkpt><trkpt lat="44.1048317" lon="7.997055"><ele>650.0</ele><time>2026-04-03T12:27:24.931Z</time></trkpt><trkpt lat="44.104745" lon="7.997055"><ele>648.8</ele><time>2026-04-03T12:27:25.93Z</time></trkpt><trkpt lat="44.1046433" lon="7.9970583"><ele>647.6</ele><time>2026-04-03T12:27:26.931Z</time></trkpt><trkpt lat="44.1045383" lon="7.9970567"><ele>646.4000000000001</ele><time>2026-04-03T12:27:27.93Z</time></trkpt><trkpt lat="44.10443" lon="7.99703"><ele>645.2</ele><time>2026-04-03T12:27:28.931Z</time></trkpt><trkpt lat="44.1043383" lon="7.99699"><ele>644.0</ele><time>2026-04-03T12:27:29.931Z</time></trkpt><trkpt lat="44.1042567" lon="7.9969533"><ele>644.0</ele><time>2026-04-03T12:27:30.931Z</time></trkpt><trkpt lat="44.1041583" lon="7.9969383"><ele>644.0</ele><time>2026-04-03T12:27:31.931Z</time></trkpt><trkpt lat="44.1040617" lon="7.9969483"><ele>644.0</ele><time>2026-04-03T12:27:32.93Z</time></trkpt><trkpt lat="44.10396" lon="7.9969567"><ele>644.0</ele><time>2026-04-03T12:27:33.93Z</time></trkpt><trkpt lat="44.103865" lon="7.9969383"><ele>644.0</ele><time>2026-04-03T12:27:34.931Z</time></trkpt><trkpt lat="44.103775" lon="7.9969"><ele>643.6</ele><time>2026-04-03T12:27:35.931Z</time></trkpt><trkpt lat="44.1036833" lon="7.99687"><ele>643.2</ele><time>2026-04-03T12:27:36.931Z</time></trkpt><trkpt lat="44.1035767" lon="7.9968433"><ele>642.8000000000001</ele><time>2026-04-03T12:27:37.93Z</time></trkpt><trkpt lat="44.1034633" lon="7.9968417"><ele>642.4000000000001</ele><time>2026-04-03T12:27:38.931Z</time></trkpt><trkpt lat="44.1033383" lon="7.9968583"><ele>642.0</ele><time>2026-04-03T12:27:39.931Z</time></trkpt><trkpt lat="44.10322" lon="7.9968933"><ele>644.0</ele><time>2026-04-03T12:27:40.93Z</time></trkpt><trkpt lat="44.1031167" lon="7.9969533"><ele>646.0</ele><time>2026-04-03T12:27:41.93Z</time></trkpt><trkpt lat="44.1030183" lon="7.99702"><ele>648.0</ele><time>2026-04-03T12:27:42.93Z</time></trkpt><trkpt lat="44.1029333" lon="7.9970983"><ele>650.0</ele><time>2026-04-03T12:27:43.93Z</time></trkpt><trkpt lat="44.1028617" lon="7.9971583"><ele>652.0</ele><time>2026-04-03T12:27:44.931Z</time></trkpt><trkpt lat="44.1028" lon="7.9972017"><ele>652.0</ele><time>2026-04-03T12:27:45.93Z</time></trkpt><trkpt lat="44.1027317" lon="7.9972167"><ele>652.0</ele><time>2026-04-03T12:27:46.931Z</time></trkpt><trkpt lat="44.1026617" lon="7.9971983"><ele>652.0</ele><time>2026-04-03T12:27:47.931Z</time></trkpt><trkpt lat="44.1025733" lon="7.9971633"><ele>652.0</ele><time>2026-04-03T12:27:48.93Z</time></trkpt><trkpt lat="44.1024683" lon="7.9971317"><ele>652.0</ele><time>2026-04-03T12:27:49.931Z</time></trkpt><trkpt lat="44.1023583" lon="7.9971167"><ele>655.8</ele><time>2026-04-03T12:27:50.931Z</time></trkpt><trkpt lat="44.1022533" lon="7.9970817"><ele>659.6</ele><time>2026-04-03T12:27:51.931Z</time></trkpt><trkpt lat="44.102165" lon="7.997055"><ele>663.4</ele><time>2026-04-03T12:27:52.931Z</time></trkpt><trkpt lat="44.1020983" lon="7.997025"><ele>667.1999999999999</ele><time>2026-04-03T12:27:53.93Z</time></trkpt><trkpt lat="44.1020167" lon="7.99698"><ele>671.0</ele><time>2026-04-03T12:27:55.931Z</time></trkpt><trkpt lat="44.1019033" lon="7.9969317"><ele>671.0</ele><time>2026-04-03T12:27:57.93Z</time></trkpt><trkpt lat="44.1018417" lon="7.9969133"><ele>671.0</ele><time>2026-04-03T12:27:58.931Z</time></trkpt><trkpt lat="44.1017233" lon="7.9969533"><ele>671.0</ele><time>2026-04-03T12:28:00.93Z</time></trkpt><trkpt lat="44.1016517" lon="7.996985"><ele>671.0</ele><time>2026-04-03T12:28:01.931Z</time></trkpt><trkpt lat="44.1015583" lon="7.997025"><ele>671.0</ele><time>2026-04-03T12:28:02.931Z</time></trkpt><trkpt lat="44.1014717" lon="7.9970717"><ele>671.0</ele><time>2026-04-03T12:28:03.93Z</time></trkpt><trkpt lat="44.1013867" lon="7.9971167"><ele>671.0</ele><time>2026-04-03T12:28:04.93Z</time></trkpt><trkpt lat="44.1013083" lon="7.9971433"><ele>671.0</ele><time>2026-04-03T12:28:05.931Z</time></trkpt><trkpt lat="44.10124" lon="7.99714"><ele>671.0</ele><time>2026-04-03T12:28:06.931Z</time></trkpt><trkpt lat="44.101185" lon="7.9970933"><ele>671.0</ele><time>2026-04-03T12:28:07.93Z</time></trkpt><trkpt lat="44.1011283" lon="7.997035"><ele>671.0</ele><time>2026-04-03T12:28:08.931Z</time></trkpt><trkpt lat="44.1010717" lon="7.9969633"><ele>671.0</ele><time>2026-04-03T12:28:09.931Z</time></trkpt><trkpt lat="44.1010183" lon="7.9968883"><ele>671.0</ele><time>2026-04-03T12:28:10.931Z</time></trkpt><trkpt lat="44.100925" lon="7.9967983"><ele>671.0</ele><time>2026-04-03T12:28:11.931Z</time></trkpt><trkpt lat="44.10081" lon="7.9967133"><ele>671.0</ele><time>2026-04-03T12:28:12.931Z</time></trkpt><trkpt lat="44.1006783" lon="7.9966533"><ele>668.5</ele><time>2026-04-03T12:28:13.931Z</time></trkpt><trkpt lat="44.100555" lon="7.9965983"><ele>666.0</ele><time>2026-04-03T12:28:14.931Z</time></trkpt><trkpt lat="44.1004517" lon="7.9965317"><ele>663.5</ele><time>2026-04-03T12:28:15.931Z</time></trkpt><trkpt lat="44.1003467" lon="7.996455"><ele>661.0</ele><time>2026-04-03T12:28:16.93Z</time></trkpt><trkpt lat="44.10026" lon="7.9963767"><ele>661.0</ele><time>2026-04-03T12:28:17.931Z</time></trkpt><trkpt lat="44.1001717" lon="7.9962917"><ele>661.0</ele><time>2026-04-03T12:28:18.93Z</time></trkpt><trkpt lat="44.1000883" lon="7.9962333"><ele>661.0</ele><time>2026-04-03T12:28:19.93Z</time></trkpt><trkpt lat="44.100025" lon="7.9961817"><ele>661.0</ele><time>2026-04-03T12:28:20.931Z</time></trkpt><trkpt lat="44.0999583" lon="7.9961083"><ele>661.0</ele><time>2026-04-03T12:28:21.931Z</time></trkpt><trkpt lat="44.0999117" lon="7.996045"><ele>661.0</ele><time>2026-04-03T12:28:22.931Z</time></trkpt><trkpt lat="44.0998633" lon="7.9959717"><ele>662.5</ele><time>2026-04-03T12:28:23.931Z</time></trkpt><trkpt lat="44.09981" lon="7.9959"><ele>664.0</ele><time>2026-04-03T12:28:24.93Z</time></trkpt><trkpt lat="44.0997383" lon="7.99583"><ele>665.5</ele><time>2026-04-03T12:28:25.931Z</time></trkpt><trkpt lat="44.099655" lon="7.9957633"><ele>667.0</ele><time>2026-04-03T12:28:26.931Z</time></trkpt><trkpt lat="44.09956" lon="7.995715"><ele>668.5</ele><time>2026-04-03T12:28:27.93Z</time></trkpt><trkpt lat="44.099485" lon="7.995675"><ele>670.0</ele><time>2026-04-03T12:28:28.93Z</time></trkpt><trkpt lat="44.09941" lon="7.9956683"><ele>670.0</ele><time>2026-04-03T12:28:29.93Z</time></trkpt><trkpt lat="44.09934" lon="7.9957183"><ele>670.0</ele><time>2026-04-03T12:28:30.931Z</time></trkpt><trkpt lat="44.0992633" lon="7.9958"><ele>670.0</ele><time>2026-04-03T12:28:31.931Z</time></trkpt><trkpt lat="44.0991783" lon="7.9958883"><ele>670.0</ele><time>2026-04-03T12:28:32.931Z</time></trkpt><trkpt lat="44.09909" lon="7.9959533"><ele>670.0</ele><time>2026-04-03T12:28:33.931Z</time></trkpt><trkpt lat="44.0990117" lon="7.9959933"><ele>670.4</ele><time>2026-04-03T12:28:34.93Z</time></trkpt><trkpt lat="44.0989467" lon="7.9960067"><ele>670.8</ele><time>2026-04-03T12:28:35.931Z</time></trkpt><trkpt lat="44.09889" lon="7.9958633"><ele>671.2</ele><time>2026-04-03T12:28:37.93Z</time></trkpt><trkpt lat="44.0988633" lon="7.9957617"><ele>671.6</ele><time>2026-04-03T12:28:38.93Z</time></trkpt><trkpt lat="44.0988217" lon="7.9956333"><ele>672.0</ele><time>2026-04-03T12:28:39.931Z</time></trkpt><trkpt lat="44.0987767" lon="7.995515"><ele>672.0</ele><time>2026-04-03T12:28:40.931Z</time></trkpt><trkpt lat="44.0987217" lon="7.9953967"><ele>672.0</ele><time>2026-04-03T12:28:41.931Z</time></trkpt><trkpt lat="44.0986767" lon="7.9952917"><ele>672.0</ele><time>2026-04-03T12:28:42.93Z</time></trkpt><trkpt lat="44.0986433" lon="7.9951983"><ele>672.0</ele><time>2026-04-03T12:28:43.931Z</time></trkpt><trkpt lat="44.0985983" lon="7.99508"><ele>672.0</ele><time>2026-04-03T12:28:45.93Z</time></trkpt><trkpt lat="44.0985233" lon="7.9951417"><ele>672.0</ele><time>2026-04-03T12:28:49.931Z</time></trkpt><trkpt lat="44.0984917" lon="7.9952483"><ele>672.0</ele><time>2026-04-03T12:28:50.931Z</time></trkpt><trkpt lat="44.0984483" lon="7.99535"><ele>672.0</ele><time>2026-04-03T12:28:51.931Z</time></trkpt><trkpt lat="44.0984067" lon="7.9954317"><ele>672.0</ele><time>2026-04-03T12:28:52.931Z</time></trkpt><trkpt lat="44.0983583" lon="7.9954883"><ele>672.0</ele><time>2026-04-03T12:28:53.93Z</time></trkpt><trkpt lat="44.098265" lon="7.9955633"><ele>672.0</ele><time>2026-04-03T12:28:55.931Z</time></trkpt><trkpt lat="44.0981533" lon="7.99559"><ele>672.0</ele><time>2026-04-03T12:28:57.931Z</time></trkpt><trkpt lat="44.09807" lon="7.9956417"><ele>678.0</ele><time>2026-04-03T12:28:59.931Z</time></trkpt><trkpt lat="44.098" lon="7.995775"><ele>684.0</ele><time>2026-04-03T12:29:01.931Z</time></trkpt><trkpt lat="44.097965" lon="7.9958567"><ele>690.0</ele><time>2026-04-03T12:29:02.931Z</time></trkpt><trkpt lat="44.0979267" lon="7.9959567"><ele>696.0</ele><time>2026-04-03T12:29:03.93Z</time></trkpt><trkpt lat="44.0978817" lon="7.996055"><ele>702.0</ele><time>2026-04-03T12:29:04.931Z</time></trkpt><trkpt lat="44.0978317" lon="7.996155"><ele>708.0</ele><time>2026-04-03T12:29:05.931Z</time></trkpt><trkpt lat="44.0977667" lon="7.9962483"><ele>708.0</ele><time>2026-04-03T12:29:06.931Z</time></trkpt><trkpt lat="44.0977033" lon="7.996335"><ele>708.0</ele><time>2026-04-03T12:29:07.93Z</time></trkpt><trkpt lat="44.0976433" lon="7.9964183"><ele>708.0</ele><time>2026-04-03T12:29:08.93Z</time></trkpt><trkpt lat="44.0975817" lon="7.9965133"><ele>708.0</ele><time>2026-04-03T12:29:09.931Z</time></trkpt><trkpt lat="44.09754" lon="7.9966017"><ele>708.0</ele><time>2026-04-03T12:29:10.931Z</time></trkpt><trkpt lat="44.0975117" lon="7.9966933"><ele>708.0</ele><time>2026-04-03T12:29:11.931Z</time></trkpt><trkpt lat="44.0974917" lon="7.9967933"><ele>706.2857142857143</ele><time>2026-04-03T12:29:12.931Z</time></trkpt><trkpt lat="44.097455" lon="7.9968967"><ele>704.5714285714286</ele><time>2026-04-03T12:29:13.931Z</time></trkpt><trkpt lat="44.0974217" lon="7.9969917"><ele>702.8571428571429</ele><time>2026-04-03T12:29:14.931Z</time></trkpt><trkpt lat="44.0973917" lon="7.99709"><ele>701.1428571428571</ele><time>2026-04-03T12:29:15.93Z</time></trkpt><trkpt lat="44.09738" lon="7.9971833"><ele>699.4285714285714</ele><time>2026-04-03T12:29:16.931Z</time></trkpt><trkpt lat="44.09738" lon="7.9972783"><ele>697.7142857142857</ele><time>2026-04-03T12:29:17.931Z</time></trkpt><trkpt lat="44.0973767" lon="7.997385"><ele>696.0</ele><time>2026-04-03T12:29:18.931Z</time></trkpt><trkpt lat="44.097345" lon="7.9974917"><ele>699.8333333333334</ele><time>2026-04-03T12:29:19.931Z</time></trkpt><trkpt lat="44.0973017" lon="7.9975867"><ele>703.6666666666666</ele><time>2026-04-03T12:29:20.931Z</time></trkpt><trkpt lat="44.09724" lon="7.9976733"><ele>707.5</ele><time>2026-04-03T12:29:21.93Z</time></trkpt><trkpt lat="44.09718" lon="7.99775"><ele>711.3333333333333</ele><time>2026-04-03T12:29:22.931Z</time></trkpt><trkpt lat="44.0971083" lon="7.9977983"><ele>715.1666666666666</ele><time>2026-04-03T12:29:23.931Z</time></trkpt><trkpt lat="44.0970317" lon="7.9978283"><ele>719.0</ele><time>2026-04-03T12:29:24.93Z</time></trkpt><trkpt lat="44.0969367" lon="7.9978633"><ele>719.0</ele><time>2026-04-03T12:29:25.93Z</time></trkpt><trkpt lat="44.09684" lon="7.99788"><ele>719.0</ele><time>2026-04-03T12:29:26.931Z</time></trkpt><trkpt lat="44.096745" lon="7.997905"><ele>719.0</ele><time>2026-04-03T12:29:27.93Z</time></trkpt><trkpt lat="44.0966433" lon="7.9979183"><ele>719.0</ele><time>2026-04-03T12:29:28.931Z</time></trkpt><trkpt lat="44.0965567" lon="7.9979183"><ele>719.0</ele><time>2026-04-03T12:29:29.931Z</time></trkpt><trkpt lat="44.0964917" lon="7.9979283"><ele>719.0</ele><time>2026-04-03T12:29:30.931Z</time></trkpt><trkpt lat="44.0964017" lon="7.997995"><ele>723.8333333333333</ele><time>2026-04-03T12:29:32.931Z</time></trkpt><trkpt lat="44.0963517" lon="7.998065"><ele>728.6666666666666</ele><time>2026-04-03T12:29:33.93Z</time></trkpt><trkpt lat="44.0962967" lon="7.9981583"><ele>733.5</ele><time>2026-04-03T12:29:34.93Z</time></trkpt><trkpt lat="44.096245" lon="7.9982367"><ele>738.3333333333334</ele><time>2026-04-03T12:29:35.931Z</time></trkpt><trkpt lat="44.09618" lon="7.998325"><ele>743.1666666666667</ele><time>2026-04-03T12:29:36.931Z</time></trkpt><trkpt lat="44.09612" lon="7.9984067"><ele>748.0</ele><time>2026-04-03T12:29:37.931Z</time></trkpt><trkpt lat="44.0960717" lon="7.9984683"><ele>748.0</ele><time>2026-04-03T12:29:38.93Z</time></trkpt><trkpt lat="44.0961367" lon="7.9983783"><ele>748.0</ele><time>2026-04-03T12:29:54.93Z</time></trkpt><trkpt lat="44.09619" lon="7.99832"><ele>748.0</ele><time>2026-04-03T12:29:56.931Z</time></trkpt><trkpt lat="44.0961717" lon="7.9982317"><ele>748.0</ele><time>2026-04-03T12:30:27.93Z</time></trkpt><trkpt lat="44.0961133" lon="7.998165"><ele>748.0</ele><time>2026-04-03T12:30:30.931Z</time></trkpt><trkpt lat="44.09603" lon="7.9981183"><ele>748.0</ele><time>2026-04-03T12:30:33.93Z</time></trkpt><trkpt lat="44.0959667" lon="7.9980933"><ele>748.0</ele><time>2026-04-03T12:30:35.931Z</time></trkpt><trkpt lat="44.0958767" lon="7.9980917"><ele>748.0</ele><time>2026-04-03T12:30:38.931Z</time></trkpt><trkpt lat="44.0958083" lon="7.9981283"><ele>748.0</ele><time>2026-04-03T12:30:40.93Z</time></trkpt><trkpt lat="44.0957433" lon="7.9981633"><ele>748.0</ele><time>2026-04-03T12:30:42.931Z</time></trkpt><trkpt lat="44.095645" lon="7.9981433"><ele>748.0</ele><time>2026-04-03T12:30:45.931Z</time></trkpt><trkpt lat="44.095625" lon="7.9980517"><ele>748.0</ele><time>2026-04-03T12:30:48.931Z</time></trkpt><trkpt lat="44.0957" lon="7.9979117"><ele>748.0</ele><time>2026-04-03T12:30:50.931Z</time></trkpt><trkpt lat="44.095735" lon="7.997825"><ele>748.0</ele><time>2026-04-03T12:30:51.93Z</time></trkpt><trkpt lat="44.0957733" lon="7.9977517"><ele>748.0</ele><time>2026-04-03T12:30:52.93Z</time></trkpt><trkpt lat="44.09585" lon="7.9976383"><ele>748.0</ele><time>2026-04-03T12:30:54.93Z</time></trkpt><trkpt lat="44.09591" lon="7.99751"><ele>748.0</ele><time>2026-04-03T12:30:56.931Z</time></trkpt><trkpt lat="44.095935" lon="7.997405"><ele>748.0</ele><time>2026-04-03T12:30:58.93Z</time></trkpt><trkpt lat="44.09596" lon="7.9973217"><ele>749.0</ele><time>2026-04-03T12:31:01.931Z</time></trkpt><trkpt lat="44.0959033" lon="7.9972467"><ele>750.0</ele><time>2026-04-03T12:37:56.929Z</time></trkpt><trkpt lat="44.09577" lon="7.997195"><ele>751.0</ele><time>2026-04-03T12:37:58.929Z</time></trkpt><trkpt lat="44.0956917" lon="7.9971983"><ele>752.0</ele><time>2026-04-03T12:37:59.928Z</time></trkpt><trkpt lat="44.095615" lon="7.9972433"><ele>753.0</ele><time>2026-04-03T12:38:00.928Z</time></trkpt><trkpt lat="44.0955467" lon="7.9973117"><ele>748.4</ele><time>2026-04-03T12:38:01.929Z</time></trkpt><trkpt lat="44.09548" lon="7.9973833"><ele>743.8</ele><time>2026-04-03T12:38:02.929Z</time></trkpt><trkpt lat="44.095435" lon="7.9974817"><ele>739.2</ele><time>2026-04-03T12:38:03.929Z</time></trkpt><trkpt lat="44.0954017" lon="7.99759"><ele>734.6</ele><time>2026-04-03T12:38:04.928Z</time></trkpt><trkpt lat="44.0953867" lon="7.9977383"><ele>730.0</ele><time>2026-04-03T12:38:05.929Z</time></trkpt><trkpt lat="44.0953733" lon="7.9979083"><ele>730.0</ele><time>2026-04-03T12:38:06.928Z</time></trkpt><trkpt lat="44.0953567" lon="7.998085"><ele>730.0</ele><time>2026-04-03T12:38:07.928Z</time></trkpt><trkpt lat="44.0953217" lon="7.9982583"><ele>730.0</ele><time>2026-04-03T12:38:08.929Z</time></trkpt><trkpt lat="44.0952733" lon="7.9984183"><ele>730.0</ele><time>2026-04-03T12:38:09.928Z</time></trkpt><trkpt lat="44.0952167" lon="7.99857"><ele>732.0</ele><time>2026-04-03T12:38:10.929Z</time></trkpt><trkpt lat="44.0951617" lon="7.998705"><ele>734.0</ele><time>2026-04-03T12:38:11.929Z</time></trkpt><trkpt lat="44.0950983" lon="7.998825"><ele>736.0</ele><time>2026-04-03T12:38:12.929Z</time></trkpt><trkpt lat="44.0950267" lon="7.9989383"><ele>738.0</ele><time>2026-04-03T12:38:13.929Z</time></trkpt><trkpt lat="44.0949417" lon="7.9990417"><ele>740.0</ele><time>2026-04-03T12:38:14.929Z</time></trkpt><trkpt lat="44.0948517" lon="7.999165"><ele>735.25</ele><time>2026-04-03T12:38:15.929Z</time></trkpt><trkpt lat="44.09475" lon="7.9992867"><ele>730.5</ele><time>2026-04-03T12:38:16.929Z</time></trkpt><trkpt lat="44.09466" lon="7.9994"><ele>725.75</ele><time>2026-04-03T12:38:17.928Z</time></trkpt><trkpt lat="44.0945767" lon="7.9995183"><ele>721.0</ele><time>2026-04-03T12:38:18.929Z</time></trkpt><trkpt lat="44.094505" lon="7.9996217"><ele>721.0</ele><time>2026-04-03T12:38:19.928Z</time></trkpt><trkpt lat="44.094445" lon="7.9996967"><ele>721.0</ele><time>2026-04-03T12:38:20.929Z</time></trkpt><trkpt lat="44.09439" lon="7.999745"><ele>721.0</ele><time>2026-04-03T12:38:21.928Z</time></trkpt><trkpt lat="44.09432" lon="7.9998217"><ele>721.0</ele><time>2026-04-03T12:38:23.929Z</time></trkpt><trkpt lat="44.094255" lon="7.9998817"><ele>721.0</ele><time>2026-04-03T12:38:26.928Z</time></trkpt><trkpt lat="44.0941833" lon="7.9999467"><ele>721.0</ele><time>2026-04-03T12:38:28.928Z</time></trkpt><trkpt lat="44.0940983" lon="8.000025"><ele>711.1999999999999</ele><time>2026-04-03T12:38:30.928Z</time></trkpt><trkpt lat="44.0940067" lon="8.0001267"><ele>701.4</ele><time>2026-04-03T12:38:32.929Z</time></trkpt><trkpt lat="44.0939217" lon="8.0001917"><ele>691.6</ele><time>2026-04-03T12:38:34.929Z</time></trkpt><trkpt lat="44.0938467" lon="8.00032"><ele>681.8</ele><time>2026-04-03T12:38:36.929Z</time></trkpt><trkpt lat="44.093815" lon="8.0004267"><ele>672.0</ele><time>2026-04-03T12:38:37.928Z</time></trkpt><trkpt lat="44.0937367" lon="8.0005667"><ele>672.0</ele><time>2026-04-03T12:38:39.929Z</time></trkpt><trkpt lat="44.09365" lon="8.0006733"><ele>672.0</ele><time>2026-04-03T12:38:41.929Z</time></trkpt><trkpt lat="44.0935917" lon="8.0007617"><ele>672.0</ele><time>2026-04-03T12:38:42.928Z</time></trkpt><trkpt lat="44.093535" lon="8.00082"><ele>672.0</ele><time>2026-04-03T12:38:43.929Z</time></trkpt><trkpt lat="44.0934617" lon="8.00087"><ele>672.0</ele><time>2026-04-03T12:38:44.929Z</time></trkpt><trkpt lat="44.0933733" lon="8.000945"><ele>668.4000000000001</ele><time>2026-04-03T12:38:45.929Z</time></trkpt><trkpt lat="44.0932767" lon="8.0010333"><ele>664.8000000000001</ele><time>2026-04-03T12:38:46.929Z</time></trkpt><trkpt lat="44.0931967" lon="8.001105"><ele>661.2</ele><time>2026-04-03T12:38:47.929Z</time></trkpt><trkpt lat="44.093125" lon="8.001185"><ele>657.6</ele><time>2026-04-03T12:38:48.928Z</time></trkpt><trkpt lat="44.0930533" lon="8.0012683"><ele>654.0</ele><time>2026-04-03T12:38:49.929Z</time></trkpt><trkpt lat="44.0929683" lon="8.0013933"><ele>654.0</ele><time>2026-04-03T12:38:50.929Z</time></trkpt><trkpt lat="44.0928983" lon="8.00148"><ele>654.0</ele><time>2026-04-03T12:38:51.929Z</time></trkpt><trkpt lat="44.0928267" lon="8.0015667"><ele>654.0</ele><time>2026-04-03T12:38:52.928Z</time></trkpt><trkpt lat="44.092765" lon="8.0016567"><ele>654.0</ele><time>2026-04-03T12:38:53.929Z</time></trkpt><trkpt lat="44.092705" lon="8.0017583"><ele>654.0</ele><time>2026-04-03T12:38:54.928Z</time></trkpt><trkpt lat="44.0926417" lon="8.0018583"><ele>650.1666666666666</ele><time>2026-04-03T12:38:55.929Z</time></trkpt><trkpt lat="44.0925733" lon="8.0019367"><ele>646.3333333333334</ele><time>2026-04-03T12:38:56.929Z</time></trkpt><trkpt lat="44.092505" lon="8.0020217"><ele>642.5</ele><time>2026-04-03T12:38:57.929Z</time></trkpt><trkpt lat="44.0924383" lon="8.0020833"><ele>638.6666666666667</ele><time>2026-04-03T12:38:58.929Z</time></trkpt><trkpt lat="44.0923767" lon="8.00214"><ele>634.8333333333334</ele><time>2026-04-03T12:38:59.929Z</time></trkpt><trkpt lat="44.0923083" lon="8.0021883"><ele>631.0</ele><time>2026-04-03T12:39:00.929Z</time></trkpt><trkpt lat="44.0922467" lon="8.0022367"><ele>631.0</ele><time>2026-04-03T12:39:01.929Z</time></trkpt><trkpt lat="44.092175" lon="8.0023017"><ele>631.0</ele><time>2026-04-03T12:39:02.928Z</time></trkpt><trkpt lat="44.092105" lon="8.0023617"><ele>631.0</ele><time>2026-04-03T12:39:03.929Z</time></trkpt><trkpt lat="44.0920417" lon="8.0024083"><ele>631.0</ele><time>2026-04-03T12:39:04.928Z</time></trkpt><trkpt lat="44.0919667" lon="8.00245"><ele>631.0</ele><time>2026-04-03T12:39:05.928Z</time></trkpt><trkpt lat="44.091895" lon="8.0024667"><ele>631.0</ele><time>2026-04-03T12:39:06.928Z</time></trkpt><trkpt lat="44.091825" lon="8.002485"><ele>629.5</ele><time>2026-04-03T12:39:07.928Z</time></trkpt><trkpt lat="44.0917583" lon="8.00252"><ele>628.0</ele><time>2026-04-03T12:39:08.929Z</time></trkpt><trkpt lat="44.0916933" lon="8.0025533"><ele>626.5</ele><time>2026-04-03T12:39:09.929Z</time></trkpt><trkpt lat="44.09163" lon="8.0026167"><ele>625.0</ele><time>2026-04-03T12:39:10.929Z</time></trkpt><trkpt lat="44.0915717" lon="8.0027167"><ele>623.5</ele><time>2026-04-03T12:39:11.928Z</time></trkpt><trkpt lat="44.09152" lon="8.0028317"><ele>622.0</ele><time>2026-04-03T12:39:12.929Z</time></trkpt><trkpt lat="44.09148" lon="8.0029367"><ele>622.0</ele><time>2026-04-03T12:39:13.929Z</time></trkpt><trkpt lat="44.09148" lon="8.00303"><ele>622.0</ele><time>2026-04-03T12:39:14.928Z</time></trkpt><trkpt lat="44.0915" lon="8.0031233"><ele>622.0</ele><time>2026-04-03T12:39:15.929Z</time></trkpt><trkpt lat="44.091545" lon="8.00324"><ele>622.0</ele><time>2026-04-03T12:39:16.928Z</time></trkpt><trkpt lat="44.0915983" lon="8.0033483"><ele>622.0</ele><time>2026-04-03T12:39:17.928Z</time></trkpt><trkpt lat="44.0916683" lon="8.0034333"><ele>622.0</ele><time>2026-04-03T12:39:18.929Z</time></trkpt><trkpt lat="44.0917317" lon="8.0034867"><ele>630.0</ele><time>2026-04-03T12:39:19.928Z</time></trkpt><trkpt lat="44.0917967" lon="8.0035733"><ele>638.0</ele><time>2026-04-03T12:39:52.928Z</time></trkpt><trkpt lat="44.0918817" lon="8.0036667"><ele>646.0</ele><time>2026-04-03T12:39:54.928Z</time></trkpt><trkpt lat="44.091945" lon="8.0037833"><ele>654.0</ele><time>2026-04-03T12:39:56.929Z</time></trkpt><trkpt lat="44.091905" lon="8.0038883"><ele>662.0</ele><time>2026-04-03T12:39:59.929Z</time></trkpt><trkpt lat="44.0918067" lon="8.0039633"><ele>662.0</ele><time>2026-04-03T12:40:01.929Z</time></trkpt><trkpt lat="44.09175" lon="8.0040233"><ele>662.0</ele><time>2026-04-03T12:40:02.928Z</time></trkpt><trkpt lat="44.0916817" lon="8.0041117"><ele>662.0</ele><time>2026-04-03T12:40:04.929Z</time></trkpt><trkpt lat="44.0916333" lon="8.00418"><ele>662.0</ele><time>2026-04-03T12:40:38.929Z</time></trkpt><trkpt lat="44.0915833" lon="8.00426"><ele>662.0</ele><time>2026-04-03T12:40:39.928Z</time></trkpt><trkpt lat="44.0915133" lon="8.0043767"><ele>662.0</ele><time>2026-04-03T12:40:40.929Z</time></trkpt><trkpt lat="44.0914383" lon="8.0044983"><ele>656.8000000000001</ele><time>2026-04-03T12:40:41.929Z</time></trkpt><trkpt lat="44.0913717" lon="8.0046067"><ele>651.6</ele><time>2026-04-03T12:40:42.929Z</time></trkpt><trkpt lat="44.091305" lon="8.0047067"><ele>646.4000000000001</ele><time>2026-04-03T12:40:43.929Z</time></trkpt><trkpt lat="44.0912233" lon="8.0048067"><ele>641.2</ele><time>2026-04-03T12:40:44.929Z</time></trkpt><trkpt lat="44.0911283" lon="8.0048867"><ele>636.0</ele><time>2026-04-03T12:40:45.929Z</time></trkpt><trkpt lat="44.0910333" lon="8.0049567"><ele>636.0</ele><time>2026-04-03T12:40:46.929Z</time></trkpt><trkpt lat="44.090945" lon="8.0049867"><ele>636.0</ele><time>2026-04-03T12:40:47.928Z</time></trkpt><trkpt lat="44.0908533" lon="8.0049933"><ele>636.0</ele><time>2026-04-03T12:40:48.929Z</time></trkpt><trkpt lat="44.0907667" lon="8.00501"><ele>636.0</ele><time>2026-04-03T12:40:49.928Z</time></trkpt><trkpt lat="44.0906817" lon="8.0050383"><ele>636.0</ele><time>2026-04-03T12:40:50.929Z</time></trkpt><trkpt lat="44.0906033" lon="8.005065"><ele>636.0</ele><time>2026-04-03T12:40:51.929Z</time></trkpt><trkpt lat="44.0905133" lon="8.0051133"><ele>634.8</ele><time>2026-04-03T12:40:52.929Z</time></trkpt><trkpt lat="44.0904533" lon="8.0051533"><ele>633.6</ele><time>2026-04-03T12:40:53.929Z</time></trkpt><trkpt lat="44.0903683" lon="8.0051967"><ele>632.4</ele><time>2026-04-03T12:40:55.929Z</time></trkpt><trkpt lat="44.0902867" lon="8.0052783"><ele>631.2</ele><time>2026-04-03T12:40:57.929Z</time></trkpt><trkpt lat="44.0902167" lon="8.0053733"><ele>630.0</ele><time>2026-04-03T12:40:59.929Z</time></trkpt><trkpt lat="44.0901517" lon="8.0054767"><ele>630.0</ele><time>2026-04-03T12:41:01.928Z</time></trkpt><trkpt lat="44.09007" lon="8.0055833"><ele>630.0</ele><time>2026-04-03T12:41:03.929Z</time></trkpt><trkpt lat="44.0899833" lon="8.00568"><ele>630.0</ele><time>2026-04-03T12:41:05.929Z</time></trkpt><trkpt lat="44.0898983" lon="8.00576"><ele>630.0</ele><time>2026-04-03T12:41:07.929Z</time></trkpt><trkpt lat="44.0898317" lon="8.0058067"><ele>630.0</ele><time>2026-04-03T12:41:25.929Z</time></trkpt><trkpt lat="44.0899033" lon="8.0057883"><ele>630.0</ele><time>2026-04-03T12:41:35.928Z</time></trkpt><trkpt lat="44.09001" lon="8.0056617"><ele>630.0</ele><time>2026-04-03T12:41:37.928Z</time></trkpt><trkpt lat="44.0900683" lon="8.005595"><ele>630.0</ele><time>2026-04-03T12:41:38.929Z</time></trkpt><trkpt lat="44.0901333" lon="8.0055217"><ele>630.0</ele><time>2026-04-03T12:41:39.929Z</time></trkpt><trkpt lat="44.0901983" lon="8.0054367"><ele>630.0</ele><time>2026-04-03T12:41:40.929Z</time></trkpt><trkpt lat="44.0902583" lon="8.0053367"><ele>630.0</ele><time>2026-04-03T12:41:41.928Z</time></trkpt><trkpt lat="44.0903283" lon="8.005245"><ele>630.0</ele><time>2026-04-03T12:41:42.928Z</time></trkpt><trkpt lat="44.0904017" lon="8.0051867"><ele>630.0</ele><time>2026-04-03T12:41:43.929Z</time></trkpt><trkpt lat="44.0904933" lon="8.0051483"><ele>630.0</ele><time>2026-04-03T12:41:44.929Z</time></trkpt><trkpt lat="44.0905883" lon="8.0051117"><ele>630.0</ele><time>2026-04-03T12:41:45.929Z</time></trkpt><trkpt lat="44.090665" lon="8.0050867"><ele>630.0</ele><time>2026-04-03T12:41:46.929Z</time></trkpt><trkpt lat="44.0907367" lon="8.0050633"><ele>630.0</ele><time>2026-04-03T12:41:47.928Z</time></trkpt><trkpt lat="44.0908067" lon="8.005045"><ele>630.0</ele><time>2026-04-03T12:41:48.929Z</time></trkpt><trkpt lat="44.0908767" lon="8.00502"><ele>630.0</ele><time>2026-04-03T12:41:49.929Z</time></trkpt><trkpt lat="44.0909467" lon="8.0050033"><ele>630.0</ele><time>2026-04-03T12:41:50.928Z</time></trkpt><trkpt lat="44.0910217" lon="8.0049783"><ele>630.0</ele><time>2026-04-03T12:41:51.928Z</time></trkpt><trkpt lat="44.09109" lon="8.004945"><ele>630.0</ele><time>2026-04-03T12:41:52.927Z</time></trkpt><trkpt lat="44.091205" lon="8.0048683"><ele>631.0</ele><time>2026-04-03T12:41:54.928Z</time></trkpt><trkpt lat="44.0912733" lon="8.0048017"><ele>632.0</ele><time>2026-04-03T12:41:55.928Z</time></trkpt><trkpt lat="44.09133" lon="8.004735"><ele>633.0</ele><time>2026-04-03T12:41:56.928Z</time></trkpt><trkpt lat="44.0913867" lon="8.0046583"><ele>634.0</ele><time>2026-04-03T12:41:57.928Z</time></trkpt><trkpt lat="44.0914483" lon="8.00457"><ele>635.0</ele><time>2026-04-03T12:41:58.928Z</time></trkpt><trkpt lat="44.0915133" lon="8.004465"><ele>636.0</ele><time>2026-04-03T12:41:59.928Z</time></trkpt><trkpt lat="44.091575" lon="8.0043867"><ele>640.3333333333334</ele><time>2026-04-03T12:42:00.928Z</time></trkpt><trkpt lat="44.091625" lon="8.0043283"><ele>644.6666666666666</ele><time>2026-04-03T12:42:01.928Z</time></trkpt><trkpt lat="44.0916917" lon="8.00429"><ele>649.0</ele><time>2026-04-03T12:42:03.928Z</time></trkpt><trkpt lat="44.0917217" lon="8.0043883"><ele>653.3333333333333</ele><time>2026-04-03T12:42:05.928Z</time></trkpt><trkpt lat="44.0916783" lon="8.0045683"><ele>657.6666666666666</ele><time>2026-04-03T12:42:07.927Z</time></trkpt><trkpt lat="44.09164" lon="8.0046717"><ele>662.0</ele><time>2026-04-03T12:42:08.928Z</time></trkpt><trkpt lat="44.0916067" lon="8.0047867"><ele>660.25</ele><time>2026-04-03T12:42:09.927Z</time></trkpt><trkpt lat="44.0915783" lon="8.004925"><ele>658.5</ele><time>2026-04-03T12:42:10.928Z</time></trkpt><trkpt lat="44.09155" lon="8.0050867"><ele>656.75</ele><time>2026-04-03T12:42:11.928Z</time></trkpt><trkpt lat="44.0915217" lon="8.0052483"><ele>655.0</ele><time>2026-04-03T12:42:12.928Z</time></trkpt><trkpt lat="44.091505" lon="8.0053983"><ele>655.0</ele><time>2026-04-03T12:42:13.928Z</time></trkpt><trkpt lat="44.0914833" lon="8.005545"><ele>655.0</ele><time>2026-04-03T12:42:14.927Z</time></trkpt><trkpt lat="44.0914767" lon="8.00567"><ele>655.0</ele><time>2026-04-03T12:42:15.928Z</time></trkpt><trkpt lat="44.0914583" lon="8.00577"><ele>655.0</ele><time>2026-04-03T12:42:17.927Z</time></trkpt><trkpt lat="44.0914183" lon="8.0058967"><ele>655.0</ele><time>2026-04-03T12:42:19.928Z</time></trkpt><trkpt lat="44.09138" lon="8.0059733"><ele>655.0</ele><time>2026-04-03T12:42:20.927Z</time></trkpt><trkpt lat="44.0912867" lon="8.0060767"><ele>657.0</ele><time>2026-04-03T12:42:22.928Z</time></trkpt><trkpt lat="44.091215" lon="8.00613"><ele>659.0</ele><time>2026-04-03T12:42:23.927Z</time></trkpt><trkpt lat="44.0911433" lon="8.0061933"><ele>661.0</ele><time>2026-04-03T12:42:24.928Z</time></trkpt><trkpt lat="44.0910783" lon="8.0062633"><ele>663.0</ele><time>2026-04-03T12:42:25.928Z</time></trkpt><trkpt lat="44.0910217" lon="8.00633"><ele>665.0</ele><time>2026-04-03T12:42:26.928Z</time></trkpt><trkpt lat="44.0909583" lon="8.0064"><ele>667.0</ele><time>2026-04-03T12:42:27.927Z</time></trkpt><trkpt lat="44.0908867" lon="8.00649"><ele>667.0</ele><time>2026-04-03T12:42:28.928Z</time></trkpt><trkpt lat="44.09081" lon="8.0065933"><ele>667.0</ele><time>2026-04-03T12:42:29.928Z</time></trkpt><trkpt lat="44.0907433" lon="8.0067083"><ele>667.0</ele><time>2026-04-03T12:42:30.927Z</time></trkpt><trkpt lat="44.090685" lon="8.0068117"><ele>667.0</ele><time>2026-04-03T12:42:31.928Z</time></trkpt><trkpt lat="44.0906217" lon="8.0068983"><ele>667.0</ele><time>2026-04-03T12:42:32.927Z</time></trkpt><trkpt lat="44.09055" lon="8.0069867"><ele>664.4000000000001</ele><time>2026-04-03T12:42:33.928Z</time></trkpt><trkpt lat="44.090465" lon="8.0070783"><ele>661.8000000000001</ele><time>2026-04-03T12:42:34.928Z</time></trkpt><trkpt lat="44.0903783" lon="8.007165"><ele>659.2</ele><time>2026-04-03T12:42:35.928Z</time></trkpt><trkpt lat="44.0902933" lon="8.0072517"><ele>656.6</ele><time>2026-04-03T12:42:36.928Z</time></trkpt><trkpt lat="44.0902217" lon="8.0073367"><ele>654.0</ele><time>2026-04-03T12:42:37.927Z</time></trkpt><trkpt lat="44.0901583" lon="8.0073967"><ele>654.0</ele><time>2026-04-03T12:42:38.928Z</time></trkpt><trkpt lat="44.0901117" lon="8.0074617"><ele>654.0</ele><time>2026-04-03T12:42:39.928Z</time></trkpt><trkpt lat="44.0900567" lon="8.0075283"><ele>654.0</ele><time>2026-04-03T12:42:40.928Z</time></trkpt><trkpt lat="44.0899967" lon="8.0075967"><ele>654.0</ele><time>2026-04-03T12:42:41.927Z</time></trkpt><trkpt lat="44.0899467" lon="8.0076667"><ele>654.0</ele><time>2026-04-03T12:42:42.928Z</time></trkpt><trkpt lat="44.0898583" lon="8.0077933"><ele>654.0</ele><time>2026-04-03T12:42:44.928Z</time></trkpt><trkpt lat="44.0898017" lon="8.0079183"><ele>656.0</ele><time>2026-04-03T12:42:46.928Z</time></trkpt><trkpt lat="44.08982" lon="8.00803"><ele>658.0</ele><time>2026-04-03T12:43:07.927Z</time></trkpt><trkpt lat="44.0898967" lon="8.0080017"><ele>660.0</ele><time>2026-04-03T12:43:12.927Z</time></trkpt><trkpt lat="44.08997" lon="8.0079417"><ele>662.0</ele><time>2026-04-03T12:43:15.928Z</time></trkpt><trkpt lat="44.0899983" lon="8.0078583"><ele>664.0</ele><time>2026-04-03T12:43:18.928Z</time></trkpt><trkpt lat="44.08998" lon="8.00795"><ele>666.0</ele><time>2026-04-03T12:43:28.927Z</time></trkpt><trkpt lat="44.0899133" lon="8.00796"><ele>668.0</ele><time>2026-04-03T12:43:32.928Z</time></trkpt><trkpt lat="44.0898383" lon="8.0079383"><ele>663.0</ele><time>2026-04-03T12:43:36.927Z</time></trkpt><trkpt lat="44.08981" lon="8.008055"><ele>658.0</ele><time>2026-04-03T12:43:39.928Z</time></trkpt><trkpt lat="44.0898" lon="8.0081767"><ele>653.0</ele><time>2026-04-03T12:43:41.927Z</time></trkpt><trkpt lat="44.0898067" lon="8.0083417"><ele>648.0</ele><time>2026-04-03T12:43:43.927Z</time></trkpt><trkpt lat="44.0898233" lon="8.0084383"><ele>643.0</ele><time>2026-04-03T12:43:45.927Z</time></trkpt><trkpt lat="44.0897933" lon="8.0082783"><ele>641.1666666666667</ele><time>2026-04-03T12:44:25.927Z</time></trkpt><trkpt lat="44.0898017" lon="8.00813"><ele>639.3333333333334</ele><time>2026-04-03T12:44:27.927Z</time></trkpt><trkpt lat="44.0898167" lon="8.0080383"><ele>637.5</ele><time>2026-04-03T12:44:30.927Z</time></trkpt><trkpt lat="44.0898717" lon="8.0081017"><ele>635.6666666666666</ele><time>2026-04-03T12:44:34.928Z</time></trkpt><trkpt lat="44.0899217" lon="8.0081967"><ele>633.8333333333333</ele><time>2026-04-03T12:44:37.928Z</time></trkpt><trkpt lat="44.0899583" lon="8.008295"><ele>632.0</ele><time>2026-04-03T12:44:40.928Z</time></trkpt><trkpt lat="44.0900433" lon="8.0083317"><ele>637.1428571428572</ele><time>2026-04-03T12:45:11.927Z</time></trkpt><trkpt lat="44.09012" lon="8.0082533"><ele>642.2857142857143</ele><time>2026-04-03T12:45:17.928Z</time></trkpt><trkpt lat="44.0901667" lon="8.0081917"><ele>647.4285714285714</ele><time>2026-04-03T12:45:19.928Z</time></trkpt><trkpt lat="44.0902183" lon="8.0081283"><ele>652.5714285714287</ele><time>2026-04-03T12:45:21.927Z</time></trkpt><trkpt lat="44.0901583" lon="8.0081817"><ele>657.7142857142858</ele><time>2026-04-03T12:46:08.928Z</time></trkpt><trkpt lat="44.0901067" lon="8.0082467"><ele>662.8571428571429</ele><time>2026-04-03T12:46:10.927Z</time></trkpt><trkpt lat="44.0900567" lon="8.0083017"><ele>668.0</ele><time>2026-04-03T12:46:12.928Z</time></trkpt><trkpt lat="44.0899967" lon="8.0083533"><ele>668.5</ele><time>2026-04-03T12:46:14.927Z</time></trkpt><trkpt lat="44.0899383" lon="8.00839"><ele>669.0</ele><time>2026-04-03T12:46:17.927Z</time></trkpt><trkpt lat="44.08987" lon="8.0084583"><ele>669.5</ele><time>2026-04-03T12:46:20.928Z</time></trkpt><trkpt lat="44.089805" lon="8.0084267"><ele>670.0</ele><time>2026-04-03T12:46:29.928Z</time></trkpt><trkpt lat="44.0898433" lon="8.0085"><ele>670.5</ele><time>2026-04-03T12:46:33.928Z</time></trkpt><trkpt lat="44.0899767" lon="8.0085183"><ele>671.0</ele><time>2026-04-03T12:46:35.928Z</time></trkpt><trkpt lat="44.0900767" lon="8.0085017"><ele>671.0</ele><time>2026-04-03T12:46:36.928Z</time></trkpt><trkpt lat="44.090195" lon="8.008455"><ele>671.0</ele><time>2026-04-03T12:46:37.927Z</time></trkpt><trkpt lat="44.0903017" lon="8.00842"><ele>671.0</ele><time>2026-04-03T12:46:38.928Z</time></trkpt><trkpt lat="44.09042" lon="8.0083933"><ele>671.0</ele><time>2026-04-03T12:46:39.928Z</time></trkpt><trkpt lat="44.0905467" lon="8.0083733"><ele>671.0</ele><time>2026-04-03T12:46:40.928Z</time></trkpt><trkpt lat="44.0906683" lon="8.008355"><ele>671.0</ele><time>2026-04-03T12:46:41.927Z</time></trkpt><trkpt lat="44.090795" lon="8.0083217"><ele>671.0</ele><time>2026-04-03T12:46:42.926Z</time></trkpt><trkpt lat="44.0909117" lon="8.008305"><ele>671.0</ele><time>2026-04-03T12:46:43.927Z</time></trkpt><trkpt lat="44.0910133" lon="8.0083017"><ele>673.4</ele><time>2026-04-03T12:46:44.927Z</time></trkpt><trkpt lat="44.0910867" lon="8.0083117"><ele>675.8</ele><time>2026-04-03T12:46:45.926Z</time></trkpt><trkpt lat="44.0911583" lon="8.0083367"><ele>678.1999999999999</ele><time>2026-04-03T12:46:46.926Z</time></trkpt><trkpt lat="44.0912283" lon="8.00845"><ele>680.5999999999999</ele><time>2026-04-03T12:46:48.927Z</time></trkpt><trkpt lat="44.0911917" lon="8.0086433"><ele>683.0</ele><time>2026-04-03T12:46:50.926Z</time></trkpt><trkpt lat="44.09111" lon="8.0087667"><ele>683.0</ele><time>2026-04-03T12:46:51.927Z</time></trkpt><trkpt lat="44.090985" lon="8.0089017"><ele>683.0</ele><time>2026-04-03T12:46:52.927Z</time></trkpt><trkpt lat="44.0907617" lon="8.00907"><ele>683.0</ele><time>2026-04-03T12:46:53.927Z</time></trkpt><trkpt lat="44.0906" lon="8.00921"><ele>677.6666666666666</ele><time>2026-04-03T12:46:54.927Z</time></trkpt><trkpt lat="44.0904517" lon="8.0093517"><ele>672.3333333333334</ele><time>2026-04-03T12:46:55.927Z</time></trkpt><trkpt lat="44.0903183" lon="8.0094817"><ele>667.0</ele><time>2026-04-03T12:46:56.927Z</time></trkpt><trkpt lat="44.0901967" lon="8.0095867"><ele>667.0</ele><time>2026-04-03T12:46:57.927Z</time></trkpt><trkpt lat="44.0900783" lon="8.009655"><ele>667.0</ele><time>2026-04-03T12:46:58.926Z</time></trkpt><trkpt lat="44.089975" lon="8.0097383"><ele>667.0</ele><time>2026-04-03T12:46:59.926Z</time></trkpt><trkpt lat="44.089905" lon="8.0098417"><ele>667.0</ele><time>2026-04-03T12:47:00.927Z</time></trkpt><trkpt lat="44.0898333" lon="8.00995"><ele>664.8333333333334</ele><time>2026-04-03T12:47:01.927Z</time></trkpt><trkpt lat="44.0897633" lon="8.0100683"><ele>662.6666666666667</ele><time>2026-04-03T12:47:02.927Z</time></trkpt><trkpt lat="44.08971" lon="8.0101617"><ele>660.5</ele><time>2026-04-03T12:47:03.926Z</time></trkpt><trkpt lat="44.08967" lon="8.0102567"><ele>658.3333333333334</ele><time>2026-04-03T12:47:04.926Z</time></trkpt><trkpt lat="44.0896417" lon="8.0103433"><ele>656.1666666666666</ele><time>2026-04-03T12:47:05.926Z</time></trkpt><trkpt lat="44.0896083" lon="8.0104333"><ele>654.0</ele><time>2026-04-03T12:47:06.926Z</time></trkpt><trkpt lat="44.08956" lon="8.010525"><ele>654.0</ele><time>2026-04-03T12:47:07.926Z</time></trkpt><trkpt lat="44.0894883" lon="8.0106167"><ele>654.0</ele><time>2026-04-03T12:47:08.926Z</time></trkpt><trkpt lat="44.089355" lon="8.0107017"><ele>654.0</ele><time>2026-04-03T12:47:09.927Z</time></trkpt><trkpt lat="44.08922" lon="8.010775"><ele>654.0</ele><time>2026-04-03T12:47:10.927Z</time></trkpt><trkpt lat="44.0891067" lon="8.01087"><ele>653.5</ele><time>2026-04-03T12:47:11.926Z</time></trkpt><trkpt lat="44.089015" lon="8.010945"><ele>653.0</ele><time>2026-04-03T12:47:12.927Z</time></trkpt><trkpt lat="44.088955" lon="8.01101"><ele>652.5</ele><time>2026-04-03T12:47:13.927Z</time></trkpt><trkpt lat="44.0888733" lon="8.0110933"><ele>652.0</ele><time>2026-04-03T12:47:15.927Z</time></trkpt><trkpt lat="44.088895" lon="8.0112033"><ele>651.5</ele><time>2026-04-03T12:47:50.927Z</time></trkpt><trkpt lat="44.0889067" lon="8.0113167"><ele>651.0</ele><time>2026-04-03T12:47:51.927Z</time></trkpt><trkpt lat="44.0889367" lon="8.0114517"><ele>651.0</ele><time>2026-04-03T12:47:52.927Z</time></trkpt><trkpt lat="44.0889767" lon="8.0115983"><ele>651.0</ele><time>2026-04-03T12:47:53.926Z</time></trkpt><trkpt lat="44.0890167" lon="8.0117367"><ele>651.0</ele><time>2026-04-03T12:47:54.926Z</time></trkpt><trkpt lat="44.0890417" lon="8.0118683"><ele>651.0</ele><time>2026-04-03T12:47:55.927Z</time></trkpt><trkpt lat="44.0890517" lon="8.012"><ele>651.0</ele><time>2026-04-03T12:47:56.926Z</time></trkpt><trkpt lat="44.0890667" lon="8.012115"><ele>652.5999999999999</ele><time>2026-04-03T12:47:57.927Z</time></trkpt><trkpt lat="44.0890883" lon="8.0122333"><ele>654.2</ele><time>2026-04-03T12:47:58.926Z</time></trkpt><trkpt lat="44.0891033" lon="8.0123467"><ele>655.8</ele><time>2026-04-03T12:47:59.926Z</time></trkpt><trkpt lat="44.08911" lon="8.012445"><ele>657.4000000000001</ele><time>2026-04-03T12:48:00.927Z</time></trkpt><trkpt lat="44.0891217" lon="8.0126033"><ele>659.0</ele><time>2026-04-03T12:48:02.927Z</time></trkpt><trkpt lat="44.0891433" lon="8.01275"><ele>659.0</ele><time>2026-04-03T12:48:04.927Z</time></trkpt><trkpt lat="44.0891833" lon="8.012875"><ele>659.0</ele><time>2026-04-03T12:48:06.926Z</time></trkpt><trkpt lat="44.0892333" lon="8.0129717"><ele>659.0</ele><time>2026-04-03T12:48:08.927Z</time></trkpt><trkpt lat="44.0892133" lon="8.0128783"><ele>659.0</ele><time>2026-04-03T12:48:14.927Z</time></trkpt><trkpt lat="44.0891817" lon="8.0127967"><ele>659.0</ele><time>2026-04-03T12:48:15.927Z</time></trkpt><trkpt lat="44.0891517" lon="8.0126983"><ele>659.0</ele><time>2026-04-03T12:48:16.927Z</time></trkpt><trkpt lat="44.0891283" lon="8.012585"><ele>661.1666666666666</ele><time>2026-04-03T12:48:17.926Z</time></trkpt><trkpt lat="44.089105" lon="8.01247"><ele>663.3333333333333</ele><time>2026-04-03T12:48:18.927Z</time></trkpt><trkpt lat="44.0890817" lon="8.012355"><ele>665.5</ele><time>2026-04-03T12:48:19.926Z</time></trkpt><trkpt lat="44.08908" lon="8.0122317"><ele>667.6666666666666</ele><time>2026-04-03T12:48:20.927Z</time></trkpt><trkpt lat="44.0890683" lon="8.0121033"><ele>669.8333333333334</ele><time>2026-04-03T12:48:21.927Z</time></trkpt><trkpt lat="44.089065" lon="8.0119717"><ele>672.0</ele><time>2026-04-03T12:48:22.926Z</time></trkpt><trkpt lat="44.0890483" lon="8.011825"><ele>667.8</ele><time>2026-04-03T12:48:23.926Z</time></trkpt><trkpt lat="44.08903" lon="8.0116867"><ele>663.6</ele><time>2026-04-03T12:48:24.927Z</time></trkpt><trkpt lat="44.088995" lon="8.0115533"><ele>659.4</ele><time>2026-04-03T12:48:25.927Z</time></trkpt><trkpt lat="44.0889567" lon="8.0114217"><ele>655.1999999999999</ele><time>2026-04-03T12:48:26.927Z</time></trkpt><trkpt lat="44.0889317" lon="8.0113017"><ele>651.0</ele><time>2026-04-03T12:48:27.927Z</time></trkpt><trkpt lat="44.0889133" lon="8.0112"><ele>651.0</ele><time>2026-04-03T12:48:28.926Z</time></trkpt><trkpt lat="44.0889167" lon="8.0111117"><ele>651.0</ele><time>2026-04-03T12:48:29.927Z</time></trkpt><trkpt lat="44.088955" lon="8.011"><ele>651.0</ele><time>2026-04-03T12:48:31.926Z</time></trkpt><trkpt lat="44.0890167" lon="8.0109617"><ele>651.0</ele><time>2026-04-03T12:48:34.927Z</time></trkpt><trkpt lat="44.08908" lon="8.0109333"><ele>651.0</ele><time>2026-04-03T12:48:37.927Z</time></trkpt><trkpt lat="44.0890867" lon="8.01105"><ele>651.0</ele><time>2026-04-03T12:48:46.926Z</time></trkpt><trkpt lat="44.0891167" lon="8.0111517"><ele>654.1666666666666</ele><time>2026-04-03T12:48:50.927Z</time></trkpt><trkpt lat="44.08918" lon="8.0112133"><ele>657.3333333333334</ele><time>2026-04-03T12:48:53.927Z</time></trkpt><trkpt lat="44.089245" lon="8.0112733"><ele>660.5</ele><time>2026-04-03T12:48:56.927Z</time></trkpt><trkpt lat="44.0893233" lon="8.0112617"><ele>663.6666666666667</ele><time>2026-04-03T12:48:59.927Z</time></trkpt><trkpt lat="44.0894317" lon="8.01124"><ele>666.8333333333334</ele><time>2026-04-03T12:49:10.927Z</time></trkpt><trkpt lat="44.0894967" lon="8.0112267"><ele>670.0</ele><time>2026-04-03T12:49:29.927Z</time></trkpt><trkpt lat="44.0895833" lon="8.0111733"><ele>670.0</ele><time>2026-04-03T12:49:32.927Z</time></trkpt><trkpt lat="44.089665" lon="8.0111483"><ele>670.0</ele><time>2026-04-03T12:49:35.927Z</time></trkpt><trkpt lat="44.0897467" lon="8.0111317"><ele>670.0</ele><time>2026-04-03T12:49:37.927Z</time></trkpt><trkpt lat="44.0898167" lon="8.0111417"><ele>670.0</ele><time>2026-04-03T12:49:39.927Z</time></trkpt><trkpt lat="44.08988" lon="8.0111733"><ele>670.0</ele><time>2026-04-03T12:49:41.926Z</time></trkpt><trkpt lat="44.0899867" lon="8.01125"><ele>670.0</ele><time>2026-04-03T12:49:43.927Z</time></trkpt><trkpt lat="44.0900417" lon="8.0113017"><ele>673.8</ele><time>2026-04-03T12:49:44.927Z</time></trkpt><trkpt lat="44.09013" lon="8.0113917"><ele>677.6</ele><time>2026-04-03T12:49:46.927Z</time></trkpt><trkpt lat="44.0902267" lon="8.01145"><ele>681.4000000000001</ele><time>2026-04-03T12:49:48.927Z</time></trkpt><trkpt lat="44.0903067" lon="8.0114733"><ele>685.2</ele><time>2026-04-03T12:49:50.926Z</time></trkpt><trkpt lat="44.0903767" lon="8.0114017"><ele>689.0</ele><time>2026-04-03T12:49:53.926Z</time></trkpt><trkpt lat="44.0904583" lon="8.0114"><ele>689.0</ele><time>2026-04-03T12:49:56.926Z</time></trkpt><trkpt lat="44.0905367" lon="8.0114517"><ele>689.0</ele><time>2026-04-03T12:49:59.927Z</time></trkpt><trkpt lat="44.090605" lon="8.0114417"><ele>689.0</ele><time>2026-04-03T12:50:30.927Z</time></trkpt><trkpt lat="44.0906783" lon="8.011375"><ele>689.0</ele><time>2026-04-03T12:50:34.926Z</time></trkpt><trkpt lat="44.0907433" lon="8.011325"><ele>689.0</ele><time>2026-04-03T12:50:37.927Z</time></trkpt><trkpt lat="44.09081" lon="8.0113083"><ele>689.0</ele><time>2026-04-03T12:50:40.927Z</time></trkpt><trkpt lat="44.0908783" lon="8.0113033"><ele>691.6666666666666</ele><time>2026-04-03T12:50:49.927Z</time></trkpt><trkpt lat="44.0909433" lon="8.0112783"><ele>694.3333333333333</ele><time>2026-04-03T12:50:53.927Z</time></trkpt><trkpt lat="44.0910183" lon="8.01124"><ele>697.0</ele><time>2026-04-03T12:50:57.927Z</time></trkpt><trkpt lat="44.0910683" lon="8.011175"><ele>699.6666666666666</ele><time>2026-04-03T12:51:00.926Z</time></trkpt><trkpt lat="44.0911317" lon="8.0111033"><ele>702.3333333333334</ele><time>2026-04-03T12:51:03.927Z</time></trkpt><trkpt lat="44.0912683" lon="8.0110333"><ele>705.0</ele><time>2026-04-03T12:52:24.926Z</time></trkpt><trkpt lat="44.09135" lon="8.0110117"><ele>705.0</ele><time>2026-04-03T12:52:28.925Z</time></trkpt><trkpt lat="44.0914283" lon="8.0110467"><ele>705.0</ele><time>2026-04-03T12:52:46.926Z</time></trkpt><trkpt lat="44.0915467" lon="8.0111"><ele>705.0</ele><time>2026-04-03T12:52:52.926Z</time></trkpt><trkpt lat="44.091635" lon="8.0112033"><ele>705.0</ele><time>2026-04-03T12:52:54.926Z</time></trkpt><trkpt lat="44.0916783" lon="8.0112733"><ele>705.0</ele><time>2026-04-03T12:52:55.926Z</time></trkpt><trkpt lat="44.0917467" lon="8.01139"><ele>709.75</ele><time>2026-04-03T12:52:57.926Z</time></trkpt><trkpt lat="44.0918167" lon="8.0115783"><ele>714.5</ele><time>2026-04-03T12:53:06.926Z</time></trkpt><trkpt lat="44.09189" lon="8.0116717"><ele>719.25</ele><time>2026-04-03T12:53:07.926Z</time></trkpt><trkpt lat="44.09198" lon="8.0117617"><ele>724.0</ele><time>2026-04-03T12:53:08.926Z</time></trkpt><trkpt lat="44.0920833" lon="8.0118483"><ele>724.0</ele><time>2026-04-03T12:53:09.926Z</time></trkpt><trkpt lat="44.0921833" lon="8.011945"><ele>724.0</ele><time>2026-04-03T12:53:10.926Z</time></trkpt><trkpt lat="44.0922633" lon="8.0120367"><ele>724.0</ele><time>2026-04-03T12:53:11.925Z</time></trkpt><trkpt lat="44.0923367" lon="8.0121283"><ele>724.0</ele><time>2026-04-03T12:53:12.926Z</time></trkpt><trkpt lat="44.092415" lon="8.012225"><ele>724.0</ele><time>2026-04-03T12:53:13.925Z</time></trkpt><trkpt lat="44.0924883" lon="8.0123117"><ele>724.8000000000001</ele><time>2026-04-03T12:53:14.926Z</time></trkpt><trkpt lat="44.0925533" lon="8.0123983"><ele>725.6</ele><time>2026-04-03T12:53:15.926Z</time></trkpt><trkpt lat="44.0926033" lon="8.0124767"><ele>726.4</ele><time>2026-04-03T12:53:16.926Z</time></trkpt><trkpt lat="44.092645" lon="8.0125583"><ele>727.2</ele><time>2026-04-03T12:53:17.926Z</time></trkpt><trkpt lat="44.0926633" lon="8.012705"><ele>728.0</ele><time>2026-04-03T12:53:19.925Z</time></trkpt><trkpt lat="44.092615" lon="8.012855"><ele>728.0</ele><time>2026-04-03T12:53:21.925Z</time></trkpt><trkpt lat="44.0925917" lon="8.0129383"><ele>728.0</ele><time>2026-04-03T12:53:22.925Z</time></trkpt><trkpt lat="44.0925667" lon="8.0130317"><ele>728.0</ele><time>2026-04-03T12:53:23.926Z</time></trkpt><trkpt lat="44.0925217" lon="8.0131283"><ele>728.0</ele><time>2026-04-03T12:53:24.926Z</time></trkpt><trkpt lat="44.092465" lon="8.013205"><ele>728.0</ele><time>2026-04-03T12:53:25.926Z</time></trkpt><trkpt lat="44.0924033" lon="8.013265"><ele>728.0</ele><time>2026-04-03T12:53:26.926Z</time></trkpt><trkpt lat="44.0923183" lon="8.0133367"><ele>724.1666666666666</ele><time>2026-04-03T12:53:28.926Z</time></trkpt><trkpt lat="44.0922883" lon="8.0134167"><ele>720.3333333333333</ele><time>2026-04-03T12:56:28.925Z</time></trkpt><trkpt lat="44.0921983" lon="8.013545"><ele>716.5</ele><time>2026-04-03T12:56:30.925Z</time></trkpt><trkpt lat="44.09213" lon="8.0136267"><ele>712.6666666666666</ele><time>2026-04-03T12:56:31.924Z</time></trkpt><trkpt lat="44.09206" lon="8.0136883"><ele>708.8333333333334</ele><time>2026-04-03T12:56:32.925Z</time></trkpt><trkpt lat="44.091995" lon="8.0137433"><ele>705.0</ele><time>2026-04-03T12:56:33.924Z</time></trkpt><trkpt lat="44.09194" lon="8.0138133"><ele>704.9999999999999</ele><time>2026-04-03T12:56:34.924Z</time></trkpt><trkpt lat="44.091905" lon="8.013895"><ele>705.0</ele><time>2026-04-03T12:56:35.925Z</time></trkpt><trkpt lat="44.091875" lon="8.0139883"><ele>705.0</ele><time>2026-04-03T12:56:36.925Z</time></trkpt><trkpt lat="44.0918517" lon="8.0140983"><ele>705.0</ele><time>2026-04-03T12:56:37.925Z</time></trkpt><trkpt lat="44.0918383" lon="8.0142117"><ele>705.0</ele><time>2026-04-03T12:56:38.925Z</time></trkpt><trkpt lat="44.0918317" lon="8.0143083"><ele>704.9999999999999</ele><time>2026-04-03T12:56:39.925Z</time></trkpt><trkpt lat="44.0918483" lon="8.0144017"><ele>705.0</ele><time>2026-04-03T12:56:40.925Z</time></trkpt><trkpt lat="44.0918783" lon="8.01448"><ele>705.6</ele><time>2026-04-03T12:56:41.925Z</time></trkpt><trkpt lat="44.091955" lon="8.0146067"><ele>706.2</ele><time>2026-04-03T12:56:43.925Z</time></trkpt><trkpt lat="44.0920017" lon="8.01475"><ele>706.8</ele><time>2026-04-03T12:56:45.924Z</time></trkpt><trkpt lat="44.0920017" lon="8.0148433"><ele>707.4</ele><time>2026-04-03T12:56:46.925Z</time></trkpt><trkpt lat="44.09201" lon="8.0149533"><ele>708.0</ele><time>2026-04-03T12:56:47.924Z</time></trkpt><trkpt lat="44.092025" lon="8.015065"><ele>706.5999999999999</ele><time>2026-04-03T12:56:48.925Z</time></trkpt><trkpt lat="44.0920467" lon="8.015185"><ele>705.1999999999999</ele><time>2026-04-03T12:56:49.925Z</time></trkpt><trkpt lat="44.092075" lon="8.0153033"><ele>703.8</ele><time>2026-04-03T12:56:50.924Z</time></trkpt><trkpt lat="44.09209" lon="8.0154283"><ele>702.4</ele><time>2026-04-03T12:56:51.925Z</time></trkpt><trkpt lat="44.0920883" lon="8.0155533"><ele>701.0</ele><time>2026-04-03T12:56:52.924Z</time></trkpt><trkpt lat="44.0920733" lon="8.015685"><ele>701.0</ele><time>2026-04-03T12:56:53.924Z</time></trkpt><trkpt lat="44.0920483" lon="8.0158167"><ele>701.0</ele><time>2026-04-03T12:56:54.924Z</time></trkpt><trkpt lat="44.0920033" lon="8.0159233"><ele>701.0</ele><time>2026-04-03T12:56:55.924Z</time></trkpt><trkpt lat="44.0919767" lon="8.0160533"><ele>701.0</ele><time>2026-04-03T12:56:56.925Z</time></trkpt><trkpt lat="44.0919517" lon="8.0161883"><ele>701.0</ele><time>2026-04-03T12:56:57.925Z</time></trkpt><trkpt lat="44.0919367" lon="8.0163217"><ele>700.5999999999999</ele><time>2026-04-03T12:56:58.924Z</time></trkpt><trkpt lat="44.0919233" lon="8.0164583"><ele>700.2</ele><time>2026-04-03T12:56:59.924Z</time></trkpt><trkpt lat="44.0918967" lon="8.016595"><ele>699.8</ele><time>2026-04-03T12:57:00.924Z</time></trkpt><trkpt lat="44.091865" lon="8.016735"><ele>699.4000000000001</ele><time>2026-04-03T12:57:01.924Z</time></trkpt><trkpt lat="44.091825" lon="8.0168717"><ele>699.0</ele><time>2026-04-03T12:57:02.925Z</time></trkpt><trkpt lat="44.0917783" lon="8.0170017"><ele>699.0</ele><time>2026-04-03T12:57:03.925Z</time></trkpt><trkpt lat="44.09173" lon="8.0171117"><ele>699.0</ele><time>2026-04-03T12:57:04.925Z</time></trkpt><trkpt lat="44.0916767" lon="8.017195"><ele>699.0</ele><time>2026-04-03T12:57:05.925Z</time></trkpt><trkpt lat="44.09163" lon="8.01728"><ele>699.0</ele><time>2026-04-03T12:57:06.924Z</time></trkpt><trkpt lat="44.0916" lon="8.0173617"><ele>699.0</ele><time>2026-04-03T12:57:07.924Z</time></trkpt><trkpt lat="44.0915917" lon="8.0174617"><ele>699.0</ele><time>2026-04-03T12:57:08.924Z</time></trkpt><trkpt lat="44.09158" lon="8.0175967"><ele>693.2</ele><time>2026-04-03T12:57:09.925Z</time></trkpt><trkpt lat="44.0915567" lon="8.0176933"><ele>687.4000000000001</ele><time>2026-04-03T12:57:10.925Z</time></trkpt><trkpt lat="44.0915267" lon="8.017825"><ele>681.6</ele><time>2026-04-03T12:57:11.925Z</time></trkpt><trkpt lat="44.0914833" lon="8.0179567"><ele>675.8</ele><time>2026-04-03T12:57:12.925Z</time></trkpt><trkpt lat="44.0914333" lon="8.0180817"><ele>670.0</ele><time>2026-04-03T12:57:13.925Z</time></trkpt><trkpt lat="44.091385" lon="8.0181983"><ele>670.0</ele><time>2026-04-03T12:57:14.925Z</time></trkpt><trkpt lat="44.0913483" lon="8.0183083"><ele>670.0</ele><time>2026-04-03T12:57:15.924Z</time></trkpt><trkpt lat="44.0913133" lon="8.018425"><ele>670.0</ele><time>2026-04-03T12:57:16.924Z</time></trkpt><trkpt lat="44.0912933" lon="8.0185333"><ele>670.0</ele><time>2026-04-03T12:57:17.925Z</time></trkpt><trkpt lat="44.0912817" lon="8.0186467"><ele>670.0</ele><time>2026-04-03T12:57:18.924Z</time></trkpt><trkpt lat="44.0912767" lon="8.01875"><ele>670.0</ele><time>2026-04-03T12:57:19.925Z</time></trkpt><trkpt lat="44.0912433" lon="8.0189267"><ele>670.2</ele><time>2026-04-03T12:57:21.925Z</time></trkpt><trkpt lat="44.0911933" lon="8.0190083"><ele>670.4</ele><time>2026-04-03T12:57:23.925Z</time></trkpt><trkpt lat="44.0911" lon="8.0190367"><ele>670.5999999999999</ele><time>2026-04-03T12:57:25.925Z</time></trkpt><trkpt lat="44.091005" lon="8.0191017"><ele>670.8</ele><time>2026-04-03T12:57:27.924Z</time></trkpt><trkpt lat="44.09094" lon="8.0192333"><ele>671.0</ele><time>2026-04-03T12:57:29.925Z</time></trkpt><trkpt lat="44.0909167" lon="8.019335"><ele>672.1666666666666</ele><time>2026-04-03T12:57:30.925Z</time></trkpt><trkpt lat="44.0908883" lon="8.0194433"><ele>673.3333333333333</ele><time>2026-04-03T12:57:31.925Z</time></trkpt><trkpt lat="44.09086" lon="8.0195433"><ele>674.5</ele><time>2026-04-03T12:57:32.924Z</time></trkpt><trkpt lat="44.0908167" lon="8.01964"><ele>675.6666666666666</ele><time>2026-04-03T12:57:33.925Z</time></trkpt><trkpt lat="44.0907767" lon="8.01974"><ele>676.8333333333334</ele><time>2026-04-03T12:57:34.924Z</time></trkpt><trkpt lat="44.0907367" lon="8.0198383"><ele>678.0</ele><time>2026-04-03T12:57:35.925Z</time></trkpt><trkpt lat="44.0907017" lon="8.0199267"><ele>675.5</ele><time>2026-04-03T12:57:36.924Z</time></trkpt><trkpt lat="44.0906567" lon="8.0200383"><ele>673.0</ele><time>2026-04-03T12:57:38.925Z</time></trkpt><trkpt lat="44.0906067" lon="8.0201167"><ele>670.5</ele><time>2026-04-03T12:57:41.924Z</time></trkpt><trkpt lat="44.090545" lon="8.0200783"><ele>668.0</ele><time>2026-04-03T12:57:45.925Z</time></trkpt><trkpt lat="44.0905" lon="8.0200033"><ele>665.5</ele><time>2026-04-03T12:57:48.924Z</time></trkpt><trkpt lat="44.0904383" lon="8.0199383"><ele>663.0</ele><time>2026-04-03T12:57:52.925Z</time></trkpt><trkpt lat="44.0903867" lon="8.020025"><ele>663.0</ele><time>2026-04-03T12:58:03.924Z</time></trkpt><trkpt lat="44.0903733" lon="8.02021"><ele>663.0</ele><time>2026-04-03T12:58:05.925Z</time></trkpt><trkpt lat="44.090365" lon="8.020315"><ele>663.0</ele><time>2026-04-03T12:58:06.925Z</time></trkpt><trkpt lat="44.0903533" lon="8.02042"><ele>663.0</ele><time>2026-04-03T12:58:07.924Z</time></trkpt><trkpt lat="44.0903483" lon="8.0205083"><ele>663.0</ele><time>2026-04-03T12:58:08.925Z</time></trkpt><trkpt lat="44.0903667" lon="8.0206033"><ele>663.0</ele><time>2026-04-03T12:58:10.925Z</time></trkpt><trkpt lat="44.0904567" lon="8.0205333"><ele>662.9999999999999</ele><time>2026-04-03T12:58:41.925Z</time></trkpt><trkpt lat="44.090485" lon="8.020435"><ele>663.0</ele><time>2026-04-03T12:58:42.924Z</time></trkpt><trkpt lat="44.0905083" lon="8.0203233"><ele>663.0</ele><time>2026-04-03T12:58:43.924Z</time></trkpt><trkpt lat="44.0905417" lon="8.0202267"><ele>663.0</ele><time>2026-04-03T12:58:44.924Z</time></trkpt><trkpt lat="44.0905783" lon="8.02013"><ele>663.0</ele><time>2026-04-03T12:58:45.924Z</time></trkpt><trkpt lat="44.0906067" lon="8.020045"><ele>662.9999999999999</ele><time>2026-04-03T12:58:46.924Z</time></trkpt><trkpt lat="44.0906367" lon="8.019965"><ele>663.0</ele><time>2026-04-03T12:58:47.925Z</time></trkpt><trkpt lat="44.09071" lon="8.0198633"><ele>665.1428571428571</ele><time>2026-04-03T12:58:49.925Z</time></trkpt><trkpt lat="44.0907583" lon="8.0197867"><ele>667.2857142857142</ele><time>2026-04-03T12:58:51.924Z</time></trkpt><trkpt lat="44.09081" lon="8.019715"><ele>669.4285714285713</ele><time>2026-04-03T12:59:12.925Z</time></trkpt><trkpt lat="44.090865" lon="8.0196133"><ele>671.5714285714286</ele><time>2026-04-03T12:59:14.925Z</time></trkpt><trkpt lat="44.0908867" lon="8.0195283"><ele>673.7142857142858</ele><time>2026-04-03T12:59:15.924Z</time></trkpt><trkpt lat="44.0908967" lon="8.019425"><ele>675.8571428571428</ele><time>2026-04-03T12:59:16.925Z</time></trkpt><trkpt lat="44.0908983" lon="8.019325"><ele>678.0</ele><time>2026-04-03T12:59:17.925Z</time></trkpt><trkpt lat="44.0909217" lon="8.0192383"><ele>678.0</ele><time>2026-04-03T12:59:18.925Z</time></trkpt><trkpt lat="44.0909767" lon="8.0191383"><ele>678.0</ele><time>2026-04-03T12:59:20.925Z</time></trkpt><trkpt lat="44.0909983" lon="8.0192533"><ele>678.0</ele><time>2026-04-03T12:59:26.924Z</time></trkpt><trkpt lat="44.0910167" lon="8.0194"><ele>678.0</ele><time>2026-04-03T12:59:28.925Z</time></trkpt><trkpt lat="44.0910433" lon="8.019495"><ele>678.0</ele><time>2026-04-03T12:59:29.925Z</time></trkpt><trkpt lat="44.0910583" lon="8.0195917"><ele>678.0</ele><time>2026-04-03T12:59:30.924Z</time></trkpt><trkpt lat="44.091065" lon="8.019685"><ele>678.0</ele><time>2026-04-03T12:59:31.925Z</time></trkpt><trkpt lat="44.0910667" lon="8.0197967"><ele>678.0</ele><time>2026-04-03T12:59:32.925Z</time></trkpt><trkpt lat="44.0910433" lon="8.01997"><ele>678.0</ele><time>2026-04-03T12:59:34.925Z</time></trkpt><trkpt lat="44.09104" lon="8.020065"><ele>678.0</ele><time>2026-04-03T12:59:35.925Z</time></trkpt><trkpt lat="44.0910483" lon="8.0201667"><ele>678.0</ele><time>2026-04-03T12:59:36.924Z</time></trkpt><trkpt lat="44.0910667" lon="8.0202633"><ele>678.0</ele><time>2026-04-03T12:59:37.925Z</time></trkpt><trkpt lat="44.0911" lon="8.0203567"><ele>679.1666666666666</ele><time>2026-04-03T12:59:38.924Z</time></trkpt><trkpt lat="44.09116" lon="8.020445"><ele>680.3333333333334</ele><time>2026-04-03T12:59:39.924Z</time></trkpt><trkpt lat="44.0912117" lon="8.0205333"><ele>681.5</ele><time>2026-04-03T12:59:40.925Z</time></trkpt><trkpt lat="44.0912583" lon="8.0206117"><ele>682.6666666666667</ele><time>2026-04-03T12:59:41.924Z</time></trkpt><trkpt lat="44.0913" lon="8.0207367"><ele>683.8333333333334</ele><time>2026-04-03T12:59:43.925Z</time></trkpt><trkpt lat="44.0913183" lon="8.020835"><ele>685.0</ele><time>2026-04-03T12:59:45.925Z</time></trkpt><trkpt lat="44.091345" lon="8.0209333"><ele>685.6</ele><time>2026-04-03T12:59:47.925Z</time></trkpt><trkpt lat="44.091375" lon="8.0210383"><ele>686.2</ele><time>2026-04-03T12:59:49.924Z</time></trkpt><trkpt lat="44.0914583" lon="8.0211417"><ele>686.8</ele><time>2026-04-03T12:59:51.925Z</time></trkpt><trkpt lat="44.0915233" lon="8.0212583"><ele>687.4</ele><time>2026-04-03T12:59:53.925Z</time></trkpt><trkpt lat="44.09158" lon="8.021375"><ele>688.0</ele><time>2026-04-03T12:59:55.925Z</time></trkpt><trkpt lat="44.0916233" lon="8.0214633"><ele>688.0</ele><time>2026-04-03T12:59:57.925Z</time></trkpt><trkpt lat="44.0917067" lon="8.0214433"><ele>688.0</ele><time>2026-04-03T13:00:24.924Z</time></trkpt><trkpt lat="44.0916767" lon="8.02135"><ele>688.0</ele><time>2026-04-03T13:00:26.925Z</time></trkpt><trkpt lat="44.091635" lon="8.02127"><ele>688.0</ele><time>2026-04-03T13:00:28.925Z</time></trkpt><trkpt lat="44.0915933" lon="8.02117"><ele>688.0</ele><time>2026-04-03T13:00:30.924Z</time></trkpt><trkpt lat="44.09155" lon="8.0211"><ele>688.0</ele><time>2026-04-03T13:00:32.925Z</time></trkpt><trkpt lat="44.0914917" lon="8.0210283"><ele>688.0</ele><time>2026-04-03T13:00:35.924Z</time></trkpt><trkpt lat="44.0914317" lon="8.021"><ele>688.0</ele><time>2026-04-03T13:00:37.925Z</time></trkpt><trkpt lat="44.0913617" lon="8.0210083"><ele>688.0</ele><time>2026-04-03T13:00:39.925Z</time></trkpt><trkpt lat="44.09129" lon="8.0210433"><ele>688.0</ele><time>2026-04-03T13:00:41.925Z</time></trkpt><trkpt lat="44.0912217" lon="8.0211267"><ele>688.0</ele><time>2026-04-03T13:00:44.925Z</time></trkpt><trkpt lat="44.0911717" lon="8.02125"><ele>688.0</ele><time>2026-04-03T13:00:46.924Z</time></trkpt><trkpt lat="44.0911367" lon="8.021345"><ele>688.0</ele><time>2026-04-03T13:00:47.925Z</time></trkpt><trkpt lat="44.0910817" lon="8.021455"><ele>688.0</ele><time>2026-04-03T13:00:48.925Z</time></trkpt><trkpt lat="44.0910317" lon="8.0216083"><ele>688.0</ele><time>2026-04-03T13:00:49.925Z</time></trkpt><trkpt lat="44.0909933" lon="8.0217417"><ele>688.0</ele><time>2026-04-03T13:00:50.924Z</time></trkpt><trkpt lat="44.090955" lon="8.0218467"><ele>688.0</ele><time>2026-04-03T13:00:51.925Z</time></trkpt><trkpt lat="44.0909" lon="8.02193"><ele>686.6666666666667</ele><time>2026-04-03T13:00:52.923Z</time></trkpt><trkpt lat="44.09085" lon="8.0220067"><ele>685.3333333333334</ele><time>2026-04-03T13:00:53.923Z</time></trkpt><trkpt lat="44.0907933" lon="8.0220817"><ele>684.0</ele><time>2026-04-03T13:00:54.924Z</time></trkpt><trkpt lat="44.09072" lon="8.0221583"><ele>682.6666666666666</ele><time>2026-04-03T13:00:55.924Z</time></trkpt><trkpt lat="44.0906517" lon="8.0222383"><ele>681.3333333333333</ele><time>2026-04-03T13:00:56.923Z</time></trkpt><trkpt lat="44.0906017" lon="8.02234"><ele>680.0</ele><time>2026-04-03T13:00:57.924Z</time></trkpt><trkpt lat="44.0905533" lon="8.0224433"><ele>686.25</ele><time>2026-04-03T13:00:58.923Z</time></trkpt><trkpt lat="44.0905033" lon="8.022525"><ele>692.5</ele><time>2026-04-03T13:00:59.924Z</time></trkpt><trkpt lat="44.0904317" lon="8.022585"><ele>698.75</ele><time>2026-04-03T13:01:00.924Z</time></trkpt><trkpt lat="44.0903483" lon="8.0226467"><ele>705.0</ele><time>2026-04-03T13:01:01.924Z</time></trkpt><trkpt lat="44.0901683" lon="8.022775"><ele>705.0</ele><time>2026-04-03T13:01:03.923Z</time></trkpt><trkpt lat="44.0900783" lon="8.0228467"><ele>705.0</ele><time>2026-04-03T13:01:04.924Z</time></trkpt><trkpt lat="44.09" lon="8.02291"><ele>705.0</ele><time>2026-04-03T13:01:05.924Z</time></trkpt><trkpt lat="44.0899267" lon="8.0229733"><ele>705.0</ele><time>2026-04-03T13:01:06.923Z</time></trkpt><trkpt lat="44.0898667" lon="8.023055"><ele>705.0</ele><time>2026-04-03T13:01:07.924Z</time></trkpt><trkpt lat="44.08982" lon="8.02314"><ele>705.0</ele><time>2026-04-03T13:01:08.924Z</time></trkpt><trkpt lat="44.0897883" lon="8.0232217"><ele>706.0</ele><time>2026-04-03T13:01:09.924Z</time></trkpt><trkpt lat="44.0898183" lon="8.0233767"><ele>707.0</ele><time>2026-04-03T13:01:11.924Z</time></trkpt><trkpt lat="44.0898133" lon="8.0235333"><ele>708.0</ele><time>2026-04-03T13:01:13.923Z</time></trkpt><trkpt lat="44.0897183" lon="8.023625"><ele>709.0</ele><time>2026-04-03T13:01:15.924Z</time></trkpt><trkpt lat="44.0896317" lon="8.02363"><ele>710.0</ele><time>2026-04-03T13:01:16.924Z</time></trkpt><trkpt lat="44.08953" lon="8.02365"><ele>710.0</ele><time>2026-04-03T13:01:17.923Z</time></trkpt><trkpt lat="44.0894433" lon="8.0236833"><ele>710.0</ele><time>2026-04-03T13:01:18.924Z</time></trkpt><trkpt lat="44.0893567" lon="8.023735"><ele>710.0</ele><time>2026-04-03T13:01:19.924Z</time></trkpt><trkpt lat="44.0892783" lon="8.023795"><ele>710.0</ele><time>2026-04-03T13:01:20.924Z</time></trkpt><trkpt lat="44.0892" lon="8.02383"><ele>710.0</ele><time>2026-04-03T13:01:21.924Z</time></trkpt><trkpt lat="44.08914" lon="8.02389"><ele>710.0</ele><time>2026-04-03T13:01:22.923Z</time></trkpt><trkpt lat="44.0890867" lon="8.0239783"><ele>708.4</ele><time>2026-04-03T13:01:23.924Z</time></trkpt><trkpt lat="44.089045" lon="8.02408"><ele>706.8</ele><time>2026-04-03T13:01:24.924Z</time></trkpt><trkpt lat="44.0890183" lon="8.024165"><ele>705.2</ele><time>2026-04-03T13:01:25.923Z</time></trkpt><trkpt lat="44.0889783" lon="8.0243033"><ele>703.6</ele><time>2026-04-03T13:01:27.923Z</time></trkpt><trkpt lat="44.0889517" lon="8.024495"><ele>702.0</ele><time>2026-04-03T13:01:57.923Z</time></trkpt><trkpt lat="44.088955" lon="8.0246017"><ele>702.0</ele><time>2026-04-03T13:01:59.924Z</time></trkpt><trkpt lat="44.0889267" lon="8.0247283"><ele>702.0</ele><time>2026-04-03T13:02:01.924Z</time></trkpt><trkpt lat="44.088905" lon="8.024825"><ele>702.0</ele><time>2026-04-03T13:02:03.924Z</time></trkpt><trkpt lat="44.0889017" lon="8.02494"><ele>702.0</ele><time>2026-04-03T13:02:06.924Z</time></trkpt><trkpt lat="44.0889167" lon="8.0250733"><ele>702.0</ele><time>2026-04-03T13:02:09.924Z</time></trkpt><trkpt lat="44.0889233" lon="8.0252517"><ele>704.1666666666666</ele><time>2026-04-03T13:02:35.923Z</time></trkpt><trkpt lat="44.0889283" lon="8.02534"><ele>706.3333333333334</ele><time>2026-04-03T13:02:38.924Z</time></trkpt><trkpt lat="44.0889417" lon="8.0254417"><ele>708.5</ele><time>2026-04-03T13:03:52.923Z</time></trkpt><trkpt lat="44.0888983" lon="8.025375"><ele>710.6666666666667</ele><time>2026-04-03T13:03:58.924Z</time></trkpt><trkpt lat="44.0888883" lon="8.02527"><ele>712.8333333333334</ele><time>2026-04-03T13:04:03.924Z</time></trkpt><trkpt lat="44.088865" lon="8.02514"><ele>715.0</ele><time>2026-04-03T13:04:13.924Z</time></trkpt><trkpt lat="44.088795" lon="8.02502"><ele>715.0</ele><time>2026-04-03T13:05:12.923Z</time></trkpt><trkpt lat="44.0887267" lon="8.024985"><ele>715.0</ele><time>2026-04-03T13:05:14.924Z</time></trkpt><trkpt lat="44.0886683" lon="8.0249483"><ele>715.0</ele><time>2026-04-03T13:05:16.922Z</time></trkpt><trkpt lat="44.0886" lon="8.0249433"><ele>715.0</ele><time>2026-04-03T13:05:20.923Z</time></trkpt><trkpt lat="44.0885317" lon="8.02491"><ele>715.0</ele><time>2026-04-03T13:05:36.922Z</time></trkpt><trkpt lat="44.088595" lon="8.0249717"><ele>715.0</ele><time>2026-04-03T13:06:39.922Z</time></trkpt><trkpt lat="44.0886733" lon="8.0249533"><ele>715.0</ele><time>2026-04-03T13:06:50.923Z</time></trkpt><trkpt lat="44.0887433" lon="8.0249317"><ele>712.8333333333334</ele><time>2026-04-03T13:06:56.922Z</time></trkpt><trkpt lat="44.0888117" lon="8.0249367"><ele>710.6666666666667</ele><time>2026-04-03T13:06:59.923Z</time></trkpt><trkpt lat="44.0888817" lon="8.02489"><ele>708.5</ele><time>2026-04-03T13:07:03.923Z</time></trkpt><trkpt lat="44.0889367" lon="8.0247617"><ele>706.3333333333334</ele><time>2026-04-03T13:07:06.923Z</time></trkpt><trkpt lat="44.088965" lon="8.0246533"><ele>704.1666666666666</ele><time>2026-04-03T13:07:08.923Z</time></trkpt><trkpt lat="44.0889617" lon="8.0245317"><ele>702.0</ele><time>2026-04-03T13:07:10.923Z</time></trkpt><trkpt lat="44.0889617" lon="8.0244067"><ele>702.0</ele><time>2026-04-03T13:07:12.922Z</time></trkpt><trkpt lat="44.0889733" lon="8.024305"><ele>702.0</ele><time>2026-04-03T13:07:14.923Z</time></trkpt><trkpt lat="44.089" lon="8.024195"><ele>702.0</ele><time>2026-04-03T13:07:17.922Z</time></trkpt><trkpt lat="44.0890283" lon="8.0240783"><ele>702.0</ele><time>2026-04-03T13:07:19.923Z</time></trkpt><trkpt lat="44.0891033" lon="8.0239683"><ele>702.0</ele><time>2026-04-03T13:07:21.923Z</time></trkpt><trkpt lat="44.0891967" lon="8.0238933"><ele>703.3333333333334</ele><time>2026-04-03T13:07:23.922Z</time></trkpt><trkpt lat="44.0892633" lon="8.0238583"><ele>704.6666666666666</ele><time>2026-04-03T13:07:25.923Z</time></trkpt><trkpt lat="44.0891767" lon="8.0238467"><ele>706.0</ele><time>2026-04-03T13:07:29.922Z</time></trkpt><trkpt lat="44.0891117" lon="8.0238583"><ele>707.3333333333333</ele><time>2026-04-03T13:07:30.922Z</time></trkpt><trkpt lat="44.0890083" lon="8.0239"><ele>708.6666666666666</ele><time>2026-04-03T13:07:32.923Z</time></trkpt><trkpt lat="44.088945" lon="8.0239517"><ele>710.0</ele><time>2026-04-03T13:07:33.923Z</time></trkpt><trkpt lat="44.0888583" lon="8.02405"><ele>708.6666666666666</ele><time>2026-04-03T13:07:35.923Z</time></trkpt><trkpt lat="44.0888033" lon="8.024135"><ele>707.3333333333333</ele><time>2026-04-03T13:07:37.923Z</time></trkpt><trkpt lat="44.08875" lon="8.0242233"><ele>706.0</ele><time>2026-04-03T13:07:40.923Z</time></trkpt><trkpt lat="44.088715" lon="8.024315"><ele>704.6666666666666</ele><time>2026-04-03T13:07:42.923Z</time></trkpt><trkpt lat="44.08866" lon="8.0244233"><ele>703.3333333333334</ele><time>2026-04-03T13:07:44.923Z</time></trkpt><trkpt lat="44.0885933" lon="8.0245233"><ele>702.0</ele><time>2026-04-03T13:07:46.923Z</time></trkpt><trkpt lat="44.0885417" lon="8.0245767"><ele>702.0</ele><time>2026-04-03T13:07:48.922Z</time></trkpt><trkpt lat="44.08846" lon="8.0246017"><ele>702.0</ele><time>2026-04-03T13:07:52.922Z</time></trkpt><trkpt lat="44.088505" lon="8.0245117"><ele>702.0</ele><time>2026-04-03T13:08:08.923Z</time></trkpt><trkpt lat="44.0885333" lon="8.0244317"><ele>702.0</ele><time>2026-04-03T13:08:10.923Z</time></trkpt><trkpt lat="44.0885483" lon="8.024315"><ele>702.0</ele><time>2026-04-03T13:08:13.923Z</time></trkpt><trkpt lat="44.0885617" lon="8.0242267"><ele>702.0</ele><time>2026-04-03T13:08:16.922Z</time></trkpt><trkpt lat="44.0885783" lon="8.0241217"><ele>702.0</ele><time>2026-04-03T13:08:20.923Z</time></trkpt><trkpt lat="44.0885167" lon="8.0241567"><ele>702.0</ele><time>2026-04-03T13:08:29.923Z</time></trkpt><trkpt lat="44.0884583" lon="8.0242317"><ele>702.0</ele><time>2026-04-03T13:08:32.923Z</time></trkpt><trkpt lat="44.0883567" lon="8.0242567"><ele>702.0</ele><time>2026-04-03T13:08:35.923Z</time></trkpt><trkpt lat="44.0882717" lon="8.02429"><ele>702.0</ele><time>2026-04-03T13:08:37.923Z</time></trkpt><trkpt lat="44.0881633" lon="8.0243217"><ele>702.0</ele><time>2026-04-03T13:08:39.922Z</time></trkpt><trkpt lat="44.0880583" lon="8.0243367"><ele>697.8</ele><time>2026-04-03T13:08:41.922Z</time></trkpt><trkpt lat="44.0879617" lon="8.0243283"><ele>693.6</ele><time>2026-04-03T13:08:43.922Z</time></trkpt><trkpt lat="44.0878633" lon="8.02427"><ele>689.4</ele><time>2026-04-03T13:08:45.923Z</time></trkpt><trkpt lat="44.0877867" lon="8.0241883"><ele>685.1999999999999</ele><time>2026-04-03T13:08:47.922Z</time></trkpt><trkpt lat="44.0877733" lon="8.0240917"><ele>681.0</ele><time>2026-04-03T13:08:49.923Z</time></trkpt><trkpt lat="44.0878017" lon="8.02398"><ele>679.0</ele><time>2026-04-03T13:08:52.923Z</time></trkpt><trkpt lat="44.0877417" lon="8.0239267"><ele>677.0</ele><time>2026-04-03T13:09:11.922Z</time></trkpt><trkpt lat="44.08768" lon="8.0238533"><ele>675.0</ele><time>2026-04-03T13:09:13.923Z</time></trkpt><trkpt lat="44.087635" lon="8.02378"><ele>673.0</ele><time>2026-04-03T13:09:15.923Z</time></trkpt><trkpt lat="44.0876" lon="8.0237033"><ele>671.0</ele><time>2026-04-03T13:09:17.922Z</time></trkpt><trkpt lat="44.0875417" lon="8.02361"><ele>669.0</ele><time>2026-04-03T13:09:19.922Z</time></trkpt><trkpt lat="44.087485" lon="8.02352"><ele>665.6666666666666</ele><time>2026-04-03T13:09:21.922Z</time></trkpt><trkpt lat="44.087415" lon="8.023455"><ele>662.3333333333334</ele><time>2026-04-03T13:09:23.922Z</time></trkpt><trkpt lat="44.0873317" lon="8.02339"><ele>659.0</ele><time>2026-04-03T13:09:25.922Z</time></trkpt><trkpt lat="44.0872817" lon="8.023335"><ele>655.6666666666667</ele><time>2026-04-03T13:09:27.922Z</time></trkpt><trkpt lat="44.0872417" lon="8.02326"><ele>652.3333333333334</ele><time>2026-04-03T13:09:30.922Z</time></trkpt><trkpt lat="44.0871433" lon="8.0232167"><ele>649.0</ele><time>2026-04-03T13:09:33.922Z</time></trkpt><trkpt lat="44.0870867" lon="8.0231633"><ele>647.8333333333334</ele><time>2026-04-03T13:09:35.922Z</time></trkpt><trkpt lat="44.0870283" lon="8.0230917"><ele>646.6666666666667</ele><time>2026-04-03T13:09:37.921Z</time></trkpt><trkpt lat="44.0869617" lon="8.0230483"><ele>645.5</ele><time>2026-04-03T13:09:39.922Z</time></trkpt><trkpt lat="44.0869217" lon="8.02297"><ele>644.3333333333334</ele><time>2026-04-03T13:09:42.921Z</time></trkpt><trkpt lat="44.0869617" lon="8.0228883"><ele>643.1666666666666</ele><time>2026-04-03T13:09:49.922Z</time></trkpt><trkpt lat="44.0868933" lon="8.0227967"><ele>642.0</ele><time>2026-04-03T13:09:52.921Z</time></trkpt><trkpt lat="44.08679" lon="8.022765"><ele>642.0</ele><time>2026-04-03T13:09:54.922Z</time></trkpt><trkpt lat="44.086685" lon="8.02271"><ele>642.0</ele><time>2026-04-03T13:09:56.921Z</time></trkpt><trkpt lat="44.0865967" lon="8.0227017"><ele>642.0</ele><time>2026-04-03T13:09:58.921Z</time></trkpt><trkpt lat="44.0865483" lon="8.0226017"><ele>642.0</ele><time>2026-04-03T13:10:01.922Z</time></trkpt><trkpt lat="44.08658" lon="8.0224533"><ele>642.0</ele><time>2026-04-03T13:10:03.922Z</time></trkpt><trkpt lat="44.0866017" lon="8.0223583"><ele>638.0</ele><time>2026-04-03T13:10:04.921Z</time></trkpt><trkpt lat="44.0866517" lon="8.0222133"><ele>634.0</ele><time>2026-04-03T13:10:06.922Z</time></trkpt><trkpt lat="44.08672" lon="8.0221517"><ele>630.0</ele><time>2026-04-03T13:10:08.921Z</time></trkpt><trkpt lat="44.0868067" lon="8.0221133"><ele>626.0</ele><time>2026-04-03T13:10:10.922Z</time></trkpt><trkpt lat="44.0867967" lon="8.0220167"><ele>622.0</ele><time>2026-04-03T13:10:15.922Z</time></trkpt><trkpt lat="44.08669" lon="8.021985"><ele>617.2</ele><time>2026-04-03T13:10:17.922Z</time></trkpt><trkpt lat="44.08658" lon="8.0219783"><ele>612.4000000000001</ele><time>2026-04-03T13:10:19.921Z</time></trkpt><trkpt lat="44.0864917" lon="8.021995"><ele>607.5999999999999</ele><time>2026-04-03T13:10:21.921Z</time></trkpt><trkpt lat="44.0863933" lon="8.02199"><ele>602.8</ele><time>2026-04-03T13:10:23.922Z</time></trkpt><trkpt lat="44.0863" lon="8.0219933"><ele>598.0</ele><time>2026-04-03T13:10:25.922Z</time></trkpt><trkpt lat="44.086195" lon="8.0219717"><ele>598.0</ele><time>2026-04-03T13:10:27.921Z</time></trkpt><trkpt lat="44.086095" lon="8.021955"><ele>598.0</ele><time>2026-04-03T13:10:29.922Z</time></trkpt><trkpt lat="44.086" lon="8.0219333"><ele>598.0</ele><time>2026-04-03T13:10:31.921Z</time></trkpt><trkpt lat="44.085935" lon="8.0219383"><ele>598.0</ele><time>2026-04-03T13:10:33.922Z</time></trkpt><trkpt lat="44.0858283" lon="8.0220367"><ele>598.0</ele><time>2026-04-03T13:11:52.921Z</time></trkpt><trkpt lat="44.0857533" lon="8.02209"><ele>597.5</ele><time>2026-04-03T13:11:53.922Z</time></trkpt><trkpt lat="44.0856817" lon="8.022155"><ele>597.0</ele><time>2026-04-03T13:11:54.921Z</time></trkpt><trkpt lat="44.0856317" lon="8.0222283"><ele>596.5</ele><time>2026-04-03T13:11:55.921Z</time></trkpt><trkpt lat="44.0856033" lon="8.02232"><ele>596.0</ele><time>2026-04-03T13:11:56.922Z</time></trkpt><trkpt lat="44.0855883" lon="8.0224317"><ele>595.5</ele><time>2026-04-03T13:11:57.922Z</time></trkpt><trkpt lat="44.0856017" lon="8.02256"><ele>595.0</ele><time>2026-04-03T13:11:58.922Z</time></trkpt><trkpt lat="44.0856217" lon="8.0226767"><ele>595.0</ele><time>2026-04-03T13:11:59.922Z</time></trkpt><trkpt lat="44.0856317" lon="8.0227683"><ele>595.0</ele><time>2026-04-03T13:12:00.922Z</time></trkpt><trkpt lat="44.0855317" lon="8.0229067"><ele>595.0</ele><time>2026-04-03T13:12:02.922Z</time></trkpt><trkpt lat="44.0854567" lon="8.02298"><ele>595.0</ele><time>2026-04-03T13:12:03.922Z</time></trkpt><trkpt lat="44.0853783" lon="8.0230383"><ele>595.0</ele><time>2026-04-03T13:12:04.922Z</time></trkpt><trkpt lat="44.085295" lon="8.02306"><ele>595.0</ele><time>2026-04-03T13:12:05.922Z</time></trkpt><trkpt lat="44.0852217" lon="8.0230917"><ele>595.0</ele><time>2026-04-03T13:12:06.921Z</time></trkpt><trkpt lat="44.0851683" lon="8.0231433"><ele>595.0</ele><time>2026-04-03T13:12:07.921Z</time></trkpt><trkpt lat="44.0851283" lon="8.0232383"><ele>595.0</ele><time>2026-04-03T13:12:08.921Z</time></trkpt><trkpt lat="44.0851083" lon="8.023375"><ele>595.0</ele><time>2026-04-03T13:12:09.921Z</time></trkpt><trkpt lat="44.08507" lon="8.0235267"><ele>595.0</ele><time>2026-04-03T13:12:10.921Z</time></trkpt><trkpt lat="44.08501" lon="8.023655"><ele>592.75</ele><time>2026-04-03T13:12:11.921Z</time></trkpt><trkpt lat="44.0849233" lon="8.02378"><ele>590.5</ele><time>2026-04-03T13:12:12.921Z</time></trkpt><trkpt lat="44.0848283" lon="8.0238933"><ele>588.25</ele><time>2026-04-03T13:12:13.922Z</time></trkpt><trkpt lat="44.0847367" lon="8.024005"><ele>586.0</ele><time>2026-04-03T13:12:14.921Z</time></trkpt><trkpt lat="44.0846383" lon="8.0241033"><ele>589.25</ele><time>2026-04-03T13:12:15.921Z</time></trkpt><trkpt lat="44.0845133" lon="8.0241833"><ele>592.5</ele><time>2026-04-03T13:12:16.922Z</time></trkpt><trkpt lat="44.0843933" lon="8.02426"><ele>595.75</ele><time>2026-04-03T13:12:17.922Z</time></trkpt><trkpt lat="44.0842783" lon="8.024335"><ele>599.0</ele><time>2026-04-03T13:12:18.922Z</time></trkpt><trkpt lat="44.0841917" lon="8.024405"><ele>599.0</ele><time>2026-04-03T13:12:19.922Z</time></trkpt><trkpt lat="44.0841317" lon="8.0244683"><ele>599.0</ele><time>2026-04-03T13:12:20.922Z</time></trkpt><trkpt lat="44.08408" lon="8.024615"><ele>599.0</ele><time>2026-04-03T13:12:22.921Z</time></trkpt><trkpt lat="44.0840533" lon="8.02471"><ele>599.0</ele><time>2026-04-03T13:12:23.922Z</time></trkpt><trkpt lat="44.084" lon="8.0247983"><ele>599.0</ele><time>2026-04-03T13:12:24.922Z</time></trkpt><trkpt lat="44.083915" lon="8.024855"><ele>599.0</ele><time>2026-04-03T13:12:25.922Z</time></trkpt><trkpt lat="44.0838017" lon="8.0249067"><ele>597.6</ele><time>2026-04-03T13:12:26.921Z</time></trkpt><trkpt lat="44.0837067" lon="8.0249583"><ele>596.2</ele><time>2026-04-03T13:12:27.921Z</time></trkpt><trkpt lat="44.0836333" lon="8.0250067"><ele>594.8000000000001</ele><time>2026-04-03T13:12:28.922Z</time></trkpt><trkpt lat="44.083565" lon="8.0250517"><ele>593.4</ele><time>2026-04-03T13:12:29.922Z</time></trkpt><trkpt lat="44.0834783" lon="8.0250933"><ele>592.0</ele><time>2026-04-03T13:12:30.922Z</time></trkpt><trkpt lat="44.0833767" lon="8.0251067"><ele>594.5</ele><time>2026-04-03T13:12:31.922Z</time></trkpt><trkpt lat="44.0832783" lon="8.0251017"><ele>597.0</ele><time>2026-04-03T13:12:32.921Z</time></trkpt><trkpt lat="44.0831967" lon="8.0250917"><ele>599.5</ele><time>2026-04-03T13:12:33.922Z</time></trkpt><trkpt lat="44.0831267" lon="8.0250983"><ele>602.0</ele><time>2026-04-03T13:12:34.922Z</time></trkpt><trkpt lat="44.0830683" lon="8.02518"><ele>604.5</ele><time>2026-04-03T13:12:36.922Z</time></trkpt><trkpt lat="44.0830733" lon="8.0253283"><ele>607.0</ele><time>2026-04-03T13:12:38.922Z</time></trkpt><trkpt lat="44.0830733" lon="8.0254217"><ele>607.2</ele><time>2026-04-03T13:12:39.922Z</time></trkpt><trkpt lat="44.08304" lon="8.0255583"><ele>607.4000000000001</ele><time>2026-04-03T13:12:41.921Z</time></trkpt><trkpt lat="44.0829483" lon="8.02555"><ele>607.5999999999999</ele><time>2026-04-03T13:12:43.921Z</time></trkpt><trkpt lat="44.0828933" lon="8.0254917"><ele>607.8</ele><time>2026-04-03T13:12:44.921Z</time></trkpt><trkpt lat="44.0828367" lon="8.025395"><ele>608.0</ele><time>2026-04-03T13:12:45.921Z</time></trkpt><trkpt lat="44.082785" lon="8.025275"><ele>608.0</ele><time>2026-04-03T13:12:46.922Z</time></trkpt><trkpt lat="44.082735" lon="8.02516"><ele>608.0</ele><time>2026-04-03T13:12:47.922Z</time></trkpt><trkpt lat="44.0826917" lon="8.02506"><ele>608.0</ele><time>2026-04-03T13:12:48.922Z</time></trkpt><trkpt lat="44.0826483" lon="8.0249783"><ele>608.0</ele><time>2026-04-03T13:12:49.921Z</time></trkpt><trkpt lat="44.0826" lon="8.0249183"><ele>608.0</ele><time>2026-04-03T13:12:50.921Z</time></trkpt><trkpt lat="44.0825367" lon="8.0248783"><ele>608.0</ele><time>2026-04-03T13:12:51.921Z</time></trkpt><trkpt lat="44.0824633" lon="8.0248683"><ele>605.0</ele><time>2026-04-03T13:12:52.922Z</time></trkpt><trkpt lat="44.0823833" lon="8.0248617"><ele>602.0</ele><time>2026-04-03T13:12:53.922Z</time></trkpt><trkpt lat="44.082305" lon="8.02485"><ele>599.0</ele><time>2026-04-03T13:12:54.922Z</time></trkpt><trkpt lat="44.0822217" lon="8.0248517"><ele>596.0</ele><time>2026-04-03T13:12:55.922Z</time></trkpt><trkpt lat="44.0821217" lon="8.0248617"><ele>593.0</ele><time>2026-04-03T13:12:56.921Z</time></trkpt><trkpt lat="44.0820133" lon="8.0248317"><ele>593.0</ele><time>2026-04-03T13:12:57.922Z</time></trkpt><trkpt lat="44.081915" lon="8.024795"><ele>593.0</ele><time>2026-04-03T13:12:58.922Z</time></trkpt><trkpt lat="44.081825" lon="8.0247567"><ele>593.0</ele><time>2026-04-03T13:12:59.921Z</time></trkpt><trkpt lat="44.08173" lon="8.0247183"><ele>593.0</ele><time>2026-04-03T13:13:00.922Z</time></trkpt><trkpt lat="44.0816233" lon="8.0246667"><ele>593.0</ele><time>2026-04-03T13:13:01.921Z</time></trkpt><trkpt lat="44.081535" lon="8.024585"><ele>591.8333333333333</ele><time>2026-04-03T13:13:02.922Z</time></trkpt><trkpt lat="44.0814533" lon="8.0245"><ele>590.6666666666666</ele><time>2026-04-03T13:13:03.921Z</time></trkpt><trkpt lat="44.0813833" lon="8.0244433"><ele>589.5</ele><time>2026-04-03T13:13:04.922Z</time></trkpt><trkpt lat="44.0813133" lon="8.0244083"><ele>588.3333333333334</ele><time>2026-04-03T13:13:05.921Z</time></trkpt><trkpt lat="44.0812367" lon="8.0243983"><ele>587.1666666666667</ele><time>2026-04-03T13:13:06.922Z</time></trkpt><trkpt lat="44.081165" lon="8.0244183"><ele>586.0</ele><time>2026-04-03T13:13:07.922Z</time></trkpt><trkpt lat="44.08109" lon="8.0244533"><ele>586.0</ele><time>2026-04-03T13:13:08.922Z</time></trkpt><trkpt lat="44.0810183" lon="8.0245083"><ele>586.0</ele><time>2026-04-03T13:13:09.922Z</time></trkpt><trkpt lat="44.0809583" lon="8.0245717"><ele>586.0</ele><time>2026-04-03T13:13:10.922Z</time></trkpt><trkpt lat="44.08089" lon="8.0246667"><ele>586.0</ele><time>2026-04-03T13:13:12.922Z</time></trkpt><trkpt lat="44.0808567" lon="8.0248133"><ele>586.0</ele><time>2026-04-03T13:17:46.921Z</time></trkpt><trkpt lat="44.0807533" lon="8.0248883"><ele>587.0</ele><time>2026-04-03T13:17:48.921Z</time></trkpt><trkpt lat="44.0806933" lon="8.0249417"><ele>588.0</ele><time>2026-04-03T13:17:49.92Z</time></trkpt><trkpt lat="44.0806417" lon="8.025025"><ele>589.0</ele><time>2026-04-03T13:17:50.92Z</time></trkpt><trkpt lat="44.08059" lon="8.02512"><ele>590.0</ele><time>2026-04-03T13:17:51.921Z</time></trkpt><trkpt lat="44.0805317" lon="8.025195"><ele>591.0</ele><time>2026-04-03T13:17:52.921Z</time></trkpt><trkpt lat="44.0804433" lon="8.0252617"><ele>592.0</ele><time>2026-04-03T13:17:53.92Z</time></trkpt><trkpt lat="44.0803267" lon="8.0253067"><ele>592.0</ele><time>2026-04-03T13:17:54.921Z</time></trkpt><trkpt lat="44.0801783" lon="8.02532"><ele>592.0</ele><time>2026-04-03T13:17:55.92Z</time></trkpt><trkpt lat="44.0800117" lon="8.0253133"><ele>592.0</ele><time>2026-04-03T13:17:56.921Z</time></trkpt><trkpt lat="44.0798467" lon="8.0253017"><ele>591.2</ele><time>2026-04-03T13:17:57.92Z</time></trkpt><trkpt lat="44.0797183" lon="8.02529"><ele>590.4000000000001</ele><time>2026-04-03T13:17:58.921Z</time></trkpt><trkpt lat="44.0796217" lon="8.0252883"><ele>589.5999999999999</ele><time>2026-04-03T13:17:59.92Z</time></trkpt><trkpt lat="44.079545" lon="8.0252933"><ele>588.8</ele><time>2026-04-03T13:18:00.92Z</time></trkpt><trkpt lat="44.0794783" lon="8.0253067"><ele>588.0</ele><time>2026-04-03T13:18:01.921Z</time></trkpt><trkpt lat="44.0794033" lon="8.0253517"><ele>588.0</ele><time>2026-04-03T13:18:02.92Z</time></trkpt><trkpt lat="44.0793217" lon="8.025405"><ele>588.0</ele><time>2026-04-03T13:18:03.921Z</time></trkpt><trkpt lat="44.0792367" lon="8.02545"><ele>588.0</ele><time>2026-04-03T13:18:04.92Z</time></trkpt><trkpt lat="44.0791267" lon="8.0254417"><ele>588.0</ele><time>2026-04-03T13:18:06.92Z</time></trkpt><trkpt lat="44.079035" lon="8.0253167"><ele>588.0</ele><time>2026-04-03T13:18:08.921Z</time></trkpt><trkpt lat="44.0789817" lon="8.025215"><ele>588.6</ele><time>2026-04-03T13:18:09.92Z</time></trkpt><trkpt lat="44.0789083" lon="8.0251117"><ele>589.1999999999999</ele><time>2026-04-03T13:18:10.921Z</time></trkpt><trkpt lat="44.0788267" lon="8.0250367"><ele>589.8</ele><time>2026-04-03T13:18:11.921Z</time></trkpt><trkpt lat="44.0787317" lon="8.024975"><ele>590.4</ele><time>2026-04-03T13:18:12.921Z</time></trkpt><trkpt lat="44.0786067" lon="8.02495"><ele>591.0</ele><time>2026-04-03T13:18:13.92Z</time></trkpt><trkpt lat="44.0784717" lon="8.0249617"><ele>588.4</ele><time>2026-04-03T13:18:14.921Z</time></trkpt><trkpt lat="44.07834" lon="8.02497"><ele>585.8</ele><time>2026-04-03T13:18:15.92Z</time></trkpt><trkpt lat="44.0782333" lon="8.0249933"><ele>583.1999999999999</ele><time>2026-04-03T13:18:16.921Z</time></trkpt><trkpt lat="44.0781533" lon="8.0250017"><ele>580.6</ele><time>2026-04-03T13:18:17.92Z</time></trkpt><trkpt lat="44.0780683" lon="8.025"><ele>578.0</ele><time>2026-04-03T13:18:19.921Z</time></trkpt><trkpt lat="44.0779967" lon="8.024975"><ele>578.0</ele><time>2026-04-03T13:18:22.921Z</time></trkpt><trkpt lat="44.0779083" lon="8.0250017"><ele>578.0</ele><time>2026-04-03T13:18:52.921Z</time></trkpt><trkpt lat="44.0778367" lon="8.0250333"><ele>578.0</ele><time>2026-04-03T13:18:53.921Z</time></trkpt><trkpt lat="44.0777567" lon="8.0250767"><ele>578.0</ele><time>2026-04-03T13:18:54.921Z</time></trkpt><trkpt lat="44.0776683" lon="8.0251383"><ele>578.0</ele><time>2026-04-03T13:18:55.92Z</time></trkpt><trkpt lat="44.0775783" lon="8.025205"><ele>578.0</ele><time>2026-04-03T13:18:56.92Z</time></trkpt><trkpt lat="44.0774867" lon="8.0252767"><ele>578.0</ele><time>2026-04-03T13:18:57.92Z</time></trkpt><trkpt lat="44.077395" lon="8.0253167"><ele>578.0</ele><time>2026-04-03T13:18:58.92Z</time></trkpt><trkpt lat="44.0773267" lon="8.0253767"><ele>578.0</ele><time>2026-04-03T13:18:59.921Z</time></trkpt><trkpt lat="44.077285" lon="8.0254533"><ele>578.0</ele><time>2026-04-03T13:19:00.921Z</time></trkpt><trkpt lat="44.0773033" lon="8.0256083"><ele>576.6666666666666</ele><time>2026-04-03T13:19:02.921Z</time></trkpt><trkpt lat="44.0773333" lon="8.025705"><ele>575.3333333333333</ele><time>2026-04-03T13:19:03.921Z</time></trkpt><trkpt lat="44.0773467" lon="8.0258183"><ele>574.0</ele><time>2026-04-03T13:19:04.921Z</time></trkpt><trkpt lat="44.077335" lon="8.0259383"><ele>572.6666666666666</ele><time>2026-04-03T13:19:05.921Z</time></trkpt><trkpt lat="44.0772967" lon="8.0260583"><ele>571.3333333333334</ele><time>2026-04-03T13:19:06.921Z</time></trkpt><trkpt lat="44.0772417" lon="8.0261283"><ele>570.0</ele><time>2026-04-03T13:19:07.921Z</time></trkpt><trkpt lat="44.0771283" lon="8.026145"><ele>570.0</ele><time>2026-04-03T13:19:09.921Z</time></trkpt><trkpt lat="44.077065" lon="8.0260817"><ele>570.0</ele><time>2026-04-03T13:19:10.92Z</time></trkpt><trkpt lat="44.07701" lon="8.02592"><ele>570.0</ele><time>2026-04-03T13:19:11.92Z</time></trkpt><trkpt lat="44.07694" lon="8.0257683"><ele>570.0</ele><time>2026-04-03T13:19:12.921Z</time></trkpt><trkpt lat="44.0768567" lon="8.02562"><ele>570.0</ele><time>2026-04-03T13:19:13.921Z</time></trkpt><trkpt lat="44.076755" lon="8.0254617"><ele>570.0</ele><time>2026-04-03T13:19:14.92Z</time></trkpt><trkpt lat="44.07667" lon="8.025345"><ele>570.0</ele><time>2026-04-03T13:19:15.921Z</time></trkpt><trkpt lat="44.0766133" lon="8.0252583"><ele>570.0</ele><time>2026-04-03T13:19:16.92Z</time></trkpt><trkpt lat="44.0765483" lon="8.02521"><ele>570.0</ele><time>2026-04-03T13:19:18.921Z</time></trkpt><trkpt lat="44.0764733" lon="8.0252083"><ele>569.4</ele><time>2026-04-03T13:19:20.921Z</time></trkpt><trkpt lat="44.07637" lon="8.0251467"><ele>568.8</ele><time>2026-04-03T13:19:22.92Z</time></trkpt><trkpt lat="44.0763067" lon="8.025115"><ele>568.2</ele><time>2026-04-03T13:19:23.921Z</time></trkpt><trkpt lat="44.07621" lon="8.025115"><ele>567.6</ele><time>2026-04-03T13:19:24.921Z</time></trkpt><trkpt lat="44.0760933" lon="8.0251233"><ele>567.0</ele><time>2026-04-03T13:19:25.921Z</time></trkpt><trkpt lat="44.0759667" lon="8.02511"><ele>567.0</ele><time>2026-04-03T13:19:26.921Z</time></trkpt><trkpt lat="44.075855" lon="8.0251017"><ele>567.0</ele><time>2026-04-03T13:19:27.921Z</time></trkpt><trkpt lat="44.0757567" lon="8.0251183"><ele>567.0</ele><time>2026-04-03T13:19:28.921Z</time></trkpt><trkpt lat="44.0756717" lon="8.02514"><ele>567.0</ele><time>2026-04-03T13:19:29.921Z</time></trkpt><trkpt lat="44.0756" lon="8.025175"><ele>567.0</ele><time>2026-04-03T13:19:30.92Z</time></trkpt><trkpt lat="44.0755283" lon="8.02521"><ele>567.0</ele><time>2026-04-03T13:19:31.92Z</time></trkpt><trkpt lat="44.0754333" lon="8.02516"><ele>566.6</ele><time>2026-04-03T13:19:33.921Z</time></trkpt><trkpt lat="44.0753917" lon="8.02508"><ele>566.2</ele><time>2026-04-03T13:19:34.92Z</time></trkpt><trkpt lat="44.075335" lon="8.02497"><ele>565.8</ele><time>2026-04-03T13:19:35.921Z</time></trkpt><trkpt lat="44.0752533" lon="8.0248933"><ele>565.4</ele><time>2026-04-03T13:19:36.921Z</time></trkpt><trkpt lat="44.07515" lon="8.024835"><ele>565.0</ele><time>2026-04-03T13:19:37.921Z</time></trkpt><trkpt lat="44.0750283" lon="8.0248067"><ele>558.0</ele><time>2026-04-03T13:19:38.92Z</time></trkpt><trkpt lat="44.07491" lon="8.0247833"><ele>551.0</ele><time>2026-04-03T13:19:39.92Z</time></trkpt><trkpt lat="44.0747967" lon="8.02478"><ele>544.0</ele><time>2026-04-03T13:19:40.921Z</time></trkpt><trkpt lat="44.0746783" lon="8.0247883"><ele>537.0</ele><time>2026-04-03T13:19:41.921Z</time></trkpt><trkpt lat="44.07456" lon="8.0247983"><ele>537.0</ele><time>2026-04-03T13:19:42.921Z</time></trkpt><trkpt lat="44.0744433" lon="8.0248133"><ele>537.0</ele><time>2026-04-03T13:19:43.92Z</time></trkpt><trkpt lat="44.074335" lon="8.024825"><ele>537.0</ele><time>2026-04-03T13:19:44.92Z</time></trkpt><trkpt lat="44.074225" lon="8.0248283"><ele>537.0</ele><time>2026-04-03T13:19:45.921Z</time></trkpt><trkpt lat="44.0741133" lon="8.0248217"><ele>537.0</ele><time>2026-04-03T13:19:46.92Z</time></trkpt><trkpt lat="44.0740033" lon="8.024805"><ele>537.8000000000001</ele><time>2026-04-03T13:19:47.92Z</time></trkpt><trkpt lat="44.073905" lon="8.0248217"><ele>538.6</ele><time>2026-04-03T13:19:48.92Z</time></trkpt><trkpt lat="44.0738067" lon="8.02484"><ele>539.4000000000001</ele><time>2026-04-03T13:19:49.921Z</time></trkpt><trkpt lat="44.073705" lon="8.02486"><ele>540.2</ele><time>2026-04-03T13:19:50.921Z</time></trkpt><trkpt lat="44.0736033" lon="8.024855"><ele>541.0</ele><time>2026-04-03T13:19:51.921Z</time></trkpt><trkpt lat="44.0735" lon="8.0248"><ele>541.0</ele><time>2026-04-03T13:19:52.92Z</time></trkpt><trkpt lat="44.0733767" lon="8.02471"><ele>541.0</ele><time>2026-04-03T13:19:53.921Z</time></trkpt><trkpt lat="44.0732683" lon="8.0246233"><ele>541.0</ele><time>2026-04-03T13:19:54.92Z</time></trkpt><trkpt lat="44.0731617" lon="8.0245383"><ele>541.0</ele><time>2026-04-03T13:19:55.921Z</time></trkpt><trkpt lat="44.0730467" lon="8.024455"><ele>541.0</ele><time>2026-04-03T13:19:56.921Z</time></trkpt><trkpt lat="44.0729517" lon="8.0243817"><ele>541.0</ele><time>2026-04-03T13:19:57.92Z</time></trkpt><trkpt lat="44.072895" lon="8.0243383"><ele>541.0</ele><time>2026-04-03T13:19:58.92Z</time></trkpt><trkpt lat="44.0728383" lon="8.0242933"><ele>541.0</ele><time>2026-04-03T13:19:59.921Z</time></trkpt><trkpt lat="44.0727433" lon="8.0243733"><ele>541.0</ele><time>2026-04-03T13:20:01.921Z</time></trkpt><trkpt lat="44.07267" lon="8.02447"><ele>541.0</ele><time>2026-04-03T13:20:02.921Z</time></trkpt><trkpt lat="44.0725683" lon="8.0245933"><ele>541.0</ele><time>2026-04-03T13:20:03.921Z</time></trkpt><trkpt lat="44.0724633" lon="8.0246917"><ele>541.0</ele><time>2026-04-03T13:20:04.92Z</time></trkpt><trkpt lat="44.0723617" lon="8.02476"><ele>541.0</ele><time>2026-04-03T13:20:05.92Z</time></trkpt><trkpt lat="44.0722633" lon="8.0248183"><ele>538.0</ele><time>2026-04-03T13:20:06.92Z</time></trkpt><trkpt lat="44.07218" lon="8.0248817"><ele>535.0</ele><time>2026-04-03T13:20:07.921Z</time></trkpt><trkpt lat="44.0721133" lon="8.0249617"><ele>532.0</ele><time>2026-04-03T13:20:08.921Z</time></trkpt><trkpt lat="44.0720417" lon="8.02507"><ele>529.0</ele><time>2026-04-03T13:20:09.921Z</time></trkpt><trkpt lat="44.07197" lon="8.0252033"><ele>526.0</ele><time>2026-04-03T13:20:10.921Z</time></trkpt><trkpt lat="44.0719" lon="8.0253167"><ele>526.0</ele><time>2026-04-03T13:20:11.921Z</time></trkpt><trkpt lat="44.07185" lon="8.0254067"><ele>526.0</ele><time>2026-04-03T13:20:12.921Z</time></trkpt><trkpt lat="44.0718167" lon="8.0255717"><ele>526.0</ele><time>2026-04-03T13:20:14.921Z</time></trkpt><trkpt lat="44.07183" lon="8.02569"><ele>526.0</ele><time>2026-04-03T13:20:15.92Z</time></trkpt><trkpt lat="44.0718517" lon="8.02583"><ele>526.0</ele><time>2026-04-03T13:20:16.92Z</time></trkpt><trkpt lat="44.0718667" lon="8.0259933"><ele>525.0</ele><time>2026-04-03T13:20:17.921Z</time></trkpt><trkpt lat="44.071885" lon="8.0261667"><ele>524.0</ele><time>2026-04-03T13:20:18.921Z</time></trkpt><trkpt lat="44.071895" lon="8.0263417"><ele>523.0</ele><time>2026-04-03T13:20:19.921Z</time></trkpt><trkpt lat="44.0719017" lon="8.0264983"><ele>522.0</ele><time>2026-04-03T13:20:20.921Z</time></trkpt><trkpt lat="44.0719033" lon="8.02664"><ele>520.5</ele><time>2026-04-03T13:20:21.921Z</time></trkpt><trkpt lat="44.071925" lon="8.0267483"><ele>519.0</ele><time>2026-04-03T13:20:22.921Z</time></trkpt><trkpt lat="44.0719617" lon="8.0268517"><ele>517.5</ele><time>2026-04-03T13:20:23.921Z</time></trkpt><trkpt lat="44.0720017" lon="8.02693"><ele>516.0</ele><time>2026-04-03T13:20:24.921Z</time></trkpt><trkpt lat="44.0720417" lon="8.0270683"><ele>514.5</ele><time>2026-04-03T13:20:26.921Z</time></trkpt><trkpt lat="44.071985" lon="8.0271567"><ele>513.0</ele><time>2026-04-03T13:20:58.92Z</time></trkpt><trkpt lat="44.0719217" lon="8.0272"><ele>513.0000000000001</ele><time>2026-04-03T13:21:15.919Z</time></trkpt><trkpt lat="44.07186" lon="8.0272283"><ele>513.0</ele><time>2026-04-03T13:21:17.92Z</time></trkpt><trkpt lat="44.0717967" lon="8.027265"><ele>513.0</ele><time>2026-04-03T13:21:19.92Z</time></trkpt><trkpt lat="44.0717317" lon="8.0272933"><ele>513.0</ele><time>2026-04-03T13:21:21.919Z</time></trkpt><trkpt lat="44.071635" lon="8.0273233"><ele>513.0</ele><time>2026-04-03T13:21:24.919Z</time></trkpt><trkpt lat="44.0715583" lon="8.027345"><ele>513.0000000000001</ele><time>2026-04-03T13:21:27.92Z</time></trkpt><trkpt lat="44.0715217" lon="8.0274167"><ele>513.0</ele><time>2026-04-03T13:21:56.92Z</time></trkpt><trkpt lat="44.0714617" lon="8.0274917"><ele>508.8333333333333</ele><time>2026-04-03T13:22:19.919Z</time></trkpt><trkpt lat="44.0714167" lon="8.0275717"><ele>504.66666666666663</ele><time>2026-04-03T13:22:20.92Z</time></trkpt><trkpt lat="44.0713667" lon="8.0276733"><ele>500.5</ele><time>2026-04-03T13:22:21.919Z</time></trkpt><trkpt lat="44.0713267" lon="8.027775"><ele>496.3333333333333</ele><time>2026-04-03T13:22:22.919Z</time></trkpt><trkpt lat="44.0712917" lon="8.0278667"><ele>492.16666666666663</ele><time>2026-04-03T13:22:23.919Z</time></trkpt><trkpt lat="44.0712533" lon="8.0279483"><ele>488.0</ele><time>2026-04-03T13:22:24.92Z</time></trkpt><trkpt lat="44.0711917" lon="8.0280933"><ele>488.0</ele><time>2026-04-03T13:22:26.92Z</time></trkpt><trkpt lat="44.0711267" lon="8.0282383"><ele>487.99999999999994</ele><time>2026-04-03T13:22:28.92Z</time></trkpt><trkpt lat="44.0710983" lon="8.0283667"><ele>487.99999999999994</ele><time>2026-04-03T13:22:30.919Z</time></trkpt><trkpt lat="44.0710683" lon="8.0284967"><ele>488.0</ele><time>2026-04-03T13:22:32.919Z</time></trkpt><trkpt lat="44.0710233" lon="8.02859"><ele>488.0</ele><time>2026-04-03T13:22:34.919Z</time></trkpt><trkpt lat="44.0709667" lon="8.028635"><ele>488.8571428571428</ele><time>2026-04-03T13:22:36.92Z</time></trkpt><trkpt lat="44.0709" lon="8.028645"><ele>489.71428571428567</ele><time>2026-04-03T13:22:38.919Z</time></trkpt><trkpt lat="44.0708267" lon="8.0286567"><ele>490.57142857142856</ele><time>2026-04-03T13:22:41.92Z</time></trkpt><trkpt lat="44.0707667" lon="8.0287333"><ele>491.4285714285714</ele><time>2026-04-03T13:22:44.92Z</time></trkpt><trkpt lat="44.0707117" lon="8.0288067"><ele>492.2857142857142</ele><time>2026-04-03T13:22:47.92Z</time></trkpt><trkpt lat="44.0706683" lon="8.0288883"><ele>493.14285714285717</ele><time>2026-04-03T13:22:51.92Z</time></trkpt><trkpt lat="44.0706167" lon="8.0289517"><ele>494.0</ele><time>2026-04-03T13:22:54.919Z</time></trkpt><trkpt lat="44.0705717" lon="8.0290583"><ele>490.16666666666663</ele><time>2026-04-03T13:22:58.919Z</time></trkpt><trkpt lat="44.0705383" lon="8.0291417"><ele>486.3333333333333</ele><time>2026-04-03T13:23:00.92Z</time></trkpt><trkpt lat="44.07052" lon="8.0292383"><ele>482.5</ele><time>2026-04-03T13:23:02.92Z</time></trkpt><trkpt lat="44.070495" lon="8.02935"><ele>478.66666666666663</ele><time>2026-04-03T13:23:05.919Z</time></trkpt><trkpt lat="44.0704817" lon="8.02947"><ele>474.8333333333333</ele><time>2026-04-03T13:23:08.919Z</time></trkpt><trkpt lat="44.0704667" lon="8.02958"><ele>471.0</ele><time>2026-04-03T13:23:11.919Z</time></trkpt><trkpt lat="44.0704267" lon="8.0296917"><ele>471.0</ele><time>2026-04-03T13:23:15.919Z</time></trkpt><trkpt lat="44.0703917" lon="8.0298983"><ele>471.0</ele><time>2026-04-03T13:23:17.92Z</time></trkpt><trkpt lat="44.0703933" lon="8.030065"><ele>471.0</ele><time>2026-04-03T13:23:18.92Z</time></trkpt><trkpt lat="44.0703967" lon="8.0302283"><ele>471.0</ele><time>2026-04-03T13:23:19.92Z</time></trkpt><trkpt lat="44.07041" lon="8.0303667"><ele>471.00000000000006</ele><time>2026-04-03T13:23:20.919Z</time></trkpt><trkpt lat="44.0704017" lon="8.0304733"><ele>471.0</ele><time>2026-04-03T13:23:21.919Z</time></trkpt><trkpt lat="44.07036" lon="8.030565"><ele>471.00000000000006</ele><time>2026-04-03T13:23:22.92Z</time></trkpt><trkpt lat="44.070305" lon="8.0306283"><ele>471.00000000000006</ele><time>2026-04-03T13:23:23.919Z</time></trkpt><trkpt lat="44.0702417" lon="8.030675"><ele>471.0</ele><time>2026-04-03T13:23:24.919Z</time></trkpt><trkpt lat="44.0702117" lon="8.030755"><ele>471.00000000000006</ele><time>2026-04-03T13:23:25.919Z</time></trkpt><trkpt lat="44.07019" lon="8.0308517"><ele>471.00000000000006</ele><time>2026-04-03T13:23:26.92Z</time></trkpt><trkpt lat="44.0702033" lon="8.0309517"><ele>471.0</ele><time>2026-04-03T13:23:27.92Z</time></trkpt><trkpt lat="44.0702417" lon="8.0310483"><ele>471.0</ele><time>2026-04-03T13:23:28.919Z</time></trkpt><trkpt lat="44.0703117" lon="8.0311333"><ele>471.0</ele><time>2026-04-03T13:23:29.919Z</time></trkpt><trkpt lat="44.0703833" lon="8.03119"><ele>471.0</ele><time>2026-04-03T13:23:30.92Z</time></trkpt><trkpt lat="44.0704583" lon="8.0311917"><ele>471.0</ele><time>2026-04-03T13:23:31.92Z</time></trkpt><trkpt lat="44.07054" lon="8.031165"><ele>471.0</ele><time>2026-04-03T13:23:32.92Z</time></trkpt><trkpt lat="44.070625" lon="8.031115"><ele>471.0</ele><time>2026-04-03T13:23:33.92Z</time></trkpt><trkpt lat="44.07071" lon="8.0310517"><ele>471.0</ele><time>2026-04-03T13:23:34.919Z</time></trkpt><trkpt lat="44.0707717" lon="8.0309733"><ele>471.0</ele><time>2026-04-03T13:23:35.92Z</time></trkpt><trkpt lat="44.07082" lon="8.0309067"><ele>471.0</ele><time>2026-04-03T13:23:36.919Z</time></trkpt><trkpt lat="44.0708367" lon="8.0310017"><ele>471.0</ele><time>2026-04-03T13:23:40.919Z</time></trkpt><trkpt lat="44.07078" lon="8.0310717"><ele>471.0</ele><time>2026-04-03T13:23:41.92Z</time></trkpt><trkpt lat="44.0707133" lon="8.03114"><ele>471.0</ele><time>2026-04-03T13:23:42.919Z</time></trkpt><trkpt lat="44.0706333" lon="8.0312283"><ele>471.0</ele><time>2026-04-03T13:23:43.92Z</time></trkpt><trkpt lat="44.0705483" lon="8.0313283"><ele>471.0</ele><time>2026-04-03T13:23:44.92Z</time></trkpt><trkpt lat="44.07047" lon="8.031405"><ele>471.0</ele><time>2026-04-03T13:23:45.92Z</time></trkpt><trkpt lat="44.0703967" lon="8.03146"><ele>471.0</ele><time>2026-04-03T13:23:46.92Z</time></trkpt><trkpt lat="44.0703183" lon="8.03147"><ele>471.0</ele><time>2026-04-03T13:23:47.919Z</time></trkpt><trkpt lat="44.0702333" lon="8.0314333"><ele>471.0</ele><time>2026-04-03T13:23:48.92Z</time></trkpt><trkpt lat="44.0701383" lon="8.0314"><ele>471.0</ele><time>2026-04-03T13:23:49.92Z</time></trkpt><trkpt lat="44.070045" lon="8.0314"><ele>471.0</ele><time>2026-04-03T13:23:50.919Z</time></trkpt><trkpt lat="44.0699583" lon="8.0314033"><ele>471.0</ele><time>2026-04-03T13:23:51.92Z</time></trkpt><trkpt lat="44.069885" lon="8.031405"><ele>471.0</ele><time>2026-04-03T13:23:52.92Z</time></trkpt><trkpt lat="44.0698233" lon="8.0313767"><ele>468.1428571428572</ele><time>2026-04-03T13:23:53.919Z</time></trkpt><trkpt lat="44.069755" lon="8.0313583"><ele>465.28571428571433</ele><time>2026-04-03T13:23:54.92Z</time></trkpt><trkpt lat="44.069695" lon="8.0313083"><ele>462.42857142857144</ele><time>2026-04-03T13:23:55.92Z</time></trkpt><trkpt lat="44.0696367" lon="8.03124"><ele>459.5714285714286</ele><time>2026-04-03T13:23:56.92Z</time></trkpt><trkpt lat="44.06958" lon="8.0311667"><ele>456.7142857142858</ele><time>2026-04-03T13:23:57.92Z</time></trkpt><trkpt lat="44.0695233" lon="8.0311"><ele>453.85714285714283</ele><time>2026-04-03T13:23:58.92Z</time></trkpt><trkpt lat="44.0694583" lon="8.0310433"><ele>451.0</ele><time>2026-04-03T13:23:59.919Z</time></trkpt><trkpt lat="44.0694033" lon="8.030995"><ele>451.0</ele><time>2026-04-03T13:24:00.919Z</time></trkpt><trkpt lat="44.0693" lon="8.03093"><ele>451.0</ele><time>2026-04-03T13:24:02.92Z</time></trkpt><trkpt lat="44.06917" lon="8.030935"><ele>451.0</ele><time>2026-04-03T13:24:04.92Z</time></trkpt><trkpt lat="44.0690967" lon="8.0309483"><ele>451.0</ele><time>2026-04-03T13:24:05.919Z</time></trkpt><trkpt lat="44.06902" lon="8.0309767"><ele>451.0</ele><time>2026-04-03T13:24:06.919Z</time></trkpt><trkpt lat="44.0689433" lon="8.0309933"><ele>449.6666666666667</ele><time>2026-04-03T13:24:07.92Z</time></trkpt><trkpt lat="44.0688533" lon="8.0310233"><ele>448.33333333333337</ele><time>2026-04-03T13:24:08.92Z</time></trkpt><trkpt lat="44.0687867" lon="8.0310517"><ele>447.0</ele><time>2026-04-03T13:24:09.919Z</time></trkpt><trkpt lat="44.0687233" lon="8.0310783"><ele>445.66666666666663</ele><time>2026-04-03T13:24:10.919Z</time></trkpt><trkpt lat="44.0686133" lon="8.0311283"><ele>444.3333333333333</ele><time>2026-04-03T13:24:12.92Z</time></trkpt><trkpt lat="44.0685167" lon="8.031165"><ele>443.0</ele><time>2026-04-03T13:24:14.92Z</time></trkpt><trkpt lat="44.06843" lon="8.03111"><ele>442.99999999999994</ele><time>2026-04-03T13:24:16.919Z</time></trkpt><trkpt lat="44.0683433" lon="8.0310333"><ele>443.0</ele><time>2026-04-03T13:24:18.919Z</time></trkpt><trkpt lat="44.06831" lon="8.0309567"><ele>443.0</ele><time>2026-04-03T13:24:20.92Z</time></trkpt><trkpt lat="44.0683883" lon="8.030915"><ele>443.0</ele><time>2026-04-03T13:24:22.919Z</time></trkpt><trkpt lat="44.06846" lon="8.03092"><ele>442.99999999999994</ele><time>2026-04-03T13:24:23.919Z</time></trkpt><trkpt lat="44.068535" lon="8.030915"><ele>443.0</ele><time>2026-04-03T13:24:24.92Z</time></trkpt><trkpt lat="44.0686167" lon="8.0308817"><ele>442.99999999999994</ele><time>2026-04-03T13:24:25.92Z</time></trkpt><trkpt lat="44.0686883" lon="8.030835"><ele>443.0</ele><time>2026-04-03T13:24:26.92Z</time></trkpt><trkpt lat="44.068765" lon="8.0308117"><ele>443.0</ele><time>2026-04-03T13:24:27.919Z</time></trkpt><trkpt lat="44.0688417" lon="8.0307633"><ele>443.0</ele><time>2026-04-03T13:24:28.92Z</time></trkpt><trkpt lat="44.0689133" lon="8.0307117"><ele>442.99999999999994</ele><time>2026-04-03T13:24:29.919Z</time></trkpt><trkpt lat="44.06899" lon="8.0306717"><ele>443.0</ele><time>2026-04-03T13:24:30.92Z</time></trkpt><trkpt lat="44.06905" lon="8.0306133"><ele>443.3333333333333</ele><time>2026-04-03T13:24:31.92Z</time></trkpt><trkpt lat="44.0691" lon="8.030535"><ele>443.66666666666663</ele><time>2026-04-03T13:24:32.92Z</time></trkpt><trkpt lat="44.0691383" lon="8.030455"><ele>444.0</ele><time>2026-04-03T13:24:33.92Z</time></trkpt><trkpt lat="44.0691717" lon="8.0303717"><ele>444.33333333333337</ele><time>2026-04-03T13:24:34.92Z</time></trkpt><trkpt lat="44.0691983" lon="8.0302733"><ele>444.6666666666667</ele><time>2026-04-03T13:24:35.92Z</time></trkpt><trkpt lat="44.0692217" lon="8.0301833"><ele>445.0</ele><time>2026-04-03T13:24:36.92Z</time></trkpt><trkpt lat="44.069235" lon="8.0300133"><ele>444.83333333333337</ele><time>2026-04-03T13:24:38.92Z</time></trkpt><trkpt lat="44.0692" lon="8.02994"><ele>444.6666666666667</ele><time>2026-04-03T13:24:39.919Z</time></trkpt><trkpt lat="44.069155" lon="8.02984"><ele>444.5</ele><time>2026-04-03T13:24:40.92Z</time></trkpt><trkpt lat="44.0691417" lon="8.0297317"><ele>444.33333333333337</ele><time>2026-04-03T13:24:41.919Z</time></trkpt><trkpt lat="44.0691367" lon="8.0296317"><ele>444.1666666666667</ele><time>2026-04-03T13:24:42.92Z</time></trkpt><trkpt lat="44.069135" lon="8.0294933"><ele>444.0</ele><time>2026-04-03T13:24:44.919Z</time></trkpt><trkpt lat="44.0690717" lon="8.0295467"><ele>440.0</ele><time>2026-04-03T13:25:42.92Z</time></trkpt><trkpt lat="44.069065" lon="8.0296433"><ele>436.0</ele><time>2026-04-03T13:25:43.92Z</time></trkpt><trkpt lat="44.06907" lon="8.0297667"><ele>432.0</ele><time>2026-04-03T13:25:44.92Z</time></trkpt><trkpt lat="44.0690783" lon="8.0298967"><ele>428.0</ele><time>2026-04-03T13:25:45.92Z</time></trkpt><trkpt lat="44.06909" lon="8.0300317"><ele>424.0</ele><time>2026-04-03T13:25:46.92Z</time></trkpt><trkpt lat="44.0690933" lon="8.030185"><ele>424.0</ele><time>2026-04-03T13:25:47.92Z</time></trkpt><trkpt lat="44.0690767" lon="8.0303067"><ele>424.0</ele><time>2026-04-03T13:25:48.919Z</time></trkpt><trkpt lat="44.0690183" lon="8.0304267"><ele>424.0</ele><time>2026-04-03T13:25:49.92Z</time></trkpt><trkpt lat="44.0689233" lon="8.03052"><ele>424.0</ele><time>2026-04-03T13:25:50.92Z</time></trkpt><trkpt lat="44.0688233" lon="8.03058"><ele>424.0</ele><time>2026-04-03T13:25:51.92Z</time></trkpt><trkpt lat="44.068715" lon="8.0306417"><ele>424.0</ele><time>2026-04-03T13:25:52.919Z</time></trkpt><trkpt lat="44.0685767" lon="8.030685"><ele>424.0</ele><time>2026-04-03T13:25:53.919Z</time></trkpt><trkpt lat="44.0684283" lon="8.0307383"><ele>424.0</ele><time>2026-04-03T13:25:54.919Z</time></trkpt><trkpt lat="44.0682917" lon="8.0307517"><ele>424.0</ele><time>2026-04-03T13:25:55.92Z</time></trkpt><trkpt lat="44.068155" lon="8.0307417"><ele>423.6</ele><time>2026-04-03T13:25:56.92Z</time></trkpt><trkpt lat="44.0680317" lon="8.0307133"><ele>423.2</ele><time>2026-04-03T13:25:57.92Z</time></trkpt><trkpt lat="44.0679317" lon="8.030685"><ele>422.8</ele><time>2026-04-03T13:25:58.919Z</time></trkpt><trkpt lat="44.06783" lon="8.030645"><ele>422.40000000000003</ele><time>2026-04-03T13:25:59.92Z</time></trkpt><trkpt lat="44.0677417" lon="8.03063"><ele>422.0</ele><time>2026-04-03T13:26:00.92Z</time></trkpt><trkpt lat="44.0676633" lon="8.0306567"><ele>422.0</ele><time>2026-04-03T13:26:01.92Z</time></trkpt><trkpt lat="44.0675867" lon="8.0307133"><ele>422.0</ele><time>2026-04-03T13:26:02.92Z</time></trkpt><trkpt lat="44.0675467" lon="8.0308067"><ele>422.0</ele><time>2026-04-03T13:26:03.92Z</time></trkpt><trkpt lat="44.0675567" lon="8.03092"><ele>422.0</ele><time>2026-04-03T13:26:04.92Z</time></trkpt><trkpt lat="44.0676067" lon="8.031045"><ele>422.0</ele><time>2026-04-03T13:26:05.92Z</time></trkpt><trkpt lat="44.0676933" lon="8.0311283"><ele>425.25</ele><time>2026-04-03T13:26:06.92Z</time></trkpt><trkpt lat="44.0677983" lon="8.0311917"><ele>428.5</ele><time>2026-04-03T13:26:07.919Z</time></trkpt><trkpt lat="44.0679117" lon="8.031255"><ele>431.75</ele><time>2026-04-03T13:26:08.92Z</time></trkpt><trkpt lat="44.0680267" lon="8.0313167"><ele>435.0</ele><time>2026-04-03T13:26:09.919Z</time></trkpt><trkpt lat="44.06814" lon="8.0313833"><ele>435.0</ele><time>2026-04-03T13:26:10.92Z</time></trkpt><trkpt lat="44.06825" lon="8.0314267"><ele>435.0</ele><time>2026-04-03T13:26:11.919Z</time></trkpt><trkpt lat="44.0683583" lon="8.0314767"><ele>435.0</ele><time>2026-04-03T13:26:12.92Z</time></trkpt><trkpt lat="44.06846" lon="8.0314967"><ele>435.0</ele><time>2026-04-03T13:26:13.92Z</time></trkpt><trkpt lat="44.0685667" lon="8.031475"><ele>435.0</ele><time>2026-04-03T13:26:14.92Z</time></trkpt><trkpt lat="44.06867" lon="8.0314233"><ele>437.0</ele><time>2026-04-03T13:26:15.92Z</time></trkpt><trkpt lat="44.0687783" lon="8.0313767"><ele>439.0</ele><time>2026-04-03T13:26:16.919Z</time></trkpt><trkpt lat="44.0688967" lon="8.0313633"><ele>441.0</ele><time>2026-04-03T13:26:17.919Z</time></trkpt><trkpt lat="44.0690283" lon="8.0313633"><ele>443.0</ele><time>2026-04-03T13:26:18.92Z</time></trkpt><trkpt lat="44.0691617" lon="8.0313767"><ele>442.0</ele><time>2026-04-03T13:26:19.919Z</time></trkpt><trkpt lat="44.06927" lon="8.0314267"><ele>441.0</ele><time>2026-04-03T13:26:20.92Z</time></trkpt><trkpt lat="44.0693583" lon="8.0315217"><ele>440.0</ele><time>2026-04-03T13:26:21.92Z</time></trkpt><trkpt lat="44.0694317" lon="8.0316533"><ele>439.0</ele><time>2026-04-03T13:26:22.919Z</time></trkpt><trkpt lat="44.06949" lon="8.0317983"><ele>439.0</ele><time>2026-04-03T13:26:23.919Z</time></trkpt><trkpt lat="44.0695467" lon="8.0319467"><ele>439.0</ele><time>2026-04-03T13:26:24.919Z</time></trkpt><trkpt lat="44.069625" lon="8.0320683"><ele>439.0</ele><time>2026-04-03T13:26:25.92Z</time></trkpt><trkpt lat="44.069725" lon="8.032135"><ele>439.0</ele><time>2026-04-03T13:26:26.92Z</time></trkpt><trkpt lat="44.0698433" lon="8.0321417"><ele>442.5</ele><time>2026-04-03T13:26:27.92Z</time></trkpt><trkpt lat="44.0699733" lon="8.0321067"><ele>446.0</ele><time>2026-04-03T13:26:28.919Z</time></trkpt><trkpt lat="44.0701" lon="8.03207"><ele>449.5</ele><time>2026-04-03T13:26:29.92Z</time></trkpt><trkpt lat="44.0702267" lon="8.0320567"><ele>453.0</ele><time>2026-04-03T13:26:30.92Z</time></trkpt><trkpt lat="44.070355" lon="8.032035"><ele>453.0</ele><time>2026-04-03T13:26:31.919Z</time></trkpt><trkpt lat="44.0704783" lon="8.0319983"><ele>453.0</ele><time>2026-04-03T13:26:32.92Z</time></trkpt><trkpt lat="44.070605" lon="8.0319317"><ele>453.0</ele><time>2026-04-03T13:26:33.92Z</time></trkpt><trkpt lat="44.070725" lon="8.03183"><ele>453.0</ele><time>2026-04-03T13:26:34.92Z</time></trkpt><trkpt lat="44.0708317" lon="8.0317117"><ele>459.5</ele><time>2026-04-03T13:26:35.92Z</time></trkpt><trkpt lat="44.0709433" lon="8.03158"><ele>466.0</ele><time>2026-04-03T13:26:36.92Z</time></trkpt><trkpt lat="44.0710517" lon="8.031485"><ele>472.5</ele><time>2026-04-03T13:26:37.919Z</time></trkpt><trkpt lat="44.0711717" lon="8.03142"><ele>479.0</ele><time>2026-04-03T13:26:38.92Z</time></trkpt><trkpt lat="44.0712967" lon="8.0314067"><ele>479.0</ele><time>2026-04-03T13:26:39.92Z</time></trkpt><trkpt lat="44.071415" lon="8.0314283"><ele>479.0</ele><time>2026-04-03T13:26:40.92Z</time></trkpt><trkpt lat="44.07154" lon="8.0314717"><ele>479.0</ele><time>2026-04-03T13:26:41.919Z</time></trkpt><trkpt lat="44.0716617" lon="8.03153"><ele>479.0</ele><time>2026-04-03T13:26:42.92Z</time></trkpt><trkpt lat="44.0717567" lon="8.0315933"><ele>472.6</ele><time>2026-04-03T13:26:43.92Z</time></trkpt><trkpt lat="44.07182" lon="8.0316867"><ele>466.2</ele><time>2026-04-03T13:26:44.92Z</time></trkpt><trkpt lat="44.0718567" lon="8.03182"><ele>459.80000000000007</ele><time>2026-04-03T13:26:45.92Z</time></trkpt><trkpt lat="44.0718867" lon="8.0319733"><ele>453.40000000000003</ele><time>2026-04-03T13:26:46.919Z</time></trkpt><trkpt lat="44.07193" lon="8.03213"><ele>447.0</ele><time>2026-04-03T13:26:47.92Z</time></trkpt><trkpt lat="44.0720167" lon="8.0322367"><ele>447.0</ele><time>2026-04-03T13:26:48.92Z</time></trkpt><trkpt lat="44.0721233" lon="8.0322983"><ele>447.0</ele><time>2026-04-03T13:26:49.92Z</time></trkpt><trkpt lat="44.0722367" lon="8.0323583"><ele>447.0</ele><time>2026-04-03T13:26:50.919Z</time></trkpt><trkpt lat="44.0723267" lon="8.0324367"><ele>447.0</ele><time>2026-04-03T13:26:51.92Z</time></trkpt><trkpt lat="44.0724067" lon="8.0325633"><ele>449.5</ele><time>2026-04-03T13:26:52.92Z</time></trkpt><trkpt lat="44.07246" lon="8.0327133"><ele>452.0</ele><time>2026-04-03T13:26:53.92Z</time></trkpt><trkpt lat="44.0725" lon="8.032865"><ele>454.5</ele><time>2026-04-03T13:26:54.92Z</time></trkpt><trkpt lat="44.072555" lon="8.033025"><ele>457.0</ele><time>2026-04-03T13:26:55.919Z</time></trkpt><trkpt lat="44.0726517" lon="8.03317"><ele>457.0</ele><time>2026-04-03T13:26:56.92Z</time></trkpt><trkpt lat="44.07277" lon="8.0332783"><ele>457.0</ele><time>2026-04-03T13:26:57.92Z</time></trkpt><trkpt lat="44.072905" lon="8.0333783"><ele>457.0</ele><time>2026-04-03T13:26:58.919Z</time></trkpt><trkpt lat="44.073035" lon="8.033475"><ele>457.0</ele><time>2026-04-03T13:26:59.919Z</time></trkpt><trkpt lat="44.0731567" lon="8.0335767"><ele>458.5</ele><time>2026-04-03T13:27:00.919Z</time></trkpt><trkpt lat="44.0732683" lon="8.0337"><ele>460.0</ele><time>2026-04-03T13:27:01.92Z</time></trkpt><trkpt lat="44.0733683" lon="8.0338417"><ele>461.5</ele><time>2026-04-03T13:27:02.92Z</time></trkpt><trkpt lat="44.0734417" lon="8.0340217"><ele>463.0</ele><time>2026-04-03T13:27:03.919Z</time></trkpt><trkpt lat="44.0734967" lon="8.0342217"><ele>456.75</ele><time>2026-04-03T13:27:04.92Z</time></trkpt><trkpt lat="44.073545" lon="8.03439"><ele>450.5</ele><time>2026-04-03T13:27:05.92Z</time></trkpt><trkpt lat="44.0735983" lon="8.03455"><ele>444.25</ele><time>2026-04-03T13:27:06.92Z</time></trkpt><trkpt lat="44.0736583" lon="8.034685"><ele>438.0</ele><time>2026-04-03T13:27:07.919Z</time></trkpt><trkpt lat="44.0737483" lon="8.0347767"><ele>438.0</ele><time>2026-04-03T13:27:08.92Z</time></trkpt><trkpt lat="44.0738583" lon="8.0348483"><ele>438.0</ele><time>2026-04-03T13:27:09.92Z</time></trkpt><trkpt lat="44.0739833" lon="8.034885"><ele>438.0</ele><time>2026-04-03T13:27:10.92Z</time></trkpt><trkpt lat="44.0741167" lon="8.0349233"><ele>438.0</ele><time>2026-04-03T13:27:11.92Z</time></trkpt><trkpt lat="44.07425" lon="8.0349683"><ele>439.5</ele><time>2026-04-03T13:27:12.92Z</time></trkpt><trkpt lat="44.0743933" lon="8.0350017"><ele>441.0</ele><time>2026-04-03T13:27:13.92Z</time></trkpt><trkpt lat="44.0745333" lon="8.0349967"><ele>442.5</ele><time>2026-04-03T13:27:14.92Z</time></trkpt><trkpt lat="44.0746883" lon="8.0349767"><ele>444.0</ele><time>2026-04-03T13:27:15.919Z</time></trkpt><trkpt lat="44.0748417" lon="8.0349267"><ele>451.0</ele><time>2026-04-03T13:27:16.92Z</time></trkpt><trkpt lat="44.0749833" lon="8.034895"><ele>458.0</ele><time>2026-04-03T13:27:17.919Z</time></trkpt><trkpt lat="44.0751183" lon="8.0348783"><ele>465.0</ele><time>2026-04-03T13:27:18.92Z</time></trkpt><trkpt lat="44.0752417" lon="8.034845"><ele>472.0</ele><time>2026-04-03T13:27:19.919Z</time></trkpt><trkpt lat="44.075345" lon="8.0347783"><ele>472.0</ele><time>2026-04-03T13:27:20.919Z</time></trkpt><trkpt lat="44.0754583" lon="8.034705"><ele>472.0</ele><time>2026-04-03T13:27:21.92Z</time></trkpt><trkpt lat="44.0755967" lon="8.03463"><ele>472.0</ele><time>2026-04-03T13:27:22.92Z</time></trkpt><trkpt lat="44.0757433" lon="8.0345783"><ele>472.0</ele><time>2026-04-03T13:27:23.919Z</time></trkpt><trkpt lat="44.07589" lon="8.0345667"><ele>475.0</ele><time>2026-04-03T13:27:24.919Z</time></trkpt><trkpt lat="44.0760383" lon="8.034585"><ele>478.0</ele><time>2026-04-03T13:27:25.92Z</time></trkpt><trkpt lat="44.07618" lon="8.034615"><ele>481.0</ele><time>2026-04-03T13:27:26.92Z</time></trkpt><trkpt lat="44.076335" lon="8.03465"><ele>484.0</ele><time>2026-04-03T13:27:27.92Z</time></trkpt><trkpt lat="44.0764967" lon="8.03469"><ele>485.0</ele><time>2026-04-03T13:27:28.919Z</time></trkpt><trkpt lat="44.076645" lon="8.03471"><ele>486.0</ele><time>2026-04-03T13:27:29.92Z</time></trkpt><trkpt lat="44.07678" lon="8.0347433"><ele>487.0</ele><time>2026-04-03T13:27:30.92Z</time></trkpt><trkpt lat="44.0769167" lon="8.03474"><ele>488.0</ele><time>2026-04-03T13:27:31.92Z</time></trkpt><trkpt lat="44.0770483" lon="8.0347383"><ele>488.0</ele><time>2026-04-03T13:27:32.92Z</time></trkpt><trkpt lat="44.077185" lon="8.0347183"><ele>488.0</ele><time>2026-04-03T13:27:33.92Z</time></trkpt><trkpt lat="44.077315" lon="8.034675"><ele>488.0</ele><time>2026-04-03T13:27:34.919Z</time></trkpt><trkpt lat="44.0774317" lon="8.0346083"><ele>488.0</ele><time>2026-04-03T13:27:35.92Z</time></trkpt><trkpt lat="44.0775517" lon="8.0345233"><ele>492.75</ele><time>2026-04-03T13:27:36.919Z</time></trkpt><trkpt lat="44.077635" lon="8.0343983"><ele>497.5</ele><time>2026-04-03T13:27:37.92Z</time></trkpt><trkpt lat="44.0777083" lon="8.034255"><ele>502.25</ele><time>2026-04-03T13:27:38.92Z</time></trkpt><trkpt lat="44.0777767" lon="8.0340867"><ele>507.0</ele><time>2026-04-03T13:27:39.92Z</time></trkpt><trkpt lat="44.077835" lon="8.0339467"><ele>507.0</ele><time>2026-04-03T13:27:40.919Z</time></trkpt><trkpt lat="44.0779117" lon="8.0338283"><ele>507.00000000000006</ele><time>2026-04-03T13:27:41.92Z</time></trkpt><trkpt lat="44.0779917" lon="8.03376"><ele>507.00000000000006</ele><time>2026-04-03T13:27:42.92Z</time></trkpt><trkpt lat="44.0780833" lon="8.033725"><ele>507.0</ele><time>2026-04-03T13:27:43.919Z</time></trkpt><trkpt lat="44.0781733" lon="8.0337317"><ele>507.0</ele><time>2026-04-03T13:27:44.92Z</time></trkpt><trkpt lat="44.0782617" lon="8.0338083"><ele>501.0</ele><time>2026-04-03T13:27:45.92Z</time></trkpt><trkpt lat="44.0783533" lon="8.0339267"><ele>495.0</ele><time>2026-04-03T13:27:46.92Z</time></trkpt><trkpt lat="44.0784433" lon="8.03406"><ele>489.0</ele><time>2026-04-03T13:27:47.92Z</time></trkpt><trkpt lat="44.0785417" lon="8.0341967"><ele>483.0</ele><time>2026-04-03T13:27:48.919Z</time></trkpt><trkpt lat="44.0786383" lon="8.0343"><ele>479.0</ele><time>2026-04-03T13:27:49.92Z</time></trkpt><trkpt lat="44.0787467" lon="8.03436"><ele>474.99999999999994</ele><time>2026-04-03T13:27:50.92Z</time></trkpt><trkpt lat="44.0788467" lon="8.034365"><ele>470.99999999999994</ele><time>2026-04-03T13:27:51.919Z</time></trkpt><trkpt lat="44.0789583" lon="8.0343467"><ele>467.0</ele><time>2026-04-03T13:27:52.919Z</time></trkpt><trkpt lat="44.07907" lon="8.0343367"><ele>463.0</ele><time>2026-04-03T13:27:53.92Z</time></trkpt><trkpt lat="44.0791633" lon="8.0343533"><ele>463.0</ele><time>2026-04-03T13:27:54.919Z</time></trkpt><trkpt lat="44.079245" lon="8.0344233"><ele>462.99999999999994</ele><time>2026-04-03T13:27:55.92Z</time></trkpt><trkpt lat="44.0793133" lon="8.034535"><ele>462.99999999999994</ele><time>2026-04-03T13:27:56.919Z</time></trkpt><trkpt lat="44.079385" lon="8.0346483"><ele>463.0</ele><time>2026-04-03T13:27:57.92Z</time></trkpt><trkpt lat="44.0794717" lon="8.0347317"><ele>463.0</ele><time>2026-04-03T13:27:58.92Z</time></trkpt><trkpt lat="44.0795817" lon="8.034785"><ele>463.0</ele><time>2026-04-03T13:27:59.92Z</time></trkpt><trkpt lat="44.07971" lon="8.0347967"><ele>463.0</ele><time>2026-04-03T13:28:00.92Z</time></trkpt><trkpt lat="44.0798467" lon="8.0348217"><ele>463.0</ele><time>2026-04-03T13:28:01.919Z</time></trkpt><trkpt lat="44.07997" lon="8.0348717"><ele>463.0</ele><time>2026-04-03T13:28:02.92Z</time></trkpt><trkpt lat="44.0801" lon="8.0349533"><ele>456.6666666666667</ele><time>2026-04-03T13:28:03.919Z</time></trkpt><trkpt lat="44.08023" lon="8.0350417"><ele>450.33333333333337</ele><time>2026-04-03T13:28:04.919Z</time></trkpt><trkpt lat="44.0803683" lon="8.0351383"><ele>444.0</ele><time>2026-04-03T13:28:05.919Z</time></trkpt><trkpt lat="44.0805033" lon="8.03523"><ele>444.0</ele><time>2026-04-03T13:28:06.92Z</time></trkpt><trkpt lat="44.0806383" lon="8.0353267"><ele>444.0</ele><time>2026-04-03T13:28:07.919Z</time></trkpt><trkpt lat="44.08077" lon="8.0354267"><ele>444.0</ele><time>2026-04-03T13:28:08.919Z</time></trkpt><trkpt lat="44.08091" lon="8.0354917"><ele>444.0</ele><time>2026-04-03T13:28:09.92Z</time></trkpt><trkpt lat="44.0810333" lon="8.0355917"><ele>447.25</ele><time>2026-04-03T13:28:10.919Z</time></trkpt><trkpt lat="44.0811567" lon="8.035675"><ele>450.5</ele><time>2026-04-03T13:28:11.92Z</time></trkpt><trkpt lat="44.08128" lon="8.035745"><ele>453.75</ele><time>2026-04-03T13:28:12.919Z</time></trkpt><trkpt lat="44.081405" lon="8.035765"><ele>457.0</ele><time>2026-04-03T13:28:13.92Z</time></trkpt><trkpt lat="44.08154" lon="8.0357467"><ele>459.25</ele><time>2026-04-03T13:28:14.92Z</time></trkpt><trkpt lat="44.0816767" lon="8.0356833"><ele>461.5</ele><time>2026-04-03T13:28:15.919Z</time></trkpt><trkpt lat="44.081805" lon="8.0356067"><ele>463.75</ele><time>2026-04-03T13:28:16.92Z</time></trkpt><trkpt lat="44.081935" lon="8.0355317"><ele>466.0</ele><time>2026-04-03T13:28:17.92Z</time></trkpt><trkpt lat="44.0820733" lon="8.035485"><ele>466.0</ele><time>2026-04-03T13:28:18.919Z</time></trkpt><trkpt lat="44.082205" lon="8.03546"><ele>466.0</ele><time>2026-04-03T13:28:19.919Z</time></trkpt><trkpt lat="44.08234" lon="8.035455"><ele>466.0</ele><time>2026-04-03T13:28:20.92Z</time></trkpt><trkpt lat="44.0824733" lon="8.0354667"><ele>466.0</ele><time>2026-04-03T13:28:21.92Z</time></trkpt><trkpt lat="44.0826017" lon="8.03547"><ele>466.8</ele><time>2026-04-03T13:28:22.919Z</time></trkpt><trkpt lat="44.08272" lon="8.0354783"><ele>467.6</ele><time>2026-04-03T13:28:23.92Z</time></trkpt><trkpt lat="44.0828367" lon="8.03549"><ele>468.4</ele><time>2026-04-03T13:28:24.92Z</time></trkpt><trkpt lat="44.0829317" lon="8.03551"><ele>469.2</ele><time>2026-04-03T13:28:25.919Z</time></trkpt><trkpt lat="44.0830083" lon="8.03555"><ele>470.0</ele><time>2026-04-03T13:28:26.92Z</time></trkpt><trkpt lat="44.0830667" lon="8.03561"><ele>470.0</ele><time>2026-04-03T13:28:27.919Z</time></trkpt><trkpt lat="44.0830983" lon="8.0356883"><ele>470.0</ele><time>2026-04-03T13:28:28.92Z</time></trkpt><trkpt lat="44.0830833" lon="8.0358117"><ele>470.0</ele><time>2026-04-03T13:28:29.919Z</time></trkpt><trkpt lat="44.0830417" lon="8.0359417"><ele>470.0</ele><time>2026-04-03T13:28:30.92Z</time></trkpt><trkpt lat="44.08296" lon="8.03607"><ele>470.0</ele><time>2026-04-03T13:28:31.92Z</time></trkpt><trkpt lat="44.08283" lon="8.03622"><ele>459.66666666666663</ele><time>2026-04-03T13:28:32.919Z</time></trkpt><trkpt lat="44.08274" lon="8.0363767"><ele>449.33333333333337</ele><time>2026-04-03T13:28:33.919Z</time></trkpt><trkpt lat="44.082635" lon="8.0365717"><ele>439.0</ele><time>2026-04-03T13:28:34.918Z</time></trkpt><trkpt lat="44.0825633" lon="8.0367517"><ele>438.75</ele><time>2026-04-03T13:28:35.918Z</time></trkpt><trkpt lat="44.0825" lon="8.0369367"><ele>438.5</ele><time>2026-04-03T13:28:36.918Z</time></trkpt><trkpt lat="44.0824417" lon="8.03712"><ele>438.25</ele><time>2026-04-03T13:28:37.919Z</time></trkpt><trkpt lat="44.0824167" lon="8.03728"><ele>438.0</ele><time>2026-04-03T13:28:38.919Z</time></trkpt><trkpt lat="44.0824133" lon="8.037435"><ele>438.0</ele><time>2026-04-03T13:28:39.919Z</time></trkpt><trkpt lat="44.0824517" lon="8.0376017"><ele>438.0</ele><time>2026-04-03T13:28:40.918Z</time></trkpt><trkpt lat="44.0825383" lon="8.0377433"><ele>438.0</ele><time>2026-04-03T13:28:41.919Z</time></trkpt><trkpt lat="44.0826483" lon="8.0378767"><ele>438.0</ele><time>2026-04-03T13:28:42.919Z</time></trkpt><trkpt lat="44.08275" lon="8.0380083"><ele>438.0</ele><time>2026-04-03T13:28:43.919Z</time></trkpt><trkpt lat="44.0828367" lon="8.0381567"><ele>438.0</ele><time>2026-04-03T13:28:44.919Z</time></trkpt><trkpt lat="44.0829067" lon="8.0383267"><ele>438.0</ele><time>2026-04-03T13:28:45.918Z</time></trkpt><trkpt lat="44.0829633" lon="8.0385083"><ele>438.0</ele><time>2026-04-03T13:28:46.919Z</time></trkpt><trkpt lat="44.0830083" lon="8.0387217"><ele>438.33333333333337</ele><time>2026-04-03T13:28:47.919Z</time></trkpt><trkpt lat="44.0830433" lon="8.0389433"><ele>438.6666666666667</ele><time>2026-04-03T13:28:48.918Z</time></trkpt><trkpt lat="44.08308" lon="8.0391683"><ele>439.0</ele><time>2026-04-03T13:28:49.919Z</time></trkpt><trkpt lat="44.0831133" lon="8.03938"><ele>439.00000000000006</ele><time>2026-04-03T13:28:50.919Z</time></trkpt><trkpt lat="44.0831033" lon="8.03954"><ele>439.0</ele><time>2026-04-03T13:28:51.919Z</time></trkpt><trkpt lat="44.0830833" lon="8.03966"><ele>439.0</ele><time>2026-04-03T13:28:52.919Z</time></trkpt><trkpt lat="44.0830317" lon="8.0397417"><ele>439.0</ele><time>2026-04-03T13:28:53.919Z</time></trkpt><trkpt lat="44.0829767" lon="8.0398017"><ele>439.00000000000006</ele><time>2026-04-03T13:28:54.919Z</time></trkpt><trkpt lat="44.0829017" lon="8.03981"><ele>439.0</ele><time>2026-04-03T13:28:55.919Z</time></trkpt><trkpt lat="44.0827983" lon="8.039765"><ele>439.0</ele><time>2026-04-03T13:28:56.919Z</time></trkpt><trkpt lat="44.0826567" lon="8.0396867"><ele>439.0</ele><time>2026-04-03T13:28:57.919Z</time></trkpt><trkpt lat="44.0824883" lon="8.0395933"><ele>439.0</ele><time>2026-04-03T13:28:58.919Z</time></trkpt><trkpt lat="44.0823233" lon="8.039515"><ele>440.6666666666667</ele><time>2026-04-03T13:28:59.919Z</time></trkpt><trkpt lat="44.0821533" lon="8.039435"><ele>442.33333333333337</ele><time>2026-04-03T13:29:00.919Z</time></trkpt><trkpt lat="44.0820117" lon="8.0393483"><ele>444.0</ele><time>2026-04-03T13:29:01.919Z</time></trkpt><trkpt lat="44.081895" lon="8.039235"><ele>444.0</ele><time>2026-04-03T13:29:02.918Z</time></trkpt><trkpt lat="44.0817917" lon="8.0391433"><ele>444.0</ele><time>2026-04-03T13:29:03.919Z</time></trkpt><trkpt lat="44.0816817" lon="8.0390833"><ele>444.0</ele><time>2026-04-03T13:29:04.918Z</time></trkpt><trkpt lat="44.0815667" lon="8.0390667"><ele>444.0</ele><time>2026-04-03T13:29:05.919Z</time></trkpt><trkpt lat="44.081445" lon="8.0390783"><ele>441.75</ele><time>2026-04-03T13:29:06.919Z</time></trkpt><trkpt lat="44.0813117" lon="8.0391133"><ele>439.5</ele><time>2026-04-03T13:29:07.918Z</time></trkpt><trkpt lat="44.081175" lon="8.0391617"><ele>437.25</ele><time>2026-04-03T13:29:08.918Z</time></trkpt><trkpt lat="44.08104" lon="8.0392317"><ele>435.0</ele><time>2026-04-03T13:29:09.919Z</time></trkpt><trkpt lat="44.080925" lon="8.0393417"><ele>435.0</ele><time>2026-04-03T13:29:10.919Z</time></trkpt><trkpt lat="44.08084" lon="8.0395033"><ele>435.0</ele><time>2026-04-03T13:29:11.919Z</time></trkpt><trkpt lat="44.0807983" lon="8.0396983"><ele>435.0</ele><time>2026-04-03T13:29:12.919Z</time></trkpt><trkpt lat="44.08079" lon="8.0398967"><ele>435.0</ele><time>2026-04-03T13:29:13.919Z</time></trkpt><trkpt lat="44.0807783" lon="8.0401233"><ele>439.66666666666663</ele><time>2026-04-03T13:29:14.919Z</time></trkpt><trkpt lat="44.0807683" lon="8.040335"><ele>444.3333333333333</ele><time>2026-04-03T13:29:15.918Z</time></trkpt><trkpt lat="44.080755" lon="8.0405583"><ele>449.0</ele><time>2026-04-03T13:29:16.919Z</time></trkpt><trkpt lat="44.08074" lon="8.040785"><ele>449.66666666666663</ele><time>2026-04-03T13:29:17.919Z</time></trkpt><trkpt lat="44.080755" lon="8.04102"><ele>450.33333333333337</ele><time>2026-04-03T13:29:18.919Z</time></trkpt><trkpt lat="44.0807867" lon="8.041255"><ele>451.0</ele><time>2026-04-03T13:29:19.919Z</time></trkpt><trkpt lat="44.0808383" lon="8.0414867"><ele>450.0</ele><time>2026-04-03T13:29:20.919Z</time></trkpt><trkpt lat="44.08091" lon="8.041705"><ele>449.0</ele><time>2026-04-03T13:29:21.919Z</time></trkpt><trkpt lat="44.08098" lon="8.0419017"><ele>448.0</ele><time>2026-04-03T13:29:22.919Z</time></trkpt><trkpt lat="44.0810167" lon="8.0420917"><ele>448.0</ele><time>2026-04-03T13:29:23.919Z</time></trkpt><trkpt lat="44.081035" lon="8.0422783"><ele>448.0</ele><time>2026-04-03T13:29:24.918Z</time></trkpt><trkpt lat="44.0810183" lon="8.0424367"><ele>448.0</ele><time>2026-04-03T13:29:25.918Z</time></trkpt><trkpt lat="44.08097" lon="8.0425683"><ele>448.0</ele><time>2026-04-03T13:29:26.919Z</time></trkpt><trkpt lat="44.0808867" lon="8.0426667"><ele>448.0</ele><time>2026-04-03T13:29:27.919Z</time></trkpt><trkpt lat="44.0807833" lon="8.0427383"><ele>448.0</ele><time>2026-04-03T13:29:28.918Z</time></trkpt><trkpt lat="44.08066" lon="8.042765"><ele>448.0</ele><time>2026-04-03T13:29:29.919Z</time></trkpt><trkpt lat="44.08053" lon="8.0427483"><ele>448.0</ele><time>2026-04-03T13:29:30.919Z</time></trkpt><trkpt lat="44.0803767" lon="8.04269"><ele>448.0</ele><time>2026-04-03T13:29:31.919Z</time></trkpt><trkpt lat="44.0802233" lon="8.0426183"><ele>448.0</ele><time>2026-04-03T13:29:32.918Z</time></trkpt><trkpt lat="44.0800583" lon="8.0425283"><ele>448.0</ele><time>2026-04-03T13:29:33.919Z</time></trkpt><trkpt lat="44.0798883" lon="8.04244"><ele>441.0</ele><time>2026-04-03T13:29:34.919Z</time></trkpt><trkpt lat="44.079715" lon="8.0423667"><ele>434.0</ele><time>2026-04-03T13:29:35.918Z</time></trkpt><trkpt lat="44.0795517" lon="8.0423133"><ele>427.0</ele><time>2026-04-03T13:29:36.918Z</time></trkpt><trkpt lat="44.079395" lon="8.0422567"><ele>427.0</ele><time>2026-04-03T13:29:37.919Z</time></trkpt><trkpt lat="44.0792533" lon="8.0422033"><ele>427.0</ele><time>2026-04-03T13:29:38.919Z</time></trkpt><trkpt lat="44.0791283" lon="8.04216"><ele>427.0</ele><time>2026-04-03T13:29:39.918Z</time></trkpt><trkpt lat="44.07902" lon="8.0421817"><ele>427.0</ele><time>2026-04-03T13:29:40.919Z</time></trkpt><trkpt lat="44.07893" lon="8.0422233"><ele>426.0</ele><time>2026-04-03T13:29:41.919Z</time></trkpt><trkpt lat="44.07887" lon="8.0423333"><ele>425.0</ele><time>2026-04-03T13:29:42.919Z</time></trkpt><trkpt lat="44.078825" lon="8.0424867"><ele>424.0</ele><time>2026-04-03T13:29:43.919Z</time></trkpt><trkpt lat="44.0787883" lon="8.0426483"><ele>423.0</ele><time>2026-04-03T13:29:44.918Z</time></trkpt><trkpt lat="44.0787483" lon="8.0428183"><ele>423.0</ele><time>2026-04-03T13:29:45.919Z</time></trkpt><trkpt lat="44.0787117" lon="8.0429867"><ele>423.0</ele><time>2026-04-03T13:29:46.919Z</time></trkpt><trkpt lat="44.0786683" lon="8.04315"><ele>423.0</ele><time>2026-04-03T13:29:47.919Z</time></trkpt><trkpt lat="44.0786383" lon="8.04333"><ele>423.0</ele><time>2026-04-03T13:29:48.919Z</time></trkpt><trkpt lat="44.0786033" lon="8.043515"><ele>422.0</ele><time>2026-04-03T13:29:49.919Z</time></trkpt><trkpt lat="44.0785667" lon="8.0436733"><ele>421.0</ele><time>2026-04-03T13:29:50.919Z</time></trkpt><trkpt lat="44.07851" lon="8.0438083"><ele>420.0</ele><time>2026-04-03T13:29:51.919Z</time></trkpt><trkpt lat="44.0784383" lon="8.0438967"><ele>419.0</ele><time>2026-04-03T13:29:52.919Z</time></trkpt><trkpt lat="44.078355" lon="8.0439483"><ele>418.0</ele><time>2026-04-03T13:29:53.919Z</time></trkpt><trkpt lat="44.0782467" lon="8.0439767"><ele>418.0</ele><time>2026-04-03T13:29:54.919Z</time></trkpt><trkpt lat="44.0781383" lon="8.044"><ele>418.0</ele><time>2026-04-03T13:29:55.919Z</time></trkpt><trkpt lat="44.07802" lon="8.0440083"><ele>418.0</ele><time>2026-04-03T13:29:56.919Z</time></trkpt><trkpt lat="44.0778967" lon="8.0440333"><ele>418.0</ele><time>2026-04-03T13:29:57.919Z</time></trkpt><trkpt lat="44.07778" lon="8.0440567"><ele>418.0</ele><time>2026-04-03T13:29:58.919Z</time></trkpt><trkpt lat="44.07766" lon="8.0440783"><ele>418.0</ele><time>2026-04-03T13:29:59.918Z</time></trkpt><trkpt lat="44.077545" lon="8.04409"><ele>418.0</ele><time>2026-04-03T13:30:00.918Z</time></trkpt><trkpt lat="44.077425" lon="8.044115"><ele>418.0</ele><time>2026-04-03T13:30:01.919Z</time></trkpt><trkpt lat="44.0773033" lon="8.0441317"><ele>415.5</ele><time>2026-04-03T13:30:02.919Z</time></trkpt><trkpt lat="44.0771633" lon="8.044135"><ele>413.0</ele><time>2026-04-03T13:30:03.918Z</time></trkpt><trkpt lat="44.0770267" lon="8.04413"><ele>410.5</ele><time>2026-04-03T13:30:04.919Z</time></trkpt><trkpt lat="44.0768983" lon="8.0441183"><ele>408.0</ele><time>2026-04-03T13:30:05.918Z</time></trkpt><trkpt lat="44.0767683" lon="8.0441183"><ele>412.5</ele><time>2026-04-03T13:30:06.918Z</time></trkpt><trkpt lat="44.076645" lon="8.0441517"><ele>417.0</ele><time>2026-04-03T13:30:07.919Z</time></trkpt><trkpt lat="44.0765367" lon="8.0442117"><ele>421.5</ele><time>2026-04-03T13:30:08.919Z</time></trkpt><trkpt lat="44.0764317" lon="8.044315"><ele>426.0</ele><time>2026-04-03T13:30:09.918Z</time></trkpt><trkpt lat="44.0763283" lon="8.0444083"><ele>426.0</ele><time>2026-04-03T13:30:10.918Z</time></trkpt><trkpt lat="44.07622" lon="8.04449"><ele>426.0</ele><time>2026-04-03T13:30:11.919Z</time></trkpt><trkpt lat="44.0761017" lon="8.0445433"><ele>426.0</ele><time>2026-04-03T13:30:12.919Z</time></trkpt><trkpt lat="44.0759667" lon="8.0445617"><ele>426.0</ele><time>2026-04-03T13:30:13.919Z</time></trkpt><trkpt lat="44.0758267" lon="8.044525"><ele>426.33333333333337</ele><time>2026-04-03T13:30:14.918Z</time></trkpt><trkpt lat="44.0756767" lon="8.04448"><ele>426.6666666666667</ele><time>2026-04-03T13:30:15.918Z</time></trkpt><trkpt lat="44.0755283" lon="8.044405"><ele>427.0</ele><time>2026-04-03T13:30:16.919Z</time></trkpt><trkpt lat="44.0753717" lon="8.0443233"><ele>427.0</ele><time>2026-04-03T13:30:17.919Z</time></trkpt><trkpt lat="44.0752233" lon="8.0442533"><ele>427.0</ele><time>2026-04-03T13:30:18.918Z</time></trkpt><trkpt lat="44.07507" lon="8.0442133"><ele>427.0</ele><time>2026-04-03T13:30:19.918Z</time></trkpt><trkpt lat="44.0749167" lon="8.0441933"><ele>423.0</ele><time>2026-04-03T13:30:20.919Z</time></trkpt><trkpt lat="44.0747667" lon="8.0442"><ele>419.0</ele><time>2026-04-03T13:30:21.919Z</time></trkpt><trkpt lat="44.0746" lon="8.04425"><ele>415.0</ele><time>2026-04-03T13:30:22.919Z</time></trkpt><trkpt lat="44.0744517" lon="8.0443133"><ele>415.0</ele><time>2026-04-03T13:30:23.919Z</time></trkpt><trkpt lat="44.0743133" lon="8.0443967"><ele>415.0</ele><time>2026-04-03T13:30:24.919Z</time></trkpt><trkpt lat="44.0741683" lon="8.0444967"><ele>415.0</ele><time>2026-04-03T13:30:25.919Z</time></trkpt><trkpt lat="44.074025" lon="8.0445933"><ele>415.25</ele><time>2026-04-03T13:30:26.919Z</time></trkpt><trkpt lat="44.073885" lon="8.0446817"><ele>415.5</ele><time>2026-04-03T13:30:27.919Z</time></trkpt><trkpt lat="44.0737533" lon="8.0447917"><ele>415.75</ele><time>2026-04-03T13:30:28.918Z</time></trkpt><trkpt lat="44.0736417" lon="8.0449067"><ele>416.0</ele><time>2026-04-03T13:30:29.918Z</time></trkpt><trkpt lat="44.0735433" lon="8.0450417"><ele>416.0</ele><time>2026-04-03T13:30:30.919Z</time></trkpt><trkpt lat="44.0734567" lon="8.045175"><ele>416.0</ele><time>2026-04-03T13:30:31.918Z</time></trkpt><trkpt lat="44.0733433" lon="8.04527"><ele>416.0</ele><time>2026-04-03T13:30:32.918Z</time></trkpt><trkpt lat="44.0732233" lon="8.0453433"><ele>416.0</ele><time>2026-04-03T13:30:33.919Z</time></trkpt><trkpt lat="44.0730967" lon="8.0453717"><ele>414.25</ele><time>2026-04-03T13:30:34.919Z</time></trkpt><trkpt lat="44.07296" lon="8.045365"><ele>412.5</ele><time>2026-04-03T13:30:35.919Z</time></trkpt><trkpt lat="44.0728333" lon="8.0453433"><ele>410.75</ele><time>2026-04-03T13:30:36.919Z</time></trkpt><trkpt lat="44.07271" lon="8.0453233"><ele>409.0</ele><time>2026-04-03T13:30:37.919Z</time></trkpt><trkpt lat="44.07258" lon="8.0453183"><ele>409.0</ele><time>2026-04-03T13:30:38.919Z</time></trkpt><trkpt lat="44.0724467" lon="8.045315"><ele>409.0</ele><time>2026-04-03T13:30:39.918Z</time></trkpt><trkpt lat="44.0723167" lon="8.0453017"><ele>409.0</ele><time>2026-04-03T13:30:40.919Z</time></trkpt><trkpt lat="44.072175" lon="8.045275"><ele>409.0</ele><time>2026-04-03T13:30:41.918Z</time></trkpt><trkpt lat="44.072035" lon="8.0452317"><ele>410.0</ele><time>2026-04-03T13:30:42.919Z</time></trkpt><trkpt lat="44.0718983" lon="8.0451783"><ele>411.0</ele><time>2026-04-03T13:30:43.919Z</time></trkpt><trkpt lat="44.0717717" lon="8.0451217"><ele>412.0</ele><time>2026-04-03T13:30:44.918Z</time></trkpt><trkpt lat="44.0716417" lon="8.04505"><ele>413.0</ele><time>2026-04-03T13:30:45.918Z</time></trkpt><trkpt lat="44.0715217" lon="8.0449533"><ele>408.5</ele><time>2026-04-03T13:30:46.919Z</time></trkpt><trkpt lat="44.0714067" lon="8.0448517"><ele>404.0</ele><time>2026-04-03T13:30:47.919Z</time></trkpt><trkpt lat="44.07131" lon="8.0447417"><ele>399.5</ele><time>2026-04-03T13:30:48.919Z</time></trkpt><trkpt lat="44.0712083" lon="8.0446583"><ele>395.0</ele><time>2026-04-03T13:30:49.918Z</time></trkpt><trkpt lat="44.0711083" lon="8.0446383"><ele>395.0</ele><time>2026-04-03T13:30:50.918Z</time></trkpt><trkpt lat="44.0710317" lon="8.0446583"><ele>395.0</ele><time>2026-04-03T13:30:51.918Z</time></trkpt><trkpt lat="44.0709683" lon="8.0447483"><ele>395.0</ele><time>2026-04-03T13:30:52.918Z</time></trkpt><trkpt lat="44.070925" lon="8.0448667"><ele>395.0</ele><time>2026-04-03T13:30:53.919Z</time></trkpt><trkpt lat="44.0708883" lon="8.0450083"><ele>395.0</ele><time>2026-04-03T13:30:54.919Z</time></trkpt><trkpt lat="44.070865" lon="8.0451667"><ele>392.25</ele><time>2026-04-03T13:30:55.918Z</time></trkpt><trkpt lat="44.0708333" lon="8.0453367"><ele>389.5</ele><time>2026-04-03T13:30:56.919Z</time></trkpt><trkpt lat="44.070795" lon="8.0455017"><ele>386.75</ele><time>2026-04-03T13:30:57.919Z</time></trkpt><trkpt lat="44.0707333" lon="8.0456533"><ele>384.0</ele><time>2026-04-03T13:30:58.919Z</time></trkpt><trkpt lat="44.0706467" lon="8.0457767"><ele>388.0</ele><time>2026-04-03T13:30:59.919Z</time></trkpt><trkpt lat="44.07055" lon="8.0458683"><ele>392.0</ele><time>2026-04-03T13:31:00.919Z</time></trkpt><trkpt lat="44.0704317" lon="8.0459567"><ele>396.0</ele><time>2026-04-03T13:31:01.918Z</time></trkpt><trkpt lat="44.07033" lon="8.0460333"><ele>400.0</ele><time>2026-04-03T13:31:02.918Z</time></trkpt><trkpt lat="44.07025" lon="8.04612"><ele>400.00000000000006</ele><time>2026-04-03T13:31:03.919Z</time></trkpt><trkpt lat="44.0701917" lon="8.046205"><ele>400.0</ele><time>2026-04-03T13:31:04.919Z</time></trkpt><trkpt lat="44.070145" lon="8.0462967"><ele>400.0</ele><time>2026-04-03T13:31:05.919Z</time></trkpt><trkpt lat="44.0701167" lon="8.0463767"><ele>400.0</ele><time>2026-04-03T13:31:06.919Z</time></trkpt><trkpt lat="44.0700967" lon="8.04652"><ele>400.00000000000006</ele><time>2026-04-03T13:31:08.919Z</time></trkpt><trkpt lat="44.070085" lon="8.0466183"><ele>400.0</ele><time>2026-04-03T13:31:10.919Z</time></trkpt><trkpt lat="44.0699983" lon="8.0466333"><ele>399.1666666666667</ele><time>2026-04-03T13:31:14.919Z</time></trkpt><trkpt lat="44.0699333" lon="8.0465633"><ele>398.33333333333337</ele><time>2026-04-03T13:31:16.919Z</time></trkpt><trkpt lat="44.0698767" lon="8.04649"><ele>397.5</ele><time>2026-04-03T13:31:18.919Z</time></trkpt><trkpt lat="44.069795" lon="8.0464317"><ele>396.66666666666663</ele><time>2026-04-03T13:31:20.919Z</time></trkpt><trkpt lat="44.06968" lon="8.0463967"><ele>395.8333333333333</ele><time>2026-04-03T13:31:22.918Z</time></trkpt><trkpt lat="44.0696067" lon="8.0463717"><ele>395.0</ele><time>2026-04-03T13:31:23.919Z</time></trkpt><trkpt lat="44.0695383" lon="8.0463333"><ele>395.0</ele><time>2026-04-03T13:31:24.918Z</time></trkpt><trkpt lat="44.0694783" lon="8.0462933"><ele>395.0</ele><time>2026-04-03T13:31:25.919Z</time></trkpt><trkpt lat="44.0694233" lon="8.04625"><ele>395.0</ele><time>2026-04-03T13:31:26.918Z</time></trkpt><trkpt lat="44.06932" lon="8.0461817"><ele>395.0</ele><time>2026-04-03T13:31:28.918Z</time></trkpt><trkpt lat="44.0692167" lon="8.04612"><ele>395.0</ele><time>2026-04-03T13:31:30.918Z</time></trkpt><trkpt lat="44.0691083" lon="8.04612"><ele>393.6</ele><time>2026-04-03T13:31:32.918Z</time></trkpt><trkpt lat="44.0689817" lon="8.0461283"><ele>392.2</ele><time>2026-04-03T13:31:34.919Z</time></trkpt><trkpt lat="44.0689167" lon="8.0461233"><ele>390.79999999999995</ele><time>2026-04-03T13:31:35.919Z</time></trkpt><trkpt lat="44.0688533" lon="8.0460917"><ele>389.4</ele><time>2026-04-03T13:31:36.919Z</time></trkpt><trkpt lat="44.0687817" lon="8.0460633"><ele>388.0</ele><time>2026-04-03T13:31:37.918Z</time></trkpt><trkpt lat="44.06866" lon="8.04602"><ele>388.00000000000006</ele><time>2026-04-03T13:31:39.919Z</time></trkpt><trkpt lat="44.06853" lon="8.0459833"><ele>388.0</ele><time>2026-04-03T13:31:41.919Z</time></trkpt><trkpt lat="44.0684533" lon="8.045985"><ele>388.0</ele><time>2026-04-03T13:31:42.919Z</time></trkpt><trkpt lat="44.0683717" lon="8.04598"><ele>388.0</ele><time>2026-04-03T13:31:43.918Z</time></trkpt><trkpt lat="44.068305" lon="8.0459383"><ele>388.00000000000006</ele><time>2026-04-03T13:31:44.919Z</time></trkpt><trkpt lat="44.06824" lon="8.0458933"><ele>388.0</ele><time>2026-04-03T13:31:45.919Z</time></trkpt><trkpt lat="44.0681783" lon="8.045845"><ele>386.00000000000006</ele><time>2026-04-03T13:31:46.918Z</time></trkpt><trkpt lat="44.0681033" lon="8.0457833"><ele>384.0</ele><time>2026-04-03T13:31:47.919Z</time></trkpt><trkpt lat="44.0680333" lon="8.0457367"><ele>382.0</ele><time>2026-04-03T13:31:48.919Z</time></trkpt><trkpt lat="44.067955" lon="8.0456833"><ele>380.0</ele><time>2026-04-03T13:31:49.919Z</time></trkpt><trkpt lat="44.0678683" lon="8.0456233"><ele>378.0</ele><time>2026-04-03T13:31:50.918Z</time></trkpt><trkpt lat="44.0677883" lon="8.0455683"><ele>376.0</ele><time>2026-04-03T13:31:51.919Z</time></trkpt><trkpt lat="44.0677133" lon="8.0455017"><ele>376.0</ele><time>2026-04-03T13:31:52.918Z</time></trkpt><trkpt lat="44.0676433" lon="8.0454433"><ele>376.0</ele><time>2026-04-03T13:31:53.919Z</time></trkpt><trkpt lat="44.0675733" lon="8.045375"><ele>376.0</ele><time>2026-04-03T13:31:54.918Z</time></trkpt><trkpt lat="44.0675067" lon="8.0453117"><ele>376.0</ele><time>2026-04-03T13:31:55.918Z</time></trkpt><trkpt lat="44.0674367" lon="8.045245"><ele>376.0</ele><time>2026-04-03T13:31:56.919Z</time></trkpt><trkpt lat="44.06737" lon="8.0451883"><ele>376.0</ele><time>2026-04-03T13:31:57.919Z</time></trkpt><trkpt lat="44.0672933" lon="8.0451283"><ele>373.5</ele><time>2026-04-03T13:31:58.919Z</time></trkpt><trkpt lat="44.067225" lon="8.0450617"><ele>371.0</ele><time>2026-04-03T13:31:59.919Z</time></trkpt><trkpt lat="44.0671583" lon="8.0449917"><ele>368.5</ele><time>2026-04-03T13:32:00.919Z</time></trkpt><trkpt lat="44.0670917" lon="8.0449217"><ele>366.0</ele><time>2026-04-03T13:32:01.919Z</time></trkpt><trkpt lat="44.06702" lon="8.044865"><ele>363.5</ele><time>2026-04-03T13:32:02.919Z</time></trkpt><trkpt lat="44.0669583" lon="8.0448167"><ele>361.0</ele><time>2026-04-03T13:32:03.919Z</time></trkpt><trkpt lat="44.066845" lon="8.044775"><ele>360.20000000000005</ele><time>2026-04-03T13:32:05.918Z</time></trkpt><trkpt lat="44.06675" lon="8.0447167"><ele>359.40000000000003</ele><time>2026-04-03T13:32:07.919Z</time></trkpt><trkpt lat="44.0666867" lon="8.044655"><ele>358.6</ele><time>2026-04-03T13:32:10.919Z</time></trkpt><trkpt lat="44.0665933" lon="8.0445683"><ele>357.8</ele><time>2026-04-03T13:32:13.919Z</time></trkpt><trkpt lat="44.0664867" lon="8.044475"><ele>357.0</ele><time>2026-04-03T13:32:15.918Z</time></trkpt><trkpt lat="44.0664133" lon="8.04442"><ele>355.40000000000003</ele><time>2026-04-03T13:32:16.918Z</time></trkpt><trkpt lat="44.06633" lon="8.044355"><ele>353.8</ele><time>2026-04-03T13:32:17.919Z</time></trkpt><trkpt lat="44.0662533" lon="8.0443"><ele>352.2</ele><time>2026-04-03T13:32:18.918Z</time></trkpt><trkpt lat="44.0661717" lon="8.0442467"><ele>350.6</ele><time>2026-04-03T13:32:19.918Z</time></trkpt><trkpt lat="44.066085" lon="8.0442117"><ele>349.0</ele><time>2026-04-03T13:32:20.918Z</time></trkpt><trkpt lat="44.0659767" lon="8.0441983"><ele>349.0</ele><time>2026-04-03T13:32:21.919Z</time></trkpt><trkpt lat="44.065875" lon="8.0441667"><ele>349.0</ele><time>2026-04-03T13:32:22.919Z</time></trkpt><trkpt lat="44.0657867" lon="8.0441267"><ele>349.0</ele><time>2026-04-03T13:32:23.919Z</time></trkpt><trkpt lat="44.0657" lon="8.044095"><ele>349.0</ele><time>2026-04-03T13:32:24.919Z</time></trkpt><trkpt lat="44.0656233" lon="8.0440817"><ele>349.0</ele><time>2026-04-03T13:32:25.919Z</time></trkpt><trkpt lat="44.0655383" lon="8.0440967"><ele>347.3333333333333</ele><time>2026-04-03T13:32:26.918Z</time></trkpt><trkpt lat="44.0654533" lon="8.044125"><ele>345.66666666666663</ele><time>2026-04-03T13:32:27.919Z</time></trkpt><trkpt lat="44.065375" lon="8.044145"><ele>344.0</ele><time>2026-04-03T13:32:28.919Z</time></trkpt><trkpt lat="44.06531" lon="8.0441617"><ele>342.3333333333333</ele><time>2026-04-03T13:32:29.919Z</time></trkpt><trkpt lat="44.0652" lon="8.04416"><ele>340.6666666666667</ele><time>2026-04-03T13:32:31.919Z</time></trkpt><trkpt lat="44.0651017" lon="8.0441267"><ele>339.0</ele><time>2026-04-03T13:32:33.919Z</time></trkpt><trkpt lat="44.065" lon="8.0440783"><ele>335.2</ele><time>2026-04-03T13:32:35.918Z</time></trkpt><trkpt lat="44.064885" lon="8.0440667"><ele>331.4</ele><time>2026-04-03T13:32:37.919Z</time></trkpt><trkpt lat="44.06481" lon="8.0440333"><ele>327.6</ele><time>2026-04-03T13:32:38.919Z</time></trkpt><trkpt lat="44.06472" lon="8.0439933"><ele>323.8</ele><time>2026-04-03T13:32:39.919Z</time></trkpt><trkpt lat="44.0646117" lon="8.0439667"><ele>320.0</ele><time>2026-04-03T13:32:40.919Z</time></trkpt><trkpt lat="44.0644983" lon="8.043945"><ele>320.0</ele><time>2026-04-03T13:32:41.919Z</time></trkpt><trkpt lat="44.0643833" lon="8.0439267"><ele>320.0</ele><time>2026-04-03T13:32:42.919Z</time></trkpt><trkpt lat="44.0642917" lon="8.0439383"><ele>320.0</ele><time>2026-04-03T13:32:43.918Z</time></trkpt><trkpt lat="44.0642133" lon="8.0439333"><ele>320.0</ele><time>2026-04-03T13:32:44.918Z</time></trkpt><trkpt lat="44.0641467" lon="8.0439317"><ele>320.0</ele><time>2026-04-03T13:32:45.918Z</time></trkpt><trkpt lat="44.0640267" lon="8.0439333"><ele>318.8</ele><time>2026-04-03T13:32:47.919Z</time></trkpt><trkpt lat="44.0638983" lon="8.043895"><ele>317.6</ele><time>2026-04-03T13:32:49.919Z</time></trkpt><trkpt lat="44.06378" lon="8.0438717"><ele>316.4</ele><time>2026-04-03T13:32:51.919Z</time></trkpt><trkpt lat="44.0636833" lon="8.0439033"><ele>315.2</ele><time>2026-04-03T13:32:53.918Z</time></trkpt><trkpt lat="44.0635967" lon="8.04392"><ele>314.0</ele><time>2026-04-03T13:32:55.919Z</time></trkpt><trkpt lat="44.0635217" lon="8.043935"><ele>314.0</ele><time>2026-04-03T13:32:57.918Z</time></trkpt><trkpt lat="44.0634517" lon="8.043975"><ele>314.0</ele><time>2026-04-03T13:33:00.919Z</time></trkpt><trkpt lat="44.0633867" lon="8.043975"><ele>314.0</ele><time>2026-04-03T13:33:03.919Z</time></trkpt><trkpt lat="44.063305" lon="8.0440133"><ele>314.0</ele><time>2026-04-03T13:33:05.919Z</time></trkpt><trkpt lat="44.0631917" lon="8.044035"><ele>314.0</ele><time>2026-04-03T13:33:07.918Z</time></trkpt><trkpt lat="44.0630767" lon="8.0440917"><ele>310.8</ele><time>2026-04-03T13:33:09.918Z</time></trkpt><trkpt lat="44.0629633" lon="8.04417"><ele>307.59999999999997</ele><time>2026-04-03T13:33:11.919Z</time></trkpt><trkpt lat="44.0629" lon="8.0442"><ele>304.4</ele><time>2026-04-03T13:33:12.918Z</time></trkpt><trkpt lat="44.0628183" lon="8.0442783"><ele>301.2</ele><time>2026-04-03T13:33:14.919Z</time></trkpt><trkpt lat="44.0627533" lon="8.0443417"><ele>298.0</ele><time>2026-04-03T13:33:16.918Z</time></trkpt><trkpt lat="44.0626567" lon="8.0443383"><ele>298.0</ele><time>2026-04-03T13:33:18.919Z</time></trkpt><trkpt lat="44.0625617" lon="8.0443017"><ele>298.0</ele><time>2026-04-03T13:33:20.919Z</time></trkpt><trkpt lat="44.0625033" lon="8.0443467"><ele>298.0</ele><time>2026-04-03T13:33:22.918Z</time></trkpt><trkpt lat="44.062435" lon="8.044465"><ele>298.0</ele><time>2026-04-03T13:33:24.919Z</time></trkpt><trkpt lat="44.0623817" lon="8.0445833"><ele>298.0</ele><time>2026-04-03T13:33:26.918Z</time></trkpt><trkpt lat="44.06243" lon="8.0446567"><ele>298.0</ele><time>2026-04-03T13:33:46.919Z</time></trkpt><trkpt lat="44.0625233" lon="8.044625"><ele>298.0</ele><time>2026-04-03T13:33:48.918Z</time></trkpt><trkpt lat="44.0625883" lon="8.0446217"><ele>298.0</ele><time>2026-04-03T13:33:49.919Z</time></trkpt><trkpt lat="44.062665" lon="8.0446617"><ele>298.0</ele><time>2026-04-03T13:33:50.919Z</time></trkpt><trkpt lat="44.062755" lon="8.044715"><ele>298.0</ele><time>2026-04-03T13:33:51.919Z</time></trkpt><trkpt lat="44.06284" lon="8.0447517"><ele>298.0</ele><time>2026-04-03T13:33:52.919Z</time></trkpt><trkpt lat="44.0629317" lon="8.0447633"><ele>298.0</ele><time>2026-04-03T13:33:53.918Z</time></trkpt><trkpt lat="44.063045" lon="8.044765"><ele>298.0</ele><time>2026-04-03T13:33:54.918Z</time></trkpt><trkpt lat="44.0631567" lon="8.0447883"><ele>298.0</ele><time>2026-04-03T13:33:55.918Z</time></trkpt><trkpt lat="44.06325" lon="8.0448483"><ele>298.0</ele><time>2026-04-03T13:33:56.918Z</time></trkpt><trkpt lat="44.0633417" lon="8.0449217"><ele>298.0</ele><time>2026-04-03T13:33:57.919Z</time></trkpt><trkpt lat="44.063425" lon="8.04499"><ele>298.0</ele><time>2026-04-03T13:33:58.918Z</time></trkpt><trkpt lat="44.0635133" lon="8.0450283"><ele>297.2</ele><time>2026-04-03T13:33:59.918Z</time></trkpt><trkpt lat="44.0636133" lon="8.0450383"><ele>296.4</ele><time>2026-04-03T13:34:00.919Z</time></trkpt><trkpt lat="44.0637167" lon="8.04505"><ele>295.59999999999997</ele><time>2026-04-03T13:34:01.919Z</time></trkpt><trkpt lat="44.063825" lon="8.0450817"><ele>294.8</ele><time>2026-04-03T13:34:02.919Z</time></trkpt><trkpt lat="44.0639517" lon="8.0451267"><ele>294.0</ele><time>2026-04-03T13:34:03.918Z</time></trkpt><trkpt lat="44.064075" lon="8.0451717"><ele>296.0</ele><time>2026-04-03T13:34:04.918Z</time></trkpt><trkpt lat="44.064205" lon="8.0452133"><ele>298.0</ele><time>2026-04-03T13:34:05.919Z</time></trkpt><trkpt lat="44.0643233" lon="8.0452433"><ele>300.0</ele><time>2026-04-03T13:34:06.919Z</time></trkpt><trkpt lat="44.0644283" lon="8.0452867"><ele>302.0</ele><time>2026-04-03T13:34:07.919Z</time></trkpt><trkpt lat="44.0645333" lon="8.0453317"><ele>302.0</ele><time>2026-04-03T13:34:08.919Z</time></trkpt><trkpt lat="44.064645" lon="8.045405"><ele>302.0</ele><time>2026-04-03T13:34:09.919Z</time></trkpt><trkpt lat="44.0647467" lon="8.0454867"><ele>302.0</ele><time>2026-04-03T13:34:10.918Z</time></trkpt><trkpt lat="44.06484" lon="8.045585"><ele>302.0</ele><time>2026-04-03T13:34:11.919Z</time></trkpt><trkpt lat="44.0649333" lon="8.0456967"><ele>301.75</ele><time>2026-04-03T13:34:12.919Z</time></trkpt><trkpt lat="44.0650167" lon="8.0458283"><ele>301.5</ele><time>2026-04-03T13:34:13.919Z</time></trkpt><trkpt lat="44.0650983" lon="8.04596"><ele>301.25</ele><time>2026-04-03T13:34:14.918Z</time></trkpt><trkpt lat="44.0651867" lon="8.04607"><ele>301.0</ele><time>2026-04-03T13:34:15.918Z</time></trkpt><trkpt lat="44.0652783" lon="8.046175"><ele>301.0</ele><time>2026-04-03T13:34:16.919Z</time></trkpt><trkpt lat="44.0653717" lon="8.0462733"><ele>301.0</ele><time>2026-04-03T13:34:17.919Z</time></trkpt><trkpt lat="44.065475" lon="8.04635"><ele>301.0</ele><time>2026-04-03T13:34:18.919Z</time></trkpt><trkpt lat="44.0655667" lon="8.0464217"><ele>301.0</ele><time>2026-04-03T13:34:19.919Z</time></trkpt><trkpt lat="44.065665" lon="8.0464883"><ele>301.0</ele><time>2026-04-03T13:34:20.919Z</time></trkpt><trkpt lat="44.0657683" lon="8.0465617"><ele>301.75</ele><time>2026-04-03T13:34:21.919Z</time></trkpt><trkpt lat="44.0658733" lon="8.0466417"><ele>302.5</ele><time>2026-04-03T13:34:22.919Z</time></trkpt><trkpt lat="44.0659767" lon="8.0467467"><ele>303.25</ele><time>2026-04-03T13:34:23.918Z</time></trkpt><trkpt lat="44.0660817" lon="8.0468683"><ele>304.0</ele><time>2026-04-03T13:34:24.919Z</time></trkpt><trkpt lat="44.0661733" lon="8.0469883"><ele>304.0</ele><time>2026-04-03T13:34:25.918Z</time></trkpt><trkpt lat="44.0662667" lon="8.047085"><ele>304.0</ele><time>2026-04-03T13:34:26.919Z</time></trkpt><trkpt lat="44.0663217" lon="8.0471767"><ele>304.0</ele><time>2026-04-03T13:34:27.918Z</time></trkpt><trkpt lat="44.06632" lon="8.047285"><ele>304.0</ele><time>2026-04-03T13:34:29.918Z</time></trkpt><trkpt lat="44.0662417" lon="8.04734"><ele>304.0</ele><time>2026-04-03T13:34:31.918Z</time></trkpt><trkpt lat="44.0661567" lon="8.0473267"><ele>304.0</ele><time>2026-04-03T13:34:32.919Z</time></trkpt><trkpt lat="44.06605" lon="8.047305"><ele>304.0</ele><time>2026-04-03T13:34:33.919Z</time></trkpt><trkpt lat="44.0659333" lon="8.047305"><ele>304.0</ele><time>2026-04-03T13:34:34.919Z</time></trkpt><trkpt lat="44.065835" lon="8.047315"><ele>304.0</ele><time>2026-04-03T13:34:35.918Z</time></trkpt><trkpt lat="44.065755" lon="8.0473633"><ele>304.0</ele><time>2026-04-03T13:34:36.918Z</time></trkpt><trkpt lat="44.0657067" lon="8.0474367"><ele>301.66666666666663</ele><time>2026-04-03T13:34:37.919Z</time></trkpt><trkpt lat="44.0657033" lon="8.0475267"><ele>299.3333333333333</ele><time>2026-04-03T13:34:38.919Z</time></trkpt><trkpt lat="44.0657167" lon="8.0476467"><ele>297.0</ele><time>2026-04-03T13:34:39.919Z</time></trkpt><trkpt lat="44.0657267" lon="8.04777"><ele>294.6666666666667</ele><time>2026-04-03T13:34:40.919Z</time></trkpt><trkpt lat="44.06571" lon="8.0478833"><ele>292.33333333333337</ele><time>2026-04-03T13:34:41.919Z</time></trkpt><trkpt lat="44.0656967" lon="8.0479783"><ele>290.0</ele><time>2026-04-03T13:34:42.919Z</time></trkpt><trkpt lat="44.06564" lon="8.0480433"><ele>290.0</ele><time>2026-04-03T13:34:44.919Z</time></trkpt><trkpt lat="44.065555" lon="8.0479467"><ele>290.0</ele><time>2026-04-03T13:34:46.919Z</time></trkpt><trkpt lat="44.065425" lon="8.0479533"><ele>290.0</ele><time>2026-04-03T13:34:48.919Z</time></trkpt><trkpt lat="44.0653417" lon="8.0480117"><ele>290.0</ele><time>2026-04-03T13:34:49.919Z</time></trkpt><trkpt lat="44.065265" lon="8.0480867"><ele>290.0</ele><time>2026-04-03T13:34:50.918Z</time></trkpt><trkpt lat="44.065195" lon="8.0481733"><ele>290.0</ele><time>2026-04-03T13:34:51.919Z</time></trkpt><trkpt lat="44.065145" lon="8.048265"><ele>290.0</ele><time>2026-04-03T13:34:52.919Z</time></trkpt><trkpt lat="44.065095" lon="8.0483567"><ele>290.0</ele><time>2026-04-03T13:34:53.919Z</time></trkpt><trkpt lat="44.065065" lon="8.0484533"><ele>290.0</ele><time>2026-04-03T13:34:54.918Z</time></trkpt><trkpt lat="44.065055" lon="8.0485583"><ele>290.0</ele><time>2026-04-03T13:34:55.919Z</time></trkpt><trkpt lat="44.0650483" lon="8.0486783"><ele>290.0</ele><time>2026-04-03T13:34:56.918Z</time></trkpt><trkpt lat="44.065035" lon="8.0487867"><ele>287.75</ele><time>2026-04-03T13:34:57.919Z</time></trkpt><trkpt lat="44.06492" lon="8.0488883"><ele>285.5</ele><time>2026-04-03T13:34:59.919Z</time></trkpt><trkpt lat="44.064815" lon="8.0489083"><ele>283.25</ele><time>2026-04-03T13:35:00.919Z</time></trkpt><trkpt lat="44.0647017" lon="8.0489333"><ele>281.0</ele><time>2026-04-03T13:35:01.919Z</time></trkpt><trkpt lat="44.06459" lon="8.048945"><ele>281.0</ele><time>2026-04-03T13:35:02.919Z</time></trkpt><trkpt lat="44.0644933" lon="8.04895"><ele>281.0</ele><time>2026-04-03T13:35:03.918Z</time></trkpt><trkpt lat="44.0643967" lon="8.0489517"><ele>281.0</ele><time>2026-04-03T13:35:04.919Z</time></trkpt><trkpt lat="44.064315" lon="8.0489233"><ele>281.0</ele><time>2026-04-03T13:35:05.919Z</time></trkpt><trkpt lat="44.0642383" lon="8.0488767"><ele>281.0</ele><time>2026-04-03T13:35:06.919Z</time></trkpt><trkpt lat="44.0641617" lon="8.0488183"><ele>281.0</ele><time>2026-04-03T13:35:07.918Z</time></trkpt><trkpt lat="44.0641017" lon="8.0487783"><ele>278.33333333333337</ele><time>2026-04-03T13:35:08.919Z</time></trkpt><trkpt lat="44.064045" lon="8.048735"><ele>275.6666666666667</ele><time>2026-04-03T13:35:09.919Z</time></trkpt><trkpt lat="44.0639817" lon="8.0486483"><ele>273.0</ele><time>2026-04-03T13:35:11.918Z</time></trkpt><trkpt lat="44.0639333" lon="8.0485633"><ele>270.3333333333333</ele><time>2026-04-03T13:35:13.918Z</time></trkpt><trkpt lat="44.063835" lon="8.0484917"><ele>267.66666666666663</ele><time>2026-04-03T13:35:15.918Z</time></trkpt><trkpt lat="44.0637767" lon="8.0484383"><ele>265.0</ele><time>2026-04-03T13:35:16.919Z</time></trkpt><trkpt lat="44.0637117" lon="8.0483817"><ele>265.0</ele><time>2026-04-03T13:35:17.919Z</time></trkpt><trkpt lat="44.06365" lon="8.0483333"><ele>265.0</ele><time>2026-04-03T13:35:18.919Z</time></trkpt><trkpt lat="44.0635983" lon="8.0482767"><ele>265.0</ele><time>2026-04-03T13:35:19.919Z</time></trkpt><trkpt lat="44.0635483" lon="8.0482167"><ele>265.0</ele><time>2026-04-03T13:35:20.919Z</time></trkpt><trkpt lat="44.0634567" lon="8.0481333"><ele>265.0</ele><time>2026-04-03T13:35:22.918Z</time></trkpt><trkpt lat="44.0633683" lon="8.04807"><ele>265.0</ele><time>2026-04-03T13:35:24.919Z</time></trkpt><trkpt lat="44.0632767" lon="8.04803"><ele>262.0</ele><time>2026-04-03T13:35:26.919Z</time></trkpt><trkpt lat="44.0631983" lon="8.048055"><ele>259.0</ele><time>2026-04-03T13:35:28.919Z</time></trkpt><trkpt lat="44.0631317" lon="8.04812"><ele>256.0</ele><time>2026-04-03T13:35:30.918Z</time></trkpt><trkpt lat="44.0631067" lon="8.0482033"><ele>253.0</ele><time>2026-04-03T13:35:32.918Z</time></trkpt><trkpt lat="44.0630533" lon="8.0483017"><ele>249.99999999999997</ele><time>2026-04-03T13:35:35.919Z</time></trkpt><trkpt lat="44.0629783" lon="8.048305"><ele>247.0</ele><time>2026-04-03T13:35:37.919Z</time></trkpt><trkpt lat="44.0628933" lon="8.0483183"><ele>247.0</ele><time>2026-04-03T13:35:39.918Z</time></trkpt><trkpt lat="44.062745" lon="8.0483533"><ele>247.0</ele><time>2026-04-03T13:35:41.919Z</time></trkpt><trkpt lat="44.0626467" lon="8.048365"><ele>247.0</ele><time>2026-04-03T13:35:42.919Z</time></trkpt><trkpt lat="44.0625567" lon="8.04839"><ele>247.0</ele><time>2026-04-03T13:35:43.918Z</time></trkpt><trkpt lat="44.0624633" lon="8.048405"><ele>247.0</ele><time>2026-04-03T13:35:44.918Z</time></trkpt><trkpt lat="44.06239" lon="8.0484183"><ele>242.39999999999998</ele><time>2026-04-03T13:35:45.918Z</time></trkpt><trkpt lat="44.06232" lon="8.048475"><ele>237.79999999999998</ele><time>2026-04-03T13:35:47.919Z</time></trkpt><trkpt lat="44.0623333" lon="8.0485633"><ele>233.2</ele><time>2026-04-03T13:35:48.919Z</time></trkpt><trkpt lat="44.0623617" lon="8.04869"><ele>228.6</ele><time>2026-04-03T13:35:49.919Z</time></trkpt><trkpt lat="44.0623983" lon="8.0488367"><ele>224.0</ele><time>2026-04-03T13:35:50.919Z</time></trkpt><trkpt lat="44.0624317" lon="8.0489717"><ele>224.16666666666669</ele><time>2026-04-03T13:35:51.919Z</time></trkpt><trkpt lat="44.06245" lon="8.0490817"><ele>224.33333333333334</ele><time>2026-04-03T13:35:52.919Z</time></trkpt><trkpt lat="44.0624133" lon="8.04923"><ele>224.5</ele><time>2026-04-03T13:35:54.918Z</time></trkpt><trkpt lat="44.06236" lon="8.04931"><ele>224.66666666666669</ele><time>2026-04-03T13:35:55.919Z</time></trkpt><trkpt lat="44.0623017" lon="8.049405"><ele>224.83333333333334</ele><time>2026-04-03T13:35:56.918Z</time></trkpt><trkpt lat="44.0622633" lon="8.0494983"><ele>225.0</ele><time>2026-04-03T13:35:57.919Z</time></trkpt><trkpt lat="44.06222" lon="8.049615"><ele>225.0</ele><time>2026-04-03T13:35:58.919Z</time></trkpt><trkpt lat="44.0621717" lon="8.0497417"><ele>225.0</ele><time>2026-04-03T13:35:59.919Z</time></trkpt><trkpt lat="44.06212" lon="8.04984"><ele>225.0</ele><time>2026-04-03T13:36:00.919Z</time></trkpt><trkpt lat="44.062045" lon="8.049945"><ele>225.0</ele><time>2026-04-03T13:36:01.919Z</time></trkpt><trkpt lat="44.0619667" lon="8.0500333"><ele>225.0</ele><time>2026-04-03T13:36:02.918Z</time></trkpt><trkpt lat="44.061895" lon="8.0501083"><ele>226.0</ele><time>2026-04-03T13:36:03.919Z</time></trkpt><trkpt lat="44.06184" lon="8.0502"><ele>227.0</ele><time>2026-04-03T13:36:04.918Z</time></trkpt><trkpt lat="44.0618033" lon="8.0502967"><ele>228.0</ele><time>2026-04-03T13:36:05.919Z</time></trkpt><trkpt lat="44.0617783" lon="8.0504"><ele>229.0</ele><time>2026-04-03T13:36:06.919Z</time></trkpt><trkpt lat="44.0617633" lon="8.0505417"><ele>230.0</ele><time>2026-04-03T13:36:07.918Z</time></trkpt><trkpt lat="44.061755" lon="8.0507067"><ele>231.0</ele><time>2026-04-03T13:36:08.919Z</time></trkpt><trkpt lat="44.0617367" lon="8.0508883"><ele>232.0</ele><time>2026-04-03T13:36:09.919Z</time></trkpt><trkpt lat="44.06172" lon="8.0510617"><ele>233.0</ele><time>2026-04-03T13:36:10.919Z</time></trkpt><trkpt lat="44.061705" lon="8.05117"><ele>234.0</ele><time>2026-04-03T13:36:11.919Z</time></trkpt><trkpt lat="44.061675" lon="8.051265"><ele>235.0</ele><time>2026-04-03T13:36:12.919Z</time></trkpt><trkpt lat="44.06155" lon="8.0513117"><ele>230.66666666666666</ele><time>2026-04-03T13:36:14.918Z</time></trkpt><trkpt lat="44.0614617" lon="8.0513133"><ele>226.33333333333331</ele><time>2026-04-03T13:36:15.918Z</time></trkpt><trkpt lat="44.06136" lon="8.0513383"><ele>222.0</ele><time>2026-04-03T13:36:16.918Z</time></trkpt><trkpt lat="44.06127" lon="8.051375"><ele>217.66666666666669</ele><time>2026-04-03T13:36:17.918Z</time></trkpt><trkpt lat="44.0612133" lon="8.051435"><ele>213.33333333333334</ele><time>2026-04-03T13:36:18.919Z</time></trkpt><trkpt lat="44.0611667" lon="8.0515133"><ele>209.0</ele><time>2026-04-03T13:36:19.919Z</time></trkpt><trkpt lat="44.061125" lon="8.0516067"><ele>209.00000000000003</ele><time>2026-04-03T13:36:20.919Z</time></trkpt><trkpt lat="44.0610767" lon="8.0516683"><ele>209.0</ele><time>2026-04-03T13:36:21.919Z</time></trkpt><trkpt lat="44.060965" lon="8.0516783"><ele>209.0</ele><time>2026-04-03T13:36:23.919Z</time></trkpt><trkpt lat="44.0609067" lon="8.0516367"><ele>209.0</ele><time>2026-04-03T13:36:24.919Z</time></trkpt><trkpt lat="44.060875" lon="8.05156"><ele>209.00000000000003</ele><time>2026-04-03T13:36:25.919Z</time></trkpt><trkpt lat="44.0608633" lon="8.0514483"><ele>209.0</ele><time>2026-04-03T13:36:26.919Z</time></trkpt><trkpt lat="44.0608717" lon="8.0513117"><ele>209.00000000000003</ele><time>2026-04-03T13:36:27.919Z</time></trkpt><trkpt lat="44.060905" lon="8.051185"><ele>209.0</ele><time>2026-04-03T13:36:28.919Z</time></trkpt><trkpt lat="44.0609433" lon="8.0510717"><ele>209.0</ele><time>2026-04-03T13:36:29.918Z</time></trkpt><trkpt lat="44.0609833" lon="8.0509983"><ele>209.0</ele><time>2026-04-03T13:36:30.918Z</time></trkpt><trkpt lat="44.0608933" lon="8.051045"><ele>209.00000000000003</ele><time>2026-04-03T13:36:34.918Z</time></trkpt><trkpt lat="44.0608367" lon="8.0511417"><ele>209.0</ele><time>2026-04-03T13:36:35.919Z</time></trkpt><trkpt lat="44.0607767" lon="8.0512667"><ele>204.79999999999998</ele><time>2026-04-03T13:36:36.919Z</time></trkpt><trkpt lat="44.060705" lon="8.0514117"><ele>200.6</ele><time>2026-04-03T13:36:37.918Z</time></trkpt><trkpt lat="44.06065" lon="8.05154"><ele>196.4</ele><time>2026-04-03T13:36:38.919Z</time></trkpt><trkpt lat="44.06059" lon="8.0516583"><ele>192.2</ele><time>2026-04-03T13:36:39.919Z</time></trkpt><trkpt lat="44.0605267" lon="8.051755"><ele>188.0</ele><time>2026-04-03T13:36:40.918Z</time></trkpt><trkpt lat="44.060445" lon="8.0518283"><ele>188.0</ele><time>2026-04-03T13:36:41.919Z</time></trkpt><trkpt lat="44.0603667" lon="8.05189"><ele>188.0</ele><time>2026-04-03T13:36:42.919Z</time></trkpt><trkpt lat="44.060315" lon="8.05195"><ele>188.0</ele><time>2026-04-03T13:36:43.919Z</time></trkpt><trkpt lat="44.0603333" lon="8.052045"><ele>188.0</ele><time>2026-04-03T13:36:45.918Z</time></trkpt><trkpt lat="44.0604383" lon="8.0521083"><ele>188.0</ele><time>2026-04-03T13:36:47.919Z</time></trkpt><trkpt lat="44.060535" lon="8.052125"><ele>188.0</ele><time>2026-04-03T13:36:48.918Z</time></trkpt><trkpt lat="44.0606483" lon="8.052145"><ele>188.0</ele><time>2026-04-03T13:36:49.919Z</time></trkpt><trkpt lat="44.0607567" lon="8.0521517"><ele>188.0</ele><time>2026-04-03T13:36:50.918Z</time></trkpt><trkpt lat="44.0608517" lon="8.0521667"><ele>188.0</ele><time>2026-04-03T13:36:51.918Z</time></trkpt><trkpt lat="44.0609283" lon="8.05222"><ele>188.0</ele><time>2026-04-03T13:36:52.918Z</time></trkpt><trkpt lat="44.0609767" lon="8.0523117"><ele>188.0</ele><time>2026-04-03T13:36:53.919Z</time></trkpt><trkpt lat="44.0610183" lon="8.05243"><ele>190.4</ele><time>2026-04-03T13:36:54.919Z</time></trkpt><trkpt lat="44.0610283" lon="8.0525633"><ele>192.8</ele><time>2026-04-03T13:36:55.918Z</time></trkpt><trkpt lat="44.061035" lon="8.052695"><ele>195.2</ele><time>2026-04-03T13:36:56.918Z</time></trkpt><trkpt lat="44.061065" lon="8.05281"><ele>197.6</ele><time>2026-04-03T13:36:57.919Z</time></trkpt><trkpt lat="44.061095" lon="8.052925"><ele>200.0</ele><time>2026-04-03T13:36:58.919Z</time></trkpt><trkpt lat="44.0611383" lon="8.05304"><ele>200.0</ele><time>2026-04-03T13:36:59.918Z</time></trkpt><trkpt lat="44.061195" lon="8.0531567"><ele>200.0</ele><time>2026-04-03T13:37:00.919Z</time></trkpt><trkpt lat="44.061265" lon="8.0532767"><ele>200.0</ele><time>2026-04-03T13:37:01.919Z</time></trkpt><trkpt lat="44.0613183" lon="8.0533917"><ele>200.0</ele><time>2026-04-03T13:37:02.919Z</time></trkpt><trkpt lat="44.061355" lon="8.05352"><ele>200.0</ele><time>2026-04-03T13:37:03.918Z</time></trkpt><trkpt lat="44.0613817" lon="8.0536333"><ele>199.66666666666669</ele><time>2026-04-03T13:37:04.919Z</time></trkpt><trkpt lat="44.06139" lon="8.0537433"><ele>199.33333333333334</ele><time>2026-04-03T13:37:05.919Z</time></trkpt><trkpt lat="44.0613983" lon="8.0538533"><ele>199.0</ele><time>2026-04-03T13:37:06.919Z</time></trkpt><trkpt lat="44.0614267" lon="8.0539517"><ele>198.66666666666669</ele><time>2026-04-03T13:37:07.919Z</time></trkpt><trkpt lat="44.06149" lon="8.0540917"><ele>198.33333333333334</ele><time>2026-04-03T13:37:09.919Z</time></trkpt><trkpt lat="44.0615017" lon="8.0541783"><ele>198.0</ele><time>2026-04-03T13:37:11.918Z</time></trkpt><trkpt lat="44.0614017" lon="8.0542117"><ele>198.0</ele><time>2026-04-03T13:37:14.919Z</time></trkpt><trkpt lat="44.0612367" lon="8.05417"><ele>198.0</ele><time>2026-04-03T13:37:16.919Z</time></trkpt><trkpt lat="44.0611333" lon="8.0541333"><ele>198.0</ele><time>2026-04-03T13:37:17.919Z</time></trkpt><trkpt lat="44.06105" lon="8.05411"><ele>198.0</ele><time>2026-04-03T13:37:18.919Z</time></trkpt><trkpt lat="44.0609733" lon="8.0540917"><ele>198.0</ele><time>2026-04-03T13:37:19.918Z</time></trkpt><trkpt lat="44.0608967" lon="8.0541167"><ele>198.0</ele><time>2026-04-03T13:37:20.919Z</time></trkpt><trkpt lat="44.0608233" lon="8.0541717"><ele>198.0</ele><time>2026-04-03T13:37:21.918Z</time></trkpt><trkpt lat="44.0607417" lon="8.0542217"><ele>198.0</ele><time>2026-04-03T13:37:22.918Z</time></trkpt><trkpt lat="44.0606517" lon="8.054255"><ele>198.0</ele><time>2026-04-03T13:37:23.918Z</time></trkpt><trkpt lat="44.06057" lon="8.054275"><ele>198.0</ele><time>2026-04-03T13:37:24.919Z</time></trkpt><trkpt lat="44.06048" lon="8.0542183"><ele>198.0</ele><time>2026-04-03T13:37:25.919Z</time></trkpt><trkpt lat="44.0603967" lon="8.0541517"><ele>196.83333333333334</ele><time>2026-04-03T13:37:26.919Z</time></trkpt><trkpt lat="44.0603217" lon="8.0541067"><ele>195.66666666666666</ele><time>2026-04-03T13:37:27.918Z</time></trkpt><trkpt lat="44.06021" lon="8.054145"><ele>194.5</ele><time>2026-04-03T13:37:29.918Z</time></trkpt><trkpt lat="44.060155" lon="8.0542133"><ele>193.33333333333331</ele><time>2026-04-03T13:37:30.919Z</time></trkpt><trkpt lat="44.0600783" lon="8.0542817"><ele>192.16666666666666</ele><time>2026-04-03T13:37:31.918Z</time></trkpt><trkpt lat="44.0599983" lon="8.0543167"><ele>191.0</ele><time>2026-04-03T13:37:32.918Z</time></trkpt><trkpt lat="44.05992" lon="8.0542967"><ele>189.2857142857143</ele><time>2026-04-03T13:37:33.919Z</time></trkpt><trkpt lat="44.0598533" lon="8.0542683"><ele>187.57142857142856</ele><time>2026-04-03T13:37:34.919Z</time></trkpt><trkpt lat="44.0597833" lon="8.0542333"><ele>185.85714285714286</ele><time>2026-04-03T13:37:35.918Z</time></trkpt><trkpt lat="44.059715" lon="8.0542133"><ele>184.14285714285717</ele><time>2026-04-03T13:37:36.919Z</time></trkpt><trkpt lat="44.059645" lon="8.0542267"><ele>182.42857142857144</ele><time>2026-04-03T13:37:37.919Z</time></trkpt><trkpt lat="44.059585" lon="8.0542767"><ele>180.71428571428572</ele><time>2026-04-03T13:37:38.919Z</time></trkpt><trkpt lat="44.059545" lon="8.0543583"><ele>179.0</ele><time>2026-04-03T13:37:39.918Z</time></trkpt><trkpt lat="44.0595083" lon="8.0544533"><ele>179.0</ele><time>2026-04-03T13:37:40.918Z</time></trkpt><trkpt lat="44.059475" lon="8.054545"><ele>179.0</ele><time>2026-04-03T13:37:41.919Z</time></trkpt><trkpt lat="44.0594317" lon="8.05463"><ele>179.0</ele><time>2026-04-03T13:37:42.919Z</time></trkpt><trkpt lat="44.0593917" lon="8.0547267"><ele>179.0</ele><time>2026-04-03T13:37:43.919Z</time></trkpt><trkpt lat="44.0593633" lon="8.0548333"><ele>179.0</ele><time>2026-04-03T13:37:44.919Z</time></trkpt><trkpt lat="44.0593267" lon="8.0549467"><ele>179.0</ele><time>2026-04-03T13:37:45.918Z</time></trkpt><trkpt lat="44.0592817" lon="8.055065"><ele>181.79999999999998</ele><time>2026-04-03T13:37:46.919Z</time></trkpt><trkpt lat="44.0592233" lon="8.0551783"><ele>184.6</ele><time>2026-04-03T13:37:47.918Z</time></trkpt><trkpt lat="44.059185" lon="8.0553067"><ele>187.4</ele><time>2026-04-03T13:37:48.918Z</time></trkpt><trkpt lat="44.0591617" lon="8.0554467"><ele>190.2</ele><time>2026-04-03T13:37:49.919Z</time></trkpt><trkpt lat="44.0591667" lon="8.0555933"><ele>193.0</ele><time>2026-04-03T13:37:50.919Z</time></trkpt><trkpt lat="44.059175" lon="8.0557417"><ele>194.14285714285717</ele><time>2026-04-03T13:37:51.918Z</time></trkpt><trkpt lat="44.0591833" lon="8.0558683"><ele>195.28571428571428</ele><time>2026-04-03T13:37:52.919Z</time></trkpt><trkpt lat="44.059185" lon="8.0559733"><ele>196.42857142857144</ele><time>2026-04-03T13:37:53.918Z</time></trkpt><trkpt lat="44.0591767" lon="8.056065"><ele>197.57142857142858</ele><time>2026-04-03T13:37:54.919Z</time></trkpt><trkpt lat="44.059155" lon="8.05615"><ele>198.71428571428572</ele><time>2026-04-03T13:37:55.919Z</time></trkpt><trkpt lat="44.0591283" lon="8.0562317"><ele>199.85714285714286</ele><time>2026-04-03T13:37:56.918Z</time></trkpt><trkpt lat="44.0590917" lon="8.0563183"><ele>201.0</ele><time>2026-04-03T13:37:57.918Z</time></trkpt><trkpt lat="44.05906" lon="8.056415"><ele>201.60000000000002</ele><time>2026-04-03T13:37:58.918Z</time></trkpt><trkpt lat="44.059055" lon="8.0565233"><ele>202.2</ele><time>2026-04-03T13:37:59.919Z</time></trkpt><trkpt lat="44.05909" lon="8.056635"><ele>202.8</ele><time>2026-04-03T13:38:00.918Z</time></trkpt><trkpt lat="44.0591433" lon="8.0567583"><ele>203.39999999999998</ele><time>2026-04-03T13:38:01.919Z</time></trkpt><trkpt lat="44.05921" lon="8.05688"><ele>204.0</ele><time>2026-04-03T13:38:02.919Z</time></trkpt><trkpt lat="44.05928" lon="8.0570183"><ele>204.0</ele><time>2026-04-03T13:38:03.919Z</time></trkpt><trkpt lat="44.0593517" lon="8.05718"><ele>204.0</ele><time>2026-04-03T13:38:04.918Z</time></trkpt><trkpt lat="44.0594217" lon="8.0573533"><ele>204.0</ele><time>2026-04-03T13:38:05.919Z</time></trkpt><trkpt lat="44.0594967" lon="8.0575017"><ele>204.0</ele><time>2026-04-03T13:38:06.918Z</time></trkpt><trkpt lat="44.0595683" lon="8.0576317"><ele>202.6</ele><time>2026-04-03T13:38:07.919Z</time></trkpt><trkpt lat="44.05962" lon="8.057755"><ele>201.2</ele><time>2026-04-03T13:38:08.919Z</time></trkpt><trkpt lat="44.05966" lon="8.0578817"><ele>199.79999999999998</ele><time>2026-04-03T13:38:09.918Z</time></trkpt><trkpt lat="44.059675" lon="8.058025"><ele>198.39999999999998</ele><time>2026-04-03T13:38:10.919Z</time></trkpt><trkpt lat="44.0596517" lon="8.0581633"><ele>197.0</ele><time>2026-04-03T13:38:11.918Z</time></trkpt><trkpt lat="44.059605" lon="8.0583067"><ele>196.8</ele><time>2026-04-03T13:38:12.918Z</time></trkpt><trkpt lat="44.0595533" lon="8.058455"><ele>196.6</ele><time>2026-04-03T13:38:13.918Z</time></trkpt><trkpt lat="44.0595" lon="8.0586033"><ele>196.4</ele><time>2026-04-03T13:38:14.918Z</time></trkpt><trkpt lat="44.0594817" lon="8.0587283"><ele>196.20000000000002</ele><time>2026-04-03T13:38:15.917Z</time></trkpt><trkpt lat="44.0595033" lon="8.0588567"><ele>196.0</ele><time>2026-04-03T13:38:16.918Z</time></trkpt><trkpt lat="44.0595717" lon="8.0589683"><ele>196.0</ele><time>2026-04-03T13:38:17.918Z</time></trkpt><trkpt lat="44.0596817" lon="8.059045"><ele>196.0</ele><time>2026-04-03T13:38:18.918Z</time></trkpt><trkpt lat="44.05979" lon="8.0591267"><ele>196.0</ele><time>2026-04-03T13:38:19.918Z</time></trkpt><trkpt lat="44.0598683" lon="8.0592217"><ele>196.0</ele><time>2026-04-03T13:38:20.917Z</time></trkpt><trkpt lat="44.05991" lon="8.05936"><ele>194.75</ele><time>2026-04-03T13:38:21.918Z</time></trkpt><trkpt lat="44.05993" lon="8.059515"><ele>193.5</ele><time>2026-04-03T13:38:22.917Z</time></trkpt><trkpt lat="44.0599483" lon="8.05967"><ele>192.25</ele><time>2026-04-03T13:38:23.917Z</time></trkpt><trkpt lat="44.0599767" lon="8.0598467"><ele>191.0</ele><time>2026-04-03T13:38:24.917Z</time></trkpt><trkpt lat="44.0600067" lon="8.06001"><ele>198.25</ele><time>2026-04-03T13:38:25.918Z</time></trkpt><trkpt lat="44.0600533" lon="8.060155"><ele>205.5</ele><time>2026-04-03T13:38:26.918Z</time></trkpt><trkpt lat="44.0601083" lon="8.0602867"><ele>212.75</ele><time>2026-04-03T13:38:27.918Z</time></trkpt><trkpt lat="44.0601733" lon="8.060425"><ele>220.0</ele><time>2026-04-03T13:38:28.917Z</time></trkpt><trkpt lat="44.0602433" lon="8.06054"><ele>220.0</ele><time>2026-04-03T13:38:29.918Z</time></trkpt><trkpt lat="44.0603167" lon="8.0606483"><ele>220.0</ele><time>2026-04-03T13:38:30.917Z</time></trkpt><trkpt lat="44.0603733" lon="8.0607667"><ele>220.0</ele><time>2026-04-03T13:38:31.917Z</time></trkpt><trkpt lat="44.060405" lon="8.0609167"><ele>220.0</ele><time>2026-04-03T13:38:32.917Z</time></trkpt><trkpt lat="44.0604267" lon="8.0610683"><ele>220.0</ele><time>2026-04-03T13:38:33.918Z</time></trkpt><trkpt lat="44.0604367" lon="8.06123"><ele>219.6</ele><time>2026-04-03T13:38:34.918Z</time></trkpt><trkpt lat="44.0604433" lon="8.0613667"><ele>219.2</ele><time>2026-04-03T13:38:35.917Z</time></trkpt><trkpt lat="44.0604417" lon="8.0614883"><ele>218.8</ele><time>2026-04-03T13:38:36.918Z</time></trkpt><trkpt lat="44.06044" lon="8.0615783"><ele>218.4</ele><time>2026-04-03T13:38:37.918Z</time></trkpt><trkpt lat="44.06046" lon="8.06172"><ele>218.0</ele><time>2026-04-03T13:38:39.917Z</time></trkpt><trkpt lat="44.0605617" lon="8.0618"><ele>218.00000000000003</ele><time>2026-04-03T13:38:46.918Z</time></trkpt><trkpt lat="44.0606933" lon="8.0618133"><ele>218.0</ele><time>2026-04-03T13:38:48.918Z</time></trkpt><trkpt lat="44.0607567" lon="8.0618133"><ele>218.0</ele><time>2026-04-03T13:38:49.917Z</time></trkpt><trkpt lat="44.0608217" lon="8.061825"><ele>218.0</ele><time>2026-04-03T13:38:51.918Z</time></trkpt><trkpt lat="44.0609167" lon="8.0618367"><ele>218.00000000000003</ele><time>2026-04-03T13:39:09.917Z</time></trkpt><trkpt lat="44.0610033" lon="8.061815"><ele>218.0</ele><time>2026-04-03T13:39:10.918Z</time></trkpt><trkpt lat="44.0611117" lon="8.0617767"><ele>221.2</ele><time>2026-04-03T13:39:11.917Z</time></trkpt><trkpt lat="44.0612217" lon="8.0617383"><ele>224.4</ele><time>2026-04-03T13:39:12.918Z</time></trkpt><trkpt lat="44.061335" lon="8.0617033"><ele>227.59999999999997</ele><time>2026-04-03T13:39:13.918Z</time></trkpt><trkpt lat="44.0614333" lon="8.0617"><ele>230.79999999999998</ele><time>2026-04-03T13:39:14.918Z</time></trkpt><trkpt lat="44.06153" lon="8.061735"><ele>234.0</ele><time>2026-04-03T13:39:15.917Z</time></trkpt><trkpt lat="44.0616217" lon="8.0617967"><ele>235.39999999999998</ele><time>2026-04-03T13:39:16.918Z</time></trkpt><trkpt lat="44.061705" lon="8.0618667"><ele>236.79999999999998</ele><time>2026-04-03T13:39:17.917Z</time></trkpt><trkpt lat="44.0617917" lon="8.06196"><ele>238.20000000000002</ele><time>2026-04-03T13:39:18.918Z</time></trkpt><trkpt lat="44.0618567" lon="8.06206"><ele>239.60000000000002</ele><time>2026-04-03T13:39:19.918Z</time></trkpt><trkpt lat="44.061915" lon="8.06217"><ele>241.0</ele><time>2026-04-03T13:39:20.917Z</time></trkpt><trkpt lat="44.0619667" lon="8.0622833"><ele>241.0</ele><time>2026-04-03T13:39:21.918Z</time></trkpt><trkpt lat="44.0620367" lon="8.0623767"><ele>241.00000000000003</ele><time>2026-04-03T13:39:22.918Z</time></trkpt><trkpt lat="44.062115" lon="8.06247"><ele>241.00000000000003</ele><time>2026-04-03T13:39:23.918Z</time></trkpt><trkpt lat="44.0622033" lon="8.0625367"><ele>241.0</ele><time>2026-04-03T13:39:24.918Z</time></trkpt><trkpt lat="44.062305" lon="8.062595"><ele>241.0</ele><time>2026-04-03T13:39:25.918Z</time></trkpt><trkpt lat="44.0624" lon="8.06264"><ele>239.8</ele><time>2026-04-03T13:39:26.918Z</time></trkpt><trkpt lat="44.0624833" lon="8.062695"><ele>238.60000000000002</ele><time>2026-04-03T13:39:27.918Z</time></trkpt><trkpt lat="44.0625767" lon="8.0627633"><ele>237.4</ele><time>2026-04-03T13:39:28.918Z</time></trkpt><trkpt lat="44.0626583" lon="8.062855"><ele>236.2</ele><time>2026-04-03T13:39:29.917Z</time></trkpt><trkpt lat="44.06274" lon="8.062945"><ele>235.0</ele><time>2026-04-03T13:39:30.918Z</time></trkpt><trkpt lat="44.06282" lon="8.06305"><ele>235.0</ele><time>2026-04-03T13:39:31.917Z</time></trkpt><trkpt lat="44.0628933" lon="8.0631667"><ele>235.0</ele><time>2026-04-03T13:39:32.918Z</time></trkpt><trkpt lat="44.06297" lon="8.0632833"><ele>235.0</ele><time>2026-04-03T13:39:33.918Z</time></trkpt><trkpt lat="44.063035" lon="8.0634"><ele>235.0</ele><time>2026-04-03T13:39:34.918Z</time></trkpt><trkpt lat="44.0630967" lon="8.0634867"><ele>235.0</ele><time>2026-04-03T13:39:35.917Z</time></trkpt><trkpt lat="44.0631633" lon="8.0635567"><ele>233.83333333333331</ele><time>2026-04-03T13:39:36.918Z</time></trkpt><trkpt lat="44.0632267" lon="8.063585"><ele>232.66666666666666</ele><time>2026-04-03T13:39:37.917Z</time></trkpt><trkpt lat="44.0633" lon="8.0635817"><ele>231.5</ele><time>2026-04-03T13:39:38.917Z</time></trkpt><trkpt lat="44.0633883" lon="8.0635533"><ele>230.33333333333331</ele><time>2026-04-03T13:39:39.918Z</time></trkpt><trkpt lat="44.0634733" lon="8.0635283"><ele>229.16666666666666</ele><time>2026-04-03T13:39:40.918Z</time></trkpt><trkpt lat="44.0635433" lon="8.06351"><ele>228.0</ele><time>2026-04-03T13:39:41.918Z</time></trkpt><trkpt lat="44.0635067" lon="8.0636167"><ele>228.0</ele><time>2026-04-03T13:39:46.918Z</time></trkpt><trkpt lat="44.0634417" lon="8.06364"><ele>227.99999999999997</ele><time>2026-04-03T13:39:47.918Z</time></trkpt><trkpt lat="44.0633667" lon="8.0636767"><ele>228.0</ele><time>2026-04-03T13:39:48.917Z</time></trkpt><trkpt lat="44.0632917" lon="8.063705"><ele>228.0</ele><time>2026-04-03T13:39:49.918Z</time></trkpt><trkpt lat="44.06323" lon="8.0637333"><ele>227.99999999999997</ele><time>2026-04-03T13:39:50.917Z</time></trkpt><trkpt lat="44.0631767" lon="8.0637967"><ele>228.0</ele><time>2026-04-03T13:39:51.917Z</time></trkpt><trkpt lat="44.0631583" lon="8.0638917"><ele>228.0</ele><time>2026-04-03T13:39:52.918Z</time></trkpt><trkpt lat="44.0631217" lon="8.0640117"><ele>224.4</ele><time>2026-04-03T13:39:53.918Z</time></trkpt><trkpt lat="44.06307" lon="8.064115"><ele>220.8</ele><time>2026-04-03T13:39:54.918Z</time></trkpt><trkpt lat="44.063025" lon="8.0642467"><ele>217.2</ele><time>2026-04-03T13:39:55.918Z</time></trkpt><trkpt lat="44.0629883" lon="8.0644"><ele>213.6</ele><time>2026-04-03T13:39:56.917Z</time></trkpt><trkpt lat="44.0629533" lon="8.0645517"><ele>210.0</ele><time>2026-04-03T13:39:57.918Z</time></trkpt><trkpt lat="44.062915" lon="8.0646983"><ele>210.0</ele><time>2026-04-03T13:39:58.918Z</time></trkpt><trkpt lat="44.0628967" lon="8.0648333"><ele>210.0</ele><time>2026-04-03T13:39:59.918Z</time></trkpt><trkpt lat="44.06287" lon="8.06495"><ele>210.0</ele><time>2026-04-03T13:40:00.917Z</time></trkpt><trkpt lat="44.0628533" lon="8.0650483"><ele>210.0</ele><time>2026-04-03T13:40:01.917Z</time></trkpt><trkpt lat="44.0628333" lon="8.0651433"><ele>210.0</ele><time>2026-04-03T13:40:02.918Z</time></trkpt><trkpt lat="44.0627983" lon="8.0652417"><ele>210.0</ele><time>2026-04-03T13:40:03.918Z</time></trkpt><trkpt lat="44.06274" lon="8.0653533"><ele>209.83333333333334</ele><time>2026-04-03T13:40:04.917Z</time></trkpt><trkpt lat="44.0626817" lon="8.0654533"><ele>209.66666666666669</ele><time>2026-04-03T13:40:05.917Z</time></trkpt><trkpt lat="44.0626267" lon="8.0655583"><ele>209.5</ele><time>2026-04-03T13:40:06.918Z</time></trkpt><trkpt lat="44.0625783" lon="8.0656617"><ele>209.33333333333334</ele><time>2026-04-03T13:40:07.918Z</time></trkpt><trkpt lat="44.0625383" lon="8.0657633"><ele>209.16666666666669</ele><time>2026-04-03T13:40:08.918Z</time></trkpt><trkpt lat="44.0625133" lon="8.065875"><ele>209.0</ele><time>2026-04-03T13:40:09.917Z</time></trkpt><trkpt lat="44.062495" lon="8.06599"><ele>209.00000000000003</ele><time>2026-04-03T13:40:10.918Z</time></trkpt><trkpt lat="44.0624683" lon="8.0661033"><ele>209.0</ele><time>2026-04-03T13:40:11.918Z</time></trkpt><trkpt lat="44.062435" lon="8.0661967"><ele>209.0</ele><time>2026-04-03T13:40:12.917Z</time></trkpt><trkpt lat="44.0623867" lon="8.0662683"><ele>209.0</ele><time>2026-04-03T13:40:13.917Z</time></trkpt><trkpt lat="44.0623433" lon="8.066345"><ele>209.00000000000003</ele><time>2026-04-03T13:40:14.918Z</time></trkpt><trkpt lat="44.0623117" lon="8.0664367"><ele>209.0</ele><time>2026-04-03T13:40:15.918Z</time></trkpt><trkpt lat="44.0622883" lon="8.0665433"><ele>204.2</ele><time>2026-04-03T13:40:16.918Z</time></trkpt><trkpt lat="44.062265" lon="8.0666617"><ele>199.39999999999998</ele><time>2026-04-03T13:40:17.918Z</time></trkpt><trkpt lat="44.062255" lon="8.0667883"><ele>194.6</ele><time>2026-04-03T13:40:18.918Z</time></trkpt><trkpt lat="44.062245" lon="8.066905"><ele>189.8</ele><time>2026-04-03T13:40:19.918Z</time></trkpt><trkpt lat="44.062185" lon="8.0670817"><ele>185.0</ele><time>2026-04-03T13:40:21.917Z</time></trkpt><trkpt lat="44.0621333" lon="8.0672033"><ele>185.0</ele><time>2026-04-03T13:40:22.917Z</time></trkpt><trkpt lat="44.0620583" lon="8.06734"><ele>185.0</ele><time>2026-04-03T13:40:23.917Z</time></trkpt><trkpt lat="44.0619617" lon="8.0674733"><ele>185.0</ele><time>2026-04-03T13:40:24.917Z</time></trkpt><trkpt lat="44.061855" lon="8.0675867"><ele>185.0</ele><time>2026-04-03T13:40:25.917Z</time></trkpt><trkpt lat="44.061765" lon="8.067685"><ele>184.8</ele><time>2026-04-03T13:40:26.917Z</time></trkpt><trkpt lat="44.06167" lon="8.067765"><ele>184.6</ele><time>2026-04-03T13:40:27.918Z</time></trkpt><trkpt lat="44.0615917" lon="8.06783"><ele>184.39999999999998</ele><time>2026-04-03T13:40:28.917Z</time></trkpt><trkpt lat="44.0615083" lon="8.0678733"><ele>184.2</ele><time>2026-04-03T13:40:29.917Z</time></trkpt><trkpt lat="44.06143" lon="8.0679117"><ele>184.0</ele><time>2026-04-03T13:40:30.917Z</time></trkpt><trkpt lat="44.061355" lon="8.0679717"><ele>180.6</ele><time>2026-04-03T13:40:31.917Z</time></trkpt><trkpt lat="44.0612767" lon="8.068"><ele>177.2</ele><time>2026-04-03T13:40:32.917Z</time></trkpt><trkpt lat="44.061195" lon="8.068015"><ele>173.79999999999998</ele><time>2026-04-03T13:40:33.917Z</time></trkpt><trkpt lat="44.0611083" lon="8.0680283"><ele>170.39999999999998</ele><time>2026-04-03T13:40:34.917Z</time></trkpt><trkpt lat="44.06102" lon="8.0680833"><ele>167.0</ele><time>2026-04-03T13:40:35.918Z</time></trkpt><trkpt lat="44.0609333" lon="8.06817"><ele>167.0</ele><time>2026-04-03T13:40:36.917Z</time></trkpt><trkpt lat="44.060845" lon="8.0682683"><ele>167.0</ele><time>2026-04-03T13:40:37.918Z</time></trkpt><trkpt lat="44.0607667" lon="8.068355"><ele>167.0</ele><time>2026-04-03T13:40:38.917Z</time></trkpt><trkpt lat="44.06068" lon="8.06842"><ele>167.0</ele><time>2026-04-03T13:40:39.918Z</time></trkpt><trkpt lat="44.06059" lon="8.06846"><ele>167.0</ele><time>2026-04-03T13:40:40.917Z</time></trkpt><trkpt lat="44.0605" lon="8.0684767"><ele>167.57142857142856</ele><time>2026-04-03T13:40:41.917Z</time></trkpt><trkpt lat="44.0604283" lon="8.068445"><ele>168.14285714285714</ele><time>2026-04-03T13:40:42.917Z</time></trkpt><trkpt lat="44.0603583" lon="8.0684417"><ele>168.71428571428572</ele><time>2026-04-03T13:40:43.918Z</time></trkpt><trkpt lat="44.060295" lon="8.0684533"><ele>169.28571428571428</ele><time>2026-04-03T13:40:44.918Z</time></trkpt><trkpt lat="44.0602417" lon="8.0685033"><ele>169.85714285714286</ele><time>2026-04-03T13:40:45.918Z</time></trkpt><trkpt lat="44.060195" lon="8.068585"><ele>170.42857142857142</ele><time>2026-04-03T13:40:46.917Z</time></trkpt><trkpt lat="44.060155" lon="8.0686567"><ele>171.0</ele><time>2026-04-03T13:40:47.917Z</time></trkpt><trkpt lat="44.0600983" lon="8.0687217"><ele>170.99999999999997</ele><time>2026-04-03T13:40:48.917Z</time></trkpt><trkpt lat="44.0600367" lon="8.0687517"><ele>171.0</ele><time>2026-04-03T13:40:49.918Z</time></trkpt><trkpt lat="44.0599617" lon="8.06876"><ele>171.0</ele><time>2026-04-03T13:40:50.917Z</time></trkpt><trkpt lat="44.0598983" lon="8.0687467"><ele>171.0</ele><time>2026-04-03T13:40:51.918Z</time></trkpt><trkpt lat="44.05983" lon="8.06872"><ele>171.0</ele><time>2026-04-03T13:40:52.918Z</time></trkpt><trkpt lat="44.059775" lon="8.0686483"><ele>170.99999999999997</ele><time>2026-04-03T13:40:53.918Z</time></trkpt><trkpt lat="44.05973" lon="8.0685433"><ele>171.0</ele><time>2026-04-03T13:40:54.918Z</time></trkpt><trkpt lat="44.0596883" lon="8.0684083"><ele>164.60000000000002</ele><time>2026-04-03T13:40:55.918Z</time></trkpt><trkpt lat="44.0596517" lon="8.0682683"><ele>158.20000000000002</ele><time>2026-04-03T13:40:56.917Z</time></trkpt><trkpt lat="44.0596133" lon="8.0681383"><ele>151.8</ele><time>2026-04-03T13:40:57.918Z</time></trkpt><trkpt lat="44.0595767" lon="8.0679967"><ele>145.4</ele><time>2026-04-03T13:40:58.918Z</time></trkpt><trkpt lat="44.0595567" lon="8.0678583"><ele>139.0</ele><time>2026-04-03T13:40:59.917Z</time></trkpt><trkpt lat="44.059555" lon="8.0677233"><ele>139.0</ele><time>2026-04-03T13:41:00.917Z</time></trkpt><trkpt lat="44.0595617" lon="8.067585"><ele>139.0</ele><time>2026-04-03T13:41:01.918Z</time></trkpt><trkpt lat="44.0595767" lon="8.0674767"><ele>139.0</ele><time>2026-04-03T13:41:02.918Z</time></trkpt><trkpt lat="44.0596067" lon="8.0673833"><ele>139.0</ele><time>2026-04-03T13:41:03.918Z</time></trkpt><trkpt lat="44.05965" lon="8.0673133"><ele>139.0</ele><time>2026-04-03T13:41:04.917Z</time></trkpt><trkpt lat="44.0597117" lon="8.0672567"><ele>139.0</ele><time>2026-04-03T13:41:05.918Z</time></trkpt><trkpt lat="44.0597867" lon="8.0672167"><ele>139.16666666666669</ele><time>2026-04-03T13:41:06.918Z</time></trkpt><trkpt lat="44.0598633" lon="8.0671883"><ele>139.33333333333334</ele><time>2026-04-03T13:41:07.918Z</time></trkpt><trkpt lat="44.05995" lon="8.0671917"><ele>139.5</ele><time>2026-04-03T13:41:08.918Z</time></trkpt><trkpt lat="44.0600283" lon="8.0672083"><ele>139.66666666666666</ele><time>2026-04-03T13:41:09.918Z</time></trkpt><trkpt lat="44.0601" lon="8.067225"><ele>139.83333333333331</ele><time>2026-04-03T13:41:10.917Z</time></trkpt><trkpt lat="44.0600917" lon="8.0671333"><ele>140.0</ele><time>2026-04-03T13:41:14.918Z</time></trkpt><trkpt lat="44.0600267" lon="8.0670983"><ele>140.0</ele><time>2026-04-03T13:41:15.917Z</time></trkpt><trkpt lat="44.0599667" lon="8.0670433"><ele>140.0</ele><time>2026-04-03T13:41:16.918Z</time></trkpt><trkpt lat="44.05994" lon="8.0669467"><ele>140.0</ele><time>2026-04-03T13:41:18.918Z</time></trkpt><trkpt lat="44.0600433" lon="8.0669"><ele>140.0</ele><time>2026-04-03T13:41:20.917Z</time></trkpt><trkpt lat="44.0601133" lon="8.06687"><ele>140.0</ele><time>2026-04-03T13:41:21.918Z</time></trkpt><trkpt lat="44.0601783" lon="8.06678"><ele>140.0</ele><time>2026-04-03T13:41:23.918Z</time></trkpt><trkpt lat="44.060105" lon="8.06672"><ele>140.0</ele><time>2026-04-03T13:41:25.917Z</time></trkpt><trkpt lat="44.060025" lon="8.0667083"><ele>140.0</ele><time>2026-04-03T13:41:26.917Z</time></trkpt><trkpt lat="44.0599417" lon="8.0666967"><ele>140.0</ele><time>2026-04-03T13:41:27.918Z</time></trkpt><trkpt lat="44.0598417" lon="8.0666933"><ele>140.0</ele><time>2026-04-03T13:41:28.918Z</time></trkpt><trkpt lat="44.059735" lon="8.0666867"><ele>140.0</ele><time>2026-04-03T13:41:29.918Z</time></trkpt><trkpt lat="44.0596267" lon="8.066685"><ele>137.66666666666666</ele><time>2026-04-03T13:41:30.918Z</time></trkpt><trkpt lat="44.0595367" lon="8.0666667"><ele>135.33333333333331</ele><time>2026-04-03T13:41:31.918Z</time></trkpt><trkpt lat="44.0594483" lon="8.06667"><ele>133.0</ele><time>2026-04-03T13:41:32.917Z</time></trkpt><trkpt lat="44.0593617" lon="8.0666883"><ele>130.66666666666666</ele><time>2026-04-03T13:41:33.918Z</time></trkpt><trkpt lat="44.0592867" lon="8.0667067"><ele>128.33333333333334</ele><time>2026-04-03T13:41:34.917Z</time></trkpt><trkpt lat="44.0592167" lon="8.06673"><ele>126.0</ele><time>2026-04-03T13:41:35.918Z</time></trkpt><trkpt lat="44.0591533" lon="8.06672"><ele>126.0</ele><time>2026-04-03T13:41:37.918Z</time></trkpt><trkpt lat="44.0591833" lon="8.066625"><ele>126.0</ele><time>2026-04-03T13:41:39.918Z</time></trkpt><trkpt lat="44.0592483" lon="8.0665233"><ele>126.0</ele><time>2026-04-03T13:41:41.917Z</time></trkpt><trkpt lat="44.059185" lon="8.0664367"><ele>126.0</ele><time>2026-04-03T13:41:44.918Z</time></trkpt><trkpt lat="44.0591167" lon="8.066455"><ele>126.0</ele><time>2026-04-03T13:41:45.918Z</time></trkpt><trkpt lat="44.05904" lon="8.0664783"><ele>126.0</ele><time>2026-04-03T13:41:46.918Z</time></trkpt><trkpt lat="44.05895" lon="8.066525"><ele>122.83333333333333</ele><time>2026-04-03T13:41:47.917Z</time></trkpt><trkpt lat="44.0588717" lon="8.0665917"><ele>119.66666666666666</ele><time>2026-04-03T13:41:48.918Z</time></trkpt><trkpt lat="44.058805" lon="8.0666583"><ele>116.5</ele><time>2026-04-03T13:41:49.917Z</time></trkpt><trkpt lat="44.05874" lon="8.0667283"><ele>113.33333333333333</ele><time>2026-04-03T13:41:50.918Z</time></trkpt><trkpt lat="44.0586733" lon="8.0668017"><ele>110.16666666666666</ele><time>2026-04-03T13:41:51.917Z</time></trkpt><trkpt lat="44.058605" lon="8.06686"><ele>107.0</ele><time>2026-04-03T13:41:52.918Z</time></trkpt><trkpt lat="44.0584883" lon="8.0669533"><ele>107.00000000000001</ele><time>2026-04-03T13:41:54.918Z</time></trkpt><trkpt lat="44.05842" lon="8.0669983"><ele>107.0</ele><time>2026-04-03T13:41:55.918Z</time></trkpt><trkpt lat="44.0583517" lon="8.0670283"><ele>107.0</ele><time>2026-04-03T13:41:56.917Z</time></trkpt><trkpt lat="44.058285" lon="8.067055"><ele>107.0</ele><time>2026-04-03T13:41:57.918Z</time></trkpt><trkpt lat="44.05821" lon="8.0670817"><ele>107.0</ele><time>2026-04-03T13:41:58.917Z</time></trkpt><trkpt lat="44.05814" lon="8.06709"><ele>107.00000000000001</ele><time>2026-04-03T13:41:59.918Z</time></trkpt><trkpt lat="44.0580667" lon="8.0670933"><ele>107.0</ele><time>2026-04-03T13:42:00.918Z</time></trkpt><trkpt lat="44.0580017" lon="8.0671083"><ele>105.33333333333333</ele><time>2026-04-03T13:42:01.918Z</time></trkpt><trkpt lat="44.0579183" lon="8.0671233"><ele>103.66666666666666</ele><time>2026-04-03T13:42:03.918Z</time></trkpt><trkpt lat="44.0578433" lon="8.0670683"><ele>102.0</ele><time>2026-04-03T13:42:06.918Z</time></trkpt><trkpt lat="44.0577883" lon="8.0670067"><ele>100.33333333333334</ele><time>2026-04-03T13:42:08.918Z</time></trkpt><trkpt lat="44.0577133" lon="8.067015"><ele>98.66666666666667</ele><time>2026-04-03T13:42:09.918Z</time></trkpt><trkpt lat="44.0576333" lon="8.0670533"><ele>97.0</ele><time>2026-04-03T13:42:10.917Z</time></trkpt><trkpt lat="44.05755" lon="8.0670833"><ele>97.00000000000001</ele><time>2026-04-03T13:42:11.917Z</time></trkpt><trkpt lat="44.0574617" lon="8.0670917"><ele>97.0</ele><time>2026-04-03T13:42:12.918Z</time></trkpt><trkpt lat="44.05738" lon="8.06711"><ele>97.0</ele><time>2026-04-03T13:42:13.917Z</time></trkpt><trkpt lat="44.0573183" lon="8.0671383"><ele>97.0</ele><time>2026-04-03T13:42:14.917Z</time></trkpt><trkpt lat="44.0572517" lon="8.0671283"><ele>97.00000000000001</ele><time>2026-04-03T13:42:15.917Z</time></trkpt><trkpt lat="44.057175" lon="8.0671217"><ele>97.0</ele><time>2026-04-03T13:42:16.917Z</time></trkpt><trkpt lat="44.0570967" lon="8.0671333"><ele>95.66666666666667</ele><time>2026-04-03T13:42:17.918Z</time></trkpt><trkpt lat="44.0570183" lon="8.067135"><ele>94.33333333333334</ele><time>2026-04-03T13:42:18.918Z</time></trkpt><trkpt lat="44.0569417" lon="8.0671467"><ele>93.0</ele><time>2026-04-03T13:42:19.917Z</time></trkpt><trkpt lat="44.0568683" lon="8.06717"><ele>91.66666666666667</ele><time>2026-04-03T13:42:20.917Z</time></trkpt><trkpt lat="44.0567883" lon="8.0672"><ele>90.33333333333334</ele><time>2026-04-03T13:42:21.917Z</time></trkpt><trkpt lat="44.05672" lon="8.0672517"><ele>89.0</ele><time>2026-04-03T13:42:22.917Z</time></trkpt><trkpt lat="44.0566533" lon="8.0673017"><ele>88.14285714285714</ele><time>2026-04-03T13:42:23.918Z</time></trkpt><trkpt lat="44.05659" lon="8.0673517"><ele>87.28571428571428</ele><time>2026-04-03T13:42:24.918Z</time></trkpt><trkpt lat="44.0565233" lon="8.0673983"><ele>86.42857142857142</ele><time>2026-04-03T13:42:25.917Z</time></trkpt><trkpt lat="44.056465" lon="8.0674467"><ele>85.57142857142857</ele><time>2026-04-03T13:42:26.917Z</time></trkpt><trkpt lat="44.0564067" lon="8.0674867"><ele>84.71428571428572</ele><time>2026-04-03T13:42:27.918Z</time></trkpt><trkpt lat="44.0563467" lon="8.067525"><ele>83.85714285714285</ele><time>2026-04-03T13:42:28.917Z</time></trkpt><trkpt lat="44.0562867" lon="8.0675633"><ele>83.0</ele><time>2026-04-03T13:42:29.918Z</time></trkpt><trkpt lat="44.0562233" lon="8.0675967"><ele>82.4</ele><time>2026-04-03T13:42:30.918Z</time></trkpt><trkpt lat="44.0561033" lon="8.0676617"><ele>81.80000000000001</ele><time>2026-04-03T13:42:32.917Z</time></trkpt><trkpt lat="44.0560267" lon="8.067685"><ele>81.2</ele><time>2026-04-03T13:42:33.918Z</time></trkpt><trkpt lat="44.05594" lon="8.0677083"><ele>80.6</ele><time>2026-04-03T13:42:34.918Z</time></trkpt><trkpt lat="44.0558517" lon="8.06772"><ele>80.0</ele><time>2026-04-03T13:42:35.918Z</time></trkpt><trkpt lat="44.0557633" lon="8.0677067"><ele>79.0</ele><time>2026-04-03T13:42:36.918Z</time></trkpt><trkpt lat="44.0556767" lon="8.0676783"><ele>78.0</ele><time>2026-04-03T13:42:37.918Z</time></trkpt><trkpt lat="44.05559" lon="8.067635"><ele>77.0</ele><time>2026-04-03T13:42:38.917Z</time></trkpt><trkpt lat="44.0554967" lon="8.0675717"><ele>76.0</ele><time>2026-04-03T13:42:39.917Z</time></trkpt><trkpt lat="44.0554167" lon="8.0675"><ele>75.0</ele><time>2026-04-03T13:42:40.918Z</time></trkpt><trkpt lat="44.05534" lon="8.0674283"><ele>75.0</ele><time>2026-04-03T13:42:41.918Z</time></trkpt><trkpt lat="44.05526" lon="8.0673483"><ele>75.0</ele><time>2026-04-03T13:42:42.918Z</time></trkpt><trkpt lat="44.0552133" lon="8.0672667"><ele>75.0</ele><time>2026-04-03T13:42:43.918Z</time></trkpt><trkpt lat="44.05516" lon="8.0671917"><ele>75.0</ele><time>2026-04-03T13:42:45.918Z</time></trkpt><trkpt lat="44.0551083" lon="8.0671083"><ele>75.0</ele><time>2026-04-03T13:43:08.918Z</time></trkpt><trkpt lat="44.0550267" lon="8.0670767"><ele>75.0</ele><time>2026-04-03T13:43:13.918Z</time></trkpt><trkpt lat="44.054965" lon="8.067035"><ele>75.0</ele><time>2026-04-03T13:43:15.918Z</time></trkpt><trkpt lat="44.0549433" lon="8.066925"><ele>75.0</ele><time>2026-04-03T13:43:18.918Z</time></trkpt><trkpt lat="44.0549317" lon="8.06683"><ele>75.0</ele><time>2026-04-03T13:43:20.917Z</time></trkpt><trkpt lat="44.054945" lon="8.0667217"><ele>75.0</ele><time>2026-04-03T13:43:24.918Z</time></trkpt><trkpt lat="44.05495" lon="8.0668383"><ele>75.0</ele><time>2026-04-03T13:43:35.918Z</time></trkpt><trkpt lat="44.05495" lon="8.06696"><ele>75.0</ele><time>2026-04-03T13:43:37.917Z</time></trkpt><trkpt lat="44.054995" lon="8.067045"><ele>75.0</ele><time>2026-04-03T13:43:41.918Z</time></trkpt><trkpt lat="44.0550917" lon="8.0669367"><ele>75.0</ele><time>2026-04-03T13:43:56.918Z</time></trkpt><trkpt lat="44.05513" lon="8.0668367"><ele>75.0</ele><time>2026-04-03T13:43:57.918Z</time></trkpt><trkpt lat="44.0551667" lon="8.0666933"><ele>75.0</ele><time>2026-04-03T13:43:58.918Z</time></trkpt><trkpt lat="44.055205" lon="8.0665167"><ele>75.0</ele><time>2026-04-03T13:43:59.918Z</time></trkpt><trkpt lat="44.0552483" lon="8.06632"><ele>76.0</ele><time>2026-04-03T13:44:00.918Z</time></trkpt><trkpt lat="44.0552967" lon="8.0661167"><ele>77.0</ele><time>2026-04-03T13:44:01.917Z</time></trkpt><trkpt lat="44.055345" lon="8.065905"><ele>78.0</ele><time>2026-04-03T13:44:02.918Z</time></trkpt><trkpt lat="44.0554017" lon="8.0656917"><ele>78.0</ele><time>2026-04-03T13:44:03.917Z</time></trkpt><trkpt lat="44.0554667" lon="8.0654983"><ele>78.0</ele><time>2026-04-03T13:44:04.918Z</time></trkpt><trkpt lat="44.055525" lon="8.0653017"><ele>78.0</ele><time>2026-04-03T13:44:05.918Z</time></trkpt><trkpt lat="44.0555783" lon="8.0650883"><ele>77.75</ele><time>2026-04-03T13:44:06.918Z</time></trkpt><trkpt lat="44.0556233" lon="8.0648883"><ele>77.5</ele><time>2026-04-03T13:44:07.917Z</time></trkpt><trkpt lat="44.0556783" lon="8.0647033"><ele>77.25</ele><time>2026-04-03T13:44:08.918Z</time></trkpt><trkpt lat="44.0557217" lon="8.0645183"><ele>77.0</ele><time>2026-04-03T13:44:09.918Z</time></trkpt><trkpt lat="44.0557583" lon="8.0643333"><ele>78.0</ele><time>2026-04-03T13:44:10.918Z</time></trkpt><trkpt lat="44.0558033" lon="8.0641517"><ele>79.0</ele><time>2026-04-03T13:44:11.917Z</time></trkpt><trkpt lat="44.0558517" lon="8.06398"><ele>80.0</ele><time>2026-04-03T13:44:12.918Z</time></trkpt><trkpt lat="44.055905" lon="8.0638"><ele>81.0</ele><time>2026-04-03T13:44:13.917Z</time></trkpt><trkpt lat="44.05595" lon="8.0636317"><ele>81.0</ele><time>2026-04-03T13:44:14.918Z</time></trkpt><trkpt lat="44.0559883" lon="8.0634783"><ele>81.0</ele><time>2026-04-03T13:44:15.917Z</time></trkpt><trkpt lat="44.05602" lon="8.063325"><ele>81.0</ele><time>2026-04-03T13:44:16.917Z</time></trkpt><trkpt lat="44.0560483" lon="8.06318"><ele>81.0</ele><time>2026-04-03T13:44:17.918Z</time></trkpt><trkpt lat="44.05607" lon="8.0630767"><ele>81.0</ele><time>2026-04-03T13:44:18.918Z</time></trkpt><trkpt lat="44.0560533" lon="8.06294"><ele>80.83333333333333</ele><time>2026-04-03T13:44:20.918Z</time></trkpt><trkpt lat="44.0559267" lon="8.0628733"><ele>80.66666666666667</ele><time>2026-04-03T13:44:22.918Z</time></trkpt><trkpt lat="44.055835" lon="8.0628667"><ele>80.5</ele><time>2026-04-03T13:44:23.918Z</time></trkpt><trkpt lat="44.0557533" lon="8.062865"><ele>80.33333333333334</ele><time>2026-04-03T13:44:24.918Z</time></trkpt><trkpt lat="44.0556833" lon="8.06288"><ele>80.16666666666667</ele><time>2026-04-03T13:44:25.917Z</time></trkpt><trkpt lat="44.0556233" lon="8.06291"><ele>80.0</ele><time>2026-04-03T13:44:26.917Z</time></trkpt><trkpt lat="44.0555183" lon="8.06292"><ele>80.0</ele><time>2026-04-03T13:44:28.917Z</time></trkpt><trkpt lat="44.0554483" lon="8.0628817"><ele>80.0</ele><time>2026-04-03T13:44:30.918Z</time></trkpt><trkpt lat="44.0553833" lon="8.062845"><ele>80.0</ele><time>2026-04-03T13:44:33.917Z</time></trkpt><trkpt lat="44.0553233" lon="8.0628183"><ele>80.0</ele><time>2026-04-03T13:44:44.918Z</time></trkpt><trkpt lat="44.0552067" lon="8.06274"><ele>80.0</ele><time>2026-04-03T13:44:46.917Z</time></trkpt><trkpt lat="44.05514" lon="8.06271"><ele>80.0</ele><time>2026-04-03T13:44:47.918Z</time></trkpt><trkpt lat="44.0550483" lon="8.0626517"><ele>80.0</ele><time>2026-04-03T13:44:49.917Z</time></trkpt><trkpt lat="44.0550017" lon="8.0625283"><ele>80.0</ele><time>2026-04-03T13:44:51.917Z</time></trkpt><trkpt lat="44.0549783" lon="8.06235"><ele>80.0</ele><time>2026-04-03T13:44:53.918Z</time></trkpt><trkpt lat="44.0549667" lon="8.0622283"><ele>80.0</ele><time>2026-04-03T13:44:54.918Z</time></trkpt><trkpt lat="44.054945" lon="8.0621"><ele>80.0</ele><time>2026-04-03T13:44:55.918Z</time></trkpt><trkpt lat="44.054905" lon="8.0620083"><ele>83.16666666666667</ele><time>2026-04-03T13:44:56.918Z</time></trkpt><trkpt lat="44.0547917" lon="8.06192"><ele>86.33333333333334</ele><time>2026-04-03T13:44:58.918Z</time></trkpt><trkpt lat="44.054715" lon="8.0619217"><ele>89.5</ele><time>2026-04-03T13:44:59.917Z</time></trkpt><trkpt lat="44.0546567" lon="8.061965"><ele>92.66666666666667</ele><time>2026-04-03T13:45:00.918Z</time></trkpt><trkpt lat="44.0546117" lon="8.0620883"><ele>95.83333333333333</ele><time>2026-04-03T13:45:02.918Z</time></trkpt><trkpt lat="44.05461" lon="8.0621867"><ele>99.0</ele><time>2026-04-03T13:45:03.918Z</time></trkpt><trkpt lat="44.0546217" lon="8.06229"><ele>99.0</ele><time>2026-04-03T13:45:04.917Z</time></trkpt><trkpt lat="44.05462" lon="8.0624217"><ele>99.0</ele><time>2026-04-03T13:45:05.918Z</time></trkpt><trkpt lat="44.0545983" lon="8.06257"><ele>99.0</ele><time>2026-04-03T13:45:06.918Z</time></trkpt><trkpt lat="44.054575" lon="8.0627233"><ele>99.0</ele><time>2026-04-03T13:45:07.918Z</time></trkpt><trkpt lat="44.0545417" lon="8.0628783"><ele>99.0</ele><time>2026-04-03T13:45:08.917Z</time></trkpt><trkpt lat="44.0545117" lon="8.0630233"><ele>102.0</ele><time>2026-04-03T13:45:09.918Z</time></trkpt><trkpt lat="44.0544683" lon="8.0631767"><ele>105.0</ele><time>2026-04-03T13:45:10.917Z</time></trkpt><trkpt lat="44.0544117" lon="8.063345"><ele>108.0</ele><time>2026-04-03T13:45:11.918Z</time></trkpt><trkpt lat="44.0543633" lon="8.0635"><ele>111.0</ele><time>2026-04-03T13:45:12.918Z</time></trkpt><trkpt lat="44.054315" lon="8.0636517"><ele>111.25</ele><time>2026-04-03T13:45:13.918Z</time></trkpt><trkpt lat="44.0542583" lon="8.0637917"><ele>111.5</ele><time>2026-04-03T13:45:14.918Z</time></trkpt><trkpt lat="44.0542133" lon="8.0639433"><ele>111.75</ele><time>2026-04-03T13:45:15.918Z</time></trkpt><trkpt lat="44.0541783" lon="8.0641133"><ele>112.0</ele><time>2026-04-03T13:45:16.918Z</time></trkpt><trkpt lat="44.054145" lon="8.0642867"><ele>114.39999999999999</ele><time>2026-04-03T13:45:17.917Z</time></trkpt><trkpt lat="44.0541133" lon="8.0644467"><ele>116.79999999999998</ele><time>2026-04-03T13:45:18.917Z</time></trkpt><trkpt lat="44.05407" lon="8.0646033"><ele>119.2</ele><time>2026-04-03T13:45:19.917Z</time></trkpt><trkpt lat="44.0540167" lon="8.0647433"><ele>121.6</ele><time>2026-04-03T13:45:20.918Z</time></trkpt><trkpt lat="44.0539817" lon="8.064855"><ele>124.0</ele><time>2026-04-03T13:45:21.918Z</time></trkpt><trkpt lat="44.0539567" lon="8.0649667"><ele>124.0</ele><time>2026-04-03T13:45:22.917Z</time></trkpt><trkpt lat="44.05395" lon="8.0650883"><ele>124.0</ele><time>2026-04-03T13:45:23.918Z</time></trkpt><trkpt lat="44.053945" lon="8.065225"><ele>124.0</ele><time>2026-04-03T13:45:24.918Z</time></trkpt><trkpt lat="44.05393" lon="8.06538"><ele>124.0</ele><time>2026-04-03T13:45:25.918Z</time></trkpt><trkpt lat="44.0539" lon="8.0655383"><ele>124.0</ele><time>2026-04-03T13:45:26.918Z</time></trkpt><trkpt lat="44.0538617" lon="8.06572"><ele>122.0</ele><time>2026-04-03T13:45:27.917Z</time></trkpt><trkpt lat="44.0538217" lon="8.065905"><ele>120.0</ele><time>2026-04-03T13:45:28.918Z</time></trkpt><trkpt lat="44.053775" lon="8.0660667"><ele>118.0</ele><time>2026-04-03T13:45:29.917Z</time></trkpt><trkpt lat="44.0537317" lon="8.0662033"><ele>116.0</ele><time>2026-04-03T13:45:30.917Z</time></trkpt><trkpt lat="44.05369" lon="8.06632"><ele>115.99999999999999</ele><time>2026-04-03T13:45:31.918Z</time></trkpt><trkpt lat="44.0536383" lon="8.06641"><ele>116.0</ele><time>2026-04-03T13:45:32.918Z</time></trkpt><trkpt lat="44.0535867" lon="8.0665083"><ele>116.0</ele><time>2026-04-03T13:45:33.918Z</time></trkpt><trkpt lat="44.0535483" lon="8.0666"><ele>116.0</ele><time>2026-04-03T13:45:34.918Z</time></trkpt><trkpt lat="44.0535133" lon="8.0667"><ele>115.99999999999999</ele><time>2026-04-03T13:45:35.917Z</time></trkpt><trkpt lat="44.0534767" lon="8.0668067"><ele>116.0</ele><time>2026-04-03T13:45:36.918Z</time></trkpt><trkpt lat="44.05344" lon="8.0669067"><ele>113.49999999999999</ele><time>2026-04-03T13:45:37.918Z</time></trkpt><trkpt lat="44.0534083" lon="8.0669983"><ele>111.0</ele><time>2026-04-03T13:45:38.918Z</time></trkpt><trkpt lat="44.0533733" lon="8.0670817"><ele>108.5</ele><time>2026-04-03T13:45:39.918Z</time></trkpt><trkpt lat="44.0533267" lon="8.0672533"><ele>106.0</ele><time>2026-04-03T13:45:41.917Z</time></trkpt><trkpt lat="44.053315" lon="8.0673583"><ele>103.49999999999999</ele><time>2026-04-03T13:45:42.918Z</time></trkpt><trkpt lat="44.05329" lon="8.0674583"><ele>101.0</ele><time>2026-04-03T13:45:43.918Z</time></trkpt><trkpt lat="44.0532617" lon="8.0675633"><ele>107.99999999999999</ele><time>2026-04-03T13:45:44.917Z</time></trkpt><trkpt lat="44.0532317" lon="8.06765"><ele>115.0</ele><time>2026-04-03T13:45:45.917Z</time></trkpt><trkpt lat="44.0531883" lon="8.067745"><ele>122.0</ele><time>2026-04-03T13:45:46.918Z</time></trkpt><trkpt lat="44.053125" lon="8.0678233"><ele>129.0</ele><time>2026-04-03T13:45:47.918Z</time></trkpt><trkpt lat="44.0530667" lon="8.0679217"><ele>136.0</ele><time>2026-04-03T13:45:48.918Z</time></trkpt><trkpt lat="44.05301" lon="8.0680283"><ele>143.0</ele><time>2026-04-03T13:45:49.918Z</time></trkpt><trkpt lat="44.05297" lon="8.06815"><ele>139.0</ele><time>2026-04-03T13:45:50.918Z</time></trkpt><trkpt lat="44.052945" lon="8.0682867"><ele>135.0</ele><time>2026-04-03T13:45:51.918Z</time></trkpt><trkpt lat="44.0529167" lon="8.068435"><ele>131.0</ele><time>2026-04-03T13:45:52.918Z</time></trkpt><trkpt lat="44.05288" lon="8.0685867"><ele>127.0</ele><time>2026-04-03T13:45:53.918Z</time></trkpt><trkpt lat="44.052835" lon="8.0687283"><ele>123.0</ele><time>2026-04-03T13:45:54.917Z</time></trkpt><trkpt lat="44.0527883" lon="8.0688667"><ele>123.0</ele><time>2026-04-03T13:45:55.918Z</time></trkpt><trkpt lat="44.052765" lon="8.0690183"><ele>123.00000000000001</ele><time>2026-04-03T13:45:56.918Z</time></trkpt><trkpt lat="44.0527367" lon="8.06916"><ele>123.00000000000001</ele><time>2026-04-03T13:45:57.918Z</time></trkpt><trkpt lat="44.0527183" lon="8.0693083"><ele>123.0</ele><time>2026-04-03T13:45:58.918Z</time></trkpt><trkpt lat="44.0527117" lon="8.069435"><ele>123.0</ele><time>2026-04-03T13:45:59.918Z</time></trkpt><trkpt lat="44.0527183" lon="8.0695717"><ele>119.0</ele><time>2026-04-03T13:46:00.918Z</time></trkpt><trkpt lat="44.05274" lon="8.06969"><ele>115.00000000000001</ele><time>2026-04-03T13:46:01.918Z</time></trkpt><trkpt lat="44.0527467" lon="8.0698183"><ele>111.0</ele><time>2026-04-03T13:46:02.917Z</time></trkpt><trkpt lat="44.0527333" lon="8.0699583"><ele>107.0</ele><time>2026-04-03T13:46:03.917Z</time></trkpt><trkpt lat="44.052695" lon="8.07012"><ele>103.0</ele><time>2026-04-03T13:46:04.917Z</time></trkpt><trkpt lat="44.0526583" lon="8.070275"><ele>100.75</ele><time>2026-04-03T13:46:05.917Z</time></trkpt><trkpt lat="44.0526167" lon="8.0704317"><ele>98.5</ele><time>2026-04-03T13:46:06.918Z</time></trkpt><trkpt lat="44.0525767" lon="8.0705783"><ele>96.25</ele><time>2026-04-03T13:46:07.918Z</time></trkpt><trkpt lat="44.05253" lon="8.070725"><ele>94.0</ele><time>2026-04-03T13:46:08.917Z</time></trkpt><trkpt lat="44.0524883" lon="8.070875"><ele>106.0</ele><time>2026-04-03T13:46:09.918Z</time></trkpt><trkpt lat="44.052435" lon="8.0710267"><ele>118.0</ele><time>2026-04-03T13:46:10.918Z</time></trkpt><trkpt lat="44.0523883" lon="8.071155"><ele>130.0</ele><time>2026-04-03T13:46:11.918Z</time></trkpt><trkpt lat="44.0523533" lon="8.0712717"><ele>142.0</ele><time>2026-04-03T13:46:12.917Z</time></trkpt><trkpt lat="44.0523283" lon="8.07138"><ele>154.0</ele><time>2026-04-03T13:46:13.918Z</time></trkpt><trkpt lat="44.0523083" lon="8.0714967"><ele>150.0</ele><time>2026-04-03T13:46:14.918Z</time></trkpt><trkpt lat="44.0522983" lon="8.0716133"><ele>146.0</ele><time>2026-04-03T13:46:15.917Z</time></trkpt><trkpt lat="44.0523017" lon="8.071745"><ele>142.0</ele><time>2026-04-03T13:46:16.918Z</time></trkpt><trkpt lat="44.0522983" lon="8.0718767"><ele>138.0</ele><time>2026-04-03T13:46:17.918Z</time></trkpt><trkpt lat="44.052315" lon="8.0720267"><ele>134.0</ele><time>2026-04-03T13:46:18.918Z</time></trkpt><trkpt lat="44.0523417" lon="8.0721767"><ele>134.0</ele><time>2026-04-03T13:46:19.918Z</time></trkpt><trkpt lat="44.0523517" lon="8.0723117"><ele>134.0</ele><time>2026-04-03T13:46:20.918Z</time></trkpt><trkpt lat="44.0523483" lon="8.0724483"><ele>134.0</ele><time>2026-04-03T13:46:21.917Z</time></trkpt><trkpt lat="44.0523217" lon="8.0725683"><ele>134.0</ele><time>2026-04-03T13:46:22.918Z</time></trkpt><trkpt lat="44.0522833" lon="8.072685"><ele>134.0</ele><time>2026-04-03T13:46:23.918Z</time></trkpt><trkpt lat="44.05225" lon="8.0728167"><ele>131.5</ele><time>2026-04-03T13:46:24.918Z</time></trkpt><trkpt lat="44.0522333" lon="8.0729767"><ele>129.0</ele><time>2026-04-03T13:46:25.918Z</time></trkpt><trkpt lat="44.052235" lon="8.0731517"><ele>126.5</ele><time>2026-04-03T13:46:26.918Z</time></trkpt><trkpt lat="44.0522567" lon="8.0733367"><ele>124.0</ele><time>2026-04-03T13:46:27.918Z</time></trkpt><trkpt lat="44.052285" lon="8.0735283"><ele>122.75</ele><time>2026-04-03T13:46:28.917Z</time></trkpt><trkpt lat="44.0523" lon="8.0737233"><ele>121.5</ele><time>2026-04-03T13:46:29.918Z</time></trkpt><trkpt lat="44.0523267" lon="8.0738767"><ele>120.25</ele><time>2026-04-03T13:46:30.917Z</time></trkpt><trkpt lat="44.05235" lon="8.07402"><ele>119.0</ele><time>2026-04-03T13:46:31.917Z</time></trkpt><trkpt lat="44.052365" lon="8.0741467"><ele>118.80000000000001</ele><time>2026-04-03T13:46:32.917Z</time></trkpt><trkpt lat="44.0523717" lon="8.0742817"><ele>118.60000000000001</ele><time>2026-04-03T13:46:33.918Z</time></trkpt><trkpt lat="44.0523667" lon="8.0744283"><ele>118.4</ele><time>2026-04-03T13:46:34.918Z</time></trkpt><trkpt lat="44.0523417" lon="8.074595"><ele>118.2</ele><time>2026-04-03T13:46:35.917Z</time></trkpt><trkpt lat="44.052315" lon="8.07476"><ele>118.0</ele><time>2026-04-03T13:46:36.918Z</time></trkpt><trkpt lat="44.0522883" lon="8.0749283"><ele>117.4</ele><time>2026-04-03T13:46:37.918Z</time></trkpt><trkpt lat="44.0522617" lon="8.0750783"><ele>116.80000000000001</ele><time>2026-04-03T13:46:38.918Z</time></trkpt><trkpt lat="44.0522467" lon="8.07522"><ele>116.2</ele><time>2026-04-03T13:46:39.917Z</time></trkpt><trkpt lat="44.0522367" lon="8.0753683"><ele>115.6</ele><time>2026-04-03T13:46:40.918Z</time></trkpt><trkpt lat="44.052245" lon="8.07552"><ele>115.0</ele><time>2026-04-03T13:46:41.918Z</time></trkpt><trkpt lat="44.0522583" lon="8.0756617"><ele>115.75</ele><time>2026-04-03T13:46:42.918Z</time></trkpt><trkpt lat="44.0522917" lon="8.0757983"><ele>116.5</ele><time>2026-04-03T13:46:43.917Z</time></trkpt><trkpt lat="44.05231" lon="8.075965"><ele>117.25</ele><time>2026-04-03T13:46:44.918Z</time></trkpt><trkpt lat="44.0523217" lon="8.076145"><ele>118.0</ele><time>2026-04-03T13:46:45.918Z</time></trkpt><trkpt lat="44.052335" lon="8.0763267"><ele>118.0</ele><time>2026-04-03T13:46:46.917Z</time></trkpt><trkpt lat="44.0523417" lon="8.0765133"><ele>118.0</ele><time>2026-04-03T13:46:47.917Z</time></trkpt><trkpt lat="44.0523417" lon="8.0766983"><ele>118.0</ele><time>2026-04-03T13:46:48.917Z</time></trkpt><trkpt lat="44.052355" lon="8.0768817"><ele>118.0</ele><time>2026-04-03T13:46:49.918Z</time></trkpt><trkpt lat="44.052365" lon="8.0770583"><ele>118.60000000000001</ele><time>2026-04-03T13:46:50.918Z</time></trkpt><trkpt lat="44.052365" lon="8.07722"><ele>119.20000000000002</ele><time>2026-04-03T13:46:51.918Z</time></trkpt><trkpt lat="44.052345" lon="8.0773817"><ele>119.8</ele><time>2026-04-03T13:46:52.918Z</time></trkpt><trkpt lat="44.0523217" lon="8.0775283"><ele>120.4</ele><time>2026-04-03T13:46:53.917Z</time></trkpt><trkpt lat="44.0523183" lon="8.077665"><ele>121.0</ele><time>2026-04-03T13:46:54.918Z</time></trkpt><trkpt lat="44.0523317" lon="8.07782"><ele>121.25</ele><time>2026-04-03T13:46:55.917Z</time></trkpt><trkpt lat="44.0523517" lon="8.077975"><ele>121.5</ele><time>2026-04-03T13:46:56.918Z</time></trkpt><trkpt lat="44.05238" lon="8.0781267"><ele>121.75</ele><time>2026-04-03T13:46:57.917Z</time></trkpt><trkpt lat="44.0524233" lon="8.078265"><ele>122.0</ele><time>2026-04-03T13:46:58.917Z</time></trkpt><trkpt lat="44.0524683" lon="8.07842"><ele>114.8</ele><time>2026-04-03T13:46:59.918Z</time></trkpt><trkpt lat="44.05251" lon="8.0785783"><ele>107.6</ele><time>2026-04-03T13:47:00.917Z</time></trkpt><trkpt lat="44.05254" lon="8.078705"><ele>100.39999999999999</ele><time>2026-04-03T13:47:01.918Z</time></trkpt><trkpt lat="44.0525533" lon="8.078835"><ele>93.19999999999999</ele><time>2026-04-03T13:47:02.918Z</time></trkpt><trkpt lat="44.05257" lon="8.0789817"><ele>86.0</ele><time>2026-04-03T13:47:03.918Z</time></trkpt><trkpt lat="44.052595" lon="8.0791233"><ele>86.0</ele><time>2026-04-03T13:47:04.917Z</time></trkpt><trkpt lat="44.05262" lon="8.0792583"><ele>86.0</ele><time>2026-04-03T13:47:05.918Z</time></trkpt><trkpt lat="44.0526417" lon="8.0794033"><ele>86.0</ele><time>2026-04-03T13:47:06.918Z</time></trkpt><trkpt lat="44.0526267" lon="8.0795567"><ele>86.0</ele><time>2026-04-03T13:47:07.918Z</time></trkpt><trkpt lat="44.0526" lon="8.0797283"><ele>86.0</ele><time>2026-04-03T13:47:08.918Z</time></trkpt><trkpt lat="44.0525683" lon="8.0799033"><ele>85.25</ele><time>2026-04-03T13:47:09.918Z</time></trkpt><trkpt lat="44.0525483" lon="8.0800883"><ele>84.5</ele><time>2026-04-03T13:47:10.918Z</time></trkpt><trkpt lat="44.052535" lon="8.0802767"><ele>83.75</ele><time>2026-04-03T13:47:11.918Z</time></trkpt><trkpt lat="44.0525233" lon="8.0804667"><ele>83.0</ele><time>2026-04-03T13:47:12.918Z</time></trkpt><trkpt lat="44.0525017" lon="8.08066"><ele>82.0</ele><time>2026-04-03T13:47:13.918Z</time></trkpt><trkpt lat="44.05248" lon="8.0808583"><ele>81.0</ele><time>2026-04-03T13:47:14.917Z</time></trkpt><trkpt lat="44.05246" lon="8.0810367"><ele>80.0</ele><time>2026-04-03T13:47:15.918Z</time></trkpt><trkpt lat="44.05244" lon="8.081225"><ele>79.0</ele><time>2026-04-03T13:47:16.917Z</time></trkpt><trkpt lat="44.0524" lon="8.08142"><ele>89.5</ele><time>2026-04-03T13:47:17.918Z</time></trkpt><trkpt lat="44.0523583" lon="8.0816067"><ele>100.0</ele><time>2026-04-03T13:47:18.918Z</time></trkpt><trkpt lat="44.05232" lon="8.0818133"><ele>110.5</ele><time>2026-04-03T13:47:19.918Z</time></trkpt><trkpt lat="44.0522783" lon="8.0820033"><ele>121.0</ele><time>2026-04-03T13:47:20.917Z</time></trkpt><trkpt lat="44.05225" lon="8.0821833"><ele>121.0</ele><time>2026-04-03T13:47:21.918Z</time></trkpt><trkpt lat="44.0522267" lon="8.0823567"><ele>121.0</ele><time>2026-04-03T13:47:22.918Z</time></trkpt><trkpt lat="44.0522" lon="8.0825233"><ele>121.0</ele><time>2026-04-03T13:47:23.918Z</time></trkpt><trkpt lat="44.052195" lon="8.082685"><ele>121.0</ele><time>2026-04-03T13:47:24.918Z</time></trkpt><trkpt lat="44.052205" lon="8.08284"><ele>117.25</ele><time>2026-04-03T13:47:25.917Z</time></trkpt><trkpt lat="44.0522033" lon="8.082985"><ele>113.5</ele><time>2026-04-03T13:47:26.918Z</time></trkpt><trkpt lat="44.0521817" lon="8.083165"><ele>109.75</ele><time>2026-04-03T13:47:27.917Z</time></trkpt><trkpt lat="44.0521383" lon="8.0833483"><ele>106.0</ele><time>2026-04-03T13:47:28.918Z</time></trkpt><trkpt lat="44.05209" lon="8.0835467"><ele>104.66666666666667</ele><time>2026-04-03T13:47:29.918Z</time></trkpt><trkpt lat="44.0520433" lon="8.08375"><ele>103.33333333333334</ele><time>2026-04-03T13:47:30.918Z</time></trkpt><trkpt lat="44.05201" lon="8.0839433"><ele>102.0</ele><time>2026-04-03T13:47:31.918Z</time></trkpt><trkpt lat="44.0519817" lon="8.0841633"><ele>100.5</ele><time>2026-04-03T13:47:32.918Z</time></trkpt><trkpt lat="44.05195" lon="8.0843833"><ele>99.0</ele><time>2026-04-03T13:47:33.917Z</time></trkpt><trkpt lat="44.0519467" lon="8.0845833"><ele>97.5</ele><time>2026-04-03T13:47:34.918Z</time></trkpt><trkpt lat="44.05194" lon="8.0847833"><ele>96.0</ele><time>2026-04-03T13:47:35.918Z</time></trkpt><trkpt lat="44.0519183" lon="8.0849767"><ele>96.0</ele><time>2026-04-03T13:47:36.917Z</time></trkpt><trkpt lat="44.0519017" lon="8.0851733"><ele>96.0</ele><time>2026-04-03T13:47:37.917Z</time></trkpt><trkpt lat="44.0518917" lon="8.0853633"><ele>96.0</ele><time>2026-04-03T13:47:38.918Z</time></trkpt><trkpt lat="44.051895" lon="8.08558"><ele>96.0</ele><time>2026-04-03T13:47:39.918Z</time></trkpt><trkpt lat="44.0518967" lon="8.0857783"><ele>96.4</ele><time>2026-04-03T13:47:40.918Z</time></trkpt><trkpt lat="44.0519033" lon="8.085955"><ele>96.8</ele><time>2026-04-03T13:47:41.918Z</time></trkpt><trkpt lat="44.0519133" lon="8.08612"><ele>97.2</ele><time>2026-04-03T13:47:42.918Z</time></trkpt><trkpt lat="44.05194" lon="8.0862517"><ele>97.60000000000001</ele><time>2026-04-03T13:47:43.918Z</time></trkpt><trkpt lat="44.0519933" lon="8.0863633"><ele>98.0</ele><time>2026-04-03T13:47:44.917Z</time></trkpt><trkpt lat="44.05202" lon="8.0864567"><ele>97.99999999999999</ele><time>2026-04-03T13:47:45.918Z</time></trkpt><trkpt lat="44.052065" lon="8.0865783"><ele>98.0</ele><time>2026-04-03T13:47:47.918Z</time></trkpt><trkpt lat="44.0520883" lon="8.0866717"><ele>98.0</ele><time>2026-04-03T13:48:07.918Z</time></trkpt><trkpt lat="44.0521017" lon="8.0867833"><ele>98.0</ele><time>2026-04-03T13:48:09.918Z</time></trkpt><trkpt lat="44.05211" lon="8.08694"><ele>97.99999999999999</ele><time>2026-04-03T13:48:11.918Z</time></trkpt><trkpt lat="44.0520983" lon="8.0870417"><ele>98.0</ele><time>2026-04-03T13:48:12.917Z</time></trkpt><trkpt lat="44.0520883" lon="8.0871517"><ele>99.4</ele><time>2026-04-03T13:48:13.918Z</time></trkpt><trkpt lat="44.0520717" lon="8.0872733"><ele>100.80000000000001</ele><time>2026-04-03T13:48:14.918Z</time></trkpt><trkpt lat="44.0520467" lon="8.0874033"><ele>102.2</ele><time>2026-04-03T13:48:15.917Z</time></trkpt><trkpt lat="44.05202" lon="8.0875533"><ele>103.6</ele><time>2026-04-03T13:48:16.918Z</time></trkpt><trkpt lat="44.051995" lon="8.0877183"><ele>105.0</ele><time>2026-04-03T13:48:17.918Z</time></trkpt><trkpt lat="44.051975" lon="8.08789"><ele>105.25</ele><time>2026-04-03T13:48:18.917Z</time></trkpt><trkpt lat="44.0519717" lon="8.0880533"><ele>105.5</ele><time>2026-04-03T13:48:19.918Z</time></trkpt><trkpt lat="44.0519583" lon="8.0882183"><ele>105.75</ele><time>2026-04-03T13:48:20.918Z</time></trkpt><trkpt lat="44.0519317" lon="8.0883883"><ele>106.0</ele><time>2026-04-03T13:48:21.918Z</time></trkpt><trkpt lat="44.0519017" lon="8.0885567"><ele>105.25</ele><time>2026-04-03T13:48:22.918Z</time></trkpt><trkpt lat="44.0518833" lon="8.08874"><ele>104.5</ele><time>2026-04-03T13:48:23.918Z</time></trkpt><trkpt lat="44.05187" lon="8.0889167"><ele>103.75</ele><time>2026-04-03T13:48:24.918Z</time></trkpt><trkpt lat="44.0518683" lon="8.0891"><ele>103.0</ele><time>2026-04-03T13:48:25.918Z</time></trkpt><trkpt lat="44.0518867" lon="8.08928"><ele>102.2</ele><time>2026-04-03T13:48:26.918Z</time></trkpt><trkpt lat="44.0519033" lon="8.0894367"><ele>101.4</ele><time>2026-04-03T13:48:27.917Z</time></trkpt><trkpt lat="44.051925" lon="8.0895817"><ele>100.60000000000001</ele><time>2026-04-03T13:48:28.918Z</time></trkpt><trkpt lat="44.0519167" lon="8.0897183"><ele>99.80000000000001</ele><time>2026-04-03T13:48:29.917Z</time></trkpt><trkpt lat="44.05191" lon="8.0898433"><ele>99.0</ele><time>2026-04-03T13:48:30.918Z</time></trkpt><trkpt lat="44.0518983" lon="8.0899733"><ele>98.0</ele><time>2026-04-03T13:48:31.918Z</time></trkpt><trkpt lat="44.0518683" lon="8.0901083"><ele>97.0</ele><time>2026-04-03T13:48:32.918Z</time></trkpt><trkpt lat="44.051865" lon="8.0902483"><ele>96.0</ele><time>2026-04-03T13:48:33.918Z</time></trkpt><trkpt lat="44.0518583" lon="8.0903917"><ele>95.0</ele><time>2026-04-03T13:48:34.917Z</time></trkpt><trkpt lat="44.051845" lon="8.090545"><ele>94.0</ele><time>2026-04-03T13:48:35.917Z</time></trkpt><trkpt lat="44.05183" lon="8.0907133"><ele>93.0</ele><time>2026-04-03T13:48:36.917Z</time></trkpt><trkpt lat="44.05181" lon="8.09089"><ele>92.0</ele><time>2026-04-03T13:48:37.918Z</time></trkpt><trkpt lat="44.0517767" lon="8.0910733"><ele>91.0</ele><time>2026-04-03T13:48:38.918Z</time></trkpt><trkpt lat="44.05173" lon="8.0912567"><ele>90.0</ele><time>2026-04-03T13:48:39.918Z</time></trkpt><trkpt lat="44.051685" lon="8.0914433"><ele>87.25</ele><time>2026-04-03T13:48:40.917Z</time></trkpt><trkpt lat="44.0516383" lon="8.09164"><ele>84.5</ele><time>2026-04-03T13:48:41.917Z</time></trkpt><trkpt lat="44.0515933" lon="8.09183"><ele>81.75</ele><time>2026-04-03T13:48:42.917Z</time></trkpt><trkpt lat="44.05156" lon="8.0920083"><ele>79.0</ele><time>2026-04-03T13:48:43.918Z</time></trkpt><trkpt lat="44.0515283" lon="8.0922"><ele>87.75</ele><time>2026-04-03T13:48:44.918Z</time></trkpt><trkpt lat="44.0515067" lon="8.0923667"><ele>96.5</ele><time>2026-04-03T13:48:45.918Z</time></trkpt><trkpt lat="44.0514933" lon="8.09253"><ele>105.25</ele><time>2026-04-03T13:48:46.918Z</time></trkpt><trkpt lat="44.0515117" lon="8.0926967"><ele>114.0</ele><time>2026-04-03T13:48:47.918Z</time></trkpt><trkpt lat="44.0515133" lon="8.0928883"><ele>114.0</ele><time>2026-04-03T13:48:48.917Z</time></trkpt><trkpt lat="44.05151" lon="8.09306"><ele>114.0</ele><time>2026-04-03T13:48:49.918Z</time></trkpt><trkpt lat="44.0514967" lon="8.0932083"><ele>114.0</ele><time>2026-04-03T13:48:50.917Z</time></trkpt><trkpt lat="44.0514867" lon="8.0933333"><ele>114.0</ele><time>2026-04-03T13:48:51.917Z</time></trkpt><trkpt lat="44.0514917" lon="8.0934583"><ele>114.0</ele><time>2026-04-03T13:48:52.918Z</time></trkpt><trkpt lat="44.0514967" lon="8.09359"><ele>112.80000000000001</ele><time>2026-04-03T13:48:53.918Z</time></trkpt><trkpt lat="44.05149" lon="8.0937333"><ele>111.60000000000001</ele><time>2026-04-03T13:48:54.918Z</time></trkpt><trkpt lat="44.051475" lon="8.0938717"><ele>110.4</ele><time>2026-04-03T13:48:55.918Z</time></trkpt><trkpt lat="44.051465" lon="8.0940267"><ele>109.2</ele><time>2026-04-03T13:48:56.917Z</time></trkpt><trkpt lat="44.0514533" lon="8.09418"><ele>108.0</ele><time>2026-04-03T13:48:57.918Z</time></trkpt><trkpt lat="44.0514267" lon="8.0943583"><ele>107.25</ele><time>2026-04-03T13:48:58.917Z</time></trkpt><trkpt lat="44.0514117" lon="8.094545"><ele>106.5</ele><time>2026-04-03T13:48:59.917Z</time></trkpt><trkpt lat="44.0513883" lon="8.094715"><ele>105.75</ele><time>2026-04-03T13:49:00.918Z</time></trkpt><trkpt lat="44.0513683" lon="8.094875"><ele>105.0</ele><time>2026-04-03T13:49:01.918Z</time></trkpt><trkpt lat="44.051335" lon="8.0950533"><ele>105.0</ele><time>2026-04-03T13:49:02.917Z</time></trkpt><trkpt lat="44.0512983" lon="8.0952333"><ele>105.0</ele><time>2026-04-03T13:49:03.917Z</time></trkpt><trkpt lat="44.05127" lon="8.09543"><ele>105.0</ele><time>2026-04-03T13:49:04.918Z</time></trkpt><trkpt lat="44.05124" lon="8.0956283"><ele>105.0</ele><time>2026-04-03T13:49:05.917Z</time></trkpt><trkpt lat="44.0512083" lon="8.0958317"><ele>103.0</ele><time>2026-04-03T13:49:06.918Z</time></trkpt><trkpt lat="44.051175" lon="8.0960433"><ele>101.0</ele><time>2026-04-03T13:49:07.918Z</time></trkpt><trkpt lat="44.0511467" lon="8.09624"><ele>99.0</ele><time>2026-04-03T13:49:08.917Z</time></trkpt><trkpt lat="44.0511167" lon="8.09642"><ele>97.0</ele><time>2026-04-03T13:49:09.918Z</time></trkpt><trkpt lat="44.0510917" lon="8.0966033"><ele>95.0</ele><time>2026-04-03T13:49:10.918Z</time></trkpt><trkpt lat="44.0510733" lon="8.0967817"><ele>93.0</ele><time>2026-04-03T13:49:11.918Z</time></trkpt><trkpt lat="44.051065" lon="8.096955"><ele>91.0</ele><time>2026-04-03T13:49:12.917Z</time></trkpt><trkpt lat="44.051055" lon="8.09712"><ele>89.0</ele><time>2026-04-03T13:49:13.918Z</time></trkpt><trkpt lat="44.05104" lon="8.0972917"><ele>86.60000000000001</ele><time>2026-04-03T13:49:14.918Z</time></trkpt><trkpt lat="44.051005" lon="8.09748"><ele>84.2</ele><time>2026-04-03T13:49:15.918Z</time></trkpt><trkpt lat="44.0509817" lon="8.0976317"><ele>81.80000000000001</ele><time>2026-04-03T13:49:16.918Z</time></trkpt><trkpt lat="44.0509683" lon="8.09775"><ele>79.4</ele><time>2026-04-03T13:49:17.918Z</time></trkpt><trkpt lat="44.05095" lon="8.0978467"><ele>77.0</ele><time>2026-04-03T13:49:18.917Z</time></trkpt><trkpt lat="44.05092" lon="8.097925"><ele>77.0</ele><time>2026-04-03T13:49:19.918Z</time></trkpt><trkpt lat="44.05087" lon="8.0979917"><ele>77.0</ele><time>2026-04-03T13:49:20.918Z</time></trkpt><trkpt lat="44.0508167" lon="8.09812"><ele>77.0</ele><time>2026-04-03T13:49:22.918Z</time></trkpt><trkpt lat="44.050845" lon="8.0981983"><ele>77.0</ele><time>2026-04-03T13:49:23.917Z</time></trkpt><trkpt lat="44.0508833" lon="8.0982933"><ele>77.0</ele><time>2026-04-03T13:49:24.918Z</time></trkpt><trkpt lat="44.050915" lon="8.0984133"><ele>77.0</ele><time>2026-04-03T13:49:25.917Z</time></trkpt><trkpt lat="44.05095" lon="8.0985367"><ele>76.33333333333334</ele><time>2026-04-03T13:49:26.917Z</time></trkpt><trkpt lat="44.0509767" lon="8.0986583"><ele>75.66666666666667</ele><time>2026-04-03T13:49:27.917Z</time></trkpt><trkpt lat="44.0509983" lon="8.09877"><ele>75.0</ele><time>2026-04-03T13:49:28.918Z</time></trkpt><trkpt lat="44.0510133" lon="8.0988933"><ele>74.33333333333333</ele><time>2026-04-03T13:49:29.918Z</time></trkpt><trkpt lat="44.0510317" lon="8.0989917"><ele>73.66666666666666</ele><time>2026-04-03T13:49:30.918Z</time></trkpt><trkpt lat="44.0510633" lon="8.0990767"><ele>73.0</ele><time>2026-04-03T13:49:31.917Z</time></trkpt><trkpt lat="44.05111" lon="8.0991367"><ele>72.83333333333333</ele><time>2026-04-03T13:49:32.918Z</time></trkpt><trkpt lat="44.051185" lon="8.0991533"><ele>72.66666666666666</ele><time>2026-04-03T13:49:33.917Z</time></trkpt><trkpt lat="44.0512667" lon="8.09915"><ele>72.5</ele><time>2026-04-03T13:49:34.918Z</time></trkpt><trkpt lat="44.0513533" lon="8.0991367"><ele>72.33333333333333</ele><time>2026-04-03T13:49:35.918Z</time></trkpt><trkpt lat="44.051445" lon="8.0991267"><ele>72.16666666666667</ele><time>2026-04-03T13:49:36.917Z</time></trkpt><trkpt lat="44.05153" lon="8.0991217"><ele>72.0</ele><time>2026-04-03T13:49:37.918Z</time></trkpt><trkpt lat="44.051625" lon="8.0991217"><ele>68.2</ele><time>2026-04-03T13:49:38.918Z</time></trkpt><trkpt lat="44.0517233" lon="8.099125"><ele>64.4</ele><time>2026-04-03T13:49:39.918Z</time></trkpt><trkpt lat="44.0518233" lon="8.09913"><ele>60.599999999999994</ele><time>2026-04-03T13:49:40.918Z</time></trkpt><trkpt lat="44.0519317" lon="8.09913"><ele>56.8</ele><time>2026-04-03T13:49:41.918Z</time></trkpt><trkpt lat="44.0520417" lon="8.099135"><ele>53.0</ele><time>2026-04-03T13:49:42.918Z</time></trkpt><trkpt lat="44.0521483" lon="8.0991267"><ele>53.0</ele><time>2026-04-03T13:49:43.918Z</time></trkpt><trkpt lat="44.0522567" lon="8.0991217"><ele>53.0</ele><time>2026-04-03T13:49:44.918Z</time></trkpt><trkpt lat="44.0523633" lon="8.0991183"><ele>53.0</ele><time>2026-04-03T13:49:45.918Z</time></trkpt><trkpt lat="44.0524733" lon="8.09913"><ele>53.0</ele><time>2026-04-03T13:49:46.917Z</time></trkpt><trkpt lat="44.0525767" lon="8.0991283"><ele>53.0</ele><time>2026-04-03T13:49:47.918Z</time></trkpt><trkpt lat="44.05267" lon="8.0991233"><ele>53.66666666666667</ele><time>2026-04-03T13:49:48.918Z</time></trkpt><trkpt lat="44.0527617" lon="8.0991133"><ele>54.333333333333336</ele><time>2026-04-03T13:49:49.918Z</time></trkpt><trkpt lat="44.052855" lon="8.09911"><ele>55.0</ele><time>2026-04-03T13:49:50.918Z</time></trkpt><trkpt lat="44.05295" lon="8.09911"><ele>55.66666666666667</ele><time>2026-04-03T13:49:51.918Z</time></trkpt><trkpt lat="44.0530383" lon="8.09911"><ele>56.333333333333336</ele><time>2026-04-03T13:49:52.918Z</time></trkpt><trkpt lat="44.0531083" lon="8.0991083"><ele>57.0</ele><time>2026-04-03T13:49:53.918Z</time></trkpt><trkpt lat="44.05319" lon="8.0991267"><ele>57.333333333333336</ele><time>2026-04-03T13:49:55.917Z</time></trkpt><trkpt lat="44.0532517" lon="8.099065"><ele>57.66666666666667</ele><time>2026-04-03T13:50:46.916Z</time></trkpt><trkpt lat="44.0532767" lon="8.09891"><ele>58.0</ele><time>2026-04-03T13:50:48.916Z</time></trkpt><trkpt lat="44.05329" lon="8.09881"><ele>58.333333333333336</ele><time>2026-04-03T13:50:49.917Z</time></trkpt><trkpt lat="44.053305" lon="8.0987083"><ele>58.66666666666667</ele><time>2026-04-03T13:50:50.917Z</time></trkpt><trkpt lat="44.05331" lon="8.0986067"><ele>59.0</ele><time>2026-04-03T13:50:51.916Z</time></trkpt><trkpt lat="44.0533183" lon="8.0985183"><ele>59.333333333333336</ele><time>2026-04-03T13:50:52.916Z</time></trkpt><trkpt lat="44.05333" lon="8.0984167"><ele>59.66666666666667</ele><time>2026-04-03T13:50:53.916Z</time></trkpt><trkpt lat="44.053335" lon="8.0983233"><ele>60.0</ele><time>2026-04-03T13:50:54.917Z</time></trkpt><trkpt lat="44.0533467" lon="8.0982333"><ele>60.33333333333333</ele><time>2026-04-03T13:50:55.916Z</time></trkpt><trkpt lat="44.0533617" lon="8.0980717"><ele>60.666666666666664</ele><time>2026-04-03T13:50:57.916Z</time></trkpt><trkpt lat="44.0533883" lon="8.0979117"><ele>61.0</ele><time>2026-04-03T13:50:59.916Z</time></trkpt><trkpt lat="44.0533967" lon="8.0978233"><ele>61.49999999999999</ele><time>2026-04-03T13:51:00.916Z</time></trkpt><trkpt lat="44.0534083" lon="8.0977233"><ele>62.0</ele><time>2026-04-03T13:51:01.916Z</time></trkpt><trkpt lat="44.0534217" lon="8.0976117"><ele>62.5</ele><time>2026-04-03T13:51:02.916Z</time></trkpt><trkpt lat="44.0534333" lon="8.0974967"><ele>63.0</ele><time>2026-04-03T13:51:03.916Z</time></trkpt><trkpt lat="44.0534467" lon="8.097375"><ele>63.49999999999999</ele><time>2026-04-03T13:51:04.916Z</time></trkpt><trkpt lat="44.0534517" lon="8.0972533"><ele>64.0</ele><time>2026-04-03T13:51:05.917Z</time></trkpt><trkpt lat="44.0534633" lon="8.097145"><ele>63.99999999999999</ele><time>2026-04-03T13:51:06.917Z</time></trkpt><trkpt lat="44.053485" lon="8.09704"><ele>64.0</ele><time>2026-04-03T13:51:07.917Z</time></trkpt><trkpt lat="44.0535033" lon="8.0969367"><ele>64.0</ele><time>2026-04-03T13:51:08.917Z</time></trkpt><trkpt lat="44.053525" lon="8.0968517"><ele>64.0</ele><time>2026-04-03T13:51:09.916Z</time></trkpt><trkpt lat="44.0535417" lon="8.096765"><ele>63.99999999999999</ele><time>2026-04-03T13:51:10.917Z</time></trkpt><trkpt lat="44.05359" lon="8.096625"><ele>64.0</ele><time>2026-04-03T13:51:12.916Z</time></trkpt><trkpt lat="44.053655" lon="8.0965817"><ele>64.16666666666666</ele><time>2026-04-03T13:51:15.916Z</time></trkpt><trkpt lat="44.0537317" lon="8.0965933"><ele>64.33333333333333</ele><time>2026-04-03T13:51:17.917Z</time></trkpt><trkpt lat="44.0537867" lon="8.0967"><ele>64.5</ele><time>2026-04-03T13:51:21.916Z</time></trkpt><trkpt lat="44.05379" lon="8.0968633"><ele>64.66666666666667</ele><time>2026-04-03T13:51:23.917Z</time></trkpt><trkpt lat="44.0537833" lon="8.09697"><ele>64.83333333333334</ele><time>2026-04-03T13:51:24.917Z</time></trkpt><trkpt lat="44.0537933" lon="8.097085"><ele>65.0</ele><time>2026-04-03T13:51:25.917Z</time></trkpt><trkpt lat="44.0537967" lon="8.0972233"><ele>65.0</ele><time>2026-04-03T13:51:26.917Z</time></trkpt><trkpt lat="44.0538117" lon="8.0973733"><ele>65.0</ele><time>2026-04-03T13:51:27.917Z</time></trkpt><trkpt lat="44.0538417" lon="8.09752"><ele>65.0</ele><time>2026-04-03T13:51:28.916Z</time></trkpt><trkpt lat="44.053865" lon="8.097645"><ele>65.0</ele><time>2026-04-03T13:51:29.917Z</time></trkpt><trkpt lat="44.0538783" lon="8.0977783"><ele>65.0</ele><time>2026-04-03T13:51:30.916Z</time></trkpt><trkpt lat="44.05389" lon="8.0979"><ele>64.83333333333334</ele><time>2026-04-03T13:51:31.916Z</time></trkpt><trkpt lat="44.0539017" lon="8.0980067"><ele>64.66666666666667</ele><time>2026-04-03T13:51:32.917Z</time></trkpt><trkpt lat="44.0539033" lon="8.098095"><ele>64.5</ele><time>2026-04-03T13:51:33.917Z</time></trkpt><trkpt lat="44.0538983" lon="8.0981917"><ele>64.33333333333333</ele><time>2026-04-03T13:51:35.916Z</time></trkpt><trkpt lat="44.0539633" lon="8.0982383"><ele>64.16666666666666</ele><time>2026-04-03T14:11:38.917Z</time></trkpt><trkpt lat="44.05398" lon="8.0980733"><ele>64.0</ele><time>2026-04-03T14:11:40.917Z</time></trkpt><trkpt lat="44.0539683" lon="8.0979317"><ele>64.0</ele><time>2026-04-03T14:11:41.917Z</time></trkpt><trkpt lat="44.053945" lon="8.0977833"><ele>64.0</ele><time>2026-04-03T14:11:42.917Z</time></trkpt><trkpt lat="44.0539383" lon="8.0976333"><ele>64.0</ele><time>2026-04-03T14:11:43.917Z</time></trkpt><trkpt lat="44.0539267" lon="8.0974967"><ele>64.0</ele><time>2026-04-03T14:11:44.916Z</time></trkpt><trkpt lat="44.0539033" lon="8.0973617"><ele>64.0</ele><time>2026-04-03T14:11:45.917Z</time></trkpt><trkpt lat="44.053865" lon="8.0972667"><ele>64.16666666666666</ele><time>2026-04-03T14:11:46.917Z</time></trkpt><trkpt lat="44.05386" lon="8.097135"><ele>64.33333333333333</ele><time>2026-04-03T14:11:47.917Z</time></trkpt><trkpt lat="44.0538517" lon="8.09701"><ele>64.5</ele><time>2026-04-03T14:11:48.917Z</time></trkpt><trkpt lat="44.0538383" lon="8.0969017"><ele>64.66666666666667</ele><time>2026-04-03T14:11:49.917Z</time></trkpt><trkpt lat="44.0538183" lon="8.096795"><ele>64.83333333333334</ele><time>2026-04-03T14:11:50.916Z</time></trkpt><trkpt lat="44.0538067" lon="8.0966917"><ele>65.0</ele><time>2026-04-03T14:11:51.916Z</time></trkpt><trkpt lat="44.05379" lon="8.096595"><ele>64.83333333333334</ele><time>2026-04-03T14:11:52.917Z</time></trkpt><trkpt lat="44.0537883" lon="8.0965033"><ele>64.66666666666667</ele><time>2026-04-03T14:11:53.917Z</time></trkpt><trkpt lat="44.0537967" lon="8.096385"><ele>64.5</ele><time>2026-04-03T14:11:55.917Z</time></trkpt><trkpt lat="44.0538817" lon="8.0963133"><ele>64.33333333333333</ele><time>2026-04-03T14:11:59.917Z</time></trkpt><trkpt lat="44.053995" lon="8.0962917"><ele>64.16666666666666</ele><time>2026-04-03T14:12:01.917Z</time></trkpt><trkpt lat="44.0540617" lon="8.0962667"><ele>64.0</ele><time>2026-04-03T14:12:02.917Z</time></trkpt><trkpt lat="44.0541417" lon="8.0962433"><ele>64.4</ele><time>2026-04-03T14:12:03.917Z</time></trkpt><trkpt lat="44.05424" lon="8.0962417"><ele>64.80000000000001</ele><time>2026-04-03T14:12:04.917Z</time></trkpt><trkpt lat="44.05435" lon="8.09625"><ele>65.19999999999999</ele><time>2026-04-03T14:12:05.917Z</time></trkpt><trkpt lat="44.054465" lon="8.096265"><ele>65.6</ele><time>2026-04-03T14:12:06.917Z</time></trkpt><trkpt lat="44.0545867" lon="8.0962883"><ele>66.0</ele><time>2026-04-03T14:12:07.917Z</time></trkpt><trkpt lat="44.0547033" lon="8.0963033"><ele>66.0</ele><time>2026-04-03T14:12:08.916Z</time></trkpt><trkpt lat="44.0548217" lon="8.09632"><ele>66.0</ele><time>2026-04-03T14:12:09.917Z</time></trkpt><trkpt lat="44.054945" lon="8.0963283"><ele>66.0</ele><time>2026-04-03T14:12:10.917Z</time></trkpt><trkpt lat="44.0550333" lon="8.0963633"><ele>66.0</ele><time>2026-04-03T14:12:11.916Z</time></trkpt><trkpt lat="44.0551267" lon="8.0963817"><ele>66.0</ele><time>2026-04-03T14:12:12.917Z</time></trkpt><trkpt lat="44.05521" lon="8.0964"><ele>66.2</ele><time>2026-04-03T14:12:13.916Z</time></trkpt><trkpt lat="44.055305" lon="8.0964167"><ele>66.39999999999999</ele><time>2026-04-03T14:12:14.917Z</time></trkpt><trkpt lat="44.0553967" lon="8.0964367"><ele>66.6</ele><time>2026-04-03T14:12:15.917Z</time></trkpt><trkpt lat="44.055495" lon="8.0964567"><ele>66.8</ele><time>2026-04-03T14:12:16.917Z</time></trkpt><trkpt lat="44.0555883" lon="8.09647"><ele>67.0</ele><time>2026-04-03T14:12:17.917Z</time></trkpt><trkpt lat="44.05568" lon="8.0964867"><ele>67.0</ele><time>2026-04-03T14:12:18.917Z</time></trkpt><trkpt lat="44.0557583" lon="8.0965133"><ele>67.0</ele><time>2026-04-03T14:12:19.916Z</time></trkpt><trkpt lat="44.0558217" lon="8.09653"><ele>67.0</ele><time>2026-04-03T14:12:20.917Z</time></trkpt><trkpt lat="44.055905" lon="8.096555"><ele>67.0</ele><time>2026-04-03T14:12:22.917Z</time></trkpt><trkpt lat="44.0560067" lon="8.0964583"><ele>67.0</ele><time>2026-04-03T14:12:26.917Z</time></trkpt><trkpt lat="44.0560517" lon="8.0963667"><ele>67.0</ele><time>2026-04-03T14:12:27.917Z</time></trkpt><trkpt lat="44.0561" lon="8.096255"><ele>67.66666666666666</ele><time>2026-04-03T14:12:28.917Z</time></trkpt><trkpt lat="44.0561383" lon="8.0961317"><ele>68.33333333333333</ele><time>2026-04-03T14:12:29.916Z</time></trkpt><trkpt lat="44.0561783" lon="8.09602"><ele>69.0</ele><time>2026-04-03T14:12:30.916Z</time></trkpt><trkpt lat="44.05622" lon="8.0959483"><ele>69.66666666666667</ele><time>2026-04-03T14:12:31.916Z</time></trkpt><trkpt lat="44.05628" lon="8.095885"><ele>70.33333333333334</ele><time>2026-04-03T14:12:32.916Z</time></trkpt><trkpt lat="44.056355" lon="8.0958333"><ele>71.0</ele><time>2026-04-03T14:12:33.917Z</time></trkpt><trkpt lat="44.0564417" lon="8.0957717"><ele>72.39999999999999</ele><time>2026-04-03T14:12:34.916Z</time></trkpt><trkpt lat="44.0565317" lon="8.0957083"><ele>73.8</ele><time>2026-04-03T14:12:35.917Z</time></trkpt><trkpt lat="44.0566267" lon="8.0956367"><ele>75.19999999999999</ele><time>2026-04-03T14:12:36.917Z</time></trkpt><trkpt lat="44.0567183" lon="8.09555"><ele>76.6</ele><time>2026-04-03T14:12:37.917Z</time></trkpt><trkpt lat="44.0568083" lon="8.0954583"><ele>78.0</ele><time>2026-04-03T14:12:38.917Z</time></trkpt><trkpt lat="44.0568933" lon="8.0953617"><ele>80.8</ele><time>2026-04-03T14:12:39.916Z</time></trkpt><trkpt lat="44.0569767" lon="8.095255"><ele>83.6</ele><time>2026-04-03T14:12:40.917Z</time></trkpt><trkpt lat="44.0570483" lon="8.0951383"><ele>86.39999999999999</ele><time>2026-04-03T14:12:41.917Z</time></trkpt><trkpt lat="44.05712" lon="8.09502"><ele>89.19999999999999</ele><time>2026-04-03T14:12:42.916Z</time></trkpt><trkpt lat="44.0571767" lon="8.09491"><ele>92.0</ele><time>2026-04-03T14:12:43.917Z</time></trkpt><trkpt lat="44.0572133" lon="8.09482"><ele>91.33333333333334</ele><time>2026-04-03T14:12:44.917Z</time></trkpt><trkpt lat="44.0572433" lon="8.0947417"><ele>90.66666666666667</ele><time>2026-04-03T14:12:45.916Z</time></trkpt><trkpt lat="44.05731" lon="8.094645"><ele>90.0</ele><time>2026-04-03T14:12:47.917Z</time></trkpt><trkpt lat="44.057375" lon="8.0946417"><ele>89.33333333333333</ele><time>2026-04-03T14:12:48.917Z</time></trkpt><trkpt lat="44.0574383" lon="8.0946517"><ele>88.66666666666666</ele><time>2026-04-03T14:12:49.917Z</time></trkpt><trkpt lat="44.0575167" lon="8.0946633"><ele>88.0</ele><time>2026-04-03T14:12:50.917Z</time></trkpt><trkpt lat="44.057605" lon="8.0946683"><ele>88.0</ele><time>2026-04-03T14:12:51.917Z</time></trkpt><trkpt lat="44.0576883" lon="8.09466"><ele>88.0</ele><time>2026-04-03T14:12:52.917Z</time></trkpt><trkpt lat="44.0577617" lon="8.0946217"><ele>88.0</ele><time>2026-04-03T14:12:53.917Z</time></trkpt><trkpt lat="44.05783" lon="8.0945517"><ele>88.0</ele><time>2026-04-03T14:12:54.916Z</time></trkpt><trkpt lat="44.0578883" lon="8.0944433"><ele>88.0</ele><time>2026-04-03T14:12:55.916Z</time></trkpt><trkpt lat="44.0579483" lon="8.0943467"><ele>88.0</ele><time>2026-04-03T14:12:56.916Z</time></trkpt><trkpt lat="44.058005" lon="8.09427"><ele>88.0</ele><time>2026-04-03T14:12:57.917Z</time></trkpt><trkpt lat="44.05807" lon="8.094215"><ele>88.0</ele><time>2026-04-03T14:12:58.917Z</time></trkpt><trkpt lat="44.0581567" lon="8.0941967"><ele>88.0</ele><time>2026-04-03T14:12:59.916Z</time></trkpt><trkpt lat="44.0582583" lon="8.0941917"><ele>88.0</ele><time>2026-04-03T14:13:00.916Z</time></trkpt><trkpt lat="44.05835" lon="8.0941717"><ele>88.0</ele><time>2026-04-03T14:13:01.917Z</time></trkpt><trkpt lat="44.0584467" lon="8.0941283"><ele>88.80000000000001</ele><time>2026-04-03T14:13:02.916Z</time></trkpt><trkpt lat="44.0585317" lon="8.094055"><ele>89.6</ele><time>2026-04-03T14:13:03.916Z</time></trkpt><trkpt lat="44.0586033" lon="8.093965"><ele>90.4</ele><time>2026-04-03T14:13:04.917Z</time></trkpt><trkpt lat="44.0586733" lon="8.0938783"><ele>91.19999999999999</ele><time>2026-04-03T14:13:05.917Z</time></trkpt><trkpt lat="44.058725" lon="8.0937967"><ele>92.0</ele><time>2026-04-03T14:13:06.916Z</time></trkpt><trkpt lat="44.0587883" lon="8.0937233"><ele>92.0</ele><time>2026-04-03T14:13:07.916Z</time></trkpt><trkpt lat="44.0588567" lon="8.0936817"><ele>92.0</ele><time>2026-04-03T14:13:08.916Z</time></trkpt><trkpt lat="44.058935" lon="8.09364"><ele>92.0</ele><time>2026-04-03T14:13:09.917Z</time></trkpt><trkpt lat="44.0590017" lon="8.0936033"><ele>92.0</ele><time>2026-04-03T14:13:10.917Z</time></trkpt><trkpt lat="44.0590667" lon="8.09358"><ele>92.0</ele><time>2026-04-03T14:13:11.917Z</time></trkpt><trkpt lat="44.059135" lon="8.0935867"><ele>92.0</ele><time>2026-04-03T14:13:12.916Z</time></trkpt><trkpt lat="44.0592083" lon="8.0936067"><ele>92.0</ele><time>2026-04-03T14:13:13.917Z</time></trkpt><trkpt lat="44.059295" lon="8.09363"><ele>94.66666666666667</ele><time>2026-04-03T14:13:14.916Z</time></trkpt><trkpt lat="44.0593767" lon="8.09364"><ele>97.33333333333334</ele><time>2026-04-03T14:13:15.916Z</time></trkpt><trkpt lat="44.0594633" lon="8.0936683"><ele>100.0</ele><time>2026-04-03T14:13:16.916Z</time></trkpt><trkpt lat="44.059545" lon="8.0936817"><ele>102.66666666666667</ele><time>2026-04-03T14:13:17.917Z</time></trkpt><trkpt lat="44.05961" lon="8.0937067"><ele>105.33333333333333</ele><time>2026-04-03T14:13:18.917Z</time></trkpt><trkpt lat="44.059675" lon="8.0937483"><ele>108.0</ele><time>2026-04-03T14:13:19.917Z</time></trkpt><trkpt lat="44.0597367" lon="8.0937883"><ele>108.0</ele><time>2026-04-03T14:13:20.917Z</time></trkpt><trkpt lat="44.0597983" lon="8.0938367"><ele>108.0</ele><time>2026-04-03T14:13:21.916Z</time></trkpt><trkpt lat="44.05986" lon="8.0938817"><ele>108.0</ele><time>2026-04-03T14:13:22.917Z</time></trkpt><trkpt lat="44.0599267" lon="8.0939233"><ele>108.0</ele><time>2026-04-03T14:13:23.917Z</time></trkpt><trkpt lat="44.0599933" lon="8.093955"><ele>108.0</ele><time>2026-04-03T14:13:24.917Z</time></trkpt><trkpt lat="44.0600583" lon="8.0939967"><ele>108.0</ele><time>2026-04-03T14:13:25.917Z</time></trkpt><trkpt lat="44.0601233" lon="8.09404"><ele>108.0</ele><time>2026-04-03T14:13:26.917Z</time></trkpt><trkpt lat="44.0601983" lon="8.0940783"><ele>109.5</ele><time>2026-04-03T14:13:27.917Z</time></trkpt><trkpt lat="44.0602733" lon="8.09411"><ele>111.0</ele><time>2026-04-03T14:13:28.916Z</time></trkpt><trkpt lat="44.0603483" lon="8.0941567"><ele>112.5</ele><time>2026-04-03T14:13:29.917Z</time></trkpt><trkpt lat="44.0604217" lon="8.0941933"><ele>114.0</ele><time>2026-04-03T14:13:30.916Z</time></trkpt><trkpt lat="44.0604967" lon="8.0942417"><ele>115.5</ele><time>2026-04-03T14:13:31.917Z</time></trkpt><trkpt lat="44.060565" lon="8.0943017"><ele>117.0</ele><time>2026-04-03T14:13:32.917Z</time></trkpt><trkpt lat="44.0606283" lon="8.0943583"><ele>117.0</ele><time>2026-04-03T14:13:33.917Z</time></trkpt><trkpt lat="44.0607067" lon="8.0944483"><ele>116.99999999999999</ele><time>2026-04-03T14:13:35.917Z</time></trkpt><trkpt lat="44.06077" lon="8.0945083"><ele>116.99999999999999</ele><time>2026-04-03T14:13:39.917Z</time></trkpt><trkpt lat="44.0608217" lon="8.09458"><ele>117.0</ele><time>2026-04-03T14:13:41.917Z</time></trkpt><trkpt lat="44.0608967" lon="8.0946433"><ele>117.0</ele><time>2026-04-03T14:13:43.917Z</time></trkpt><trkpt lat="44.0609983" lon="8.09474"><ele>119.0</ele><time>2026-04-03T14:13:45.917Z</time></trkpt><trkpt lat="44.0610567" lon="8.0948"><ele>121.0</ele><time>2026-04-03T14:13:46.917Z</time></trkpt><trkpt lat="44.0611317" lon="8.0948617"><ele>123.0</ele><time>2026-04-03T14:13:47.917Z</time></trkpt><trkpt lat="44.0612317" lon="8.0949217"><ele>125.0</ele><time>2026-04-03T14:13:49.917Z</time></trkpt><trkpt lat="44.0613133" lon="8.0949017"><ele>127.0</ele><time>2026-04-03T14:13:51.916Z</time></trkpt><trkpt lat="44.06137" lon="8.0948317"><ele>129.0</ele><time>2026-04-03T14:13:53.917Z</time></trkpt><trkpt lat="44.0614467" lon="8.0947817"><ele>129.4</ele><time>2026-04-03T14:13:55.917Z</time></trkpt><trkpt lat="44.0615667" lon="8.094795"><ele>129.8</ele><time>2026-04-03T14:13:57.917Z</time></trkpt><trkpt lat="44.06163" lon="8.0948217"><ele>130.2</ele><time>2026-04-03T14:13:58.916Z</time></trkpt><trkpt lat="44.061735" lon="8.0948817"><ele>130.6</ele><time>2026-04-03T14:14:00.917Z</time></trkpt><trkpt lat="44.0617983" lon="8.09494"><ele>131.0</ele><time>2026-04-03T14:14:02.917Z</time></trkpt><trkpt lat="44.0617933" lon="8.0950633"><ele>133.33333333333331</ele><time>2026-04-03T14:14:05.916Z</time></trkpt><trkpt lat="44.0618" lon="8.0951967"><ele>135.66666666666666</ele><time>2026-04-03T14:14:07.917Z</time></trkpt><trkpt lat="44.0618783" lon="8.0953117"><ele>138.0</ele><time>2026-04-03T14:14:09.917Z</time></trkpt><trkpt lat="44.06194" lon="8.095365"><ele>140.33333333333334</ele><time>2026-04-03T14:14:10.916Z</time></trkpt><trkpt lat="44.0620017" lon="8.0954267"><ele>142.66666666666669</ele><time>2026-04-03T14:14:11.916Z</time></trkpt><trkpt lat="44.06207" lon="8.0954917"><ele>145.0</ele><time>2026-04-03T14:14:12.917Z</time></trkpt><trkpt lat="44.062145" lon="8.0955533"><ele>145.0</ele><time>2026-04-03T14:14:13.916Z</time></trkpt><trkpt lat="44.0622117" lon="8.0956067"><ele>145.0</ele><time>2026-04-03T14:14:14.917Z</time></trkpt><trkpt lat="44.06227" lon="8.0956767"><ele>145.0</ele><time>2026-04-03T14:14:15.916Z</time></trkpt><trkpt lat="44.0623267" lon="8.0957533"><ele>145.0</ele><time>2026-04-03T14:14:16.916Z</time></trkpt><trkpt lat="44.06237" lon="8.0958583"><ele>145.0</ele><time>2026-04-03T14:14:17.917Z</time></trkpt><trkpt lat="44.0624117" lon="8.0959583"><ele>145.0</ele><time>2026-04-03T14:14:18.917Z</time></trkpt><trkpt lat="44.062445" lon="8.0960567"><ele>143.0</ele><time>2026-04-03T14:14:19.917Z</time></trkpt><trkpt lat="44.0624683" lon="8.0961617"><ele>141.0</ele><time>2026-04-03T14:14:20.917Z</time></trkpt><trkpt lat="44.0624817" lon="8.096285"><ele>139.0</ele><time>2026-04-03T14:14:21.916Z</time></trkpt><trkpt lat="44.0624883" lon="8.0964117"><ele>137.0</ele><time>2026-04-03T14:14:22.917Z</time></trkpt><trkpt lat="44.062475" lon="8.0965167"><ele>135.0</ele><time>2026-04-03T14:14:23.916Z</time></trkpt><trkpt lat="44.062475" lon="8.0966067"><ele>133.0</ele><time>2026-04-03T14:14:24.916Z</time></trkpt><trkpt lat="44.06253" lon="8.0967383"><ele>133.0</ele><time>2026-04-03T14:14:26.916Z</time></trkpt><trkpt lat="44.0625867" lon="8.0967883"><ele>133.0</ele><time>2026-04-03T14:14:27.916Z</time></trkpt><trkpt lat="44.0626467" lon="8.096865"><ele>133.0</ele><time>2026-04-03T14:14:28.917Z</time></trkpt><trkpt lat="44.0627017" lon="8.096955"><ele>133.0</ele><time>2026-04-03T14:14:29.916Z</time></trkpt><trkpt lat="44.06277" lon="8.09707"><ele>133.0</ele><time>2026-04-03T14:14:30.917Z</time></trkpt><trkpt lat="44.0628467" lon="8.0971767"><ele>133.0</ele><time>2026-04-03T14:14:31.917Z</time></trkpt><trkpt lat="44.062915" lon="8.0972917"><ele>133.0</ele><time>2026-04-03T14:14:32.917Z</time></trkpt><trkpt lat="44.06297" lon="8.0973967"><ele>133.0</ele><time>2026-04-03T14:14:33.917Z</time></trkpt><trkpt lat="44.063005" lon="8.097505"><ele>133.0</ele><time>2026-04-03T14:14:34.917Z</time></trkpt><trkpt lat="44.0630283" lon="8.0975917"><ele>133.0</ele><time>2026-04-03T14:14:35.917Z</time></trkpt><trkpt lat="44.0630367" lon="8.09768"><ele>133.0</ele><time>2026-04-03T14:14:36.917Z</time></trkpt><trkpt lat="44.0630433" lon="8.09779"><ele>133.0</ele><time>2026-04-03T14:14:37.916Z</time></trkpt><trkpt lat="44.06306" lon="8.097885"><ele>133.83333333333334</ele><time>2026-04-03T14:14:38.916Z</time></trkpt><trkpt lat="44.0630817" lon="8.0979817"><ele>134.66666666666669</ele><time>2026-04-03T14:14:39.917Z</time></trkpt><trkpt lat="44.0631183" lon="8.098085"><ele>135.5</ele><time>2026-04-03T14:14:40.917Z</time></trkpt><trkpt lat="44.0631517" lon="8.0981983"><ele>136.33333333333334</ele><time>2026-04-03T14:14:41.917Z</time></trkpt><trkpt lat="44.0631883" lon="8.0983133"><ele>137.16666666666666</ele><time>2026-04-03T14:14:42.916Z</time></trkpt><trkpt lat="44.0632267" lon="8.0984133"><ele>138.0</ele><time>2026-04-03T14:14:43.917Z</time></trkpt><trkpt lat="44.0632567" lon="8.098505"><ele>134.83333333333334</ele><time>2026-04-03T14:14:44.917Z</time></trkpt><trkpt lat="44.063285" lon="8.0985967"><ele>131.66666666666666</ele><time>2026-04-03T14:14:45.916Z</time></trkpt><trkpt lat="44.0633167" lon="8.0986883"><ele>128.5</ele><time>2026-04-03T14:14:46.916Z</time></trkpt><trkpt lat="44.0633533" lon="8.0987783"><ele>125.33333333333333</ele><time>2026-04-03T14:14:47.917Z</time></trkpt><trkpt lat="44.0633917" lon="8.098875"><ele>122.16666666666666</ele><time>2026-04-03T14:14:48.917Z</time></trkpt><trkpt lat="44.06342" lon="8.0989783"><ele>119.0</ele><time>2026-04-03T14:14:49.917Z</time></trkpt><trkpt lat="44.0634467" lon="8.09908"><ele>118.49999999999999</ele><time>2026-04-03T14:14:50.917Z</time></trkpt><trkpt lat="44.0634783" lon="8.09917"><ele>118.0</ele><time>2026-04-03T14:14:51.917Z</time></trkpt><trkpt lat="44.0634817" lon="8.0993433"><ele>117.5</ele><time>2026-04-03T14:14:53.917Z</time></trkpt><trkpt lat="44.0634783" lon="8.0994467"><ele>117.0</ele><time>2026-04-03T14:14:54.917Z</time></trkpt><trkpt lat="44.0634683" lon="8.0995567"><ele>116.49999999999999</ele><time>2026-04-03T14:14:55.916Z</time></trkpt><trkpt lat="44.0634817" lon="8.0996717"><ele>116.0</ele><time>2026-04-03T14:14:56.917Z</time></trkpt><trkpt lat="44.0634867" lon="8.0997817"><ele>115.99999999999999</ele><time>2026-04-03T14:14:57.917Z</time></trkpt><trkpt lat="44.0634983" lon="8.099895"><ele>116.0</ele><time>2026-04-03T14:14:58.916Z</time></trkpt><trkpt lat="44.063525" lon="8.10001"><ele>116.0</ele><time>2026-04-03T14:14:59.917Z</time></trkpt><trkpt lat="44.0635483" lon="8.10011"><ele>116.0</ele><time>2026-04-03T14:15:00.917Z</time></trkpt><trkpt lat="44.0635733" lon="8.1002117"><ele>115.99999999999999</ele><time>2026-04-03T14:15:01.917Z</time></trkpt><trkpt lat="44.0635983" lon="8.100315"><ele>116.0</ele><time>2026-04-03T14:15:02.917Z</time></trkpt><trkpt lat="44.063625" lon="8.100425"><ele>115.16666666666666</ele><time>2026-04-03T14:15:03.916Z</time></trkpt><trkpt lat="44.0636433" lon="8.1005433"><ele>114.33333333333333</ele><time>2026-04-03T14:15:04.917Z</time></trkpt><trkpt lat="44.06364" lon="8.100655"><ele>113.5</ele><time>2026-04-03T14:15:05.917Z</time></trkpt><trkpt lat="44.0636317" lon="8.1007633"><ele>112.66666666666666</ele><time>2026-04-03T14:15:06.916Z</time></trkpt><trkpt lat="44.0636217" lon="8.1008683"><ele>111.83333333333333</ele><time>2026-04-03T14:15:07.917Z</time></trkpt><trkpt lat="44.0636067" lon="8.100955"><ele>111.0</ele><time>2026-04-03T14:15:08.917Z</time></trkpt><trkpt lat="44.06361" lon="8.1010967"><ele>109.4</ele><time>2026-04-03T14:15:10.917Z</time></trkpt><trkpt lat="44.0636633" lon="8.1011733"><ele>107.8</ele><time>2026-04-03T14:15:12.917Z</time></trkpt><trkpt lat="44.0637617" lon="8.1012"><ele>106.2</ele><time>2026-04-03T14:15:14.917Z</time></trkpt><trkpt lat="44.0638433" lon="8.1012367"><ele>104.60000000000001</ele><time>2026-04-03T14:15:17.917Z</time></trkpt><trkpt lat="44.06391" lon="8.101315"><ele>103.0</ele><time>2026-04-03T14:15:19.916Z</time></trkpt><trkpt lat="44.0639783" lon="8.1014467"><ele>103.00000000000001</ele><time>2026-04-03T14:15:21.917Z</time></trkpt><trkpt lat="44.0640217" lon="8.1015467"><ele>103.0</ele><time>2026-04-03T14:15:22.917Z</time></trkpt><trkpt lat="44.0640633" lon="8.1016383"><ele>103.0</ele><time>2026-04-03T14:15:23.917Z</time></trkpt><trkpt lat="44.064115" lon="8.1017183"><ele>103.0</ele><time>2026-04-03T14:15:24.917Z</time></trkpt><trkpt lat="44.0641733" lon="8.101785"><ele>103.00000000000001</ele><time>2026-04-03T14:15:25.916Z</time></trkpt><trkpt lat="44.0642483" lon="8.1018417"><ele>103.0</ele><time>2026-04-03T14:15:26.917Z</time></trkpt><trkpt lat="44.06432" lon="8.1019017"><ele>100.80000000000001</ele><time>2026-04-03T14:15:27.917Z</time></trkpt><trkpt lat="44.0643833" lon="8.1019533"><ele>98.6</ele><time>2026-04-03T14:15:28.916Z</time></trkpt><trkpt lat="44.0644283" lon="8.1020733"><ele>96.4</ele><time>2026-04-03T14:15:30.917Z</time></trkpt><trkpt lat="44.0643883" lon="8.1022067"><ele>94.19999999999999</ele><time>2026-04-03T14:15:32.916Z</time></trkpt><trkpt lat="44.0643517" lon="8.1023183"><ele>92.0</ele><time>2026-04-03T14:15:34.916Z</time></trkpt><trkpt lat="44.0644517" lon="8.102225"><ele>92.0</ele><time>2026-04-03T14:15:39.917Z</time></trkpt><trkpt lat="44.0645083" lon="8.1021133"><ele>92.0</ele><time>2026-04-03T14:15:40.917Z</time></trkpt><trkpt lat="44.064585" lon="8.102"><ele>92.0</ele><time>2026-04-03T14:15:41.916Z</time></trkpt><trkpt lat="44.0646883" lon="8.10189"><ele>92.0</ele><time>2026-04-03T14:15:42.917Z</time></trkpt><trkpt lat="44.0647867" lon="8.101785"><ele>92.0</ele><time>2026-04-03T14:15:43.917Z</time></trkpt><trkpt lat="44.0648667" lon="8.1016867"><ele>92.0</ele><time>2026-04-03T14:15:44.917Z</time></trkpt><trkpt lat="44.064945" lon="8.1015833"><ele>92.0</ele><time>2026-04-03T14:15:45.917Z</time></trkpt><trkpt lat="44.0650217" lon="8.101505"><ele>92.0</ele><time>2026-04-03T14:15:46.917Z</time></trkpt><trkpt lat="44.0651033" lon="8.1014583"><ele>92.0</ele><time>2026-04-03T14:15:47.917Z</time></trkpt><trkpt lat="44.0651833" lon="8.101425"><ele>93.33333333333334</ele><time>2026-04-03T14:15:48.916Z</time></trkpt><trkpt lat="44.0652583" lon="8.101405"><ele>94.66666666666667</ele><time>2026-04-03T14:15:49.916Z</time></trkpt><trkpt lat="44.0653217" lon="8.1013833"><ele>96.0</ele><time>2026-04-03T14:15:50.917Z</time></trkpt><trkpt lat="44.065395" lon="8.1013233"><ele>97.33333333333334</ele><time>2026-04-03T14:15:51.917Z</time></trkpt><trkpt lat="44.06545" lon="8.1012283"><ele>98.66666666666667</ele><time>2026-04-03T14:15:52.917Z</time></trkpt><trkpt lat="44.0654983" lon="8.1010817"><ele>100.0</ele><time>2026-04-03T14:15:53.917Z</time></trkpt><trkpt lat="44.0655483" lon="8.1009317"><ele>100.0</ele><time>2026-04-03T14:15:54.917Z</time></trkpt><trkpt lat="44.0655967" lon="8.100765"><ele>100.0</ele><time>2026-04-03T14:15:55.916Z</time></trkpt><trkpt lat="44.065655" lon="8.1006183"><ele>100.0</ele><time>2026-04-03T14:15:56.916Z</time></trkpt><trkpt lat="44.0657283" lon="8.1005017"><ele>100.0</ele><time>2026-04-03T14:15:57.917Z</time></trkpt><trkpt lat="44.0658067" lon="8.1004033"><ele>101.4</ele><time>2026-04-03T14:15:58.917Z</time></trkpt><trkpt lat="44.065895" lon="8.1003217"><ele>102.8</ele><time>2026-04-03T14:15:59.917Z</time></trkpt><trkpt lat="44.0659833" lon="8.100265"><ele>104.19999999999999</ele><time>2026-04-03T14:16:00.917Z</time></trkpt><trkpt lat="44.066065" lon="8.1002017"><ele>105.6</ele><time>2026-04-03T14:16:01.917Z</time></trkpt><trkpt lat="44.0661233" lon="8.1001067"><ele>107.0</ele><time>2026-04-03T14:16:02.917Z</time></trkpt><trkpt lat="44.0661617" lon="8.099985"><ele>108.8</ele><time>2026-04-03T14:16:03.917Z</time></trkpt><trkpt lat="44.0661833" lon="8.099845"><ele>110.6</ele><time>2026-04-03T14:16:04.917Z</time></trkpt><trkpt lat="44.0662083" lon="8.09971"><ele>112.39999999999999</ele><time>2026-04-03T14:16:05.916Z</time></trkpt><trkpt lat="44.0662483" lon="8.099605"><ele>114.19999999999999</ele><time>2026-04-03T14:16:06.917Z</time></trkpt><trkpt lat="44.066315" lon="8.0995183"><ele>116.0</ele><time>2026-04-03T14:16:07.916Z</time></trkpt><trkpt lat="44.0664017" lon="8.0994583"><ele>115.99999999999999</ele><time>2026-04-03T14:16:08.917Z</time></trkpt><trkpt lat="44.0665033" lon="8.0993917"><ele>116.0</ele><time>2026-04-03T14:16:09.916Z</time></trkpt><trkpt lat="44.066575" lon="8.09932"><ele>116.0</ele><time>2026-04-03T14:16:10.917Z</time></trkpt><trkpt lat="44.0666183" lon="8.0992233"><ele>116.0</ele><time>2026-04-03T14:16:11.917Z</time></trkpt><trkpt lat="44.0666383" lon="8.0991183"><ele>115.99999999999999</ele><time>2026-04-03T14:16:12.917Z</time></trkpt><trkpt lat="44.066655" lon="8.09903"><ele>116.0</ele><time>2026-04-03T14:16:13.916Z</time></trkpt><trkpt lat="44.06668" lon="8.0989333"><ele>115.66666666666666</ele><time>2026-04-03T14:16:14.917Z</time></trkpt><trkpt lat="44.0667217" lon="8.0988383"><ele>115.33333333333333</ele><time>2026-04-03T14:16:15.917Z</time></trkpt><trkpt lat="44.0667767" lon="8.098745"><ele>115.0</ele><time>2026-04-03T14:16:16.917Z</time></trkpt><trkpt lat="44.066835" lon="8.0986617"><ele>114.66666666666666</ele><time>2026-04-03T14:16:17.917Z</time></trkpt><trkpt lat="44.0668667" lon="8.0985767"><ele>114.33333333333333</ele><time>2026-04-03T14:16:18.916Z</time></trkpt><trkpt lat="44.066885" lon="8.09849"><ele>114.0</ele><time>2026-04-03T14:16:19.917Z</time></trkpt><trkpt lat="44.0668833" lon="8.0983917"><ele>114.0</ele><time>2026-04-03T14:16:20.917Z</time></trkpt><trkpt lat="44.06687" lon="8.0982833"><ele>114.0</ele><time>2026-04-03T14:16:21.917Z</time></trkpt><trkpt lat="44.0668817" lon="8.09818"><ele>114.0</ele><time>2026-04-03T14:16:22.916Z</time></trkpt><trkpt lat="44.066925" lon="8.09808"><ele>114.0</ele><time>2026-04-03T14:16:23.917Z</time></trkpt><trkpt lat="44.0669733" lon="8.0979883"><ele>114.0</ele><time>2026-04-03T14:16:24.916Z</time></trkpt><trkpt lat="44.0670333" lon="8.0979167"><ele>114.0</ele><time>2026-04-03T14:16:25.917Z</time></trkpt><trkpt lat="44.0670933" lon="8.0978667"><ele>115.0</ele><time>2026-04-03T14:16:26.916Z</time></trkpt><trkpt lat="44.0671717" lon="8.0978267"><ele>116.0</ele><time>2026-04-03T14:16:27.917Z</time></trkpt><trkpt lat="44.0672567" lon="8.097785"><ele>117.0</ele><time>2026-04-03T14:16:28.917Z</time></trkpt><trkpt lat="44.06734" lon="8.0977283"><ele>118.0</ele><time>2026-04-03T14:16:29.917Z</time></trkpt><trkpt lat="44.0674067" lon="8.0976867"><ele>119.0</ele><time>2026-04-03T14:16:30.916Z</time></trkpt><trkpt lat="44.067505" lon="8.0975833"><ele>119.0</ele><time>2026-04-03T14:16:32.916Z</time></trkpt><trkpt lat="44.0675983" lon="8.0975067"><ele>119.0</ele><time>2026-04-03T14:16:34.916Z</time></trkpt><trkpt lat="44.0676967" lon="8.0975"><ele>119.0</ele><time>2026-04-03T14:16:36.917Z</time></trkpt><trkpt lat="44.0677917" lon="8.0975583"><ele>119.0</ele><time>2026-04-03T14:16:38.917Z</time></trkpt><trkpt lat="44.0678983" lon="8.09762"><ele>119.0</ele><time>2026-04-03T14:16:40.916Z</time></trkpt><trkpt lat="44.0679983" lon="8.0975817"><ele>119.0</ele><time>2026-04-03T14:16:42.917Z</time></trkpt><trkpt lat="44.0681183" lon="8.097595"><ele>119.0</ele><time>2026-04-03T14:16:44.917Z</time></trkpt><trkpt lat="44.0681883" lon="8.0976317"><ele>119.0</ele><time>2026-04-03T14:16:45.917Z</time></trkpt><trkpt lat="44.0682817" lon="8.0976783"><ele>119.0</ele><time>2026-04-03T14:16:46.917Z</time></trkpt><trkpt lat="44.0683683" lon="8.0976967"><ele>119.0</ele><time>2026-04-03T14:16:47.917Z</time></trkpt><trkpt lat="44.06845" lon="8.097675"><ele>118.83333333333333</ele><time>2026-04-03T14:16:48.917Z</time></trkpt><trkpt lat="44.0685317" lon="8.097655"><ele>118.66666666666666</ele><time>2026-04-03T14:16:49.917Z</time></trkpt><trkpt lat="44.0686117" lon="8.0976567"><ele>118.5</ele><time>2026-04-03T14:16:50.916Z</time></trkpt><trkpt lat="44.0687217" lon="8.097625"><ele>118.33333333333334</ele><time>2026-04-03T14:16:52.917Z</time></trkpt><trkpt lat="44.0687783" lon="8.0975817"><ele>118.16666666666667</ele><time>2026-04-03T14:16:53.917Z</time></trkpt><trkpt lat="44.0688283" lon="8.097495"><ele>118.0</ele><time>2026-04-03T14:16:54.917Z</time></trkpt><trkpt lat="44.068875" lon="8.0974117"><ele>118.00000000000001</ele><time>2026-04-03T14:16:55.916Z</time></trkpt><trkpt lat="44.0689217" lon="8.0973367"><ele>118.0</ele><time>2026-04-03T14:16:56.916Z</time></trkpt><trkpt lat="44.06899" lon="8.0973517"><ele>118.0</ele><time>2026-04-03T14:16:58.917Z</time></trkpt><trkpt lat="44.06897" lon="8.097445"><ele>118.0</ele><time>2026-04-03T14:17:00.917Z</time></trkpt><trkpt lat="44.0688967" lon="8.0976"><ele>118.00000000000001</ele><time>2026-04-03T14:17:02.917Z</time></trkpt><trkpt lat="44.06887" lon="8.0977"><ele>118.0</ele><time>2026-04-03T14:17:03.917Z</time></trkpt><trkpt lat="44.0688383" lon="8.0977883"><ele>119.66666666666667</ele><time>2026-04-03T14:17:04.917Z</time></trkpt><trkpt lat="44.0687917" lon="8.097855"><ele>121.33333333333334</ele><time>2026-04-03T14:17:05.917Z</time></trkpt><trkpt lat="44.0686817" lon="8.0979317"><ele>123.0</ele><time>2026-04-03T14:17:07.916Z</time></trkpt><trkpt lat="44.0686167" lon="8.0979733"><ele>124.66666666666666</ele><time>2026-04-03T14:17:08.917Z</time></trkpt><trkpt lat="44.0685583" lon="8.098045"><ele>126.33333333333333</ele><time>2026-04-03T14:17:09.917Z</time></trkpt><trkpt lat="44.0685" lon="8.0981317"><ele>128.0</ele><time>2026-04-03T14:17:10.917Z</time></trkpt><trkpt lat="44.0684367" lon="8.0982233"><ele>127.99999999999999</ele><time>2026-04-03T14:17:11.916Z</time></trkpt><trkpt lat="44.068375" lon="8.0983033"><ele>128.0</ele><time>2026-04-03T14:17:12.917Z</time></trkpt><trkpt lat="44.068325" lon="8.0983683"><ele>128.0</ele><time>2026-04-03T14:17:13.916Z</time></trkpt><trkpt lat="44.0682733" lon="8.0984467"><ele>128.0</ele><time>2026-04-03T14:17:14.916Z</time></trkpt><trkpt lat="44.06824" lon="8.09854"><ele>127.99999999999999</ele><time>2026-04-03T14:17:15.917Z</time></trkpt><trkpt lat="44.0682267" lon="8.0986383"><ele>128.0</ele><time>2026-04-03T14:17:16.917Z</time></trkpt><trkpt lat="44.0682033" lon="8.0987367"><ele>127.99999999999999</ele><time>2026-04-03T14:17:17.917Z</time></trkpt><trkpt lat="44.0681667" lon="8.0988533"><ele>128.0</ele><time>2026-04-03T14:17:18.916Z</time></trkpt><trkpt lat="44.0681267" lon="8.0989517"><ele>128.0</ele><time>2026-04-03T14:17:19.917Z</time></trkpt><trkpt lat="44.0680817" lon="8.0990467"><ele>128.0</ele><time>2026-04-03T14:17:20.916Z</time></trkpt><trkpt lat="44.068035" lon="8.0991367"><ele>127.99999999999999</ele><time>2026-04-03T14:17:21.917Z</time></trkpt><trkpt lat="44.0679733" lon="8.0992433"><ele>128.0</ele><time>2026-04-03T14:17:22.917Z</time></trkpt><trkpt lat="44.0679283" lon="8.09933"><ele>130.0</ele><time>2026-04-03T14:17:23.917Z</time></trkpt><trkpt lat="44.06789" lon="8.0994283"><ele>132.0</ele><time>2026-04-03T14:17:25.916Z</time></trkpt><trkpt lat="44.0679883" lon="8.09946"><ele>134.0</ele><time>2026-04-03T14:17:29.916Z</time></trkpt><trkpt lat="44.0681133" lon="8.0994817"><ele>136.0</ele><time>2026-04-03T14:17:31.916Z</time></trkpt><trkpt lat="44.0681867" lon="8.0994983"><ele>138.0</ele><time>2026-04-03T14:17:32.917Z</time></trkpt><trkpt lat="44.068255" lon="8.099495"><ele>142.60000000000002</ele><time>2026-04-03T14:17:33.917Z</time></trkpt><trkpt lat="44.0683783" lon="8.099505"><ele>147.20000000000002</ele><time>2026-04-03T14:17:35.917Z</time></trkpt><trkpt lat="44.0685083" lon="8.0995017"><ele>151.8</ele><time>2026-04-03T14:17:37.917Z</time></trkpt><trkpt lat="44.0685883" lon="8.099445"><ele>156.4</ele><time>2026-04-03T14:17:39.916Z</time></trkpt><trkpt lat="44.0686633" lon="8.0993967"><ele>161.0</ele><time>2026-04-03T14:17:41.916Z</time></trkpt><trkpt lat="44.0687733" lon="8.0993917"><ele>161.0</ele><time>2026-04-03T14:17:43.917Z</time></trkpt><trkpt lat="44.0689017" lon="8.0993583"><ele>161.0</ele><time>2026-04-03T14:17:45.917Z</time></trkpt><trkpt lat="44.0689733" lon="8.0993217"><ele>161.0</ele><time>2026-04-03T14:17:46.917Z</time></trkpt><trkpt lat="44.0690517" lon="8.099275"><ele>161.0</ele><time>2026-04-03T14:17:47.917Z</time></trkpt><trkpt lat="44.069135" lon="8.0992317"><ele>161.0</ele><time>2026-04-03T14:17:48.917Z</time></trkpt><trkpt lat="44.0692283" lon="8.0991817"><ele>161.66666666666666</ele><time>2026-04-03T14:17:49.916Z</time></trkpt><trkpt lat="44.06932" lon="8.0991333"><ele>162.33333333333331</ele><time>2026-04-03T14:17:50.917Z</time></trkpt><trkpt lat="44.0694067" lon="8.099085"><ele>163.0</ele><time>2026-04-03T14:17:51.917Z</time></trkpt><trkpt lat="44.069485" lon="8.099045"><ele>163.66666666666666</ele><time>2026-04-03T14:17:52.916Z</time></trkpt><trkpt lat="44.0695583" lon="8.099025"><ele>164.33333333333334</ele><time>2026-04-03T14:17:53.916Z</time></trkpt><trkpt lat="44.0696283" lon="8.0990317"><ele>165.0</ele><time>2026-04-03T14:17:54.917Z</time></trkpt><trkpt lat="44.069745" lon="8.09908"><ele>167.6</ele><time>2026-04-03T14:17:56.916Z</time></trkpt><trkpt lat="44.0698317" lon="8.09914"><ele>170.2</ele><time>2026-04-03T14:17:58.917Z</time></trkpt><trkpt lat="44.0699033" lon="8.0991133"><ele>172.8</ele><time>2026-04-03T14:18:00.916Z</time></trkpt><trkpt lat="44.069975" lon="8.0989883"><ele>175.4</ele><time>2026-04-03T14:18:02.916Z</time></trkpt><trkpt lat="44.0701" lon="8.0989583"><ele>178.0</ele><time>2026-04-03T14:18:04.917Z</time></trkpt><trkpt lat="44.0701617" lon="8.0989333"><ele>178.0</ele><time>2026-04-03T14:18:05.917Z</time></trkpt><trkpt lat="44.07022" lon="8.0988833"><ele>178.0</ele><time>2026-04-03T14:18:06.917Z</time></trkpt><trkpt lat="44.0702833" lon="8.0988183"><ele>178.0</ele><time>2026-04-03T14:18:07.917Z</time></trkpt><trkpt lat="44.0703567" lon="8.0987217"><ele>178.0</ele><time>2026-04-03T14:18:08.917Z</time></trkpt><trkpt lat="44.0704267" lon="8.0985917"><ele>178.0</ele><time>2026-04-03T14:18:09.916Z</time></trkpt><trkpt lat="44.0704917" lon="8.0984533"><ele>178.0</ele><time>2026-04-03T14:18:10.916Z</time></trkpt><trkpt lat="44.0705433" lon="8.0983183"><ele>178.0</ele><time>2026-04-03T14:18:11.917Z</time></trkpt><trkpt lat="44.070595" lon="8.0981983"><ele>178.0</ele><time>2026-04-03T14:18:12.917Z</time></trkpt><trkpt lat="44.0706367" lon="8.0980783"><ele>178.0</ele><time>2026-04-03T14:18:13.917Z</time></trkpt><trkpt lat="44.07067" lon="8.0979933"><ele>178.0</ele><time>2026-04-03T14:18:14.917Z</time></trkpt><trkpt lat="44.0707733" lon="8.0979317"><ele>178.14285714285714</ele><time>2026-04-03T14:18:16.916Z</time></trkpt><trkpt lat="44.070845" lon="8.0979167"><ele>178.28571428571428</ele><time>2026-04-03T14:18:17.916Z</time></trkpt><trkpt lat="44.07092" lon="8.0979133"><ele>178.42857142857144</ele><time>2026-04-03T14:18:18.917Z</time></trkpt><trkpt lat="44.070995" lon="8.0979133"><ele>178.57142857142856</ele><time>2026-04-03T14:18:19.917Z</time></trkpt><trkpt lat="44.0710667" lon="8.09793"><ele>178.71428571428572</ele><time>2026-04-03T14:18:20.916Z</time></trkpt><trkpt lat="44.0711283" lon="8.0979517"><ele>178.85714285714286</ele><time>2026-04-03T14:18:21.917Z</time></trkpt><trkpt lat="44.0711917" lon="8.09798"><ele>179.0</ele><time>2026-04-03T14:18:22.917Z</time></trkpt><trkpt lat="44.0712917" lon="8.09795"><ele>179.00000000000003</ele><time>2026-04-03T14:18:24.917Z</time></trkpt><trkpt lat="44.0713583" lon="8.0979433"><ele>179.0</ele><time>2026-04-03T14:18:25.917Z</time></trkpt><trkpt lat="44.0714317" lon="8.0979517"><ele>179.0</ele><time>2026-04-03T14:18:26.917Z</time></trkpt><trkpt lat="44.071505" lon="8.09794"><ele>179.0</ele><time>2026-04-03T14:18:27.917Z</time></trkpt><trkpt lat="44.0715767" lon="8.097895"><ele>179.0</ele><time>2026-04-03T14:18:28.917Z</time></trkpt><trkpt lat="44.0716417" lon="8.0978217"><ele>179.00000000000003</ele><time>2026-04-03T14:18:29.917Z</time></trkpt><trkpt lat="44.071685" lon="8.0977533"><ele>179.0</ele><time>2026-04-03T14:18:30.917Z</time></trkpt><trkpt lat="44.071735" lon="8.09784"><ele>179.0</ele><time>2026-04-03T14:18:35.916Z</time></trkpt><trkpt lat="44.0717083" lon="8.0979417"><ele>179.0</ele><time>2026-04-03T14:18:36.917Z</time></trkpt><trkpt lat="44.0716567" lon="8.098035"><ele>179.0</ele><time>2026-04-03T14:18:37.917Z</time></trkpt><trkpt lat="44.0716033" lon="8.0981183"><ele>179.0</ele><time>2026-04-03T14:18:38.917Z</time></trkpt><trkpt lat="44.071485" lon="8.09821"><ele>179.0</ele><time>2026-04-03T14:18:40.917Z</time></trkpt><trkpt lat="44.07141" lon="8.098245"><ele>182.0</ele><time>2026-04-03T14:18:41.916Z</time></trkpt><trkpt lat="44.07135" lon="8.0982983"><ele>185.0</ele><time>2026-04-03T14:18:42.917Z</time></trkpt><trkpt lat="44.07131" lon="8.098375"><ele>188.0</ele><time>2026-04-03T14:18:43.917Z</time></trkpt><trkpt lat="44.0712967" lon="8.0985"><ele>191.0</ele><time>2026-04-03T14:18:44.917Z</time></trkpt><trkpt lat="44.0712983" lon="8.0986517"><ele>194.00000000000003</ele><time>2026-04-03T14:18:45.916Z</time></trkpt><trkpt lat="44.0713017" lon="8.0987817"><ele>197.0</ele><time>2026-04-03T14:18:46.917Z</time></trkpt><trkpt lat="44.07128" lon="8.0989183"><ele>197.0</ele><time>2026-04-03T14:18:47.916Z</time></trkpt><trkpt lat="44.0712517" lon="8.0990667"><ele>197.0</ele><time>2026-04-03T14:18:48.917Z</time></trkpt><trkpt lat="44.071195" lon="8.099195"><ele>197.0</ele><time>2026-04-03T14:18:49.917Z</time></trkpt><trkpt lat="44.0711383" lon="8.09933"><ele>197.0</ele><time>2026-04-03T14:18:50.917Z</time></trkpt><trkpt lat="44.0710617" lon="8.0994583"><ele>200.39999999999998</ele><time>2026-04-03T14:18:51.917Z</time></trkpt><trkpt lat="44.0710033" lon="8.0995833"><ele>203.79999999999998</ele><time>2026-04-03T14:18:52.917Z</time></trkpt><trkpt lat="44.07097" lon="8.0997183"><ele>207.2</ele><time>2026-04-03T14:18:53.917Z</time></trkpt><trkpt lat="44.0709417" lon="8.099845"><ele>210.6</ele><time>2026-04-03T14:18:54.917Z</time></trkpt><trkpt lat="44.07093" lon="8.0999483"><ele>214.0</ele><time>2026-04-03T14:18:55.916Z</time></trkpt><trkpt lat="44.0709417" lon="8.100095"><ele>216.39999999999998</ele><time>2026-04-03T14:18:57.916Z</time></trkpt><trkpt lat="44.0709833" lon="8.1002933"><ele>218.79999999999998</ele><time>2026-04-03T14:18:59.916Z</time></trkpt><trkpt lat="44.071025" lon="8.1004083"><ele>221.20000000000002</ele><time>2026-04-03T14:19:00.917Z</time></trkpt><trkpt lat="44.0710733" lon="8.1005183"><ele>223.60000000000002</ele><time>2026-04-03T14:19:01.917Z</time></trkpt><trkpt lat="44.0711267" lon="8.1006267"><ele>226.0</ele><time>2026-04-03T14:19:02.917Z</time></trkpt><trkpt lat="44.0711733" lon="8.1007267"><ele>227.83333333333331</ele><time>2026-04-03T14:19:03.917Z</time></trkpt><trkpt lat="44.071215" lon="8.10081"><ele>229.66666666666666</ele><time>2026-04-03T14:19:04.916Z</time></trkpt><trkpt lat="44.0712433" lon="8.10095"><ele>231.5</ele><time>2026-04-03T14:19:06.917Z</time></trkpt><trkpt lat="44.07126" lon="8.1011167"><ele>233.33333333333331</ele><time>2026-04-03T14:19:08.917Z</time></trkpt><trkpt lat="44.071285" lon="8.101205"><ele>235.16666666666666</ele><time>2026-04-03T14:19:09.917Z</time></trkpt><trkpt lat="44.0713117" lon="8.101305"><ele>237.0</ele><time>2026-04-03T14:19:10.916Z</time></trkpt><trkpt lat="44.0713583" lon="8.101405"><ele>236.99999999999997</ele><time>2026-04-03T14:19:11.917Z</time></trkpt><trkpt lat="44.0714117" lon="8.10149"><ele>237.0</ele><time>2026-04-03T14:19:12.916Z</time></trkpt><trkpt lat="44.0714567" lon="8.10158"><ele>236.99999999999997</ele><time>2026-04-03T14:19:13.917Z</time></trkpt><trkpt lat="44.0714933" lon="8.1016733"><ele>236.99999999999997</ele><time>2026-04-03T14:19:14.916Z</time></trkpt><trkpt lat="44.071515" lon="8.1017583"><ele>237.0</ele><time>2026-04-03T14:19:15.917Z</time></trkpt><trkpt lat="44.071525" lon="8.1018467"><ele>236.99999999999997</ele><time>2026-04-03T14:19:16.916Z</time></trkpt><trkpt lat="44.0715367" lon="8.1019367"><ele>236.99999999999997</ele><time>2026-04-03T14:19:17.917Z</time></trkpt><trkpt lat="44.07153" lon="8.1020483"><ele>236.33333333333334</ele><time>2026-04-03T14:19:18.917Z</time></trkpt><trkpt lat="44.071525" lon="8.1021733"><ele>235.66666666666669</ele><time>2026-04-03T14:19:19.917Z</time></trkpt><trkpt lat="44.0715117" lon="8.1022983"><ele>235.0</ele><time>2026-04-03T14:19:20.916Z</time></trkpt><trkpt lat="44.0715" lon="8.1024083"><ele>234.33333333333334</ele><time>2026-04-03T14:19:21.916Z</time></trkpt><trkpt lat="44.07147" lon="8.1025083"><ele>233.66666666666669</ele><time>2026-04-03T14:19:22.917Z</time></trkpt><trkpt lat="44.0714283" lon="8.1026"><ele>233.0</ele><time>2026-04-03T14:19:23.916Z</time></trkpt><trkpt lat="44.0713833" lon="8.1026867"><ele>230.66666666666669</ele><time>2026-04-03T14:19:24.916Z</time></trkpt><trkpt lat="44.0713383" lon="8.1027617"><ele>228.33333333333334</ele><time>2026-04-03T14:19:25.916Z</time></trkpt><trkpt lat="44.0712983" lon="8.1028417"><ele>226.0</ele><time>2026-04-03T14:19:26.917Z</time></trkpt><trkpt lat="44.0712683" lon="8.1029433"><ele>223.66666666666669</ele><time>2026-04-03T14:19:27.917Z</time></trkpt><trkpt lat="44.0712483" lon="8.1030583"><ele>221.33333333333334</ele><time>2026-04-03T14:19:28.917Z</time></trkpt><trkpt lat="44.071245" lon="8.1031833"><ele>219.0</ele><time>2026-04-03T14:19:29.917Z</time></trkpt><trkpt lat="44.0712417" lon="8.1032967"><ele>217.16666666666666</ele><time>2026-04-03T14:19:30.917Z</time></trkpt><trkpt lat="44.0712233" lon="8.1034"><ele>215.33333333333331</ele><time>2026-04-03T14:19:31.916Z</time></trkpt><trkpt lat="44.0711917" lon="8.1035017"><ele>213.5</ele><time>2026-04-03T14:19:32.917Z</time></trkpt><trkpt lat="44.0711483" lon="8.1036017"><ele>211.66666666666666</ele><time>2026-04-03T14:19:33.917Z</time></trkpt><trkpt lat="44.0711067" lon="8.1037083"><ele>209.83333333333331</ele><time>2026-04-03T14:19:34.917Z</time></trkpt><trkpt lat="44.0710733" lon="8.1038283"><ele>208.0</ele><time>2026-04-03T14:19:35.917Z</time></trkpt><trkpt lat="44.0710683" lon="8.1039583"><ele>207.99999999999997</ele><time>2026-04-03T14:19:36.917Z</time></trkpt><trkpt lat="44.0710567" lon="8.104075"><ele>208.0</ele><time>2026-04-03T14:19:37.917Z</time></trkpt><trkpt lat="44.0710417" lon="8.104185"><ele>208.0</ele><time>2026-04-03T14:19:38.917Z</time></trkpt><trkpt lat="44.07102" lon="8.1042917"><ele>208.0</ele><time>2026-04-03T14:19:39.916Z</time></trkpt><trkpt lat="44.0709867" lon="8.104385"><ele>207.99999999999997</ele><time>2026-04-03T14:19:40.916Z</time></trkpt><trkpt lat="44.07094" lon="8.1044733"><ele>208.0</ele><time>2026-04-03T14:19:41.916Z</time></trkpt><trkpt lat="44.0709133" lon="8.1045833"><ele>206.49999999999997</ele><time>2026-04-03T14:19:42.917Z</time></trkpt><trkpt lat="44.0709083" lon="8.1047067"><ele>205.0</ele><time>2026-04-03T14:19:43.917Z</time></trkpt><trkpt lat="44.0709233" lon="8.1048233"><ele>203.5</ele><time>2026-04-03T14:19:44.916Z</time></trkpt><trkpt lat="44.070945" lon="8.104945"><ele>202.0</ele><time>2026-04-03T14:19:45.917Z</time></trkpt><trkpt lat="44.0709633" lon="8.1050517"><ele>200.49999999999997</ele><time>2026-04-03T14:19:46.917Z</time></trkpt><trkpt lat="44.0709683" lon="8.1051517"><ele>199.0</ele><time>2026-04-03T14:19:47.917Z</time></trkpt><trkpt lat="44.0709433" lon="8.10525"><ele>197.83333333333331</ele><time>2026-04-03T14:19:48.917Z</time></trkpt><trkpt lat="44.070895" lon="8.1053433"><ele>196.66666666666666</ele><time>2026-04-03T14:19:49.917Z</time></trkpt><trkpt lat="44.0708617" lon="8.1054417"><ele>195.5</ele><time>2026-04-03T14:19:50.917Z</time></trkpt><trkpt lat="44.0708483" lon="8.1055367"><ele>194.33333333333331</ele><time>2026-04-03T14:19:51.916Z</time></trkpt><trkpt lat="44.07086" lon="8.1056383"><ele>193.16666666666666</ele><time>2026-04-03T14:19:52.917Z</time></trkpt><trkpt lat="44.0708933" lon="8.10574"><ele>192.0</ele><time>2026-04-03T14:19:53.916Z</time></trkpt><trkpt lat="44.0709133" lon="8.105845"><ele>192.5</ele><time>2026-04-03T14:19:54.916Z</time></trkpt><trkpt lat="44.0709217" lon="8.1059583"><ele>193.0</ele><time>2026-04-03T14:19:55.916Z</time></trkpt><trkpt lat="44.0709067" lon="8.106075"><ele>193.5</ele><time>2026-04-03T14:19:56.916Z</time></trkpt><trkpt lat="44.0708833" lon="8.1061867"><ele>194.0</ele><time>2026-04-03T14:19:57.915Z</time></trkpt><trkpt lat="44.0708467" lon="8.1062817"><ele>194.5</ele><time>2026-04-03T14:19:58.915Z</time></trkpt><trkpt lat="44.0707583" lon="8.1063717"><ele>195.0</ele><time>2026-04-03T14:20:00.916Z</time></trkpt><trkpt lat="44.0706783" lon="8.1063583"><ele>195.0</ele><time>2026-04-03T14:20:01.915Z</time></trkpt><trkpt lat="44.0705817" lon="8.1063033"><ele>195.0</ele><time>2026-04-03T14:20:02.916Z</time></trkpt><trkpt lat="44.070485" lon="8.1062367"><ele>195.0</ele><time>2026-04-03T14:20:03.915Z</time></trkpt><trkpt lat="44.0704017" lon="8.106195"><ele>195.0</ele><time>2026-04-03T14:20:04.916Z</time></trkpt><trkpt lat="44.07033" lon="8.106175"><ele>195.0</ele><time>2026-04-03T14:20:05.915Z</time></trkpt><trkpt lat="44.0702617" lon="8.1061683"><ele>195.0</ele><time>2026-04-03T14:20:06.916Z</time></trkpt><trkpt lat="44.0701467" lon="8.1062533"><ele>195.0</ele><time>2026-04-03T14:20:08.916Z</time></trkpt><trkpt lat="44.07009" lon="8.10634"><ele>195.0</ele><time>2026-04-03T14:20:09.916Z</time></trkpt><trkpt lat="44.0700483" lon="8.1064467"><ele>195.0</ele><time>2026-04-03T14:20:10.916Z</time></trkpt><trkpt lat="44.0700283" lon="8.10655"><ele>195.0</ele><time>2026-04-03T14:20:11.916Z</time></trkpt><trkpt lat="44.070025" lon="8.106665"><ele>195.0</ele><time>2026-04-03T14:20:12.916Z</time></trkpt><trkpt lat="44.0700367" lon="8.1067983"><ele>195.0</ele><time>2026-04-03T14:20:13.916Z</time></trkpt><trkpt lat="44.070045" lon="8.10694"><ele>192.2</ele><time>2026-04-03T14:20:14.915Z</time></trkpt><trkpt lat="44.0700733" lon="8.1070683"><ele>189.4</ele><time>2026-04-03T14:20:15.916Z</time></trkpt><trkpt lat="44.0700933" lon="8.107175"><ele>186.60000000000002</ele><time>2026-04-03T14:20:16.915Z</time></trkpt><trkpt lat="44.070115" lon="8.10728"><ele>183.8</ele><time>2026-04-03T14:20:17.916Z</time></trkpt><trkpt lat="44.0701833" lon="8.107375"><ele>181.0</ele><time>2026-04-03T14:20:18.916Z</time></trkpt><trkpt lat="44.0702467" lon="8.107485"><ele>181.0</ele><time>2026-04-03T14:20:19.915Z</time></trkpt><trkpt lat="44.0703" lon="8.1075667"><ele>181.0</ele><time>2026-04-03T14:20:20.915Z</time></trkpt><trkpt lat="44.0703533" lon="8.1076667"><ele>181.0</ele><time>2026-04-03T14:20:21.916Z</time></trkpt><trkpt lat="44.0704183" lon="8.1077667"><ele>181.0</ele><time>2026-04-03T14:20:22.915Z</time></trkpt><trkpt lat="44.0704733" lon="8.107875"><ele>181.0</ele><time>2026-04-03T14:20:23.915Z</time></trkpt><trkpt lat="44.0705567" lon="8.107965"><ele>181.0</ele><time>2026-04-03T14:20:24.916Z</time></trkpt><trkpt lat="44.0706333" lon="8.10806"><ele>181.0</ele><time>2026-04-03T14:20:25.916Z</time></trkpt><trkpt lat="44.0707117" lon="8.10814"><ele>181.0</ele><time>2026-04-03T14:20:26.916Z</time></trkpt><trkpt lat="44.0707783" lon="8.1082183"><ele>181.0</ele><time>2026-04-03T14:20:27.916Z</time></trkpt><trkpt lat="44.0708333" lon="8.1083133"><ele>181.0</ele><time>2026-04-03T14:20:28.915Z</time></trkpt><trkpt lat="44.0708533" lon="8.1084083"><ele>181.0</ele><time>2026-04-03T14:20:29.916Z</time></trkpt><trkpt lat="44.0708483" lon="8.1085"><ele>181.5</ele><time>2026-04-03T14:20:30.915Z</time></trkpt><trkpt lat="44.0708133" lon="8.1085967"><ele>182.0</ele><time>2026-04-03T14:20:31.915Z</time></trkpt><trkpt lat="44.07076" lon="8.1086833"><ele>182.5</ele><time>2026-04-03T14:20:32.916Z</time></trkpt><trkpt lat="44.0706983" lon="8.10878"><ele>183.0</ele><time>2026-04-03T14:20:33.915Z</time></trkpt><trkpt lat="44.0706567" lon="8.1088833"><ele>183.5</ele><time>2026-04-03T14:20:34.916Z</time></trkpt><trkpt lat="44.0706333" lon="8.1089967"><ele>184.0</ele><time>2026-04-03T14:20:35.916Z</time></trkpt><trkpt lat="44.0706283" lon="8.10912"><ele>181.16666666666669</ele><time>2026-04-03T14:20:36.915Z</time></trkpt><trkpt lat="44.070625" lon="8.1092383"><ele>178.33333333333334</ele><time>2026-04-03T14:20:37.915Z</time></trkpt><trkpt lat="44.0706083" lon="8.1093417"><ele>175.5</ele><time>2026-04-03T14:20:38.916Z</time></trkpt><trkpt lat="44.0705733" lon="8.10944"><ele>172.66666666666666</ele><time>2026-04-03T14:20:39.916Z</time></trkpt><trkpt lat="44.070525" lon="8.10952"><ele>169.83333333333331</ele><time>2026-04-03T14:20:40.915Z</time></trkpt><trkpt lat="44.0704583" lon="8.1095783"><ele>167.0</ele><time>2026-04-03T14:20:41.916Z</time></trkpt><trkpt lat="44.070385" lon="8.1096017"><ele>167.0</ele><time>2026-04-03T14:20:42.916Z</time></trkpt><trkpt lat="44.07032" lon="8.1096067"><ele>167.0</ele><time>2026-04-03T14:20:43.915Z</time></trkpt><trkpt lat="44.07025" lon="8.109615"><ele>167.0</ele><time>2026-04-03T14:20:44.915Z</time></trkpt><trkpt lat="44.0701633" lon="8.1096083"><ele>167.0</ele><time>2026-04-03T14:20:45.915Z</time></trkpt><trkpt lat="44.0700667" lon="8.109635"><ele>167.0</ele><time>2026-04-03T14:20:46.916Z</time></trkpt><trkpt lat="44.06997" lon="8.1096617"><ele>167.0</ele><time>2026-04-03T14:20:47.916Z</time></trkpt><trkpt lat="44.06988" lon="8.10968"><ele>167.0</ele><time>2026-04-03T14:20:48.916Z</time></trkpt><trkpt lat="44.0697917" lon="8.10968"><ele>167.0</ele><time>2026-04-03T14:20:49.915Z</time></trkpt><trkpt lat="44.0697067" lon="8.10968"><ele>167.0</ele><time>2026-04-03T14:20:50.916Z</time></trkpt><trkpt lat="44.0696267" lon="8.1096833"><ele>167.0</ele><time>2026-04-03T14:20:51.916Z</time></trkpt><trkpt lat="44.0695533" lon="8.1096883"><ele>167.0</ele><time>2026-04-03T14:20:52.916Z</time></trkpt><trkpt lat="44.0694817" lon="8.109765"><ele>167.0</ele><time>2026-04-03T14:20:54.916Z</time></trkpt><trkpt lat="44.0695217" lon="8.1099267"><ele>167.0</ele><time>2026-04-03T14:20:56.915Z</time></trkpt><trkpt lat="44.0695617" lon="8.11003"><ele>167.0</ele><time>2026-04-03T14:20:57.916Z</time></trkpt><trkpt lat="44.0695867" lon="8.11015"><ele>167.0</ele><time>2026-04-03T14:20:58.915Z</time></trkpt><trkpt lat="44.0696067" lon="8.1102667"><ele>167.0</ele><time>2026-04-03T14:20:59.916Z</time></trkpt><trkpt lat="44.0696033" lon="8.110385"><ele>167.0</ele><time>2026-04-03T14:21:00.916Z</time></trkpt><trkpt lat="44.0696033" lon="8.1104933"><ele>167.0</ele><time>2026-04-03T14:21:01.916Z</time></trkpt><trkpt lat="44.0696083" lon="8.1106133"><ele>164.6</ele><time>2026-04-03T14:21:02.916Z</time></trkpt><trkpt lat="44.0696233" lon="8.1107433"><ele>162.2</ele><time>2026-04-03T14:21:03.915Z</time></trkpt><trkpt lat="44.0696217" lon="8.110875"><ele>159.8</ele><time>2026-04-03T14:21:04.915Z</time></trkpt><trkpt lat="44.0696" lon="8.1109983"><ele>157.4</ele><time>2026-04-03T14:21:05.915Z</time></trkpt><trkpt lat="44.0695567" lon="8.11112"><ele>155.0</ele><time>2026-04-03T14:21:06.916Z</time></trkpt><trkpt lat="44.0695083" lon="8.1112217"><ele>155.0</ele><time>2026-04-03T14:21:07.915Z</time></trkpt><trkpt lat="44.0694583" lon="8.1113183"><ele>155.0</ele><time>2026-04-03T14:21:08.916Z</time></trkpt><trkpt lat="44.0694083" lon="8.1114117"><ele>155.0</ele><time>2026-04-03T14:21:09.916Z</time></trkpt><trkpt lat="44.0693617" lon="8.111515"><ele>155.0</ele><time>2026-04-03T14:21:10.916Z</time></trkpt><trkpt lat="44.0693117" lon="8.1116067"><ele>155.0</ele><time>2026-04-03T14:21:11.915Z</time></trkpt><trkpt lat="44.06926" lon="8.1116983"><ele>155.0</ele><time>2026-04-03T14:21:12.916Z</time></trkpt><trkpt lat="44.0692083" lon="8.1117817"><ele>152.5</ele><time>2026-04-03T14:21:13.916Z</time></trkpt><trkpt lat="44.06915" lon="8.111875"><ele>150.0</ele><time>2026-04-03T14:21:14.916Z</time></trkpt><trkpt lat="44.0690917" lon="8.1119667"><ele>147.5</ele><time>2026-04-03T14:21:15.915Z</time></trkpt><trkpt lat="44.06904" lon="8.1120483"><ele>145.0</ele><time>2026-04-03T14:21:16.915Z</time></trkpt><trkpt lat="44.06899" lon="8.11213"><ele>142.5</ele><time>2026-04-03T14:21:17.916Z</time></trkpt><trkpt lat="44.0689483" lon="8.1122033"><ele>140.0</ele><time>2026-04-03T14:21:18.915Z</time></trkpt><trkpt lat="44.06891" lon="8.1123183"><ele>142.6</ele><time>2026-04-03T14:21:19.916Z</time></trkpt><trkpt lat="44.06887" lon="8.112445"><ele>145.2</ele><time>2026-04-03T14:21:20.916Z</time></trkpt><trkpt lat="44.0688217" lon="8.112575"><ele>147.8</ele><time>2026-04-03T14:21:21.916Z</time></trkpt><trkpt lat="44.0687633" lon="8.1127067"><ele>150.4</ele><time>2026-04-03T14:21:22.916Z</time></trkpt><trkpt lat="44.0687133" lon="8.11281"><ele>153.0</ele><time>2026-04-03T14:21:23.916Z</time></trkpt><trkpt lat="44.0686583" lon="8.1129"><ele>153.0</ele><time>2026-04-03T14:21:24.915Z</time></trkpt><trkpt lat="44.068595" lon="8.1129733"><ele>153.0</ele><time>2026-04-03T14:21:25.916Z</time></trkpt><trkpt lat="44.0685367" lon="8.113025"><ele>153.0</ele><time>2026-04-03T14:21:26.916Z</time></trkpt><trkpt lat="44.0684733" lon="8.1131083"><ele>153.0</ele><time>2026-04-03T14:21:27.916Z</time></trkpt><trkpt lat="44.0684067" lon="8.1132217"><ele>153.0</ele><time>2026-04-03T14:21:28.915Z</time></trkpt><trkpt lat="44.068355" lon="8.1133117"><ele>153.0</ele><time>2026-04-03T14:21:29.916Z</time></trkpt><trkpt lat="44.0683067" lon="8.11344"><ele>152.8</ele><time>2026-04-03T14:21:30.916Z</time></trkpt><trkpt lat="44.0682533" lon="8.1135733"><ele>152.60000000000002</ele><time>2026-04-03T14:21:31.915Z</time></trkpt><trkpt lat="44.0682017" lon="8.113705"><ele>152.39999999999998</ele><time>2026-04-03T14:21:32.916Z</time></trkpt><trkpt lat="44.0681483" lon="8.1138317"><ele>152.2</ele><time>2026-04-03T14:21:33.916Z</time></trkpt><trkpt lat="44.068095" lon="8.113965"><ele>152.0</ele><time>2026-04-03T14:21:34.916Z</time></trkpt><trkpt lat="44.068045" lon="8.1140733"><ele>152.0</ele><time>2026-04-03T14:21:35.916Z</time></trkpt><trkpt lat="44.0679867" lon="8.1142083"><ele>152.0</ele><time>2026-04-03T14:21:36.916Z</time></trkpt><trkpt lat="44.067935" lon="8.1143533"><ele>152.0</ele><time>2026-04-03T14:21:37.915Z</time></trkpt><trkpt lat="44.06787" lon="8.1144883"><ele>152.0</ele><time>2026-04-03T14:21:38.916Z</time></trkpt><trkpt lat="44.067805" lon="8.1146167"><ele>152.0</ele><time>2026-04-03T14:21:39.915Z</time></trkpt><trkpt lat="44.0677383" lon="8.1147417"><ele>152.0</ele><time>2026-04-03T14:21:40.915Z</time></trkpt><trkpt lat="44.0676683" lon="8.1148767"><ele>152.0</ele><time>2026-04-03T14:21:41.916Z</time></trkpt><trkpt lat="44.0676183" lon="8.1150117"><ele>152.0</ele><time>2026-04-03T14:21:42.916Z</time></trkpt><trkpt lat="44.067575" lon="8.1151483"><ele>152.0</ele><time>2026-04-03T14:21:43.916Z</time></trkpt><trkpt lat="44.0675517" lon="8.1152867"><ele>151.2</ele><time>2026-04-03T14:21:44.916Z</time></trkpt><trkpt lat="44.0675417" lon="8.115435"><ele>150.39999999999998</ele><time>2026-04-03T14:21:45.915Z</time></trkpt><trkpt lat="44.0675133" lon="8.1155817"><ele>149.60000000000002</ele><time>2026-04-03T14:21:46.916Z</time></trkpt><trkpt lat="44.067465" lon="8.1157217"><ele>148.8</ele><time>2026-04-03T14:21:47.916Z</time></trkpt><trkpt lat="44.0674083" lon="8.11586"><ele>148.0</ele><time>2026-04-03T14:21:48.915Z</time></trkpt><trkpt lat="44.06736" lon="8.115985"><ele>148.0</ele><time>2026-04-03T14:21:49.916Z</time></trkpt><trkpt lat="44.067325" lon="8.11609"><ele>148.0</ele><time>2026-04-03T14:21:50.915Z</time></trkpt><trkpt lat="44.067305" lon="8.1161967"><ele>148.0</ele><time>2026-04-03T14:21:51.916Z</time></trkpt><trkpt lat="44.06731" lon="8.1162967"><ele>148.0</ele><time>2026-04-03T14:21:52.916Z</time></trkpt><trkpt lat="44.067335" lon="8.1163917"><ele>148.0</ele><time>2026-04-03T14:21:53.916Z</time></trkpt><trkpt lat="44.0673683" lon="8.1164967"><ele>148.0</ele><time>2026-04-03T14:21:54.916Z</time></trkpt><trkpt lat="44.0674233" lon="8.1165883"><ele>142.16666666666669</ele><time>2026-04-03T14:21:55.916Z</time></trkpt><trkpt lat="44.067485" lon="8.1166483"><ele>136.33333333333334</ele><time>2026-04-03T14:21:56.916Z</time></trkpt><trkpt lat="44.0675517" lon="8.1166983"><ele>130.5</ele><time>2026-04-03T14:21:57.915Z</time></trkpt><trkpt lat="44.0676217" lon="8.1167283"><ele>124.66666666666666</ele><time>2026-04-03T14:21:58.916Z</time></trkpt><trkpt lat="44.0676933" lon="8.1166817"><ele>118.83333333333333</ele><time>2026-04-03T14:21:59.916Z</time></trkpt><trkpt lat="44.067765" lon="8.1166067"><ele>113.0</ele><time>2026-04-03T14:22:00.916Z</time></trkpt><trkpt lat="44.067825" lon="8.11653"><ele>113.0</ele><time>2026-04-03T14:22:01.916Z</time></trkpt><trkpt lat="44.0678733" lon="8.1164567"><ele>113.0</ele><time>2026-04-03T14:22:02.916Z</time></trkpt><trkpt lat="44.0679267" lon="8.116395"><ele>113.0</ele><time>2026-04-03T14:22:03.916Z</time></trkpt><trkpt lat="44.0679917" lon="8.1163433"><ele>113.0</ele><time>2026-04-03T14:22:04.916Z</time></trkpt><trkpt lat="44.06806" lon="8.11632"><ele>113.0</ele><time>2026-04-03T14:22:05.916Z</time></trkpt><trkpt lat="44.0681267" lon="8.1163217"><ele>113.0</ele><time>2026-04-03T14:22:06.916Z</time></trkpt><trkpt lat="44.06819" lon="8.11635"><ele>113.0</ele><time>2026-04-03T14:22:07.915Z</time></trkpt><trkpt lat="44.0682533" lon="8.1164017"><ele>111.49999999999999</ele><time>2026-04-03T14:22:08.915Z</time></trkpt><trkpt lat="44.0683283" lon="8.116465"><ele>110.0</ele><time>2026-04-03T14:22:09.916Z</time></trkpt><trkpt lat="44.06841" lon="8.1165083"><ele>108.5</ele><time>2026-04-03T14:22:10.916Z</time></trkpt><trkpt lat="44.0684783" lon="8.116535"><ele>107.0</ele><time>2026-04-03T14:22:11.916Z</time></trkpt><trkpt lat="44.0685417" lon="8.1165317"><ele>105.49999999999999</ele><time>2026-04-03T14:22:12.916Z</time></trkpt><trkpt lat="44.0686333" lon="8.1164383"><ele>104.0</ele><time>2026-04-03T14:22:14.916Z</time></trkpt><trkpt lat="44.0686633" lon="8.1163267"><ele>103.99999999999999</ele><time>2026-04-03T14:22:15.915Z</time></trkpt><trkpt lat="44.0686933" lon="8.1161917"><ele>104.0</ele><time>2026-04-03T14:22:16.916Z</time></trkpt><trkpt lat="44.06872" lon="8.11608"><ele>104.0</ele><time>2026-04-03T14:22:17.916Z</time></trkpt><trkpt lat="44.0687417" lon="8.1159883"><ele>104.0</ele><time>2026-04-03T14:22:18.916Z</time></trkpt><trkpt lat="44.0688" lon="8.1159267"><ele>103.99999999999999</ele><time>2026-04-03T14:22:20.916Z</time></trkpt><trkpt lat="44.0688933" lon="8.1159817"><ele>104.0</ele><time>2026-04-03T14:22:22.915Z</time></trkpt><trkpt lat="44.0689583" lon="8.1160317"><ele>103.99999999999999</ele><time>2026-04-03T14:22:23.916Z</time></trkpt><trkpt lat="44.0690267" lon="8.1160933"><ele>104.0</ele><time>2026-04-03T14:22:24.916Z</time></trkpt><trkpt lat="44.0690883" lon="8.1161567"><ele>104.0</ele><time>2026-04-03T14:22:25.916Z</time></trkpt><trkpt lat="44.0691583" lon="8.1162133"><ele>104.0</ele><time>2026-04-03T14:22:26.916Z</time></trkpt><trkpt lat="44.0692183" lon="8.1162667"><ele>103.99999999999999</ele><time>2026-04-03T14:22:27.916Z</time></trkpt><trkpt lat="44.0692783" lon="8.11633"><ele>104.0</ele><time>2026-04-03T14:22:28.916Z</time></trkpt><trkpt lat="44.06934" lon="8.11637"><ele>104.49999999999999</ele><time>2026-04-03T14:22:29.916Z</time></trkpt><trkpt lat="44.0694017" lon="8.116425"><ele>105.0</ele><time>2026-04-03T14:22:30.916Z</time></trkpt><trkpt lat="44.069475" lon="8.116465"><ele>105.5</ele><time>2026-04-03T14:22:31.916Z</time></trkpt><trkpt lat="44.0695367" lon="8.1164833"><ele>106.0</ele><time>2026-04-03T14:22:32.916Z</time></trkpt><trkpt lat="44.069615" lon="8.11653"><ele>106.49999999999999</ele><time>2026-04-03T14:22:34.916Z</time></trkpt><trkpt lat="44.069645" lon="8.1166767"><ele>107.0</ele><time>2026-04-03T14:22:36.916Z</time></trkpt><trkpt lat="44.0696333" lon="8.1167733"><ele>108.5</ele><time>2026-04-03T14:22:37.916Z</time></trkpt><trkpt lat="44.0695933" lon="8.1169133"><ele>110.0</ele><time>2026-04-03T14:22:38.916Z</time></trkpt><trkpt lat="44.069555" lon="8.1170683"><ele>111.5</ele><time>2026-04-03T14:22:39.915Z</time></trkpt><trkpt lat="44.069505" lon="8.1172167"><ele>113.0</ele><time>2026-04-03T14:22:40.915Z</time></trkpt><trkpt lat="44.069455" lon="8.1173483"><ele>114.2</ele><time>2026-04-03T14:22:41.916Z</time></trkpt><trkpt lat="44.0694017" lon="8.11749"><ele>115.4</ele><time>2026-04-03T14:22:42.916Z</time></trkpt><trkpt lat="44.0693633" lon="8.11763"><ele>116.60000000000001</ele><time>2026-04-03T14:22:43.916Z</time></trkpt><trkpt lat="44.06934" lon="8.1177683"><ele>117.80000000000001</ele><time>2026-04-03T14:22:44.916Z</time></trkpt><trkpt lat="44.0693383" lon="8.1178867"><ele>119.0</ele><time>2026-04-03T14:22:45.916Z</time></trkpt><trkpt lat="44.069355" lon="8.117975"><ele>119.0</ele><time>2026-04-03T14:22:46.915Z</time></trkpt><trkpt lat="44.0694083" lon="8.1180333"><ele>119.0</ele><time>2026-04-03T14:22:47.915Z</time></trkpt><trkpt lat="44.0694983" lon="8.1180783"><ele>119.0</ele><time>2026-04-03T14:22:48.916Z</time></trkpt><trkpt lat="44.0695933" lon="8.1181333"><ele>119.0</ele><time>2026-04-03T14:22:49.915Z</time></trkpt><trkpt lat="44.0696783" lon="8.1182083"><ele>119.0</ele><time>2026-04-03T14:22:50.916Z</time></trkpt><trkpt lat="44.0697717" lon="8.1182867"><ele>119.0</ele><time>2026-04-03T14:22:51.916Z</time></trkpt><trkpt lat="44.06987" lon="8.1183717"><ele>119.0</ele><time>2026-04-03T14:22:52.915Z</time></trkpt><trkpt lat="44.06995" lon="8.1184817"><ele>119.0</ele><time>2026-04-03T14:22:53.916Z</time></trkpt><trkpt lat="44.0700033" lon="8.118575"><ele>119.0</ele><time>2026-04-03T14:22:54.916Z</time></trkpt><trkpt lat="44.070055" lon="8.1186483"><ele>119.0</ele><time>2026-04-03T14:22:55.916Z</time></trkpt><trkpt lat="44.0701283" lon="8.1187167"><ele>121.33333333333333</ele><time>2026-04-03T14:22:56.916Z</time></trkpt><trkpt lat="44.0701983" lon="8.1187667"><ele>123.66666666666666</ele><time>2026-04-03T14:22:57.915Z</time></trkpt><trkpt lat="44.0702667" lon="8.1188267"><ele>126.0</ele><time>2026-04-03T14:22:58.916Z</time></trkpt><trkpt lat="44.0703317" lon="8.11891"><ele>128.33333333333334</ele><time>2026-04-03T14:22:59.915Z</time></trkpt><trkpt lat="44.070365" lon="8.11899"><ele>130.66666666666669</ele><time>2026-04-03T14:23:00.915Z</time></trkpt><trkpt lat="44.0703833" lon="8.1191317"><ele>133.0</ele><time>2026-04-03T14:23:02.916Z</time></trkpt><trkpt lat="44.070345" lon="8.1192417"><ele>133.16666666666669</ele><time>2026-04-03T14:23:04.916Z</time></trkpt><trkpt lat="44.0702833" lon="8.1192833"><ele>133.33333333333334</ele><time>2026-04-03T14:23:06.916Z</time></trkpt><trkpt lat="44.07022" lon="8.1193583"><ele>133.5</ele><time>2026-04-03T14:23:16.916Z</time></trkpt><trkpt lat="44.0702417" lon="8.11945"><ele>133.66666666666666</ele><time>2026-04-03T14:23:21.916Z</time></trkpt><trkpt lat="44.0702217" lon="8.1195367"><ele>133.83333333333331</ele><time>2026-04-03T14:23:27.916Z</time></trkpt><trkpt lat="44.0702183" lon="8.119645"><ele>134.0</ele><time>2026-04-03T14:23:31.915Z</time></trkpt><trkpt lat="44.0701117" lon="8.1197933"><ele>134.0</ele><time>2026-04-03T14:23:38.916Z</time></trkpt><trkpt lat="44.0700117" lon="8.1198417"><ele>134.0</ele><time>2026-04-03T14:23:40.915Z</time></trkpt><trkpt lat="44.06994" lon="8.119875"><ele>134.0</ele><time>2026-04-03T14:23:41.916Z</time></trkpt><trkpt lat="44.0698783" lon="8.119915"><ele>134.0</ele><time>2026-04-03T14:23:42.915Z</time></trkpt><trkpt lat="44.0698333" lon="8.1199767"><ele>134.0</ele><time>2026-04-03T14:23:43.916Z</time></trkpt><trkpt lat="44.0697967" lon="8.1201183"><ele>134.0</ele><time>2026-04-03T14:23:45.915Z</time></trkpt><trkpt lat="44.069765" lon="8.1202767"><ele>136.5</ele><time>2026-04-03T14:23:47.915Z</time></trkpt><trkpt lat="44.069735" lon="8.1204233"><ele>139.0</ele><time>2026-04-03T14:23:49.915Z</time></trkpt><trkpt lat="44.069665" lon="8.1205617"><ele>141.5</ele><time>2026-04-03T14:23:51.915Z</time></trkpt><trkpt lat="44.0696067" lon="8.1207017"><ele>144.0</ele><time>2026-04-03T14:23:53.916Z</time></trkpt><trkpt lat="44.0695483" lon="8.12083"><ele>146.6</ele><time>2026-04-03T14:23:55.915Z</time></trkpt><trkpt lat="44.069465" lon="8.12092"><ele>149.2</ele><time>2026-04-03T14:23:57.915Z</time></trkpt><trkpt lat="44.0693633" lon="8.12095"><ele>151.79999999999998</ele><time>2026-04-03T14:23:59.916Z</time></trkpt><trkpt lat="44.0692617" lon="8.1209"><ele>154.4</ele><time>2026-04-03T14:24:01.915Z</time></trkpt><trkpt lat="44.0691883" lon="8.1208783"><ele>157.0</ele><time>2026-04-03T14:24:04.915Z</time></trkpt><trkpt lat="44.0691767" lon="8.12101"><ele>157.0</ele><time>2026-04-03T14:24:07.916Z</time></trkpt><trkpt lat="44.0691933" lon="8.1211033"><ele>157.0</ele><time>2026-04-03T14:24:08.915Z</time></trkpt><trkpt lat="44.0692133" lon="8.1212083"><ele>157.0</ele><time>2026-04-03T14:24:09.916Z</time></trkpt><trkpt lat="44.0692433" lon="8.121295"><ele>157.0</ele><time>2026-04-03T14:24:10.916Z</time></trkpt><trkpt lat="44.0693367" lon="8.1214167"><ele>157.0</ele><time>2026-04-03T14:24:12.916Z</time></trkpt><trkpt lat="44.0693917" lon="8.1214617"><ele>157.0</ele><time>2026-04-03T14:24:13.915Z</time></trkpt><trkpt lat="44.0695083" lon="8.1214467"><ele>157.0</ele><time>2026-04-03T14:24:15.915Z</time></trkpt><trkpt lat="44.069585" lon="8.1214"><ele>157.0</ele><time>2026-04-03T14:24:17.915Z</time></trkpt><trkpt lat="44.0696583" lon="8.1215033"><ele>157.0</ele><time>2026-04-03T14:24:26.916Z</time></trkpt><trkpt lat="44.0697533" lon="8.1216383"><ele>157.0</ele><time>2026-04-03T14:24:28.916Z</time></trkpt><trkpt lat="44.0698083" lon="8.1216967"><ele>157.0</ele><time>2026-04-03T14:24:29.916Z</time></trkpt><trkpt lat="44.0698717" lon="8.1217583"><ele>159.0</ele><time>2026-04-03T14:24:30.916Z</time></trkpt><trkpt lat="44.0699367" lon="8.1218167"><ele>161.0</ele><time>2026-04-03T14:24:31.915Z</time></trkpt><trkpt lat="44.0700033" lon="8.1219083"><ele>163.0</ele><time>2026-04-03T14:24:33.915Z</time></trkpt><trkpt lat="44.0699817" lon="8.1220333"><ele>165.0</ele><time>2026-04-03T14:24:35.916Z</time></trkpt><trkpt lat="44.0699467" lon="8.1221133"><ele>167.0</ele><time>2026-04-03T14:24:36.915Z</time></trkpt><trkpt lat="44.06992" lon="8.1221983"><ele>169.0</ele><time>2026-04-03T14:24:37.916Z</time></trkpt><trkpt lat="44.0699033" lon="8.1223133"><ele>168.0</ele><time>2026-04-03T14:24:38.916Z</time></trkpt><trkpt lat="44.0699017" lon="8.1224267"><ele>167.0</ele><time>2026-04-03T14:24:39.916Z</time></trkpt><trkpt lat="44.0699017" lon="8.12255"><ele>166.0</ele><time>2026-04-03T14:24:40.916Z</time></trkpt><trkpt lat="44.0699183" lon="8.1226633"><ele>165.0</ele><time>2026-04-03T14:24:41.916Z</time></trkpt><trkpt lat="44.0699333" lon="8.12279"><ele>164.0</ele><time>2026-04-03T14:24:42.916Z</time></trkpt><trkpt lat="44.069945" lon="8.1229117"><ele>163.0</ele><time>2026-04-03T14:24:43.915Z</time></trkpt><trkpt lat="44.069965" lon="8.123025"><ele>163.0</ele><time>2026-04-03T14:24:44.916Z</time></trkpt><trkpt lat="44.0699883" lon="8.123135"><ele>163.0</ele><time>2026-04-03T14:24:45.916Z</time></trkpt><trkpt lat="44.0699983" lon="8.123255"><ele>163.0</ele><time>2026-04-03T14:24:46.916Z</time></trkpt><trkpt lat="44.07" lon="8.1233667"><ele>163.0</ele><time>2026-04-03T14:24:47.916Z</time></trkpt><trkpt lat="44.0699867" lon="8.1234733"><ele>163.0</ele><time>2026-04-03T14:24:48.915Z</time></trkpt><trkpt lat="44.0699683" lon="8.1236017"><ele>163.0</ele><time>2026-04-03T14:24:49.915Z</time></trkpt><trkpt lat="44.0699483" lon="8.1237283"><ele>162.83333333333334</ele><time>2026-04-03T14:24:50.915Z</time></trkpt><trkpt lat="44.0699333" lon="8.1238433"><ele>162.66666666666669</ele><time>2026-04-03T14:24:51.915Z</time></trkpt><trkpt lat="44.06993" lon="8.1239467"><ele>162.5</ele><time>2026-04-03T14:24:52.915Z</time></trkpt><trkpt lat="44.06993" lon="8.12404"><ele>162.33333333333334</ele><time>2026-04-03T14:24:53.916Z</time></trkpt><trkpt lat="44.0699317" lon="8.1241433"><ele>162.16666666666666</ele><time>2026-04-03T14:24:54.916Z</time></trkpt><trkpt lat="44.069955" lon="8.124255"><ele>162.0</ele><time>2026-04-03T14:24:55.916Z</time></trkpt><trkpt lat="44.0699783" lon="8.12437"><ele>160.2</ele><time>2026-04-03T14:24:56.916Z</time></trkpt><trkpt lat="44.070025" lon="8.1244767"><ele>158.39999999999998</ele><time>2026-04-03T14:24:57.916Z</time></trkpt><trkpt lat="44.0700717" lon="8.1245817"><ele>156.60000000000002</ele><time>2026-04-03T14:24:58.916Z</time></trkpt><trkpt lat="44.0701067" lon="8.124695"><ele>154.8</ele><time>2026-04-03T14:24:59.915Z</time></trkpt><trkpt lat="44.0701317" lon="8.124825"><ele>153.0</ele><time>2026-04-03T14:25:00.915Z</time></trkpt><trkpt lat="44.0701333" lon="8.1249533"><ele>153.0</ele><time>2026-04-03T14:25:01.915Z</time></trkpt><trkpt lat="44.0701317" lon="8.1250867"><ele>153.0</ele><time>2026-04-03T14:25:02.916Z</time></trkpt><trkpt lat="44.070125" lon="8.1252133"><ele>153.0</ele><time>2026-04-03T14:25:03.916Z</time></trkpt><trkpt lat="44.0701383" lon="8.125355"><ele>153.0</ele><time>2026-04-03T14:25:04.916Z</time></trkpt><trkpt lat="44.070175" lon="8.1254967"><ele>153.0</ele><time>2026-04-03T14:25:05.915Z</time></trkpt><trkpt lat="44.0702083" lon="8.125625"><ele>152.6</ele><time>2026-04-03T14:25:06.916Z</time></trkpt><trkpt lat="44.0702467" lon="8.12576"><ele>152.20000000000002</ele><time>2026-04-03T14:25:07.916Z</time></trkpt><trkpt lat="44.070275" lon="8.1259033"><ele>151.8</ele><time>2026-04-03T14:25:08.915Z</time></trkpt><trkpt lat="44.0703083" lon="8.126035"><ele>151.4</ele><time>2026-04-03T14:25:09.916Z</time></trkpt><trkpt lat="44.0703367" lon="8.1261567"><ele>151.0</ele><time>2026-04-03T14:25:10.916Z</time></trkpt><trkpt lat="44.0703717" lon="8.1262583"><ele>151.0</ele><time>2026-04-03T14:25:11.915Z</time></trkpt><trkpt lat="44.070425" lon="8.1263317"><ele>151.0</ele><time>2026-04-03T14:25:12.916Z</time></trkpt><trkpt lat="44.0704883" lon="8.1263933"><ele>151.0</ele><time>2026-04-03T14:25:13.915Z</time></trkpt><trkpt lat="44.0705667" lon="8.1264517"><ele>151.0</ele><time>2026-04-03T14:25:14.916Z</time></trkpt><trkpt lat="44.07066" lon="8.1265417"><ele>151.0</ele><time>2026-04-03T14:25:15.915Z</time></trkpt><trkpt lat="44.07074" lon="8.1266417"><ele>148.8</ele><time>2026-04-03T14:25:16.916Z</time></trkpt><trkpt lat="44.0708083" lon="8.12675"><ele>146.6</ele><time>2026-04-03T14:25:17.915Z</time></trkpt><trkpt lat="44.0708683" lon="8.12687"><ele>144.4</ele><time>2026-04-03T14:25:18.915Z</time></trkpt><trkpt lat="44.07093" lon="8.1269567"><ele>142.2</ele><time>2026-04-03T14:25:19.916Z</time></trkpt><trkpt lat="44.070995" lon="8.127035"><ele>140.0</ele><time>2026-04-03T14:25:20.915Z</time></trkpt><trkpt lat="44.0710583" lon="8.12708"><ele>140.0</ele><time>2026-04-03T14:25:21.916Z</time></trkpt><trkpt lat="44.0711267" lon="8.127125"><ele>140.0</ele><time>2026-04-03T14:25:22.915Z</time></trkpt><trkpt lat="44.0711983" lon="8.1271267"><ele>140.0</ele><time>2026-04-03T14:25:23.916Z</time></trkpt><trkpt lat="44.0712617" lon="8.12716"><ele>140.0</ele><time>2026-04-03T14:25:24.916Z</time></trkpt><trkpt lat="44.0713217" lon="8.1272217"><ele>140.0</ele><time>2026-04-03T14:25:25.915Z</time></trkpt><trkpt lat="44.0713617" lon="8.1273233"><ele>140.0</ele><time>2026-04-03T14:25:26.916Z</time></trkpt><trkpt lat="44.0713767" lon="8.1274217"><ele>140.0</ele><time>2026-04-03T14:25:27.915Z</time></trkpt><trkpt lat="44.07139" lon="8.1275267"><ele>138.83333333333331</ele><time>2026-04-03T14:25:28.916Z</time></trkpt><trkpt lat="44.0714" lon="8.1276317"><ele>137.66666666666666</ele><time>2026-04-03T14:25:29.915Z</time></trkpt><trkpt lat="44.071405" lon="8.1277283"><ele>136.5</ele><time>2026-04-03T14:25:30.916Z</time></trkpt><trkpt lat="44.0713783" lon="8.1278617"><ele>135.33333333333334</ele><time>2026-04-03T14:25:32.916Z</time></trkpt><trkpt lat="44.0713133" lon="8.1278567"><ele>134.16666666666669</ele><time>2026-04-03T14:25:34.915Z</time></trkpt><trkpt lat="44.0712567" lon="8.1277683"><ele>133.0</ele><time>2026-04-03T14:25:35.916Z</time></trkpt><trkpt lat="44.0711983" lon="8.1276733"><ele>133.0</ele><time>2026-04-03T14:25:36.916Z</time></trkpt><trkpt lat="44.0711267" lon="8.1275867"><ele>133.0</ele><time>2026-04-03T14:25:37.916Z</time></trkpt><trkpt lat="44.0710683" lon="8.12754"><ele>133.0</ele><time>2026-04-03T14:25:38.916Z</time></trkpt><trkpt lat="44.07098" lon="8.1275467"><ele>133.0</ele><time>2026-04-03T14:25:40.916Z</time></trkpt><trkpt lat="44.07094" lon="8.1276567"><ele>133.0</ele><time>2026-04-03T14:25:42.916Z</time></trkpt><trkpt lat="44.070975" lon="8.1278183"><ele>133.0</ele><time>2026-04-03T14:25:44.916Z</time></trkpt><trkpt lat="44.0709967" lon="8.1279067"><ele>133.0</ele><time>2026-04-03T14:25:45.916Z</time></trkpt><trkpt lat="44.07104" lon="8.1280583"><ele>133.0</ele><time>2026-04-03T14:25:47.916Z</time></trkpt><trkpt lat="44.07107" lon="8.1282083"><ele>133.0</ele><time>2026-04-03T14:25:49.916Z</time></trkpt><trkpt lat="44.0711233" lon="8.128315"><ele>133.0</ele><time>2026-04-03T14:25:51.915Z</time></trkpt><trkpt lat="44.0711617" lon="8.12845"><ele>132.66666666666669</ele><time>2026-04-03T14:25:53.915Z</time></trkpt><trkpt lat="44.0711333" lon="8.1285983"><ele>132.33333333333334</ele><time>2026-04-03T14:25:55.916Z</time></trkpt><trkpt lat="44.07108" lon="8.1286633"><ele>132.0</ele><time>2026-04-03T14:25:57.915Z</time></trkpt><trkpt lat="44.0710833" lon="8.128755"><ele>131.66666666666666</ele><time>2026-04-03T14:26:00.916Z</time></trkpt><trkpt lat="44.0711333" lon="8.1288283"><ele>131.33333333333331</ele><time>2026-04-03T14:26:02.916Z</time></trkpt><trkpt lat="44.0712033" lon="8.128875"><ele>131.0</ele><time>2026-04-03T14:26:04.915Z</time></trkpt><trkpt lat="44.071275" lon="8.1289133"><ele>131.0</ele><time>2026-04-03T14:26:06.916Z</time></trkpt><trkpt lat="44.0713767" lon="8.1289033"><ele>131.0</ele><time>2026-04-03T14:26:08.916Z</time></trkpt><trkpt lat="44.0714283" lon="8.1288517"><ele>131.0</ele><time>2026-04-03T14:26:09.916Z</time></trkpt><trkpt lat="44.0714767" lon="8.128795"><ele>131.0</ele><time>2026-04-03T14:26:10.915Z</time></trkpt><trkpt lat="44.0715633" lon="8.1287667"><ele>131.0</ele><time>2026-04-03T14:26:12.916Z</time></trkpt><trkpt lat="44.07166" lon="8.1288333"><ele>131.0</ele><time>2026-04-03T14:26:14.916Z</time></trkpt><trkpt lat="44.0717483" lon="8.128955"><ele>129.5</ele><time>2026-04-03T14:26:16.916Z</time></trkpt><trkpt lat="44.0717867" lon="8.129045"><ele>128.0</ele><time>2026-04-03T14:26:17.915Z</time></trkpt><trkpt lat="44.07183" lon="8.1291367"><ele>126.5</ele><time>2026-04-03T14:26:18.916Z</time></trkpt><trkpt lat="44.07188" lon="8.1292433"><ele>125.0</ele><time>2026-04-03T14:26:19.916Z</time></trkpt><trkpt lat="44.0719317" lon="8.1293483"><ele>123.49999999999999</ele><time>2026-04-03T14:26:20.915Z</time></trkpt><trkpt lat="44.0719617" lon="8.129455"><ele>122.0</ele><time>2026-04-03T14:26:21.915Z</time></trkpt><trkpt lat="44.0720117" lon="8.1295733"><ele>122.33333333333333</ele><time>2026-04-03T14:26:22.916Z</time></trkpt><trkpt lat="44.0720583" lon="8.129685"><ele>122.66666666666666</ele><time>2026-04-03T14:26:23.916Z</time></trkpt><trkpt lat="44.072115" lon="8.1297583"><ele>123.0</ele><time>2026-04-03T14:26:24.916Z</time></trkpt><trkpt lat="44.072185" lon="8.1298083"><ele>123.33333333333334</ele><time>2026-04-03T14:26:25.915Z</time></trkpt><trkpt lat="44.0722417" lon="8.1298683"><ele>123.66666666666667</ele><time>2026-04-03T14:26:26.916Z</time></trkpt><trkpt lat="44.0722833" lon="8.1299467"><ele>124.0</ele><time>2026-04-03T14:26:27.915Z</time></trkpt><trkpt lat="44.0723217" lon="8.130045"><ele>124.0</ele><time>2026-04-03T14:26:28.916Z</time></trkpt><trkpt lat="44.0723683" lon="8.1301617"><ele>124.0</ele><time>2026-04-03T14:26:29.916Z</time></trkpt><trkpt lat="44.0724067" lon="8.1302717"><ele>124.0</ele><time>2026-04-03T14:26:30.915Z</time></trkpt><trkpt lat="44.0724367" lon="8.130405"><ele>124.0</ele><time>2026-04-03T14:26:31.915Z</time></trkpt><trkpt lat="44.0724733" lon="8.1305517"><ele>124.0</ele><time>2026-04-03T14:26:32.916Z</time></trkpt><trkpt lat="44.07251" lon="8.1306883"><ele>122.50000000000001</ele><time>2026-04-03T14:26:33.915Z</time></trkpt><trkpt lat="44.0725333" lon="8.1308233"><ele>121.0</ele><time>2026-04-03T14:26:34.916Z</time></trkpt><trkpt lat="44.0725667" lon="8.130935"><ele>119.5</ele><time>2026-04-03T14:26:35.915Z</time></trkpt><trkpt lat="44.07259" lon="8.1310467"><ele>118.0</ele><time>2026-04-03T14:26:36.915Z</time></trkpt><trkpt lat="44.0726067" lon="8.1311533"><ele>116.50000000000001</ele><time>2026-04-03T14:26:37.916Z</time></trkpt><trkpt lat="44.072605" lon="8.1312583"><ele>115.0</ele><time>2026-04-03T14:26:38.915Z</time></trkpt><trkpt lat="44.0726033" lon="8.1314283"><ele>114.4</ele><time>2026-04-03T14:26:40.915Z</time></trkpt><trkpt lat="44.07263" lon="8.1315917"><ele>113.8</ele><time>2026-04-03T14:26:42.916Z</time></trkpt><trkpt lat="44.072635" lon="8.1316867"><ele>113.19999999999999</ele><time>2026-04-03T14:26:43.915Z</time></trkpt><trkpt lat="44.0726217" lon="8.1318"><ele>112.6</ele><time>2026-04-03T14:26:44.916Z</time></trkpt><trkpt lat="44.0725983" lon="8.13193"><ele>112.0</ele><time>2026-04-03T14:26:45.915Z</time></trkpt><trkpt lat="44.0725717" lon="8.1320633"><ele>112.0</ele><time>2026-04-03T14:26:46.915Z</time></trkpt><trkpt lat="44.072545" lon="8.1321933"><ele>111.99999999999999</ele><time>2026-04-03T14:26:47.916Z</time></trkpt><trkpt lat="44.0725167" lon="8.132325"><ele>111.99999999999999</ele><time>2026-04-03T14:26:48.916Z</time></trkpt><trkpt lat="44.0724917" lon="8.1324517"><ele>112.0</ele><time>2026-04-03T14:26:49.916Z</time></trkpt><trkpt lat="44.072475" lon="8.1325733"><ele>112.0</ele><time>2026-04-03T14:26:50.916Z</time></trkpt><trkpt lat="44.0724583" lon="8.132695"><ele>111.39999999999999</ele><time>2026-04-03T14:26:51.916Z</time></trkpt><trkpt lat="44.0724483" lon="8.1328233"><ele>110.79999999999998</ele><time>2026-04-03T14:26:52.916Z</time></trkpt><trkpt lat="44.072435" lon="8.1329383"><ele>110.2</ele><time>2026-04-03T14:26:53.916Z</time></trkpt><trkpt lat="44.07244" lon="8.1330783"><ele>109.6</ele><time>2026-04-03T14:26:54.916Z</time></trkpt><trkpt lat="44.07245" lon="8.13323"><ele>109.0</ele><time>2026-04-03T14:26:55.915Z</time></trkpt><trkpt lat="44.07246" lon="8.1333767"><ele>108.25</ele><time>2026-04-03T14:26:56.915Z</time></trkpt><trkpt lat="44.0724667" lon="8.1335283"><ele>107.5</ele><time>2026-04-03T14:26:57.916Z</time></trkpt><trkpt lat="44.0724717" lon="8.1336917"><ele>106.75</ele><time>2026-04-03T14:26:58.915Z</time></trkpt><trkpt lat="44.0724717" lon="8.13385"><ele>106.0</ele><time>2026-04-03T14:26:59.916Z</time></trkpt><trkpt lat="44.07248" lon="8.1340183"><ele>105.6</ele><time>2026-04-03T14:27:00.915Z</time></trkpt><trkpt lat="44.0724933" lon="8.13418"><ele>105.19999999999999</ele><time>2026-04-03T14:27:01.916Z</time></trkpt><trkpt lat="44.0725" lon="8.134335"><ele>104.80000000000001</ele><time>2026-04-03T14:27:02.915Z</time></trkpt><trkpt lat="44.07249" lon="8.134485"><ele>104.4</ele><time>2026-04-03T14:27:03.915Z</time></trkpt><trkpt lat="44.0724933" lon="8.1346083"><ele>104.0</ele><time>2026-04-03T14:27:04.916Z</time></trkpt><trkpt lat="44.072505" lon="8.13473"><ele>104.0</ele><time>2026-04-03T14:27:05.916Z</time></trkpt><trkpt lat="44.0725367" lon="8.134845"><ele>104.0</ele><time>2026-04-03T14:27:06.916Z</time></trkpt><trkpt lat="44.0725933" lon="8.1349567"><ele>104.0</ele><time>2026-04-03T14:27:07.916Z</time></trkpt><trkpt lat="44.0726683" lon="8.13508"><ele>104.0</ele><time>2026-04-03T14:27:08.916Z</time></trkpt><trkpt lat="44.0727367" lon="8.1352133"><ele>104.0</ele><time>2026-04-03T14:27:09.916Z</time></trkpt><trkpt lat="44.072805" lon="8.1353533"><ele>102.80000000000001</ele><time>2026-04-03T14:27:10.916Z</time></trkpt><trkpt lat="44.0728617" lon="8.1354883"><ele>101.60000000000001</ele><time>2026-04-03T14:27:11.916Z</time></trkpt><trkpt lat="44.07292" lon="8.1356083"><ele>100.4</ele><time>2026-04-03T14:27:12.915Z</time></trkpt><trkpt lat="44.07299" lon="8.1357183"><ele>99.2</ele><time>2026-04-03T14:27:13.916Z</time></trkpt><trkpt lat="44.0730483" lon="8.13582"><ele>98.0</ele><time>2026-04-03T14:27:14.916Z</time></trkpt><trkpt lat="44.0730967" lon="8.1359283"><ele>97.4</ele><time>2026-04-03T14:27:15.916Z</time></trkpt><trkpt lat="44.0731267" lon="8.13605"><ele>96.80000000000001</ele><time>2026-04-03T14:27:16.915Z</time></trkpt><trkpt lat="44.0731633" lon="8.1361683"><ele>96.2</ele><time>2026-04-03T14:27:17.916Z</time></trkpt><trkpt lat="44.0731867" lon="8.1362967"><ele>95.6</ele><time>2026-04-03T14:27:18.915Z</time></trkpt><trkpt lat="44.073185" lon="8.13642"><ele>95.0</ele><time>2026-04-03T14:27:19.916Z</time></trkpt><trkpt lat="44.07316" lon="8.136555"><ele>94.6</ele><time>2026-04-03T14:27:20.916Z</time></trkpt><trkpt lat="44.073125" lon="8.136685"><ele>94.2</ele><time>2026-04-03T14:27:21.915Z</time></trkpt><trkpt lat="44.0730917" lon="8.13682"><ele>93.80000000000001</ele><time>2026-04-03T14:27:22.916Z</time></trkpt><trkpt lat="44.073065" lon="8.1369533"><ele>93.4</ele><time>2026-04-03T14:27:23.916Z</time></trkpt><trkpt lat="44.0730517" lon="8.137075"><ele>93.0</ele><time>2026-04-03T14:27:24.915Z</time></trkpt><trkpt lat="44.0730567" lon="8.1372"><ele>93.0</ele><time>2026-04-03T14:27:25.916Z</time></trkpt><trkpt lat="44.0730733" lon="8.1373283"><ele>93.0</ele><time>2026-04-03T14:27:26.915Z</time></trkpt><trkpt lat="44.0730867" lon="8.1374533"><ele>93.0</ele><time>2026-04-03T14:27:27.916Z</time></trkpt><trkpt lat="44.073105" lon="8.1375667"><ele>93.0</ele><time>2026-04-03T14:27:28.916Z</time></trkpt><trkpt lat="44.0731117" lon="8.1376917"><ele>93.0</ele><time>2026-04-03T14:27:29.916Z</time></trkpt><trkpt lat="44.073105" lon="8.1378117"><ele>93.0</ele><time>2026-04-03T14:27:30.916Z</time></trkpt><trkpt lat="44.0731" lon="8.1379383"><ele>92.60000000000001</ele><time>2026-04-03T14:27:31.915Z</time></trkpt><trkpt lat="44.0731083" lon="8.13808"><ele>92.2</ele><time>2026-04-03T14:27:32.915Z</time></trkpt><trkpt lat="44.0731267" lon="8.1382133"><ele>91.8</ele><time>2026-04-03T14:27:33.916Z</time></trkpt><trkpt lat="44.0731633" lon="8.1383583"><ele>91.4</ele><time>2026-04-03T14:27:34.915Z</time></trkpt><trkpt lat="44.073215" lon="8.1385067"><ele>91.0</ele><time>2026-04-03T14:27:35.916Z</time></trkpt><trkpt lat="44.073255" lon="8.1386533"><ele>91.19999999999999</ele><time>2026-04-03T14:27:36.915Z</time></trkpt><trkpt lat="44.0732933" lon="8.1387933"><ele>91.39999999999999</ele><time>2026-04-03T14:27:37.916Z</time></trkpt><trkpt lat="44.0733267" lon="8.1389217"><ele>91.6</ele><time>2026-04-03T14:27:38.916Z</time></trkpt><trkpt lat="44.0733533" lon="8.1390467"><ele>91.8</ele><time>2026-04-03T14:27:39.916Z</time></trkpt><trkpt lat="44.0733633" lon="8.13917"><ele>92.0</ele><time>2026-04-03T14:27:40.915Z</time></trkpt><trkpt lat="44.07336" lon="8.139295"><ele>91.19999999999999</ele><time>2026-04-03T14:27:41.916Z</time></trkpt><trkpt lat="44.0733283" lon="8.139425"><ele>90.4</ele><time>2026-04-03T14:27:42.915Z</time></trkpt><trkpt lat="44.0732833" lon="8.1395583"><ele>89.6</ele><time>2026-04-03T14:27:43.916Z</time></trkpt><trkpt lat="44.0732233" lon="8.1396917"><ele>88.80000000000001</ele><time>2026-04-03T14:27:44.916Z</time></trkpt><trkpt lat="44.073165" lon="8.1398367"><ele>88.0</ele><time>2026-04-03T14:27:45.916Z</time></trkpt><trkpt lat="44.073105" lon="8.1399683"><ele>87.5</ele><time>2026-04-03T14:27:46.916Z</time></trkpt><trkpt lat="44.0730467" lon="8.14011"><ele>87.0</ele><time>2026-04-03T14:27:47.916Z</time></trkpt><trkpt lat="44.072995" lon="8.1402767"><ele>86.5</ele><time>2026-04-03T14:27:48.916Z</time></trkpt><trkpt lat="44.0729567" lon="8.1404467"><ele>86.0</ele><time>2026-04-03T14:27:49.915Z</time></trkpt><trkpt lat="44.07292" lon="8.1406067"><ele>86.19999999999999</ele><time>2026-04-03T14:27:50.916Z</time></trkpt><trkpt lat="44.0728767" lon="8.14076"><ele>86.39999999999999</ele><time>2026-04-03T14:27:51.916Z</time></trkpt><trkpt lat="44.072845" lon="8.1409033"><ele>86.6</ele><time>2026-04-03T14:27:52.916Z</time></trkpt><trkpt lat="44.07281" lon="8.1410483"><ele>86.8</ele><time>2026-04-03T14:27:53.915Z</time></trkpt><trkpt lat="44.072775" lon="8.14118"><ele>87.0</ele><time>2026-04-03T14:27:54.916Z</time></trkpt><trkpt lat="44.0727433" lon="8.14131"><ele>87.0</ele><time>2026-04-03T14:27:55.916Z</time></trkpt><trkpt lat="44.0727" lon="8.1413967"><ele>87.0</ele><time>2026-04-03T14:27:56.915Z</time></trkpt><trkpt lat="44.0727067" lon="8.1415217"><ele>87.0</ele><time>2026-04-03T14:27:57.916Z</time></trkpt><trkpt lat="44.0727333" lon="8.1416767"><ele>87.0</ele><time>2026-04-03T14:27:58.916Z</time></trkpt><trkpt lat="44.0727733" lon="8.1418367"><ele>87.0</ele><time>2026-04-03T14:27:59.916Z</time></trkpt><trkpt lat="44.0728133" lon="8.142"><ele>86.5</ele><time>2026-04-03T14:28:00.915Z</time></trkpt><trkpt lat="44.0728467" lon="8.1421533"><ele>86.0</ele><time>2026-04-03T14:28:01.915Z</time></trkpt><trkpt lat="44.0728433" lon="8.1423333"><ele>85.5</ele><time>2026-04-03T14:28:02.915Z</time></trkpt><trkpt lat="44.0728167" lon="8.14251"><ele>85.0</ele><time>2026-04-03T14:28:03.916Z</time></trkpt><trkpt lat="44.0727867" lon="8.142685"><ele>84.5</ele><time>2026-04-03T14:28:04.916Z</time></trkpt><trkpt lat="44.07277" lon="8.1428667"><ele>84.0</ele><time>2026-04-03T14:28:05.916Z</time></trkpt><trkpt lat="44.0727433" lon="8.14306"><ele>83.5</ele><time>2026-04-03T14:28:06.916Z</time></trkpt><trkpt lat="44.0727167" lon="8.1432483"><ele>83.0</ele><time>2026-04-03T14:28:07.915Z</time></trkpt><trkpt lat="44.072695" lon="8.1434567"><ele>82.25</ele><time>2026-04-03T14:28:08.916Z</time></trkpt><trkpt lat="44.07267" lon="8.14365"><ele>81.5</ele><time>2026-04-03T14:28:09.915Z</time></trkpt><trkpt lat="44.0726617" lon="8.1438317"><ele>80.75</ele><time>2026-04-03T14:28:10.915Z</time></trkpt><trkpt lat="44.0726583" lon="8.144"><ele>80.0</ele><time>2026-04-03T14:28:11.915Z</time></trkpt><trkpt lat="44.0726583" lon="8.1441567"><ele>80.0</ele><time>2026-04-03T14:28:12.915Z</time></trkpt><trkpt lat="44.0726583" lon="8.1442783"><ele>80.0</ele><time>2026-04-03T14:28:13.916Z</time></trkpt><trkpt lat="44.0726633" lon="8.1443783"><ele>80.0</ele><time>2026-04-03T14:28:14.915Z</time></trkpt><trkpt lat="44.07267" lon="8.144505"><ele>80.0</ele><time>2026-04-03T14:28:16.915Z</time></trkpt><trkpt lat="44.0727683" lon="8.1444883"><ele>80.0</ele><time>2026-04-03T14:28:19.916Z</time></trkpt><trkpt lat="44.0728733" lon="8.1444067"><ele>80.0</ele><time>2026-04-03T14:28:21.916Z</time></trkpt><trkpt lat="44.072965" lon="8.1444933"><ele>80.0</ele><time>2026-04-03T14:28:23.916Z</time></trkpt><trkpt lat="44.0729817" lon="8.1445883"><ele>80.0</ele><time>2026-04-03T14:28:24.916Z</time></trkpt><trkpt lat="44.0729617" lon="8.1447"><ele>80.0</ele><time>2026-04-03T14:28:25.916Z</time></trkpt><trkpt lat="44.07293" lon="8.1448183"><ele>80.0</ele><time>2026-04-03T14:28:26.915Z</time></trkpt><trkpt lat="44.0728967" lon="8.144935"><ele>80.0</ele><time>2026-04-03T14:28:27.916Z</time></trkpt><trkpt lat="44.0728783" lon="8.1450467"><ele>80.0</ele><time>2026-04-03T14:28:28.915Z</time></trkpt><trkpt lat="44.0728717" lon="8.145155"><ele>80.0</ele><time>2026-04-03T14:28:29.916Z</time></trkpt><trkpt lat="44.0728717" lon="8.1452667"><ele>80.0</ele><time>2026-04-03T14:28:30.916Z</time></trkpt><trkpt lat="44.0729383" lon="8.14536"><ele>80.0</ele><time>2026-04-03T14:28:32.916Z</time></trkpt><trkpt lat="44.073045" lon="8.14537"><ele>80.0</ele><time>2026-04-03T14:28:34.915Z</time></trkpt><trkpt lat="44.0731417" lon="8.1453767"><ele>80.0</ele><time>2026-04-03T14:28:36.916Z</time></trkpt><trkpt lat="44.0732383" lon="8.1453917"><ele>80.0</ele><time>2026-04-03T14:28:38.916Z</time></trkpt><trkpt lat="44.073315" lon="8.1454167"><ele>80.0</ele><time>2026-04-03T14:28:40.916Z</time></trkpt><trkpt lat="44.0733817" lon="8.145435"><ele>80.0</ele><time>2026-04-03T14:28:42.915Z</time></trkpt><trkpt lat="44.07331" lon="8.145375"><ele>80.0</ele><time>2026-04-03T14:28:51.916Z</time></trkpt><trkpt lat="44.07323" lon="8.1453417"><ele>80.0</ele><time>2026-04-03T14:28:52.916Z</time></trkpt><trkpt lat="44.07315" lon="8.1453233"><ele>80.0</ele><time>2026-04-03T14:28:53.916Z</time></trkpt><trkpt lat="44.0730883" lon="8.1452933"><ele>80.0</ele><time>2026-04-03T14:28:54.915Z</time></trkpt><trkpt lat="44.0730167" lon="8.1452417"><ele>80.0</ele><time>2026-04-03T14:28:56.915Z</time></trkpt><trkpt lat="44.07299" lon="8.1451517"><ele>80.0</ele><time>2026-04-03T14:28:59.915Z</time></trkpt><trkpt lat="44.073005" lon="8.145045"><ele>80.0</ele><time>2026-04-03T14:29:01.916Z</time></trkpt><trkpt lat="44.073055" lon="8.1449633"><ele>80.0</ele><time>2026-04-03T14:29:03.916Z</time></trkpt><trkpt lat="44.0731267" lon="8.1448617"><ele>80.0</ele><time>2026-04-03T14:29:05.915Z</time></trkpt><trkpt lat="44.0732117" lon="8.1447867"><ele>80.0</ele><time>2026-04-03T14:29:07.916Z</time></trkpt><trkpt lat="44.0733217" lon="8.1447517"><ele>80.0</ele><time>2026-04-03T14:29:09.916Z</time></trkpt><trkpt lat="44.073435" lon="8.1447467"><ele>80.0</ele><time>2026-04-03T14:29:11.915Z</time></trkpt><trkpt lat="44.0735" lon="8.1447517"><ele>80.0</ele><time>2026-04-03T14:29:12.916Z</time></trkpt><trkpt lat="44.0735683" lon="8.1447433"><ele>81.4</ele><time>2026-04-03T14:29:13.915Z</time></trkpt><trkpt lat="44.0736383" lon="8.1447283"><ele>82.8</ele><time>2026-04-03T14:29:14.915Z</time></trkpt><trkpt lat="44.0737317" lon="8.144685"><ele>84.19999999999999</ele><time>2026-04-03T14:29:16.916Z</time></trkpt><trkpt lat="44.0738167" lon="8.1446233"><ele>85.6</ele><time>2026-04-03T14:29:18.916Z</time></trkpt><trkpt lat="44.0739017" lon="8.1445517"><ele>87.0</ele><time>2026-04-03T14:29:20.915Z</time></trkpt><trkpt lat="44.07397" lon="8.1444767"><ele>87.0</ele><time>2026-04-03T14:29:22.916Z</time></trkpt><trkpt lat="44.07404" lon="8.1444167"><ele>87.0</ele><time>2026-04-03T14:29:24.916Z</time></trkpt><trkpt lat="44.0741" lon="8.1443467"><ele>87.0</ele><time>2026-04-03T14:29:26.915Z</time></trkpt><trkpt lat="44.0741617" lon="8.1442883"><ele>87.0</ele><time>2026-04-03T14:29:28.915Z</time></trkpt><trkpt lat="44.0742217" lon="8.1442433"><ele>87.0</ele><time>2026-04-03T14:29:30.916Z</time></trkpt><trkpt lat="44.0742883" lon="8.1442067"><ele>87.0</ele><time>2026-04-03T14:29:33.915Z</time></trkpt><trkpt lat="44.0743533" lon="8.14413"><ele>87.5</ele><time>2026-04-03T14:29:37.916Z</time></trkpt><trkpt lat="44.07441" lon="8.1440717"><ele>88.0</ele><time>2026-04-03T14:29:39.916Z</time></trkpt><trkpt lat="44.0744867" lon="8.143985"><ele>88.5</ele><time>2026-04-03T14:29:42.915Z</time></trkpt><trkpt lat="44.0745517" lon="8.1439167"><ele>89.0</ele><time>2026-04-03T14:29:44.916Z</time></trkpt><trkpt lat="44.0746333" lon="8.14385"><ele>89.5</ele><time>2026-04-03T14:29:46.916Z</time></trkpt><trkpt lat="44.0747183" lon="8.143775"><ele>90.0</ele><time>2026-04-03T14:29:48.916Z</time></trkpt><trkpt lat="44.0748033" lon="8.14372"><ele>90.0</ele><time>2026-04-03T14:29:50.915Z</time></trkpt><trkpt lat="44.074875" lon="8.1436867"><ele>90.0</ele><time>2026-04-03T14:29:52.915Z</time></trkpt><trkpt lat="44.0749833" lon="8.143665"><ele>90.0</ele><time>2026-04-03T14:29:59.915Z</time></trkpt><trkpt lat="44.0750517" lon="8.143665"><ele>90.0</ele><time>2026-04-03T14:30:02.916Z</time></trkpt><trkpt lat="44.075135" lon="8.14364"><ele>90.0</ele><time>2026-04-03T14:30:11.916Z</time></trkpt><trkpt lat="44.07522" lon="8.143605"><ele>90.0</ele><time>2026-04-03T14:30:13.916Z</time></trkpt><trkpt lat="44.07531" lon="8.1435667"><ele>92.6</ele><time>2026-04-03T14:30:15.916Z</time></trkpt><trkpt lat="44.0754133" lon="8.143545"><ele>95.2</ele><time>2026-04-03T14:30:17.916Z</time></trkpt><trkpt lat="44.0755" lon="8.1434867"><ele>97.80000000000001</ele><time>2026-04-03T14:30:19.916Z</time></trkpt><trkpt lat="44.075595" lon="8.1434233"><ele>100.4</ele><time>2026-04-03T14:30:21.916Z</time></trkpt><trkpt lat="44.07569" lon="8.1433617"><ele>103.0</ele><time>2026-04-03T14:30:23.916Z</time></trkpt><trkpt lat="44.07577" lon="8.1433133"><ele>104.00000000000001</ele><time>2026-04-03T14:30:25.915Z</time></trkpt><trkpt lat="44.0758483" lon="8.1432883"><ele>105.0</ele><time>2026-04-03T14:30:27.916Z</time></trkpt><trkpt lat="44.0759567" lon="8.1432383"><ele>106.0</ele><time>2026-04-03T14:30:29.916Z</time></trkpt><trkpt lat="44.0760417" lon="8.1431933"><ele>107.0</ele><time>2026-04-03T14:30:31.915Z</time></trkpt><trkpt lat="44.076125" lon="8.1431783"><ele>108.00000000000001</ele><time>2026-04-03T14:30:33.916Z</time></trkpt><trkpt lat="44.0761983" lon="8.1431683"><ele>109.0</ele><time>2026-04-03T14:30:36.916Z</time></trkpt><trkpt lat="44.076255" lon="8.14306"><ele>109.0</ele><time>2026-04-03T14:30:39.916Z</time></trkpt><trkpt lat="44.0763083" lon="8.1429983"><ele>109.0</ele><time>2026-04-03T14:30:41.916Z</time></trkpt><trkpt lat="44.0763667" lon="8.1429617"><ele>109.0</ele><time>2026-04-03T14:30:43.916Z</time></trkpt><trkpt lat="44.0764367" lon="8.142935"><ele>109.0</ele><time>2026-04-03T14:30:45.916Z</time></trkpt><trkpt lat="44.0764917" lon="8.1428833"><ele>109.0</ele><time>2026-04-03T14:30:49.916Z</time></trkpt><trkpt lat="44.07656" lon="8.1428367"><ele>109.0</ele><time>2026-04-03T14:30:53.916Z</time></trkpt><trkpt lat="44.0766283" lon="8.1428117"><ele>109.0</ele><time>2026-04-03T14:30:55.915Z</time></trkpt><trkpt lat="44.0767267" lon="8.14281"><ele>110.0</ele><time>2026-04-03T14:30:58.916Z</time></trkpt><trkpt lat="44.0768067" lon="8.1427917"><ele>111.0</ele><time>2026-04-03T14:31:00.916Z</time></trkpt><trkpt lat="44.0769" lon="8.142725"><ele>112.0</ele><time>2026-04-03T14:31:02.916Z</time></trkpt><trkpt lat="44.0769917" lon="8.1426733"><ele>113.0</ele><time>2026-04-03T14:31:04.915Z</time></trkpt><trkpt lat="44.0770717" lon="8.1426233"><ele>114.0</ele><time>2026-04-03T14:31:06.915Z</time></trkpt><trkpt lat="44.0771667" lon="8.1425367"><ele>114.0</ele><time>2026-04-03T14:31:08.915Z</time></trkpt><trkpt lat="44.0772583" lon="8.1424467"><ele>114.0</ele><time>2026-04-03T14:31:10.915Z</time></trkpt><trkpt lat="44.07732" lon="8.1423967"><ele>114.0</ele><time>2026-04-03T14:31:12.916Z</time></trkpt><trkpt lat="44.07739" lon="8.1423383"><ele>114.0</ele><time>2026-04-03T14:31:22.916Z</time></trkpt><trkpt lat="44.07745" lon="8.142285"><ele>114.0</ele><time>2026-04-03T14:31:25.916Z</time></trkpt><trkpt lat="44.0775033" lon="8.1422083"><ele>114.0</ele><time>2026-04-03T14:31:28.916Z</time></trkpt><trkpt lat="44.0775317" lon="8.1421167"><ele>114.83333333333333</ele><time>2026-04-03T14:31:30.915Z</time></trkpt><trkpt lat="44.0775833" lon="8.1420567"><ele>115.66666666666666</ele><time>2026-04-03T14:31:32.915Z</time></trkpt><trkpt lat="44.0776383" lon="8.14196"><ele>116.5</ele><time>2026-04-03T14:31:35.916Z</time></trkpt><trkpt lat="44.07772" lon="8.1419"><ele>117.33333333333333</ele><time>2026-04-03T14:31:37.915Z</time></trkpt><trkpt lat="44.077795" lon="8.141845"><ele>118.16666666666666</ele><time>2026-04-03T14:31:39.915Z</time></trkpt><trkpt lat="44.07787" lon="8.1418017"><ele>119.0</ele><time>2026-04-03T14:31:41.916Z</time></trkpt><trkpt lat="44.0779517" lon="8.1417433"><ele>118.99999999999999</ele><time>2026-04-03T14:31:43.916Z</time></trkpt><trkpt lat="44.0780183" lon="8.141795"><ele>119.0</ele><time>2026-04-03T14:31:47.916Z</time></trkpt><trkpt lat="44.07805" lon="8.1418917"><ele>119.0</ele><time>2026-04-03T14:31:49.916Z</time></trkpt><trkpt lat="44.07806" lon="8.1419983"><ele>119.0</ele><time>2026-04-03T14:31:51.916Z</time></trkpt><trkpt lat="44.0781067" lon="8.1420883"><ele>118.99999999999999</ele><time>2026-04-03T14:31:54.915Z</time></trkpt><trkpt lat="44.0780667" lon="8.141985"><ele>119.0</ele><time>2026-04-03T14:32:25.916Z</time></trkpt><trkpt lat="44.07805" lon="8.14189"><ele>118.99999999999999</ele><time>2026-04-03T14:32:28.916Z</time></trkpt><trkpt lat="44.07803" lon="8.1417833"><ele>119.0</ele><time>2026-04-03T14:32:31.915Z</time></trkpt><trkpt lat="44.0779583" lon="8.1417617"><ele>119.0</ele><time>2026-04-03T14:32:36.916Z</time></trkpt><trkpt lat="44.0778633" lon="8.1418217"><ele>119.0</ele><time>2026-04-03T14:32:39.916Z</time></trkpt><trkpt lat="44.0778" lon="8.1418533"><ele>118.99999999999999</ele><time>2026-04-03T14:32:41.915Z</time></trkpt><trkpt lat="44.0777367" lon="8.141905"><ele>119.0</ele><time>2026-04-03T14:32:43.915Z</time></trkpt><trkpt lat="44.0776817" lon="8.1419667"><ele>118.99999999999999</ele><time>2026-04-03T14:32:45.915Z</time></trkpt><trkpt lat="44.0776383" lon="8.1420317"><ele>119.0</ele><time>2026-04-03T14:32:47.916Z</time></trkpt><trkpt lat="44.0775783" lon="8.142115"><ele>119.0</ele><time>2026-04-03T14:32:49.915Z</time></trkpt><trkpt lat="44.07754" lon="8.14219"><ele>119.0</ele><time>2026-04-03T14:32:51.915Z</time></trkpt><trkpt lat="44.077495" lon="8.1422917"><ele>118.99999999999999</ele><time>2026-04-03T14:32:54.916Z</time></trkpt><trkpt lat="44.077415" lon="8.142365"><ele>119.0</ele><time>2026-04-03T14:32:57.916Z</time></trkpt><trkpt lat="44.0773283" lon="8.1424067"><ele>118.0</ele><time>2026-04-03T14:33:00.916Z</time></trkpt><trkpt lat="44.0772617" lon="8.1424767"><ele>117.0</ele><time>2026-04-03T14:33:02.916Z</time></trkpt><trkpt lat="44.0771733" lon="8.142555"><ele>116.0</ele><time>2026-04-03T14:33:04.916Z</time></trkpt><trkpt lat="44.0770817" lon="8.1426433"><ele>115.0</ele><time>2026-04-03T14:33:06.915Z</time></trkpt><trkpt lat="44.0769867" lon="8.1427"><ele>114.0</ele><time>2026-04-03T14:33:08.916Z</time></trkpt><trkpt lat="44.0768967" lon="8.1427633"><ele>114.0</ele><time>2026-04-03T14:33:10.915Z</time></trkpt><trkpt lat="44.0767967" lon="8.1428183"><ele>114.0</ele><time>2026-04-03T14:33:12.915Z</time></trkpt><trkpt lat="44.0766917" lon="8.142825"><ele>114.0</ele><time>2026-04-03T14:33:14.915Z</time></trkpt><trkpt lat="44.0766017" lon="8.142825"><ele>114.0</ele><time>2026-04-03T14:33:16.915Z</time></trkpt><trkpt lat="44.0765333" lon="8.1428617"><ele>114.0</ele><time>2026-04-03T14:33:18.915Z</time></trkpt><trkpt lat="44.0764883" lon="8.1429333"><ele>114.0</ele><time>2026-04-03T14:33:21.916Z</time></trkpt><trkpt lat="44.0764167" lon="8.142965"><ele>113.28571428571428</ele><time>2026-04-03T14:33:24.916Z</time></trkpt><trkpt lat="44.07635" lon="8.142995"><ele>112.57142857142856</ele><time>2026-04-03T14:33:26.916Z</time></trkpt><trkpt lat="44.0762867" lon="8.143045"><ele>111.85714285714286</ele><time>2026-04-03T14:33:28.916Z</time></trkpt><trkpt lat="44.0762383" lon="8.143115"><ele>111.14285714285714</ele><time>2026-04-03T14:33:30.916Z</time></trkpt><trkpt lat="44.07621" lon="8.1432017"><ele>110.42857142857143</ele><time>2026-04-03T14:33:33.916Z</time></trkpt><trkpt lat="44.0761217" lon="8.1432083"><ele>109.71428571428572</ele><time>2026-04-03T14:33:36.915Z</time></trkpt><trkpt lat="44.07605" lon="8.143225"><ele>109.0</ele><time>2026-04-03T14:33:38.915Z</time></trkpt><trkpt lat="44.0759717" lon="8.1432617"><ele>108.00000000000001</ele><time>2026-04-03T14:33:40.915Z</time></trkpt><trkpt lat="44.075875" lon="8.143295"><ele>107.0</ele><time>2026-04-03T14:33:42.915Z</time></trkpt><trkpt lat="44.0757883" lon="8.14331"><ele>106.0</ele><time>2026-04-03T14:33:44.916Z</time></trkpt><trkpt lat="44.0757183" lon="8.1433433"><ele>105.0</ele><time>2026-04-03T14:33:46.915Z</time></trkpt><trkpt lat="44.0756533" lon="8.1434"><ele>104.00000000000001</ele><time>2026-04-03T14:33:48.916Z</time></trkpt><trkpt lat="44.0755733" lon="8.1434583"><ele>103.0</ele><time>2026-04-03T14:33:50.916Z</time></trkpt><trkpt lat="44.0754867" lon="8.14351"><ele>103.00000000000001</ele><time>2026-04-03T14:33:52.915Z</time></trkpt><trkpt lat="44.0754067" lon="8.1435533"><ele>103.0</ele><time>2026-04-03T14:33:54.915Z</time></trkpt><trkpt lat="44.07532" lon="8.1435717"><ele>103.0</ele><time>2026-04-03T14:33:56.916Z</time></trkpt><trkpt lat="44.0752333" lon="8.1436033"><ele>103.0</ele><time>2026-04-03T14:33:58.916Z</time></trkpt><trkpt lat="44.075155" lon="8.1436483"><ele>103.00000000000001</ele><time>2026-04-03T14:34:00.916Z</time></trkpt><trkpt lat="44.0750833" lon="8.1436967"><ele>103.0</ele><time>2026-04-03T14:34:03.915Z</time></trkpt><trkpt lat="44.0750017" lon="8.1436917"><ele>100.83333333333334</ele><time>2026-04-03T14:34:11.916Z</time></trkpt><trkpt lat="44.074905" lon="8.14371"><ele>98.66666666666667</ele><time>2026-04-03T14:34:14.915Z</time></trkpt><trkpt lat="44.0748417" lon="8.14374"><ele>96.5</ele><time>2026-04-03T14:34:16.916Z</time></trkpt><trkpt lat="44.07478" lon="8.143785"><ele>94.33333333333334</ele><time>2026-04-03T14:34:18.916Z</time></trkpt><trkpt lat="44.0747183" lon="8.14383"><ele>92.16666666666667</ele><time>2026-04-03T14:34:20.916Z</time></trkpt><trkpt lat="44.074645" lon="8.1438733"><ele>90.0</ele><time>2026-04-03T14:34:22.915Z</time></trkpt><trkpt lat="44.0745717" lon="8.1439333"><ele>90.0</ele><time>2026-04-03T14:34:24.915Z</time></trkpt><trkpt lat="44.0745117" lon="8.1440017"><ele>90.0</ele><time>2026-04-03T14:34:26.916Z</time></trkpt><trkpt lat="44.0744633" lon="8.14406"><ele>90.0</ele><time>2026-04-03T14:34:28.916Z</time></trkpt><trkpt lat="44.0743883" lon="8.144135"><ele>90.0</ele><time>2026-04-03T14:34:31.915Z</time></trkpt><trkpt lat="44.0743183" lon="8.1442033"><ele>90.0</ele><time>2026-04-03T14:34:34.916Z</time></trkpt><trkpt lat="44.0742417" lon="8.144265"><ele>90.0</ele><time>2026-04-03T14:34:37.915Z</time></trkpt><trkpt lat="44.0741633" lon="8.1443217"><ele>89.5</ele><time>2026-04-03T14:34:40.915Z</time></trkpt><trkpt lat="44.0740917" lon="8.1443983"><ele>89.0</ele><time>2026-04-03T14:34:43.915Z</time></trkpt><trkpt lat="44.0740333" lon="8.1444433"><ele>88.5</ele><time>2026-04-03T14:34:45.916Z</time></trkpt><trkpt lat="44.0739683" lon="8.1444933"><ele>88.0</ele><time>2026-04-03T14:34:47.915Z</time></trkpt><trkpt lat="44.073905" lon="8.144555"><ele>87.5</ele><time>2026-04-03T14:34:49.915Z</time></trkpt><trkpt lat="44.073855" lon="8.14461"><ele>87.0</ele><time>2026-04-03T14:34:51.916Z</time></trkpt><trkpt lat="44.0737717" lon="8.14466"><ele>87.0</ele><time>2026-04-03T14:34:54.915Z</time></trkpt><trkpt lat="44.073705" lon="8.1447117"><ele>87.0</ele><time>2026-04-03T14:34:56.916Z</time></trkpt><trkpt lat="44.0736333" lon="8.1447317"><ele>87.0</ele><time>2026-04-03T14:34:58.915Z</time></trkpt><trkpt lat="44.0735483" lon="8.14473"><ele>87.0</ele><time>2026-04-03T14:35:00.915Z</time></trkpt><trkpt lat="44.07345" lon="8.1447183"><ele>87.0</ele><time>2026-04-03T14:35:02.916Z</time></trkpt><trkpt lat="44.07336" lon="8.1447233"><ele>87.0</ele><time>2026-04-03T14:35:04.915Z</time></trkpt><trkpt lat="44.0732717" lon="8.144755"><ele>85.83333333333333</ele><time>2026-04-03T14:35:06.916Z</time></trkpt><trkpt lat="44.0731833" lon="8.1448"><ele>84.66666666666667</ele><time>2026-04-03T14:35:08.916Z</time></trkpt><trkpt lat="44.07312" lon="8.1448717"><ele>83.5</ele><time>2026-04-03T14:35:10.916Z</time></trkpt><trkpt lat="44.073075" lon="8.144945"><ele>82.33333333333334</ele><time>2026-04-03T14:35:12.916Z</time></trkpt><trkpt lat="44.0730183" lon="8.1450267"><ele>81.16666666666667</ele><time>2026-04-03T14:35:14.915Z</time></trkpt><trkpt lat="44.0729883" lon="8.1451233"><ele>80.0</ele><time>2026-04-03T14:35:16.915Z</time></trkpt><trkpt lat="44.0729967" lon="8.1452267"><ele>80.0</ele><time>2026-04-03T14:35:18.916Z</time></trkpt><trkpt lat="44.0730633" lon="8.1453033"><ele>80.0</ele><time>2026-04-03T14:35:21.915Z</time></trkpt><trkpt lat="44.073145" lon="8.145335"><ele>80.0</ele><time>2026-04-03T14:35:23.915Z</time></trkpt><trkpt lat="44.07321" lon="8.1453533"><ele>80.0</ele><time>2026-04-03T14:35:24.916Z</time></trkpt><trkpt lat="44.0732817" lon="8.145375"><ele>80.0</ele><time>2026-04-03T14:35:25.916Z</time></trkpt><trkpt lat="44.07335" lon="8.14539"><ele>80.0</ele><time>2026-04-03T14:35:26.916Z</time></trkpt><trkpt lat="44.0734617" lon="8.1454067"><ele>82.8</ele><time>2026-04-03T14:35:28.916Z</time></trkpt><trkpt lat="44.073565" lon="8.1454133"><ele>85.6</ele><time>2026-04-03T14:35:30.916Z</time></trkpt><trkpt lat="44.0736533" lon="8.145415"><ele>88.4</ele><time>2026-04-03T14:35:32.915Z</time></trkpt><trkpt lat="44.0737567" lon="8.1454717"><ele>91.2</ele><time>2026-04-03T14:35:34.916Z</time></trkpt><trkpt lat="44.07386" lon="8.1455517"><ele>94.0</ele><time>2026-04-03T14:35:36.916Z</time></trkpt><trkpt lat="44.07392" lon="8.1456133"><ele>94.0</ele><time>2026-04-03T14:35:38.916Z</time></trkpt><trkpt lat="44.073985" lon="8.1456633"><ele>94.0</ele><time>2026-04-03T14:35:47.915Z</time></trkpt><trkpt lat="44.0740617" lon="8.1457483"><ele>94.0</ele><time>2026-04-03T14:35:49.915Z</time></trkpt><trkpt lat="44.0741283" lon="8.1458333"><ele>94.0</ele><time>2026-04-03T14:35:50.915Z</time></trkpt><trkpt lat="44.0741967" lon="8.1459333"><ele>94.0</ele><time>2026-04-03T14:35:51.916Z</time></trkpt><trkpt lat="44.0742667" lon="8.1460533"><ele>95.6</ele><time>2026-04-03T14:35:52.916Z</time></trkpt><trkpt lat="44.0743317" lon="8.1461633"><ele>97.2</ele><time>2026-04-03T14:35:53.916Z</time></trkpt><trkpt lat="44.0743967" lon="8.1462567"><ele>98.8</ele><time>2026-04-03T14:35:54.916Z</time></trkpt><trkpt lat="44.074465" lon="8.1463517"><ele>100.39999999999999</ele><time>2026-04-03T14:35:55.916Z</time></trkpt><trkpt lat="44.0745333" lon="8.1464433"><ele>102.0</ele><time>2026-04-03T14:35:56.915Z</time></trkpt><trkpt lat="44.074605" lon="8.1465283"><ele>97.75</ele><time>2026-04-03T14:35:57.915Z</time></trkpt><trkpt lat="44.0746917" lon="8.14662"><ele>93.5</ele><time>2026-04-03T14:35:58.916Z</time></trkpt><trkpt lat="44.0747767" lon="8.1467317"><ele>89.25</ele><time>2026-04-03T14:35:59.916Z</time></trkpt><trkpt lat="44.074855" lon="8.1468517"><ele>85.0</ele><time>2026-04-03T14:36:00.915Z</time></trkpt><trkpt lat="44.0749167" lon="8.146975"><ele>84.2</ele><time>2026-04-03T14:36:01.916Z</time></trkpt><trkpt lat="44.07496" lon="8.1470933"><ele>83.4</ele><time>2026-04-03T14:36:02.915Z</time></trkpt><trkpt lat="44.0749833" lon="8.14722"><ele>82.6</ele><time>2026-04-03T14:36:03.916Z</time></trkpt><trkpt lat="44.07499" lon="8.147355"><ele>81.8</ele><time>2026-04-03T14:36:04.915Z</time></trkpt><trkpt lat="44.0749717" lon="8.1474917"><ele>81.0</ele><time>2026-04-03T14:36:05.915Z</time></trkpt><trkpt lat="44.074935" lon="8.147625"><ele>81.0</ele><time>2026-04-03T14:36:06.916Z</time></trkpt><trkpt lat="44.074905" lon="8.1477667"><ele>81.0</ele><time>2026-04-03T14:36:07.915Z</time></trkpt><trkpt lat="44.074885" lon="8.1479083"><ele>81.0</ele><time>2026-04-03T14:36:08.916Z</time></trkpt><trkpt lat="44.0748717" lon="8.1480667"><ele>81.0</ele><time>2026-04-03T14:36:09.916Z</time></trkpt><trkpt lat="44.07486" lon="8.14822"><ele>81.0</ele><time>2026-04-03T14:36:10.915Z</time></trkpt><trkpt lat="44.074855" lon="8.14837"><ele>79.2</ele><time>2026-04-03T14:36:11.916Z</time></trkpt><trkpt lat="44.074865" lon="8.1485167"><ele>77.39999999999999</ele><time>2026-04-03T14:36:12.916Z</time></trkpt><trkpt lat="44.0748917" lon="8.148645"><ele>75.6</ele><time>2026-04-03T14:36:13.916Z</time></trkpt><trkpt lat="44.074945" lon="8.14877"><ele>73.8</ele><time>2026-04-03T14:36:14.916Z</time></trkpt><trkpt lat="44.0750133" lon="8.1488917"><ele>72.0</ele><time>2026-04-03T14:36:15.916Z</time></trkpt><trkpt lat="44.0750617" lon="8.1490183"><ele>75.0</ele><time>2026-04-03T14:36:16.915Z</time></trkpt><trkpt lat="44.07508" lon="8.149145"><ele>78.0</ele><time>2026-04-03T14:36:17.915Z</time></trkpt><trkpt lat="44.07507" lon="8.1492767"><ele>81.0</ele><time>2026-04-03T14:36:18.915Z</time></trkpt><trkpt lat="44.07503" lon="8.14942"><ele>84.0</ele><time>2026-04-03T14:36:19.915Z</time></trkpt><trkpt lat="44.0749967" lon="8.1495733"><ele>87.0</ele><time>2026-04-03T14:36:20.916Z</time></trkpt><trkpt lat="44.07496" lon="8.1497267"><ele>82.6</ele><time>2026-04-03T14:36:21.915Z</time></trkpt><trkpt lat="44.0749233" lon="8.1498767"><ele>78.19999999999999</ele><time>2026-04-03T14:36:22.916Z</time></trkpt><trkpt lat="44.07489" lon="8.150025"><ele>73.8</ele><time>2026-04-03T14:36:23.916Z</time></trkpt><trkpt lat="44.0748617" lon="8.1501767"><ele>69.4</ele><time>2026-04-03T14:36:24.916Z</time></trkpt><trkpt lat="44.0748317" lon="8.1503167"><ele>65.0</ele><time>2026-04-03T14:36:25.916Z</time></trkpt><trkpt lat="44.0748083" lon="8.150455"><ele>65.0</ele><time>2026-04-03T14:36:26.916Z</time></trkpt><trkpt lat="44.0748033" lon="8.150595"><ele>65.0</ele><time>2026-04-03T14:36:27.916Z</time></trkpt><trkpt lat="44.0748233" lon="8.1507183"><ele>65.0</ele><time>2026-04-03T14:36:28.916Z</time></trkpt><trkpt lat="44.07487" lon="8.1508433"><ele>65.0</ele><time>2026-04-03T14:36:29.915Z</time></trkpt><trkpt lat="44.074925" lon="8.150975"><ele>65.0</ele><time>2026-04-03T14:36:30.916Z</time></trkpt><trkpt lat="44.074975" lon="8.1511283"><ele>68.5</ele><time>2026-04-03T14:36:31.916Z</time></trkpt><trkpt lat="44.07503" lon="8.15129"><ele>72.0</ele><time>2026-04-03T14:36:32.916Z</time></trkpt><trkpt lat="44.07508" lon="8.15145"><ele>75.5</ele><time>2026-04-03T14:36:33.916Z</time></trkpt><trkpt lat="44.0751217" lon="8.1516067"><ele>79.0</ele><time>2026-04-03T14:36:34.916Z</time></trkpt><trkpt lat="44.0751583" lon="8.151765"><ele>79.0</ele><time>2026-04-03T14:36:35.916Z</time></trkpt><trkpt lat="44.075205" lon="8.1518967"><ele>79.0</ele><time>2026-04-03T14:36:36.915Z</time></trkpt><trkpt lat="44.0752633" lon="8.15202"><ele>79.0</ele><time>2026-04-03T14:36:37.916Z</time></trkpt><trkpt lat="44.07533" lon="8.152105"><ele>79.0</ele><time>2026-04-03T14:36:38.915Z</time></trkpt><trkpt lat="44.0754233" lon="8.1521667"><ele>79.0</ele><time>2026-04-03T14:36:39.915Z</time></trkpt><trkpt lat="44.0754983" lon="8.1522317"><ele>79.0</ele><time>2026-04-03T14:36:40.916Z</time></trkpt><trkpt lat="44.0755717" lon="8.1523217"><ele>79.0</ele><time>2026-04-03T14:36:41.916Z</time></trkpt><trkpt lat="44.0756183" lon="8.1524333"><ele>79.0</ele><time>2026-04-03T14:36:42.916Z</time></trkpt><trkpt lat="44.0756417" lon="8.1525733"><ele>79.0</ele><time>2026-04-03T14:36:43.916Z</time></trkpt><trkpt lat="44.0756533" lon="8.1527283"><ele>79.0</ele><time>2026-04-03T14:36:44.916Z</time></trkpt><trkpt lat="44.0756633" lon="8.1529017"><ele>75.5</ele><time>2026-04-03T14:36:45.916Z</time></trkpt><trkpt lat="44.075655" lon="8.15307"><ele>72.0</ele><time>2026-04-03T14:36:46.916Z</time></trkpt><trkpt lat="44.0756433" lon="8.1532283"><ele>68.5</ele><time>2026-04-03T14:36:47.916Z</time></trkpt><trkpt lat="44.0756" lon="8.1533883"><ele>65.0</ele><time>2026-04-03T14:36:48.916Z</time></trkpt><trkpt lat="44.0755383" lon="8.153545"><ele>65.5</ele><time>2026-04-03T14:36:49.915Z</time></trkpt><trkpt lat="44.0754733" lon="8.1536967"><ele>66.0</ele><time>2026-04-03T14:36:50.916Z</time></trkpt><trkpt lat="44.0753933" lon="8.15385"><ele>66.5</ele><time>2026-04-03T14:36:51.916Z</time></trkpt><trkpt lat="44.0753317" lon="8.1540017"><ele>67.0</ele><time>2026-04-03T14:36:52.916Z</time></trkpt><trkpt lat="44.0752817" lon="8.1541417"><ele>67.0</ele><time>2026-04-03T14:36:53.916Z</time></trkpt><trkpt lat="44.07523" lon="8.1542817"><ele>67.0</ele><time>2026-04-03T14:36:54.915Z</time></trkpt><trkpt lat="44.075195" lon="8.1544083"><ele>67.0</ele><time>2026-04-03T14:36:55.915Z</time></trkpt><trkpt lat="44.075175" lon="8.1545283"><ele>67.0</ele><time>2026-04-03T14:36:56.916Z</time></trkpt><trkpt lat="44.07518" lon="8.1546283"><ele>67.0</ele><time>2026-04-03T14:36:57.915Z</time></trkpt><trkpt lat="44.07521" lon="8.1547267"><ele>67.0</ele><time>2026-04-03T14:36:58.916Z</time></trkpt><trkpt lat="44.0752767" lon="8.1547917"><ele>67.0</ele><time>2026-04-03T14:36:59.915Z</time></trkpt><trkpt lat="44.0753667" lon="8.1548417"><ele>67.0</ele><time>2026-04-03T14:37:00.915Z</time></trkpt><trkpt lat="44.0754867" lon="8.1548867"><ele>67.0</ele><time>2026-04-03T14:37:01.915Z</time></trkpt><trkpt lat="44.07561" lon="8.15492"><ele>67.0</ele><time>2026-04-03T14:37:02.915Z</time></trkpt><trkpt lat="44.0757317" lon="8.1549283"><ele>66.75</ele><time>2026-04-03T14:37:03.916Z</time></trkpt><trkpt lat="44.0758683" lon="8.1549117"><ele>66.5</ele><time>2026-04-03T14:37:04.916Z</time></trkpt><trkpt lat="44.0759983" lon="8.1548767"><ele>66.25</ele><time>2026-04-03T14:37:05.915Z</time></trkpt><trkpt lat="44.0761183" lon="8.15481"><ele>66.0</ele><time>2026-04-03T14:37:06.916Z</time></trkpt><trkpt lat="44.0762333" lon="8.154725"><ele>71.75</ele><time>2026-04-03T14:37:07.916Z</time></trkpt><trkpt lat="44.0763483" lon="8.1546317"><ele>77.5</ele><time>2026-04-03T14:37:08.916Z</time></trkpt><trkpt lat="44.07646" lon="8.1545433"><ele>83.25</ele><time>2026-04-03T14:37:09.916Z</time></trkpt><trkpt lat="44.0765667" lon="8.1544533"><ele>89.0</ele><time>2026-04-03T14:37:10.916Z</time></trkpt><trkpt lat="44.0766783" lon="8.1543783"><ele>89.0</ele><time>2026-04-03T14:37:11.915Z</time></trkpt><trkpt lat="44.0768017" lon="8.1543017"><ele>89.0</ele><time>2026-04-03T14:37:12.916Z</time></trkpt><trkpt lat="44.0769267" lon="8.1542483"><ele>89.0</ele><time>2026-04-03T14:37:13.916Z</time></trkpt><trkpt lat="44.0770467" lon="8.1541983"><ele>89.0</ele><time>2026-04-03T14:37:14.915Z</time></trkpt><trkpt lat="44.07717" lon="8.1541467"><ele>89.0</ele><time>2026-04-03T14:37:15.915Z</time></trkpt><trkpt lat="44.0772967" lon="8.1540967"><ele>89.0</ele><time>2026-04-03T14:37:16.916Z</time></trkpt><trkpt lat="44.0774267" lon="8.1540517"><ele>89.0</ele><time>2026-04-03T14:37:17.916Z</time></trkpt><trkpt lat="44.0775617" lon="8.1540083"><ele>89.0</ele><time>2026-04-03T14:37:18.916Z</time></trkpt><trkpt lat="44.0776867" lon="8.15396"><ele>91.75</ele><time>2026-04-03T14:37:19.915Z</time></trkpt><trkpt lat="44.0778183" lon="8.153905"><ele>94.5</ele><time>2026-04-03T14:37:20.915Z</time></trkpt><trkpt lat="44.077945" lon="8.1538833"><ele>97.25</ele><time>2026-04-03T14:37:21.915Z</time></trkpt><trkpt lat="44.0780583" lon="8.1538783"><ele>100.0</ele><time>2026-04-03T14:37:22.915Z</time></trkpt><trkpt lat="44.0781567" lon="8.1538617"><ele>100.0</ele><time>2026-04-03T14:37:23.916Z</time></trkpt><trkpt lat="44.0782567" lon="8.153815"><ele>100.0</ele><time>2026-04-03T14:37:24.916Z</time></trkpt><trkpt lat="44.0783417" lon="8.153745"><ele>100.0</ele><time>2026-04-03T14:37:25.916Z</time></trkpt><trkpt lat="44.0784333" lon="8.1536433"><ele>100.0</ele><time>2026-04-03T14:37:26.916Z</time></trkpt><trkpt lat="44.0785383" lon="8.153575"><ele>100.0</ele><time>2026-04-03T14:37:27.916Z</time></trkpt><trkpt lat="44.0786417" lon="8.153535"><ele>96.5</ele><time>2026-04-03T14:37:28.916Z</time></trkpt><trkpt lat="44.07875" lon="8.15349"><ele>93.0</ele><time>2026-04-03T14:37:29.916Z</time></trkpt><trkpt lat="44.0788517" lon="8.1534283"><ele>89.5</ele><time>2026-04-03T14:37:30.916Z</time></trkpt><trkpt lat="44.0789533" lon="8.1533433"><ele>86.0</ele><time>2026-04-03T14:37:31.916Z</time></trkpt><trkpt lat="44.0790467" lon="8.1532267"><ele>85.4</ele><time>2026-04-03T14:37:32.916Z</time></trkpt><trkpt lat="44.079135" lon="8.1531067"><ele>84.8</ele><time>2026-04-03T14:37:33.915Z</time></trkpt><trkpt lat="44.0792067" lon="8.1529883"><ele>84.2</ele><time>2026-04-03T14:37:34.915Z</time></trkpt><trkpt lat="44.0792633" lon="8.1528583"><ele>83.60000000000001</ele><time>2026-04-03T14:37:35.915Z</time></trkpt><trkpt lat="44.0793033" lon="8.1527267"><ele>83.0</ele><time>2026-04-03T14:37:36.916Z</time></trkpt><trkpt lat="44.0793367" lon="8.1525817"><ele>83.0</ele><time>2026-04-03T14:37:37.916Z</time></trkpt><trkpt lat="44.0793883" lon="8.1524367"><ele>83.0</ele><time>2026-04-03T14:37:38.916Z</time></trkpt><trkpt lat="44.07946" lon="8.1523167"><ele>83.0</ele><time>2026-04-03T14:37:39.916Z</time></trkpt><trkpt lat="44.079555" lon="8.1522017"><ele>83.0</ele><time>2026-04-03T14:37:40.916Z</time></trkpt><trkpt lat="44.0796617" lon="8.1520817"><ele>86.75</ele><time>2026-04-03T14:37:41.916Z</time></trkpt><trkpt lat="44.0797767" lon="8.151955"><ele>90.5</ele><time>2026-04-03T14:37:42.916Z</time></trkpt><trkpt lat="44.079875" lon="8.1518317"><ele>94.25</ele><time>2026-04-03T14:37:43.916Z</time></trkpt><trkpt lat="44.0799733" lon="8.1517017"><ele>98.0</ele><time>2026-04-03T14:37:44.916Z</time></trkpt><trkpt lat="44.0800633" lon="8.1515783"><ele>96.60000000000001</ele><time>2026-04-03T14:37:45.916Z</time></trkpt><trkpt lat="44.0801467" lon="8.1514433"><ele>95.2</ele><time>2026-04-03T14:37:46.915Z</time></trkpt><trkpt lat="44.0802267" lon="8.151325"><ele>93.8</ele><time>2026-04-03T14:37:47.916Z</time></trkpt><trkpt lat="44.0802767" lon="8.1512017"><ele>92.4</ele><time>2026-04-03T14:37:48.916Z</time></trkpt><trkpt lat="44.0803133" lon="8.15109"><ele>91.0</ele><time>2026-04-03T14:37:49.915Z</time></trkpt><trkpt lat="44.08036" lon="8.1509733"><ele>91.0</ele><time>2026-04-03T14:37:50.915Z</time></trkpt><trkpt lat="44.0804217" lon="8.1508583"><ele>91.0</ele><time>2026-04-03T14:37:51.916Z</time></trkpt><trkpt lat="44.0805" lon="8.1507533"><ele>91.0</ele><time>2026-04-03T14:37:52.916Z</time></trkpt><trkpt lat="44.0805967" lon="8.15064"><ele>91.0</ele><time>2026-04-03T14:37:53.916Z</time></trkpt><trkpt lat="44.0806983" lon="8.1505233"><ele>89.0</ele><time>2026-04-03T14:37:54.916Z</time></trkpt><trkpt lat="44.0807883" lon="8.1503917"><ele>87.0</ele><time>2026-04-03T14:37:55.915Z</time></trkpt><trkpt lat="44.08087" lon="8.1502517"><ele>85.0</ele><time>2026-04-03T14:37:56.915Z</time></trkpt><trkpt lat="44.0809517" lon="8.150125"><ele>83.0</ele><time>2026-04-03T14:37:57.915Z</time></trkpt><trkpt lat="44.081035" lon="8.15"><ele>83.0</ele><time>2026-04-03T14:37:58.916Z</time></trkpt><trkpt lat="44.08111" lon="8.14989"><ele>83.0</ele><time>2026-04-03T14:37:59.915Z</time></trkpt><trkpt lat="44.0811983" lon="8.1497817"><ele>83.0</ele><time>2026-04-03T14:38:00.916Z</time></trkpt><trkpt lat="44.0812633" lon="8.14965"><ele>83.0</ele><time>2026-04-03T14:38:01.916Z</time></trkpt><trkpt lat="44.0813367" lon="8.1495383"><ele>80.25</ele><time>2026-04-03T14:38:02.916Z</time></trkpt><trkpt lat="44.081435" lon="8.1494483"><ele>77.5</ele><time>2026-04-03T14:38:03.915Z</time></trkpt><trkpt lat="44.081535" lon="8.1493883"><ele>74.75</ele><time>2026-04-03T14:38:04.916Z</time></trkpt><trkpt lat="44.0816383" lon="8.1493417"><ele>72.0</ele><time>2026-04-03T14:38:05.915Z</time></trkpt><trkpt lat="44.081755" lon="8.1493183"><ele>72.0</ele><time>2026-04-03T14:38:06.916Z</time></trkpt><trkpt lat="44.0818667" lon="8.1492883"><ele>72.0</ele><time>2026-04-03T14:38:07.916Z</time></trkpt><trkpt lat="44.081965" lon="8.14922"><ele>72.0</ele><time>2026-04-03T14:38:08.916Z</time></trkpt><trkpt lat="44.0820483" lon="8.1491517"><ele>72.0</ele><time>2026-04-03T14:38:09.916Z</time></trkpt><trkpt lat="44.08212" lon="8.1490367"><ele>72.0</ele><time>2026-04-03T14:38:10.916Z</time></trkpt><trkpt lat="44.08219" lon="8.148915"><ele>72.75</ele><time>2026-04-03T14:38:11.916Z</time></trkpt><trkpt lat="44.0822683" lon="8.1487933"><ele>73.5</ele><time>2026-04-03T14:38:12.915Z</time></trkpt><trkpt lat="44.0823567" lon="8.14869"><ele>74.25</ele><time>2026-04-03T14:38:13.916Z</time></trkpt><trkpt lat="44.0824517" lon="8.1485933"><ele>75.0</ele><time>2026-04-03T14:38:14.916Z</time></trkpt><trkpt lat="44.0825433" lon="8.1485017"><ele>75.0</ele><time>2026-04-03T14:38:15.916Z</time></trkpt><trkpt lat="44.0826383" lon="8.1484133"><ele>75.0</ele><time>2026-04-03T14:38:16.916Z</time></trkpt><trkpt lat="44.0827283" lon="8.1483367"><ele>75.0</ele><time>2026-04-03T14:38:17.916Z</time></trkpt><trkpt lat="44.08282" lon="8.1482667"><ele>75.0</ele><time>2026-04-03T14:38:18.916Z</time></trkpt><trkpt lat="44.0829117" lon="8.14821"><ele>75.0</ele><time>2026-04-03T14:38:19.915Z</time></trkpt><trkpt lat="44.0830083" lon="8.14814"><ele>75.6</ele><time>2026-04-03T14:38:20.916Z</time></trkpt><trkpt lat="44.0831017" lon="8.14808"><ele>76.2</ele><time>2026-04-03T14:38:21.916Z</time></trkpt><trkpt lat="44.0831883" lon="8.1480117"><ele>76.8</ele><time>2026-04-03T14:38:22.915Z</time></trkpt><trkpt lat="44.083265" lon="8.147905"><ele>77.4</ele><time>2026-04-03T14:38:23.916Z</time></trkpt><trkpt lat="44.0833267" lon="8.14779"><ele>78.0</ele><time>2026-04-03T14:38:24.916Z</time></trkpt><trkpt lat="44.0834067" lon="8.1476617"><ele>78.0</ele><time>2026-04-03T14:38:25.915Z</time></trkpt><trkpt lat="44.08349" lon="8.1475467"><ele>78.0</ele><time>2026-04-03T14:38:26.916Z</time></trkpt><trkpt lat="44.0835883" lon="8.1474417"><ele>78.0</ele><time>2026-04-03T14:38:27.916Z</time></trkpt><trkpt lat="44.0836867" lon="8.1473483"><ele>78.0</ele><time>2026-04-03T14:38:28.916Z</time></trkpt><trkpt lat="44.0837817" lon="8.14726"><ele>79.2</ele><time>2026-04-03T14:38:29.915Z</time></trkpt><trkpt lat="44.0838717" lon="8.1472133"><ele>80.4</ele><time>2026-04-03T14:38:30.915Z</time></trkpt><trkpt lat="44.0839617" lon="8.1471683"><ele>81.60000000000001</ele><time>2026-04-03T14:38:31.916Z</time></trkpt><trkpt lat="44.0840533" lon="8.14712"><ele>82.8</ele><time>2026-04-03T14:38:32.916Z</time></trkpt><trkpt lat="44.0841567" lon="8.147065"><ele>84.0</ele><time>2026-04-03T14:38:33.916Z</time></trkpt><trkpt lat="44.08426" lon="8.147"><ele>84.0</ele><time>2026-04-03T14:38:34.916Z</time></trkpt><trkpt lat="44.0843617" lon="8.1469417"><ele>84.0</ele><time>2026-04-03T14:38:35.916Z</time></trkpt><trkpt lat="44.0844617" lon="8.146885"><ele>84.0</ele><time>2026-04-03T14:38:36.915Z</time></trkpt><trkpt lat="44.084555" lon="8.146825"><ele>84.0</ele><time>2026-04-03T14:38:37.915Z</time></trkpt><trkpt lat="44.08464" lon="8.1467633"><ele>84.0</ele><time>2026-04-03T14:38:38.916Z</time></trkpt><trkpt lat="44.0847117" lon="8.1466883"><ele>84.0</ele><time>2026-04-03T14:38:39.916Z</time></trkpt><trkpt lat="44.08477" lon="8.1465933"><ele>84.0</ele><time>2026-04-03T14:38:40.915Z</time></trkpt><trkpt lat="44.084825" lon="8.1465017"><ele>84.0</ele><time>2026-04-03T14:38:41.916Z</time></trkpt><trkpt lat="44.084885" lon="8.1464117"><ele>84.0</ele><time>2026-04-03T14:38:42.916Z</time></trkpt><trkpt lat="44.084945" lon="8.1463083"><ele>84.0</ele><time>2026-04-03T14:38:43.916Z</time></trkpt><trkpt lat="44.08501" lon="8.1462067"><ele>85.66666666666667</ele><time>2026-04-03T14:38:44.916Z</time></trkpt><trkpt lat="44.0850667" lon="8.14611"><ele>87.33333333333333</ele><time>2026-04-03T14:38:45.916Z</time></trkpt><trkpt lat="44.0851267" lon="8.1460283"><ele>89.0</ele><time>2026-04-03T14:38:46.915Z</time></trkpt><trkpt lat="44.0851717" lon="8.1459267"><ele>90.66666666666666</ele><time>2026-04-03T14:38:47.915Z</time></trkpt><trkpt lat="44.0852217" lon="8.1458367"><ele>92.33333333333333</ele><time>2026-04-03T14:38:48.916Z</time></trkpt><trkpt lat="44.0852633" lon="8.1457467"><ele>94.0</ele><time>2026-04-03T14:38:49.915Z</time></trkpt><trkpt lat="44.0853117" lon="8.1456467"><ele>94.0</ele><time>2026-04-03T14:38:50.915Z</time></trkpt><trkpt lat="44.08536" lon="8.14556"><ele>94.0</ele><time>2026-04-03T14:38:51.915Z</time></trkpt><trkpt lat="44.0854067" lon="8.1454717"><ele>94.0</ele><time>2026-04-03T14:38:52.916Z</time></trkpt><trkpt lat="44.0854617" lon="8.1453867"><ele>94.0</ele><time>2026-04-03T14:38:53.915Z</time></trkpt><trkpt lat="44.0855133" lon="8.145305"><ele>94.0</ele><time>2026-04-03T14:38:54.915Z</time></trkpt><trkpt lat="44.0855617" lon="8.1452283"><ele>94.0</ele><time>2026-04-03T14:38:55.916Z</time></trkpt><trkpt lat="44.0856233" lon="8.145095"><ele>94.0</ele><time>2026-04-03T14:38:57.916Z</time></trkpt><trkpt lat="44.085665" lon="8.145015"><ele>94.0</ele><time>2026-04-03T14:39:00.916Z</time></trkpt><trkpt lat="44.08573" lon="8.1449167"><ele>94.0</ele><time>2026-04-03T14:39:02.916Z</time></trkpt><trkpt lat="44.08578" lon="8.14482"><ele>94.0</ele><time>2026-04-03T14:39:03.916Z</time></trkpt><trkpt lat="44.085845" lon="8.1447183"><ele>94.0</ele><time>2026-04-03T14:39:04.916Z</time></trkpt><trkpt lat="44.0859167" lon="8.1446233"><ele>94.0</ele><time>2026-04-03T14:39:05.916Z</time></trkpt><trkpt lat="44.0859817" lon="8.144525"><ele>94.6</ele><time>2026-04-03T14:39:06.916Z</time></trkpt><trkpt lat="44.086055" lon="8.144425"><ele>95.2</ele><time>2026-04-03T14:39:07.915Z</time></trkpt><trkpt lat="44.0861283" lon="8.14432"><ele>95.8</ele><time>2026-04-03T14:39:08.916Z</time></trkpt><trkpt lat="44.08621" lon="8.1442033"><ele>96.39999999999999</ele><time>2026-04-03T14:39:09.915Z</time></trkpt><trkpt lat="44.0862917" lon="8.144095"><ele>97.0</ele><time>2026-04-03T14:39:10.915Z</time></trkpt><trkpt lat="44.0863733" lon="8.1439833"><ele>97.0</ele><time>2026-04-03T14:39:11.916Z</time></trkpt><trkpt lat="44.0864617" lon="8.14387"><ele>97.0</ele><time>2026-04-03T14:39:12.915Z</time></trkpt><trkpt lat="44.0865433" lon="8.14375"><ele>97.0</ele><time>2026-04-03T14:39:13.915Z</time></trkpt><trkpt lat="44.0866083" lon="8.1436167"><ele>97.0</ele><time>2026-04-03T14:39:14.916Z</time></trkpt><trkpt lat="44.08668" lon="8.1435017"><ele>95.6</ele><time>2026-04-03T14:39:15.915Z</time></trkpt><trkpt lat="44.0867467" lon="8.1433883"><ele>94.19999999999999</ele><time>2026-04-03T14:39:16.916Z</time></trkpt><trkpt lat="44.08683" lon="8.143285"><ele>92.8</ele><time>2026-04-03T14:39:17.916Z</time></trkpt><trkpt lat="44.0869083" lon="8.1431883"><ele>91.4</ele><time>2026-04-03T14:39:18.916Z</time></trkpt><trkpt lat="44.0869867" lon="8.143085"><ele>90.0</ele><time>2026-04-03T14:39:19.916Z</time></trkpt><trkpt lat="44.0870717" lon="8.1429917"><ele>90.0</ele><time>2026-04-03T14:39:20.916Z</time></trkpt><trkpt lat="44.087155" lon="8.14291"><ele>90.0</ele><time>2026-04-03T14:39:21.916Z</time></trkpt><trkpt lat="44.087235" lon="8.1428333"><ele>90.0</ele><time>2026-04-03T14:39:22.916Z</time></trkpt><trkpt lat="44.08732" lon="8.14275"><ele>90.0</ele><time>2026-04-03T14:39:23.915Z</time></trkpt><trkpt lat="44.0873883" lon="8.1426683"><ele>90.0</ele><time>2026-04-03T14:39:24.915Z</time></trkpt><trkpt lat="44.08746" lon="8.14258"><ele>85.6</ele><time>2026-04-03T14:39:25.916Z</time></trkpt><trkpt lat="44.0875267" lon="8.1424717"><ele>81.2</ele><time>2026-04-03T14:39:26.915Z</time></trkpt><trkpt lat="44.0875817" lon="8.1423533"><ele>76.8</ele><time>2026-04-03T14:39:27.915Z</time></trkpt><trkpt lat="44.0876267" lon="8.1422117"><ele>72.4</ele><time>2026-04-03T14:39:28.916Z</time></trkpt><trkpt lat="44.0876567" lon="8.142075"><ele>68.0</ele><time>2026-04-03T14:39:29.916Z</time></trkpt><trkpt lat="44.0876767" lon="8.1419367"><ele>67.99999999999999</ele><time>2026-04-03T14:39:30.916Z</time></trkpt><trkpt lat="44.0876917" lon="8.1418117"><ele>68.0</ele><time>2026-04-03T14:39:31.916Z</time></trkpt><trkpt lat="44.0877067" lon="8.1417133"><ele>68.0</ele><time>2026-04-03T14:39:32.916Z</time></trkpt><trkpt lat="44.087755" lon="8.1416283"><ele>68.0</ele><time>2026-04-03T14:39:34.916Z</time></trkpt><trkpt lat="44.087795" lon="8.1417033"><ele>68.0</ele><time>2026-04-03T14:39:36.916Z</time></trkpt><trkpt lat="44.087795" lon="8.1417933"><ele>67.99999999999999</ele><time>2026-04-03T14:39:37.915Z</time></trkpt><trkpt lat="44.0878067" lon="8.141885"><ele>68.0</ele><time>2026-04-03T14:39:38.916Z</time></trkpt><trkpt lat="44.0878517" lon="8.1420283"><ele>67.99999999999999</ele><time>2026-04-03T14:39:40.916Z</time></trkpt><trkpt lat="44.0878983" lon="8.1420883"><ele>68.0</ele><time>2026-04-03T14:39:41.916Z</time></trkpt><trkpt lat="44.0879533" lon="8.1421333"><ele>68.0</ele><time>2026-04-03T14:39:42.916Z</time></trkpt><trkpt lat="44.08802" lon="8.1421767"><ele>68.0</ele><time>2026-04-03T14:39:43.916Z</time></trkpt><trkpt lat="44.0880917" lon="8.1422017"><ele>68.0</ele><time>2026-04-03T14:39:44.916Z</time></trkpt><trkpt lat="44.0881633" lon="8.1422033"><ele>67.99999999999999</ele><time>2026-04-03T14:39:45.915Z</time></trkpt><trkpt lat="44.0882283" lon="8.1422"><ele>68.0</ele><time>2026-04-03T14:39:46.915Z</time></trkpt><trkpt lat="44.0883367" lon="8.1422017"><ele>65.0</ele><time>2026-04-03T14:39:48.916Z</time></trkpt><trkpt lat="44.0884267" lon="8.14223"><ele>62.0</ele><time>2026-04-03T14:39:50.916Z</time></trkpt><trkpt lat="44.0884883" lon="8.1423483"><ele>59.0</ele><time>2026-04-03T14:41:00.915Z</time></trkpt><trkpt lat="44.0884467" lon="8.1424883"><ele>56.0</ele><time>2026-04-03T14:41:02.915Z</time></trkpt><trkpt lat="44.0884067" lon="8.142605"><ele>53.0</ele><time>2026-04-03T14:41:03.916Z</time></trkpt><trkpt lat="44.088345" lon="8.14277"><ele>53.0</ele><time>2026-04-03T14:41:04.915Z</time></trkpt><trkpt lat="44.0882833" lon="8.1429417"><ele>53.0</ele><time>2026-04-03T14:41:05.915Z</time></trkpt><trkpt lat="44.0882183" lon="8.1431083"><ele>53.0</ele><time>2026-04-03T14:41:06.916Z</time></trkpt><trkpt lat="44.0881517" lon="8.1432583"><ele>53.0</ele><time>2026-04-03T14:41:07.916Z</time></trkpt><trkpt lat="44.0880867" lon="8.1434067"><ele>53.0</ele><time>2026-04-03T14:41:08.915Z</time></trkpt><trkpt lat="44.0880317" lon="8.1435517"><ele>53.0</ele><time>2026-04-03T14:41:09.915Z</time></trkpt><trkpt lat="44.08798" lon="8.1436883"><ele>53.0</ele><time>2026-04-03T14:41:10.916Z</time></trkpt><trkpt lat="44.087925" lon="8.1438467"><ele>53.0</ele><time>2026-04-03T14:41:11.915Z</time></trkpt><trkpt lat="44.08787" lon="8.144"><ele>52.599999999999994</ele><time>2026-04-03T14:41:12.916Z</time></trkpt><trkpt lat="44.0878183" lon="8.1441483"><ele>52.199999999999996</ele><time>2026-04-03T14:41:13.916Z</time></trkpt><trkpt lat="44.0877633" lon="8.14428"><ele>51.8</ele><time>2026-04-03T14:41:14.915Z</time></trkpt><trkpt lat="44.0877067" lon="8.1444033"><ele>51.4</ele><time>2026-04-03T14:41:15.916Z</time></trkpt><trkpt lat="44.08765" lon="8.1445283"><ele>51.0</ele><time>2026-04-03T14:41:16.916Z</time></trkpt><trkpt lat="44.0875933" lon="8.1446417"><ele>51.0</ele><time>2026-04-03T14:41:17.916Z</time></trkpt><trkpt lat="44.0875367" lon="8.1447717"><ele>51.0</ele><time>2026-04-03T14:41:18.916Z</time></trkpt><trkpt lat="44.0874833" lon="8.1448917"><ele>51.0</ele><time>2026-04-03T14:41:19.915Z</time></trkpt><trkpt lat="44.0874267" lon="8.144995"><ele>51.0</ele><time>2026-04-03T14:41:20.916Z</time></trkpt><trkpt lat="44.08737" lon="8.1450933"><ele>51.0</ele><time>2026-04-03T14:41:21.916Z</time></trkpt><trkpt lat="44.087325" lon="8.1451867"><ele>50.666666666666664</ele><time>2026-04-03T14:41:22.916Z</time></trkpt><trkpt lat="44.087285" lon="8.1452717"><ele>50.33333333333333</ele><time>2026-04-03T14:41:23.916Z</time></trkpt><trkpt lat="44.0872483" lon="8.1453683"><ele>50.0</ele><time>2026-04-03T14:41:24.915Z</time></trkpt><trkpt lat="44.0872083" lon="8.145465"><ele>49.666666666666664</ele><time>2026-04-03T14:41:25.916Z</time></trkpt><trkpt lat="44.087175" lon="8.1455467"><ele>49.33333333333333</ele><time>2026-04-03T14:41:26.915Z</time></trkpt><trkpt lat="44.08718" lon="8.1456867"><ele>49.0</ele><time>2026-04-03T14:41:28.916Z</time></trkpt><trkpt lat="44.0872233" lon="8.145755"><ele>50.0</ele><time>2026-04-03T14:41:29.916Z</time></trkpt><trkpt lat="44.0873" lon="8.1458183"><ele>51.0</ele><time>2026-04-03T14:41:30.915Z</time></trkpt><trkpt lat="44.0873933" lon="8.1458967"><ele>52.00000000000001</ele><time>2026-04-03T14:41:31.916Z</time></trkpt><trkpt lat="44.087485" lon="8.1459667"><ele>53.0</ele><time>2026-04-03T14:41:32.916Z</time></trkpt><trkpt lat="44.0875617" lon="8.1460317"><ele>54.0</ele><time>2026-04-03T14:41:33.916Z</time></trkpt><trkpt lat="44.0876167" lon="8.1461033"><ele>55.0</ele><time>2026-04-03T14:41:34.916Z</time></trkpt><trkpt lat="44.0876783" lon="8.1461967"><ele>56.00000000000001</ele><time>2026-04-03T14:41:36.915Z</time></trkpt><trkpt lat="44.0876667" lon="8.1463283"><ele>57.00000000000001</ele><time>2026-04-03T14:41:46.916Z</time></trkpt><trkpt lat="44.08762" lon="8.1464817"><ele>58.0</ele><time>2026-04-03T14:41:47.916Z</time></trkpt><trkpt lat="44.08755" lon="8.1466483"><ele>59.0</ele><time>2026-04-03T14:41:48.915Z</time></trkpt><trkpt lat="44.08745" lon="8.1468017"><ele>58.75</ele><time>2026-04-03T14:41:49.915Z</time></trkpt><trkpt lat="44.0873533" lon="8.14693"><ele>58.5</ele><time>2026-04-03T14:41:50.916Z</time></trkpt><trkpt lat="44.0872633" lon="8.1470567"><ele>58.25</ele><time>2026-04-03T14:41:51.915Z</time></trkpt><trkpt lat="44.0871817" lon="8.1471783"><ele>58.0</ele><time>2026-04-03T14:41:52.916Z</time></trkpt><trkpt lat="44.0871017" lon="8.1472867"><ele>57.75</ele><time>2026-04-03T14:41:53.916Z</time></trkpt><trkpt lat="44.087015" lon="8.1473867"><ele>57.5</ele><time>2026-04-03T14:41:54.915Z</time></trkpt><trkpt lat="44.0869267" lon="8.1475033"><ele>57.25</ele><time>2026-04-03T14:41:55.916Z</time></trkpt><trkpt lat="44.0868383" lon="8.1476217"><ele>57.0</ele><time>2026-04-03T14:41:56.916Z</time></trkpt><trkpt lat="44.0867583" lon="8.1477467"><ele>57.0</ele><time>2026-04-03T14:41:57.915Z</time></trkpt><trkpt lat="44.086655" lon="8.147865"><ele>57.0</ele><time>2026-04-03T14:41:58.915Z</time></trkpt><trkpt lat="44.0865683" lon="8.1479833"><ele>57.0</ele><time>2026-04-03T14:41:59.916Z</time></trkpt><trkpt lat="44.0864883" lon="8.148095"><ele>57.0</ele><time>2026-04-03T14:42:00.916Z</time></trkpt><trkpt lat="44.086395" lon="8.1482067"><ele>56.25</ele><time>2026-04-03T14:42:01.916Z</time></trkpt><trkpt lat="44.0863083" lon="8.14832"><ele>55.5</ele><time>2026-04-03T14:42:02.915Z</time></trkpt><trkpt lat="44.0862117" lon="8.14843"><ele>54.75</ele><time>2026-04-03T14:42:03.916Z</time></trkpt><trkpt lat="44.0861067" lon="8.1485433"><ele>54.0</ele><time>2026-04-03T14:42:04.915Z</time></trkpt><trkpt lat="44.08601" lon="8.1486667"><ele>54.0</ele><time>2026-04-03T14:42:05.916Z</time></trkpt><trkpt lat="44.0859067" lon="8.1487917"><ele>54.0</ele><time>2026-04-03T14:42:06.915Z</time></trkpt><trkpt lat="44.08581" lon="8.1489283"><ele>54.0</ele><time>2026-04-03T14:42:07.916Z</time></trkpt><trkpt lat="44.085725" lon="8.14906"><ele>54.0</ele><time>2026-04-03T14:42:08.915Z</time></trkpt><trkpt lat="44.0856333" lon="8.149175"><ele>53.0</ele><time>2026-04-03T14:42:09.915Z</time></trkpt><trkpt lat="44.085535" lon="8.149295"><ele>52.0</ele><time>2026-04-03T14:42:10.916Z</time></trkpt><trkpt lat="44.0854533" lon="8.14943"><ele>51.0</ele><time>2026-04-03T14:42:11.916Z</time></trkpt><trkpt lat="44.0853633" lon="8.1495817"><ele>50.0</ele><time>2026-04-03T14:42:12.915Z</time></trkpt><trkpt lat="44.0852717" lon="8.1497417"><ele>50.0</ele><time>2026-04-03T14:42:13.916Z</time></trkpt><trkpt lat="44.0851867" lon="8.149915"><ele>50.0</ele><time>2026-04-03T14:42:14.916Z</time></trkpt><trkpt lat="44.0851017" lon="8.1500817"><ele>50.0</ele><time>2026-04-03T14:42:15.916Z</time></trkpt><trkpt lat="44.08501" lon="8.1502467"><ele>50.0</ele><time>2026-04-03T14:42:16.915Z</time></trkpt><trkpt lat="44.0849333" lon="8.1503867"><ele>49.8</ele><time>2026-04-03T14:42:17.916Z</time></trkpt><trkpt lat="44.0848583" lon="8.15051"><ele>49.6</ele><time>2026-04-03T14:42:18.916Z</time></trkpt><trkpt lat="44.0847867" lon="8.150635"><ele>49.400000000000006</ele><time>2026-04-03T14:42:19.916Z</time></trkpt><trkpt lat="44.084725" lon="8.15074"><ele>49.2</ele><time>2026-04-03T14:42:20.915Z</time></trkpt><trkpt lat="44.0846717" lon="8.1508467"><ele>49.0</ele><time>2026-04-03T14:42:21.915Z</time></trkpt><trkpt lat="44.0846133" lon="8.15095"><ele>49.0</ele><time>2026-04-03T14:42:22.916Z</time></trkpt><trkpt lat="44.0845533" lon="8.1510633"><ele>49.0</ele><time>2026-04-03T14:42:23.916Z</time></trkpt><trkpt lat="44.0844883" lon="8.1511817"><ele>49.0</ele><time>2026-04-03T14:42:24.916Z</time></trkpt><trkpt lat="44.0844167" lon="8.1513067"><ele>49.0</ele><time>2026-04-03T14:42:25.916Z</time></trkpt><trkpt lat="44.08434" lon="8.151445"><ele>49.0</ele><time>2026-04-03T14:42:26.916Z</time></trkpt><trkpt lat="44.0842517" lon="8.1515767"><ele>49.25</ele><time>2026-04-03T14:42:27.916Z</time></trkpt><trkpt lat="44.0841517" lon="8.1517067"><ele>49.5</ele><time>2026-04-03T14:42:28.916Z</time></trkpt><trkpt lat="44.084055" lon="8.1518383"><ele>49.75</ele><time>2026-04-03T14:42:29.915Z</time></trkpt><trkpt lat="44.0839617" lon="8.1519817"><ele>50.0</ele><time>2026-04-03T14:42:30.916Z</time></trkpt><trkpt lat="44.08387" lon="8.1521217"><ele>50.25</ele><time>2026-04-03T14:42:31.915Z</time></trkpt><trkpt lat="44.0837767" lon="8.1522567"><ele>50.5</ele><time>2026-04-03T14:42:32.915Z</time></trkpt><trkpt lat="44.0836883" lon="8.15239"><ele>50.75</ele><time>2026-04-03T14:42:33.915Z</time></trkpt><trkpt lat="44.0836067" lon="8.15253"><ele>51.0</ele><time>2026-04-03T14:42:34.916Z</time></trkpt><trkpt lat="44.08352" lon="8.15266"><ele>51.0</ele><time>2026-04-03T14:42:35.916Z</time></trkpt><trkpt lat="44.0834433" lon="8.1527983"><ele>51.0</ele><time>2026-04-03T14:42:36.915Z</time></trkpt><trkpt lat="44.0833667" lon="8.1529367"><ele>51.0</ele><time>2026-04-03T14:42:37.915Z</time></trkpt><trkpt lat="44.0832833" lon="8.15307"><ele>51.0</ele><time>2026-04-03T14:42:38.916Z</time></trkpt><trkpt lat="44.0832" lon="8.1531933"><ele>50.0</ele><time>2026-04-03T14:42:39.916Z</time></trkpt><trkpt lat="44.0831217" lon="8.1533167"><ele>49.0</ele><time>2026-04-03T14:42:40.916Z</time></trkpt><trkpt lat="44.0830417" lon="8.1534417"><ele>48.0</ele><time>2026-04-03T14:42:41.916Z</time></trkpt><trkpt lat="44.082965" lon="8.153565"><ele>47.0</ele><time>2026-04-03T14:42:42.916Z</time></trkpt><trkpt lat="44.08289" lon="8.1536883"><ele>47.0</ele><time>2026-04-03T14:42:43.916Z</time></trkpt><trkpt lat="44.08281" lon="8.1538133"><ele>47.0</ele><time>2026-04-03T14:42:44.916Z</time></trkpt><trkpt lat="44.082735" lon="8.1539433"><ele>47.0</ele><time>2026-04-03T14:42:45.916Z</time></trkpt><trkpt lat="44.08265" lon="8.1540717"><ele>47.0</ele><time>2026-04-03T14:42:46.915Z</time></trkpt><trkpt lat="44.0825567" lon="8.1541983"><ele>47.5</ele><time>2026-04-03T14:42:47.916Z</time></trkpt><trkpt lat="44.0824617" lon="8.15432"><ele>48.0</ele><time>2026-04-03T14:42:48.916Z</time></trkpt><trkpt lat="44.0823667" lon="8.1544433"><ele>48.5</ele><time>2026-04-03T14:42:49.916Z</time></trkpt><trkpt lat="44.0822683" lon="8.154565"><ele>49.0</ele><time>2026-04-03T14:42:50.916Z</time></trkpt><trkpt lat="44.0821667" lon="8.1546867"><ele>48.0</ele><time>2026-04-03T14:42:51.915Z</time></trkpt><trkpt lat="44.0820583" lon="8.1547983"><ele>47.0</ele><time>2026-04-03T14:42:52.916Z</time></trkpt><trkpt lat="44.081935" lon="8.154905"><ele>46.0</ele><time>2026-04-03T14:42:53.916Z</time></trkpt><trkpt lat="44.08181" lon="8.1550117"><ele>45.0</ele><time>2026-04-03T14:42:54.916Z</time></trkpt><trkpt lat="44.0816917" lon="8.1551267"><ele>43.333333333333336</ele><time>2026-04-03T14:42:55.916Z</time></trkpt><trkpt lat="44.081575" lon="8.1552433"><ele>41.66666666666667</ele><time>2026-04-03T14:42:56.916Z</time></trkpt><trkpt lat="44.0814467" lon="8.1553567"><ele>40.0</ele><time>2026-04-03T14:42:57.916Z</time></trkpt><trkpt lat="44.081315" lon="8.155485"><ele>40.0</ele><time>2026-04-03T14:42:58.916Z</time></trkpt><trkpt lat="44.081195" lon="8.1555933"><ele>40.0</ele><time>2026-04-03T14:42:59.915Z</time></trkpt><trkpt lat="44.08108" lon="8.1557117"><ele>40.0</ele><time>2026-04-03T14:43:00.916Z</time></trkpt><trkpt lat="44.0809533" lon="8.1558083"><ele>40.0</ele><time>2026-04-03T14:43:01.916Z</time></trkpt><trkpt lat="44.08083" lon="8.1559167"><ele>39.25</ele><time>2026-04-03T14:43:02.915Z</time></trkpt><trkpt lat="44.0807067" lon="8.1560333"><ele>38.5</ele><time>2026-04-03T14:43:03.916Z</time></trkpt><trkpt lat="44.0805833" lon="8.156145"><ele>37.75</ele><time>2026-04-03T14:43:04.916Z</time></trkpt><trkpt lat="44.0804667" lon="8.15624"><ele>37.0</ele><time>2026-04-03T14:43:05.916Z</time></trkpt><trkpt lat="44.080345" lon="8.1563333"><ele>37.0</ele><time>2026-04-03T14:43:06.916Z</time></trkpt><trkpt lat="44.0802117" lon="8.1564183"><ele>37.0</ele><time>2026-04-03T14:43:07.916Z</time></trkpt><trkpt lat="44.0800833" lon="8.1564983"><ele>37.0</ele><time>2026-04-03T14:43:08.916Z</time></trkpt><trkpt lat="44.0799583" lon="8.15657"><ele>37.0</ele><time>2026-04-03T14:43:09.916Z</time></trkpt><trkpt lat="44.0798383" lon="8.156635"><ele>36.800000000000004</ele><time>2026-04-03T14:43:10.915Z</time></trkpt><trkpt lat="44.0797267" lon="8.1566817"><ele>36.6</ele><time>2026-04-03T14:43:11.916Z</time></trkpt><trkpt lat="44.0796233" lon="8.156725"><ele>36.400000000000006</ele><time>2026-04-03T14:43:12.915Z</time></trkpt><trkpt lat="44.0795233" lon="8.15677"><ele>36.2</ele><time>2026-04-03T14:43:13.916Z</time></trkpt><trkpt lat="44.0794333" lon="8.15682"><ele>36.0</ele><time>2026-04-03T14:43:14.916Z</time></trkpt><trkpt lat="44.0793583" lon="8.15687"><ele>36.0</ele><time>2026-04-03T14:43:15.916Z</time></trkpt><trkpt lat="44.079295" lon="8.1569433"><ele>36.0</ele><time>2026-04-03T14:43:16.916Z</time></trkpt><trkpt lat="44.0792367" lon="8.15703"><ele>36.0</ele><time>2026-04-03T14:43:17.916Z</time></trkpt><trkpt lat="44.0791833" lon="8.1571433"><ele>36.0</ele><time>2026-04-03T14:43:18.915Z</time></trkpt><trkpt lat="44.079135" lon="8.157275"><ele>36.0</ele><time>2026-04-03T14:43:19.916Z</time></trkpt><trkpt lat="44.0790783" lon="8.1574117"><ele>36.5</ele><time>2026-04-03T14:43:20.916Z</time></trkpt><trkpt lat="44.0790167" lon="8.1575533"><ele>37.0</ele><time>2026-04-03T14:43:21.915Z</time></trkpt><trkpt lat="44.078945" lon="8.1576983"><ele>37.5</ele><time>2026-04-03T14:43:22.916Z</time></trkpt><trkpt lat="44.0788717" lon="8.1578483"><ele>38.0</ele><time>2026-04-03T14:43:23.916Z</time></trkpt><trkpt lat="44.0788067" lon="8.1580083"><ele>38.0</ele><time>2026-04-03T14:43:24.915Z</time></trkpt><trkpt lat="44.0787333" lon="8.1581767"><ele>38.0</ele><time>2026-04-03T14:43:25.916Z</time></trkpt><trkpt lat="44.0786633" lon="8.158345"><ele>38.0</ele><time>2026-04-03T14:43:26.916Z</time></trkpt><trkpt lat="44.078595" lon="8.1585"><ele>38.0</ele><time>2026-04-03T14:43:27.916Z</time></trkpt><trkpt lat="44.0785333" lon="8.1586633"><ele>38.4</ele><time>2026-04-03T14:43:28.915Z</time></trkpt><trkpt lat="44.078475" lon="8.1588117"><ele>38.8</ele><time>2026-04-03T14:43:29.915Z</time></trkpt><trkpt lat="44.0784433" lon="8.1589483"><ele>39.2</ele><time>2026-04-03T14:43:30.915Z</time></trkpt><trkpt lat="44.0784467" lon="8.1590867"><ele>39.6</ele><time>2026-04-03T14:43:31.916Z</time></trkpt><trkpt lat="44.0785117" lon="8.159215"><ele>40.0</ele><time>2026-04-03T14:43:32.916Z</time></trkpt><trkpt lat="44.0785933" lon="8.1593417"><ele>40.4</ele><time>2026-04-03T14:43:33.915Z</time></trkpt><trkpt lat="44.0786617" lon="8.159475"><ele>40.8</ele><time>2026-04-03T14:43:34.915Z</time></trkpt><trkpt lat="44.0787117" lon="8.1596117"><ele>41.2</ele><time>2026-04-03T14:43:35.916Z</time></trkpt><trkpt lat="44.0787217" lon="8.1597517"><ele>41.6</ele><time>2026-04-03T14:43:36.916Z</time></trkpt><trkpt lat="44.0786917" lon="8.159885"><ele>42.0</ele><time>2026-04-03T14:43:37.916Z</time></trkpt><trkpt lat="44.07864" lon="8.159995"><ele>43.5</ele><time>2026-04-03T14:43:38.916Z</time></trkpt><trkpt lat="44.0785433" lon="8.1601117"><ele>45.0</ele><time>2026-04-03T14:43:39.916Z</time></trkpt><trkpt lat="44.0784483" lon="8.1602367"><ele>46.5</ele><time>2026-04-03T14:43:40.916Z</time></trkpt><trkpt lat="44.0783667" lon="8.1603867"><ele>48.0</ele><time>2026-04-03T14:43:41.915Z</time></trkpt><trkpt lat="44.0782867" lon="8.1605433"><ele>49.5</ele><time>2026-04-03T14:43:42.915Z</time></trkpt><trkpt lat="44.0782283" lon="8.160715"><ele>51.0</ele><time>2026-04-03T14:43:43.916Z</time></trkpt><trkpt lat="44.078185" lon="8.1609033"><ele>52.5</ele><time>2026-04-03T14:43:44.915Z</time></trkpt><trkpt lat="44.0781667" lon="8.1611183"><ele>54.0</ele><time>2026-04-03T14:43:45.916Z</time></trkpt><trkpt lat="44.0781517" lon="8.16134"><ele>54.0</ele><time>2026-04-03T14:43:46.916Z</time></trkpt><trkpt lat="44.078135" lon="8.1615517"><ele>54.0</ele><time>2026-04-03T14:43:47.915Z</time></trkpt><trkpt lat="44.078115" lon="8.1617733"><ele>54.0</ele><time>2026-04-03T14:43:48.916Z</time></trkpt><trkpt lat="44.078095" lon="8.16199"><ele>54.0</ele><time>2026-04-03T14:43:49.916Z</time></trkpt><trkpt lat="44.0780767" lon="8.1622133"><ele>54.0</ele><time>2026-04-03T14:43:50.915Z</time></trkpt><trkpt lat="44.078055" lon="8.1624333"><ele>54.0</ele><time>2026-04-03T14:43:51.915Z</time></trkpt><trkpt lat="44.0780383" lon="8.1626633"><ele>54.33333333333333</ele><time>2026-04-03T14:43:52.916Z</time></trkpt><trkpt lat="44.07802" lon="8.1628867"><ele>54.666666666666664</ele><time>2026-04-03T14:43:53.916Z</time></trkpt><trkpt lat="44.0780133" lon="8.1631183"><ele>55.0</ele><time>2026-04-03T14:43:54.916Z</time></trkpt><trkpt lat="44.078005" lon="8.1633517"><ele>55.33333333333333</ele><time>2026-04-03T14:43:55.916Z</time></trkpt><trkpt lat="44.077995" lon="8.1635783"><ele>55.66666666666667</ele><time>2026-04-03T14:43:56.915Z</time></trkpt><trkpt lat="44.0779933" lon="8.1638083"><ele>56.0</ele><time>2026-04-03T14:43:57.915Z</time></trkpt><trkpt lat="44.0779933" lon="8.1640367"><ele>56.0</ele><time>2026-04-03T14:43:58.916Z</time></trkpt><trkpt lat="44.0779933" lon="8.1642817"><ele>56.0</ele><time>2026-04-03T14:43:59.916Z</time></trkpt><trkpt lat="44.0780067" lon="8.164525"><ele>56.0</ele><time>2026-04-03T14:44:00.915Z</time></trkpt><trkpt lat="44.0780183" lon="8.164765"><ele>55.66666666666667</ele><time>2026-04-03T14:44:01.915Z</time></trkpt><trkpt lat="44.0780283" lon="8.164995"><ele>55.33333333333333</ele><time>2026-04-03T14:44:02.916Z</time></trkpt><trkpt lat="44.07803" lon="8.1652333"><ele>55.0</ele><time>2026-04-03T14:44:03.916Z</time></trkpt><trkpt lat="44.0780317" lon="8.165475"><ele>55.0</ele><time>2026-04-03T14:44:04.916Z</time></trkpt><trkpt lat="44.0780317" lon="8.165715"><ele>55.0</ele><time>2026-04-03T14:44:05.915Z</time></trkpt><trkpt lat="44.0780433" lon="8.16596"><ele>55.0</ele><time>2026-04-03T14:44:06.916Z</time></trkpt><trkpt lat="44.0780517" lon="8.1662017"><ele>55.0</ele><time>2026-04-03T14:44:07.916Z</time></trkpt><trkpt lat="44.0780617" lon="8.1664467"><ele>55.0</ele><time>2026-04-03T14:44:08.915Z</time></trkpt><trkpt lat="44.0780667" lon="8.1666883"><ele>55.0</ele><time>2026-04-03T14:44:09.916Z</time></trkpt><trkpt lat="44.0780833" lon="8.1669283"><ele>55.0</ele><time>2026-04-03T14:44:10.916Z</time></trkpt><trkpt lat="44.0781217" lon="8.16716"><ele>55.0</ele><time>2026-04-03T14:44:11.916Z</time></trkpt><trkpt lat="44.0781633" lon="8.1673767"><ele>55.0</ele><time>2026-04-03T14:44:12.915Z</time></trkpt><trkpt lat="44.07823" lon="8.1676"><ele>56.0</ele><time>2026-04-03T14:44:13.916Z</time></trkpt><trkpt lat="44.0782983" lon="8.1678267"><ele>57.0</ele><time>2026-04-03T14:44:14.915Z</time></trkpt><trkpt lat="44.07835" lon="8.1680633"><ele>58.0</ele><time>2026-04-03T14:44:15.915Z</time></trkpt><trkpt lat="44.0784017" lon="8.1683"><ele>58.0</ele><time>2026-04-03T14:44:16.916Z</time></trkpt><trkpt lat="44.0784467" lon="8.168535"><ele>58.0</ele><time>2026-04-03T14:44:17.915Z</time></trkpt><trkpt lat="44.0784867" lon="8.1687717"><ele>58.0</ele><time>2026-04-03T14:44:18.915Z</time></trkpt><trkpt lat="44.078525" lon="8.169015"><ele>58.33333333333333</ele><time>2026-04-03T14:44:19.916Z</time></trkpt><trkpt lat="44.0785533" lon="8.1692667"><ele>58.66666666666667</ele><time>2026-04-03T14:44:20.915Z</time></trkpt><trkpt lat="44.078585" lon="8.169505"><ele>59.0</ele><time>2026-04-03T14:44:21.916Z</time></trkpt><trkpt lat="44.0786183" lon="8.16974"><ele>59.333333333333336</ele><time>2026-04-03T14:44:22.915Z</time></trkpt><trkpt lat="44.078645" lon="8.1699783"><ele>59.66666666666667</ele><time>2026-04-03T14:44:23.916Z</time></trkpt><trkpt lat="44.0786567" lon="8.17022"><ele>60.0</ele><time>2026-04-03T14:44:24.916Z</time></trkpt><trkpt lat="44.0786667" lon="8.17046"><ele>59.0</ele><time>2026-04-03T14:44:25.915Z</time></trkpt><trkpt lat="44.0786733" lon="8.170695"><ele>58.0</ele><time>2026-04-03T14:44:26.916Z</time></trkpt><trkpt lat="44.0786767" lon="8.1709167"><ele>57.0</ele><time>2026-04-03T14:44:27.915Z</time></trkpt><trkpt lat="44.07867" lon="8.1711283"><ele>57.0</ele><time>2026-04-03T14:44:28.916Z</time></trkpt><trkpt lat="44.0786583" lon="8.171335"><ele>57.0</ele><time>2026-04-03T14:44:29.915Z</time></trkpt><trkpt lat="44.0786667" lon="8.17154"><ele>57.0</ele><time>2026-04-03T14:44:30.915Z</time></trkpt><trkpt lat="44.0786683" lon="8.1717567"><ele>56.0</ele><time>2026-04-03T14:44:31.916Z</time></trkpt><trkpt lat="44.0786633" lon="8.1719633"><ele>55.0</ele><time>2026-04-03T14:44:32.915Z</time></trkpt><trkpt lat="44.0786583" lon="8.172175"><ele>54.0</ele><time>2026-04-03T14:44:33.915Z</time></trkpt><trkpt lat="44.0786533" lon="8.17239"><ele>54.0</ele><time>2026-04-03T14:44:34.916Z</time></trkpt><trkpt lat="44.0786533" lon="8.172605"><ele>54.0</ele><time>2026-04-03T14:44:35.916Z</time></trkpt><trkpt lat="44.0786567" lon="8.1728133"><ele>54.0</ele><time>2026-04-03T14:44:36.916Z</time></trkpt><trkpt lat="44.0786517" lon="8.1730217"><ele>53.0</ele><time>2026-04-03T14:44:37.916Z</time></trkpt><trkpt lat="44.0786417" lon="8.17323"><ele>52.0</ele><time>2026-04-03T14:44:38.916Z</time></trkpt><trkpt lat="44.0786333" lon="8.17345"><ele>51.0</ele><time>2026-04-03T14:44:39.916Z</time></trkpt><trkpt lat="44.0786317" lon="8.1736767"><ele>51.0</ele><time>2026-04-03T14:44:40.916Z</time></trkpt><trkpt lat="44.0786283" lon="8.1739"><ele>51.0</ele><time>2026-04-03T14:44:41.915Z</time></trkpt><trkpt lat="44.0786283" lon="8.17412"><ele>51.0</ele><time>2026-04-03T14:44:42.915Z</time></trkpt><trkpt lat="44.0786167" lon="8.1743367"><ele>50.0</ele><time>2026-04-03T14:44:43.916Z</time></trkpt><trkpt lat="44.0786117" lon="8.174555"><ele>49.0</ele><time>2026-04-03T14:44:44.916Z</time></trkpt><trkpt lat="44.0786167" lon="8.17478"><ele>48.0</ele><time>2026-04-03T14:44:45.916Z</time></trkpt><trkpt lat="44.0786233" lon="8.1749917"><ele>48.0</ele><time>2026-04-03T14:44:46.916Z</time></trkpt><trkpt lat="44.0786567" lon="8.1751983"><ele>48.0</ele><time>2026-04-03T14:44:47.916Z</time></trkpt><trkpt lat="44.0787" lon="8.1754067"><ele>48.0</ele><time>2026-04-03T14:44:48.915Z</time></trkpt><trkpt lat="44.0787517" lon="8.17562"><ele>48.0</ele><time>2026-04-03T14:44:49.916Z</time></trkpt><trkpt lat="44.078815" lon="8.175845"><ele>48.0</ele><time>2026-04-03T14:44:50.915Z</time></trkpt><trkpt lat="44.07887" lon="8.176075"><ele>48.0</ele><time>2026-04-03T14:44:51.915Z</time></trkpt><trkpt lat="44.078935" lon="8.1762933"><ele>48.33333333333333</ele><time>2026-04-03T14:44:52.915Z</time></trkpt><trkpt lat="44.0789967" lon="8.176525"><ele>48.666666666666664</ele><time>2026-04-03T14:44:53.916Z</time></trkpt><trkpt lat="44.079065" lon="8.17675"><ele>49.0</ele><time>2026-04-03T14:44:54.915Z</time></trkpt><trkpt lat="44.07912" lon="8.1769683"><ele>50.33333333333333</ele><time>2026-04-03T14:44:55.916Z</time></trkpt><trkpt lat="44.079165" lon="8.177195"><ele>51.66666666666667</ele><time>2026-04-03T14:44:56.916Z</time></trkpt><trkpt lat="44.0792017" lon="8.177415"><ele>53.0</ele><time>2026-04-03T14:44:57.915Z</time></trkpt><trkpt lat="44.0792217" lon="8.1776417"><ele>53.0</ele><time>2026-04-03T14:44:58.916Z</time></trkpt><trkpt lat="44.07922" lon="8.1778733"><ele>53.0</ele><time>2026-04-03T14:44:59.915Z</time></trkpt><trkpt lat="44.079215" lon="8.1781167"><ele>53.0</ele><time>2026-04-03T14:45:00.916Z</time></trkpt><trkpt lat="44.0791917" lon="8.178365"><ele>52.0</ele><time>2026-04-03T14:45:01.916Z</time></trkpt><trkpt lat="44.0791467" lon="8.178605"><ele>51.0</ele><time>2026-04-03T14:45:02.916Z</time></trkpt><trkpt lat="44.07909" lon="8.17883"><ele>50.0</ele><time>2026-04-03T14:45:03.915Z</time></trkpt><trkpt lat="44.0790183" lon="8.1790583"><ele>48.66666666666667</ele><time>2026-04-03T14:45:04.916Z</time></trkpt><trkpt lat="44.0789533" lon="8.1792683"><ele>47.333333333333336</ele><time>2026-04-03T14:45:05.916Z</time></trkpt><trkpt lat="44.078895" lon="8.1794883"><ele>46.0</ele><time>2026-04-03T14:45:06.916Z</time></trkpt><trkpt lat="44.0788383" lon="8.1797033"><ele>45.333333333333336</ele><time>2026-04-03T14:45:07.915Z</time></trkpt><trkpt lat="44.0788033" lon="8.1799267"><ele>44.666666666666664</ele><time>2026-04-03T14:45:08.916Z</time></trkpt><trkpt lat="44.0787883" lon="8.1801633"><ele>44.0</ele><time>2026-04-03T14:45:09.915Z</time></trkpt><trkpt lat="44.0787983" lon="8.1803917"><ele>44.0</ele><time>2026-04-03T14:45:10.915Z</time></trkpt><trkpt lat="44.0788233" lon="8.1806217"><ele>44.0</ele><time>2026-04-03T14:45:11.915Z</time></trkpt><trkpt lat="44.07885" lon="8.1808533"><ele>44.0</ele><time>2026-04-03T14:45:12.916Z</time></trkpt><trkpt lat="44.0788833" lon="8.1810967"><ele>42.33333333333333</ele><time>2026-04-03T14:45:13.916Z</time></trkpt><trkpt lat="44.0789133" lon="8.18134"><ele>40.666666666666664</ele><time>2026-04-03T14:45:14.916Z</time></trkpt><trkpt lat="44.0789367" lon="8.1815767"><ele>39.0</ele><time>2026-04-03T14:45:15.916Z</time></trkpt><trkpt lat="44.0789533" lon="8.1817983"><ele>38.75</ele><time>2026-04-03T14:45:16.916Z</time></trkpt><trkpt lat="44.0789433" lon="8.1820067"><ele>38.5</ele><time>2026-04-03T14:45:17.915Z</time></trkpt><trkpt lat="44.0789283" lon="8.1821967"><ele>38.25</ele><time>2026-04-03T14:45:18.915Z</time></trkpt><trkpt lat="44.0788733" lon="8.18237"><ele>38.0</ele><time>2026-04-03T14:45:19.916Z</time></trkpt><trkpt lat="44.0787867" lon="8.1825333"><ele>39.0</ele><time>2026-04-03T14:45:20.916Z</time></trkpt><trkpt lat="44.0786783" lon="8.182675"><ele>40.0</ele><time>2026-04-03T14:45:21.915Z</time></trkpt><trkpt lat="44.0785617" lon="8.1828283"><ele>41.0</ele><time>2026-04-03T14:45:22.915Z</time></trkpt><trkpt lat="44.0784533" lon="8.1829883"><ele>41.0</ele><time>2026-04-03T14:45:23.915Z</time></trkpt><trkpt lat="44.0783333" lon="8.1831467"><ele>41.0</ele><time>2026-04-03T14:45:24.916Z</time></trkpt><trkpt lat="44.0782083" lon="8.183305"><ele>41.0</ele><time>2026-04-03T14:45:25.916Z</time></trkpt><trkpt lat="44.07808" lon="8.18348"><ele>40.33333333333333</ele><time>2026-04-03T14:45:26.916Z</time></trkpt><trkpt lat="44.0779467" lon="8.183665"><ele>39.666666666666664</ele><time>2026-04-03T14:45:27.915Z</time></trkpt><trkpt lat="44.0778033" lon="8.183825"><ele>39.0</ele><time>2026-04-03T14:45:28.916Z</time></trkpt><trkpt lat="44.0776567" lon="8.1839583"><ele>39.0</ele><time>2026-04-03T14:45:29.916Z</time></trkpt><trkpt lat="44.0775083" lon="8.1840817"><ele>39.0</ele><time>2026-04-03T14:45:30.915Z</time></trkpt><trkpt lat="44.07734" lon="8.1841967"><ele>39.0</ele><time>2026-04-03T14:45:31.915Z</time></trkpt><trkpt lat="44.077175" lon="8.1843133"><ele>37.333333333333336</ele><time>2026-04-03T14:45:32.916Z</time></trkpt><trkpt lat="44.0770083" lon="8.18443"><ele>35.66666666666667</ele><time>2026-04-03T14:45:33.915Z</time></trkpt><trkpt lat="44.0768417" lon="8.18453"><ele>34.0</ele><time>2026-04-03T14:45:34.916Z</time></trkpt><trkpt lat="44.0766733" lon="8.1846067"><ele>33.333333333333336</ele><time>2026-04-03T14:45:35.916Z</time></trkpt><trkpt lat="44.0765083" lon="8.1846567"><ele>32.666666666666664</ele><time>2026-04-03T14:45:36.916Z</time></trkpt><trkpt lat="44.076345" lon="8.1847067"><ele>32.0</ele><time>2026-04-03T14:45:37.915Z</time></trkpt><trkpt lat="44.076175" lon="8.1847717"><ele>32.0</ele><time>2026-04-03T14:45:38.916Z</time></trkpt><trkpt lat="44.0760033" lon="8.18484"><ele>32.0</ele><time>2026-04-03T14:45:39.916Z</time></trkpt><trkpt lat="44.07583" lon="8.184915"><ele>32.0</ele><time>2026-04-03T14:45:40.915Z</time></trkpt><trkpt lat="44.07568" lon="8.1850217"><ele>30.666666666666664</ele><time>2026-04-03T14:45:41.916Z</time></trkpt><trkpt lat="44.07553" lon="8.18514"><ele>29.333333333333336</ele><time>2026-04-03T14:45:42.916Z</time></trkpt><trkpt lat="44.0753817" lon="8.1852383"><ele>28.0</ele><time>2026-04-03T14:45:43.915Z</time></trkpt><trkpt lat="44.0752467" lon="8.1853217"><ele>28.0</ele><time>2026-04-03T14:45:44.915Z</time></trkpt><trkpt lat="44.07513" lon="8.1854167"><ele>28.0</ele><time>2026-04-03T14:45:45.916Z</time></trkpt><trkpt lat="44.075025" lon="8.185525"><ele>28.0</ele><time>2026-04-03T14:45:46.915Z</time></trkpt><trkpt lat="44.0749367" lon="8.1856333"><ele>28.0</ele><time>2026-04-03T14:45:47.916Z</time></trkpt><trkpt lat="44.0748617" lon="8.1857567"><ele>27.75</ele><time>2026-04-03T14:45:48.916Z</time></trkpt><trkpt lat="44.0748033" lon="8.1858933"><ele>27.5</ele><time>2026-04-03T14:45:49.916Z</time></trkpt><trkpt lat="44.07474" lon="8.1860483"><ele>27.25</ele><time>2026-04-03T14:45:50.916Z</time></trkpt><trkpt lat="44.07467" lon="8.18621"><ele>27.0</ele><time>2026-04-03T14:45:51.916Z</time></trkpt><trkpt lat="44.0746033" lon="8.1863683"><ele>27.25</ele><time>2026-04-03T14:45:52.916Z</time></trkpt><trkpt lat="44.0745383" lon="8.1865267"><ele>27.5</ele><time>2026-04-03T14:45:53.915Z</time></trkpt><trkpt lat="44.07448" lon="8.1866733"><ele>27.75</ele><time>2026-04-03T14:45:54.915Z</time></trkpt><trkpt lat="44.0744183" lon="8.1868217"><ele>28.0</ele><time>2026-04-03T14:45:55.916Z</time></trkpt><trkpt lat="44.0743717" lon="8.18697"><ele>28.0</ele><time>2026-04-03T14:45:56.916Z</time></trkpt><trkpt lat="44.074365" lon="8.18713"><ele>28.0</ele><time>2026-04-03T14:45:57.916Z</time></trkpt><trkpt lat="44.0743617" lon="8.1873067"><ele>28.0</ele><time>2026-04-03T14:45:58.916Z</time></trkpt><trkpt lat="44.0743733" lon="8.1874783"><ele>28.0</ele><time>2026-04-03T14:45:59.916Z</time></trkpt><trkpt lat="44.074395" lon="8.187645"><ele>27.75</ele><time>2026-04-03T14:46:00.916Z</time></trkpt><trkpt lat="44.074415" lon="8.187815"><ele>27.5</ele><time>2026-04-03T14:46:01.915Z</time></trkpt><trkpt lat="44.074425" lon="8.1879767"><ele>27.25</ele><time>2026-04-03T14:46:02.916Z</time></trkpt><trkpt lat="44.0744217" lon="8.1881433"><ele>27.0</ele><time>2026-04-03T14:46:03.916Z</time></trkpt><trkpt lat="44.0744283" lon="8.1883183"><ele>27.0</ele><time>2026-04-03T14:46:04.916Z</time></trkpt><trkpt lat="44.074425" lon="8.1884883"><ele>27.0</ele><time>2026-04-03T14:46:05.916Z</time></trkpt><trkpt lat="44.074425" lon="8.1886533"><ele>27.0</ele><time>2026-04-03T14:46:06.916Z</time></trkpt><trkpt lat="44.0744267" lon="8.1888117"><ele>27.0</ele><time>2026-04-03T14:46:07.916Z</time></trkpt><trkpt lat="44.074435" lon="8.188965"><ele>27.166666666666668</ele><time>2026-04-03T14:46:08.915Z</time></trkpt><trkpt lat="44.07444" lon="8.1891"><ele>27.333333333333336</ele><time>2026-04-03T14:46:09.915Z</time></trkpt><trkpt lat="44.0744433" lon="8.1892167"><ele>27.5</ele><time>2026-04-03T14:46:10.916Z</time></trkpt><trkpt lat="44.0744517" lon="8.189325"><ele>27.666666666666668</ele><time>2026-04-03T14:46:11.915Z</time></trkpt><trkpt lat="44.07445" lon="8.1894367"><ele>27.833333333333336</ele><time>2026-04-03T14:46:12.916Z</time></trkpt><trkpt lat="44.074455" lon="8.189555"><ele>28.0</ele><time>2026-04-03T14:46:13.915Z</time></trkpt><trkpt lat="44.074455" lon="8.18968"><ele>28.0</ele><time>2026-04-03T14:46:14.916Z</time></trkpt><trkpt lat="44.0744517" lon="8.18981"><ele>27.999999999999996</ele><time>2026-04-03T14:46:15.916Z</time></trkpt><trkpt lat="44.074455" lon="8.1899617"><ele>27.999999999999996</ele><time>2026-04-03T14:46:16.916Z</time></trkpt><trkpt lat="44.0744567" lon="8.1901167"><ele>28.0</ele><time>2026-04-03T14:46:17.916Z</time></trkpt><trkpt lat="44.0744533" lon="8.1902783"><ele>28.0</ele><time>2026-04-03T14:46:18.915Z</time></trkpt><trkpt lat="44.0744567" lon="8.19045"><ele>28.25</ele><time>2026-04-03T14:46:19.915Z</time></trkpt><trkpt lat="44.0744567" lon="8.190615"><ele>28.5</ele><time>2026-04-03T14:46:20.915Z</time></trkpt><trkpt lat="44.0744633" lon="8.19078"><ele>28.75</ele><time>2026-04-03T14:46:21.916Z</time></trkpt><trkpt lat="44.0744733" lon="8.1909583"><ele>29.0</ele><time>2026-04-03T14:46:22.915Z</time></trkpt><trkpt lat="44.0744783" lon="8.1911333"><ele>29.0</ele><time>2026-04-03T14:46:23.915Z</time></trkpt><trkpt lat="44.0744833" lon="8.1913133"><ele>29.0</ele><time>2026-04-03T14:46:24.916Z</time></trkpt><trkpt lat="44.0744883" lon="8.1914967"><ele>29.0</ele><time>2026-04-03T14:46:25.916Z</time></trkpt><trkpt lat="44.0744917" lon="8.1916817"><ele>29.0</ele><time>2026-04-03T14:46:26.915Z</time></trkpt><trkpt lat="44.0744983" lon="8.1918617"><ele>28.75</ele><time>2026-04-03T14:46:27.915Z</time></trkpt><trkpt lat="44.0745133" lon="8.1920367"><ele>28.5</ele><time>2026-04-03T14:46:28.915Z</time></trkpt><trkpt lat="44.0745283" lon="8.1922133"><ele>28.25</ele><time>2026-04-03T14:46:29.916Z</time></trkpt><trkpt lat="44.0745467" lon="8.192395"><ele>28.0</ele><time>2026-04-03T14:46:30.915Z</time></trkpt><trkpt lat="44.074575" lon="8.1925667"><ele>27.5</ele><time>2026-04-03T14:46:31.915Z</time></trkpt><trkpt lat="44.0745967" lon="8.1927317"><ele>27.0</ele><time>2026-04-03T14:46:32.916Z</time></trkpt><trkpt lat="44.074635" lon="8.192885"><ele>26.5</ele><time>2026-04-03T14:46:33.915Z</time></trkpt><trkpt lat="44.0746767" lon="8.193035"><ele>26.0</ele><time>2026-04-03T14:46:34.916Z</time></trkpt><trkpt lat="44.0747167" lon="8.1931667"><ele>25.8</ele><time>2026-04-03T14:46:35.916Z</time></trkpt><trkpt lat="44.074755" lon="8.1932933"><ele>25.6</ele><time>2026-04-03T14:46:36.916Z</time></trkpt><trkpt lat="44.0747967" lon="8.1934183"><ele>25.4</ele><time>2026-04-03T14:46:37.915Z</time></trkpt><trkpt lat="44.0748417" lon="8.193535"><ele>25.2</ele><time>2026-04-03T14:46:38.916Z</time></trkpt><trkpt lat="44.0748917" lon="8.1936533"><ele>25.0</ele><time>2026-04-03T14:46:39.916Z</time></trkpt><trkpt lat="44.0749483" lon="8.193775"><ele>25.0</ele><time>2026-04-03T14:46:40.915Z</time></trkpt><trkpt lat="44.0750067" lon="8.193915"><ele>25.0</ele><time>2026-04-03T14:46:41.916Z</time></trkpt><trkpt lat="44.07507" lon="8.1940733"><ele>25.0</ele><time>2026-04-03T14:46:42.915Z</time></trkpt><trkpt lat="44.0751233" lon="8.19424"><ele>25.0</ele><time>2026-04-03T14:46:43.915Z</time></trkpt><trkpt lat="44.0751917" lon="8.1944017"><ele>25.0</ele><time>2026-04-03T14:46:44.916Z</time></trkpt><trkpt lat="44.0752583" lon="8.194565"><ele>25.0</ele><time>2026-04-03T14:46:45.916Z</time></trkpt><trkpt lat="44.07531" lon="8.19472"><ele>25.0</ele><time>2026-04-03T14:46:46.916Z</time></trkpt><trkpt lat="44.07537" lon="8.1948633"><ele>25.0</ele><time>2026-04-03T14:46:47.916Z</time></trkpt><trkpt lat="44.0754233" lon="8.195005"><ele>24.5</ele><time>2026-04-03T14:46:48.916Z</time></trkpt><trkpt lat="44.0754767" lon="8.1951483"><ele>24.0</ele><time>2026-04-03T14:46:49.916Z</time></trkpt><trkpt lat="44.0755417" lon="8.1952933"><ele>23.5</ele><time>2026-04-03T14:46:50.916Z</time></trkpt><trkpt lat="44.0755917" lon="8.1954467"><ele>23.0</ele><time>2026-04-03T14:46:51.915Z</time></trkpt><trkpt lat="44.0756367" lon="8.1956017"><ele>22.599999999999998</ele><time>2026-04-03T14:46:52.916Z</time></trkpt><trkpt lat="44.0756683" lon="8.1957567"><ele>22.2</ele><time>2026-04-03T14:46:53.916Z</time></trkpt><trkpt lat="44.07569" lon="8.1959117"><ele>21.8</ele><time>2026-04-03T14:46:54.915Z</time></trkpt><trkpt lat="44.075705" lon="8.1960533"><ele>21.4</ele><time>2026-04-03T14:46:55.916Z</time></trkpt><trkpt lat="44.075725" lon="8.1961817"><ele>21.0</ele><time>2026-04-03T14:46:56.915Z</time></trkpt><trkpt lat="44.07574" lon="8.196275"><ele>21.200000000000003</ele><time>2026-04-03T14:46:57.916Z</time></trkpt><trkpt lat="44.0758133" lon="8.1963617"><ele>21.400000000000002</ele><time>2026-04-03T14:46:59.916Z</time></trkpt><trkpt lat="44.075865" lon="8.196305"><ele>21.6</ele><time>2026-04-03T14:47:00.915Z</time></trkpt><trkpt lat="44.0759367" lon="8.196215"><ele>21.8</ele><time>2026-04-03T14:47:01.916Z</time></trkpt><trkpt lat="44.0760283" lon="8.1960983"><ele>22.0</ele><time>2026-04-03T14:47:02.916Z</time></trkpt><trkpt lat="44.0761333" lon="8.1959733"><ele>22.0</ele><time>2026-04-03T14:47:03.916Z</time></trkpt><trkpt lat="44.07625" lon="8.19588"><ele>22.0</ele><time>2026-04-03T14:47:04.916Z</time></trkpt><trkpt lat="44.07636" lon="8.1957883"><ele>22.0</ele><time>2026-04-03T14:47:05.916Z</time></trkpt><trkpt lat="44.0764917" lon="8.1956883"><ele>22.0</ele><time>2026-04-03T14:47:06.916Z</time></trkpt><trkpt lat="44.07661" lon="8.1955983"><ele>23.5</ele><time>2026-04-03T14:47:07.915Z</time></trkpt><trkpt lat="44.0767133" lon="8.19552"><ele>25.0</ele><time>2026-04-03T14:47:08.916Z</time></trkpt><trkpt lat="44.0768167" lon="8.1954267"><ele>26.5</ele><time>2026-04-03T14:47:09.916Z</time></trkpt><trkpt lat="44.0769267" lon="8.1953633"><ele>28.0</ele><time>2026-04-03T14:47:10.916Z</time></trkpt><trkpt lat="44.0770317" lon="8.1952783"><ele>28.0</ele><time>2026-04-03T14:47:11.916Z</time></trkpt><trkpt lat="44.07713" lon="8.195205"><ele>27.999999999999996</ele><time>2026-04-03T14:47:12.916Z</time></trkpt><trkpt lat="44.0772217" lon="8.1951333"><ele>27.999999999999996</ele><time>2026-04-03T14:47:13.916Z</time></trkpt><trkpt lat="44.0773033" lon="8.1950683"><ele>28.0</ele><time>2026-04-03T14:47:14.915Z</time></trkpt><trkpt lat="44.0773833" lon="8.194995"><ele>28.0</ele><time>2026-04-03T14:47:15.915Z</time></trkpt><trkpt lat="44.077455" lon="8.194905"><ele>29.0</ele><time>2026-04-03T14:47:16.915Z</time></trkpt><trkpt lat="44.077515" lon="8.1948033"><ele>29.999999999999996</ele><time>2026-04-03T14:47:17.915Z</time></trkpt><trkpt lat="44.0775717" lon="8.19471"><ele>30.999999999999996</ele><time>2026-04-03T14:47:18.916Z</time></trkpt><trkpt lat="44.07761" lon="8.1946133"><ele>32.0</ele><time>2026-04-03T14:47:19.916Z</time></trkpt><trkpt lat="44.0776417" lon="8.1945333"><ele>33.0</ele><time>2026-04-03T14:47:20.916Z</time></trkpt><trkpt lat="44.0777217" lon="8.1944033"><ele>33.0</ele><time>2026-04-03T14:47:22.915Z</time></trkpt><trkpt lat="44.07777" lon="8.19434"><ele>33.0</ele><time>2026-04-03T14:47:23.916Z</time></trkpt><trkpt lat="44.0778283" lon="8.1942683"><ele>33.0</ele><time>2026-04-03T14:47:24.916Z</time></trkpt><trkpt lat="44.0778983" lon="8.1941933"><ele>33.0</ele><time>2026-04-03T14:47:25.915Z</time></trkpt><trkpt lat="44.07796" lon="8.1941017"><ele>33.0</ele><time>2026-04-03T14:47:26.916Z</time></trkpt><trkpt lat="44.0780267" lon="8.1940033"><ele>33.0</ele><time>2026-04-03T14:47:27.916Z</time></trkpt><trkpt lat="44.07809" lon="8.1938917"><ele>33.25</ele><time>2026-04-03T14:47:28.916Z</time></trkpt><trkpt lat="44.0781633" lon="8.1937883"><ele>33.5</ele><time>2026-04-03T14:47:29.916Z</time></trkpt><trkpt lat="44.0782367" lon="8.1936717"><ele>33.75</ele><time>2026-04-03T14:47:30.915Z</time></trkpt><trkpt lat="44.0783133" lon="8.193555"><ele>34.0</ele><time>2026-04-03T14:47:31.915Z</time></trkpt><trkpt lat="44.0784017" lon="8.19344"><ele>34.0</ele><time>2026-04-03T14:47:32.916Z</time></trkpt><trkpt lat="44.0784983" lon="8.19334"><ele>34.0</ele><time>2026-04-03T14:47:33.916Z</time></trkpt><trkpt lat="44.0785833" lon="8.1932683"><ele>34.0</ele><time>2026-04-03T14:47:34.916Z</time></trkpt><trkpt lat="44.0786733" lon="8.1932017"><ele>34.0</ele><time>2026-04-03T14:47:35.916Z</time></trkpt><trkpt lat="44.07876" lon="8.1931383"><ele>34.0</ele><time>2026-04-03T14:47:36.916Z</time></trkpt><trkpt lat="44.0788433" lon="8.1930717"><ele>34.0</ele><time>2026-04-03T14:47:37.916Z</time></trkpt><trkpt lat="44.0789233" lon="8.1929833"><ele>34.0</ele><time>2026-04-03T14:47:38.916Z</time></trkpt><trkpt lat="44.079005" lon="8.1928617"><ele>34.0</ele><time>2026-04-03T14:47:39.916Z</time></trkpt><trkpt lat="44.079075" lon="8.19276"><ele>34.0</ele><time>2026-04-03T14:47:40.916Z</time></trkpt><trkpt lat="44.0791467" lon="8.1926767"><ele>34.0</ele><time>2026-04-03T14:47:41.916Z</time></trkpt><trkpt lat="44.079205" lon="8.1926067"><ele>34.4</ele><time>2026-04-03T14:47:42.916Z</time></trkpt><trkpt lat="44.0792833" lon="8.1925717"><ele>34.8</ele><time>2026-04-03T14:47:43.916Z</time></trkpt><trkpt lat="44.0793733" lon="8.1925833"><ele>35.2</ele><time>2026-04-03T14:47:44.916Z</time></trkpt><trkpt lat="44.0794633" lon="8.1926217"><ele>35.6</ele><time>2026-04-03T14:47:45.916Z</time></trkpt><trkpt lat="44.0795633" lon="8.1926767"><ele>36.0</ele><time>2026-04-03T14:47:46.916Z</time></trkpt><trkpt lat="44.0796433" lon="8.1927317"><ele>36.0</ele><time>2026-04-03T14:47:47.916Z</time></trkpt><trkpt lat="44.0797083" lon="8.192775"><ele>36.0</ele><time>2026-04-03T14:47:48.916Z</time></trkpt><trkpt lat="44.0797733" lon="8.1929067"><ele>36.0</ele><time>2026-04-03T14:47:50.915Z</time></trkpt><trkpt lat="44.0797483" lon="8.19302"><ele>36.0</ele><time>2026-04-03T14:47:52.916Z</time></trkpt><trkpt lat="44.0796567" lon="8.1931017"><ele>36.0</ele><time>2026-04-03T14:47:54.915Z</time></trkpt><trkpt lat="44.0796283" lon="8.193235"><ele>35.8</ele><time>2026-04-03T14:47:56.916Z</time></trkpt><trkpt lat="44.07968" lon="8.1934117"><ele>35.6</ele><time>2026-04-03T14:47:58.916Z</time></trkpt><trkpt lat="44.0797233" lon="8.19352"><ele>35.4</ele><time>2026-04-03T14:47:59.916Z</time></trkpt><trkpt lat="44.0797733" lon="8.1936167"><ele>35.2</ele><time>2026-04-03T14:48:00.916Z</time></trkpt><trkpt lat="44.079835" lon="8.1936967"><ele>35.0</ele><time>2026-04-03T14:48:01.916Z</time></trkpt><trkpt lat="44.079905" lon="8.1937583"><ele>34.714285714285715</ele><time>2026-04-03T14:48:02.916Z</time></trkpt><trkpt lat="44.079975" lon="8.193805"><ele>34.42857142857143</ele><time>2026-04-03T14:48:03.916Z</time></trkpt><trkpt lat="44.0800433" lon="8.1938367"><ele>34.14285714285714</ele><time>2026-04-03T14:48:04.915Z</time></trkpt><trkpt lat="44.0800983" lon="8.1938867"><ele>33.85714285714286</ele><time>2026-04-03T14:48:05.916Z</time></trkpt><trkpt lat="44.0801533" lon="8.1939383"><ele>33.57142857142857</ele><time>2026-04-03T14:48:06.915Z</time></trkpt><trkpt lat="44.0802033" lon="8.1940033"><ele>33.285714285714285</ele><time>2026-04-03T14:48:07.916Z</time></trkpt><trkpt lat="44.08027" lon="8.1940717"><ele>33.0</ele><time>2026-04-03T14:48:08.916Z</time></trkpt><trkpt lat="44.080335" lon="8.1941283"><ele>33.0</ele><time>2026-04-03T14:48:09.915Z</time></trkpt><trkpt lat="44.0804117" lon="8.1941817"><ele>33.0</ele><time>2026-04-03T14:48:10.916Z</time></trkpt><trkpt lat="44.0804983" lon="8.1942517"><ele>33.0</ele><time>2026-04-03T14:48:11.916Z</time></trkpt><trkpt lat="44.08057" lon="8.1943333"><ele>33.0</ele><time>2026-04-03T14:48:12.916Z</time></trkpt><trkpt lat="44.08063" lon="8.1944117"><ele>33.0</ele><time>2026-04-03T14:48:13.916Z</time></trkpt><trkpt lat="44.0806983" lon="8.194505"><ele>33.0</ele><time>2026-04-03T14:48:15.915Z</time></trkpt><trkpt lat="44.0807717" lon="8.1945233"><ele>33.0</ele><time>2026-04-03T14:48:17.916Z</time></trkpt><trkpt lat="44.0808617" lon="8.1945133"><ele>33.0</ele><time>2026-04-03T14:48:19.915Z</time></trkpt><trkpt lat="44.0809283" lon="8.1945867"><ele>33.0</ele><time>2026-04-03T14:48:21.916Z</time></trkpt><trkpt lat="44.0809817" lon="8.1946783"><ele>33.0</ele><time>2026-04-03T14:48:23.916Z</time></trkpt><trkpt lat="44.0809717" lon="8.194785"><ele>33.0</ele><time>2026-04-03T14:48:26.916Z</time></trkpt><trkpt lat="44.0809183" lon="8.1948633"><ele>33.4</ele><time>2026-04-03T14:48:28.915Z</time></trkpt><trkpt lat="44.0809233" lon="8.1949683"><ele>33.8</ele><time>2026-04-03T14:48:30.915Z</time></trkpt><trkpt lat="44.0809783" lon="8.1950333"><ele>34.2</ele><time>2026-04-03T14:48:32.916Z</time></trkpt><trkpt lat="44.0810733" lon="8.195085"><ele>34.6</ele><time>2026-04-03T14:48:34.916Z</time></trkpt><trkpt lat="44.0811867" lon="8.1951333"><ele>35.0</ele><time>2026-04-03T14:48:36.916Z</time></trkpt><trkpt lat="44.08129" lon="8.1951783"><ele>35.0</ele><time>2026-04-03T14:48:38.916Z</time></trkpt><trkpt lat="44.081385" lon="8.1952117"><ele>35.0</ele><time>2026-04-03T14:48:40.915Z</time></trkpt><trkpt lat="44.0814483" lon="8.1952367"><ele>35.0</ele><time>2026-04-03T14:48:41.915Z</time></trkpt><trkpt lat="44.0815167" lon="8.1952717"><ele>35.0</ele><time>2026-04-03T14:48:42.916Z</time></trkpt><trkpt lat="44.0816033" lon="8.1953133"><ele>35.0</ele><time>2026-04-03T14:48:43.916Z</time></trkpt><trkpt lat="44.0816817" lon="8.1953767"><ele>35.0</ele><time>2026-04-03T14:48:44.915Z</time></trkpt><trkpt lat="44.0817567" lon="8.195425"><ele>36.0</ele><time>2026-04-03T14:48:45.915Z</time></trkpt><trkpt lat="44.081815" lon="8.1954767"><ele>37.0</ele><time>2026-04-03T14:48:46.916Z</time></trkpt><trkpt lat="44.0818867" lon="8.1955817"><ele>38.0</ele><time>2026-04-03T14:48:48.915Z</time></trkpt><trkpt lat="44.0819" lon="8.1957083"><ele>39.0</ele><time>2026-04-03T14:48:51.915Z</time></trkpt><trkpt lat="44.0818817" lon="8.1958383"><ele>40.0</ele><time>2026-04-03T14:48:53.916Z</time></trkpt><trkpt lat="44.0818267" lon="8.1959867"><ele>40.16666666666667</ele><time>2026-04-03T14:48:55.916Z</time></trkpt><trkpt lat="44.0817617" lon="8.1960767"><ele>40.333333333333336</ele><time>2026-04-03T14:48:57.916Z</time></trkpt><trkpt lat="44.0818133" lon="8.1961417"><ele>40.5</ele><time>2026-04-03T14:49:01.916Z</time></trkpt><trkpt lat="44.08187" lon="8.1960933"><ele>40.666666666666664</ele><time>2026-04-03T14:49:03.915Z</time></trkpt><trkpt lat="44.0819517" lon="8.1960717"><ele>40.83333333333333</ele><time>2026-04-03T14:49:05.915Z</time></trkpt><trkpt lat="44.082045" lon="8.19606"><ele>41.0</ele><time>2026-04-03T14:49:07.916Z</time></trkpt><trkpt lat="44.0821367" lon="8.1960517"><ele>41.0</ele><time>2026-04-03T14:49:09.915Z</time></trkpt><trkpt lat="44.0822117" lon="8.195985"><ele>41.0</ele><time>2026-04-03T14:49:11.916Z</time></trkpt><trkpt lat="44.08229" lon="8.1959783"><ele>41.0</ele><time>2026-04-03T14:49:13.916Z</time></trkpt><trkpt lat="44.0823617" lon="8.1960517"><ele>41.0</ele><time>2026-04-03T14:49:15.916Z</time></trkpt><trkpt lat="44.0824317" lon="8.1961867"><ele>41.0</ele><time>2026-04-03T14:49:17.916Z</time></trkpt><trkpt lat="44.08253" lon="8.1962717"><ele>42.4</ele><time>2026-04-03T14:49:19.915Z</time></trkpt><trkpt lat="44.0826367" lon="8.1962867"><ele>43.8</ele><time>2026-04-03T14:49:21.915Z</time></trkpt><trkpt lat="44.0827633" lon="8.1962383"><ele>45.199999999999996</ele><time>2026-04-03T14:49:23.916Z</time></trkpt><trkpt lat="44.08286" lon="8.196215"><ele>46.599999999999994</ele><time>2026-04-03T14:49:25.916Z</time></trkpt><trkpt lat="44.082925" lon="8.1961733"><ele>48.0</ele><time>2026-04-03T14:49:27.916Z</time></trkpt><trkpt lat="44.0830133" lon="8.1961667"><ele>48.0</ele><time>2026-04-03T14:49:29.916Z</time></trkpt><trkpt lat="44.08309" lon="8.1961583"><ele>48.0</ele><time>2026-04-03T14:49:31.915Z</time></trkpt><trkpt lat="44.0831733" lon="8.1961283"><ele>48.0</ele><time>2026-04-03T14:49:34.915Z</time></trkpt><trkpt lat="44.0832467" lon="8.1961583"><ele>48.0</ele><time>2026-04-03T14:49:36.915Z</time></trkpt><trkpt lat="44.0833467" lon="8.1961783"><ele>48.0</ele><time>2026-04-03T14:49:38.915Z</time></trkpt><trkpt lat="44.083415" lon="8.196165"><ele>48.0</ele><time>2026-04-03T14:49:39.916Z</time></trkpt><trkpt lat="44.08351" lon="8.1960933"><ele>48.8</ele><time>2026-04-03T14:49:41.915Z</time></trkpt><trkpt lat="44.0835833" lon="8.1960267"><ele>49.599999999999994</ele><time>2026-04-03T14:49:43.915Z</time></trkpt><trkpt lat="44.0836933" lon="8.1960033"><ele>50.400000000000006</ele><time>2026-04-03T14:49:45.915Z</time></trkpt><trkpt lat="44.0838167" lon="8.19598"><ele>51.2</ele><time>2026-04-03T14:49:47.916Z</time></trkpt><trkpt lat="44.083925" lon="8.1959233"><ele>52.0</ele><time>2026-04-03T14:49:49.916Z</time></trkpt><trkpt lat="44.084" lon="8.1958867"><ele>52.8</ele><time>2026-04-03T14:49:51.915Z</time></trkpt><trkpt lat="44.0841217" lon="8.1959017"><ele>53.6</ele><time>2026-04-03T14:49:53.915Z</time></trkpt><trkpt lat="44.0841917" lon="8.195895"><ele>54.39999999999999</ele><time>2026-04-03T14:49:54.915Z</time></trkpt><trkpt lat="44.0843" lon="8.19587"><ele>55.199999999999996</ele><time>2026-04-03T14:49:56.916Z</time></trkpt><trkpt lat="44.0843467" lon="8.1957817"><ele>56.0</ele><time>2026-04-03T14:49:58.916Z</time></trkpt><trkpt lat="44.0843867" lon="8.1956967"><ele>56.00000000000001</ele><time>2026-04-03T14:50:01.916Z</time></trkpt><trkpt lat="44.0844383" lon="8.1956367"><ele>56.0</ele><time>2026-04-03T14:50:05.916Z</time></trkpt><trkpt lat="44.0845083" lon="8.1956217"><ele>56.0</ele><time>2026-04-03T14:50:08.915Z</time></trkpt><trkpt lat="44.0845767" lon="8.1956333"><ele>56.0</ele><time>2026-04-03T14:50:10.916Z</time></trkpt><trkpt lat="44.0846567" lon="8.19566"><ele>56.00000000000001</ele><time>2026-04-03T14:50:12.916Z</time></trkpt><trkpt lat="44.0847517" lon="8.1956967"><ele>56.0</ele><time>2026-04-03T14:50:14.915Z</time></trkpt><trkpt lat="44.08484" lon="8.1957617"><ele>56.0</ele><time>2026-04-03T14:50:16.916Z</time></trkpt><trkpt lat="44.0849283" lon="8.1958567"><ele>55.99999999999999</ele><time>2026-04-03T14:50:18.916Z</time></trkpt><trkpt lat="44.08497" lon="8.196005"><ele>55.99999999999999</ele><time>2026-04-03T14:50:20.916Z</time></trkpt><trkpt lat="44.0849117" lon="8.1961267"><ele>56.0</ele><time>2026-04-03T14:50:22.916Z</time></trkpt><trkpt lat="44.0848467" lon="8.1961867"><ele>56.0</ele><time>2026-04-03T14:50:23.916Z</time></trkpt><trkpt lat="44.0847683" lon="8.1962367"><ele>56.00000000000001</ele><time>2026-04-03T14:50:24.916Z</time></trkpt><trkpt lat="44.0846817" lon="8.1962783"><ele>56.0</ele><time>2026-04-03T14:50:25.916Z</time></trkpt><trkpt lat="44.0845933" lon="8.196325"><ele>56.0</ele><time>2026-04-03T14:50:26.916Z</time></trkpt><trkpt lat="44.0845133" lon="8.1963717"><ele>56.0</ele><time>2026-04-03T14:50:27.915Z</time></trkpt><trkpt lat="44.08444" lon="8.19642"><ele>56.00000000000001</ele><time>2026-04-03T14:50:28.915Z</time></trkpt><trkpt lat="44.0843683" lon="8.1964667"><ele>56.0</ele><time>2026-04-03T14:50:29.916Z</time></trkpt><trkpt lat="44.0843" lon="8.1965067"><ele>54.333333333333336</ele><time>2026-04-03T14:50:30.916Z</time></trkpt><trkpt lat="44.084225" lon="8.1965533"><ele>52.66666666666667</ele><time>2026-04-03T14:50:31.916Z</time></trkpt><trkpt lat="44.0841533" lon="8.1965867"><ele>51.0</ele><time>2026-04-03T14:50:32.916Z</time></trkpt><trkpt lat="44.0840817" lon="8.196625"><ele>49.333333333333336</ele><time>2026-04-03T14:50:33.916Z</time></trkpt><trkpt lat="44.0840083" lon="8.1966683"><ele>47.66666666666667</ele><time>2026-04-03T14:50:34.916Z</time></trkpt><trkpt lat="44.0839433" lon="8.19671"><ele>46.0</ele><time>2026-04-03T14:50:35.916Z</time></trkpt><trkpt lat="44.0838717" lon="8.1967533"><ele>47.0</ele><time>2026-04-03T14:50:36.916Z</time></trkpt><trkpt lat="44.0838017" lon="8.1967583"><ele>48.0</ele><time>2026-04-03T14:50:37.916Z</time></trkpt><trkpt lat="44.0836967" lon="8.196685"><ele>49.0</ele><time>2026-04-03T14:50:39.915Z</time></trkpt><trkpt lat="44.0836667" lon="8.1966067"><ele>50.0</ele><time>2026-04-03T14:50:40.916Z</time></trkpt><trkpt lat="44.08363" lon="8.1965317"><ele>50.99999999999999</ele><time>2026-04-03T14:50:41.916Z</time></trkpt><trkpt lat="44.0835517" lon="8.19644"><ele>52.0</ele><time>2026-04-03T14:50:43.916Z</time></trkpt><trkpt lat="44.08348" lon="8.1964533"><ele>49.83333333333333</ele><time>2026-04-03T14:50:45.916Z</time></trkpt><trkpt lat="44.0834617" lon="8.1965483"><ele>47.666666666666664</ele><time>2026-04-03T14:50:47.916Z</time></trkpt><trkpt lat="44.0835267" lon="8.1966333"><ele>45.5</ele><time>2026-04-03T14:50:49.916Z</time></trkpt><trkpt lat="44.08358" lon="8.19668"><ele>43.33333333333333</ele><time>2026-04-03T14:50:50.916Z</time></trkpt><trkpt lat="44.083625" lon="8.1967583"><ele>41.166666666666664</ele><time>2026-04-03T14:50:51.916Z</time></trkpt><trkpt lat="44.0836733" lon="8.1968583"><ele>39.0</ele><time>2026-04-03T14:50:52.916Z</time></trkpt><trkpt lat="44.083725" lon="8.1969633"><ele>39.0</ele><time>2026-04-03T14:50:53.916Z</time></trkpt><trkpt lat="44.083775" lon="8.1970533"><ele>39.0</ele><time>2026-04-03T14:50:54.915Z</time></trkpt><trkpt lat="44.0838283" lon="8.1971267"><ele>39.0</ele><time>2026-04-03T14:50:55.916Z</time></trkpt><trkpt lat="44.0839" lon="8.1971867"><ele>39.0</ele><time>2026-04-03T14:50:56.915Z</time></trkpt><trkpt lat="44.08398" lon="8.19723"><ele>39.0</ele><time>2026-04-03T14:50:57.916Z</time></trkpt><trkpt lat="44.0840617" lon="8.1972567"><ele>39.0</ele><time>2026-04-03T14:50:58.916Z</time></trkpt><trkpt lat="44.0841467" lon="8.19729"><ele>39.2</ele><time>2026-04-03T14:50:59.916Z</time></trkpt><trkpt lat="44.0842433" lon="8.19732"><ele>39.4</ele><time>2026-04-03T14:51:00.916Z</time></trkpt><trkpt lat="44.0843433" lon="8.1973417"><ele>39.6</ele><time>2026-04-03T14:51:01.916Z</time></trkpt><trkpt lat="44.0844433" lon="8.1973567"><ele>39.8</ele><time>2026-04-03T14:51:02.916Z</time></trkpt><trkpt lat="44.0845383" lon="8.1973783"><ele>40.0</ele><time>2026-04-03T14:51:03.916Z</time></trkpt><trkpt lat="44.084635" lon="8.1974"><ele>40.0</ele><time>2026-04-03T14:51:04.915Z</time></trkpt><trkpt lat="44.0847333" lon="8.1974217"><ele>40.0</ele><time>2026-04-03T14:51:05.916Z</time></trkpt><trkpt lat="44.0848283" lon="8.1974383"><ele>40.0</ele><time>2026-04-03T14:51:06.916Z</time></trkpt><trkpt lat="44.0849267" lon="8.19745"><ele>40.0</ele><time>2026-04-03T14:51:07.916Z</time></trkpt><trkpt lat="44.08502" lon="8.1974833"><ele>40.0</ele><time>2026-04-03T14:51:08.916Z</time></trkpt><trkpt lat="44.0851083" lon="8.1975217"><ele>41.6</ele><time>2026-04-03T14:51:09.916Z</time></trkpt><trkpt lat="44.0851983" lon="8.197575"><ele>43.2</ele><time>2026-04-03T14:51:10.916Z</time></trkpt><trkpt lat="44.0852917" lon="8.197615"><ele>44.8</ele><time>2026-04-03T14:51:11.915Z</time></trkpt><trkpt lat="44.0853783" lon="8.1976617"><ele>46.4</ele><time>2026-04-03T14:51:12.915Z</time></trkpt><trkpt lat="44.0854783" lon="8.1977083"><ele>48.0</ele><time>2026-04-03T14:51:13.916Z</time></trkpt><trkpt lat="44.08557" lon="8.1977333"><ele>47.99999999999999</ele><time>2026-04-03T14:51:14.916Z</time></trkpt><trkpt lat="44.0856517" lon="8.19775"><ele>48.0</ele><time>2026-04-03T14:51:15.916Z</time></trkpt><trkpt lat="44.0857183" lon="8.197745"><ele>48.0</ele><time>2026-04-03T14:51:16.916Z</time></trkpt><trkpt lat="44.0857867" lon="8.1977183"><ele>48.0</ele><time>2026-04-03T14:51:17.915Z</time></trkpt><trkpt lat="44.0858467" lon="8.1976767"><ele>48.0</ele><time>2026-04-03T14:51:18.916Z</time></trkpt><trkpt lat="44.0859083" lon="8.197645"><ele>47.99999999999999</ele><time>2026-04-03T14:51:19.916Z</time></trkpt><trkpt lat="44.0860017" lon="8.197615"><ele>48.0</ele><time>2026-04-03T14:51:20.916Z</time></trkpt><trkpt lat="44.0860833" lon="8.1975667"><ele>48.833333333333336</ele><time>2026-04-03T14:51:21.916Z</time></trkpt><trkpt lat="44.086145" lon="8.19753"><ele>49.66666666666667</ele><time>2026-04-03T14:51:22.916Z</time></trkpt><trkpt lat="44.0862067" lon="8.197495"><ele>50.5</ele><time>2026-04-03T14:51:23.915Z</time></trkpt><trkpt lat="44.0863233" lon="8.19753"><ele>51.333333333333336</ele><time>2026-04-03T14:51:25.916Z</time></trkpt><trkpt lat="44.0863483" lon="8.1976617"><ele>52.16666666666667</ele><time>2026-04-03T14:51:27.916Z</time></trkpt><trkpt lat="44.0863217" lon="8.1977417"><ele>53.0</ele><time>2026-04-03T14:51:28.915Z</time></trkpt><trkpt lat="44.086285" lon="8.19784"><ele>53.0</ele><time>2026-04-03T14:51:29.916Z</time></trkpt><trkpt lat="44.086255" lon="8.1979517"><ele>53.0</ele><time>2026-04-03T14:51:30.916Z</time></trkpt><trkpt lat="44.086235" lon="8.1980833"><ele>53.0</ele><time>2026-04-03T14:51:31.916Z</time></trkpt><trkpt lat="44.0862283" lon="8.1982017"><ele>53.0</ele><time>2026-04-03T14:51:32.915Z</time></trkpt><trkpt lat="44.0862433" lon="8.19833"><ele>53.0</ele><time>2026-04-03T14:51:33.916Z</time></trkpt><trkpt lat="44.086255" lon="8.1984733"><ele>52.599999999999994</ele><time>2026-04-03T14:51:34.916Z</time></trkpt><trkpt lat="44.0862533" lon="8.1986117"><ele>52.199999999999996</ele><time>2026-04-03T14:51:35.916Z</time></trkpt><trkpt lat="44.0862533" lon="8.198755"><ele>51.8</ele><time>2026-04-03T14:51:36.916Z</time></trkpt><trkpt lat="44.0862433" lon="8.198885"><ele>51.4</ele><time>2026-04-03T14:51:37.916Z</time></trkpt><trkpt lat="44.086225" lon="8.19902"><ele>51.0</ele><time>2026-04-03T14:51:38.916Z</time></trkpt><trkpt lat="44.08623" lon="8.19914"><ele>51.0</ele><time>2026-04-03T14:51:39.916Z</time></trkpt><trkpt lat="44.0862283" lon="8.19923"><ele>51.0</ele><time>2026-04-03T14:51:40.915Z</time></trkpt><trkpt lat="44.0862217" lon="8.199375"><ele>51.0</ele><time>2026-04-03T14:51:42.916Z</time></trkpt><trkpt lat="44.0862567" lon="8.1994883"><ele>51.0</ele><time>2026-04-03T14:51:44.916Z</time></trkpt><trkpt lat="44.0863217" lon="8.1996033"><ele>51.0</ele><time>2026-04-03T14:51:46.915Z</time></trkpt><trkpt lat="44.08637" lon="8.1996717"><ele>51.0</ele><time>2026-04-03T14:51:47.916Z</time></trkpt><trkpt lat="44.0864217" lon="8.199755"><ele>51.166666666666664</ele><time>2026-04-03T14:51:48.916Z</time></trkpt><trkpt lat="44.0864533" lon="8.1998533"><ele>51.33333333333333</ele><time>2026-04-03T14:51:49.916Z</time></trkpt><trkpt lat="44.0864817" lon="8.1999583"><ele>51.5</ele><time>2026-04-03T14:51:50.916Z</time></trkpt><trkpt lat="44.0865133" lon="8.2000633"><ele>51.666666666666664</ele><time>2026-04-03T14:51:51.916Z</time></trkpt><trkpt lat="44.0865517" lon="8.2001567"><ele>51.83333333333333</ele><time>2026-04-03T14:51:52.916Z</time></trkpt><trkpt lat="44.0865883" lon="8.2002367"><ele>52.0</ele><time>2026-04-03T14:51:53.916Z</time></trkpt><trkpt lat="44.0866483" lon="8.200295"><ele>52.49999999999999</ele><time>2026-04-03T14:51:54.916Z</time></trkpt><trkpt lat="44.0867383" lon="8.20034"><ele>53.0</ele><time>2026-04-03T14:51:55.916Z</time></trkpt><trkpt lat="44.0868283" lon="8.2003817"><ele>53.5</ele><time>2026-04-03T14:51:56.915Z</time></trkpt><trkpt lat="44.0868983" lon="8.2004017"><ele>54.0</ele><time>2026-04-03T14:51:57.916Z</time></trkpt><trkpt lat="44.0869583" lon="8.2004383"><ele>54.49999999999999</ele><time>2026-04-03T14:51:58.916Z</time></trkpt><trkpt lat="44.0870267" lon="8.20056"><ele>55.0</ele><time>2026-04-03T14:52:00.916Z</time></trkpt><trkpt lat="44.0869767" lon="8.2007267"><ele>54.99999999999999</ele><time>2026-04-03T14:52:02.916Z</time></trkpt><trkpt lat="44.0869533" lon="8.20081"><ele>55.0</ele><time>2026-04-03T14:52:03.916Z</time></trkpt><trkpt lat="44.0869667" lon="8.2009717"><ele>55.0</ele><time>2026-04-03T14:52:05.916Z</time></trkpt><trkpt lat="44.087005" lon="8.20106"><ele>55.0</ele><time>2026-04-03T14:52:06.916Z</time></trkpt><trkpt lat="44.08706" lon="8.201145"><ele>54.99999999999999</ele><time>2026-04-03T14:52:07.915Z</time></trkpt><trkpt lat="44.087125" lon="8.20122"><ele>55.0</ele><time>2026-04-03T14:52:08.916Z</time></trkpt><trkpt lat="44.0871933" lon="8.2013017"><ele>54.99999999999999</ele><time>2026-04-03T14:52:09.915Z</time></trkpt><trkpt lat="44.08725" lon="8.2013667"><ele>55.0</ele><time>2026-04-03T14:52:10.915Z</time></trkpt><trkpt lat="44.0872933" lon="8.2014367"><ele>55.0</ele><time>2026-04-03T14:52:11.915Z</time></trkpt><trkpt lat="44.0873133" lon="8.20155"><ele>55.0</ele><time>2026-04-03T14:52:13.916Z</time></trkpt><trkpt lat="44.0872267" lon="8.2016317"><ele>54.99999999999999</ele><time>2026-04-03T14:52:15.915Z</time></trkpt><trkpt lat="44.0871483" lon="8.20169"><ele>55.0</ele><time>2026-04-03T14:52:16.916Z</time></trkpt><trkpt lat="44.0870617" lon="8.201765"><ele>54.8</ele><time>2026-04-03T14:52:17.916Z</time></trkpt><trkpt lat="44.0869733" lon="8.2018483"><ele>54.6</ele><time>2026-04-03T14:52:18.916Z</time></trkpt><trkpt lat="44.08691" lon="8.201945"><ele>54.400000000000006</ele><time>2026-04-03T14:52:19.916Z</time></trkpt><trkpt lat="44.0868533" lon="8.2020483"><ele>54.2</ele><time>2026-04-03T14:52:20.916Z</time></trkpt><trkpt lat="44.086805" lon="8.2021467"><ele>54.0</ele><time>2026-04-03T14:52:21.916Z</time></trkpt><trkpt lat="44.086765" lon="8.2022367"><ele>54.6</ele><time>2026-04-03T14:52:22.916Z</time></trkpt><trkpt lat="44.0867383" lon="8.2023367"><ele>55.2</ele><time>2026-04-03T14:52:23.915Z</time></trkpt><trkpt lat="44.0866633" lon="8.202495"><ele>55.800000000000004</ele><time>2026-04-03T14:52:25.915Z</time></trkpt><trkpt lat="44.0866" lon="8.202585"><ele>56.400000000000006</ele><time>2026-04-03T14:52:26.916Z</time></trkpt><trkpt lat="44.0865367" lon="8.2026733"><ele>57.0</ele><time>2026-04-03T14:52:27.916Z</time></trkpt><trkpt lat="44.0864733" lon="8.2027883"><ele>57.0</ele><time>2026-04-03T14:52:28.915Z</time></trkpt><trkpt lat="44.08644" lon="8.2029267"><ele>57.0</ele><time>2026-04-03T14:52:29.916Z</time></trkpt><trkpt lat="44.0864417" lon="8.2030733"><ele>57.0</ele><time>2026-04-03T14:52:30.915Z</time></trkpt><trkpt lat="44.0864483" lon="8.2032117"><ele>57.0</ele><time>2026-04-03T14:52:31.915Z</time></trkpt><trkpt lat="44.08645" lon="8.2033417"><ele>57.0</ele><time>2026-04-03T14:52:32.916Z</time></trkpt><trkpt lat="44.0864267" lon="8.2034467"><ele>56.8</ele><time>2026-04-03T14:52:33.915Z</time></trkpt><trkpt lat="44.0863967" lon="8.2035517"><ele>56.6</ele><time>2026-04-03T14:52:34.916Z</time></trkpt><trkpt lat="44.0863717" lon="8.2036517"><ele>56.39999999999999</ele><time>2026-04-03T14:52:35.916Z</time></trkpt><trkpt lat="44.0863217" lon="8.2037483"><ele>56.199999999999996</ele><time>2026-04-03T14:52:36.916Z</time></trkpt><trkpt lat="44.0862333" lon="8.203835"><ele>56.0</ele><time>2026-04-03T14:52:37.916Z</time></trkpt><trkpt lat="44.0861433" lon="8.203935"><ele>55.8</ele><time>2026-04-03T14:52:38.916Z</time></trkpt><trkpt lat="44.086075" lon="8.20404"><ele>55.599999999999994</ele><time>2026-04-03T14:52:39.916Z</time></trkpt><trkpt lat="44.0860133" lon="8.2041383"><ele>55.4</ele><time>2026-04-03T14:52:40.915Z</time></trkpt><trkpt lat="44.08595" lon="8.204235"><ele>55.2</ele><time>2026-04-03T14:52:41.915Z</time></trkpt><trkpt lat="44.0858833" lon="8.2043417"><ele>55.0</ele><time>2026-04-03T14:52:42.916Z</time></trkpt><trkpt lat="44.0858233" lon="8.20445"><ele>54.4</ele><time>2026-04-03T14:52:43.916Z</time></trkpt><trkpt lat="44.0857617" lon="8.204545"><ele>53.8</ele><time>2026-04-03T14:52:44.916Z</time></trkpt><trkpt lat="44.0856883" lon="8.2046333"><ele>53.2</ele><time>2026-04-03T14:52:45.916Z</time></trkpt><trkpt lat="44.0856117" lon="8.2047167"><ele>52.6</ele><time>2026-04-03T14:52:46.915Z</time></trkpt><trkpt lat="44.08553" lon="8.204795"><ele>52.0</ele><time>2026-04-03T14:52:47.915Z</time></trkpt><trkpt lat="44.08544" lon="8.204875"><ele>51.8</ele><time>2026-04-03T14:52:48.915Z</time></trkpt><trkpt lat="44.0853433" lon="8.2049517"><ele>51.6</ele><time>2026-04-03T14:52:49.915Z</time></trkpt><trkpt lat="44.0852417" lon="8.20503"><ele>51.4</ele><time>2026-04-03T14:52:50.915Z</time></trkpt><trkpt lat="44.0851417" lon="8.2050967"><ele>51.199999999999996</ele><time>2026-04-03T14:52:51.915Z</time></trkpt><trkpt lat="44.0850517" lon="8.2051567"><ele>51.0</ele><time>2026-04-03T14:52:52.916Z</time></trkpt><trkpt lat="44.08496" lon="8.2052067"><ele>50.4</ele><time>2026-04-03T14:52:53.916Z</time></trkpt><trkpt lat="44.08488" lon="8.2052567"><ele>49.8</ele><time>2026-04-03T14:52:54.916Z</time></trkpt><trkpt lat="44.0848017" lon="8.2053083"><ele>49.199999999999996</ele><time>2026-04-03T14:52:55.916Z</time></trkpt><trkpt lat="44.08472" lon="8.2053567"><ele>48.599999999999994</ele><time>2026-04-03T14:52:56.916Z</time></trkpt><trkpt lat="44.0846333" lon="8.2054133"><ele>48.0</ele><time>2026-04-03T14:52:57.916Z</time></trkpt><trkpt lat="44.0845533" lon="8.2054733"><ele>48.0</ele><time>2026-04-03T14:52:58.916Z</time></trkpt><trkpt lat="44.0844733" lon="8.2055083"><ele>48.0</ele><time>2026-04-03T14:52:59.915Z</time></trkpt><trkpt lat="44.0843933" lon="8.2055233"><ele>48.0</ele><time>2026-04-03T14:53:00.916Z</time></trkpt><trkpt lat="44.0843133" lon="8.205525"><ele>48.0</ele><time>2026-04-03T14:53:01.916Z</time></trkpt><trkpt lat="44.0842217" lon="8.2055167"><ele>48.0</ele><time>2026-04-03T14:53:02.916Z</time></trkpt><trkpt lat="44.0841167" lon="8.2055"><ele>48.0</ele><time>2026-04-03T14:53:03.916Z</time></trkpt><trkpt lat="44.0840117" lon="8.20549"><ele>46.4</ele><time>2026-04-03T14:53:04.916Z</time></trkpt><trkpt lat="44.0839133" lon="8.2054817"><ele>44.8</ele><time>2026-04-03T14:53:05.915Z</time></trkpt><trkpt lat="44.08381" lon="8.2054783"><ele>43.2</ele><time>2026-04-03T14:53:06.916Z</time></trkpt><trkpt lat="44.0837033" lon="8.2054767"><ele>41.6</ele><time>2026-04-03T14:53:07.916Z</time></trkpt><trkpt lat="44.0836017" lon="8.2054733"><ele>40.0</ele><time>2026-04-03T14:53:08.916Z</time></trkpt><trkpt lat="44.0834933" lon="8.205445"><ele>40.0</ele><time>2026-04-03T14:53:09.916Z</time></trkpt><trkpt lat="44.0833883" lon="8.2054033"><ele>40.0</ele><time>2026-04-03T14:53:10.916Z</time></trkpt><trkpt lat="44.0832817" lon="8.2053633"><ele>40.0</ele><time>2026-04-03T14:53:11.916Z</time></trkpt><trkpt lat="44.0831767" lon="8.2053167"><ele>40.0</ele><time>2026-04-03T14:53:12.915Z</time></trkpt><trkpt lat="44.0830867" lon="8.2052483"><ele>40.0</ele><time>2026-04-03T14:53:13.916Z</time></trkpt><trkpt lat="44.083005" lon="8.205165"><ele>39.2</ele><time>2026-04-03T14:53:14.916Z</time></trkpt><trkpt lat="44.0829267" lon="8.20508"><ele>38.4</ele><time>2026-04-03T14:53:15.916Z</time></trkpt><trkpt lat="44.0828483" lon="8.2049883"><ele>37.6</ele><time>2026-04-03T14:53:16.916Z</time></trkpt><trkpt lat="44.08277" lon="8.2048917"><ele>36.8</ele><time>2026-04-03T14:53:17.915Z</time></trkpt><trkpt lat="44.0826917" lon="8.2048033"><ele>36.0</ele><time>2026-04-03T14:53:18.915Z</time></trkpt><trkpt lat="44.0826067" lon="8.2047333"><ele>36.0</ele><time>2026-04-03T14:53:19.916Z</time></trkpt><trkpt lat="44.082505" lon="8.2047"><ele>36.0</ele><time>2026-04-03T14:53:20.916Z</time></trkpt><trkpt lat="44.08239" lon="8.204685"><ele>36.0</ele><time>2026-04-03T14:53:21.916Z</time></trkpt><trkpt lat="44.0822683" lon="8.2047067"><ele>36.0</ele><time>2026-04-03T14:53:22.915Z</time></trkpt><trkpt lat="44.082145" lon="8.2047483"><ele>34.75</ele><time>2026-04-03T14:53:23.916Z</time></trkpt><trkpt lat="44.0820183" lon="8.2047733"><ele>33.5</ele><time>2026-04-03T14:53:24.915Z</time></trkpt><trkpt lat="44.0818817" lon="8.20477"><ele>32.25</ele><time>2026-04-03T14:53:25.915Z</time></trkpt><trkpt lat="44.08175" lon="8.2047417"><ele>31.0</ele><time>2026-04-03T14:53:26.916Z</time></trkpt><trkpt lat="44.08163" lon="8.20471"><ele>30.0</ele><time>2026-04-03T14:53:27.915Z</time></trkpt><trkpt lat="44.0815133" lon="8.2046833"><ele>29.0</ele><time>2026-04-03T14:53:28.915Z</time></trkpt><trkpt lat="44.0813983" lon="8.2046717"><ele>28.0</ele><time>2026-04-03T14:53:29.916Z</time></trkpt><trkpt lat="44.081285" lon="8.2047083"><ele>27.0</ele><time>2026-04-03T14:53:30.915Z</time></trkpt><trkpt lat="44.0811817" lon="8.2047883"><ele>27.25</ele><time>2026-04-03T14:53:31.915Z</time></trkpt><trkpt lat="44.0810883" lon="8.2048817"><ele>27.5</ele><time>2026-04-03T14:53:32.915Z</time></trkpt><trkpt lat="44.080995" lon="8.2049783"><ele>27.75</ele><time>2026-04-03T14:53:33.916Z</time></trkpt><trkpt lat="44.080895" lon="8.205075"><ele>28.0</ele><time>2026-04-03T14:53:34.916Z</time></trkpt><trkpt lat="44.080805" lon="8.2051767"><ele>26.25</ele><time>2026-04-03T14:53:35.916Z</time></trkpt><trkpt lat="44.080705" lon="8.20527"><ele>24.5</ele><time>2026-04-03T14:53:36.916Z</time></trkpt><trkpt lat="44.0806017" lon="8.2053667"><ele>22.75</ele><time>2026-04-03T14:53:37.916Z</time></trkpt><trkpt lat="44.0805033" lon="8.2054817"><ele>21.0</ele><time>2026-04-03T14:53:38.916Z</time></trkpt><trkpt lat="44.0803983" lon="8.20558"><ele>21.75</ele><time>2026-04-03T14:53:39.916Z</time></trkpt><trkpt lat="44.0803033" lon="8.2056967"><ele>22.5</ele><time>2026-04-03T14:53:40.916Z</time></trkpt><trkpt lat="44.0802033" lon="8.2058167"><ele>23.25</ele><time>2026-04-03T14:53:41.915Z</time></trkpt><trkpt lat="44.08011" lon="8.2059367"><ele>24.0</ele><time>2026-04-03T14:53:42.916Z</time></trkpt><trkpt lat="44.08002" lon="8.2060567"><ele>22.5</ele><time>2026-04-03T14:53:43.916Z</time></trkpt><trkpt lat="44.0799317" lon="8.2061733"><ele>21.0</ele><time>2026-04-03T14:53:44.916Z</time></trkpt><trkpt lat="44.07984" lon="8.2062867"><ele>19.5</ele><time>2026-04-03T14:53:45.916Z</time></trkpt><trkpt lat="44.079755" lon="8.2063983"><ele>18.0</ele><time>2026-04-03T14:53:46.916Z</time></trkpt><trkpt lat="44.0796733" lon="8.206515"><ele>18.0</ele><time>2026-04-03T14:53:47.915Z</time></trkpt><trkpt lat="44.0795983" lon="8.2066267"><ele>18.0</ele><time>2026-04-03T14:53:48.916Z</time></trkpt><trkpt lat="44.0795217" lon="8.206735"><ele>18.0</ele><time>2026-04-03T14:53:49.916Z</time></trkpt><trkpt lat="44.0794633" lon="8.2068233"><ele>18.0</ele><time>2026-04-03T14:53:50.915Z</time></trkpt><trkpt lat="44.07939" lon="8.20691"><ele>18.0</ele><time>2026-04-03T14:53:51.916Z</time></trkpt><trkpt lat="44.0793017" lon="8.2069883"><ele>18.0</ele><time>2026-04-03T14:53:52.916Z</time></trkpt><trkpt lat="44.079205" lon="8.2070567"><ele>18.0</ele><time>2026-04-03T14:53:53.916Z</time></trkpt><trkpt lat="44.0790983" lon="8.2071183"><ele>18.0</ele><time>2026-04-03T14:53:54.915Z</time></trkpt><trkpt lat="44.07899" lon="8.207185"><ele>18.0</ele><time>2026-04-03T14:53:55.916Z</time></trkpt><trkpt lat="44.0788883" lon="8.2072517"><ele>17.25</ele><time>2026-04-03T14:53:56.915Z</time></trkpt><trkpt lat="44.07878" lon="8.20731"><ele>16.5</ele><time>2026-04-03T14:53:57.916Z</time></trkpt><trkpt lat="44.0786617" lon="8.2073617"><ele>15.75</ele><time>2026-04-03T14:53:58.916Z</time></trkpt><trkpt lat="44.0785517" lon="8.207405"><ele>15.0</ele><time>2026-04-03T14:53:59.916Z</time></trkpt><trkpt lat="44.0784533" lon="8.2074683"><ele>15.0</ele><time>2026-04-03T14:54:00.915Z</time></trkpt><trkpt lat="44.078345" lon="8.2075417"><ele>15.0</ele><time>2026-04-03T14:54:01.916Z</time></trkpt><trkpt lat="44.078245" lon="8.2076167"><ele>15.0</ele><time>2026-04-03T14:54:02.916Z</time></trkpt><trkpt lat="44.0781483" lon="8.207685"><ele>15.0</ele><time>2026-04-03T14:54:03.916Z</time></trkpt><trkpt lat="44.0780633" lon="8.2077533"><ele>15.0</ele><time>2026-04-03T14:54:04.916Z</time></trkpt><trkpt lat="44.0779717" lon="8.2078133"><ele>14.2</ele><time>2026-04-03T14:54:05.916Z</time></trkpt><trkpt lat="44.0778783" lon="8.207875"><ele>13.4</ele><time>2026-04-03T14:54:06.916Z</time></trkpt><trkpt lat="44.0777883" lon="8.2079283"><ele>12.600000000000001</ele><time>2026-04-03T14:54:07.916Z</time></trkpt><trkpt lat="44.07771" lon="8.2079867"><ele>11.8</ele><time>2026-04-03T14:54:08.916Z</time></trkpt><trkpt lat="44.077625" lon="8.2080317"><ele>11.0</ele><time>2026-04-03T14:54:09.916Z</time></trkpt><trkpt lat="44.07754" lon="8.2080933"><ele>10.600000000000001</ele><time>2026-04-03T14:54:10.916Z</time></trkpt><trkpt lat="44.0774583" lon="8.2081717"><ele>10.200000000000001</ele><time>2026-04-03T14:54:11.916Z</time></trkpt><trkpt lat="44.0773917" lon="8.20827"><ele>9.8</ele><time>2026-04-03T14:54:12.916Z</time></trkpt><trkpt lat="44.0773267" lon="8.208365"><ele>9.4</ele><time>2026-04-03T14:54:13.915Z</time></trkpt><trkpt lat="44.0772667" lon="8.2084633"><ele>9.0</ele><time>2026-04-03T14:54:14.916Z</time></trkpt><trkpt lat="44.0772083" lon="8.2085483"><ele>9.0</ele><time>2026-04-03T14:54:15.916Z</time></trkpt><trkpt lat="44.0771517" lon="8.20862"><ele>9.0</ele><time>2026-04-03T14:54:16.916Z</time></trkpt><trkpt lat="44.0771017" lon="8.2086783"><ele>9.0</ele><time>2026-04-03T14:54:17.916Z</time></trkpt><trkpt lat="44.0770283" lon="8.208755"><ele>9.0</ele><time>2026-04-03T14:54:19.916Z</time></trkpt><trkpt lat="44.0769733" lon="8.20882"><ele>9.0</ele><time>2026-04-03T14:54:21.915Z</time></trkpt><trkpt lat="44.0768783" lon="8.208905"><ele>9.0</ele><time>2026-04-03T14:54:26.916Z</time></trkpt><trkpt lat="44.0768383" lon="8.209"><ele>9.0</ele><time>2026-04-03T14:54:27.916Z</time></trkpt><trkpt lat="44.0768217" lon="8.2091217"><ele>9.0</ele><time>2026-04-03T14:54:28.916Z</time></trkpt><trkpt lat="44.07683" lon="8.20925"><ele>9.0</ele><time>2026-04-03T14:54:29.916Z</time></trkpt><trkpt lat="44.0768483" lon="8.2093717"><ele>9.0</ele><time>2026-04-03T14:54:30.916Z</time></trkpt><trkpt lat="44.07686" lon="8.2094833"><ele>9.0</ele><time>2026-04-03T14:54:31.916Z</time></trkpt><trkpt lat="44.076845" lon="8.20957"><ele>9.0</ele><time>2026-04-03T14:54:32.915Z</time></trkpt><trkpt lat="44.076735" lon="8.2096733"><ele>9.0</ele><time>2026-04-03T14:54:34.916Z</time></trkpt><trkpt lat="44.0766367" lon="8.20972"><ele>9.0</ele><time>2026-04-03T14:54:35.916Z</time></trkpt><trkpt lat="44.076535" lon="8.2097633"><ele>9.0</ele><time>2026-04-03T14:54:36.915Z</time></trkpt><trkpt lat="44.0764283" lon="8.20981"><ele>9.0</ele><time>2026-04-03T14:54:37.916Z</time></trkpt><trkpt lat="44.0763267" lon="8.2098483"><ele>9.0</ele><time>2026-04-03T14:54:38.915Z</time></trkpt><trkpt lat="44.07621" lon="8.2098967"><ele>8.5</ele><time>2026-04-03T14:54:39.916Z</time></trkpt><trkpt lat="44.0760867" lon="8.20991"><ele>8.0</ele><time>2026-04-03T14:54:40.916Z</time></trkpt><trkpt lat="44.0759567" lon="8.209935"><ele>7.5</ele><time>2026-04-03T14:54:41.915Z</time></trkpt><trkpt lat="44.0758283" lon="8.209955"><ele>7.0</ele><time>2026-04-03T14:54:42.915Z</time></trkpt><trkpt lat="44.0757083" lon="8.20996"><ele>6.5</ele><time>2026-04-03T14:54:43.915Z</time></trkpt><trkpt lat="44.0755917" lon="8.2099667"><ele>6.0</ele><time>2026-04-03T14:54:44.916Z</time></trkpt><trkpt lat="44.0754817" lon="8.2099683"><ele>5.5</ele><time>2026-04-03T14:54:45.915Z</time></trkpt><trkpt lat="44.07537" lon="8.2099717"><ele>5.0</ele><time>2026-04-03T14:54:46.916Z</time></trkpt><trkpt lat="44.0752567" lon="8.2099717"><ele>5.0</ele><time>2026-04-03T14:54:47.915Z</time></trkpt><trkpt lat="44.0751483" lon="8.2099683"><ele>5.0</ele><time>2026-04-03T14:54:48.916Z</time></trkpt><trkpt lat="44.0750383" lon="8.20998"><ele>5.0</ele><time>2026-04-03T14:54:49.916Z</time></trkpt><trkpt lat="44.074925" lon="8.2100033"><ele>5.0</ele><time>2026-04-03T14:54:50.916Z</time></trkpt><trkpt lat="44.0748133" lon="8.2100183"><ele>5.0</ele><time>2026-04-03T14:54:51.916Z</time></trkpt><trkpt lat="44.0746917" lon="8.2100367"><ele>5.2</ele><time>2026-04-03T14:54:52.915Z</time></trkpt><trkpt lat="44.0745817" lon="8.2100533"><ele>5.4</ele><time>2026-04-03T14:54:53.916Z</time></trkpt><trkpt lat="44.0744733" lon="8.2100767"><ele>5.6</ele><time>2026-04-03T14:54:54.916Z</time></trkpt><trkpt lat="44.0743817" lon="8.210095"><ele>5.8</ele><time>2026-04-03T14:54:55.915Z</time></trkpt><trkpt lat="44.074275" lon="8.2100967"><ele>6.0</ele><time>2026-04-03T14:54:56.915Z</time></trkpt><trkpt lat="44.0741717" lon="8.21006"><ele>5.8</ele><time>2026-04-03T14:54:57.916Z</time></trkpt><trkpt lat="44.0740683" lon="8.210005"><ele>5.6</ele><time>2026-04-03T14:54:58.916Z</time></trkpt><trkpt lat="44.07398" lon="8.2099333"><ele>5.4</ele><time>2026-04-03T14:54:59.915Z</time></trkpt><trkpt lat="44.0738867" lon="8.209855"><ele>5.2</ele><time>2026-04-03T14:55:00.916Z</time></trkpt><trkpt lat="44.0738" lon="8.209785"><ele>5.0</ele><time>2026-04-03T14:55:01.916Z</time></trkpt><trkpt lat="44.073715" lon="8.20972"><ele>5.0</ele><time>2026-04-03T14:55:02.916Z</time></trkpt><trkpt lat="44.0736383" lon="8.2096517"><ele>5.0</ele><time>2026-04-03T14:55:03.915Z</time></trkpt><trkpt lat="44.07356" lon="8.20959"><ele>5.0</ele><time>2026-04-03T14:55:04.916Z</time></trkpt><trkpt lat="44.0734867" lon="8.2095317"><ele>5.0</ele><time>2026-04-03T14:55:05.916Z</time></trkpt><trkpt lat="44.0734067" lon="8.20947"><ele>5.0</ele><time>2026-04-03T14:55:06.916Z</time></trkpt><trkpt lat="44.0733233" lon="8.2094"><ele>4.8</ele><time>2026-04-03T14:55:07.916Z</time></trkpt><trkpt lat="44.0732283" lon="8.2093333"><ele>4.6</ele><time>2026-04-03T14:55:08.916Z</time></trkpt><trkpt lat="44.073145" lon="8.2092783"><ele>4.4</ele><time>2026-04-03T14:55:09.916Z</time></trkpt><trkpt lat="44.0730633" lon="8.209245"><ele>4.2</ele><time>2026-04-03T14:55:10.916Z</time></trkpt><trkpt lat="44.072975" lon="8.20922"><ele>4.0</ele><time>2026-04-03T14:55:11.916Z</time></trkpt><trkpt lat="44.07287" lon="8.2091967"><ele>4.0</ele><time>2026-04-03T14:55:12.915Z</time></trkpt><trkpt lat="44.0727567" lon="8.2091583"><ele>4.0</ele><time>2026-04-03T14:55:13.915Z</time></trkpt><trkpt lat="44.0726433" lon="8.2091167"><ele>4.0</ele><time>2026-04-03T14:55:14.916Z</time></trkpt><trkpt lat="44.0725333" lon="8.2090783"><ele>4.0</ele><time>2026-04-03T14:55:15.916Z</time></trkpt><trkpt lat="44.072425" lon="8.2090433"><ele>4.0</ele><time>2026-04-03T14:55:16.915Z</time></trkpt><trkpt lat="44.07231" lon="8.2090017"><ele>4.0</ele><time>2026-04-03T14:55:17.916Z</time></trkpt><trkpt lat="44.0722" lon="8.208945"><ele>4.0</ele><time>2026-04-03T14:55:18.916Z</time></trkpt><trkpt lat="44.0720817" lon="8.2089033"><ele>4.0</ele><time>2026-04-03T14:55:19.915Z</time></trkpt><trkpt lat="44.0719633" lon="8.2088633"><ele>4.5</ele><time>2026-04-03T14:55:20.916Z</time></trkpt><trkpt lat="44.0718433" lon="8.2088133"><ele>5.0</ele><time>2026-04-03T14:55:21.916Z</time></trkpt><trkpt lat="44.0717283" lon="8.2087633"><ele>5.5</ele><time>2026-04-03T14:55:22.916Z</time></trkpt><trkpt lat="44.07162" lon="8.208715"><ele>6.0</ele><time>2026-04-03T14:55:23.916Z</time></trkpt><trkpt lat="44.071505" lon="8.2086683"><ele>6.0</ele><time>2026-04-03T14:55:24.916Z</time></trkpt><trkpt lat="44.0713933" lon="8.208615"><ele>6.0</ele><time>2026-04-03T14:55:25.916Z</time></trkpt><trkpt lat="44.071275" lon="8.2085767"><ele>6.0</ele><time>2026-04-03T14:55:26.915Z</time></trkpt><trkpt lat="44.0711567" lon="8.2085317"><ele>6.0</ele><time>2026-04-03T14:55:27.915Z</time></trkpt><trkpt lat="44.0710467" lon="8.2084883"><ele>6.0</ele><time>2026-04-03T14:55:28.915Z</time></trkpt><trkpt lat="44.070935" lon="8.20845"><ele>6.0</ele><time>2026-04-03T14:55:29.916Z</time></trkpt><trkpt lat="44.07082" lon="8.2084217"><ele>6.0</ele><time>2026-04-03T14:55:30.915Z</time></trkpt><trkpt lat="44.070695" lon="8.2083983"><ele>6.0</ele><time>2026-04-03T14:55:31.915Z</time></trkpt><trkpt lat="44.07058" lon="8.2083833"><ele>6.0</ele><time>2026-04-03T14:55:32.916Z</time></trkpt><trkpt lat="44.0704783" lon="8.2083533"><ele>6.0</ele><time>2026-04-03T14:55:33.915Z</time></trkpt><trkpt lat="44.070385" lon="8.2083267"><ele>6.0</ele><time>2026-04-03T14:55:34.916Z</time></trkpt><trkpt lat="44.0703" lon="8.2083083"><ele>6.0</ele><time>2026-04-03T14:55:35.916Z</time></trkpt><trkpt lat="44.0702167" lon="8.2082817"><ele>6.0</ele><time>2026-04-03T14:55:36.916Z</time></trkpt><trkpt lat="44.070145" lon="8.2082633"><ele>6.0</ele><time>2026-04-03T14:55:37.915Z</time></trkpt><trkpt lat="44.0700817" lon="8.2082533"><ele>6.0</ele><time>2026-04-03T14:55:38.915Z</time></trkpt><trkpt lat="44.0699883" lon="8.208305"><ele>6.0</ele><time>2026-04-03T14:55:40.915Z</time></trkpt><trkpt lat="44.07001" lon="8.2084817"><ele>6.0</ele><time>2026-04-03T14:55:42.915Z</time></trkpt><trkpt lat="44.0700267" lon="8.2086033"><ele>6.0</ele><time>2026-04-03T14:55:43.916Z</time></trkpt><trkpt lat="44.0700383" lon="8.20874"><ele>6.0</ele><time>2026-04-03T14:55:44.916Z</time></trkpt><trkpt lat="44.0700517" lon="8.2088867"><ele>6.0</ele><time>2026-04-03T14:55:45.916Z</time></trkpt><trkpt lat="44.070065" lon="8.2090433"><ele>6.0</ele><time>2026-04-03T14:55:46.916Z</time></trkpt><trkpt lat="44.07008" lon="8.2091917"><ele>6.0</ele><time>2026-04-03T14:55:47.916Z</time></trkpt><trkpt lat="44.0700833" lon="8.2093283"><ele>6.0</ele><time>2026-04-03T14:55:48.916Z</time></trkpt><trkpt lat="44.070085" lon="8.2094583"><ele>6.0</ele><time>2026-04-03T14:55:49.916Z</time></trkpt><trkpt lat="44.0700833" lon="8.2095833"><ele>6.0</ele><time>2026-04-03T14:55:50.915Z</time></trkpt><trkpt lat="44.07009" lon="8.2097"><ele>6.0</ele><time>2026-04-03T14:55:51.916Z</time></trkpt><trkpt lat="44.0700883" lon="8.2098083"><ele>6.0</ele><time>2026-04-03T14:55:52.916Z</time></trkpt><trkpt lat="44.0700867" lon="8.2099167"><ele>6.0</ele><time>2026-04-03T14:55:53.916Z</time></trkpt><trkpt lat="44.07009" lon="8.2100167"><ele>6.0</ele><time>2026-04-03T14:55:54.916Z</time></trkpt><trkpt lat="44.0700867" lon="8.2101167"><ele>6.0</ele><time>2026-04-03T14:55:55.916Z</time></trkpt><trkpt lat="44.0700883" lon="8.2102117"><ele>6.0</ele><time>2026-04-03T14:55:56.915Z</time></trkpt><trkpt lat="44.070075" lon="8.2103767"><ele>6.0</ele><time>2026-04-03T14:55:58.915Z</time></trkpt><trkpt lat="44.0700467" lon="8.2105283"><ele>6.0</ele><time>2026-04-03T14:56:00.916Z</time></trkpt><trkpt lat="44.069975" lon="8.2108033"><ele>6.0</ele><time>2026-04-03T14:56:03.916Z</time></trkpt><trkpt lat="44.06994" lon="8.2108933"><ele>5.8</ele><time>2026-04-03T14:56:04.916Z</time></trkpt><trkpt lat="44.069905" lon="8.2109817"><ele>5.6</ele><time>2026-04-03T14:56:05.915Z</time></trkpt><trkpt lat="44.0698517" lon="8.2111283"><ele>5.4</ele><time>2026-04-03T14:56:07.916Z</time></trkpt><trkpt lat="44.06981" lon="8.211255"><ele>5.2</ele><time>2026-04-03T14:56:09.915Z</time></trkpt><trkpt lat="44.0697817" lon="8.2113783"><ele>5.0</ele><time>2026-04-03T14:56:11.916Z</time></trkpt><trkpt lat="44.0697317" lon="8.21151"><ele>4.75</ele><time>2026-04-03T14:56:13.915Z</time></trkpt><trkpt lat="44.0696733" lon="8.2116617"><ele>4.5</ele><time>2026-04-03T14:56:15.916Z</time></trkpt><trkpt lat="44.069615" lon="8.21181"><ele>4.25</ele><time>2026-04-03T14:56:17.916Z</time></trkpt><trkpt lat="44.0695633" lon="8.2119417"><ele>4.0</ele><time>2026-04-03T14:56:19.916Z</time></trkpt><trkpt lat="44.0695067" lon="8.2120683"><ele>4.0</ele><time>2026-04-03T14:56:21.916Z</time></trkpt><trkpt lat="44.069455" lon="8.2122033"><ele>4.0</ele><time>2026-04-03T14:56:23.916Z</time></trkpt><trkpt lat="44.0694067" lon="8.2123483"><ele>4.0</ele><time>2026-04-03T14:56:25.915Z</time></trkpt><trkpt lat="44.0693633" lon="8.2124983"><ele>4.0</ele><time>2026-04-03T14:56:27.915Z</time></trkpt><trkpt lat="44.0693367" lon="8.2125833"><ele>4.0</ele><time>2026-04-03T14:56:28.915Z</time></trkpt><trkpt lat="44.0693" lon="8.2126733"><ele>3.8000000000000003</ele><time>2026-04-03T14:56:29.916Z</time></trkpt><trkpt lat="44.0692617" lon="8.21276"><ele>3.6000000000000005</ele><time>2026-04-03T14:56:30.916Z</time></trkpt><trkpt lat="44.0691983" lon="8.2129067"><ele>3.4</ele><time>2026-04-03T14:56:32.916Z</time></trkpt><trkpt lat="44.0691383" lon="8.2130367"><ele>3.2</ele><time>2026-04-03T14:56:34.916Z</time></trkpt><trkpt lat="44.0690817" lon="8.2131767"><ele>3.0</ele><time>2026-04-03T14:56:36.916Z</time></trkpt><trkpt lat="44.0690617" lon="8.2133417"><ele>2.6</ele><time>2026-04-03T14:56:38.916Z</time></trkpt><trkpt lat="44.0690417" lon="8.213515"><ele>2.1999999999999997</ele><time>2026-04-03T14:56:40.916Z</time></trkpt><trkpt lat="44.0690017" lon="8.2136933"><ele>1.8</ele><time>2026-04-03T14:56:42.915Z</time></trkpt><trkpt lat="44.0689783" lon="8.21378"><ele>1.4</ele><time>2026-04-03T14:56:43.916Z</time></trkpt><trkpt lat="44.068955" lon="8.2138667"><ele>1.0</ele><time>2026-04-03T14:56:44.916Z</time></trkpt><trkpt lat="44.068935" lon="8.21396"><ele>1.1428571428571428</ele><time>2026-04-03T14:56:45.916Z</time></trkpt><trkpt lat="44.0689117" lon="8.2140517"><ele>1.2857142857142856</ele><time>2026-04-03T14:56:46.916Z</time></trkpt><trkpt lat="44.0688783" lon="8.2141467"><ele>1.4285714285714284</ele><time>2026-04-03T14:56:47.915Z</time></trkpt><trkpt lat="44.0688583" lon="8.2142417"><ele>1.5714285714285714</ele><time>2026-04-03T14:56:48.916Z</time></trkpt><trkpt lat="44.0688333" lon="8.2143367"><ele>1.714285714285714</ele><time>2026-04-03T14:56:49.915Z</time></trkpt><trkpt lat="44.0688" lon="8.2144333"><ele>1.857142857142857</ele><time>2026-04-03T14:56:50.915Z</time></trkpt><trkpt lat="44.0687683" lon="8.2145233"><ele>2.0</ele><time>2026-04-03T14:56:51.916Z</time></trkpt><trkpt lat="44.0687467" lon="8.2146083"><ele>2.0</ele><time>2026-04-03T14:56:52.915Z</time></trkpt><trkpt lat="44.068715" lon="8.2147583"><ele>2.0</ele><time>2026-04-03T14:56:54.916Z</time></trkpt><trkpt lat="44.0686767" lon="8.2148933"><ele>2.0</ele><time>2026-04-03T14:56:56.916Z</time></trkpt><trkpt lat="44.0686517" lon="8.21502"><ele>2.0</ele><time>2026-04-03T14:56:58.915Z</time></trkpt><trkpt lat="44.0686417" lon="8.215135"><ele>2.0</ele><time>2026-04-03T14:57:01.915Z</time></trkpt><trkpt lat="44.0686283" lon="8.2152233"><ele>2.142857142857143</ele><time>2026-04-03T14:57:05.916Z</time></trkpt><trkpt lat="44.06869" lon="8.21528"><ele>2.2857142857142856</ele><time>2026-04-03T14:57:08.915Z</time></trkpt><trkpt lat="44.0687667" lon="8.2153267"><ele>2.4285714285714284</ele><time>2026-04-03T14:57:11.916Z</time></trkpt><trkpt lat="44.0688283" lon="8.2153467"><ele>2.571428571428571</ele><time>2026-04-03T14:57:13.916Z</time></trkpt><trkpt lat="44.0688933" lon="8.215375"><ele>2.7142857142857144</ele><time>2026-04-03T14:57:15.916Z</time></trkpt><trkpt lat="44.068835" lon="8.2153"><ele>2.8571428571428568</ele><time>2026-04-03T15:00:06.916Z</time></trkpt><trkpt lat="44.0687567" lon="8.2153283"><ele>3.0</ele><time>2026-04-03T15:00:08.916Z</time></trkpt><trkpt lat="44.06867" lon="8.2152883"><ele>3.0</ele><time>2026-04-03T15:00:10.916Z</time></trkpt><trkpt lat="44.06864" lon="8.215125"><ele>3.0</ele><time>2026-04-03T15:00:12.916Z</time></trkpt><trkpt lat="44.068665" lon="8.2150333"><ele>3.0</ele><time>2026-04-03T15:00:13.916Z</time></trkpt><trkpt lat="44.0687017" lon="8.21491"><ele>3.0</ele><time>2026-04-03T15:00:14.915Z</time></trkpt><trkpt lat="44.0687333" lon="8.2147617"><ele>3.0</ele><time>2026-04-03T15:00:15.916Z</time></trkpt><trkpt lat="44.0687717" lon="8.2146033"><ele>2.8</ele><time>2026-04-03T15:00:16.915Z</time></trkpt><trkpt lat="44.0688117" lon="8.2144517"><ele>2.5999999999999996</ele><time>2026-04-03T15:00:17.915Z</time></trkpt><trkpt lat="44.0688533" lon="8.2143183"><ele>2.4000000000000004</ele><time>2026-04-03T15:00:18.916Z</time></trkpt><trkpt lat="44.0688983" lon="8.2141983"><ele>2.2</ele><time>2026-04-03T15:00:19.916Z</time></trkpt><trkpt lat="44.0689417" lon="8.2140833"><ele>2.0</ele><time>2026-04-03T15:00:20.916Z</time></trkpt><trkpt lat="44.0689867" lon="8.2139583"><ele>2.0</ele><time>2026-04-03T15:00:21.915Z</time></trkpt><trkpt lat="44.0690217" lon="8.2138317"><ele>2.0</ele><time>2026-04-03T15:00:22.915Z</time></trkpt><trkpt lat="44.0690517" lon="8.2137017"><ele>2.0</ele><time>2026-04-03T15:00:23.916Z</time></trkpt><trkpt lat="44.0690817" lon="8.2135767"><ele>2.0</ele><time>2026-04-03T15:00:24.916Z</time></trkpt><trkpt lat="44.069105" lon="8.2134567"><ele>2.0</ele><time>2026-04-03T15:00:25.915Z</time></trkpt><trkpt lat="44.06912" lon="8.2133333"><ele>2.0</ele><time>2026-04-03T15:00:26.915Z</time></trkpt><trkpt lat="44.06914" lon="8.213215"><ele>2.0</ele><time>2026-04-03T15:00:27.916Z</time></trkpt><trkpt lat="44.0691617" lon="8.2130933"><ele>2.0</ele><time>2026-04-03T15:00:28.915Z</time></trkpt><trkpt lat="44.06919" lon="8.212965"><ele>2.0</ele><time>2026-04-03T15:00:29.915Z</time></trkpt><trkpt lat="44.0692367" lon="8.21282"><ele>2.0</ele><time>2026-04-03T15:00:30.915Z</time></trkpt><trkpt lat="44.069285" lon="8.2126733"><ele>2.2</ele><time>2026-04-03T15:00:31.916Z</time></trkpt><trkpt lat="44.06934" lon="8.2125367"><ele>2.4000000000000004</ele><time>2026-04-03T15:00:32.916Z</time></trkpt><trkpt lat="44.0693917" lon="8.2124183"><ele>2.5999999999999996</ele><time>2026-04-03T15:00:33.915Z</time></trkpt><trkpt lat="44.0694317" lon="8.212315"><ele>2.8</ele><time>2026-04-03T15:00:34.916Z</time></trkpt><trkpt lat="44.0694833" lon="8.2122033"><ele>3.0</ele><time>2026-04-03T15:00:35.916Z</time></trkpt><trkpt lat="44.0695317" lon="8.2120933"><ele>3.1666666666666665</ele><time>2026-04-03T15:00:36.916Z</time></trkpt><trkpt lat="44.0695683" lon="8.2119867"><ele>3.333333333333333</ele><time>2026-04-03T15:00:37.915Z</time></trkpt><trkpt lat="44.06961" lon="8.2118733"><ele>3.5</ele><time>2026-04-03T15:00:38.916Z</time></trkpt><trkpt lat="44.0696483" lon="8.2117617"><ele>3.6666666666666665</ele><time>2026-04-03T15:00:39.916Z</time></trkpt><trkpt lat="44.0696817" lon="8.21166"><ele>3.833333333333333</ele><time>2026-04-03T15:00:40.915Z</time></trkpt><trkpt lat="44.0697167" lon="8.2115633"><ele>4.0</ele><time>2026-04-03T15:00:41.916Z</time></trkpt><trkpt lat="44.06975" lon="8.2114767"><ele>4.25</ele><time>2026-04-03T15:00:42.916Z</time></trkpt><trkpt lat="44.069805" lon="8.2113267"><ele>4.5</ele><time>2026-04-03T15:00:44.915Z</time></trkpt><trkpt lat="44.0698517" lon="8.2111817"><ele>4.75</ele><time>2026-04-03T15:00:46.915Z</time></trkpt><trkpt lat="44.0699" lon="8.2110383"><ele>5.0</ele><time>2026-04-03T15:00:48.915Z</time></trkpt><trkpt lat="44.069945" lon="8.2108833"><ele>5.25</ele><time>2026-04-03T15:00:50.915Z</time></trkpt><trkpt lat="44.0699983" lon="8.2107333"><ele>5.5</ele><time>2026-04-03T15:00:52.915Z</time></trkpt><trkpt lat="44.07006" lon="8.2105833"><ele>5.75</ele><time>2026-04-03T15:00:54.916Z</time></trkpt><trkpt lat="44.070095" lon="8.210425"><ele>6.0</ele><time>2026-04-03T15:00:56.916Z</time></trkpt><trkpt lat="44.0701183" lon="8.2102683"><ele>6.0</ele><time>2026-04-03T15:00:58.915Z</time></trkpt><trkpt lat="44.07013" lon="8.21013"><ele>6.0</ele><time>2026-04-03T15:01:00.915Z</time></trkpt><trkpt lat="44.07012" lon="8.2099583"><ele>6.0</ele><time>2026-04-03T15:01:02.915Z</time></trkpt><trkpt lat="44.0701167" lon="8.2098683"><ele>6.0</ele><time>2026-04-03T15:01:03.916Z</time></trkpt><trkpt lat="44.0701117" lon="8.2097783"><ele>6.0</ele><time>2026-04-03T15:01:04.916Z</time></trkpt><trkpt lat="44.07011" lon="8.2096417"><ele>6.0</ele><time>2026-04-03T15:01:06.916Z</time></trkpt><trkpt lat="44.0701017" lon="8.2095317"><ele>6.0</ele><time>2026-04-03T15:01:10.916Z</time></trkpt><trkpt lat="44.0701133" lon="8.2094233"><ele>6.0</ele><time>2026-04-03T15:01:13.916Z</time></trkpt><trkpt lat="44.070115" lon="8.2093183"><ele>6.0</ele><time>2026-04-03T15:01:15.916Z</time></trkpt><trkpt lat="44.0701133" lon="8.2092067"><ele>6.0</ele><time>2026-04-03T15:01:17.916Z</time></trkpt><trkpt lat="44.0701033" lon="8.2090717"><ele>6.0</ele><time>2026-04-03T15:01:19.915Z</time></trkpt><trkpt lat="44.0700917" lon="8.208945"><ele>6.0</ele><time>2026-04-03T15:01:21.915Z</time></trkpt><trkpt lat="44.0700833" lon="8.2088517"><ele>6.0</ele><time>2026-04-03T15:01:23.916Z</time></trkpt><trkpt lat="44.07007" lon="8.2087567"><ele>6.0</ele><time>2026-04-03T15:01:25.916Z</time></trkpt><trkpt lat="44.0700683" lon="8.2086383"><ele>6.0</ele><time>2026-04-03T15:01:27.916Z</time></trkpt><trkpt lat="44.0700617" lon="8.2085367"><ele>6.0</ele><time>2026-04-03T15:01:29.916Z</time></trkpt><trkpt lat="44.0700633" lon="8.2084317"><ele>6.0</ele><time>2026-04-03T15:01:32.916Z</time></trkpt><trkpt lat="44.070065" lon="8.2083133"><ele>6.0</ele><time>2026-04-03T15:01:37.916Z</time></trkpt><trkpt lat="44.0701133" lon="8.2082533"><ele>6.0</ele><time>2026-04-03T15:01:40.915Z</time></trkpt><trkpt lat="44.0702033" lon="8.2082733"><ele>6.0</ele><time>2026-04-03T15:01:42.916Z</time></trkpt><trkpt lat="44.0702767" lon="8.208305"><ele>6.0</ele><time>2026-04-03T15:01:43.916Z</time></trkpt><trkpt lat="44.0703633" lon="8.2083267"><ele>6.0</ele><time>2026-04-03T15:01:44.916Z</time></trkpt><trkpt lat="44.07046" lon="8.20835"><ele>6.0</ele><time>2026-04-03T15:01:45.915Z</time></trkpt><trkpt lat="44.0705583" lon="8.2083783"><ele>6.0</ele><time>2026-04-03T15:01:46.915Z</time></trkpt><trkpt lat="44.07067" lon="8.2084"><ele>6.0</ele><time>2026-04-03T15:01:47.915Z</time></trkpt><trkpt lat="44.0707733" lon="8.2084167"><ele>6.0</ele><time>2026-04-03T15:01:48.915Z</time></trkpt><trkpt lat="44.07088" lon="8.2084467"><ele>6.0</ele><time>2026-04-03T15:01:49.915Z</time></trkpt><trkpt lat="44.0709967" lon="8.2084733"><ele>6.0</ele><time>2026-04-03T15:01:50.916Z</time></trkpt><trkpt lat="44.0711067" lon="8.208505"><ele>6.0</ele><time>2026-04-03T15:01:51.915Z</time></trkpt><trkpt lat="44.0712" lon="8.2085433"><ele>6.0</ele><time>2026-04-03T15:01:52.916Z</time></trkpt><trkpt lat="44.0713" lon="8.2085767"><ele>6.0</ele><time>2026-04-03T15:01:53.916Z</time></trkpt><trkpt lat="44.0714" lon="8.2086233"><ele>6.0</ele><time>2026-04-03T15:01:54.916Z</time></trkpt><trkpt lat="44.0715083" lon="8.2086667"><ele>6.0</ele><time>2026-04-03T15:01:55.916Z</time></trkpt><trkpt lat="44.07161" lon="8.2087117"><ele>6.25</ele><time>2026-04-03T15:01:56.916Z</time></trkpt><trkpt lat="44.0717283" lon="8.2087683"><ele>6.5</ele><time>2026-04-03T15:01:57.916Z</time></trkpt><trkpt lat="44.07183" lon="8.2088067"><ele>6.75</ele><time>2026-04-03T15:01:58.915Z</time></trkpt><trkpt lat="44.07193" lon="8.208855"><ele>7.0</ele><time>2026-04-03T15:01:59.915Z</time></trkpt><trkpt lat="44.0720517" lon="8.2089133"><ele>7.0</ele><time>2026-04-03T15:02:00.916Z</time></trkpt><trkpt lat="44.072165" lon="8.208955"><ele>7.0</ele><time>2026-04-03T15:02:01.916Z</time></trkpt><trkpt lat="44.07227" lon="8.208995"><ele>7.0</ele><time>2026-04-03T15:02:02.916Z</time></trkpt><trkpt lat="44.07238" lon="8.2090483"><ele>7.0</ele><time>2026-04-03T15:02:03.915Z</time></trkpt><trkpt lat="44.07249" lon="8.2090933"><ele>6.25</ele><time>2026-04-03T15:02:04.916Z</time></trkpt><trkpt lat="44.0726033" lon="8.2091433"><ele>5.5</ele><time>2026-04-03T15:02:05.915Z</time></trkpt><trkpt lat="44.0727183" lon="8.20918"><ele>4.75</ele><time>2026-04-03T15:02:06.915Z</time></trkpt><trkpt lat="44.0728317" lon="8.2092217"><ele>4.0</ele><time>2026-04-03T15:02:07.915Z</time></trkpt><trkpt lat="44.0729533" lon="8.20926"><ele>4.0</ele><time>2026-04-03T15:02:08.915Z</time></trkpt><trkpt lat="44.0730667" lon="8.209305"><ele>4.0</ele><time>2026-04-03T15:02:09.916Z</time></trkpt><trkpt lat="44.0731717" lon="8.2093467"><ele>4.0</ele><time>2026-04-03T15:02:10.916Z</time></trkpt><trkpt lat="44.073285" lon="8.2094083"><ele>4.0</ele><time>2026-04-03T15:02:11.916Z</time></trkpt><trkpt lat="44.073385" lon="8.209485"><ele>4.2</ele><time>2026-04-03T15:02:12.916Z</time></trkpt><trkpt lat="44.0734817" lon="8.2095683"><ele>4.4</ele><time>2026-04-03T15:02:13.916Z</time></trkpt><trkpt lat="44.0735667" lon="8.20964"><ele>4.6</ele><time>2026-04-03T15:02:14.916Z</time></trkpt><trkpt lat="44.0736383" lon="8.2097183"><ele>4.8</ele><time>2026-04-03T15:02:15.916Z</time></trkpt><trkpt lat="44.07373" lon="8.209785"><ele>5.0</ele><time>2026-04-03T15:02:16.916Z</time></trkpt><trkpt lat="44.07382" lon="8.2098567"><ele>5.0</ele><time>2026-04-03T15:02:17.916Z</time></trkpt><trkpt lat="44.0739233" lon="8.2099367"><ele>5.0</ele><time>2026-04-03T15:02:18.916Z</time></trkpt><trkpt lat="44.074025" lon="8.2100167"><ele>5.0</ele><time>2026-04-03T15:02:19.916Z</time></trkpt><trkpt lat="44.0741417" lon="8.21009"><ele>5.0</ele><time>2026-04-03T15:02:20.915Z</time></trkpt><trkpt lat="44.074265" lon="8.210135"><ele>5.25</ele><time>2026-04-03T15:02:21.915Z</time></trkpt><trkpt lat="44.0743883" lon="8.21013"><ele>5.5</ele><time>2026-04-03T15:02:22.915Z</time></trkpt><trkpt lat="44.0745167" lon="8.21011"><ele>5.75</ele><time>2026-04-03T15:02:23.916Z</time></trkpt><trkpt lat="44.0746483" lon="8.2100883"><ele>6.0</ele><time>2026-04-03T15:02:24.916Z</time></trkpt><trkpt lat="44.074785" lon="8.2100617"><ele>6.0</ele><time>2026-04-03T15:02:25.916Z</time></trkpt><trkpt lat="44.074915" lon="8.21005"><ele>6.0</ele><time>2026-04-03T15:02:26.916Z</time></trkpt><trkpt lat="44.075055" lon="8.2100267"><ele>6.0</ele><time>2026-04-03T15:02:27.916Z</time></trkpt><trkpt lat="44.0751833" lon="8.2100117"><ele>6.0</ele><time>2026-04-03T15:02:28.916Z</time></trkpt><trkpt lat="44.0753133" lon="8.21"><ele>5.75</ele><time>2026-04-03T15:02:29.915Z</time></trkpt><trkpt lat="44.0754517" lon="8.2100017"><ele>5.5</ele><time>2026-04-03T15:02:30.916Z</time></trkpt><trkpt lat="44.0755783" lon="8.21"><ele>5.25</ele><time>2026-04-03T15:02:31.916Z</time></trkpt><trkpt lat="44.075715" lon="8.2099983"><ele>5.0</ele><time>2026-04-03T15:02:32.916Z</time></trkpt><trkpt lat="44.0758567" lon="8.2099967"><ele>5.5</ele><time>2026-04-03T15:02:33.916Z</time></trkpt><trkpt lat="44.0759917" lon="8.20999"><ele>6.0</ele><time>2026-04-03T15:02:34.915Z</time></trkpt><trkpt lat="44.0761367" lon="8.2099683"><ele>6.5</ele><time>2026-04-03T15:02:35.915Z</time></trkpt><trkpt lat="44.0762733" lon="8.2099283"><ele>7.0</ele><time>2026-04-03T15:02:36.916Z</time></trkpt><trkpt lat="44.0764017" lon="8.20987"><ele>7.5</ele><time>2026-04-03T15:02:37.915Z</time></trkpt><trkpt lat="44.0765133" lon="8.2098033"><ele>8.0</ele><time>2026-04-03T15:02:38.915Z</time></trkpt><trkpt lat="44.07662" lon="8.2097367"><ele>8.5</ele><time>2026-04-03T15:02:39.915Z</time></trkpt><trkpt lat="44.07673" lon="8.20969"><ele>9.0</ele><time>2026-04-03T15:02:40.916Z</time></trkpt><trkpt lat="44.07684" lon="8.209655"><ele>9.0</ele><time>2026-04-03T15:02:41.915Z</time></trkpt><trkpt lat="44.0769317" lon="8.2096283"><ele>9.0</ele><time>2026-04-03T15:02:42.915Z</time></trkpt><trkpt lat="44.0770017" lon="8.209615"><ele>9.0</ele><time>2026-04-03T15:02:44.916Z</time></trkpt><trkpt lat="44.077065" lon="8.2096933"><ele>9.0</ele><time>2026-04-03T15:02:49.916Z</time></trkpt><trkpt lat="44.07711" lon="8.2098"><ele>9.0</ele><time>2026-04-03T15:02:50.916Z</time></trkpt><trkpt lat="44.0771517" lon="8.2099283"><ele>9.0</ele><time>2026-04-03T15:02:51.916Z</time></trkpt><trkpt lat="44.0771733" lon="8.210075"><ele>8.25</ele><time>2026-04-03T15:02:52.915Z</time></trkpt><trkpt lat="44.0771783" lon="8.2102317"><ele>7.5</ele><time>2026-04-03T15:02:53.915Z</time></trkpt><trkpt lat="44.0771733" lon="8.2103933"><ele>6.75</ele><time>2026-04-03T15:02:54.915Z</time></trkpt><trkpt lat="44.0771667" lon="8.21057"><ele>6.0</ele><time>2026-04-03T15:02:55.915Z</time></trkpt><trkpt lat="44.077155" lon="8.2107467"><ele>5.5</ele><time>2026-04-03T15:02:56.916Z</time></trkpt><trkpt lat="44.07716" lon="8.2109267"><ele>5.0</ele><time>2026-04-03T15:02:57.915Z</time></trkpt><trkpt lat="44.077175" lon="8.2111083"><ele>4.5</ele><time>2026-04-03T15:02:58.916Z</time></trkpt><trkpt lat="44.077205" lon="8.211285"><ele>4.0</ele><time>2026-04-03T15:02:59.916Z</time></trkpt><trkpt lat="44.077235" lon="8.2114583"><ele>4.0</ele><time>2026-04-03T15:03:00.916Z</time></trkpt><trkpt lat="44.07727" lon="8.2116283"><ele>4.0</ele><time>2026-04-03T15:03:01.915Z</time></trkpt><trkpt lat="44.0773133" lon="8.2117833"><ele>4.0</ele><time>2026-04-03T15:03:02.916Z</time></trkpt><trkpt lat="44.0773633" lon="8.211945"><ele>4.0</ele><time>2026-04-03T15:03:03.916Z</time></trkpt><trkpt lat="44.0774317" lon="8.212095"><ele>4.75</ele><time>2026-04-03T15:03:04.915Z</time></trkpt><trkpt lat="44.0775017" lon="8.2122433"><ele>5.5</ele><time>2026-04-03T15:03:05.916Z</time></trkpt><trkpt lat="44.0775683" lon="8.2123967"><ele>6.25</ele><time>2026-04-03T15:03:06.915Z</time></trkpt><trkpt lat="44.0776383" lon="8.2125517"><ele>7.0</ele><time>2026-04-03T15:03:07.915Z</time></trkpt><trkpt lat="44.0776917" lon="8.2127067"><ele>7.0</ele><time>2026-04-03T15:03:08.915Z</time></trkpt><trkpt lat="44.0777417" lon="8.2128533"><ele>6.999999999999999</ele><time>2026-04-03T15:03:09.916Z</time></trkpt><trkpt lat="44.0777867" lon="8.213"><ele>6.999999999999999</ele><time>2026-04-03T15:03:10.915Z</time></trkpt><trkpt lat="44.0778317" lon="8.21312"><ele>7.0</ele><time>2026-04-03T15:03:11.915Z</time></trkpt><trkpt lat="44.0778583" lon="8.213225"><ele>7.0</ele><time>2026-04-03T15:03:12.916Z</time></trkpt><trkpt lat="44.0778417" lon="8.21337"><ele>6.833333333333334</ele><time>2026-04-03T15:03:14.915Z</time></trkpt><trkpt lat="44.0777933" lon="8.21343"><ele>6.666666666666667</ele><time>2026-04-03T15:03:15.916Z</time></trkpt><trkpt lat="44.0777283" lon="8.2134783"><ele>6.5</ele><time>2026-04-03T15:03:16.915Z</time></trkpt><trkpt lat="44.0776567" lon="8.213535"><ele>6.333333333333334</ele><time>2026-04-03T15:03:17.916Z</time></trkpt><trkpt lat="44.077575" lon="8.2136"><ele>6.166666666666667</ele><time>2026-04-03T15:03:18.915Z</time></trkpt><trkpt lat="44.07749" lon="8.21368"><ele>6.0</ele><time>2026-04-03T15:03:19.916Z</time></trkpt><trkpt lat="44.0774033" lon="8.2137583"><ele>5.8</ele><time>2026-04-03T15:03:20.916Z</time></trkpt><trkpt lat="44.0773183" lon="8.2138467"><ele>5.6</ele><time>2026-04-03T15:03:21.916Z</time></trkpt><trkpt lat="44.07724" lon="8.2139283"><ele>5.4</ele><time>2026-04-03T15:03:22.916Z</time></trkpt><trkpt lat="44.0771633" lon="8.2140183"><ele>5.2</ele><time>2026-04-03T15:03:23.916Z</time></trkpt><trkpt lat="44.077085" lon="8.214105"><ele>5.0</ele><time>2026-04-03T15:03:24.915Z</time></trkpt><trkpt lat="44.077015" lon="8.2141833"><ele>5.0</ele><time>2026-04-03T15:03:25.916Z</time></trkpt><trkpt lat="44.0769533" lon="8.2142617"><ele>5.0</ele><time>2026-04-03T15:03:26.915Z</time></trkpt><trkpt lat="44.0768967" lon="8.2143317"><ele>5.0</ele><time>2026-04-03T15:03:27.916Z</time></trkpt><trkpt lat="44.0768033" lon="8.214375"><ele>5.0</ele><time>2026-04-03T15:03:29.916Z</time></trkpt><trkpt lat="44.07669" lon="8.2143333"><ele>5.0</ele><time>2026-04-03T15:03:31.916Z</time></trkpt><trkpt lat="44.0766233" lon="8.2142983"><ele>5.0</ele><time>2026-04-03T15:03:32.915Z</time></trkpt><trkpt lat="44.07654" lon="8.2142567"><ele>4.6</ele><time>2026-04-03T15:03:33.916Z</time></trkpt><trkpt lat="44.0764433" lon="8.2142117"><ele>4.2</ele><time>2026-04-03T15:03:34.916Z</time></trkpt><trkpt lat="44.076345" lon="8.2141667"><ele>3.8</ele><time>2026-04-03T15:03:35.915Z</time></trkpt><trkpt lat="44.076245" lon="8.2141167"><ele>3.4</ele><time>2026-04-03T15:03:36.916Z</time></trkpt><trkpt lat="44.07615" lon="8.214065"><ele>3.0</ele><time>2026-04-03T15:03:37.916Z</time></trkpt><trkpt lat="44.0760533" lon="8.2139983"><ele>3.0</ele><time>2026-04-03T15:03:38.915Z</time></trkpt><trkpt lat="44.07596" lon="8.213915"><ele>3.0</ele><time>2026-04-03T15:03:39.916Z</time></trkpt><trkpt lat="44.0758683" lon="8.2138283"><ele>3.0</ele><time>2026-04-03T15:03:40.916Z</time></trkpt><trkpt lat="44.0757683" lon="8.2137383"><ele>3.0</ele><time>2026-04-03T15:03:41.916Z</time></trkpt><trkpt lat="44.0756667" lon="8.2136483"><ele>3.25</ele><time>2026-04-03T15:03:42.915Z</time></trkpt><trkpt lat="44.0755667" lon="8.21356"><ele>3.5</ele><time>2026-04-03T15:03:43.915Z</time></trkpt><trkpt lat="44.0754683" lon="8.2134717"><ele>3.75</ele><time>2026-04-03T15:03:44.916Z</time></trkpt><trkpt lat="44.075365" lon="8.2133867"><ele>4.0</ele><time>2026-04-03T15:03:45.916Z</time></trkpt><trkpt lat="44.0752717" lon="8.2132867"><ele>4.0</ele><time>2026-04-03T15:03:46.916Z</time></trkpt><trkpt lat="44.0751767" lon="8.213205"><ele>4.0</ele><time>2026-04-03T15:03:47.916Z</time></trkpt><trkpt lat="44.0750833" lon="8.2131283"><ele>4.0</ele><time>2026-04-03T15:03:48.916Z</time></trkpt><trkpt lat="44.0749883" lon="8.2130517"><ele>4.0</ele><time>2026-04-03T15:03:49.916Z</time></trkpt><trkpt lat="44.074895" lon="8.2129983"><ele>4.0</ele><time>2026-04-03T15:03:50.916Z</time></trkpt><trkpt lat="44.074805" lon="8.21295"><ele>3.9999999999999996</ele><time>2026-04-03T15:03:51.916Z</time></trkpt><trkpt lat="44.0747233" lon="8.2129017"><ele>4.0</ele><time>2026-04-03T15:03:52.916Z</time></trkpt><trkpt lat="44.074645" lon="8.2128483"><ele>4.0</ele><time>2026-04-03T15:03:53.916Z</time></trkpt><trkpt lat="44.0745733" lon="8.2128117"><ele>4.0</ele><time>2026-04-03T15:03:54.915Z</time></trkpt><trkpt lat="44.0744783" lon="8.2127767"><ele>3.9999999999999996</ele><time>2026-04-03T15:03:56.916Z</time></trkpt><trkpt lat="44.0744233" lon="8.2128317"><ele>4.0</ele><time>2026-04-03T15:03:58.915Z</time></trkpt><trkpt lat="44.0744117" lon="8.212745"><ele>4.0</ele><time>2026-04-03T15:04:01.915Z</time></trkpt><trkpt lat="44.0744783" lon="8.2127033"><ele>4.0</ele><time>2026-04-03T15:04:40.916Z</time></trkpt></trkseg></trk></gpx>